<?xml version='1.0' encoding='UTF-8'?><gpx version="1.1" creator="JPX - https://github.com/jenetics/jpx" xmlns="http://www.topografix.com/GPX/1/1"><trk><trkseg><trkpt lat="44.65098546137694" lon="10.312301249317965"><ele>217.66666666666669</ele><time>2026-04-24T12:20:27.999Z</time></trkpt><trkpt lat="44.6509328673861" lon="10.312191355920794"><ele>217.33333333333334</ele><time>2026-04-24T12:20:28.999Z</time></trkpt><trkpt lat="44.650924650377746" lon="10.312095512700468"><ele>217.0</ele><time>2026-04-24T12:20:29.999Z</time></trkpt><trkpt lat="44.650959121652896" lon="10.312005796720205"><ele>216.66666666666669</ele><time>2026-04-24T12:20:30.999Z</time></trkpt><trkpt lat="44.651034821097674" lon="10.311905454286032"><ele>216.33333333333334</ele><time>2026-04-24T12:20:31.999Z</time></trkpt><trkpt lat="44.651120094648455" lon="10.31184534804835"><ele>216.0</ele><time>2026-04-24T12:20:32.999Z</time></trkpt><trkpt lat="44.651187233541556" lon="10.311769229828135"><ele>215.60000000000002</ele><time>2026-04-24T12:20:33.999Z</time></trkpt><trkpt lat="44.651257470670785" lon="10.311687013269362"><ele>215.20000000000002</ele><time>2026-04-24T12:20:34.999Z</time></trkpt><trkpt lat="44.65132686962531" lon="10.311602702465938"><ele>214.79999999999998</ele><time>2026-04-24T12:20:35.999Z</time></trkpt><trkpt lat="44.65140146872785" lon="10.311496634136216"><ele>214.39999999999998</ele><time>2026-04-24T12:20:36.999Z</time></trkpt><trkpt lat="44.651463233242495" lon="10.3113738238718"><ele>214.0</ele><time>2026-04-24T12:20:37.999Z</time></trkpt><trkpt lat="44.65152351319488" lon="10.311251929653276"><ele>213.99999999999997</ele><time>2026-04-24T12:20:38.999Z</time></trkpt><trkpt lat="44.651586380698554" lon="10.311130534768106"><ele>214.0</ele><time>2026-04-24T12:20:39.999Z</time></trkpt><trkpt lat="44.65164321407411" lon="10.311019219110905"><ele>214.0</ele><time>2026-04-24T12:20:40.999Z</time></trkpt><trkpt lat="44.651676669734115" lon="10.310941328253277"><ele>214.0</ele><time>2026-04-24T12:20:41.999Z</time></trkpt><trkpt lat="44.65173345814583" lon="10.310871820061795"><ele>213.99999999999997</ele><time>2026-04-24T12:20:42.999Z</time></trkpt><trkpt lat="44.65178844391089" lon="10.310776829691859"><ele>214.0</ele><time>2026-04-24T12:20:44.999Z</time></trkpt><trkpt lat="44.65175866427899" lon="10.3106139166948"><ele>213.79999999999998</ele><time>2026-04-24T12:20:45.998Z</time></trkpt><trkpt lat="44.6517565347975" lon="10.310501886919095"><ele>213.59999999999997</ele><time>2026-04-24T12:20:46.998Z</time></trkpt><trkpt lat="44.65169858168636" lon="10.310407317217303"><ele>213.4</ele><time>2026-04-24T12:20:47.998Z</time></trkpt><trkpt lat="44.65158933540857" lon="10.310397011085328"><ele>213.2</ele><time>2026-04-24T12:20:48.998Z</time></trkpt><trkpt lat="44.65147812807045" lon="10.310465274589532"><ele>213.0</ele><time>2026-04-24T12:20:49.998Z</time></trkpt><trkpt lat="44.65137354258878" lon="10.310435857423467"><ele>213.0</ele><time>2026-04-24T12:20:50.998Z</time></trkpt><trkpt lat="44.65126982944848" lon="10.310355529692739"><ele>213.0</ele><time>2026-04-24T12:20:51.998Z</time></trkpt><trkpt lat="44.651161793099455" lon="10.310248145367344"><ele>213.0</ele><time>2026-04-24T12:20:52.998Z</time></trkpt><trkpt lat="44.6510452356613" lon="10.310121828077307"><ele>213.0</ele><time>2026-04-24T12:20:53.998Z</time></trkpt><trkpt lat="44.65093380557429" lon="10.30999179521451"><ele>214.0</ele><time>2026-04-24T12:20:54.998Z</time></trkpt><trkpt lat="44.650822532177514" lon="10.309853544916662"><ele>215.0</ele><time>2026-04-24T12:20:55.998Z</time></trkpt><trkpt lat="44.650715842022365" lon="10.309707559161076"><ele>216.0</ele><time>2026-04-24T12:20:56.998Z</time></trkpt><trkpt lat="44.650631380291486" lon="10.309526806096235"><ele>216.66666666666669</ele><time>2026-04-24T12:20:57.998Z</time></trkpt><trkpt lat="44.65053610834032" lon="10.309355002199363"><ele>217.33333333333334</ele><time>2026-04-24T12:20:58.998Z</time></trkpt><trkpt lat="44.65044067980257" lon="10.309179608137548"><ele>218.0</ele><time>2026-04-24T12:20:59.998Z</time></trkpt><trkpt lat="44.650332548517845" lon="10.30901227054"><ele>219.0</ele><time>2026-04-24T12:21:00.998Z</time></trkpt><trkpt lat="44.65023639019937" lon="10.308828459612974"><ele>220.0</ele><time>2026-04-24T12:21:01.998Z</time></trkpt><trkpt lat="44.6501387404986" lon="10.308641016636674"><ele>221.0</ele><time>2026-04-24T12:21:02.998Z</time></trkpt><trkpt lat="44.65004286755816" lon="10.308449606992546"><ele>221.0</ele><time>2026-04-24T12:21:03.998Z</time></trkpt><trkpt lat="44.649939049967585" lon="10.308256360729445"><ele>221.0</ele><time>2026-04-24T12:21:04.998Z</time></trkpt><trkpt lat="44.64983325888866" lon="10.308061851683703"><ele>221.0</ele><time>2026-04-24T12:21:05.998Z</time></trkpt><trkpt lat="44.64973220907567" lon="10.307860599638818"><ele>221.0</ele><time>2026-04-24T12:21:06.998Z</time></trkpt><trkpt lat="44.649627841690695" lon="10.307662481820453"><ele>221.0</ele><time>2026-04-24T12:21:07.998Z</time></trkpt><trkpt lat="44.64952276253342" lon="10.307461715685825"><ele>221.0</ele><time>2026-04-24T12:21:08.998Z</time></trkpt><trkpt lat="44.649414411219716" lon="10.307264367068006"><ele>222.33333333333334</ele><time>2026-04-24T12:21:09.998Z</time></trkpt><trkpt lat="44.64930411958158" lon="10.307065673757515"><ele>223.66666666666669</ele><time>2026-04-24T12:21:10.998Z</time></trkpt><trkpt lat="44.649195748261235" lon="10.30686485798917"><ele>225.0</ele><time>2026-04-24T12:21:11.998Z</time></trkpt><trkpt lat="44.64909091183493" lon="10.30666885867087"><ele>225.0</ele><time>2026-04-24T12:21:12.998Z</time></trkpt><trkpt lat="44.648986412980314" lon="10.306473656589755"><ele>225.0</ele><time>2026-04-24T12:21:13.998Z</time></trkpt><trkpt lat="44.648881631838556" lon="10.306278633966578"><ele>225.0</ele><time>2026-04-24T12:21:14.998Z</time></trkpt><trkpt lat="44.64877669133523" lon="10.306088090936782"><ele>225.0</ele><time>2026-04-24T12:21:15.998Z</time></trkpt><trkpt lat="44.6486679080593" lon="10.305900922762456"><ele>225.0</ele><time>2026-04-24T12:21:16.998Z</time></trkpt><trkpt lat="44.64855344976632" lon="10.305714063903375"><ele>225.0</ele><time>2026-04-24T12:21:17.998Z</time></trkpt><trkpt lat="44.64843210410314" lon="10.305530821577763"><ele>226.33333333333331</ele><time>2026-04-24T12:21:18.998Z</time></trkpt><trkpt lat="44.6483104446001" lon="10.305343733400402"><ele>227.66666666666666</ele><time>2026-04-24T12:21:19.998Z</time></trkpt><trkpt lat="44.6481864146087" lon="10.30514719112495"><ele>229.0</ele><time>2026-04-24T12:21:20.998Z</time></trkpt><trkpt lat="44.648059816618456" lon="10.304945969007676"><ele>228.33333333333331</ele><time>2026-04-24T12:21:21.998Z</time></trkpt><trkpt lat="44.64792777655976" lon="10.304737210835741"><ele>227.66666666666669</ele><time>2026-04-24T12:21:22.998Z</time></trkpt><trkpt lat="44.64779300217041" lon="10.304526163204885"><ele>227.0</ele><time>2026-04-24T12:21:23.998Z</time></trkpt><trkpt lat="44.64765665883171" lon="10.304317475534544"><ele>229.33333333333334</ele><time>2026-04-24T12:21:24.998Z</time></trkpt><trkpt lat="44.64753592239981" lon="10.30412442432994"><ele>231.66666666666669</ele><time>2026-04-24T12:21:25.998Z</time></trkpt><trkpt lat="44.64743035761669" lon="10.303957686089753"><ele>234.0</ele><time>2026-04-24T12:21:26.998Z</time></trkpt><trkpt lat="44.64732916413289" lon="10.303800256257826"><ele>234.0</ele><time>2026-04-24T12:21:27.997Z</time></trkpt><trkpt lat="44.64724871822661" lon="10.303649664648995"><ele>234.0</ele><time>2026-04-24T12:21:28.997Z</time></trkpt><trkpt lat="44.64720445293298" lon="10.303486934471309"><ele>234.0</ele><time>2026-04-24T12:21:29.997Z</time></trkpt><trkpt lat="44.64720226423173" lon="10.303302327171485"><ele>234.0</ele><time>2026-04-24T12:21:30.997Z</time></trkpt><trkpt lat="44.647229876758914" lon="10.303112155750327"><ele>233.66666666666669</ele><time>2026-04-24T12:21:31.997Z</time></trkpt><trkpt lat="44.64719391824463" lon="10.302904492704"><ele>233.33333333333334</ele><time>2026-04-24T12:21:32.997Z</time></trkpt><trkpt lat="44.64718581430149" lon="10.302695307190236"><ele>233.0</ele><time>2026-04-24T12:21:33.997Z</time></trkpt><trkpt lat="44.64719604437746" lon="10.302473983040086"><ele>233.0</ele><time>2026-04-24T12:21:34.997Z</time></trkpt><trkpt lat="44.64721425735129" lon="10.302243215661452"><ele>233.0</ele><time>2026-04-24T12:21:35.997Z</time></trkpt><trkpt lat="44.64722987592652" lon="10.302002527708254"><ele>233.0</ele><time>2026-04-24T12:21:36.997Z</time></trkpt><trkpt lat="44.64724185620125" lon="10.301749697694628"><ele>233.0</ele><time>2026-04-24T12:21:37.997Z</time></trkpt><trkpt lat="44.64725671557767" lon="10.301488286193182"><ele>233.0</ele><time>2026-04-24T12:21:38.997Z</time></trkpt><trkpt lat="44.64726054704642" lon="10.301230442819389"><ele>233.0</ele><time>2026-04-24T12:21:39.997Z</time></trkpt><trkpt lat="44.64723084394954" lon="10.30097330459634"><ele>232.66666666666669</ele><time>2026-04-24T12:21:40.997Z</time></trkpt><trkpt lat="44.647159211588345" lon="10.300728057447225"><ele>232.33333333333331</ele><time>2026-04-24T12:21:41.997Z</time></trkpt><trkpt lat="44.647053899773894" lon="10.300501074732097"><ele>232.0</ele><time>2026-04-24T12:21:42.997Z</time></trkpt><trkpt lat="44.6469386682834" lon="10.300288712584168"><ele>232.0</ele><time>2026-04-24T12:21:43.997Z</time></trkpt><trkpt lat="44.64681425768864" lon="10.30009011474492"><ele>232.0</ele><time>2026-04-24T12:21:44.997Z</time></trkpt><trkpt lat="44.64669046415237" lon="10.299887861185166"><ele>232.0</ele><time>2026-04-24T12:21:45.997Z</time></trkpt><trkpt lat="44.64656782190833" lon="10.29968036195766"><ele>228.0</ele><time>2026-04-24T12:21:46.997Z</time></trkpt><trkpt lat="44.64644004418684" lon="10.299483051781575"><ele>224.0</ele><time>2026-04-24T12:21:47.997Z</time></trkpt><trkpt lat="44.646301959115135" lon="10.299299022541852"><ele>220.0</ele><time>2026-04-24T12:21:48.997Z</time></trkpt><trkpt lat="44.646152402891545" lon="10.29911853513302"><ele>220.66666666666666</ele><time>2026-04-24T12:21:49.997Z</time></trkpt><trkpt lat="44.646002088005446" lon="10.298942340068052"><ele>221.33333333333331</ele><time>2026-04-24T12:21:50.997Z</time></trkpt><trkpt lat="44.64585169737819" lon="10.298754403865596"><ele>222.0</ele><time>2026-04-24T12:21:51.997Z</time></trkpt><trkpt lat="44.645705536341815" lon="10.298562700095001"><ele>222.0</ele><time>2026-04-24T12:21:52.997Z</time></trkpt><trkpt lat="44.6455711100227" lon="10.298372152884415"><ele>222.0</ele><time>2026-04-24T12:21:53.997Z</time></trkpt><trkpt lat="44.64545398662574" lon="10.298176064640352"><ele>222.0</ele><time>2026-04-24T12:21:54.997Z</time></trkpt><trkpt lat="44.645384028622665" lon="10.297949634440897"><ele>222.33333333333331</ele><time>2026-04-24T12:21:55.997Z</time></trkpt><trkpt lat="44.64532094085444" lon="10.297706388553166"><ele>222.66666666666666</ele><time>2026-04-24T12:21:56.997Z</time></trkpt><trkpt lat="44.64525275407155" lon="10.297456955448832"><ele>223.0</ele><time>2026-04-24T12:21:57.997Z</time></trkpt><trkpt lat="44.645210644065386" lon="10.297190447414607"><ele>220.33333333333331</ele><time>2026-04-24T12:21:58.997Z</time></trkpt><trkpt lat="44.64515722297651" lon="10.296925412965155"><ele>217.66666666666669</ele><time>2026-04-24T12:21:59.997Z</time></trkpt><trkpt lat="44.645096181552134" lon="10.296654040255381"><ele>215.0</ele><time>2026-04-24T12:22:00.997Z</time></trkpt><trkpt lat="44.645045593478706" lon="10.296390447445825"><ele>214.66666666666669</ele><time>2026-04-24T12:22:01.997Z</time></trkpt><trkpt lat="44.64499668972529" lon="10.296141286563994"><ele>214.33333333333331</ele><time>2026-04-24T12:22:02.997Z</time></trkpt><trkpt lat="44.644948574186124" lon="10.295919582163418"><ele>214.0</ele><time>2026-04-24T12:22:03.997Z</time></trkpt><trkpt lat="44.644872013393375" lon="10.295729364686299"><ele>213.75</ele><time>2026-04-24T12:22:04.997Z</time></trkpt><trkpt lat="44.644767036489085" lon="10.295577977557114"><ele>213.5</ele><time>2026-04-24T12:22:05.997Z</time></trkpt><trkpt lat="44.644659503098104" lon="10.295445466509321"><ele>213.25</ele><time>2026-04-24T12:22:06.997Z</time></trkpt><trkpt lat="44.64455494760685" lon="10.295303224402783"><ele>213.0</ele><time>2026-04-24T12:22:07.997Z</time></trkpt><trkpt lat="44.64445155071845" lon="10.295157933978523"><ele>213.25</ele><time>2026-04-24T12:22:08.997Z</time></trkpt><trkpt lat="44.64434794626671" lon="10.295009656960843"><ele>213.5</ele><time>2026-04-24T12:22:09.997Z</time></trkpt><trkpt lat="44.644245606303976" lon="10.294862854352852"><ele>213.75</ele><time>2026-04-24T12:22:10.997Z</time></trkpt><trkpt lat="44.64415892679606" lon="10.294702346007691"><ele>214.0</ele><time>2026-04-24T12:22:11.997Z</time></trkpt><trkpt lat="44.64405889352516" lon="10.294558546651142"><ele>214.0</ele><time>2026-04-24T12:22:12.997Z</time></trkpt><trkpt lat="44.64394696238406" lon="10.294438755174955"><ele>214.0</ele><time>2026-04-24T12:22:13.997Z</time></trkpt><trkpt lat="44.64384194025188" lon="10.294310476029501"><ele>214.0</ele><time>2026-04-24T12:22:14.997Z</time></trkpt><trkpt lat="44.64372513340126" lon="10.29420420261026"><ele>214.0</ele><time>2026-04-24T12:22:15.997Z</time></trkpt><trkpt lat="44.64360352997179" lon="10.294108034151831"><ele>214.25</ele><time>2026-04-24T12:22:16.997Z</time></trkpt><trkpt lat="44.64348333529027" lon="10.294009633144212"><ele>214.5</ele><time>2026-04-24T12:22:17.997Z</time></trkpt><trkpt lat="44.64336850230025" lon="10.293903797029111"><ele>214.75</ele><time>2026-04-24T12:22:18.997Z</time></trkpt><trkpt lat="44.64325998426268" lon="10.293802659706635"><ele>215.0</ele><time>2026-04-24T12:22:19.996Z</time></trkpt><trkpt lat="44.643164990975244" lon="10.293683636261699"><ele>215.0</ele><time>2026-04-24T12:22:20.996Z</time></trkpt><trkpt lat="44.64306233170162" lon="10.293590438115965"><ele>215.0</ele><time>2026-04-24T12:22:21.996Z</time></trkpt><trkpt lat="44.64296491239156" lon="10.29350199691063"><ele>215.0</ele><time>2026-04-24T12:22:22.996Z</time></trkpt><trkpt lat="44.64285924502811" lon="10.293429720551526"><ele>215.0</ele><time>2026-04-24T12:22:23.996Z</time></trkpt><trkpt lat="44.64276296692202" lon="10.29334237524335"><ele>216.25</ele><time>2026-04-24T12:22:24.997Z</time></trkpt><trkpt lat="44.64266667151359" lon="10.293264479385776"><ele>217.5</ele><time>2026-04-24T12:22:25.997Z</time></trkpt><trkpt lat="44.64256670014195" lon="10.293192120874787"><ele>218.75</ele><time>2026-04-24T12:22:26.997Z</time></trkpt><trkpt lat="44.642467223478654" lon="10.293113398035603"><ele>220.0</ele><time>2026-04-24T12:22:27.997Z</time></trkpt><trkpt lat="44.64235093048023" lon="10.293091789167367"><ele>219.8</ele><time>2026-04-24T12:22:28.997Z</time></trkpt><trkpt lat="44.6422488025665" lon="10.293025053885822"><ele>219.6</ele><time>2026-04-24T12:22:29.997Z</time></trkpt><trkpt lat="44.642147475122556" lon="10.29297562222157"><ele>219.39999999999998</ele><time>2026-04-24T12:22:30.997Z</time></trkpt><trkpt lat="44.642050935561336" lon="10.292942910697464"><ele>219.2</ele><time>2026-04-24T12:22:31.998Z</time></trkpt><trkpt lat="44.64197032399948" lon="10.292869508602728"><ele>219.0</ele><time>2026-04-24T12:22:32.998Z</time></trkpt><trkpt lat="44.641903186777895" lon="10.292771389920645"><ele>219.2</ele><time>2026-04-24T12:22:33.998Z</time></trkpt><trkpt lat="44.641854792767774" lon="10.292643392164372"><ele>219.39999999999998</ele><time>2026-04-24T12:22:34.998Z</time></trkpt><trkpt lat="44.64183051847878" lon="10.292503892543728"><ele>219.6</ele><time>2026-04-24T12:22:35.998Z</time></trkpt><trkpt lat="44.641828668146644" lon="10.29236244150728"><ele>219.8</ele><time>2026-04-24T12:22:36.998Z</time></trkpt><trkpt lat="44.64184482961792" lon="10.29222034199914"><ele>220.0</ele><time>2026-04-24T12:22:37.998Z</time></trkpt><trkpt lat="44.64186750045443" lon="10.292075653509235"><ele>220.0</ele><time>2026-04-24T12:22:38.998Z</time></trkpt><trkpt lat="44.6418923349156" lon="10.291920300152864"><ele>220.0</ele><time>2026-04-24T12:22:39.998Z</time></trkpt><trkpt lat="44.64191496867715" lon="10.291766535535787"><ele>220.0</ele><time>2026-04-24T12:22:40.998Z</time></trkpt><trkpt lat="44.64192986296325" lon="10.29160734611695"><ele>220.0</ele><time>2026-04-24T12:22:41.998Z</time></trkpt><trkpt lat="44.64192597626291" lon="10.291446776832927"><ele>219.75</ele><time>2026-04-24T12:22:42.998Z</time></trkpt><trkpt lat="44.64190542910914" lon="10.291287635287945"><ele>219.5</ele><time>2026-04-24T12:22:43.998Z</time></trkpt><trkpt lat="44.64186222551093" lon="10.291134171944655"><ele>219.25</ele><time>2026-04-24T12:22:44.998Z</time></trkpt><trkpt lat="44.641787526343755" lon="10.290990891503823"><ele>219.0</ele><time>2026-04-24T12:22:45.998Z</time></trkpt><trkpt lat="44.64167819932654" lon="10.290875752026045"><ele>219.0</ele><time>2026-04-24T12:22:46.998Z</time></trkpt><trkpt lat="44.64155650394358" lon="10.290796645607063"><ele>219.0</ele><time>2026-04-24T12:22:47.998Z</time></trkpt><trkpt lat="44.64142629042129" lon="10.290739435626948"><ele>219.0</ele><time>2026-04-24T12:22:48.998Z</time></trkpt><trkpt lat="44.641314555693484" lon="10.290650401730543"><ele>219.0</ele><time>2026-04-24T12:22:49.998Z</time></trkpt><trkpt lat="44.64121783602992" lon="10.290561438701602"><ele>218.75</ele><time>2026-04-24T12:22:50.998Z</time></trkpt><trkpt lat="44.64113495905367" lon="10.290455637955382"><ele>218.5</ele><time>2026-04-24T12:22:51.998Z</time></trkpt><trkpt lat="44.64104988458298" lon="10.290335882461926"><ele>218.25</ele><time>2026-04-24T12:22:52.998Z</time></trkpt><trkpt lat="44.64095322466348" lon="10.29022222500114"><ele>218.0</ele><time>2026-04-24T12:22:53.998Z</time></trkpt><trkpt lat="44.64086375130167" lon="10.290090649802208"><ele>218.0</ele><time>2026-04-24T12:22:54.998Z</time></trkpt><trkpt lat="44.64077026206053" lon="10.28995463220338"><ele>218.0</ele><time>2026-04-24T12:22:55.998Z</time></trkpt><trkpt lat="44.64067621064297" lon="10.289821882454136"><ele>218.0</ele><time>2026-04-24T12:22:56.998Z</time></trkpt><trkpt lat="44.64057342617868" lon="10.28968698210293"><ele>218.0</ele><time>2026-04-24T12:22:57.998Z</time></trkpt><trkpt lat="44.64046401250805" lon="10.289544785088726"><ele>218.0</ele><time>2026-04-24T12:22:58.998Z</time></trkpt><trkpt lat="44.64035456737363" lon="10.289398092989199"><ele>218.0</ele><time>2026-04-24T12:22:59.998Z</time></trkpt><trkpt lat="44.64025779854095" lon="10.289259526707548"><ele>218.0</ele><time>2026-04-24T12:23:00.998Z</time></trkpt><trkpt lat="44.64017208812138" lon="10.289122704081883"><ele>218.0</ele><time>2026-04-24T12:23:01.998Z</time></trkpt><trkpt lat="44.64009032971319" lon="10.288976838905377"><ele>219.0</ele><time>2026-04-24T12:23:02.998Z</time></trkpt><trkpt lat="44.64001689015527" lon="10.288826514887399"><ele>220.0</ele><time>2026-04-24T12:23:03.998Z</time></trkpt><trkpt lat="44.63995335692142" lon="10.288685067128386"><ele>221.0</ele><time>2026-04-24T12:23:04.998Z</time></trkpt><trkpt lat="44.63989517282927" lon="10.28855549228833"><ele>222.0</ele><time>2026-04-24T12:23:05.998Z</time></trkpt><trkpt lat="44.63984487444885" lon="10.288431297844792"><ele>222.0</ele><time>2026-04-24T12:23:06.998Z</time></trkpt><trkpt lat="44.63982079151829" lon="10.288292317490937"><ele>222.0</ele><time>2026-04-24T12:23:07.998Z</time></trkpt><trkpt lat="44.63984879381652" lon="10.288144100414824"><ele>222.0</ele><time>2026-04-24T12:23:08.998Z</time></trkpt><trkpt lat="44.63986155747915" lon="10.287982719153542"><ele>222.0</ele><time>2026-04-24T12:23:09.998Z</time></trkpt><trkpt lat="44.63989286303862" lon="10.287808186331805"><ele>221.75</ele><time>2026-04-24T12:23:10.998Z</time></trkpt><trkpt lat="44.63991794168364" lon="10.287622746617382"><ele>221.5</ele><time>2026-04-24T12:23:11.998Z</time></trkpt><trkpt lat="44.639932925431474" lon="10.287439817870354"><ele>221.25</ele><time>2026-04-24T12:23:12.998Z</time></trkpt><trkpt lat="44.639939412489916" lon="10.287260231608716"><ele>221.0</ele><time>2026-04-24T12:23:13.998Z</time></trkpt><trkpt lat="44.63993667078035" lon="10.287074548520055"><ele>221.0</ele><time>2026-04-24T12:23:14.998Z</time></trkpt><trkpt lat="44.639925417435514" lon="10.28688741393108"><ele>221.0</ele><time>2026-04-24T12:23:15.998Z</time></trkpt><trkpt lat="44.63990939546737" lon="10.286712258910889"><ele>221.0</ele><time>2026-04-24T12:23:16.998Z</time></trkpt><trkpt lat="44.63989536357035" lon="10.28655028145676"><ele>221.0</ele><time>2026-04-24T12:23:17.998Z</time></trkpt><trkpt lat="44.63987293018061" lon="10.286390960950103"><ele>220.5</ele><time>2026-04-24T12:23:18.998Z</time></trkpt><trkpt lat="44.639847063323096" lon="10.286234605767481"><ele>220.0</ele><time>2026-04-24T12:23:19.998Z</time></trkpt><trkpt lat="44.63981498038152" lon="10.286072044122841"><ele>219.5</ele><time>2026-04-24T12:23:20.998Z</time></trkpt><trkpt lat="44.63971407600158" lon="10.285942729669562"><ele>219.0</ele><time>2026-04-24T12:23:21.998Z</time></trkpt><trkpt lat="44.63959447676703" lon="10.285825293439137"><ele>219.33333333333331</ele><time>2026-04-24T12:23:22.998Z</time></trkpt><trkpt lat="44.639461829059954" lon="10.285716627815257"><ele>219.66666666666666</ele><time>2026-04-24T12:23:23.998Z</time></trkpt><trkpt lat="44.63933840658624" lon="10.285575279156866"><ele>220.0</ele><time>2026-04-24T12:23:24.998Z</time></trkpt><trkpt lat="44.63918838042465" lon="10.285434995705296"><ele>220.0</ele><time>2026-04-24T12:23:25.998Z</time></trkpt><trkpt lat="44.639019605331306" lon="10.285276457609719"><ele>220.0</ele><time>2026-04-24T12:23:26.998Z</time></trkpt><trkpt lat="44.638835525815686" lon="10.285105641862167"><ele>220.0</ele><time>2026-04-24T12:23:27.998Z</time></trkpt><trkpt lat="44.638657557157984" lon="10.284940236921628"><ele>220.0</ele><time>2026-04-24T12:23:28.998Z</time></trkpt><trkpt lat="44.638484725690965" lon="10.284776558693498"><ele>220.0</ele><time>2026-04-24T12:23:29.998Z</time></trkpt><trkpt lat="44.63831315663684" lon="10.284612712864057"><ele>220.0</ele><time>2026-04-24T12:23:30.998Z</time></trkpt><trkpt lat="44.63814126045485" lon="10.284448554646486"><ele>220.33333333333331</ele><time>2026-04-24T12:23:31.998Z</time></trkpt><trkpt lat="44.637967625199515" lon="10.284286124462783"><ele>220.66666666666669</ele><time>2026-04-24T12:23:32.998Z</time></trkpt><trkpt lat="44.63778906430137" lon="10.284119359806903"><ele>221.0</ele><time>2026-04-24T12:23:33.998Z</time></trkpt><trkpt lat="44.63760427607741" lon="10.283946777218233"><ele>221.5</ele><time>2026-04-24T12:23:34.998Z</time></trkpt><trkpt lat="44.63741147754574" lon="10.283766713903892"><ele>222.0</ele><time>2026-04-24T12:23:35.998Z</time></trkpt><trkpt lat="44.637204304648165" lon="10.283595938941342"><ele>222.0</ele><time>2026-04-24T12:23:36.998Z</time></trkpt><trkpt lat="44.63700433504315" lon="10.283409306579319"><ele>222.0</ele><time>2026-04-24T12:23:37.998Z</time></trkpt><trkpt lat="44.63680891880393" lon="10.283230588358368"><ele>222.0</ele><time>2026-04-24T12:23:38.998Z</time></trkpt><trkpt lat="44.636613914835856" lon="10.28305436775147"><ele>222.0</ele><time>2026-04-24T12:23:39.998Z</time></trkpt><trkpt lat="44.63642933643692" lon="10.282852789674502"><ele>222.0</ele><time>2026-04-24T12:23:40.998Z</time></trkpt><trkpt lat="44.6362358181615" lon="10.282671687921368"><ele>222.0</ele><time>2026-04-24T12:23:41.998Z</time></trkpt><trkpt lat="44.63604334639737" lon="10.282491565535961"><ele>223.0</ele><time>2026-04-24T12:23:42.998Z</time></trkpt><trkpt lat="44.63585511407459" lon="10.282314718454915"><ele>224.0</ele><time>2026-04-24T12:23:43.998Z</time></trkpt><trkpt lat="44.63567188959189" lon="10.282142076393496"><ele>225.0</ele><time>2026-04-24T12:23:44.998Z</time></trkpt><trkpt lat="44.635483225441526" lon="10.281989944256138"><ele>225.0</ele><time>2026-04-24T12:23:45.998Z</time></trkpt><trkpt lat="44.63530716931739" lon="10.281817382948132"><ele>225.0</ele><time>2026-04-24T12:23:46.998Z</time></trkpt><trkpt lat="44.635141497099724" lon="10.281659378903969"><ele>225.0</ele><time>2026-04-24T12:23:47.998Z</time></trkpt><trkpt lat="44.63498977971597" lon="10.281520007091606"><ele>225.0</ele><time>2026-04-24T12:23:48.998Z</time></trkpt><trkpt lat="44.63485075684017" lon="10.281390012203227"><ele>225.0</ele><time>2026-04-24T12:23:49.998Z</time></trkpt><trkpt lat="44.63471518681687" lon="10.28126874458774"><ele>225.0</ele><time>2026-04-24T12:23:50.998Z</time></trkpt><trkpt lat="44.63458083215038" lon="10.281145500983097"><ele>225.66666666666669</ele><time>2026-04-24T12:23:51.998Z</time></trkpt><trkpt lat="44.63445370575341" lon="10.280998563171382"><ele>226.33333333333334</ele><time>2026-04-24T12:23:52.998Z</time></trkpt><trkpt lat="44.634317370246606" lon="10.280869813776786"><ele>227.0</ele><time>2026-04-24T12:23:53.998Z</time></trkpt><trkpt lat="44.634179013973935" lon="10.280763957709569"><ele>227.0</ele><time>2026-04-24T12:23:54.998Z</time></trkpt><trkpt lat="44.6340570136072" lon="10.280652150461576"><ele>227.0</ele><time>2026-04-24T12:23:55.998Z</time></trkpt><trkpt lat="44.63393206568882" lon="10.280581828801289"><ele>227.0</ele><time>2026-04-24T12:23:56.998Z</time></trkpt><trkpt lat="44.633805931103495" lon="10.280535191208067"><ele>227.0</ele><time>2026-04-24T12:23:57.998Z</time></trkpt><trkpt lat="44.63365852119148" lon="10.280606209059027"><ele>227.33333333333334</ele><time>2026-04-24T12:23:58.998Z</time></trkpt><trkpt lat="44.63351111693817" lon="10.280623009470801"><ele>227.66666666666669</ele><time>2026-04-24T12:23:59.998Z</time></trkpt><trkpt lat="44.63336242987554" lon="10.280650660766103"><ele>228.0</ele><time>2026-04-24T12:24:00.998Z</time></trkpt><trkpt lat="44.63320630228401" lon="10.280682348131778"><ele>228.0</ele><time>2026-04-24T12:24:01.998Z</time></trkpt><trkpt lat="44.63305274011766" lon="10.280716974130376"><ele>228.0</ele><time>2026-04-24T12:24:02.998Z</time></trkpt><trkpt lat="44.63289501969096" lon="10.280753318438066"><ele>228.0</ele><time>2026-04-24T12:24:03.998Z</time></trkpt><trkpt lat="44.63273872006663" lon="10.280789335279236"><ele>229.0</ele><time>2026-04-24T12:24:04.998Z</time></trkpt><trkpt lat="44.63257835031014" lon="10.280828045157454"><ele>230.0</ele><time>2026-04-24T12:24:05.998Z</time></trkpt><trkpt lat="44.63241992020106" lon="10.280887480011648"><ele>231.0</ele><time>2026-04-24T12:24:06.998Z</time></trkpt><trkpt lat="44.63225683992123" lon="10.280922201305843"><ele>231.0</ele><time>2026-04-24T12:24:07.998Z</time></trkpt><trkpt lat="44.63208966594963" lon="10.280943094356953"><ele>231.0</ele><time>2026-04-24T12:24:08.997Z</time></trkpt><trkpt lat="44.63192400276758" lon="10.280980773086652"><ele>231.0</ele><time>2026-04-24T12:24:09.997Z</time></trkpt><trkpt lat="44.63175912802456" lon="10.281018340861676"><ele>230.66666666666669</ele><time>2026-04-24T12:24:10.997Z</time></trkpt><trkpt lat="44.631593637582824" lon="10.281056048947134"><ele>230.33333333333334</ele><time>2026-04-24T12:24:11.997Z</time></trkpt><trkpt lat="44.6314297242256" lon="10.281093397680776"><ele>230.0</ele><time>2026-04-24T12:24:12.997Z</time></trkpt><trkpt lat="44.63128303140693" lon="10.281127452217214"><ele>230.0</ele><time>2026-04-24T12:24:13.997Z</time></trkpt><trkpt lat="44.63114661952729" lon="10.281161671976369"><ele>230.0</ele><time>2026-04-24T12:24:14.997Z</time></trkpt><trkpt lat="44.631017764397605" lon="10.281183569297646"><ele>230.0</ele><time>2026-04-24T12:24:15.997Z</time></trkpt><trkpt lat="44.6308913050528" lon="10.281180308996635"><ele>230.0</ele><time>2026-04-24T12:24:16.997Z</time></trkpt><trkpt lat="44.630762452598184" lon="10.28115859247449"><ele>230.25</ele><time>2026-04-24T12:24:17.997Z</time></trkpt><trkpt lat="44.630635535195026" lon="10.281144320255338"><ele>230.5</ele><time>2026-04-24T12:24:18.997Z</time></trkpt><trkpt lat="44.63051159144773" lon="10.281166184822915"><ele>230.75</ele><time>2026-04-24T12:24:19.997Z</time></trkpt><trkpt lat="44.63038409156904" lon="10.28117317525241"><ele>231.0</ele><time>2026-04-24T12:24:20.997Z</time></trkpt><trkpt lat="44.630249030088024" lon="10.28118960654427"><ele>231.0</ele><time>2026-04-24T12:24:21.997Z</time></trkpt><trkpt lat="44.63011072588481" lon="10.281167506283362"><ele>231.0</ele><time>2026-04-24T12:24:22.997Z</time></trkpt><trkpt lat="44.629963733383036" lon="10.281146706871086"><ele>231.0</ele><time>2026-04-24T12:24:23.997Z</time></trkpt><trkpt lat="44.62981002047478" lon="10.281156309005388"><ele>231.0</ele><time>2026-04-24T12:24:24.997Z</time></trkpt><trkpt lat="44.62965495645408" lon="10.281186846560244"><ele>231.0</ele><time>2026-04-24T12:24:25.997Z</time></trkpt><trkpt lat="44.629502893774074" lon="10.281274424551148"><ele>231.0</ele><time>2026-04-24T12:24:26.997Z</time></trkpt><trkpt lat="44.62936337838772" lon="10.28138251431192"><ele>231.0</ele><time>2026-04-24T12:24:27.997Z</time></trkpt><trkpt lat="44.62921597250192" lon="10.281454470546164"><ele>232.75</ele><time>2026-04-24T12:24:28.997Z</time></trkpt><trkpt lat="44.62908244291967" lon="10.281562914965697"><ele>234.5</ele><time>2026-04-24T12:24:29.998Z</time></trkpt><trkpt lat="44.62894610271967" lon="10.281643737771452"><ele>236.25</ele><time>2026-04-24T12:24:30.998Z</time></trkpt><trkpt lat="44.62881239567363" lon="10.281722885605298"><ele>238.0</ele><time>2026-04-24T12:24:31.998Z</time></trkpt><trkpt lat="44.62867963851511" lon="10.28180771829815"><ele>238.25</ele><time>2026-04-24T12:24:32.998Z</time></trkpt><trkpt lat="44.62854476871771" lon="10.2818949902079"><ele>238.5</ele><time>2026-04-24T12:24:33.998Z</time></trkpt><trkpt lat="44.628409997164454" lon="10.281979241303775"><ele>238.75</ele><time>2026-04-24T12:24:34.998Z</time></trkpt><trkpt lat="44.6282735871713" lon="10.282057375780118"><ele>239.0</ele><time>2026-04-24T12:24:35.998Z</time></trkpt><trkpt lat="44.62813482754779" lon="10.282128104331965"><ele>239.0</ele><time>2026-04-24T12:24:36.998Z</time></trkpt><trkpt lat="44.62799254794033" lon="10.282149909594228"><ele>239.0</ele><time>2026-04-24T12:24:37.998Z</time></trkpt><trkpt lat="44.62785177444356" lon="10.28218966821312"><ele>239.0</ele><time>2026-04-24T12:24:38.998Z</time></trkpt><trkpt lat="44.62770594267156" lon="10.282203394571745"><ele>239.0</ele><time>2026-04-24T12:24:39.998Z</time></trkpt><trkpt lat="44.6275607371561" lon="10.282222248029328"><ele>238.5</ele><time>2026-04-24T12:24:40.998Z</time></trkpt><trkpt lat="44.62741567240102" lon="10.282243767162127"><ele>238.0</ele><time>2026-04-24T12:24:41.999Z</time></trkpt><trkpt lat="44.6272720671006" lon="10.282273477857915"><ele>237.5</ele><time>2026-04-24T12:24:42.999Z</time></trkpt><trkpt lat="44.6271257890575" lon="10.282281510458605"><ele>237.0</ele><time>2026-04-24T12:24:43.999Z</time></trkpt><trkpt lat="44.62698421189275" lon="10.282329401498714"><ele>239.25</ele><time>2026-04-24T12:24:44.999Z</time></trkpt><trkpt lat="44.62684084545374" lon="10.28234464552373"><ele>241.5</ele><time>2026-04-24T12:24:45.999Z</time></trkpt><trkpt lat="44.626694327771055" lon="10.282360246994198"><ele>243.75</ele><time>2026-04-24T12:24:46.999Z</time></trkpt><trkpt lat="44.62655099895911" lon="10.282347386369167"><ele>246.0</ele><time>2026-04-24T12:24:47.999Z</time></trkpt><trkpt lat="44.62640553022318" lon="10.282351405512566"><ele>246.0</ele><time>2026-04-24T12:24:48.999Z</time></trkpt><trkpt lat="44.626259693210905" lon="10.282355218325359"><ele>246.0</ele><time>2026-04-24T12:24:49.999Z</time></trkpt><trkpt lat="44.62611407159761" lon="10.282358769006146"><ele>246.0</ele><time>2026-04-24T12:24:50.999Z</time></trkpt><trkpt lat="44.62596219611785" lon="10.282362796454393"><ele>246.0</ele><time>2026-04-24T12:24:51.999Z</time></trkpt><trkpt lat="44.62579766152946" lon="10.282368478062638"><ele>247.66666666666669</ele><time>2026-04-24T12:24:52.999Z</time></trkpt><trkpt lat="44.62562948564196" lon="10.282374285409288"><ele>249.33333333333334</ele><time>2026-04-24T12:24:53.999Z</time></trkpt><trkpt lat="44.62545405774669" lon="10.282402762450864"><ele>251.0</ele><time>2026-04-24T12:24:54.999Z</time></trkpt><trkpt lat="44.62527675835411" lon="10.282405768451904"><ele>251.0</ele><time>2026-04-24T12:24:55.999Z</time></trkpt><trkpt lat="44.62509902699302" lon="10.28241261973898"><ele>251.0</ele><time>2026-04-24T12:24:56.999Z</time></trkpt><trkpt lat="44.624926827508354" lon="10.282401749701767"><ele>251.0</ele><time>2026-04-24T12:24:57.999Z</time></trkpt><trkpt lat="44.624758528105495" lon="10.282458438188048"><ele>251.0</ele><time>2026-04-24T12:24:58.999Z</time></trkpt><trkpt lat="44.6245970531383" lon="10.2825257297246"><ele>251.0</ele><time>2026-04-24T12:24:59.999Z</time></trkpt><trkpt lat="44.624455739236524" lon="10.282610401752482"><ele>251.0</ele><time>2026-04-24T12:25:00.999Z</time></trkpt><trkpt lat="44.62431725111614" lon="10.282635991941637"><ele>251.75</ele><time>2026-04-24T12:25:01.999Z</time></trkpt><trkpt lat="44.6241751657484" lon="10.282628635171369"><ele>252.5</ele><time>2026-04-24T12:25:02.999Z</time></trkpt><trkpt lat="44.62402359401795" lon="10.282598654477514"><ele>253.25</ele><time>2026-04-24T12:25:03.999Z</time></trkpt><trkpt lat="44.62387482760346" lon="10.282560479532668"><ele>254.0</ele><time>2026-04-24T12:25:04.999Z</time></trkpt><trkpt lat="44.62374773881214" lon="10.282494685390125"><ele>254.0</ele><time>2026-04-24T12:25:05.999Z</time></trkpt><trkpt lat="44.6236598499818" lon="10.282356702614171"><ele>254.0</ele><time>2026-04-24T12:25:06.999Z</time></trkpt><trkpt lat="44.62354904589354" lon="10.282277865166776"><ele>254.0</ele><time>2026-04-24T12:25:07.999Z</time></trkpt><trkpt lat="44.62345075366329" lon="10.282208039440555"><ele>254.0</ele><time>2026-04-24T12:25:08.999Z</time></trkpt><trkpt lat="44.62332370871651" lon="10.282211372100662"><ele>253.0</ele><time>2026-04-24T12:25:09.999Z</time></trkpt><trkpt lat="44.62319274438987" lon="10.282263087668126"><ele>252.0</ele><time>2026-04-24T12:25:10.999Z</time></trkpt><trkpt lat="44.62305836819597" lon="10.282338876353997"><ele>251.0</ele><time>2026-04-24T12:25:11.999Z</time></trkpt><trkpt lat="44.62293067351104" lon="10.282366560359232"><ele>250.0</ele><time>2026-04-24T12:25:12.999Z</time></trkpt><trkpt lat="44.62260307146462" lon="10.282427863875709"><ele>253.33333333333331</ele><time>2026-04-24T12:25:14.999Z</time></trkpt><trkpt lat="44.62242395413058" lon="10.282449890906566"><ele>256.6666666666667</ele><time>2026-04-24T12:25:15.999Z</time></trkpt><trkpt lat="44.62224492465485" lon="10.28248033474673"><ele>260.0</ele><time>2026-04-24T12:25:16.999Z</time></trkpt><trkpt lat="44.62205974850369" lon="10.282482112507072"><ele>259.0</ele><time>2026-04-24T12:25:17.999Z</time></trkpt><trkpt lat="44.62187218262067" lon="10.282442941209032"><ele>258.0</ele><time>2026-04-24T12:25:18.999Z</time></trkpt><trkpt lat="44.62168550361877" lon="10.282400145223388"><ele>257.0</ele><time>2026-04-24T12:25:19.999Z</time></trkpt><trkpt lat="44.621490298491416" lon="10.282337908665827"><ele>255.0</ele><time>2026-04-24T12:25:20.999Z</time></trkpt><trkpt lat="44.62129436567324" lon="10.282257186177205"><ele>253.0</ele><time>2026-04-24T12:25:21.999Z</time></trkpt><trkpt lat="44.62109474915363" lon="10.282174946032306"><ele>251.0</ele><time>2026-04-24T12:25:22.999Z</time></trkpt><trkpt lat="44.62089309672726" lon="10.282093376740201"><ele>251.0</ele><time>2026-04-24T12:25:23.999Z</time></trkpt><trkpt lat="44.620689520983134" lon="10.28201153983577"><ele>251.0</ele><time>2026-04-24T12:25:24.999Z</time></trkpt><trkpt lat="44.6204847938235" lon="10.281929548409465"><ele>251.0</ele><time>2026-04-24T12:25:25.999Z</time></trkpt><trkpt lat="44.62028865229198" lon="10.281850995856761"><ele>252.0</ele><time>2026-04-24T12:25:26.999Z</time></trkpt><trkpt lat="44.620091946332884" lon="10.28176974405619"><ele>253.0</ele><time>2026-04-24T12:25:27.999Z</time></trkpt><trkpt lat="44.619898411469045" lon="10.281684342639986"><ele>254.0</ele><time>2026-04-24T12:25:28.999Z</time></trkpt><trkpt lat="44.61970344238176" lon="10.28158721502625"><ele>254.0</ele><time>2026-04-24T12:25:29.999Z</time></trkpt><trkpt lat="44.61951076326198" lon="10.281482878213085"><ele>254.0</ele><time>2026-04-24T12:25:30.999Z</time></trkpt><trkpt lat="44.61931967367123" lon="10.281378087106368"><ele>254.0</ele><time>2026-04-24T12:25:31.998Z</time></trkpt><trkpt lat="44.61912823573294" lon="10.2812701813818"><ele>253.33333333333334</ele><time>2026-04-24T12:25:32.998Z</time></trkpt><trkpt lat="44.618942256710724" lon="10.28116232007931"><ele>252.66666666666669</ele><time>2026-04-24T12:25:33.998Z</time></trkpt><trkpt lat="44.6187496986207" lon="10.281064430315999"><ele>252.0</ele><time>2026-04-24T12:25:34.998Z</time></trkpt><trkpt lat="44.61855489901852" lon="10.280997871904502"><ele>252.0</ele><time>2026-04-24T12:25:35.998Z</time></trkpt><trkpt lat="44.618362781966034" lon="10.280909958159674"><ele>252.0</ele><time>2026-04-24T12:25:36.998Z</time></trkpt><trkpt lat="44.61816550863956" lon="10.280837260186159"><ele>252.0</ele><time>2026-04-24T12:25:37.998Z</time></trkpt><trkpt lat="44.61797590665433" lon="10.280752814713706"><ele>252.0</ele><time>2026-04-24T12:25:38.998Z</time></trkpt><trkpt lat="44.61778466049011" lon="10.280660814788002"><ele>252.0</ele><time>2026-04-24T12:25:39.998Z</time></trkpt><trkpt lat="44.61759515323743" lon="10.28056682562416"><ele>252.0</ele><time>2026-04-24T12:25:40.998Z</time></trkpt><trkpt lat="44.61740984373502" lon="10.280478479073071"><ele>252.0</ele><time>2026-04-24T12:25:41.998Z</time></trkpt><trkpt lat="44.61722389415863" lon="10.280396212224193"><ele>252.0</ele><time>2026-04-24T12:25:42.998Z</time></trkpt><trkpt lat="44.61703801797226" lon="10.280315839363773"><ele>252.0</ele><time>2026-04-24T12:25:43.998Z</time></trkpt><trkpt lat="44.616851921521736" lon="10.280227051667984"><ele>252.33333333333331</ele><time>2026-04-24T12:25:44.998Z</time></trkpt><trkpt lat="44.616661435291256" lon="10.28015221842621"><ele>252.66666666666666</ele><time>2026-04-24T12:25:45.998Z</time></trkpt><trkpt lat="44.61647571120157" lon="10.2800665698573"><ele>253.0</ele><time>2026-04-24T12:25:46.998Z</time></trkpt><trkpt lat="44.61629120640507" lon="10.279968165330446"><ele>252.0</ele><time>2026-04-24T12:25:47.998Z</time></trkpt><trkpt lat="44.61610267556633" lon="10.279881912578427"><ele>251.0</ele><time>2026-04-24T12:25:48.998Z</time></trkpt><trkpt lat="44.615911600900134" lon="10.279809001640457"><ele>250.0</ele><time>2026-04-24T12:25:49.998Z</time></trkpt><trkpt lat="44.6157222553312" lon="10.279721021459379"><ele>250.0</ele><time>2026-04-24T12:25:50.998Z</time></trkpt><trkpt lat="44.61553091318926" lon="10.279640235388875"><ele>250.0</ele><time>2026-04-24T12:25:51.998Z</time></trkpt><trkpt lat="44.6153415148253" lon="10.27955182020241"><ele>250.0</ele><time>2026-04-24T12:25:52.998Z</time></trkpt><trkpt lat="44.6151582676689" lon="10.279437697466339"><ele>251.33333333333331</ele><time>2026-04-24T12:25:53.998Z</time></trkpt><trkpt lat="44.61496409114654" lon="10.27936040020278"><ele>252.66666666666669</ele><time>2026-04-24T12:25:54.998Z</time></trkpt><trkpt lat="44.614781222542724" lon="10.27923712840077"><ele>254.0</ele><time>2026-04-24T12:25:55.998Z</time></trkpt><trkpt lat="44.614592025632" lon="10.279158007726272"><ele>253.66666666666669</ele><time>2026-04-24T12:25:56.998Z</time></trkpt><trkpt lat="44.61440722290311" lon="10.279054836897352"><ele>253.33333333333331</ele><time>2026-04-24T12:25:57.998Z</time></trkpt><trkpt lat="44.614223469520205" lon="10.278957458745495"><ele>253.0</ele><time>2026-04-24T12:25:58.998Z</time></trkpt><trkpt lat="44.61403789483889" lon="10.278865212134434"><ele>253.0</ele><time>2026-04-24T12:25:59.998Z</time></trkpt><trkpt lat="44.613854328583635" lon="10.27878143410753"><ele>253.0</ele><time>2026-04-24T12:26:00.998Z</time></trkpt><trkpt lat="44.61366545240486" lon="10.278706706629194"><ele>253.0</ele><time>2026-04-24T12:26:01.998Z</time></trkpt><trkpt lat="44.6134774940651" lon="10.278650844566197"><ele>254.66666666666666</ele><time>2026-04-24T12:26:02.998Z</time></trkpt><trkpt lat="44.613292188683516" lon="10.278596969889062"><ele>256.3333333333333</ele><time>2026-04-24T12:26:03.998Z</time></trkpt><trkpt lat="44.613101685856165" lon="10.2785478148307"><ele>258.0</ele><time>2026-04-24T12:26:04.998Z</time></trkpt><trkpt lat="44.612916140060776" lon="10.278496866495248"><ele>258.3333333333333</ele><time>2026-04-24T12:26:05.998Z</time></trkpt><trkpt lat="44.61273028360443" lon="10.278445575882804"><ele>258.66666666666663</ele><time>2026-04-24T12:26:06.998Z</time></trkpt><trkpt lat="44.61254687388222" lon="10.278394981763041"><ele>259.0</ele><time>2026-04-24T12:26:07.998Z</time></trkpt><trkpt lat="44.61236269515363" lon="10.27834591554281"><ele>259.0</ele><time>2026-04-24T12:26:08.998Z</time></trkpt><trkpt lat="44.612182137525195" lon="10.278291436471958"><ele>259.0</ele><time>2026-04-24T12:26:09.998Z</time></trkpt><trkpt lat="44.61200483033428" lon="10.278213381114993"><ele>259.0</ele><time>2026-04-24T12:26:10.998Z</time></trkpt><trkpt lat="44.611829155945834" lon="10.278157722039785"><ele>257.66666666666663</ele><time>2026-04-24T12:26:11.998Z</time></trkpt><trkpt lat="44.61165459107544" lon="10.278099972720122"><ele>256.3333333333333</ele><time>2026-04-24T12:26:12.998Z</time></trkpt><trkpt lat="44.61149409808409" lon="10.278067448447462"><ele>255.0</ele><time>2026-04-24T12:26:13.998Z</time></trkpt><trkpt lat="44.61135297992077" lon="10.278018484953654"><ele>255.0</ele><time>2026-04-24T12:26:14.998Z</time></trkpt><trkpt lat="44.61121396187659" lon="10.277971973025993"><ele>255.0</ele><time>2026-04-24T12:26:15.998Z</time></trkpt><trkpt lat="44.611087843902204" lon="10.277918479271952"><ele>255.0</ele><time>2026-04-24T12:26:16.998Z</time></trkpt><trkpt lat="44.610974342705155" lon="10.277847981854881"><ele>255.0</ele><time>2026-04-24T12:26:17.998Z</time></trkpt><trkpt lat="44.610879008558136" lon="10.277737598822275"><ele>255.75</ele><time>2026-04-24T12:26:18.998Z</time></trkpt><trkpt lat="44.610815587109926" lon="10.277590637667037"><ele>256.5</ele><time>2026-04-24T12:26:19.998Z</time></trkpt><trkpt lat="44.61078751075947" lon="10.277439452269572"><ele>257.25</ele><time>2026-04-24T12:26:20.998Z</time></trkpt><trkpt lat="44.61075448706648" lon="10.277328331086053"><ele>258.0</ele><time>2026-04-24T12:26:21.998Z</time></trkpt><trkpt lat="44.6107942210379" lon="10.277094036910745"><ele>258.0</ele><time>2026-04-24T12:26:22.998Z</time></trkpt><trkpt lat="44.61093619475712" lon="10.27703920649551"><ele>258.0</ele><time>2026-04-24T12:26:23.998Z</time></trkpt><trkpt lat="44.61101289981897" lon="10.2768917811613"><ele>258.0</ele><time>2026-04-24T12:26:24.998Z</time></trkpt><trkpt lat="44.61108607685133" lon="10.276730118191953"><ele>258.0</ele><time>2026-04-24T12:26:25.998Z</time></trkpt><trkpt lat="44.61116218630708" lon="10.276553290358368"><ele>257.6666666666667</ele><time>2026-04-24T12:26:26.998Z</time></trkpt><trkpt lat="44.61123969595731" lon="10.276380586583059"><ele>257.33333333333337</ele><time>2026-04-24T12:26:27.998Z</time></trkpt><trkpt lat="44.61131913475533" lon="10.276201045549529"><ele>257.0</ele><time>2026-04-24T12:26:28.998Z</time></trkpt><trkpt lat="44.6114027449514" lon="10.276013270699455"><ele>257.0</ele><time>2026-04-24T12:26:29.998Z</time></trkpt><trkpt lat="44.6114862785594" lon="10.275823643903415"><ele>257.0</ele><time>2026-04-24T12:26:30.998Z</time></trkpt><trkpt lat="44.611569892881285" lon="10.275629847448748"><ele>257.0</ele><time>2026-04-24T12:26:31.998Z</time></trkpt><trkpt lat="44.611655201266416" lon="10.275434048937319"><ele>256.6666666666667</ele><time>2026-04-24T12:26:32.998Z</time></trkpt><trkpt lat="44.611743813694474" lon="10.275235423862485"><ele>256.3333333333333</ele><time>2026-04-24T12:26:33.998Z</time></trkpt><trkpt lat="44.61183456466745" lon="10.275032142753089"><ele>256.0</ele><time>2026-04-24T12:26:34.998Z</time></trkpt><trkpt lat="44.611924420595265" lon="10.274824058013516"><ele>255.0</ele><time>2026-04-24T12:26:35.999Z</time></trkpt><trkpt lat="44.612016809072834" lon="10.274614514541891"><ele>254.0</ele><time>2026-04-24T12:26:36.999Z</time></trkpt><trkpt lat="44.6121110959365" lon="10.274401457327832"><ele>253.0</ele><time>2026-04-24T12:26:37.999Z</time></trkpt><trkpt lat="44.612205468883296" lon="10.27418719494989"><ele>253.0</ele><time>2026-04-24T12:26:38.999Z</time></trkpt><trkpt lat="44.61229928642721" lon="10.273965953795921"><ele>253.0</ele><time>2026-04-24T12:26:39.999Z</time></trkpt><trkpt lat="44.612393918673185" lon="10.273735164275028"><ele>253.0</ele><time>2026-04-24T12:26:40.999Z</time></trkpt><trkpt lat="44.61250665379715" lon="10.273507172484528"><ele>253.0</ele><time>2026-04-24T12:26:41.999Z</time></trkpt><trkpt lat="44.612618906875014" lon="10.273250357429676"><ele>253.0</ele><time>2026-04-24T12:26:42.999Z</time></trkpt><trkpt lat="44.6127268498627" lon="10.273003402503482"><ele>253.0</ele><time>2026-04-24T12:26:43.999Z</time></trkpt><trkpt lat="44.61282693307423" lon="10.272756009767722"><ele>253.0</ele><time>2026-04-24T12:26:44.999Z</time></trkpt><trkpt lat="44.612934451891974" lon="10.27252899088698"><ele>253.0</ele><time>2026-04-24T12:26:46Z</time></trkpt><trkpt lat="44.61303126921716" lon="10.272302568690476"><ele>253.0</ele><time>2026-04-24T12:26:47Z</time></trkpt><trkpt lat="44.61312705167601" lon="10.272087947585208"><ele>253.66666666666666</ele><time>2026-04-24T12:26:48Z</time></trkpt><trkpt lat="44.61321414472674" lon="10.271892029050328"><ele>254.33333333333331</ele><time>2026-04-24T12:26:49Z</time></trkpt><trkpt lat="44.613298099183446" lon="10.271701045571906"><ele>255.0</ele><time>2026-04-24T12:26:50Z</time></trkpt><trkpt lat="44.613378511556995" lon="10.271521081380037"><ele>255.8</ele><time>2026-04-24T12:26:51Z</time></trkpt><trkpt lat="44.61344964768144" lon="10.27136002919934"><ele>256.6</ele><time>2026-04-24T12:26:52Z</time></trkpt><trkpt lat="44.613512893530824" lon="10.271219099726615"><ele>257.4</ele><time>2026-04-24T12:26:53Z</time></trkpt><trkpt lat="44.61356924338707" lon="10.271091379200183"><ele>258.2</ele><time>2026-04-24T12:26:54Z</time></trkpt><trkpt lat="44.61361411553687" lon="10.270989901506319"><ele>259.0</ele><time>2026-04-24T12:26:55Z</time></trkpt><trkpt lat="44.613669387651186" lon="10.27086383241202"><ele>259.0</ele><time>2026-04-24T12:26:57Z</time></trkpt><trkpt lat="44.61371011318776" lon="10.270776686053827"><ele>259.0</ele><time>2026-04-24T12:26:59Z</time></trkpt><trkpt lat="44.61374741090516" lon="10.270690159221951"><ele>259.0</ele><time>2026-04-24T12:27:01Z</time></trkpt><trkpt lat="44.61380369129677" lon="10.270547655259167"><ele>259.0</ele><time>2026-04-24T12:27:02.999Z</time></trkpt><trkpt lat="44.613843204338814" lon="10.270466515858654"><ele>259.0</ele><time>2026-04-24T12:27:03.999Z</time></trkpt><trkpt lat="44.613900898925046" lon="10.270338419300732"><ele>259.0</ele><time>2026-04-24T12:27:05.999Z</time></trkpt><trkpt lat="44.613955511905544" lon="10.27021497061005"><ele>259.5</ele><time>2026-04-24T12:27:07.999Z</time></trkpt><trkpt lat="44.614008558104494" lon="10.270114578834665"><ele>260.0</ele><time>2026-04-24T12:27:09.999Z</time></trkpt><trkpt lat="44.61389415715537" lon="10.269973556278597"><ele>260.5</ele><time>2026-04-24T12:27:10.999Z</time></trkpt><trkpt lat="44.61382886143984" lon="10.269844863887066"><ele>261.0</ele><time>2026-04-24T12:27:11.999Z</time></trkpt><trkpt lat="44.613755343882936" lon="10.269713767320702"><ele>261.0</ele><time>2026-04-24T12:27:12.999Z</time></trkpt><trkpt lat="44.6136747124861" lon="10.26958428496809"><ele>261.0</ele><time>2026-04-24T12:27:13.999Z</time></trkpt><trkpt lat="44.613577963262365" lon="10.269470309144529"><ele>261.0</ele><time>2026-04-24T12:27:14.999Z</time></trkpt><trkpt lat="44.61347999420431" lon="10.269386214830508"><ele>261.0</ele><time>2026-04-24T12:27:15.999Z</time></trkpt><trkpt lat="44.61338620961989" lon="10.26931635111271"><ele>261.2</ele><time>2026-04-24T12:27:16.999Z</time></trkpt><trkpt lat="44.61329840150179" lon="10.269247159494775"><ele>261.40000000000003</ele><time>2026-04-24T12:27:17.999Z</time></trkpt><trkpt lat="44.61321760924885" lon="10.269182107352153"><ele>261.6</ele><time>2026-04-24T12:27:18.999Z</time></trkpt><trkpt lat="44.6131439515362" lon="10.26911089067283"><ele>261.8</ele><time>2026-04-24T12:27:19.999Z</time></trkpt><trkpt lat="44.61306445316598" lon="10.26904156083034"><ele>262.0</ele><time>2026-04-24T12:27:20.999Z</time></trkpt><trkpt lat="44.61297928656465" lon="10.268959210375538"><ele>262.0</ele><time>2026-04-24T12:27:21.999Z</time></trkpt><trkpt lat="44.612887442981716" lon="10.268874947119158"><ele>262.0</ele><time>2026-04-24T12:27:22.999Z</time></trkpt><trkpt lat="44.612786392405845" lon="10.268794319629722"><ele>262.0</ele><time>2026-04-24T12:27:23.999Z</time></trkpt><trkpt lat="44.612676345347126" lon="10.268712418116664"><ele>262.0</ele><time>2026-04-24T12:27:24.999Z</time></trkpt><trkpt lat="44.612580594688836" lon="10.268641232830257"><ele>262.0</ele><time>2026-04-24T12:27:25.999Z</time></trkpt><trkpt lat="44.61250221330094" lon="10.26857692093756"><ele>262.0</ele><time>2026-04-24T12:27:26.999Z</time></trkpt><trkpt lat="44.61242235829211" lon="10.268514069974536"><ele>262.0</ele><time>2026-04-24T12:27:27.999Z</time></trkpt><trkpt lat="44.61233478754188" lon="10.268449447971252"><ele>262.0</ele><time>2026-04-24T12:27:28.999Z</time></trkpt><trkpt lat="44.612237977875466" lon="10.26837586697451"><ele>262.0</ele><time>2026-04-24T12:27:29.999Z</time></trkpt><trkpt lat="44.61215153778455" lon="10.268308616347177"><ele>262.0</ele><time>2026-04-24T12:27:30.999Z</time></trkpt><trkpt lat="44.61206768953631" lon="10.268215788277763"><ele>262.0</ele><time>2026-04-24T12:27:31.999Z</time></trkpt><trkpt lat="44.611980037353916" lon="10.26814233183371"><ele>262.0</ele><time>2026-04-24T12:27:32.999Z</time></trkpt><trkpt lat="44.61189485167407" lon="10.26808616144214"><ele>262.0</ele><time>2026-04-24T12:27:33.999Z</time></trkpt><trkpt lat="44.611828635076535" lon="10.268019240721944"><ele>262.0</ele><time>2026-04-24T12:27:34.999Z</time></trkpt><trkpt lat="44.611758010801616" lon="10.267986189043452"><ele>262.0</ele><time>2026-04-24T12:27:35.999Z</time></trkpt><trkpt lat="44.61169080832317" lon="10.267901083594516"><ele>262.0</ele><time>2026-04-24T12:27:37.999Z</time></trkpt><trkpt lat="44.61176757051728" lon="10.267772855766191"><ele>262.0</ele><time>2026-04-24T12:27:39.999Z</time></trkpt><trkpt lat="44.611832666308636" lon="10.267662215333846"><ele>262.0</ele><time>2026-04-24T12:27:40.999Z</time></trkpt><trkpt lat="44.611893439990254" lon="10.267540882475"><ele>262.0</ele><time>2026-04-24T12:27:41.999Z</time></trkpt><trkpt lat="44.611950119676436" lon="10.267417674726325"><ele>262.0</ele><time>2026-04-24T12:27:42.999Z</time></trkpt><trkpt lat="44.61199774484877" lon="10.267314366129916"><ele>262.0</ele><time>2026-04-24T12:27:43.999Z</time></trkpt><trkpt lat="44.61204505058154" lon="10.267226403715007"><ele>262.0</ele><time>2026-04-24T12:27:44.999Z</time></trkpt><trkpt lat="44.61208410645019" lon="10.267142689311223"><ele>262.0</ele><time>2026-04-24T12:27:45.999Z</time></trkpt><trkpt lat="44.6121355651682" lon="10.267031923826945"><ele>262.0</ele><time>2026-04-24T12:27:47.999Z</time></trkpt><trkpt lat="44.61218754721449" lon="10.266961514305663"><ele>262.0</ele><time>2026-04-24T12:28:39.998Z</time></trkpt><trkpt lat="44.61224151881416" lon="10.26686171096094"><ele>262.0</ele><time>2026-04-24T12:28:42Z</time></trkpt><trkpt lat="44.612124785015375" lon="10.26671318358162"><ele>262.0</ele><time>2026-04-24T12:28:43Z</time></trkpt><trkpt lat="44.61204568556783" lon="10.266656691895655"><ele>262.0</ele><time>2026-04-24T12:28:44Z</time></trkpt><trkpt lat="44.61196519019903" lon="10.266568346540655"><ele>262.0</ele><time>2026-04-24T12:28:45Z</time></trkpt><trkpt lat="44.61186130850172" lon="10.266508398340113"><ele>262.5</ele><time>2026-04-24T12:28:46Z</time></trkpt><trkpt lat="44.611756133689056" lon="10.26641700250455"><ele>263.0</ele><time>2026-04-24T12:28:47Z</time></trkpt><trkpt lat="44.611646416089634" lon="10.266303673057783"><ele>263.5</ele><time>2026-04-24T12:28:48Z</time></trkpt><trkpt lat="44.61153109827435" lon="10.266208578369177"><ele>264.0</ele><time>2026-04-24T12:28:49Z</time></trkpt><trkpt lat="44.611414564788156" lon="10.2661129509713"><ele>264.0</ele><time>2026-04-24T12:28:50Z</time></trkpt><trkpt lat="44.61131017850793" lon="10.266026985761375"><ele>264.0</ele><time>2026-04-24T12:28:51Z</time></trkpt><trkpt lat="44.61121282925934" lon="10.2659468769438"><ele>264.0</ele><time>2026-04-24T12:28:52Z</time></trkpt><trkpt lat="44.61111690630847" lon="10.265867941628745"><ele>264.0</ele><time>2026-04-24T12:28:53Z</time></trkpt><trkpt lat="44.61102112333248" lon="10.26578575329032"><ele>264.0</ele><time>2026-04-24T12:28:54Z</time></trkpt><trkpt lat="44.61091888781455" lon="10.265697227929978"><ele>264.0</ele><time>2026-04-24T12:28:55Z</time></trkpt><trkpt lat="44.610816724773116" lon="10.265607459489658"><ele>264.0</ele><time>2026-04-24T12:28:56Z</time></trkpt><trkpt lat="44.61071959211355" lon="10.265506087813522"><ele>264.0</ele><time>2026-04-24T12:28:57Z</time></trkpt><trkpt lat="44.610645746241374" lon="10.265368291864831"><ele>264.25</ele><time>2026-04-24T12:28:58Z</time></trkpt><trkpt lat="44.610574652986486" lon="10.265211677585274"><ele>264.5</ele><time>2026-04-24T12:28:59Z</time></trkpt><trkpt lat="44.61050114611008" lon="10.265043112186474"><ele>264.75</ele><time>2026-04-24T12:29:00Z</time></trkpt><trkpt lat="44.610421885319894" lon="10.264878828508882"><ele>265.0</ele><time>2026-04-24T12:29:01Z</time></trkpt><trkpt lat="44.61031878973455" lon="10.264723164070437"><ele>265.3333333333333</ele><time>2026-04-24T12:29:02Z</time></trkpt><trkpt lat="44.61019527959427" lon="10.264558696352468"><ele>265.6666666666667</ele><time>2026-04-24T12:29:03Z</time></trkpt><trkpt lat="44.6100352050011" lon="10.264437319305488"><ele>266.0</ele><time>2026-04-24T12:29:04Z</time></trkpt><trkpt lat="44.60986678135145" lon="10.264362976774947"><ele>266.0</ele><time>2026-04-24T12:29:05Z</time></trkpt><trkpt lat="44.60970956493221" lon="10.264256189850485"><ele>266.0</ele><time>2026-04-24T12:29:06Z</time></trkpt><trkpt lat="44.60955320983464" lon="10.264168714297647"><ele>266.0</ele><time>2026-04-24T12:29:07Z</time></trkpt><trkpt lat="44.60939923016531" lon="10.264080955572139"><ele>266.0</ele><time>2026-04-24T12:29:08Z</time></trkpt><trkpt lat="44.60924648543424" lon="10.263995694271436"><ele>266.0</ele><time>2026-04-24T12:29:09Z</time></trkpt><trkpt lat="44.60908861886709" lon="10.26394672101031"><ele>266.0</ele><time>2026-04-24T12:29:10Z</time></trkpt><trkpt lat="44.60895833199979" lon="10.263866869053162"><ele>266.0</ele><time>2026-04-24T12:29:11Z</time></trkpt><trkpt lat="44.608838643443946" lon="10.263795034115004"><ele>266.0</ele><time>2026-04-24T12:29:12Z</time></trkpt><trkpt lat="44.60872365296836" lon="10.263731778406077"><ele>266.0</ele><time>2026-04-24T12:29:13Z</time></trkpt><trkpt lat="44.608617947673885" lon="10.263670042429851"><ele>266.0</ele><time>2026-04-24T12:29:14Z</time></trkpt><trkpt lat="44.608505458198394" lon="10.263603210407668"><ele>266.0</ele><time>2026-04-24T12:29:15Z</time></trkpt><trkpt lat="44.608388798119016" lon="10.263508916052709"><ele>266.0</ele><time>2026-04-24T12:29:16Z</time></trkpt><trkpt lat="44.608250681970176" lon="10.263459664337734"><ele>266.0</ele><time>2026-04-24T12:29:17Z</time></trkpt><trkpt lat="44.60811310884296" lon="10.263383480226448"><ele>266.0</ele><time>2026-04-24T12:29:18Z</time></trkpt><trkpt lat="44.60797008223922" lon="10.263305644648018"><ele>266.6666666666667</ele><time>2026-04-24T12:29:19Z</time></trkpt><trkpt lat="44.607821173890095" lon="10.263218541287676"><ele>267.3333333333333</ele><time>2026-04-24T12:29:20Z</time></trkpt><trkpt lat="44.60767025538863" lon="10.263131712820673"><ele>268.0</ele><time>2026-04-24T12:29:21Z</time></trkpt><trkpt lat="44.60752143141983" lon="10.26302562988549"><ele>268.0</ele><time>2026-04-24T12:29:22Z</time></trkpt><trkpt lat="44.60736865345978" lon="10.26293834244926"><ele>268.0</ele><time>2026-04-24T12:29:23Z</time></trkpt><trkpt lat="44.607222026993405" lon="10.262855350925971"><ele>268.0</ele><time>2026-04-24T12:29:24Z</time></trkpt><trkpt lat="44.60708121795446" lon="10.262811570387035"><ele>268.25</ele><time>2026-04-24T12:29:25Z</time></trkpt><trkpt lat="44.6069535862181" lon="10.26275155984264"><ele>268.5</ele><time>2026-04-24T12:29:26Z</time></trkpt><trkpt lat="44.60681359143361" lon="10.262679566287865"><ele>268.75</ele><time>2026-04-24T12:29:27Z</time></trkpt><trkpt lat="44.60666692059531" lon="10.262605586939914"><ele>269.0</ele><time>2026-04-24T12:29:28Z</time></trkpt><trkpt lat="44.60650732147024" lon="10.262528439281326"><ele>269.0</ele><time>2026-04-24T12:29:29Z</time></trkpt><trkpt lat="44.60634192574246" lon="10.26244487857082"><ele>269.0</ele><time>2026-04-24T12:29:30Z</time></trkpt><trkpt lat="44.60618061540883" lon="10.262364382037868"><ele>269.0</ele><time>2026-04-24T12:29:31Z</time></trkpt><trkpt lat="44.60604423021046" lon="10.262290597603833"><ele>269.0</ele><time>2026-04-24T12:29:32Z</time></trkpt><trkpt lat="44.60591775665748" lon="10.262224649118137"><ele>269.0</ele><time>2026-04-24T12:29:33Z</time></trkpt><trkpt lat="44.605789704421156" lon="10.262163434623732"><ele>269.0</ele><time>2026-04-24T12:29:34Z</time></trkpt><trkpt lat="44.605667621830186" lon="10.262053882285413"><ele>269.0</ele><time>2026-04-24T12:29:35Z</time></trkpt><trkpt lat="44.60552574321122" lon="10.26191195075626"><ele>269.0</ele><time>2026-04-24T12:29:36Z</time></trkpt><trkpt lat="44.60539328482839" lon="10.26170201785781"><ele>269.0</ele><time>2026-04-24T12:29:37Z</time></trkpt><trkpt lat="44.605259083103036" lon="10.261459757438217"><ele>269.0</ele><time>2026-04-24T12:29:38Z</time></trkpt><trkpt lat="44.6051605754265" lon="10.261173889240178"><ele>270.5</ele><time>2026-04-24T12:29:39Z</time></trkpt><trkpt lat="44.605058910525614" lon="10.260886498511875"><ele>272.0</ele><time>2026-04-24T12:29:40Z</time></trkpt><trkpt lat="44.60494672244605" lon="10.260612794760204"><ele>272.6666666666667</ele><time>2026-04-24T12:29:41Z</time></trkpt><trkpt lat="44.60483976871672" lon="10.260352963955702"><ele>273.3333333333333</ele><time>2026-04-24T12:29:42Z</time></trkpt><trkpt lat="44.60475107988774" lon="10.260120462232663"><ele>274.0</ele><time>2026-04-24T12:29:43Z</time></trkpt><trkpt lat="44.604667418775165" lon="10.259901756328947"><ele>274.66666666666663</ele><time>2026-04-24T12:29:44Z</time></trkpt><trkpt lat="44.60459536312638" lon="10.259700046381534"><ele>275.3333333333333</ele><time>2026-04-24T12:29:45Z</time></trkpt><trkpt lat="44.604534473417075" lon="10.259505213355734"><ele>276.0</ele><time>2026-04-24T12:29:46Z</time></trkpt><trkpt lat="44.60449992384197" lon="10.259316478741757"><ele>276.0</ele><time>2026-04-24T12:29:47Z</time></trkpt><trkpt lat="44.60450167215729" lon="10.259113708510393"><ele>276.0</ele><time>2026-04-24T12:29:48Z</time></trkpt><trkpt lat="44.60454194632945" lon="10.258911268947195"><ele>276.0</ele><time>2026-04-24T12:29:48.999Z</time></trkpt><trkpt lat="44.60460544308744" lon="10.258701520889675"><ele>277.3333333333333</ele><time>2026-04-24T12:29:49.999Z</time></trkpt><trkpt lat="44.604677479227725" lon="10.258488722191828"><ele>278.66666666666663</ele><time>2026-04-24T12:29:50.999Z</time></trkpt><trkpt lat="44.60474824643635" lon="10.258268038121026"><ele>280.0</ele><time>2026-04-24T12:29:51.999Z</time></trkpt><trkpt lat="44.60481839590467" lon="10.258040700957368"><ele>281.0</ele><time>2026-04-24T12:29:52.999Z</time></trkpt><trkpt lat="44.60489171639768" lon="10.257816899253617"><ele>282.0</ele><time>2026-04-24T12:29:53.999Z</time></trkpt><trkpt lat="44.60496943530631" lon="10.257596059872942"><ele>283.0</ele><time>2026-04-24T12:29:54.999Z</time></trkpt><trkpt lat="44.60504231239992" lon="10.257374024013759"><ele>284.3333333333333</ele><time>2026-04-24T12:29:55.999Z</time></trkpt><trkpt lat="44.60511242647326" lon="10.257149365024727"><ele>285.6666666666667</ele><time>2026-04-24T12:29:56.999Z</time></trkpt><trkpt lat="44.60517944821791" lon="10.256921315015848"><ele>287.0</ele><time>2026-04-24T12:29:57.999Z</time></trkpt><trkpt lat="44.60522069476965" lon="10.256691271342625"><ele>287.0</ele><time>2026-04-24T12:29:58.999Z</time></trkpt><trkpt lat="44.605236568482745" lon="10.256459230732991"><ele>287.0</ele><time>2026-04-24T12:29:59.999Z</time></trkpt><trkpt lat="44.605230262316454" lon="10.256246893843631"><ele>287.0</ele><time>2026-04-24T12:30:00.999Z</time></trkpt><trkpt lat="44.60521157105097" lon="10.256065790578008"><ele>287.0</ele><time>2026-04-24T12:30:01.999Z</time></trkpt><trkpt lat="44.605215981821075" lon="10.25591139577201"><ele>287.33333333333337</ele><time>2026-04-24T12:30:02.999Z</time></trkpt><trkpt lat="44.605211721264226" lon="10.255769508750015"><ele>287.6666666666667</ele><time>2026-04-24T12:30:03.999Z</time></trkpt><trkpt lat="44.60524296253389" lon="10.255643868942254"><ele>288.0</ele><time>2026-04-24T12:30:04.999Z</time></trkpt><trkpt lat="44.605249544813006" lon="10.255537326718805"><ele>288.3333333333333</ele><time>2026-04-24T12:30:05.999Z</time></trkpt><trkpt lat="44.605198038045515" lon="10.255457644675907"><ele>288.66666666666663</ele><time>2026-04-24T12:30:06.999Z</time></trkpt><trkpt lat="44.605147268313544" lon="10.255368541622065"><ele>289.0</ele><time>2026-04-24T12:30:07.999Z</time></trkpt><trkpt lat="44.605037004923076" lon="10.255424774259335"><ele>290.2</ele><time>2026-04-24T12:30:08.999Z</time></trkpt><trkpt lat="44.604951113636" lon="10.255455943415008"><ele>291.4</ele><time>2026-04-24T12:30:09.999Z</time></trkpt><trkpt lat="44.604856275653525" lon="10.255471921298387"><ele>292.6</ele><time>2026-04-24T12:30:10.999Z</time></trkpt><trkpt lat="44.60475831215625" lon="10.2554485048514"><ele>293.8</ele><time>2026-04-24T12:30:11.999Z</time></trkpt><trkpt lat="44.60465909594479" lon="10.255424293436116"><ele>295.0</ele><time>2026-04-24T12:30:12.999Z</time></trkpt><trkpt lat="44.604554014048794" lon="10.255392225904588"><ele>294.0</ele><time>2026-04-24T12:30:13.999Z</time></trkpt><trkpt lat="44.604443219210474" lon="10.255369026360368"><ele>293.0</ele><time>2026-04-24T12:30:14.999Z</time></trkpt><trkpt lat="44.6043271288277" lon="10.255357026071634"><ele>292.0</ele><time>2026-04-24T12:30:15.999Z</time></trkpt><trkpt lat="44.60420614229796" lon="10.25534305843676"><ele>291.0</ele><time>2026-04-24T12:30:16.999Z</time></trkpt><trkpt lat="44.60409006411527" lon="10.255328327952066"><ele>291.0</ele><time>2026-04-24T12:30:17.999Z</time></trkpt><trkpt lat="44.60397712448033" lon="10.255293729680721"><ele>291.0</ele><time>2026-04-24T12:30:18.999Z</time></trkpt><trkpt lat="44.60386777707274" lon="10.255279510285089"><ele>291.0</ele><time>2026-04-24T12:30:19.999Z</time></trkpt><trkpt lat="44.603754731109305" lon="10.255265915656025"><ele>291.0</ele><time>2026-04-24T12:30:20.999Z</time></trkpt><trkpt lat="44.603636319270805" lon="10.255274593142655"><ele>291.0</ele><time>2026-04-24T12:30:21.999Z</time></trkpt><trkpt lat="44.60351719112128" lon="10.255256671990317"><ele>291.0</ele><time>2026-04-24T12:30:22.999Z</time></trkpt><trkpt lat="44.6034145666491" lon="10.25523543728487"><ele>291.0</ele><time>2026-04-24T12:30:23.999Z</time></trkpt><trkpt lat="44.60332224675805" lon="10.255181122618337"><ele>291.0</ele><time>2026-04-24T12:30:24.999Z</time></trkpt><trkpt lat="44.603246167515366" lon="10.255103852801193"><ele>291.0</ele><time>2026-04-24T12:30:25.999Z</time></trkpt><trkpt lat="44.603237895129844" lon="10.254974854297792"><ele>291.0</ele><time>2026-04-24T12:30:26.999Z</time></trkpt><trkpt lat="44.60322756445661" lon="10.254803994428253"><ele>291.0</ele><time>2026-04-24T12:30:27.999Z</time></trkpt><trkpt lat="44.603202517393726" lon="10.254600264857602"><ele>291.0</ele><time>2026-04-24T12:30:28.999Z</time></trkpt><trkpt lat="44.60320534813351" lon="10.25438075437356"><ele>291.0</ele><time>2026-04-24T12:30:29.999Z</time></trkpt><trkpt lat="44.60321909872603" lon="10.254150049105405"><ele>293.75</ele><time>2026-04-24T12:30:30.999Z</time></trkpt><trkpt lat="44.603272795244976" lon="10.253928049840368"><ele>296.5</ele><time>2026-04-24T12:30:31.999Z</time></trkpt><trkpt lat="44.60329675127502" lon="10.25372012801698"><ele>299.25</ele><time>2026-04-24T12:30:32.999Z</time></trkpt><trkpt lat="44.60332156803873" lon="10.253539147106569"><ele>302.0</ele><time>2026-04-24T12:30:33.999Z</time></trkpt><trkpt lat="44.60331461192395" lon="10.253356957298122"><ele>302.0</ele><time>2026-04-24T12:30:34.999Z</time></trkpt><trkpt lat="44.60326854592312" lon="10.253174733718861"><ele>302.0</ele><time>2026-04-24T12:30:35.999Z</time></trkpt><trkpt lat="44.60320444582088" lon="10.252998041918456"><ele>302.0</ele><time>2026-04-24T12:30:36.999Z</time></trkpt><trkpt lat="44.60311635802955" lon="10.252817917168734"><ele>302.0</ele><time>2026-04-24T12:30:37.999Z</time></trkpt><trkpt lat="44.60302891103754" lon="10.252638278137853"><ele>302.33333333333337</ele><time>2026-04-24T12:30:38.999Z</time></trkpt><trkpt lat="44.60291770521598" lon="10.252473586921578"><ele>302.6666666666667</ele><time>2026-04-24T12:30:39.999Z</time></trkpt><trkpt lat="44.60278318208693" lon="10.25233098098968"><ele>303.0</ele><time>2026-04-24T12:30:40.999Z</time></trkpt><trkpt lat="44.60264277526535" lon="10.25219392647304"><ele>307.6666666666667</ele><time>2026-04-24T12:30:41.999Z</time></trkpt><trkpt lat="44.602519601647494" lon="10.252038547699858"><ele>312.33333333333337</ele><time>2026-04-24T12:30:42.999Z</time></trkpt><trkpt lat="44.60239581142273" lon="10.251885594078367"><ele>317.0</ele><time>2026-04-24T12:30:43.999Z</time></trkpt><trkpt lat="44.6022809817867" lon="10.251727450055904"><ele>317.0</ele><time>2026-04-24T12:30:44.999Z</time></trkpt><trkpt lat="44.60216108771725" lon="10.25156241277656"><ele>317.0</ele><time>2026-04-24T12:30:45.999Z</time></trkpt><trkpt lat="44.6020309865486" lon="10.251399044344916"><ele>317.0</ele><time>2026-04-24T12:30:46.999Z</time></trkpt><trkpt lat="44.601900424833815" lon="10.251244199173625"><ele>321.33333333333337</ele><time>2026-04-24T12:30:48.001Z</time></trkpt><trkpt lat="44.601781867848615" lon="10.251096493087125"><ele>325.6666666666667</ele><time>2026-04-24T12:30:49.001Z</time></trkpt><trkpt lat="44.60168947059802" lon="10.250930966794382"><ele>330.0</ele><time>2026-04-24T12:30:50.001Z</time></trkpt><trkpt lat="44.60165082032351" lon="10.250738070554803"><ele>331.25</ele><time>2026-04-24T12:30:51.001Z</time></trkpt><trkpt lat="44.60163395356501" lon="10.250546408727125"><ele>332.5</ele><time>2026-04-24T12:30:52.001Z</time></trkpt><trkpt lat="44.60160906350067" lon="10.250388370294647"><ele>333.75</ele><time>2026-04-24T12:30:53.001Z</time></trkpt><trkpt lat="44.601568605110394" lon="10.250262239453253"><ele>335.0</ele><time>2026-04-24T12:30:54.001Z</time></trkpt><trkpt lat="44.60147100137839" lon="10.250155875168911"><ele>335.0</ele><time>2026-04-24T12:30:55.001Z</time></trkpt><trkpt lat="44.60134981560374" lon="10.250049211795265"><ele>335.0</ele><time>2026-04-24T12:30:56Z</time></trkpt><trkpt lat="44.60122525710035" lon="10.249929645130937"><ele>335.0</ele><time>2026-04-24T12:30:57.001Z</time></trkpt><trkpt lat="44.60110306756367" lon="10.24980303506567"><ele>335.0</ele><time>2026-04-24T12:30:58.001Z</time></trkpt><trkpt lat="44.600989176813705" lon="10.249647719060297"><ele>337.8</ele><time>2026-04-24T12:30:59Z</time></trkpt><trkpt lat="44.60087034548659" lon="10.249526870310632"><ele>340.6</ele><time>2026-04-24T12:31:00Z</time></trkpt><trkpt lat="44.600798944334336" lon="10.249407785838725"><ele>343.4</ele><time>2026-04-24T12:31:01Z</time></trkpt><trkpt lat="44.6007747552617" lon="10.249292158112883"><ele>346.2</ele><time>2026-04-24T12:31:02Z</time></trkpt><trkpt lat="44.60079105637955" lon="10.249167928756728"><ele>349.0</ele><time>2026-04-24T12:31:03Z</time></trkpt><trkpt lat="44.60083799280523" lon="10.248992462723626"><ele>350.75</ele><time>2026-04-24T12:31:04Z</time></trkpt><trkpt lat="44.600900157748775" lon="10.248834451150385"><ele>352.5</ele><time>2026-04-24T12:31:05Z</time></trkpt><trkpt lat="44.600933164594075" lon="10.248708290953564"><ele>354.25</ele><time>2026-04-24T12:31:06Z</time></trkpt><trkpt lat="44.6008616332538" lon="10.248549661852204"><ele>356.0</ele><time>2026-04-24T12:31:07Z</time></trkpt><trkpt lat="44.600719890202946" lon="10.248426317483313"><ele>356.0</ele><time>2026-04-24T12:31:08Z</time></trkpt><trkpt lat="44.60059499669429" lon="10.248272890415427"><ele>356.0</ele><time>2026-04-24T12:31:09Z</time></trkpt><trkpt lat="44.600463117095366" lon="10.24814582215062"><ele>356.0</ele><time>2026-04-24T12:31:10Z</time></trkpt><trkpt lat="44.600343015697575" lon="10.247993088578502"><ele>361.5</ele><time>2026-04-24T12:31:11Z</time></trkpt><trkpt lat="44.60020959842944" lon="10.247916446506663"><ele>367.0</ele><time>2026-04-24T12:31:12Z</time></trkpt><trkpt lat="44.600072763182006" lon="10.247862933976815"><ele>372.5</ele><time>2026-04-24T12:31:13Z</time></trkpt><trkpt lat="44.59992963325922" lon="10.247823089664514"><ele>378.0</ele><time>2026-04-24T12:31:14Z</time></trkpt><trkpt lat="44.59977867707175" lon="10.247871113136338"><ele>378.0</ele><time>2026-04-24T12:31:15Z</time></trkpt><trkpt lat="44.59962265495171" lon="10.24789201215045"><ele>378.0</ele><time>2026-04-24T12:31:16Z</time></trkpt><trkpt lat="44.599490273941484" lon="10.247922616930008"><ele>378.0</ele><time>2026-04-24T12:31:17Z</time></trkpt><trkpt lat="44.59936903493932" lon="10.247930075326662"><ele>378.0</ele><time>2026-04-24T12:31:18Z</time></trkpt><trkpt lat="44.59924876974116" lon="10.247900132563169"><ele>379.3333333333333</ele><time>2026-04-24T12:31:19Z</time></trkpt><trkpt lat="44.59912680902592" lon="10.24780744617834"><ele>380.66666666666663</ele><time>2026-04-24T12:31:20Z</time></trkpt><trkpt lat="44.598988922412595" lon="10.247687460643435"><ele>382.0</ele><time>2026-04-24T12:31:21Z</time></trkpt><trkpt lat="44.598838019184115" lon="10.24758645942558"><ele>382.0</ele><time>2026-04-24T12:31:22Z</time></trkpt><trkpt lat="44.59869077004644" lon="10.247476778688025"><ele>382.0</ele><time>2026-04-24T12:31:23Z</time></trkpt><trkpt lat="44.59853032972557" lon="10.247412178924048"><ele>382.0</ele><time>2026-04-24T12:31:24Z</time></trkpt><trkpt lat="44.59836241160646" lon="10.247400955699536"><ele>383.25</ele><time>2026-04-24T12:31:25Z</time></trkpt><trkpt lat="44.598198230944874" lon="10.247426084394657"><ele>384.5</ele><time>2026-04-24T12:31:26Z</time></trkpt><trkpt lat="44.59804510959871" lon="10.247426915363326"><ele>385.75</ele><time>2026-04-24T12:31:27Z</time></trkpt><trkpt lat="44.59792109643332" lon="10.247431079843807"><ele>387.0</ele><time>2026-04-24T12:31:28Z</time></trkpt><trkpt lat="44.59781961908293" lon="10.247409520623354"><ele>388.25</ele><time>2026-04-24T12:31:29Z</time></trkpt><trkpt lat="44.59775388123492" lon="10.247338641400777"><ele>389.5</ele><time>2026-04-24T12:31:30Z</time></trkpt><trkpt lat="44.59769396346652" lon="10.247236471516683"><ele>390.75</ele><time>2026-04-24T12:31:31Z</time></trkpt><trkpt lat="44.59760357183762" lon="10.247118796238437"><ele>392.0</ele><time>2026-04-24T12:31:32Z</time></trkpt><trkpt lat="44.59751271091502" lon="10.246943038394495"><ele>394.66666666666663</ele><time>2026-04-24T12:31:33Z</time></trkpt><trkpt lat="44.597411060753466" lon="10.246767037455673"><ele>397.33333333333337</ele><time>2026-04-24T12:31:34Z</time></trkpt><trkpt lat="44.597303723731756" lon="10.246606131458236"><ele>400.0</ele><time>2026-04-24T12:31:35Z</time></trkpt><trkpt lat="44.597187931684324" lon="10.246446663371117"><ele>404.6666666666667</ele><time>2026-04-24T12:31:36Z</time></trkpt><trkpt lat="44.59705945326043" lon="10.246302496953286"><ele>409.33333333333337</ele><time>2026-04-24T12:31:37Z</time></trkpt><trkpt lat="44.59691444408172" lon="10.24618176030086"><ele>414.0</ele><time>2026-04-24T12:31:38Z</time></trkpt><trkpt lat="44.59676228498663" lon="10.246087850839332"><ele>414.0</ele><time>2026-04-24T12:31:39Z</time></trkpt><trkpt lat="44.5966185628502" lon="10.245977436899206"><ele>414.0</ele><time>2026-04-24T12:31:40Z</time></trkpt><trkpt lat="44.59648073996248" lon="10.245936844940713"><ele>414.0</ele><time>2026-04-24T12:31:41Z</time></trkpt><trkpt lat="44.596379411914135" lon="10.245842297105023"><ele>414.0</ele><time>2026-04-24T12:31:42Z</time></trkpt><trkpt lat="44.596309500493135" lon="10.245731082929442"><ele>414.0</ele><time>2026-04-24T12:31:43Z</time></trkpt><trkpt lat="44.59625857580699" lon="10.245576103572665"><ele>414.0</ele><time>2026-04-24T12:31:44Z</time></trkpt><trkpt lat="44.596219731772514" lon="10.24538610865552"><ele>414.0</ele><time>2026-04-24T12:31:45Z</time></trkpt><trkpt lat="44.59617803161364" lon="10.245171101234932"><ele>414.0</ele><time>2026-04-24T12:31:46Z</time></trkpt><trkpt lat="44.59616273733584" lon="10.244957017859226"><ele>418.75</ele><time>2026-04-24T12:31:47Z</time></trkpt><trkpt lat="44.59613699073091" lon="10.244755006648683"><ele>423.5</ele><time>2026-04-24T12:31:48Z</time></trkpt><trkpt lat="44.59609148794281" lon="10.244590395121312"><ele>428.25</ele><time>2026-04-24T12:31:49Z</time></trkpt><trkpt lat="44.5959989316304" lon="10.244443999223162"><ele>433.0</ele><time>2026-04-24T12:31:50Z</time></trkpt><trkpt lat="44.595880431463854" lon="10.244325429368617"><ele>433.0</ele><time>2026-04-24T12:31:51Z</time></trkpt><trkpt lat="44.5957481233223" lon="10.244209184509664"><ele>433.0</ele><time>2026-04-24T12:31:52Z</time></trkpt><trkpt lat="44.5956302264325" lon="10.244062749185376"><ele>433.0</ele><time>2026-04-24T12:31:53Z</time></trkpt><trkpt lat="44.59550082854557" lon="10.243921309480037"><ele>432.33333333333337</ele><time>2026-04-24T12:31:54Z</time></trkpt><trkpt lat="44.59537845587944" lon="10.243770079974984"><ele>431.66666666666663</ele><time>2026-04-24T12:31:55Z</time></trkpt><trkpt lat="44.59528515905151" lon="10.243615955421387"><ele>431.0</ele><time>2026-04-24T12:31:56Z</time></trkpt><trkpt lat="44.5952164875489" lon="10.24343615061883"><ele>431.0</ele><time>2026-04-24T12:31:57Z</time></trkpt><trkpt lat="44.595147447802226" lon="10.243231476185507"><ele>431.0</ele><time>2026-04-24T12:31:58Z</time></trkpt><trkpt lat="44.59507597214774" lon="10.243011413159747"><ele>431.0</ele><time>2026-04-24T12:31:59Z</time></trkpt><trkpt lat="44.594996676874366" lon="10.24278861876919"><ele>436.3333333333333</ele><time>2026-04-24T12:32:00Z</time></trkpt><trkpt lat="44.594897962484694" lon="10.242580741437575"><ele>441.66666666666663</ele><time>2026-04-24T12:32:01Z</time></trkpt><trkpt lat="44.59481675635876" lon="10.24236727316935"><ele>447.0</ele><time>2026-04-24T12:32:02Z</time></trkpt><trkpt lat="44.59474305282358" lon="10.242161562325899"><ele>450.0</ele><time>2026-04-24T12:32:03Z</time></trkpt><trkpt lat="44.594679409946" lon="10.24197930315289"><ele>453.0</ele><time>2026-04-24T12:32:04Z</time></trkpt><trkpt lat="44.5946762691762" lon="10.24179330074979"><ele>456.0</ele><time>2026-04-24T12:32:05Z</time></trkpt><trkpt lat="44.594657197181355" lon="10.241598828251313"><ele>459.0</ele><time>2026-04-24T12:32:06Z</time></trkpt><trkpt lat="44.594615505217554" lon="10.241426330048924"><ele>457.5</ele><time>2026-04-24T12:32:07Z</time></trkpt><trkpt lat="44.5945385728423" lon="10.24127187844261"><ele>456.0</ele><time>2026-04-24T12:32:08Z</time></trkpt><trkpt lat="44.594428300627165" lon="10.241136801242067"><ele>454.5</ele><time>2026-04-24T12:32:08.999Z</time></trkpt><trkpt lat="44.594346871782015" lon="10.240965672737572"><ele>453.0</ele><time>2026-04-24T12:32:09.999Z</time></trkpt><trkpt lat="44.59427773975295" lon="10.240793828761074"><ele>457.66666666666663</ele><time>2026-04-24T12:32:10.999Z</time></trkpt><trkpt lat="44.59423990995833" lon="10.240603998059278"><ele>462.3333333333333</ele><time>2026-04-24T12:32:11.999Z</time></trkpt><trkpt lat="44.59420274627886" lon="10.240394535720897"><ele>467.0</ele><time>2026-04-24T12:32:12.999Z</time></trkpt><trkpt lat="44.594146135808245" lon="10.240184200971834"><ele>467.0</ele><time>2026-04-24T12:32:13.999Z</time></trkpt><trkpt lat="44.59408571718324" lon="10.239983764035468"><ele>467.0</ele><time>2026-04-24T12:32:14.999Z</time></trkpt><trkpt lat="44.59398819638088" lon="10.239812473635467"><ele>467.0</ele><time>2026-04-24T12:32:15.999Z</time></trkpt><trkpt lat="44.59386785300209" lon="10.239674961123962"><ele>466.5</ele><time>2026-04-24T12:32:16.999Z</time></trkpt><trkpt lat="44.59375178767471" lon="10.239530668551803"><ele>466.0</ele><time>2026-04-24T12:32:17.999Z</time></trkpt><trkpt lat="44.59365181425369" lon="10.23939625705559"><ele>465.5</ele><time>2026-04-24T12:32:18.999Z</time></trkpt><trkpt lat="44.59355782198239" lon="10.239248064844567"><ele>465.0</ele><time>2026-04-24T12:32:19.999Z</time></trkpt><trkpt lat="44.593469839408556" lon="10.239091911749709"><ele>466.5</ele><time>2026-04-24T12:32:20.999Z</time></trkpt><trkpt lat="44.59338552231643" lon="10.238952087552498"><ele>468.0</ele><time>2026-04-24T12:32:21.999Z</time></trkpt><trkpt lat="44.59334726440437" lon="10.23876624030456"><ele>469.5</ele><time>2026-04-24T12:32:22.999Z</time></trkpt><trkpt lat="44.59331122331009" lon="10.238571739512395"><ele>471.0</ele><time>2026-04-24T12:32:23.999Z</time></trkpt><trkpt lat="44.59328634996021" lon="10.23836081227328"><ele>471.0</ele><time>2026-04-24T12:32:24.999Z</time></trkpt><trkpt lat="44.59327349029654" lon="10.238152791149187"><ele>471.0</ele><time>2026-04-24T12:32:25.999Z</time></trkpt><trkpt lat="44.59326344733725" lon="10.237945665511692"><ele>471.0</ele><time>2026-04-24T12:32:26.999Z</time></trkpt><trkpt lat="44.59328809000805" lon="10.237736917834726"><ele>471.0</ele><time>2026-04-24T12:32:27.999Z</time></trkpt><trkpt lat="44.5933039347799" lon="10.237531961600487"><ele>472.5</ele><time>2026-04-24T12:32:28.999Z</time></trkpt><trkpt lat="44.59329763042089" lon="10.237324153323353"><ele>474.0</ele><time>2026-04-24T12:32:29.999Z</time></trkpt><trkpt lat="44.59325521575172" lon="10.23712576507092"><ele>475.5</ele><time>2026-04-24T12:32:30.999Z</time></trkpt><trkpt lat="44.59317668925959" lon="10.236946863991342"><ele>477.0</ele><time>2026-04-24T12:32:31.999Z</time></trkpt><trkpt lat="44.593067146705984" lon="10.236785555208218"><ele>482.0</ele><time>2026-04-24T12:32:32.999Z</time></trkpt><trkpt lat="44.592970494955274" lon="10.236614302207474"><ele>487.0</ele><time>2026-04-24T12:32:33.999Z</time></trkpt><trkpt lat="44.59286862019974" lon="10.236448914759718"><ele>492.0</ele><time>2026-04-24T12:32:34.999Z</time></trkpt><trkpt lat="44.592764410552704" lon="10.23628693957448"><ele>492.33333333333337</ele><time>2026-04-24T12:32:35.999Z</time></trkpt><trkpt lat="44.59265981092083" lon="10.236125497139223"><ele>492.6666666666667</ele><time>2026-04-24T12:32:36.999Z</time></trkpt><trkpt lat="44.59256429019502" lon="10.235963098254802"><ele>493.0</ele><time>2026-04-24T12:32:37.999Z</time></trkpt><trkpt lat="44.5924847345529" lon="10.235789350064366"><ele>496.33333333333337</ele><time>2026-04-24T12:32:38.999Z</time></trkpt><trkpt lat="44.5924323545513" lon="10.235599511900523"><ele>499.66666666666663</ele><time>2026-04-24T12:32:39.999Z</time></trkpt><trkpt lat="44.592376384679206" lon="10.235399183958437"><ele>503.0</ele><time>2026-04-24T12:32:40.999Z</time></trkpt><trkpt lat="44.59231998351372" lon="10.23519576779493"><ele>503.0</ele><time>2026-04-24T12:32:41.999Z</time></trkpt><trkpt lat="44.5922691464908" lon="10.235001205344183"><ele>503.0</ele><time>2026-04-24T12:32:42.999Z</time></trkpt><trkpt lat="44.592230211821764" lon="10.234798091817858"><ele>503.0</ele><time>2026-04-24T12:32:43.999Z</time></trkpt><trkpt lat="44.59222224678045" lon="10.234589158371124"><ele>503.0</ele><time>2026-04-24T12:32:44.999Z</time></trkpt><trkpt lat="44.59223886236731" lon="10.23436993928727"><ele>506.3333333333333</ele><time>2026-04-24T12:32:45.999Z</time></trkpt><trkpt lat="44.59225110885763" lon="10.234129221745341"><ele>509.66666666666663</ele><time>2026-04-24T12:32:46.999Z</time></trkpt><trkpt lat="44.592286378535746" lon="10.233891809016876"><ele>513.0</ele><time>2026-04-24T12:32:47.999Z</time></trkpt><trkpt lat="44.5923158023873" lon="10.233668334568272"><ele>513.3333333333334</ele><time>2026-04-24T12:32:48.999Z</time></trkpt><trkpt lat="44.59237626151875" lon="10.233463781536676"><ele>513.6666666666667</ele><time>2026-04-24T12:32:49.999Z</time></trkpt><trkpt lat="44.592461830666366" lon="10.233279598316447"><ele>514.0</ele><time>2026-04-24T12:32:50.999Z</time></trkpt><trkpt lat="44.59256764159845" lon="10.233133187441409"><ele>512.0</ele><time>2026-04-24T12:32:51.999Z</time></trkpt><trkpt lat="44.59269461351626" lon="10.233035668993125"><ele>510.0</ele><time>2026-04-24T12:32:52.999Z</time></trkpt><trkpt lat="44.59280204430048" lon="10.232916261290754"><ele>508.0</ele><time>2026-04-24T12:32:54.001Z</time></trkpt><trkpt lat="44.59289282582624" lon="10.232769969313697"><ele>506.0</ele><time>2026-04-24T12:32:55.001Z</time></trkpt><trkpt lat="44.592910009397" lon="10.232623363659554"><ele>508.0</ele><time>2026-04-24T12:32:56.001Z</time></trkpt><trkpt lat="44.592895376899286" lon="10.232462420094869"><ele>510.0</ele><time>2026-04-24T12:32:57.001Z</time></trkpt><trkpt lat="44.59283481009356" lon="10.232290243979143"><ele>512.0</ele><time>2026-04-24T12:32:58.001Z</time></trkpt><trkpt lat="44.59278670312163" lon="10.232086239197686"><ele>514.0</ele><time>2026-04-24T12:32:59.001Z</time></trkpt><trkpt lat="44.592710777435634" lon="10.23190230553103"><ele>514.0</ele><time>2026-04-24T12:33:00.001Z</time></trkpt><trkpt lat="44.59264286269575" lon="10.231699071445854"><ele>514.0</ele><time>2026-04-24T12:33:01.001Z</time></trkpt><trkpt lat="44.59258536979712" lon="10.231507790677428"><ele>514.0</ele><time>2026-04-24T12:33:02.001Z</time></trkpt><trkpt lat="44.592494958269675" lon="10.23136720458052"><ele>514.0</ele><time>2026-04-24T12:33:03.001Z</time></trkpt><trkpt lat="44.592369596651814" lon="10.231279738610988"><ele>515.75</ele><time>2026-04-24T12:33:04.001Z</time></trkpt><trkpt lat="44.59225693574196" lon="10.231219124755702"><ele>517.5</ele><time>2026-04-24T12:33:05.001Z</time></trkpt><trkpt lat="44.59216036172515" lon="10.231152374107477"><ele>519.25</ele><time>2026-04-24T12:33:06.001Z</time></trkpt><trkpt lat="44.59208594476935" lon="10.23103939650768"><ele>521.0</ele><time>2026-04-24T12:33:07.001Z</time></trkpt><trkpt lat="44.59204550520672" lon="10.230877295906678"><ele>521.0</ele><time>2026-04-24T12:33:08.001Z</time></trkpt><trkpt lat="44.592015352374304" lon="10.230687431239007"><ele>521.0</ele><time>2026-04-24T12:33:09.001Z</time></trkpt><trkpt lat="44.5919732919663" lon="10.230531865056923"><ele>521.0</ele><time>2026-04-24T12:33:10.001Z</time></trkpt><trkpt lat="44.59188325749177" lon="10.230398579960799"><ele>521.0</ele><time>2026-04-24T12:33:11.001Z</time></trkpt><trkpt lat="44.591769019416574" lon="10.230331599176461"><ele>521.5</ele><time>2026-04-24T12:33:12.001Z</time></trkpt><trkpt lat="44.59164868960101" lon="10.230253550837642"><ele>522.0</ele><time>2026-04-24T12:33:13.001Z</time></trkpt><trkpt lat="44.59152283065952" lon="10.230165795269631"><ele>522.5</ele><time>2026-04-24T12:33:14.001Z</time></trkpt><trkpt lat="44.59138998724824" lon="10.230124359695443"><ele>523.0</ele><time>2026-04-24T12:33:15.001Z</time></trkpt><trkpt lat="44.59126744863489" lon="10.230089964575008"><ele>523.25</ele><time>2026-04-24T12:33:16.001Z</time></trkpt><trkpt lat="44.59114126103107" lon="10.230079002440732"><ele>523.5</ele><time>2026-04-24T12:33:17.001Z</time></trkpt><trkpt lat="44.59102587875465" lon="10.230199261022085"><ele>523.75</ele><time>2026-04-24T12:33:18Z</time></trkpt><trkpt lat="44.59092498921857" lon="10.230353029691067"><ele>524.0</ele><time>2026-04-24T12:33:19Z</time></trkpt><trkpt lat="44.59082260318864" lon="10.230528684099895"><ele>524.0</ele><time>2026-04-24T12:33:20Z</time></trkpt><trkpt lat="44.590698929384295" lon="10.230628132757662"><ele>524.0</ele><time>2026-04-24T12:33:21Z</time></trkpt><trkpt lat="44.59057954057048" lon="10.230724596493666"><ele>524.0</ele><time>2026-04-24T12:33:22Z</time></trkpt><trkpt lat="44.59044546165612" lon="10.230814617513214"><ele>524.0</ele><time>2026-04-24T12:33:23Z</time></trkpt><trkpt lat="44.5903154635074" lon="10.230901433911447"><ele>522.5</ele><time>2026-04-24T12:33:24Z</time></trkpt><trkpt lat="44.590193370851026" lon="10.231009558818007"><ele>521.0</ele><time>2026-04-24T12:33:25Z</time></trkpt><trkpt lat="44.590092288874246" lon="10.231165099807557"><ele>519.5</ele><time>2026-04-24T12:33:26Z</time></trkpt><trkpt lat="44.58996712297114" lon="10.23126062039566"><ele>518.0</ele><time>2026-04-24T12:33:27Z</time></trkpt><trkpt lat="44.5898452314172" lon="10.231344159589703"><ele>518.0</ele><time>2026-04-24T12:33:28Z</time></trkpt><trkpt lat="44.589717208576836" lon="10.231416408649066"><ele>518.0</ele><time>2026-04-24T12:33:29Z</time></trkpt><trkpt lat="44.589590035350504" lon="10.231486542639852"><ele>518.0</ele><time>2026-04-24T12:33:30Z</time></trkpt><trkpt lat="44.58946002601379" lon="10.231555007540209"><ele>518.0</ele><time>2026-04-24T12:33:31Z</time></trkpt><trkpt lat="44.589336655456165" lon="10.231601829879496"><ele>518.6</ele><time>2026-04-24T12:33:32Z</time></trkpt><trkpt lat="44.5892224640322" lon="10.231620495720234"><ele>519.1999999999999</ele><time>2026-04-24T12:33:33Z</time></trkpt><trkpt lat="44.58911351000052" lon="10.23159058957088"><ele>519.8</ele><time>2026-04-24T12:33:34Z</time></trkpt><trkpt lat="44.589008707742025" lon="10.23154339686192"><ele>520.4</ele><time>2026-04-24T12:33:35Z</time></trkpt><trkpt lat="44.58895080970282" lon="10.231442809860978"><ele>521.0</ele><time>2026-04-24T12:33:36Z</time></trkpt><trkpt lat="44.58894079537713" lon="10.231327405476748"><ele>521.4</ele><time>2026-04-24T12:33:37Z</time></trkpt><trkpt lat="44.588932509624705" lon="10.23119121736719"><ele>521.8</ele><time>2026-04-24T12:33:38Z</time></trkpt><trkpt lat="44.5889228815852" lon="10.231035363581823"><ele>522.1999999999999</ele><time>2026-04-24T12:33:39Z</time></trkpt><trkpt lat="44.588894470563446" lon="10.230894532573956"><ele>522.6</ele><time>2026-04-24T12:33:40Z</time></trkpt><trkpt lat="44.588818942309935" lon="10.230771539114935"><ele>523.0</ele><time>2026-04-24T12:33:41Z</time></trkpt><trkpt lat="44.58876213525389" lon="10.230619787460403"><ele>523.6</ele><time>2026-04-24T12:33:42Z</time></trkpt><trkpt lat="44.5886965287888" lon="10.230531130991265"><ele>524.1999999999999</ele><time>2026-04-24T12:33:43Z</time></trkpt><trkpt lat="44.58862235005108" lon="10.2304587323782"><ele>524.8</ele><time>2026-04-24T12:33:44Z</time></trkpt><trkpt lat="44.58851873982143" lon="10.230455235005481"><ele>525.4</ele><time>2026-04-24T12:33:45Z</time></trkpt><trkpt lat="44.588421690897555" lon="10.230450722502312"><ele>526.0</ele><time>2026-04-24T12:33:46Z</time></trkpt><trkpt lat="44.588330993024975" lon="10.230447911538638"><ele>526.6</ele><time>2026-04-24T12:33:47Z</time></trkpt><trkpt lat="44.58824239865918" lon="10.230434363819516"><ele>527.2</ele><time>2026-04-24T12:33:48Z</time></trkpt><trkpt lat="44.588159750934544" lon="10.230394260645257"><ele>527.8</ele><time>2026-04-24T12:33:49Z</time></trkpt><trkpt lat="44.58807370051933" lon="10.230348633697607"><ele>528.4</ele><time>2026-04-24T12:33:50Z</time></trkpt><trkpt lat="44.58798390940344" lon="10.230306825630219"><ele>529.0</ele><time>2026-04-24T12:33:51Z</time></trkpt><trkpt lat="44.58790910242809" lon="10.230206428260308"><ele>530.4</ele><time>2026-04-24T12:33:52Z</time></trkpt><trkpt lat="44.58783764651343" lon="10.2301133387248"><ele>531.8</ele><time>2026-04-24T12:33:53Z</time></trkpt><trkpt lat="44.58776197396547" lon="10.23004668803758"><ele>533.2</ele><time>2026-04-24T12:33:54Z</time></trkpt><trkpt lat="44.58770368820245" lon="10.229960196698899"><ele>534.6</ele><time>2026-04-24T12:33:55Z</time></trkpt><trkpt lat="44.58761146132712" lon="10.229938436327474"><ele>536.0</ele><time>2026-04-24T12:33:56Z</time></trkpt><trkpt lat="44.58752371253696" lon="10.229971899921264"><ele>536.0</ele><time>2026-04-24T12:33:57Z</time></trkpt><trkpt lat="44.5874428193105" lon="10.230054861555038"><ele>536.0</ele><time>2026-04-24T12:33:58Z</time></trkpt><trkpt lat="44.587413670668944" lon="10.230196431414718"><ele>536.0</ele><time>2026-04-24T12:33:59Z</time></trkpt><trkpt lat="44.58735918384007" lon="10.230302253980229"><ele>536.0</ele><time>2026-04-24T12:34:00Z</time></trkpt><trkpt lat="44.58731788210375" lon="10.230422727767067"><ele>536.0</ele><time>2026-04-24T12:34:01Z</time></trkpt><trkpt lat="44.58727435922656" lon="10.230553252183778"><ele>534.8</ele><time>2026-04-24T12:34:02Z</time></trkpt><trkpt lat="44.58722818303801" lon="10.230690625838045"><ele>533.6</ele><time>2026-04-24T12:34:03Z</time></trkpt><trkpt lat="44.58717920093932" lon="10.23082443104397"><ele>532.4</ele><time>2026-04-24T12:34:04Z</time></trkpt><trkpt lat="44.587118418969325" lon="10.230962855329784"><ele>531.2</ele><time>2026-04-24T12:34:05Z</time></trkpt><trkpt lat="44.58704049535792" lon="10.231070625097063"><ele>530.0</ele><time>2026-04-24T12:34:06Z</time></trkpt><trkpt lat="44.58694570513498" lon="10.231164155261778"><ele>535.0</ele><time>2026-04-24T12:34:07Z</time></trkpt><trkpt lat="44.58685817253546" lon="10.231281559439632"><ele>540.0</ele><time>2026-04-24T12:34:08Z</time></trkpt><trkpt lat="44.58677226766662" lon="10.231398064827417"><ele>545.0</ele><time>2026-04-24T12:34:09Z</time></trkpt><trkpt lat="44.586706452426306" lon="10.231545839279885"><ele>550.0</ele><time>2026-04-24T12:34:10Z</time></trkpt><trkpt lat="44.58665809061691" lon="10.231719220166156"><ele>550.0</ele><time>2026-04-24T12:34:11Z</time></trkpt><trkpt lat="44.58661148161422" lon="10.231897070940576"><ele>550.0</ele><time>2026-04-24T12:34:12Z</time></trkpt><trkpt lat="44.58654846639395" lon="10.232071827387054"><ele>550.0</ele><time>2026-04-24T12:34:13Z</time></trkpt><trkpt lat="44.58649845214775" lon="10.232262302865292"><ele>550.0</ele><time>2026-04-24T12:34:14Z</time></trkpt><trkpt lat="44.58644941198482" lon="10.232456694513315"><ele>548.0</ele><time>2026-04-24T12:34:15Z</time></trkpt><trkpt lat="44.58642117432628" lon="10.232660819282625"><ele>546.0</ele><time>2026-04-24T12:34:16Z</time></trkpt><trkpt lat="44.58638759583433" lon="10.232865643331033"><ele>544.0</ele><time>2026-04-24T12:34:17Z</time></trkpt><trkpt lat="44.58639040119064" lon="10.233074974789043"><ele>542.0</ele><time>2026-04-24T12:34:18Z</time></trkpt><trkpt lat="44.58639994322867" lon="10.233287367582806"><ele>541.5</ele><time>2026-04-24T12:34:19Z</time></trkpt><trkpt lat="44.58637614168873" lon="10.233490850128993"><ele>541.0</ele><time>2026-04-24T12:34:20Z</time></trkpt><trkpt lat="44.586365530029255" lon="10.23370230067101"><ele>540.5</ele><time>2026-04-24T12:34:21Z</time></trkpt><trkpt lat="44.586319407530915" lon="10.233900819807907"><ele>540.0</ele><time>2026-04-24T12:34:21.999Z</time></trkpt><trkpt lat="44.586279356830644" lon="10.234090637470453"><ele>539.0</ele><time>2026-04-24T12:34:22.999Z</time></trkpt><trkpt lat="44.58621936156838" lon="10.234262777317687"><ele>538.0</ele><time>2026-04-24T12:34:23.999Z</time></trkpt><trkpt lat="44.58613541051431" lon="10.234430617631151"><ele>537.0</ele><time>2026-04-24T12:34:24.999Z</time></trkpt><trkpt lat="44.58605083637045" lon="10.234621805776897"><ele>536.0</ele><time>2026-04-24T12:34:25.999Z</time></trkpt><trkpt lat="44.5859472657314" lon="10.23481350575328"><ele>545.3333333333333</ele><time>2026-04-24T12:34:26.999Z</time></trkpt><trkpt lat="44.58583531502573" lon="10.235018855664984"><ele>554.6666666666666</ele><time>2026-04-24T12:34:27.999Z</time></trkpt><trkpt lat="44.58574425784454" lon="10.235239532842332"><ele>564.0</ele><time>2026-04-24T12:34:28.999Z</time></trkpt><trkpt lat="44.58567483264333" lon="10.235492490045951"><ele>559.6666666666666</ele><time>2026-04-24T12:34:29.999Z</time></trkpt><trkpt lat="44.58562156129292" lon="10.235751978146455"><ele>555.3333333333333</ele><time>2026-04-24T12:34:30.999Z</time></trkpt><trkpt lat="44.585575029571594" lon="10.23599154772673"><ele>551.0</ele><time>2026-04-24T12:34:31.999Z</time></trkpt><trkpt lat="44.58555042763131" lon="10.236209244324316"><ele>551.0</ele><time>2026-04-24T12:34:32.999Z</time></trkpt><trkpt lat="44.58550632814096" lon="10.236408732393581"><ele>551.0</ele><time>2026-04-24T12:34:33.999Z</time></trkpt><trkpt lat="44.58544953989058" lon="10.23657390869827"><ele>551.0</ele><time>2026-04-24T12:34:34.999Z</time></trkpt><trkpt lat="44.58536106087462" lon="10.2367060912455"><ele>551.0</ele><time>2026-04-24T12:34:35.999Z</time></trkpt><trkpt lat="44.585240643401264" lon="10.23677683092646"><ele>554.75</ele><time>2026-04-24T12:34:36.999Z</time></trkpt><trkpt lat="44.585099930229696" lon="10.23678151664558"><ele>558.5</ele><time>2026-04-24T12:34:37.999Z</time></trkpt><trkpt lat="44.58495158556249" lon="10.236805508961742"><ele>562.25</ele><time>2026-04-24T12:34:38.999Z</time></trkpt><trkpt lat="44.58482600504195" lon="10.236785238261193"><ele>566.0</ele><time>2026-04-24T12:34:39.999Z</time></trkpt><trkpt lat="44.584722211413656" lon="10.236699108643057"><ele>566.0</ele><time>2026-04-24T12:34:40.999Z</time></trkpt><trkpt lat="44.584640307588955" lon="10.236573898763806"><ele>566.0</ele><time>2026-04-24T12:34:41.999Z</time></trkpt><trkpt lat="44.58457597157909" lon="10.236410274311345"><ele>566.0</ele><time>2026-04-24T12:34:42.999Z</time></trkpt><trkpt lat="44.58454422879813" lon="10.23621976117026"><ele>566.0</ele><time>2026-04-24T12:34:43.999Z</time></trkpt><trkpt lat="44.584545661978794" lon="10.236029584697732"><ele>567.25</ele><time>2026-04-24T12:34:44.999Z</time></trkpt><trkpt lat="44.584537952010145" lon="10.235844748112754"><ele>568.5</ele><time>2026-04-24T12:34:45.999Z</time></trkpt><trkpt lat="44.584531813934" lon="10.235682540220715"><ele>569.75</ele><time>2026-04-24T12:34:46.999Z</time></trkpt><trkpt lat="44.58447198813788" lon="10.235538404647407"><ele>571.0</ele><time>2026-04-24T12:34:47.999Z</time></trkpt><trkpt lat="44.584409548748916" lon="10.235395510130468"><ele>571.0</ele><time>2026-04-24T12:34:48.999Z</time></trkpt><trkpt lat="44.584356048995055" lon="10.23526207080414"><ele>571.0</ele><time>2026-04-24T12:34:49.999Z</time></trkpt><trkpt lat="44.58413606576068" lon="10.235260703068125"><ele>571.0</ele><time>2026-04-24T12:34:50.999Z</time></trkpt><trkpt lat="44.58405405287301" lon="10.235118942852058"><ele>571.0</ele><time>2026-04-24T12:34:51.999Z</time></trkpt><trkpt lat="44.58402497092784" lon="10.234947568980221"><ele>571.0</ele><time>2026-04-24T12:34:52.999Z</time></trkpt><trkpt lat="44.584043366461984" lon="10.234765097916371"><ele>571.0</ele><time>2026-04-24T12:34:53.999Z</time></trkpt><trkpt lat="44.584068314787146" lon="10.234582650489221"><ele>571.0</ele><time>2026-04-24T12:34:54.999Z</time></trkpt><trkpt lat="44.5840745763844" lon="10.234390228006752"><ele>574.0</ele><time>2026-04-24T12:34:55.999Z</time></trkpt><trkpt lat="44.5840448271562" lon="10.234191555956524"><ele>577.0</ele><time>2026-04-24T12:34:56.999Z</time></trkpt><trkpt lat="44.583973310213544" lon="10.234015352988077"><ele>580.0</ele><time>2026-04-24T12:34:57.999Z</time></trkpt><trkpt lat="44.583849152603825" lon="10.233882318179438"><ele>583.0</ele><time>2026-04-24T12:34:58.999Z</time></trkpt><trkpt lat="44.58373204915891" lon="10.233737643266457"><ele>580.0</ele><time>2026-04-24T12:35:00.001Z</time></trkpt><trkpt lat="44.58365923962921" lon="10.233543374676255"><ele>577.0</ele><time>2026-04-24T12:35:01.001Z</time></trkpt><trkpt lat="44.58360468035432" lon="10.233333450215317"><ele>574.0</ele><time>2026-04-24T12:35:02.001Z</time></trkpt><trkpt lat="44.583510921415034" lon="10.233159626040077"><ele>578.6666666666667</ele><time>2026-04-24T12:35:03.001Z</time></trkpt><trkpt lat="44.58340333209362" lon="10.233000181888142"><ele>583.3333333333334</ele><time>2026-04-24T12:35:04.001Z</time></trkpt><trkpt lat="44.5833279283179" lon="10.232823862779904"><ele>588.0</ele><time>2026-04-24T12:35:05.001Z</time></trkpt><trkpt lat="44.5832948893788" lon="10.232604202466355"><ele>588.0</ele><time>2026-04-24T12:35:06.001Z</time></trkpt><trkpt lat="44.58326419968038" lon="10.232378725988236"><ele>588.0</ele><time>2026-04-24T12:35:07.001Z</time></trkpt><trkpt lat="44.583222456003945" lon="10.232151728265404"><ele>588.0</ele><time>2026-04-24T12:35:08.001Z</time></trkpt><trkpt lat="44.58318465004336" lon="10.231927703159839"><ele>593.0</ele><time>2026-04-24T12:35:09.001Z</time></trkpt><trkpt lat="44.5831578421003" lon="10.231695487614045"><ele>598.0</ele><time>2026-04-24T12:35:10.001Z</time></trkpt><trkpt lat="44.58314105802579" lon="10.231468703422633"><ele>603.0</ele><time>2026-04-24T12:35:11.001Z</time></trkpt><trkpt lat="44.5831222224017" lon="10.231265401372736"><ele>605.75</ele><time>2026-04-24T12:35:12.001Z</time></trkpt><trkpt lat="44.5830689764176" lon="10.231096124613018"><ele>608.5</ele><time>2026-04-24T12:35:13.001Z</time></trkpt><trkpt lat="44.58297809255099" lon="10.23095121621206"><ele>611.25</ele><time>2026-04-24T12:35:14.001Z</time></trkpt><trkpt lat="44.582846186610105" lon="10.23086318773011"><ele>614.0</ele><time>2026-04-24T12:35:15.001Z</time></trkpt><trkpt lat="44.5827044942562" lon="10.230779822098418"><ele>612.75</ele><time>2026-04-24T12:35:16.001Z</time></trkpt><trkpt lat="44.58257866322922" lon="10.230675612967291"><ele>611.5</ele><time>2026-04-24T12:35:17.001Z</time></trkpt><trkpt lat="44.58246004680501" lon="10.230547568045354"><ele>610.25</ele><time>2026-04-24T12:35:18Z</time></trkpt><trkpt lat="44.58235367300869" lon="10.230405755048825"><ele>609.0</ele><time>2026-04-24T12:35:19Z</time></trkpt><trkpt lat="44.58226114247768" lon="10.23025026399751"><ele>609.0</ele><time>2026-04-24T12:35:20Z</time></trkpt><trkpt lat="44.58219289814255" lon="10.230079490691919"><ele>609.0</ele><time>2026-04-24T12:35:21Z</time></trkpt><trkpt lat="44.58216227570984" lon="10.22988775352524"><ele>609.0</ele><time>2026-04-24T12:35:22Z</time></trkpt><trkpt lat="44.582143011465185" lon="10.229689043659834"><ele>609.0</ele><time>2026-04-24T12:35:23Z</time></trkpt><trkpt lat="44.58208173536907" lon="10.229490627863976"><ele>610.0</ele><time>2026-04-24T12:35:24Z</time></trkpt><trkpt lat="44.581988717077266" lon="10.229293998468963"><ele>611.0</ele><time>2026-04-24T12:35:25Z</time></trkpt><trkpt lat="44.581888156206695" lon="10.229120940600705"><ele>612.0</ele><time>2026-04-24T12:35:26Z</time></trkpt><trkpt lat="44.581820943617764" lon="10.22895746326947"><ele>612.0</ele><time>2026-04-24T12:35:27Z</time></trkpt><trkpt lat="44.58179089670598" lon="10.228771610179983"><ele>612.0</ele><time>2026-04-24T12:35:28Z</time></trkpt><trkpt lat="44.58180674061145" lon="10.228554815689474"><ele>612.0</ele><time>2026-04-24T12:35:29Z</time></trkpt><trkpt lat="44.58182588644201" lon="10.228335335472686"><ele>612.0</ele><time>2026-04-24T12:35:30Z</time></trkpt><trkpt lat="44.581806233479654" lon="10.228127256598885"><ele>617.75</ele><time>2026-04-24T12:35:31Z</time></trkpt><trkpt lat="44.581738309220654" lon="10.227940890059614"><ele>623.5</ele><time>2026-04-24T12:35:32Z</time></trkpt><trkpt lat="44.58162979329066" lon="10.22779878776424"><ele>629.25</ele><time>2026-04-24T12:35:33Z</time></trkpt><trkpt lat="44.58149981936666" lon="10.227697283966803"><ele>635.0</ele><time>2026-04-24T12:35:34Z</time></trkpt><trkpt lat="44.581370313763436" lon="10.227606960228238"><ele>635.0</ele><time>2026-04-24T12:35:35Z</time></trkpt><trkpt lat="44.581231946161395" lon="10.227537440151966"><ele>635.0</ele><time>2026-04-24T12:35:36Z</time></trkpt><trkpt lat="44.58108720274512" lon="10.227515615622462"><ele>635.0</ele><time>2026-04-24T12:35:37Z</time></trkpt><trkpt lat="44.5809407144147" lon="10.227533530883834"><ele>635.0</ele><time>2026-04-24T12:35:38Z</time></trkpt><trkpt lat="44.58079848526238" lon="10.22757999521197"><ele>630.75</ele><time>2026-04-24T12:35:39Z</time></trkpt><trkpt lat="44.58066893501013" lon="10.227633866817829"><ele>626.5</ele><time>2026-04-24T12:35:40Z</time></trkpt><trkpt lat="44.58054337721231" lon="10.227656454373212"><ele>622.25</ele><time>2026-04-24T12:35:41Z</time></trkpt><trkpt lat="44.58041585926254" lon="10.227635115032074"><ele>618.0</ele><time>2026-04-24T12:35:42Z</time></trkpt><trkpt lat="44.580297974473716" lon="10.227556092839132"><ele>616.75</ele><time>2026-04-24T12:35:43Z</time></trkpt><trkpt lat="44.58021772651545" lon="10.227420550862037"><ele>615.5</ele><time>2026-04-24T12:35:44Z</time></trkpt><trkpt lat="44.58019401476168" lon="10.227246070445185"><ele>614.25</ele><time>2026-04-24T12:35:45Z</time></trkpt><trkpt lat="44.58022560253247" lon="10.227062372855581"><ele>613.0</ele><time>2026-04-24T12:35:46Z</time></trkpt><trkpt lat="44.58025377486932" lon="10.22686863352628"><ele>613.0</ele><time>2026-04-24T12:35:47Z</time></trkpt><trkpt lat="44.580241392475884" lon="10.226660136558023"><ele>613.0</ele><time>2026-04-24T12:35:48Z</time></trkpt><trkpt lat="44.58019800312219" lon="10.226442471866804"><ele>613.0</ele><time>2026-04-24T12:35:49Z</time></trkpt><trkpt lat="44.58016711704985" lon="10.226242936142617"><ele>616.3333333333334</ele><time>2026-04-24T12:35:50Z</time></trkpt><trkpt lat="44.58012341952259" lon="10.226065183035507"><ele>619.6666666666666</ele><time>2026-04-24T12:35:51Z</time></trkpt><trkpt lat="44.58008079361624" lon="10.225846829106551"><ele>623.0</ele><time>2026-04-24T12:35:52Z</time></trkpt><trkpt lat="44.58001847051064" lon="10.225640713100994"><ele>626.3333333333333</ele><time>2026-04-24T12:35:53Z</time></trkpt><trkpt lat="44.579940895242935" lon="10.225450664308346"><ele>629.6666666666666</ele><time>2026-04-24T12:35:54Z</time></trkpt><trkpt lat="44.579828904169" lon="10.225293730557349"><ele>633.0</ele><time>2026-04-24T12:35:55Z</time></trkpt><trkpt lat="44.579709163377046" lon="10.225160287766265"><ele>633.0</ele><time>2026-04-24T12:35:56Z</time></trkpt><trkpt lat="44.57961800009215" lon="10.225030961725327"><ele>633.0</ele><time>2026-04-24T12:35:57Z</time></trkpt><trkpt lat="44.57956093641314" lon="10.22487576176521"><ele>633.0</ele><time>2026-04-24T12:35:58Z</time></trkpt><trkpt lat="44.579539099591905" lon="10.224679238416176"><ele>633.0</ele><time>2026-04-24T12:35:59Z</time></trkpt><trkpt lat="44.579543940264976" lon="10.224458016270571"><ele>636.0</ele><time>2026-04-24T12:36:00Z</time></trkpt><trkpt lat="44.57955377626661" lon="10.224223341506102"><ele>639.0</ele><time>2026-04-24T12:36:01Z</time></trkpt><trkpt lat="44.57956974679754" lon="10.223984207282088"><ele>642.0</ele><time>2026-04-24T12:36:02Z</time></trkpt><trkpt lat="44.57955243704672" lon="10.223759633102786"><ele>641.6666666666666</ele><time>2026-04-24T12:36:03Z</time></trkpt><trkpt lat="44.57951015558213" lon="10.223533236646697"><ele>641.3333333333333</ele><time>2026-04-24T12:36:04Z</time></trkpt><trkpt lat="44.57943342857674" lon="10.223322207013378"><ele>641.0</ele><time>2026-04-24T12:36:05Z</time></trkpt><trkpt lat="44.57935579074908" lon="10.223114960098801"><ele>641.0</ele><time>2026-04-24T12:36:06Z</time></trkpt><trkpt lat="44.57929393963962" lon="10.222894761788945"><ele>641.0</ele><time>2026-04-24T12:36:07Z</time></trkpt><trkpt lat="44.57922913543437" lon="10.222683471004817"><ele>641.0</ele><time>2026-04-24T12:36:08Z</time></trkpt><trkpt lat="44.57914579076128" lon="10.222488592201357"><ele>645.6666666666666</ele><time>2026-04-24T12:36:09Z</time></trkpt><trkpt lat="44.5790386175814" lon="10.222312914046942"><ele>650.3333333333334</ele><time>2026-04-24T12:36:10Z</time></trkpt><trkpt lat="44.57893742989965" lon="10.222128982363209"><ele>655.0</ele><time>2026-04-24T12:36:11Z</time></trkpt><trkpt lat="44.57886555480852" lon="10.221928402694168"><ele>655.0</ele><time>2026-04-24T12:36:12Z</time></trkpt><trkpt lat="44.578777026304664" lon="10.221741070831548"><ele>655.0</ele><time>2026-04-24T12:36:13Z</time></trkpt><trkpt lat="44.578712852292824" lon="10.221554190499672"><ele>655.0</ele><time>2026-04-24T12:36:14Z</time></trkpt><trkpt lat="44.578677410647614" lon="10.22135860411652"><ele>658.6666666666667</ele><time>2026-04-24T12:36:15Z</time></trkpt><trkpt lat="44.5786947974871" lon="10.221156112224905"><ele>662.3333333333334</ele><time>2026-04-24T12:36:16Z</time></trkpt><trkpt lat="44.57869023222552" lon="10.220942133951636"><ele>666.0</ele><time>2026-04-24T12:36:17Z</time></trkpt><trkpt lat="44.57865256193212" lon="10.220685039038763"><ele>663.75</ele><time>2026-04-24T12:36:18Z</time></trkpt><trkpt lat="44.578556101751325" lon="10.220567373647418"><ele>661.5</ele><time>2026-04-24T12:36:19Z</time></trkpt><trkpt lat="44.57844209137024" lon="10.220437563976356"><ele>659.25</ele><time>2026-04-24T12:36:20Z</time></trkpt><trkpt lat="44.578328869586635" lon="10.220292805946046"><ele>657.0</ele><time>2026-04-24T12:36:20.999Z</time></trkpt><trkpt lat="44.57821840824979" lon="10.220170881441348"><ele>657.0</ele><time>2026-04-24T12:36:21.999Z</time></trkpt><trkpt lat="44.57810491831436" lon="10.220043123764679"><ele>657.0</ele><time>2026-04-24T12:36:22.999Z</time></trkpt><trkpt lat="44.57799354225062" lon="10.219917745635472"><ele>657.0</ele><time>2026-04-24T12:36:23.999Z</time></trkpt><trkpt lat="44.57788025297034" lon="10.21983154840704"><ele>657.0</ele><time>2026-04-24T12:36:24.999Z</time></trkpt><trkpt lat="44.57776373651564" lon="10.219774919180137"><ele>657.0</ele><time>2026-04-24T12:36:25.999Z</time></trkpt><trkpt lat="44.577632367071715" lon="10.219782926069803"><ele>657.0</ele><time>2026-04-24T12:36:26.999Z</time></trkpt><trkpt lat="44.57753438040621" lon="10.219833878790496"><ele>657.0</ele><time>2026-04-24T12:36:27.999Z</time></trkpt><trkpt lat="44.57742287454552" lon="10.219831969415383"><ele>657.0</ele><time>2026-04-24T12:36:28.999Z</time></trkpt><trkpt lat="44.57733123907022" lon="10.219772840886428"><ele>657.0</ele><time>2026-04-24T12:36:29.999Z</time></trkpt><trkpt lat="44.57728762195198" lon="10.219629143515766"><ele>657.0</ele><time>2026-04-24T12:36:30.999Z</time></trkpt><trkpt lat="44.57731714641528" lon="10.219451919501045"><ele>657.0</ele><time>2026-04-24T12:36:31.999Z</time></trkpt><trkpt lat="44.577360801541055" lon="10.219296371447227"><ele>657.0</ele><time>2026-04-24T12:36:32.999Z</time></trkpt><trkpt lat="44.57739404357616" lon="10.219097335155313"><ele>657.0</ele><time>2026-04-24T12:36:33.999Z</time></trkpt><trkpt lat="44.577431897514955" lon="10.218899123069967"><ele>659.0</ele><time>2026-04-24T12:36:34.999Z</time></trkpt><trkpt lat="44.57743970355619" lon="10.218686684267796"><ele>661.0</ele><time>2026-04-24T12:36:35.999Z</time></trkpt><trkpt lat="44.57745505377573" lon="10.218471199272635"><ele>663.0</ele><time>2026-04-24T12:36:36.999Z</time></trkpt><trkpt lat="44.5774950033221" lon="10.218262650754195"><ele>665.0</ele><time>2026-04-24T12:36:37.999Z</time></trkpt><trkpt lat="44.577549429122435" lon="10.218049816298612"><ele>667.0</ele><time>2026-04-24T12:36:38.999Z</time></trkpt><trkpt lat="44.577592098525116" lon="10.217853028784267"><ele>669.0</ele><time>2026-04-24T12:36:39.999Z</time></trkpt><trkpt lat="44.57762389678071" lon="10.217683514159559"><ele>671.0</ele><time>2026-04-24T12:36:40.999Z</time></trkpt><trkpt lat="44.57762922087145" lon="10.217535143930714"><ele>671.0</ele><time>2026-04-24T12:36:41.999Z</time></trkpt><trkpt lat="44.577612883504074" lon="10.217394347916004"><ele>671.0</ele><time>2026-04-24T12:36:42.999Z</time></trkpt><trkpt lat="44.577509832520605" lon="10.217291945099161"><ele>671.0</ele><time>2026-04-24T12:36:43.999Z</time></trkpt><trkpt lat="44.57739147322728" lon="10.21726233784806"><ele>671.0</ele><time>2026-04-24T12:36:44.999Z</time></trkpt><trkpt lat="44.57726763921038" lon="10.21732756593775"><ele>671.0</ele><time>2026-04-24T12:36:45.999Z</time></trkpt><trkpt lat="44.577161857187214" lon="10.217440870902498"><ele>671.0</ele><time>2026-04-24T12:36:46.999Z</time></trkpt><trkpt lat="44.577054811546475" lon="10.217508440506766"><ele>671.0</ele><time>2026-04-24T12:36:47.999Z</time></trkpt><trkpt lat="44.57695528600695" lon="10.217502381155445"><ele>671.0</ele><time>2026-04-24T12:36:48.999Z</time></trkpt><trkpt lat="44.57681617051" lon="10.217462161649884"><ele>671.0</ele><time>2026-04-24T12:36:49.999Z</time></trkpt><trkpt lat="44.576682510612905" lon="10.217409970058828"><ele>671.0</ele><time>2026-04-24T12:36:50.999Z</time></trkpt><trkpt lat="44.57658304154492" lon="10.21731679838358"><ele>671.0</ele><time>2026-04-24T12:36:51.999Z</time></trkpt><trkpt lat="44.57652441974072" lon="10.217185935239181"><ele>671.0</ele><time>2026-04-24T12:36:52.999Z</time></trkpt><trkpt lat="44.576487572593635" lon="10.217024730298421"><ele>672.5</ele><time>2026-04-24T12:36:53.999Z</time></trkpt><trkpt lat="44.57646854694382" lon="10.21685259983522"><ele>674.0</ele><time>2026-04-24T12:36:54.999Z</time></trkpt><trkpt lat="44.57647331879007" lon="10.216670339705326"><ele>675.5</ele><time>2026-04-24T12:36:55.999Z</time></trkpt><trkpt lat="44.57650072662243" lon="10.216491502350706"><ele>677.0</ele><time>2026-04-24T12:36:56.999Z</time></trkpt><trkpt lat="44.57653035872985" lon="10.216311831227449"><ele>678.5</ele><time>2026-04-24T12:36:57.999Z</time></trkpt><trkpt lat="44.57655283893504" lon="10.216123785463566"><ele>680.0</ele><time>2026-04-24T12:36:58.999Z</time></trkpt><trkpt lat="44.5765788906665" lon="10.215934957720231"><ele>681.5</ele><time>2026-04-24T12:36:59.999Z</time></trkpt><trkpt lat="44.576575387039874" lon="10.215744745537036"><ele>683.0</ele><time>2026-04-24T12:37:00.999Z</time></trkpt><trkpt lat="44.57651101585343" lon="10.215575031816979"><ele>682.6666666666666</ele><time>2026-04-24T12:37:01.999Z</time></trkpt><trkpt lat="44.57638703260644" lon="10.215466044833814"><ele>682.3333333333334</ele><time>2026-04-24T12:37:02.999Z</time></trkpt><trkpt lat="44.57626004074291" lon="10.21535233574644"><ele>682.0</ele><time>2026-04-24T12:37:03.999Z</time></trkpt><trkpt lat="44.57613420773667" lon="10.215230408141084"><ele>682.0</ele><time>2026-04-24T12:37:04.999Z</time></trkpt><trkpt lat="44.57600627030613" lon="10.215097126164729"><ele>682.0</ele><time>2026-04-24T12:37:06Z</time></trkpt><trkpt lat="44.575883937424734" lon="10.214946483482397"><ele>682.0</ele><time>2026-04-24T12:37:07Z</time></trkpt><trkpt lat="44.575773240660816" lon="10.214802805314921"><ele>684.75</ele><time>2026-04-24T12:37:08Z</time></trkpt><trkpt lat="44.57569851825592" lon="10.214666954319757"><ele>687.5</ele><time>2026-04-24T12:37:09Z</time></trkpt><trkpt lat="44.57567223281489" lon="10.21452050147748"><ele>690.25</ele><time>2026-04-24T12:37:10Z</time></trkpt><trkpt lat="44.575698223135475" lon="10.214367128865488"><ele>693.0</ele><time>2026-04-24T12:37:11Z</time></trkpt><trkpt lat="44.57571592758573" lon="10.21418015959881"><ele>693.0</ele><time>2026-04-24T12:37:12Z</time></trkpt><trkpt lat="44.57573254704472" lon="10.214007240471783"><ele>693.0</ele><time>2026-04-24T12:37:13Z</time></trkpt><trkpt lat="44.57568944539021" lon="10.213873892459194"><ele>693.0</ele><time>2026-04-24T12:37:14Z</time></trkpt><trkpt lat="44.57558858844086" lon="10.213742477813755"><ele>693.0</ele><time>2026-04-24T12:37:15Z</time></trkpt><trkpt lat="44.57546056147193" lon="10.213646398681698"><ele>694.3333333333334</ele><time>2026-04-24T12:37:16Z</time></trkpt><trkpt lat="44.575339373831355" lon="10.21352018508599"><ele>695.6666666666667</ele><time>2026-04-24T12:37:17Z</time></trkpt><trkpt lat="44.57520048729431" lon="10.213392438316081"><ele>697.0</ele><time>2026-04-24T12:37:18Z</time></trkpt><trkpt lat="44.5750507459948" lon="10.213239486689064"><ele>700.0</ele><time>2026-04-24T12:37:19Z</time></trkpt><trkpt lat="44.574819577581216" lon="10.21285890439529"><ele>703.0</ele><time>2026-04-24T12:37:21Z</time></trkpt><trkpt lat="44.574705306714925" lon="10.212630654119394"><ele>703.0</ele><time>2026-04-24T12:37:22Z</time></trkpt><trkpt lat="44.5745895065163" lon="10.212410592356438"><ele>703.0</ele><time>2026-04-24T12:37:23Z</time></trkpt><trkpt lat="44.57420336677111" lon="10.21198358309264"><ele>703.2</ele><time>2026-04-24T12:37:26Z</time></trkpt><trkpt lat="44.57412065585334" lon="10.211853855936596"><ele>703.4</ele><time>2026-04-24T12:37:27Z</time></trkpt><trkpt lat="44.574063718741264" lon="10.211743942495408"><ele>703.6</ele><time>2026-04-24T12:37:28Z</time></trkpt><trkpt lat="44.57407493250852" lon="10.211592484709278"><ele>703.8000000000001</ele><time>2026-04-24T12:37:29Z</time></trkpt><trkpt lat="44.5741126084071" lon="10.211472780247624"><ele>704.0</ele><time>2026-04-24T12:37:30Z</time></trkpt><trkpt lat="44.574185859266166" lon="10.211362114528127"><ele>703.5</ele><time>2026-04-24T12:37:31Z</time></trkpt><trkpt lat="44.57430019040895" lon="10.211290608751382"><ele>703.0</ele><time>2026-04-24T12:37:32Z</time></trkpt><trkpt lat="44.57468524441214" lon="10.21130924418535"><ele>703.0</ele><time>2026-04-24T12:37:35Z</time></trkpt><trkpt lat="44.574825936200035" lon="10.211230555645116"><ele>703.0</ele><time>2026-04-24T12:37:36Z</time></trkpt><trkpt lat="44.57496231965875" lon="10.211114016828665"><ele>703.0</ele><time>2026-04-24T12:37:37Z</time></trkpt><trkpt lat="44.57509785812842" lon="10.210985704635965"><ele>703.0</ele><time>2026-04-24T12:37:38Z</time></trkpt><trkpt lat="44.575242441534165" lon="10.210886106741075"><ele>703.0</ele><time>2026-04-24T12:37:39Z</time></trkpt><trkpt lat="44.57538287634913" lon="10.210859772278775"><ele>703.0</ele><time>2026-04-24T12:37:40Z</time></trkpt><trkpt lat="44.575503947100096" lon="10.210806159900011"><ele>703.0</ele><time>2026-04-24T12:37:41Z</time></trkpt><trkpt lat="44.57561545043522" lon="10.210749337919346"><ele>705.0</ele><time>2026-04-24T12:37:42Z</time></trkpt><trkpt lat="44.575697091865564" lon="10.210608511798426"><ele>707.0</ele><time>2026-04-24T12:37:43Z</time></trkpt><trkpt lat="44.57573388214266" lon="10.210420914507957"><ele>709.0</ele><time>2026-04-24T12:37:44Z</time></trkpt><trkpt lat="44.57572710346883" lon="10.210219723945045"><ele>711.0</ele><time>2026-04-24T12:37:45Z</time></trkpt><trkpt lat="44.57575810488772" lon="10.210023730612791"><ele>710.6666666666666</ele><time>2026-04-24T12:37:46Z</time></trkpt><trkpt lat="44.575796661473355" lon="10.209815460892267"><ele>710.3333333333333</ele><time>2026-04-24T12:37:47Z</time></trkpt><trkpt lat="44.575835319008974" lon="10.209595800790765"><ele>710.0</ele><time>2026-04-24T12:37:48Z</time></trkpt><trkpt lat="44.575894873660275" lon="10.209377007268591"><ele>710.0</ele><time>2026-04-24T12:37:49Z</time></trkpt><trkpt lat="44.5759379654148" lon="10.20917449488679"><ele>710.0</ele><time>2026-04-24T12:37:50Z</time></trkpt><trkpt lat="44.57595510237746" lon="10.20895814476439"><ele>710.0</ele><time>2026-04-24T12:37:50.999Z</time></trkpt><trkpt lat="44.57593112596846" lon="10.208772708725727"><ele>710.0</ele><time>2026-04-24T12:37:51.999Z</time></trkpt><trkpt lat="44.57585324237327" lon="10.208605907495507"><ele>711.5</ele><time>2026-04-24T12:37:52.999Z</time></trkpt><trkpt lat="44.57574535847704" lon="10.208486259442104"><ele>713.0</ele><time>2026-04-24T12:37:53.999Z</time></trkpt><trkpt lat="44.57561709794326" lon="10.208437081107533"><ele>714.5</ele><time>2026-04-24T12:37:54.999Z</time></trkpt><trkpt lat="44.575492156814654" lon="10.208380733044805"><ele>716.0</ele><time>2026-04-24T12:37:55.999Z</time></trkpt><trkpt lat="44.57536819943046" lon="10.20830941355896"><ele>712.4</ele><time>2026-04-24T12:37:56.999Z</time></trkpt><trkpt lat="44.575289951974284" lon="10.208200732547612"><ele>708.8</ele><time>2026-04-24T12:37:57.999Z</time></trkpt><trkpt lat="44.57524188589324" lon="10.208072723059443"><ele>705.1999999999999</ele><time>2026-04-24T12:37:58.999Z</time></trkpt><trkpt lat="44.57523438849244" lon="10.207932906613918"><ele>701.5999999999999</ele><time>2026-04-24T12:37:59.999Z</time></trkpt><trkpt lat="44.5752597649718" lon="10.207780403092743"><ele>698.0</ele><time>2026-04-24T12:38:00.999Z</time></trkpt><trkpt lat="44.57531855239331" lon="10.2076185838916"><ele>703.75</ele><time>2026-04-24T12:38:01.999Z</time></trkpt><trkpt lat="44.575385553516945" lon="10.207425608134049"><ele>709.5</ele><time>2026-04-24T12:38:02.999Z</time></trkpt><trkpt lat="44.5754669808995" lon="10.207236586760796"><ele>715.25</ele><time>2026-04-24T12:38:03.999Z</time></trkpt><trkpt lat="44.57552331823208" lon="10.207060878042926"><ele>721.0</ele><time>2026-04-24T12:38:04.999Z</time></trkpt><trkpt lat="44.57554939604028" lon="10.206892079656265"><ele>722.0</ele><time>2026-04-24T12:38:05.999Z</time></trkpt><trkpt lat="44.57561454557089" lon="10.206706732210868"><ele>723.0</ele><time>2026-04-24T12:38:06.999Z</time></trkpt><trkpt lat="44.57560807855005" lon="10.206528231507757"><ele>724.0</ele><time>2026-04-24T12:38:07.999Z</time></trkpt><trkpt lat="44.57550864003941" lon="10.206404256917786"><ele>725.0</ele><time>2026-04-24T12:38:08.999Z</time></trkpt><trkpt lat="44.575506915037785" lon="10.206282030028033"><ele>725.0</ele><time>2026-04-24T12:38:10.999Z</time></trkpt><trkpt lat="44.57553860652025" lon="10.206183789673064"><ele>725.0</ele><time>2026-04-24T12:38:12.999Z</time></trkpt><trkpt lat="44.57541852630719" lon="10.205947999249954"><ele>725.0</ele><time>2026-04-24T12:38:13.999Z</time></trkpt><trkpt lat="44.57547005989058" lon="10.206520300959513"><ele>725.0</ele><time>2026-04-24T12:38:14.999Z</time></trkpt><trkpt lat="44.57548642592778" lon="10.206697638700112"><ele>725.0</ele><time>2026-04-24T12:38:15.999Z</time></trkpt><trkpt lat="44.57549703090279" lon="10.2068125315999"><ele>725.0</ele><time>2026-04-24T12:38:16.999Z</time></trkpt><trkpt lat="44.57554280019513" lon="10.20690842671051"><ele>725.0</ele><time>2026-04-24T12:38:18.999Z</time></trkpt><trkpt lat="44.57561915631418" lon="10.206830982729485"><ele>725.0</ele><time>2026-04-24T12:38:20.999Z</time></trkpt><trkpt lat="44.57561408906975" lon="10.206733018385291"><ele>725.0</ele><time>2026-04-24T12:38:21.999Z</time></trkpt><trkpt lat="44.57560875574892" lon="10.206573988844793"><ele>725.0</ele><time>2026-04-24T12:38:22.999Z</time></trkpt><trkpt lat="44.575583439980406" lon="10.20639801942154"><ele>725.0</ele><time>2026-04-24T12:38:23.999Z</time></trkpt><trkpt lat="44.57558579899344" lon="10.206204384077092"><ele>725.0</ele><time>2026-04-24T12:38:24.999Z</time></trkpt><trkpt lat="44.575582725382986" lon="10.206017798209267"><ele>726.4</ele><time>2026-04-24T12:38:25.999Z</time></trkpt><trkpt lat="44.57556498772204" lon="10.205862945370647"><ele>727.8</ele><time>2026-04-24T12:38:26.999Z</time></trkpt><trkpt lat="44.575512813806554" lon="10.20574289696182"><ele>729.2</ele><time>2026-04-24T12:38:27.999Z</time></trkpt><trkpt lat="44.57542560936836" lon="10.205646755285354"><ele>730.6</ele><time>2026-04-24T12:38:28.999Z</time></trkpt><trkpt lat="44.57531047913087" lon="10.205607170522574"><ele>732.0</ele><time>2026-04-24T12:38:29.999Z</time></trkpt><trkpt lat="44.57519056175969" lon="10.20562727146617"><ele>732.0</ele><time>2026-04-24T12:38:30.999Z</time></trkpt><trkpt lat="44.575067267112175" lon="10.205617246089597"><ele>732.0</ele><time>2026-04-24T12:38:31.999Z</time></trkpt><trkpt lat="44.574939613086116" lon="10.205624817698629"><ele>732.0</ele><time>2026-04-24T12:38:32.999Z</time></trkpt><trkpt lat="44.574833817316936" lon="10.20561791966911"><ele>732.0</ele><time>2026-04-24T12:38:33.999Z</time></trkpt><trkpt lat="44.57474483298409" lon="10.205566433375807"><ele>732.0</ele><time>2026-04-24T12:38:34.999Z</time></trkpt><trkpt lat="44.57466775292917" lon="10.20546981392688"><ele>732.0</ele><time>2026-04-24T12:38:35.999Z</time></trkpt><trkpt lat="44.574610905176975" lon="10.205327040477151"><ele>732.0</ele><time>2026-04-24T12:38:36.999Z</time></trkpt><trkpt lat="44.574545929179806" lon="10.205162246214417"><ele>732.0</ele><time>2026-04-24T12:38:37.999Z</time></trkpt><trkpt lat="44.57446598906234" lon="10.205001660867357"><ele>728.25</ele><time>2026-04-24T12:38:38.999Z</time></trkpt><trkpt lat="44.57443335594628" lon="10.204822581285494"><ele>724.5</ele><time>2026-04-24T12:38:39.999Z</time></trkpt><trkpt lat="44.57441776909937" lon="10.204660905852759"><ele>720.75</ele><time>2026-04-24T12:38:40.999Z</time></trkpt><trkpt lat="44.57443577778196" lon="10.204507436375085"><ele>717.0</ele><time>2026-04-24T12:38:41.999Z</time></trkpt><trkpt lat="44.574486459429664" lon="10.20436367021341"><ele>719.75</ele><time>2026-04-24T12:38:42.999Z</time></trkpt><trkpt lat="44.57455063884633" lon="10.204200260442557"><ele>722.5</ele><time>2026-04-24T12:38:43.999Z</time></trkpt><trkpt lat="44.574653271284845" lon="10.20405064800004"><ele>725.25</ele><time>2026-04-24T12:38:44.999Z</time></trkpt><trkpt lat="44.57475558251817" lon="10.203879939440837"><ele>728.0</ele><time>2026-04-24T12:38:45.999Z</time></trkpt><trkpt lat="44.574853006061225" lon="10.203706396777482"><ele>728.0</ele><time>2026-04-24T12:38:46.999Z</time></trkpt><trkpt lat="44.57495253539941" lon="10.20353185922719"><ele>728.0</ele><time>2026-04-24T12:38:47.999Z</time></trkpt><trkpt lat="44.57505058083315" lon="10.203352906574587"><ele>728.0</ele><time>2026-04-24T12:38:48.999Z</time></trkpt><trkpt lat="44.575141133850614" lon="10.20316926234938"><ele>727.3333333333333</ele><time>2026-04-24T12:38:49.999Z</time></trkpt><trkpt lat="44.57522378434714" lon="10.202975122864828"><ele>726.6666666666666</ele><time>2026-04-24T12:38:50.999Z</time></trkpt><trkpt lat="44.57530634004226" lon="10.20277873386321"><ele>726.0</ele><time>2026-04-24T12:38:51.999Z</time></trkpt><trkpt lat="44.57538994085971" lon="10.202578016573977"><ele>730.0</ele><time>2026-04-24T12:38:52.999Z</time></trkpt><trkpt lat="44.57547315996042" lon="10.202381593043565"><ele>734.0</ele><time>2026-04-24T12:38:53.999Z</time></trkpt><trkpt lat="44.5755557273801" lon="10.202181151480717"><ele>738.0</ele><time>2026-04-24T12:38:54.999Z</time></trkpt><trkpt lat="44.57563530462806" lon="10.201982201634477"><ele>738.0</ele><time>2026-04-24T12:38:55.999Z</time></trkpt><trkpt lat="44.575716342509224" lon="10.20178005611833"><ele>738.0</ele><time>2026-04-24T12:38:56.999Z</time></trkpt><trkpt lat="44.575796442153845" lon="10.201580411089202"><ele>738.0</ele><time>2026-04-24T12:38:57.999Z</time></trkpt><trkpt lat="44.57587948548518" lon="10.201376068810092"><ele>738.3333333333334</ele><time>2026-04-24T12:38:58.999Z</time></trkpt><trkpt lat="44.57595044939415" lon="10.2011847395047"><ele>738.6666666666667</ele><time>2026-04-24T12:38:59.999Z</time></trkpt><trkpt lat="44.57599633998627" lon="10.20097832302578"><ele>739.0</ele><time>2026-04-24T12:39:00.999Z</time></trkpt><trkpt lat="44.576006283693" lon="10.200751669268225"><ele>740.3333333333334</ele><time>2026-04-24T12:39:01.999Z</time></trkpt><trkpt lat="44.576006067403775" lon="10.200516652173842"><ele>741.6666666666666</ele><time>2026-04-24T12:39:02.999Z</time></trkpt><trkpt lat="44.57601416123284" lon="10.200283477292839"><ele>743.0</ele><time>2026-04-24T12:39:03.999Z</time></trkpt><trkpt lat="44.576043160392054" lon="10.200047602676907"><ele>745.6666666666666</ele><time>2026-04-24T12:39:04.999Z</time></trkpt><trkpt lat="44.5760348047565" lon="10.199806543731839"><ele>748.3333333333334</ele><time>2026-04-24T12:39:05.999Z</time></trkpt><trkpt lat="44.5760253938496" lon="10.1995735971625"><ele>751.0</ele><time>2026-04-24T12:39:06.999Z</time></trkpt><trkpt lat="44.576004251735945" lon="10.19934623726347"><ele>751.0</ele><time>2026-04-24T12:39:07.998Z</time></trkpt><trkpt lat="44.57597722931244" lon="10.199143920153853"><ele>751.0</ele><time>2026-04-24T12:39:08.998Z</time></trkpt><trkpt lat="44.575925852092396" lon="10.198953727351393"><ele>751.0</ele><time>2026-04-24T12:39:09.998Z</time></trkpt><trkpt lat="44.57583131104012" lon="10.198783099217522"><ele>751.0</ele><time>2026-04-24T12:39:10.998Z</time></trkpt><trkpt lat="44.57570694558661" lon="10.198649219631962"><ele>753.5</ele><time>2026-04-24T12:39:12Z</time></trkpt><trkpt lat="44.57558740787566" lon="10.198526075996972"><ele>756.0</ele><time>2026-04-24T12:39:13Z</time></trkpt><trkpt lat="44.57549993968832" lon="10.198407801893069"><ele>758.5</ele><time>2026-04-24T12:39:14Z</time></trkpt><trkpt lat="44.57543077351342" lon="10.198298997062677"><ele>761.0</ele><time>2026-04-24T12:39:15Z</time></trkpt><trkpt lat="44.57537757624886" lon="10.198163448579002"><ele>763.6666666666666</ele><time>2026-04-24T12:39:16Z</time></trkpt><trkpt lat="44.57535186005956" lon="10.197989471909262"><ele>766.3333333333333</ele><time>2026-04-24T12:39:17Z</time></trkpt><trkpt lat="44.575356402532336" lon="10.197788052818902"><ele>769.0</ele><time>2026-04-24T12:39:18Z</time></trkpt><trkpt lat="44.575360950875165" lon="10.197535715818184"><ele>771.3333333333333</ele><time>2026-04-24T12:39:19Z</time></trkpt><trkpt lat="44.57535383103062" lon="10.19728553174702"><ele>773.6666666666667</ele><time>2026-04-24T12:39:20Z</time></trkpt><trkpt lat="44.575359195782355" lon="10.197028267912271"><ele>776.0</ele><time>2026-04-24T12:39:21Z</time></trkpt><trkpt lat="44.575360944049045" lon="10.196795977026078"><ele>773.0</ele><time>2026-04-24T12:39:22Z</time></trkpt><trkpt lat="44.57535283881394" lon="10.196593635994162"><ele>770.0</ele><time>2026-04-24T12:39:23Z</time></trkpt><trkpt lat="44.575306499125695" lon="10.1964143568295"><ele>767.0</ele><time>2026-04-24T12:39:24Z</time></trkpt><trkpt lat="44.57521727881608" lon="10.196251102151251"><ele>764.0</ele><time>2026-04-24T12:39:25Z</time></trkpt><trkpt lat="44.57514497405898" lon="10.196083025234593"><ele>764.0</ele><time>2026-04-24T12:39:26Z</time></trkpt><trkpt lat="44.57509507497265" lon="10.195969700900411"><ele>764.0</ele><time>2026-04-24T12:39:27Z</time></trkpt><trkpt lat="44.5751028056897" lon="10.195838037706066"><ele>764.0</ele><time>2026-04-24T12:39:34Z</time></trkpt><trkpt lat="44.575148341691715" lon="10.195705413909565"><ele>764.0</ele><time>2026-04-24T12:39:35Z</time></trkpt><trkpt lat="44.57522497322765" lon="10.195615302510928"><ele>764.0</ele><time>2026-04-24T12:39:36Z</time></trkpt><trkpt lat="44.575302986071584" lon="10.195500575635744"><ele>771.25</ele><time>2026-04-24T12:39:37Z</time></trkpt><trkpt lat="44.57539125554281" lon="10.195355403745838"><ele>778.5</ele><time>2026-04-24T12:39:38Z</time></trkpt><trkpt lat="44.575478941784155" lon="10.195222444395789"><ele>785.75</ele><time>2026-04-24T12:39:39Z</time></trkpt><trkpt lat="44.57556762346252" lon="10.195095268845721"><ele>793.0</ele><time>2026-04-24T12:39:40Z</time></trkpt><trkpt lat="44.575651633077605" lon="10.194961150270112"><ele>792.75</ele><time>2026-04-24T12:39:41Z</time></trkpt><trkpt lat="44.575726261198064" lon="10.194811577835374"><ele>792.5</ele><time>2026-04-24T12:39:42Z</time></trkpt><trkpt lat="44.57578763498465" lon="10.194645663350938"><ele>792.25</ele><time>2026-04-24T12:39:43Z</time></trkpt><trkpt lat="44.57584206137009" lon="10.194465432219937"><ele>792.0</ele><time>2026-04-24T12:39:44Z</time></trkpt><trkpt lat="44.57589390581298" lon="10.194254027497152"><ele>792.0</ele><time>2026-04-24T12:39:45Z</time></trkpt><trkpt lat="44.57594096629437" lon="10.194037792037598"><ele>792.0</ele><time>2026-04-24T12:39:46Z</time></trkpt><trkpt lat="44.575972920377964" lon="10.19383985634992"><ele>792.0</ele><time>2026-04-24T12:39:47Z</time></trkpt><trkpt lat="44.57598115633118" lon="10.193656836432648"><ele>792.0</ele><time>2026-04-24T12:39:48Z</time></trkpt><trkpt lat="44.57597375625803" lon="10.193491489163057"><ele>791.25</ele><time>2026-04-24T12:39:49Z</time></trkpt><trkpt lat="44.57600333128218" lon="10.193340616439103"><ele>790.5</ele><time>2026-04-24T12:39:50Z</time></trkpt><trkpt lat="44.576053645217655" lon="10.19318802201708"><ele>789.75</ele><time>2026-04-24T12:39:51Z</time></trkpt><trkpt lat="44.57613029893159" lon="10.193029602231162"><ele>789.0</ele><time>2026-04-24T12:39:52Z</time></trkpt><trkpt lat="44.5761941292117" lon="10.192855915057526"><ele>793.5</ele><time>2026-04-24T12:39:53Z</time></trkpt><trkpt lat="44.576260967930274" lon="10.192703000329574"><ele>798.0</ele><time>2026-04-24T12:39:54Z</time></trkpt><trkpt lat="44.57630219395987" lon="10.192538628209514"><ele>802.5</ele><time>2026-04-24T12:39:55Z</time></trkpt><trkpt lat="44.57632484859048" lon="10.192369893609913"><ele>807.0</ele><time>2026-04-24T12:39:56Z</time></trkpt><trkpt lat="44.57636671531731" lon="10.192215178055296"><ele>807.0</ele><time>2026-04-24T12:39:57Z</time></trkpt><trkpt lat="44.5764116015321" lon="10.192074224117707"><ele>807.0</ele><time>2026-04-24T12:39:58Z</time></trkpt><trkpt lat="44.57645177620412" lon="10.19194048721391"><ele>807.0</ele><time>2026-04-24T12:39:59Z</time></trkpt><trkpt lat="44.576516556560605" lon="10.191823158229955"><ele>807.0</ele><time>2026-04-24T12:40:00Z</time></trkpt><trkpt lat="44.576581986620376" lon="10.191683460407294"><ele>807.0</ele><time>2026-04-24T12:40:01Z</time></trkpt><trkpt lat="44.576675569064356" lon="10.191567323291228"><ele>803.75</ele><time>2026-04-24T12:40:02Z</time></trkpt><trkpt lat="44.57675663037013" lon="10.191436444863358"><ele>800.5</ele><time>2026-04-24T12:40:03Z</time></trkpt><trkpt lat="44.576867032960195" lon="10.191325537331227"><ele>797.25</ele><time>2026-04-24T12:40:04Z</time></trkpt><trkpt lat="44.57696982275161" lon="10.19122539929728"><ele>794.0</ele><time>2026-04-24T12:40:05Z</time></trkpt><trkpt lat="44.577069359859244" lon="10.191129370128529"><ele>799.0</ele><time>2026-04-24T12:40:06Z</time></trkpt><trkpt lat="44.57716848040309" lon="10.191029583944495"><ele>804.0</ele><time>2026-04-24T12:40:07Z</time></trkpt><trkpt lat="44.57726906931048" lon="10.190917575146864"><ele>809.0</ele><time>2026-04-24T12:40:08Z</time></trkpt><trkpt lat="44.57735197354511" lon="10.190769654530147"><ele>814.0</ele><time>2026-04-24T12:40:09Z</time></trkpt><trkpt lat="44.57742640327234" lon="10.190605993251872"><ele>814.0</ele><time>2026-04-24T12:40:10Z</time></trkpt><trkpt lat="44.57749248335498" lon="10.19043278860211"><ele>814.0</ele><time>2026-04-24T12:40:11Z</time></trkpt><trkpt lat="44.577555191060505" lon="10.190260636472546"><ele>814.0</ele><time>2026-04-24T12:40:11.999Z</time></trkpt><trkpt lat="44.57761561804546" lon="10.190102569776101"><ele>814.0</ele><time>2026-04-24T12:40:12.999Z</time></trkpt><trkpt lat="44.577696016821236" lon="10.189993623336951"><ele>814.0</ele><time>2026-04-24T12:40:13.999Z</time></trkpt><trkpt lat="44.577775407040825" lon="10.18987455032481"><ele>814.0</ele><time>2026-04-24T12:40:14.999Z</time></trkpt><trkpt lat="44.577855650814406" lon="10.18974040974424"><ele>814.0</ele><time>2026-04-24T12:40:15.999Z</time></trkpt><trkpt lat="44.577955239041366" lon="10.189628013336584"><ele>814.0</ele><time>2026-04-24T12:40:16.999Z</time></trkpt><trkpt lat="44.57804980683563" lon="10.189506647252689"><ele>817.25</ele><time>2026-04-24T12:40:17.999Z</time></trkpt><trkpt lat="44.57814104238598" lon="10.189382452854286"><ele>820.5</ele><time>2026-04-24T12:40:18.999Z</time></trkpt><trkpt lat="44.578217259409314" lon="10.189242622076994"><ele>823.75</ele><time>2026-04-24T12:40:19.999Z</time></trkpt><trkpt lat="44.578290959617824" lon="10.18911367959277"><ele>827.0</ele><time>2026-04-24T12:40:20.999Z</time></trkpt><trkpt lat="44.578345601083626" lon="10.18895674485113"><ele>827.5</ele><time>2026-04-24T12:40:21.999Z</time></trkpt><trkpt lat="44.57838457081735" lon="10.188789194064983"><ele>828.0</ele><time>2026-04-24T12:40:22.999Z</time></trkpt><trkpt lat="44.57843138510812" lon="10.188621666287277"><ele>828.5</ele><time>2026-04-24T12:40:23.999Z</time></trkpt><trkpt lat="44.57850059450538" lon="10.188474619009764"><ele>829.0</ele><time>2026-04-24T12:40:24.999Z</time></trkpt><trkpt lat="44.578538628652446" lon="10.1883111225714"><ele>830.4000000000001</ele><time>2026-04-24T12:40:25.999Z</time></trkpt><trkpt lat="44.57855663828546" lon="10.188150891486297"><ele>831.8</ele><time>2026-04-24T12:40:26.999Z</time></trkpt><trkpt lat="44.578544714872116" lon="10.187990263141526"><ele>833.2</ele><time>2026-04-24T12:40:27.999Z</time></trkpt><trkpt lat="44.578544950974155" lon="10.187847224762193"><ele>834.5999999999999</ele><time>2026-04-24T12:40:28.999Z</time></trkpt><trkpt lat="44.57858463808543" lon="10.187731066983929"><ele>836.0</ele><time>2026-04-24T12:40:29.999Z</time></trkpt><trkpt lat="44.57863840796892" lon="10.187649167153717"><ele>836.0</ele><time>2026-04-24T12:40:30.999Z</time></trkpt><trkpt lat="44.57868734961363" lon="10.18757773260473"><ele>836.0</ele><time>2026-04-24T12:40:31.999Z</time></trkpt><trkpt lat="44.5787269809178" lon="10.187482238853368"><ele>836.0</ele><time>2026-04-24T12:40:32.999Z</time></trkpt><trkpt lat="44.57876312234033" lon="10.187397517957004"><ele>836.0</ele><time>2026-04-24T12:40:33.999Z</time></trkpt><trkpt lat="44.57877014668668" lon="10.187304780271644"><ele>836.0</ele><time>2026-04-24T12:40:34.999Z</time></trkpt><trkpt lat="44.578786457103334" lon="10.187205511909138"><ele>836.0</ele><time>2026-04-24T12:40:35.999Z</time></trkpt><trkpt lat="44.5788174157817" lon="10.187109981722944"><ele>836.0</ele><time>2026-04-24T12:40:36.998Z</time></trkpt><trkpt lat="44.57883481149508" lon="10.187007253282928"><ele>837.0000000000001</ele><time>2026-04-24T12:40:37.998Z</time></trkpt><trkpt lat="44.57885261994168" lon="10.186902086041146"><ele>838.0</ele><time>2026-04-24T12:40:38.998Z</time></trkpt><trkpt lat="44.578870046922624" lon="10.186803435134033"><ele>839.0</ele><time>2026-04-24T12:40:39.998Z</time></trkpt><trkpt lat="44.57888834655745" lon="10.186712603458218"><ele>840.0</ele><time>2026-04-24T12:40:40.998Z</time></trkpt><trkpt lat="44.57891536609487" lon="10.186563631944974"><ele>841.0000000000001</ele><time>2026-04-24T12:40:42.998Z</time></trkpt><trkpt lat="44.57892991876308" lon="10.186462473091721"><ele>842.0</ele><time>2026-04-24T12:40:44.998Z</time></trkpt><trkpt lat="44.57883841640925" lon="10.186382464330059"><ele>844.2</ele><time>2026-04-24T12:40:46.998Z</time></trkpt><trkpt lat="44.578723460615244" lon="10.18630365491795"><ele>846.4000000000001</ele><time>2026-04-24T12:40:48.998Z</time></trkpt><trkpt lat="44.57864733238899" lon="10.186249010125998"><ele>848.5999999999999</ele><time>2026-04-24T12:40:49.998Z</time></trkpt><trkpt lat="44.57854697358076" lon="10.186176972842924"><ele>850.8</ele><time>2026-04-24T12:40:50.998Z</time></trkpt><trkpt lat="44.57845933481487" lon="10.186114935437315"><ele>853.0</ele><time>2026-04-24T12:40:51.998Z</time></trkpt><trkpt lat="44.57837937506632" lon="10.18606668848039"><ele>853.0</ele><time>2026-04-24T12:40:52.998Z</time></trkpt><trkpt lat="44.57829468332566" lon="10.186031972499828"><ele>853.0</ele><time>2026-04-24T12:40:53.998Z</time></trkpt><trkpt lat="44.57822040419184" lon="10.186007296211907"><ele>853.0</ele><time>2026-04-24T12:40:54.998Z</time></trkpt><trkpt lat="44.578111486621886" lon="10.185974326478062"><ele>853.0</ele><time>2026-04-24T12:40:56.998Z</time></trkpt><trkpt lat="44.57805887455509" lon="10.186028703535028"><ele>853.0</ele><time>2026-04-24T12:41:06.998Z</time></trkpt><trkpt lat="44.578319153751394" lon="10.18607918228984"><ele>853.0</ele><time>2026-04-24T12:41:08.998Z</time></trkpt><trkpt lat="44.57842865961838" lon="10.186146699840577"><ele>853.0</ele><time>2026-04-24T12:41:10.998Z</time></trkpt><trkpt lat="44.57848930180275" lon="10.186185167807926"><ele>853.0</ele><time>2026-04-24T12:41:11.998Z</time></trkpt><trkpt lat="44.57857962550898" lon="10.186250024452344"><ele>853.0</ele><time>2026-04-24T12:41:13.998Z</time></trkpt><trkpt lat="44.578684920811405" lon="10.18631712699234"><ele>853.0</ele><time>2026-04-24T12:41:15.998Z</time></trkpt><trkpt lat="44.57879672245914" lon="10.186389979203394"><ele>852.9999999999999</ele><time>2026-04-24T12:41:18Z</time></trkpt><trkpt lat="44.578883450051904" lon="10.186481701183748"><ele>853.0</ele><time>2026-04-24T12:41:20Z</time></trkpt><trkpt lat="44.5788802522004" lon="10.186615219471033"><ele>853.0</ele><time>2026-04-24T12:41:22Z</time></trkpt><trkpt lat="44.578855410428176" lon="10.186699414043371"><ele>853.0</ele><time>2026-04-24T12:41:23Z</time></trkpt><trkpt lat="44.578834154521275" lon="10.18681177549568"><ele>852.9999999999999</ele><time>2026-04-24T12:41:24Z</time></trkpt><trkpt lat="44.57881814886714" lon="10.186926139822459"><ele>853.0</ele><time>2026-04-24T12:41:25Z</time></trkpt><trkpt lat="44.57880234275417" lon="10.18704357950181"><ele>851.1666666666666</ele><time>2026-04-24T12:41:26Z</time></trkpt><trkpt lat="44.578781198768226" lon="10.187162972557388"><ele>849.3333333333333</ele><time>2026-04-24T12:41:27Z</time></trkpt><trkpt lat="44.57875594930958" lon="10.18728133006177"><ele>847.5</ele><time>2026-04-24T12:41:28Z</time></trkpt><trkpt lat="44.578740602190656" lon="10.187387477490288"><ele>845.6666666666667</ele><time>2026-04-24T12:41:29Z</time></trkpt><trkpt lat="44.57870835204811" lon="10.187464787035953"><ele>843.8333333333334</ele><time>2026-04-24T12:41:30Z</time></trkpt><trkpt lat="44.578669022760195" lon="10.187552661820412"><ele>842.0</ele><time>2026-04-24T12:41:31Z</time></trkpt><trkpt lat="44.57861937221634" lon="10.187631855579635"><ele>841.0000000000001</ele><time>2026-04-24T12:41:32Z</time></trkpt><trkpt lat="44.57857168528004" lon="10.18772868899769"><ele>840.0</ele><time>2026-04-24T12:41:33Z</time></trkpt><trkpt lat="44.57853462234875" lon="10.187831947877637"><ele>839.0</ele><time>2026-04-24T12:41:34Z</time></trkpt><trkpt lat="44.57852357491154" lon="10.187940724208968"><ele>838.0</ele><time>2026-04-24T12:41:35Z</time></trkpt><trkpt lat="44.57852429778827" lon="10.188053385426315"><ele>837.0000000000001</ele><time>2026-04-24T12:41:36Z</time></trkpt><trkpt lat="44.57853618093849" lon="10.188192116380375"><ele>836.0</ele><time>2026-04-24T12:41:37Z</time></trkpt><trkpt lat="44.578523439753575" lon="10.188353316332533"><ele>834.25</ele><time>2026-04-24T12:41:38Z</time></trkpt><trkpt lat="44.57844765571875" lon="10.188527136713219"><ele>832.5</ele><time>2026-04-24T12:41:39Z</time></trkpt><trkpt lat="44.57838235318449" lon="10.18870552950155"><ele>830.75</ele><time>2026-04-24T12:41:40Z</time></trkpt><trkpt lat="44.5783370067906" lon="10.18887745761976"><ele>829.0</ele><time>2026-04-24T12:41:41Z</time></trkpt><trkpt lat="44.57828595890276" lon="10.189039031726848"><ele>828.6</ele><time>2026-04-24T12:41:41.999Z</time></trkpt><trkpt lat="44.57822653923245" lon="10.189189666767986"><ele>828.2</ele><time>2026-04-24T12:41:42.999Z</time></trkpt><trkpt lat="44.578159219200515" lon="10.189322948133125"><ele>827.8000000000001</ele><time>2026-04-24T12:41:43.999Z</time></trkpt><trkpt lat="44.57808521160988" lon="10.189412724562608"><ele>827.4000000000001</ele><time>2026-04-24T12:41:44.999Z</time></trkpt><trkpt lat="44.57802418996091" lon="10.189478214671063"><ele>827.0</ele><time>2026-04-24T12:41:45.999Z</time></trkpt><trkpt lat="44.5779471433435" lon="10.189560074809027"><ele>827.0000000000001</ele><time>2026-04-24T12:41:47.999Z</time></trkpt><trkpt lat="44.57791573323243" lon="10.189433285399591"><ele>827.0</ele><time>2026-04-24T12:41:49.999Z</time></trkpt><trkpt lat="44.5778789452236" lon="10.189318446673102"><ele>827.0</ele><time>2026-04-24T12:41:50.999Z</time></trkpt><trkpt lat="44.577834399215" lon="10.189220557358112"><ele>827.0</ele><time>2026-04-24T12:41:51.999Z</time></trkpt><trkpt lat="44.57781423422917" lon="10.189133596307965"><ele>827.0000000000001</ele><time>2026-04-24T12:41:52.999Z</time></trkpt><trkpt lat="44.5777924475891" lon="10.189027424274293"><ele>827.0</ele><time>2026-04-24T12:41:54.999Z</time></trkpt><trkpt lat="44.57766481410075" lon="10.189085046737613"><ele>824.0000000000001</ele><time>2026-04-24T12:41:56.999Z</time></trkpt><trkpt lat="44.57759253874338" lon="10.189130627211368"><ele>821.0</ele><time>2026-04-24T12:41:57.999Z</time></trkpt><trkpt lat="44.577512995563694" lon="10.189177903434462"><ele>818.0</ele><time>2026-04-24T12:41:58.999Z</time></trkpt><trkpt lat="44.57743466675545" lon="10.189221607256025"><ele>815.0</ele><time>2026-04-24T12:41:59.999Z</time></trkpt><trkpt lat="44.57735520439316" lon="10.189263753179315"><ele>812.0000000000001</ele><time>2026-04-24T12:42:00.999Z</time></trkpt><trkpt lat="44.57727399672343" lon="10.189304063825535"><ele>809.0</ele><time>2026-04-24T12:42:01.999Z</time></trkpt><trkpt lat="44.57719347412771" lon="10.18933863470237"><ele>809.0000000000001</ele><time>2026-04-24T12:42:02.999Z</time></trkpt><trkpt lat="44.57711180445256" lon="10.189369852473659"><ele>809.0</ele><time>2026-04-24T12:42:03.999Z</time></trkpt><trkpt lat="44.577024976327095" lon="10.189402226637373"><ele>809.0</ele><time>2026-04-24T12:42:04.999Z</time></trkpt><trkpt lat="44.57694411963771" lon="10.189432374399201"><ele>809.0</ele><time>2026-04-24T12:42:05.999Z</time></trkpt><trkpt lat="44.576868575087964" lon="10.189466400669147"><ele>809.0000000000001</ele><time>2026-04-24T12:42:06.999Z</time></trkpt><trkpt lat="44.57680417615159" lon="10.189496147163963"><ele>809.0</ele><time>2026-04-24T12:42:07.999Z</time></trkpt><trkpt lat="44.576716534340896" lon="10.189498911357314"><ele>803.8000000000001</ele><time>2026-04-24T12:42:09.999Z</time></trkpt><trkpt lat="44.57672195754655" lon="10.189346367388339"><ele>798.6</ele><time>2026-04-24T12:42:12.999Z</time></trkpt><trkpt lat="44.57665148061127" lon="10.189290387421343"><ele>793.4</ele><time>2026-04-24T12:42:14.999Z</time></trkpt><trkpt lat="44.576562628922915" lon="10.189423949080009"><ele>788.2</ele><time>2026-04-24T12:42:16.999Z</time></trkpt><trkpt lat="44.57650141029186" lon="10.189492838574262"><ele>783.0</ele><time>2026-04-24T12:42:17.999Z</time></trkpt><trkpt lat="44.576437351334754" lon="10.189573042946419"><ele>783.0</ele><time>2026-04-24T12:42:18.999Z</time></trkpt><trkpt lat="44.576388760559794" lon="10.189664812528575"><ele>783.0</ele><time>2026-04-24T12:42:19.999Z</time></trkpt><trkpt lat="44.57634166878291" lon="10.18975178418399"><ele>783.0</ele><time>2026-04-24T12:42:20.999Z</time></trkpt><trkpt lat="44.5763073577022" lon="10.189847251111548"><ele>783.0</ele><time>2026-04-24T12:42:21.999Z</time></trkpt><trkpt lat="44.57629210053515" lon="10.18993749132469"><ele>783.0</ele><time>2026-04-24T12:42:22.999Z</time></trkpt><trkpt lat="44.57627084016645" lon="10.1900581086494"><ele>783.0</ele><time>2026-04-24T12:42:24.999Z</time></trkpt><trkpt lat="44.57618092372324" lon="10.190071166038937"><ele>779.0</ele><time>2026-04-24T12:42:26.999Z</time></trkpt><trkpt lat="44.57615098923074" lon="10.189974395759004"><ele>775.0</ele><time>2026-04-24T12:42:27.999Z</time></trkpt><trkpt lat="44.57604900168319" lon="10.189914164049405"><ele>771.0</ele><time>2026-04-24T12:42:29.999Z</time></trkpt><trkpt lat="44.575983489667" lon="10.189993640961076"><ele>767.0</ele><time>2026-04-24T12:42:30.999Z</time></trkpt><trkpt lat="44.5759415551719" lon="10.190074337861166"><ele>763.0</ele><time>2026-04-24T12:42:31.999Z</time></trkpt><trkpt lat="44.5759043847753" lon="10.1901635931542"><ele>759.0</ele><time>2026-04-24T12:42:32.999Z</time></trkpt><trkpt lat="44.57584962257932" lon="10.190238714097916"><ele>759.0</ele><time>2026-04-24T12:42:33.999Z</time></trkpt><trkpt lat="44.575796412631135" lon="10.19031584765166"><ele>759.0</ele><time>2026-04-24T12:42:34.999Z</time></trkpt><trkpt lat="44.57572999606701" lon="10.190364645980157"><ele>759.0</ele><time>2026-04-24T12:42:35.999Z</time></trkpt><trkpt lat="44.57565480234099" lon="10.19040025654769"><ele>759.0</ele><time>2026-04-24T12:42:36.999Z</time></trkpt><trkpt lat="44.57558017051883" lon="10.19042466851594"><ele>759.0</ele><time>2026-04-24T12:42:37.999Z</time></trkpt><trkpt lat="44.57550240595408" lon="10.190450350223156"><ele>759.0</ele><time>2026-04-24T12:42:38.999Z</time></trkpt><trkpt lat="44.575427508455476" lon="10.190483024673439"><ele>759.0</ele><time>2026-04-24T12:42:39.999Z</time></trkpt><trkpt lat="44.575361825757916" lon="10.190531066735126"><ele>759.0</ele><time>2026-04-24T12:42:40.999Z</time></trkpt><trkpt lat="44.57531600124831" lon="10.190632693555235"><ele>759.0</ele><time>2026-04-24T12:42:41.999Z</time></trkpt><trkpt lat="44.575251688402396" lon="10.190713111546783"><ele>759.0</ele><time>2026-04-24T12:42:42.999Z</time></trkpt><trkpt lat="44.575202432009576" lon="10.190807443663822"><ele>759.0</ele><time>2026-04-24T12:42:43.999Z</time></trkpt><trkpt lat="44.57515620763467" lon="10.19089596450685"><ele>759.0</ele><time>2026-04-24T12:42:44.999Z</time></trkpt><trkpt lat="44.575116398687854" lon="10.19099054586587"><ele>756.3333333333334</ele><time>2026-04-24T12:42:45.999Z</time></trkpt><trkpt lat="44.57508558015884" lon="10.191094627993394"><ele>753.6666666666666</ele><time>2026-04-24T12:42:46.999Z</time></trkpt><trkpt lat="44.57504524416925" lon="10.191188710178071"><ele>751.0</ele><time>2026-04-24T12:42:47.999Z</time></trkpt><trkpt lat="44.575017279522754" lon="10.191289849945408"><ele>748.3333333333333</ele><time>2026-04-24T12:42:48.999Z</time></trkpt><trkpt lat="44.57500285584582" lon="10.191408462275033"><ele>745.6666666666666</ele><time>2026-04-24T12:42:49.999Z</time></trkpt><trkpt lat="44.57497783049716" lon="10.191529141719426"><ele>743.0</ele><time>2026-04-24T12:42:50.999Z</time></trkpt><trkpt lat="44.57493243522721" lon="10.191628326832413"><ele>743.0</ele><time>2026-04-24T12:42:51.999Z</time></trkpt><trkpt lat="44.57486985780222" lon="10.191731326971322"><ele>743.0</ele><time>2026-04-24T12:42:52.999Z</time></trkpt><trkpt lat="44.57479684871575" lon="10.191855457031364"><ele>743.0</ele><time>2026-04-24T12:42:53.999Z</time></trkpt><trkpt lat="44.57473219523228" lon="10.191984281416588"><ele>743.0</ele><time>2026-04-24T12:42:54.999Z</time></trkpt><trkpt lat="44.57467978487247" lon="10.192108797645473"><ele>743.0</ele><time>2026-04-24T12:42:55.999Z</time></trkpt><trkpt lat="44.574634695613874" lon="10.192240923651976"><ele>743.0</ele><time>2026-04-24T12:42:56.999Z</time></trkpt><trkpt lat="44.5745925210791" lon="10.192339398065538"><ele>743.0</ele><time>2026-04-24T12:42:57.999Z</time></trkpt><trkpt lat="44.574547943072325" lon="10.192447204857954"><ele>743.0</ele><time>2026-04-24T12:42:59.999Z</time></trkpt><trkpt lat="44.57448574248816" lon="10.192374258930204"><ele>743.0</ele><time>2026-04-24T12:43:01.998Z</time></trkpt><trkpt lat="44.57446174130664" lon="10.192274796860639"><ele>743.0</ele><time>2026-04-24T12:43:02.998Z</time></trkpt><trkpt lat="44.57440985694186" lon="10.192170912970646"><ele>743.0</ele><time>2026-04-24T12:43:03.998Z</time></trkpt><trkpt lat="44.57436363026135" lon="10.192035303705026"><ele>736.75</ele><time>2026-04-24T12:43:04.998Z</time></trkpt><trkpt lat="44.574308860919615" lon="10.191875409369283"><ele>730.5</ele><time>2026-04-24T12:43:05.998Z</time></trkpt><trkpt lat="44.574253196823356" lon="10.191712272661025"><ele>724.25</ele><time>2026-04-24T12:43:06.998Z</time></trkpt><trkpt lat="44.57423116239886" lon="10.191549112650414"><ele>718.0</ele><time>2026-04-24T12:43:07.998Z</time></trkpt><trkpt lat="44.57421750025788" lon="10.191404091920203"><ele>717.5999999999999</ele><time>2026-04-24T12:43:08.998Z</time></trkpt><trkpt lat="44.57419206500953" lon="10.191262703284197"><ele>717.1999999999999</ele><time>2026-04-24T12:43:09.998Z</time></trkpt><trkpt lat="44.5741909964825" lon="10.191110930675206"><ele>716.8</ele><time>2026-04-24T12:43:10.998Z</time></trkpt><trkpt lat="44.574201391894135" lon="10.190963571302586"><ele>716.4</ele><time>2026-04-24T12:43:11.998Z</time></trkpt><trkpt lat="44.574215542771036" lon="10.19081826473125"><ele>716.0</ele><time>2026-04-24T12:43:12.998Z</time></trkpt><trkpt lat="44.574218124245114" lon="10.19068945547718"><ele>715.1999999999999</ele><time>2026-04-24T12:43:13.998Z</time></trkpt><trkpt lat="44.57422090275734" lon="10.190582954157833"><ele>714.4</ele><time>2026-04-24T12:43:14.998Z</time></trkpt><trkpt lat="44.574164059879536" lon="10.190439000140087"><ele>713.6</ele><time>2026-04-24T12:43:16.998Z</time></trkpt><trkpt lat="44.574181665180944" lon="10.190341333726854"><ele>712.8</ele><time>2026-04-24T12:43:17.998Z</time></trkpt><trkpt lat="44.57423544122151" lon="10.1902170628609"><ele>712.0</ele><time>2026-04-24T12:43:18.998Z</time></trkpt><trkpt lat="44.57432548450485" lon="10.190057857250805"><ele>712.0</ele><time>2026-04-24T12:43:19.998Z</time></trkpt><trkpt lat="44.57440678235258" lon="10.189907905775721"><ele>712.0</ele><time>2026-04-24T12:43:20.998Z</time></trkpt><trkpt lat="44.57447601489985" lon="10.189745335621687"><ele>712.0</ele><time>2026-04-24T12:43:21.998Z</time></trkpt><trkpt lat="44.574520044775305" lon="10.189551198889095"><ele>712.0</ele><time>2026-04-24T12:43:22.998Z</time></trkpt><trkpt lat="44.574536636524094" lon="10.189337666025736"><ele>719.6666666666667</ele><time>2026-04-24T12:43:24Z</time></trkpt><trkpt lat="44.57453695980991" lon="10.189128760610279"><ele>727.3333333333334</ele><time>2026-04-24T12:43:25Z</time></trkpt><trkpt lat="44.574557514798386" lon="10.188921990402793"><ele>735.0</ele><time>2026-04-24T12:43:26Z</time></trkpt><trkpt lat="44.57455757799151" lon="10.188707592318561"><ele>735.0</ele><time>2026-04-24T12:43:27Z</time></trkpt><trkpt lat="44.57460304834922" lon="10.188503488863962"><ele>735.0</ele><time>2026-04-24T12:43:28Z</time></trkpt><trkpt lat="44.57463233465643" lon="10.188286331123292"><ele>735.0</ele><time>2026-04-24T12:43:29Z</time></trkpt><trkpt lat="44.574698537836056" lon="10.188071120658417"><ele>736.6666666666666</ele><time>2026-04-24T12:43:30Z</time></trkpt><trkpt lat="44.57476478111265" lon="10.187837291825483"><ele>738.3333333333333</ele><time>2026-04-24T12:43:31Z</time></trkpt><trkpt lat="44.574809846752615" lon="10.18760056166375"><ele>740.0</ele><time>2026-04-24T12:43:32Z</time></trkpt><trkpt lat="44.574812255104575" lon="10.187357988332957"><ele>742.6666666666666</ele><time>2026-04-24T12:43:33Z</time></trkpt><trkpt lat="44.57478140177152" lon="10.187103367320152"><ele>745.3333333333334</ele><time>2026-04-24T12:43:34Z</time></trkpt><trkpt lat="44.574738994504465" lon="10.186863914937392"><ele>748.0</ele><time>2026-04-24T12:43:35Z</time></trkpt><trkpt lat="44.574726017101334" lon="10.186639580975452"><ele>748.5</ele><time>2026-04-24T12:43:36Z</time></trkpt><trkpt lat="44.57472730586357" lon="10.186447592796279"><ele>749.0</ele><time>2026-04-24T12:43:37Z</time></trkpt><trkpt lat="44.57478314325031" lon="10.186284107818295"><ele>749.5</ele><time>2026-04-24T12:43:38Z</time></trkpt><trkpt lat="44.57487059047625" lon="10.186111521068224"><ele>750.0</ele><time>2026-04-24T12:43:39Z</time></trkpt><trkpt lat="44.57492328706659" lon="10.185922824349309"><ele>750.0</ele><time>2026-04-24T12:43:40Z</time></trkpt><trkpt lat="44.57494847102459" lon="10.185719870233404"><ele>750.0</ele><time>2026-04-24T12:43:41Z</time></trkpt><trkpt lat="44.57491757904456" lon="10.185507683522673"><ele>750.0</ele><time>2026-04-24T12:43:42Z</time></trkpt><trkpt lat="44.57485762253882" lon="10.1852883160464"><ele>752.0</ele><time>2026-04-24T12:43:43Z</time></trkpt><trkpt lat="44.57481528065153" lon="10.18506430116364"><ele>754.0</ele><time>2026-04-24T12:43:44Z</time></trkpt><trkpt lat="44.57476749410206" lon="10.184828377787968"><ele>756.0</ele><time>2026-04-24T12:43:45Z</time></trkpt><trkpt lat="44.57471827425213" lon="10.184585118908013"><ele>759.0</ele><time>2026-04-24T12:43:46Z</time></trkpt><trkpt lat="44.574667856601586" lon="10.184333223575614"><ele>762.0</ele><time>2026-04-24T12:43:47Z</time></trkpt><trkpt lat="44.57461518915388" lon="10.184075295274242"><ele>765.0</ele><time>2026-04-24T12:43:48Z</time></trkpt><trkpt lat="44.574560387281664" lon="10.183806118522135"><ele>761.0</ele><time>2026-04-24T12:43:49Z</time></trkpt><trkpt lat="44.574490598535995" lon="10.18353987068585"><ele>757.0</ele><time>2026-04-24T12:43:50Z</time></trkpt><trkpt lat="44.57443756920773" lon="10.183269575009685"><ele>753.0</ele><time>2026-04-24T12:43:51Z</time></trkpt><trkpt lat="44.57438780689639" lon="10.18302410897587"><ele>753.0</ele><time>2026-04-24T12:43:52Z</time></trkpt><trkpt lat="44.57435238280581" lon="10.182803839239087"><ele>753.0</ele><time>2026-04-24T12:43:53Z</time></trkpt><trkpt lat="44.57436537422967" lon="10.182588217507824"><ele>753.0</ele><time>2026-04-24T12:43:54Z</time></trkpt><trkpt lat="44.574383486332096" lon="10.182371731394428"><ele>752.25</ele><time>2026-04-24T12:43:55Z</time></trkpt><trkpt lat="44.57440374454487" lon="10.182168517254278"><ele>751.5</ele><time>2026-04-24T12:43:56Z</time></trkpt><trkpt lat="44.57444580137211" lon="10.181994817616442"><ele>750.75</ele><time>2026-04-24T12:43:57Z</time></trkpt><trkpt lat="44.57451983101401" lon="10.181842965247165"><ele>750.0</ele><time>2026-04-24T12:43:58Z</time></trkpt><trkpt lat="44.57462491463088" lon="10.181696511322592"><ele>759.3333333333333</ele><time>2026-04-24T12:43:59Z</time></trkpt><trkpt lat="44.574727841864565" lon="10.181540352048255"><ele>768.6666666666666</ele><time>2026-04-24T12:44:00Z</time></trkpt><trkpt lat="44.574796048579884" lon="10.181321941848164"><ele>778.0</ele><time>2026-04-24T12:44:01Z</time></trkpt><trkpt lat="44.5748696522786" lon="10.181107831926964"><ele>778.0</ele><time>2026-04-24T12:44:02Z</time></trkpt><trkpt lat="44.57498027344558" lon="10.180907859208805"><ele>778.0</ele><time>2026-04-24T12:44:03Z</time></trkpt><trkpt lat="44.57509611139284" lon="10.18071551094457"><ele>778.0</ele><time>2026-04-24T12:44:04Z</time></trkpt><trkpt lat="44.575191168441606" lon="10.180537750010275"><ele>776.6666666666666</ele><time>2026-04-24T12:44:05Z</time></trkpt><trkpt lat="44.57524999176358" lon="10.18035611153223"><ele>775.3333333333333</ele><time>2026-04-24T12:44:06Z</time></trkpt><trkpt lat="44.57525932636885" lon="10.180143905203709"><ele>774.0</ele><time>2026-04-24T12:44:07Z</time></trkpt><trkpt lat="44.57523884822696" lon="10.179920510082844"><ele>775.0</ele><time>2026-04-24T12:44:08Z</time></trkpt><trkpt lat="44.575244138658604" lon="10.179695293888681"><ele>776.0</ele><time>2026-04-24T12:44:09Z</time></trkpt><trkpt lat="44.57522530310239" lon="10.179470115455311"><ele>777.0</ele><time>2026-04-24T12:44:10Z</time></trkpt><trkpt lat="44.575227842211326" lon="10.17923872571808"><ele>779.6666666666667</ele><time>2026-04-24T12:44:11Z</time></trkpt><trkpt lat="44.575227812270725" lon="10.179001172845766"><ele>782.3333333333334</ele><time>2026-04-24T12:44:11.999Z</time></trkpt><trkpt lat="44.575224437812956" lon="10.178762456149787"><ele>785.0</ele><time>2026-04-24T12:44:12.999Z</time></trkpt><trkpt lat="44.57522201419954" lon="10.178533305874584"><ele>785.0</ele><time>2026-04-24T12:44:13.999Z</time></trkpt><trkpt lat="44.575220764807085" lon="10.17831026792834"><ele>785.0</ele><time>2026-04-24T12:44:14.999Z</time></trkpt><trkpt lat="44.575232352679244" lon="10.178090889941165"><ele>785.0</ele><time>2026-04-24T12:44:15.999Z</time></trkpt><trkpt lat="44.57526394163701" lon="10.177880474483791"><ele>786.3333333333334</ele><time>2026-04-24T12:44:16.999Z</time></trkpt><trkpt lat="44.57532874667917" lon="10.177677252716515"><ele>787.6666666666667</ele><time>2026-04-24T12:44:17.999Z</time></trkpt><trkpt lat="44.575405159926184" lon="10.177480386066373"><ele>789.0</ele><time>2026-04-24T12:44:18.999Z</time></trkpt><trkpt lat="44.57547979863556" lon="10.177277677910048"><ele>799.3333333333333</ele><time>2026-04-24T12:44:19.999Z</time></trkpt><trkpt lat="44.57554351157189" lon="10.177067163572822"><ele>809.6666666666666</ele><time>2026-04-24T12:44:20.999Z</time></trkpt><trkpt lat="44.57560454471835" lon="10.176851154729812"><ele>820.0</ele><time>2026-04-24T12:44:21.999Z</time></trkpt><trkpt lat="44.57563281145026" lon="10.176623981760645"><ele>823.6666666666666</ele><time>2026-04-24T12:44:22.999Z</time></trkpt><trkpt lat="44.57561146090509" lon="10.176387760767197"><ele>827.3333333333333</ele><time>2026-04-24T12:44:23.999Z</time></trkpt><trkpt lat="44.5755174895229" lon="10.176172298159825"><ele>831.0</ele><time>2026-04-24T12:44:24.999Z</time></trkpt><trkpt lat="44.57538755266307" lon="10.175997249871854"><ele>826.0</ele><time>2026-04-24T12:44:25.999Z</time></trkpt><trkpt lat="44.57525081932568" lon="10.17583970271803"><ele>821.0</ele><time>2026-04-24T12:44:26.999Z</time></trkpt><trkpt lat="44.575131914603006" lon="10.17570605691345"><ele>816.0</ele><time>2026-04-24T12:44:27.999Z</time></trkpt><trkpt lat="44.57506315612601" lon="10.175559099753595"><ele>816.0</ele><time>2026-04-24T12:44:28.999Z</time></trkpt><trkpt lat="44.575029307835855" lon="10.175380861480367"><ele>816.0</ele><time>2026-04-24T12:44:29.999Z</time></trkpt><trkpt lat="44.575016419827115" lon="10.175184124208057"><ele>816.0</ele><time>2026-04-24T12:44:30.999Z</time></trkpt><trkpt lat="44.574992676168186" lon="10.174972647698752"><ele>816.0</ele><time>2026-04-24T12:44:31.999Z</time></trkpt><trkpt lat="44.57498229075081" lon="10.1747459572803"><ele>818.6666666666667</ele><time>2026-04-24T12:44:32.999Z</time></trkpt><trkpt lat="44.57496263070237" lon="10.174518640430815"><ele>821.3333333333334</ele><time>2026-04-24T12:44:33.999Z</time></trkpt><trkpt lat="44.57494653148709" lon="10.174278099129454"><ele>824.0</ele><time>2026-04-24T12:44:34.999Z</time></trkpt><trkpt lat="44.574933901814994" lon="10.174033684623295"><ele>825.0</ele><time>2026-04-24T12:44:35.999Z</time></trkpt><trkpt lat="44.574920174554016" lon="10.173784032073005"><ele>826.0</ele><time>2026-04-24T12:44:36.999Z</time></trkpt><trkpt lat="44.57490280848764" lon="10.173535970518017"><ele>827.0</ele><time>2026-04-24T12:44:37.999Z</time></trkpt><trkpt lat="44.57488621931265" lon="10.173291560064536"><ele>830.3333333333334</ele><time>2026-04-24T12:44:38.999Z</time></trkpt><trkpt lat="44.57485774158317" lon="10.173066162619499"><ele>833.6666666666667</ele><time>2026-04-24T12:44:39.999Z</time></trkpt><trkpt lat="44.57479364401961" lon="10.172874630769517"><ele>837.0</ele><time>2026-04-24T12:44:40.999Z</time></trkpt><trkpt lat="44.574682969644044" lon="10.172726671617426"><ele>837.0</ele><time>2026-04-24T12:44:41.999Z</time></trkpt><trkpt lat="44.574574996837626" lon="10.172584791197226"><ele>837.0</ele><time>2026-04-24T12:44:42.999Z</time></trkpt><trkpt lat="44.57449250742782" lon="10.172436481449486"><ele>837.0</ele><time>2026-04-24T12:44:43.999Z</time></trkpt><trkpt lat="44.57445764515045" lon="10.172271023524033"><ele>837.0</ele><time>2026-04-24T12:44:44.999Z</time></trkpt><trkpt lat="44.574467866448856" lon="10.17208635920361"><ele>833.6666666666667</ele><time>2026-04-24T12:44:45.999Z</time></trkpt><trkpt lat="44.57447399274257" lon="10.17187729716215"><ele>830.3333333333334</ele><time>2026-04-24T12:44:46.999Z</time></trkpt><trkpt lat="44.57450502308763" lon="10.171669192051473"><ele>827.0</ele><time>2026-04-24T12:44:47.999Z</time></trkpt><trkpt lat="44.574546347619666" lon="10.17146742669173"><ele>835.25</ele><time>2026-04-24T12:44:48.999Z</time></trkpt><trkpt lat="44.57462643254651" lon="10.171291291768418"><ele>843.5</ele><time>2026-04-24T12:44:49.999Z</time></trkpt><trkpt lat="44.57467280854289" lon="10.171098946987009"><ele>851.75</ele><time>2026-04-24T12:44:50.999Z</time></trkpt><trkpt lat="44.57468012259429" lon="10.17092794765296"><ele>860.0</ele><time>2026-04-24T12:44:51.999Z</time></trkpt><trkpt lat="44.57463512087005" lon="10.17076449274709"><ele>857.25</ele><time>2026-04-24T12:44:52.999Z</time></trkpt><trkpt lat="44.57455130165129" lon="10.170614461273702"><ele>854.5</ele><time>2026-04-24T12:44:53.999Z</time></trkpt><trkpt lat="44.57446579333927" lon="10.170447425351314"><ele>851.75</ele><time>2026-04-24T12:44:54.999Z</time></trkpt><trkpt lat="44.5743733801427" lon="10.170265555841864"><ele>849.0</ele><time>2026-04-24T12:44:55.999Z</time></trkpt><trkpt lat="44.57428020383205" lon="10.170082184857337"><ele>849.0</ele><time>2026-04-24T12:44:56.999Z</time></trkpt><trkpt lat="44.57417932872381" lon="10.169883662316986"><ele>849.0</ele><time>2026-04-24T12:44:57.999Z</time></trkpt><trkpt lat="44.574068992339775" lon="10.169705818952016"><ele>849.0</ele><time>2026-04-24T12:44:58.999Z</time></trkpt><trkpt lat="44.573977232061104" lon="10.169522885693775"><ele>848.0</ele><time>2026-04-24T12:44:59.999Z</time></trkpt><trkpt lat="44.573888681580115" lon="10.169351413119958"><ele>847.0</ele><time>2026-04-24T12:45:00.999Z</time></trkpt><trkpt lat="44.573809187607694" lon="10.169181808584465"><ele>846.0</ele><time>2026-04-24T12:45:01.999Z</time></trkpt><trkpt lat="44.57372287186147" lon="10.169021351658309"><ele>845.0</ele><time>2026-04-24T12:45:02.999Z</time></trkpt><trkpt lat="44.57364964316508" lon="10.16886981137378"><ele>845.0</ele><time>2026-04-24T12:45:03.999Z</time></trkpt><trkpt lat="44.57362816872355" lon="10.168739418349704"><ele>845.0</ele><time>2026-04-24T12:45:04.999Z</time></trkpt><trkpt lat="44.57360992533423" lon="10.16864844117438"><ele>845.0</ele><time>2026-04-24T12:45:05.999Z</time></trkpt><trkpt lat="44.57363512782392" lon="10.168536496549583"><ele>845.0</ele><time>2026-04-24T12:45:06.999Z</time></trkpt><trkpt lat="44.57369275124474" lon="10.168404721487219"><ele>845.0</ele><time>2026-04-24T12:45:07.999Z</time></trkpt><trkpt lat="44.57378610665063" lon="10.168292551130497"><ele>845.0</ele><time>2026-04-24T12:45:08.999Z</time></trkpt><trkpt lat="44.57391522688578" lon="10.168209551045502"><ele>845.0</ele><time>2026-04-24T12:45:09.999Z</time></trkpt><trkpt lat="44.57405614028394" lon="10.168118556342657"><ele>845.0</ele><time>2026-04-24T12:45:10.999Z</time></trkpt><trkpt lat="44.57420721327194" lon="10.168021360280253"><ele>844.3333333333334</ele><time>2026-04-24T12:45:11.999Z</time></trkpt><trkpt lat="44.57436868569855" lon="10.167919604929285"><ele>843.6666666666667</ele><time>2026-04-24T12:45:12.999Z</time></trkpt><trkpt lat="44.574518541660645" lon="10.16782077795989"><ele>843.0</ele><time>2026-04-24T12:45:13.999Z</time></trkpt><trkpt lat="44.57464803649191" lon="10.167709517396395"><ele>843.0</ele><time>2026-04-24T12:45:14.999Z</time></trkpt><trkpt lat="44.57474961323439" lon="10.167553480235672"><ele>843.0</ele><time>2026-04-24T12:45:15.999Z</time></trkpt><trkpt lat="44.57482063225496" lon="10.167347374817469"><ele>843.0</ele><time>2026-04-24T12:45:16.999Z</time></trkpt><trkpt lat="44.57487361762398" lon="10.167116277933248"><ele>839.3333333333333</ele><time>2026-04-24T12:45:17.999Z</time></trkpt><trkpt lat="44.57494261465041" lon="10.166885813117295"><ele>835.6666666666666</ele><time>2026-04-24T12:45:18.999Z</time></trkpt><trkpt lat="44.57499477936788" lon="10.166655969455517"><ele>832.0</ele><time>2026-04-24T12:45:19.999Z</time></trkpt><trkpt lat="44.57506685029654" lon="10.166476173644378"><ele>833.25</ele><time>2026-04-24T12:45:20.999Z</time></trkpt><trkpt lat="44.57515149033711" lon="10.166358714879303"><ele>834.5</ele><time>2026-04-24T12:45:21.999Z</time></trkpt><trkpt lat="44.57528071335088" lon="10.166336014753378"><ele>835.75</ele><time>2026-04-24T12:45:22.999Z</time></trkpt><trkpt lat="44.57538301501167" lon="10.166263911551578"><ele>837.0</ele><time>2026-04-24T12:45:23.999Z</time></trkpt><trkpt lat="44.57546941649444" lon="10.166174786520022"><ele>837.0</ele><time>2026-04-24T12:45:24.999Z</time></trkpt><trkpt lat="44.57551770374479" lon="10.16603722706716"><ele>837.0</ele><time>2026-04-24T12:45:25.998Z</time></trkpt><trkpt lat="44.57553189469723" lon="10.165867856364816"><ele>837.0</ele><time>2026-04-24T12:45:26.998Z</time></trkpt><trkpt lat="44.57550112178022" lon="10.165682384066141"><ele>837.0</ele><time>2026-04-24T12:45:27.998Z</time></trkpt><trkpt lat="44.5754316437954" lon="10.16551120480447"><ele>830.25</ele><time>2026-04-24T12:45:29.001Z</time></trkpt><trkpt lat="44.57533555030582" lon="10.165360890694588"><ele>823.5</ele><time>2026-04-24T12:45:30.001Z</time></trkpt><trkpt lat="44.5752822901705" lon="10.165213060638118"><ele>816.75</ele><time>2026-04-24T12:45:31.001Z</time></trkpt><trkpt lat="44.57525753055667" lon="10.165090056041413"><ele>810.0</ele><time>2026-04-24T12:45:32.001Z</time></trkpt><trkpt lat="44.57524288369649" lon="10.164942342391564"><ele>806.3333333333333</ele><time>2026-04-24T12:45:33.001Z</time></trkpt><trkpt lat="44.575326187008315" lon="10.164776293788819"><ele>802.6666666666666</ele><time>2026-04-24T12:45:34.001Z</time></trkpt><trkpt lat="44.57540464879424" lon="10.164574363089663"><ele>799.0</ele><time>2026-04-24T12:45:35.001Z</time></trkpt><trkpt lat="44.57546550376749" lon="10.164364504179735"><ele>802.3333333333333</ele><time>2026-04-24T12:45:36.001Z</time></trkpt><trkpt lat="44.57549017821831" lon="10.164129356215128"><ele>805.6666666666667</ele><time>2026-04-24T12:45:37Z</time></trkpt><trkpt lat="44.57551348633619" lon="10.163907051980733"><ele>809.0</ele><time>2026-04-24T12:45:38Z</time></trkpt><trkpt lat="44.575574781244406" lon="10.1637161242322"><ele>809.0</ele><time>2026-04-24T12:45:39Z</time></trkpt><trkpt lat="44.57562967725045" lon="10.163510309813548"><ele>809.0</ele><time>2026-04-24T12:45:40Z</time></trkpt><trkpt lat="44.575715776028964" lon="10.163322147429145"><ele>809.0</ele><time>2026-04-24T12:45:41Z</time></trkpt><trkpt lat="44.57579340378622" lon="10.163146778204139"><ele>802.6666666666667</ele><time>2026-04-24T12:45:42Z</time></trkpt><trkpt lat="44.57587977410445" lon="10.162993512691626"><ele>796.3333333333333</ele><time>2026-04-24T12:45:43Z</time></trkpt><trkpt lat="44.5760069894377" lon="10.162883286404623"><ele>790.0</ele><time>2026-04-24T12:45:44Z</time></trkpt><trkpt lat="44.5761612848444" lon="10.162774479428178"><ele>790.6666666666666</ele><time>2026-04-24T12:45:45Z</time></trkpt><trkpt lat="44.57631614109526" lon="10.16269226037662"><ele>791.3333333333333</ele><time>2026-04-24T12:45:46Z</time></trkpt><trkpt lat="44.57643578188352" lon="10.16254805864627"><ele>792.0</ele><time>2026-04-24T12:45:47Z</time></trkpt><trkpt lat="44.57651373406884" lon="10.162341008584438"><ele>792.0</ele><time>2026-04-24T12:45:48Z</time></trkpt><trkpt lat="44.5765648726353" lon="10.162089721203678"><ele>792.0</ele><time>2026-04-24T12:45:49Z</time></trkpt><trkpt lat="44.57662978446112" lon="10.161834225603089"><ele>792.0</ele><time>2026-04-24T12:45:50Z</time></trkpt><trkpt lat="44.57671494225371" lon="10.161583828430402"><ele>792.5</ele><time>2026-04-24T12:45:51Z</time></trkpt><trkpt lat="44.57678905879476" lon="10.161361611032921"><ele>793.0</ele><time>2026-04-24T12:45:52Z</time></trkpt><trkpt lat="44.57685512957579" lon="10.16119705218415"><ele>793.5</ele><time>2026-04-24T12:45:53Z</time></trkpt><trkpt lat="44.57696629213812" lon="10.161096634431365"><ele>794.0</ele><time>2026-04-24T12:45:54Z</time></trkpt><trkpt lat="44.57708010862648" lon="10.160970804910567"><ele>794.0</ele><time>2026-04-24T12:45:55Z</time></trkpt><trkpt lat="44.57718347292347" lon="10.160830580503703"><ele>794.0</ele><time>2026-04-24T12:45:56Z</time></trkpt><trkpt lat="44.57725946634141" lon="10.160637508162194"><ele>794.0</ele><time>2026-04-24T12:45:57Z</time></trkpt><trkpt lat="44.57732880923523" lon="10.160456383066347"><ele>794.0</ele><time>2026-04-24T12:45:58Z</time></trkpt><trkpt lat="44.57739990159884" lon="10.160306429715423"><ele>787.5</ele><time>2026-04-24T12:45:59Z</time></trkpt><trkpt lat="44.57747124662305" lon="10.160194556725775"><ele>781.0</ele><time>2026-04-24T12:46:00Z</time></trkpt><trkpt lat="44.57756220154429" lon="10.160140632606138"><ele>774.5</ele><time>2026-04-24T12:46:01Z</time></trkpt><trkpt lat="44.57767857838131" lon="10.160161117186062"><ele>768.0</ele><time>2026-04-24T12:46:02Z</time></trkpt><trkpt lat="44.577796768281466" lon="10.160247331285724"><ele>767.25</ele><time>2026-04-24T12:46:03Z</time></trkpt><trkpt lat="44.57791316716867" lon="10.16034412483471"><ele>766.5</ele><time>2026-04-24T12:46:04Z</time></trkpt><trkpt lat="44.57803691792525" lon="10.160408104682459"><ele>765.75</ele><time>2026-04-24T12:46:05Z</time></trkpt><trkpt lat="44.578180901993555" lon="10.160412961585434"><ele>765.0</ele><time>2026-04-24T12:46:06Z</time></trkpt><trkpt lat="44.578306158761265" lon="10.160371704446952"><ele>765.0</ele><time>2026-04-24T12:46:07Z</time></trkpt><trkpt lat="44.578427529071924" lon="10.160282014965864"><ele>765.0</ele><time>2026-04-24T12:46:08Z</time></trkpt><trkpt lat="44.578536736720174" lon="10.16018267687124"><ele>765.0</ele><time>2026-04-24T12:46:09Z</time></trkpt><trkpt lat="44.578656456965994" lon="10.160097009356278"><ele>765.0</ele><time>2026-04-24T12:46:10Z</time></trkpt><trkpt lat="44.57877395997121" lon="10.160076190241877"><ele>762.0</ele><time>2026-04-24T12:46:11Z</time></trkpt><trkpt lat="44.578889116249364" lon="10.160118075180094"><ele>759.0</ele><time>2026-04-24T12:46:12Z</time></trkpt><trkpt lat="44.57896972650548" lon="10.160254420363001"><ele>756.0</ele><time>2026-04-24T12:46:13Z</time></trkpt><trkpt lat="44.57905196658774" lon="10.160396821992096"><ele>753.0</ele><time>2026-04-24T12:46:14Z</time></trkpt><trkpt lat="44.57912786289735" lon="10.160571991086812"><ele>758.0</ele><time>2026-04-24T12:46:15Z</time></trkpt><trkpt lat="44.579208139969005" lon="10.160742918691398"><ele>763.0</ele><time>2026-04-24T12:46:16Z</time></trkpt><trkpt lat="44.5792935301431" lon="10.160894041703232"><ele>768.0</ele><time>2026-04-24T12:46:17Z</time></trkpt><trkpt lat="44.579379624920826" lon="10.16102927529314"><ele>773.0</ele><time>2026-04-24T12:46:18Z</time></trkpt><trkpt lat="44.57946255572969" lon="10.161130950131554"><ele>769.0</ele><time>2026-04-24T12:46:19Z</time></trkpt><trkpt lat="44.57956181871926" lon="10.16118177123175"><ele>765.0</ele><time>2026-04-24T12:46:20Z</time></trkpt><trkpt lat="44.57967210623217" lon="10.16116376895036"><ele>761.0</ele><time>2026-04-24T12:46:21Z</time></trkpt><trkpt lat="44.57977694657183" lon="10.161077970441314"><ele>757.0</ele><time>2026-04-24T12:46:22Z</time></trkpt><trkpt lat="44.57987238497048" lon="10.160948996085885"><ele>757.0</ele><time>2026-04-24T12:46:23Z</time></trkpt><trkpt lat="44.57996004502623" lon="10.160814847147575"><ele>757.0</ele><time>2026-04-24T12:46:24Z</time></trkpt><trkpt lat="44.58006857680976" lon="10.160706141923203"><ele>757.0</ele><time>2026-04-24T12:46:25Z</time></trkpt><trkpt lat="44.58020153383242" lon="10.160647619378251"><ele>757.0</ele><time>2026-04-24T12:46:26Z</time></trkpt><trkpt lat="44.58034411351266" lon="10.160580928104595"><ele>751.6666666666667</ele><time>2026-04-24T12:46:27Z</time></trkpt><trkpt lat="44.580489905899796" lon="10.160497095565772"><ele>746.3333333333334</ele><time>2026-04-24T12:46:28Z</time></trkpt><trkpt lat="44.58064556753989" lon="10.160410863087188"><ele>741.0</ele><time>2026-04-24T12:46:29Z</time></trkpt><trkpt lat="44.580810448648485" lon="10.160328016645805"><ele>741.0</ele><time>2026-04-24T12:46:30Z</time></trkpt><trkpt lat="44.580980917169335" lon="10.160242396654358"><ele>741.0</ele><time>2026-04-24T12:46:31Z</time></trkpt><trkpt lat="44.58114835653399" lon="10.160156708809453"><ele>741.0</ele><time>2026-04-24T12:46:31.999Z</time></trkpt><trkpt lat="44.58130620072444" lon="10.160078974536052"><ele>740.75</ele><time>2026-04-24T12:46:32.999Z</time></trkpt><trkpt lat="44.581432660333185" lon="10.160029206695379"><ele>740.5</ele><time>2026-04-24T12:46:33.999Z</time></trkpt><trkpt lat="44.58154282658993" lon="10.159996554068622"><ele>740.25</ele><time>2026-04-24T12:46:34.999Z</time></trkpt><trkpt lat="44.58164922999206" lon="10.159991843869303"><ele>740.0</ele><time>2026-04-24T12:46:35.999Z</time></trkpt><trkpt lat="44.58175075100267" lon="10.16007181954768"><ele>740.0</ele><time>2026-04-24T12:46:36.999Z</time></trkpt><trkpt lat="44.58183927075468" lon="10.160226356362164"><ele>740.0</ele><time>2026-04-24T12:46:37.999Z</time></trkpt><trkpt lat="44.58192906846225" lon="10.160412956251388"><ele>740.0</ele><time>2026-04-24T12:46:38.999Z</time></trkpt><trkpt lat="44.58202294818589" lon="10.160603781864243"><ele>735.6666666666666</ele><time>2026-04-24T12:46:39.999Z</time></trkpt><trkpt lat="44.58211272307267" lon="10.16080394349191"><ele>731.3333333333334</ele><time>2026-04-24T12:46:40.999Z</time></trkpt><trkpt lat="44.58219173359288" lon="10.16101693296893"><ele>727.0</ele><time>2026-04-24T12:46:41.999Z</time></trkpt><trkpt lat="44.58227315943603" lon="10.161217947333714"><ele>727.0</ele><time>2026-04-24T12:46:42.999Z</time></trkpt><trkpt lat="44.58238287024082" lon="10.161396416730806"><ele>727.0</ele><time>2026-04-24T12:46:43.999Z</time></trkpt><trkpt lat="44.582510150373324" lon="10.161557910517192"><ele>727.0</ele><time>2026-04-24T12:46:44.999Z</time></trkpt><trkpt lat="44.582637617237516" lon="10.161712579557227"><ele>725.0</ele><time>2026-04-24T12:46:45.999Z</time></trkpt><trkpt lat="44.58275943781223" lon="10.16187467972665"><ele>723.0</ele><time>2026-04-24T12:46:46.999Z</time></trkpt><trkpt lat="44.58287566768476" lon="10.162032032267723"><ele>721.0</ele><time>2026-04-24T12:46:47.999Z</time></trkpt><trkpt lat="44.582974490072054" lon="10.16216578038465"><ele>721.0</ele><time>2026-04-24T12:46:48.999Z</time></trkpt><trkpt lat="44.58307489410107" lon="10.162268553427015"><ele>721.0</ele><time>2026-04-24T12:46:49.999Z</time></trkpt><trkpt lat="44.58320163238165" lon="10.162327544357325"><ele>721.0</ele><time>2026-04-24T12:46:50.999Z</time></trkpt><trkpt lat="44.583351241947106" lon="10.162315741250572"><ele>721.0</ele><time>2026-04-24T12:46:51.999Z</time></trkpt><trkpt lat="44.5834995477581" lon="10.162246585268914"><ele>721.0</ele><time>2026-04-24T12:46:52.999Z</time></trkpt><trkpt lat="44.58362745977619" lon="10.162122415992894"><ele>721.0</ele><time>2026-04-24T12:46:53.999Z</time></trkpt><trkpt lat="44.58374789731284" lon="10.16196843989053"><ele>721.0</ele><time>2026-04-24T12:46:54.999Z</time></trkpt><trkpt lat="44.58384466209219" lon="10.161801844326192"><ele>719.3333333333334</ele><time>2026-04-24T12:46:55.999Z</time></trkpt><trkpt lat="44.58393096491872" lon="10.161601023882886"><ele>717.6666666666666</ele><time>2026-04-24T12:46:56.999Z</time></trkpt><trkpt lat="44.58400711440274" lon="10.161366774558882"><ele>716.0</ele><time>2026-04-24T12:46:57.999Z</time></trkpt><trkpt lat="44.58411087442904" lon="10.161149723811963"><ele>716.0</ele><time>2026-04-24T12:46:58.999Z</time></trkpt><trkpt lat="44.58420525782584" lon="10.160919439843036"><ele>716.0</ele><time>2026-04-24T12:46:59.999Z</time></trkpt><trkpt lat="44.58428474708405" lon="10.160687480300593"><ele>716.0</ele><time>2026-04-24T12:47:00.999Z</time></trkpt><trkpt lat="44.58436740560982" lon="10.160478644102822"><ele>711.3333333333333</ele><time>2026-04-24T12:47:01.999Z</time></trkpt><trkpt lat="44.5844552247019" lon="10.160273347780674"><ele>706.6666666666666</ele><time>2026-04-24T12:47:02.999Z</time></trkpt><trkpt lat="44.58450169129982" lon="10.160040985687923"><ele>702.0</ele><time>2026-04-24T12:47:03.999Z</time></trkpt><trkpt lat="44.58454415245077" lon="10.159813640917564"><ele>701.75</ele><time>2026-04-24T12:47:04.999Z</time></trkpt><trkpt lat="44.584604977973825" lon="10.15960744551845"><ele>701.5</ele><time>2026-04-24T12:47:05.999Z</time></trkpt><trkpt lat="44.58462847481863" lon="10.159418561549593"><ele>701.25</ele><time>2026-04-24T12:47:06.999Z</time></trkpt><trkpt lat="44.584670356588" lon="10.159273534854194"><ele>701.0</ele><time>2026-04-24T12:47:07.999Z</time></trkpt><trkpt lat="44.58474122380245" lon="10.159175349378552"><ele>701.0</ele><time>2026-04-24T12:47:08.999Z</time></trkpt><trkpt lat="44.58482771415223" lon="10.1591008656546"><ele>701.0</ele><time>2026-04-24T12:47:09.999Z</time></trkpt><trkpt lat="44.58494603126837" lon="10.15913358266859"><ele>701.0</ele><time>2026-04-24T12:47:10.999Z</time></trkpt><trkpt lat="44.58504653142715" lon="10.15924262010146"><ele>701.0</ele><time>2026-04-24T12:47:11.999Z</time></trkpt><trkpt lat="44.58508681850492" lon="10.15940542003522"><ele>701.0</ele><time>2026-04-24T12:47:12.999Z</time></trkpt><trkpt lat="44.58512290825978" lon="10.159576833684593"><ele>701.0</ele><time>2026-04-24T12:47:13.999Z</time></trkpt><trkpt lat="44.58516316812535" lon="10.159725648652284"><ele>701.0</ele><time>2026-04-24T12:47:14.999Z</time></trkpt><trkpt lat="44.5852315366763" lon="10.159825846783066"><ele>701.0</ele><time>2026-04-24T12:47:15.999Z</time></trkpt><trkpt lat="44.58533624116352" lon="10.159869433353121"><ele>701.0</ele><time>2026-04-24T12:47:16.999Z</time></trkpt><trkpt lat="44.5854597057345" lon="10.1598210764633"><ele>700.25</ele><time>2026-04-24T12:47:17.999Z</time></trkpt><trkpt lat="44.58556503453451" lon="10.159751041842576"><ele>699.5</ele><time>2026-04-24T12:47:18.999Z</time></trkpt><trkpt lat="44.58567981515872" lon="10.159648925226165"><ele>698.75</ele><time>2026-04-24T12:47:19.999Z</time></trkpt><trkpt lat="44.585802483469294" lon="10.159561158395793"><ele>698.0</ele><time>2026-04-24T12:47:20.999Z</time></trkpt><trkpt lat="44.58593251728161" lon="10.159473059924045"><ele>698.0</ele><time>2026-04-24T12:47:21.999Z</time></trkpt><trkpt lat="44.586070211612245" lon="10.159377053896248"><ele>698.0</ele><time>2026-04-24T12:47:22.999Z</time></trkpt><trkpt lat="44.58621029910308" lon="10.159274720079686"><ele>698.0</ele><time>2026-04-24T12:47:23.999Z</time></trkpt><trkpt lat="44.586350504201405" lon="10.159173387946646"><ele>698.75</ele><time>2026-04-24T12:47:24.999Z</time></trkpt><trkpt lat="44.58647272011981" lon="10.159082849960228"><ele>699.5</ele><time>2026-04-24T12:47:25.999Z</time></trkpt><trkpt lat="44.58658686244878" lon="10.158998593607457"><ele>700.25</ele><time>2026-04-24T12:47:26.999Z</time></trkpt><trkpt lat="44.586694892443724" lon="10.158924814503468"><ele>701.0</ele><time>2026-04-24T12:47:27.999Z</time></trkpt><trkpt lat="44.58679200444398" lon="10.158845557442477"><ele>701.0</ele><time>2026-04-24T12:47:28.999Z</time></trkpt><trkpt lat="44.586873465611404" lon="10.158741919725552"><ele>701.0</ele><time>2026-04-24T12:47:29.999Z</time></trkpt><trkpt lat="44.586931201097954" lon="10.158613611052344"><ele>701.0</ele><time>2026-04-24T12:47:30.999Z</time></trkpt><trkpt lat="44.58696535239881" lon="10.158460398294395"><ele>701.0</ele><time>2026-04-24T12:47:31.999Z</time></trkpt><trkpt lat="44.58697687651429" lon="10.158287590917277"><ele>699.75</ele><time>2026-04-24T12:47:32.999Z</time></trkpt><trkpt lat="44.58698511453526" lon="10.158102657886408"><ele>698.5</ele><time>2026-04-24T12:47:33.999Z</time></trkpt><trkpt lat="44.58701482541502" lon="10.15793618637595"><ele>697.25</ele><time>2026-04-24T12:47:35Z</time></trkpt><trkpt lat="44.58704781789736" lon="10.15777932791378"><ele>696.0</ele><time>2026-04-24T12:47:36Z</time></trkpt><trkpt lat="44.58711744631091" lon="10.157656957090232"><ele>696.0</ele><time>2026-04-24T12:47:37Z</time></trkpt><trkpt lat="44.58721576314445" lon="10.157545325214567"><ele>696.0</ele><time>2026-04-24T12:47:38Z</time></trkpt><trkpt lat="44.58733363136614" lon="10.157471829759569"><ele>696.0</ele><time>2026-04-24T12:47:39Z</time></trkpt><trkpt lat="44.58745070820627" lon="10.157389914976273"><ele>696.0</ele><time>2026-04-24T12:47:40Z</time></trkpt><trkpt lat="44.587565445693905" lon="10.157281411879529"><ele>693.5</ele><time>2026-04-24T12:47:41Z</time></trkpt><trkpt lat="44.587661553490925" lon="10.157143157192333"><ele>691.0</ele><time>2026-04-24T12:47:42Z</time></trkpt><trkpt lat="44.5877365890869" lon="10.15698706851325"><ele>688.5</ele><time>2026-04-24T12:47:43Z</time></trkpt><trkpt lat="44.58779523232897" lon="10.156832886245539"><ele>686.0</ele><time>2026-04-24T12:47:44Z</time></trkpt><trkpt lat="44.587835651759676" lon="10.156660405075469"><ele>691.3333333333333</ele><time>2026-04-24T12:47:45Z</time></trkpt><trkpt lat="44.58784652807684" lon="10.156460453732532"><ele>696.6666666666666</ele><time>2026-04-24T12:47:46Z</time></trkpt><trkpt lat="44.58785834584418" lon="10.156240751259224"><ele>702.0</ele><time>2026-04-24T12:47:47Z</time></trkpt><trkpt lat="44.587876878102996" lon="10.156006612936338"><ele>702.0</ele><time>2026-04-24T12:47:48Z</time></trkpt><trkpt lat="44.587898171331595" lon="10.15578650357042"><ele>702.0</ele><time>2026-04-24T12:47:49Z</time></trkpt><trkpt lat="44.587911001562276" lon="10.155573564719443"><ele>702.0</ele><time>2026-04-24T12:47:50Z</time></trkpt><trkpt lat="44.587926753797" lon="10.155346836689983"><ele>703.0</ele><time>2026-04-24T12:47:51Z</time></trkpt><trkpt lat="44.58787088781663" lon="10.15511699104286"><ele>704.0</ele><time>2026-04-24T12:47:52Z</time></trkpt><trkpt lat="44.58780438512443" lon="10.15489708493084"><ele>705.0</ele><time>2026-04-24T12:47:53Z</time></trkpt><trkpt lat="44.587773153597865" lon="10.154661040957784"><ele>694.6666666666666</ele><time>2026-04-24T12:47:54Z</time></trkpt><trkpt lat="44.587761563663086" lon="10.15443504928449"><ele>684.3333333333333</ele><time>2026-04-24T12:47:55Z</time></trkpt><trkpt lat="44.587767484225374" lon="10.154217537697871"><ele>674.0</ele><time>2026-04-24T12:47:56Z</time></trkpt><trkpt lat="44.58773124871763" lon="10.154003431737992"><ele>674.0</ele><time>2026-04-24T12:47:57Z</time></trkpt><trkpt lat="44.587649862501806" lon="10.153819214225798"><ele>674.0</ele><time>2026-04-24T12:47:58Z</time></trkpt><trkpt lat="44.58756612773119" lon="10.153655651456187"><ele>674.0</ele><time>2026-04-24T12:47:59Z</time></trkpt><trkpt lat="44.587482181081064" lon="10.15350480013244"><ele>674.0</ele><time>2026-04-24T12:48:00Z</time></trkpt><trkpt lat="44.58745053054182" lon="10.15331610163575"><ele>672.6666666666666</ele><time>2026-04-24T12:48:01Z</time></trkpt><trkpt lat="44.58744861852201" lon="10.153105019914557"><ele>671.3333333333334</ele><time>2026-04-24T12:48:02Z</time></trkpt><trkpt lat="44.58745477095809" lon="10.152878773108233"><ele>670.0</ele><time>2026-04-24T12:48:03Z</time></trkpt><trkpt lat="44.58745284588136" lon="10.152650896063884"><ele>670.0</ele><time>2026-04-24T12:48:04Z</time></trkpt><trkpt lat="44.587447477091295" lon="10.152433414565426"><ele>670.0</ele><time>2026-04-24T12:48:05Z</time></trkpt><trkpt lat="44.587465477721494" lon="10.152223485588292"><ele>670.0</ele><time>2026-04-24T12:48:06Z</time></trkpt><trkpt lat="44.58746335133742" lon="10.152018234767382"><ele>667.5</ele><time>2026-04-24T12:48:07Z</time></trkpt><trkpt lat="44.58752134817619" lon="10.151835940397296"><ele>665.0</ele><time>2026-04-24T12:48:08Z</time></trkpt><trkpt lat="44.587611626143826" lon="10.151678559400631"><ele>662.5</ele><time>2026-04-24T12:48:09Z</time></trkpt><trkpt lat="44.58763862506295" lon="10.151498400976623"><ele>660.0</ele><time>2026-04-24T12:48:10Z</time></trkpt><trkpt lat="44.58785841834853" lon="10.151407372069183"><ele>660.0</ele><time>2026-04-24T12:48:11Z</time></trkpt><trkpt lat="44.58799519378626" lon="10.151265707624463"><ele>660.0</ele><time>2026-04-24T12:48:11.999Z</time></trkpt><trkpt lat="44.58812453110184" lon="10.151098969085899"><ele>660.0</ele><time>2026-04-24T12:48:12.999Z</time></trkpt><trkpt lat="44.58823184199983" lon="10.150898844627212"><ele>655.0</ele><time>2026-04-24T12:48:13.999Z</time></trkpt><trkpt lat="44.58831508321752" lon="10.150667766990717"><ele>650.0</ele><time>2026-04-24T12:48:14.999Z</time></trkpt><trkpt lat="44.5883779329312" lon="10.150426026068324"><ele>645.0</ele><time>2026-04-24T12:48:15.999Z</time></trkpt><trkpt lat="44.58844313731833" lon="10.150204978866848"><ele>645.0</ele><time>2026-04-24T12:48:16.999Z</time></trkpt><trkpt lat="44.58851132414146" lon="10.15002330514858"><ele>645.0</ele><time>2026-04-24T12:48:17.999Z</time></trkpt><trkpt lat="44.58860990422411" lon="10.149879845754477"><ele>645.0</ele><time>2026-04-24T12:48:18.999Z</time></trkpt><trkpt lat="44.58875328416192" lon="10.149771033983457"><ele>642.6666666666666</ele><time>2026-04-24T12:48:19.999Z</time></trkpt><trkpt lat="44.58891599818334" lon="10.149686445757823"><ele>640.3333333333333</ele><time>2026-04-24T12:48:20.999Z</time></trkpt><trkpt lat="44.58908368607833" lon="10.149593754346089"><ele>638.0</ele><time>2026-04-24T12:48:21.999Z</time></trkpt><trkpt lat="44.58925382335534" lon="10.1495099964526"><ele>638.0</ele><time>2026-04-24T12:48:22.999Z</time></trkpt><trkpt lat="44.58943208923207" lon="10.149439039811618"><ele>638.0</ele><time>2026-04-24T12:48:23.999Z</time></trkpt><trkpt lat="44.58961921207255" lon="10.149380541789984"><ele>638.0</ele><time>2026-04-24T12:48:24.999Z</time></trkpt><trkpt lat="44.589807696967014" lon="10.149324514515953"><ele>637.6666666666666</ele><time>2026-04-24T12:48:25.999Z</time></trkpt><trkpt lat="44.58998102517841" lon="10.14925337722936"><ele>637.3333333333334</ele><time>2026-04-24T12:48:26.999Z</time></trkpt><trkpt lat="44.590142153021205" lon="10.149135245544958"><ele>637.0</ele><time>2026-04-24T12:48:27.999Z</time></trkpt><trkpt lat="44.59029425791086" lon="10.148983889377861"><ele>633.6666666666667</ele><time>2026-04-24T12:48:28.999Z</time></trkpt><trkpt lat="44.59045286734196" lon="10.148837890886668"><ele>630.3333333333334</ele><time>2026-04-24T12:48:29.999Z</time></trkpt><trkpt lat="44.59061290289372" lon="10.148716522517994"><ele>627.0</ele><time>2026-04-24T12:48:30.999Z</time></trkpt><trkpt lat="44.590766356493226" lon="10.148594980860137"><ele>627.0</ele><time>2026-04-24T12:48:31.999Z</time></trkpt><trkpt lat="44.59090368147805" lon="10.148479766753194"><ele>627.0</ele><time>2026-04-24T12:48:32.999Z</time></trkpt><trkpt lat="44.591019761282794" lon="10.148357835568179"><ele>627.0</ele><time>2026-04-24T12:48:33.999Z</time></trkpt><trkpt lat="44.59109774255203" lon="10.148195225652424"><ele>627.0</ele><time>2026-04-24T12:48:34.999Z</time></trkpt><trkpt lat="44.59113035689081" lon="10.147988430004927"><ele>623.75</ele><time>2026-04-24T12:48:35.999Z</time></trkpt><trkpt lat="44.59111081605456" lon="10.147766603205643"><ele>620.5</ele><time>2026-04-24T12:48:36.999Z</time></trkpt><trkpt lat="44.5910842240116" lon="10.147560287138852"><ele>617.25</ele><time>2026-04-24T12:48:37.999Z</time></trkpt><trkpt lat="44.59108487659436" lon="10.147365061917125"><ele>614.0</ele><time>2026-04-24T12:48:38.999Z</time></trkpt><trkpt lat="44.59112020344489" lon="10.1471738551783"><ele>621.3333333333333</ele><time>2026-04-24T12:48:39.999Z</time></trkpt><trkpt lat="44.59119844094547" lon="10.14699000631103"><ele>628.6666666666666</ele><time>2026-04-24T12:48:40.999Z</time></trkpt><trkpt lat="44.591285047203584" lon="10.14679861849584"><ele>636.0</ele><time>2026-04-24T12:48:41.999Z</time></trkpt><trkpt lat="44.591349631800405" lon="10.146572721673225"><ele>630.3333333333334</ele><time>2026-04-24T12:48:42.999Z</time></trkpt><trkpt lat="44.591410622973044" lon="10.146333215422516"><ele>624.6666666666667</ele><time>2026-04-24T12:48:43.999Z</time></trkpt><trkpt lat="44.591462918102266" lon="10.146096576927778"><ele>619.0</ele><time>2026-04-24T12:48:44.999Z</time></trkpt><trkpt lat="44.59151525831265" lon="10.145873038079056"><ele>616.0</ele><time>2026-04-24T12:48:45.999Z</time></trkpt><trkpt lat="44.59155327931026" lon="10.145655451610814"><ele>613.0</ele><time>2026-04-24T12:48:46.999Z</time></trkpt><trkpt lat="44.59155203954925" lon="10.145435264582842"><ele>610.0</ele><time>2026-04-24T12:48:47.999Z</time></trkpt><trkpt lat="44.59151831947274" lon="10.145205449690952"><ele>610.0</ele><time>2026-04-24T12:48:48.999Z</time></trkpt><trkpt lat="44.59150276748382" lon="10.144966641681233"><ele>610.0</ele><time>2026-04-24T12:48:49.999Z</time></trkpt><trkpt lat="44.59145943386956" lon="10.144733383518153"><ele>610.0</ele><time>2026-04-24T12:48:50.999Z</time></trkpt><trkpt lat="44.591433543622664" lon="10.14450207253052"><ele>607.25</ele><time>2026-04-24T12:48:51.999Z</time></trkpt><trkpt lat="44.591426351792805" lon="10.144289356284984"><ele>604.5</ele><time>2026-04-24T12:48:52.999Z</time></trkpt><trkpt lat="44.591392714296155" lon="10.144107379951931"><ele>601.75</ele><time>2026-04-24T12:48:53.999Z</time></trkpt><trkpt lat="44.59139361581876" lon="10.143946844159181"><ele>599.0</ele><time>2026-04-24T12:48:54.999Z</time></trkpt><trkpt lat="44.591430640288166" lon="10.143800770690003"><ele>598.75</ele><time>2026-04-24T12:48:55.999Z</time></trkpt><trkpt lat="44.59151480192886" lon="10.143675715525404"><ele>598.5</ele><time>2026-04-24T12:48:56.999Z</time></trkpt><trkpt lat="44.591635060568784" lon="10.143628227590757"><ele>598.25</ele><time>2026-04-24T12:48:57.999Z</time></trkpt><trkpt lat="44.59175606592245" lon="10.14362235044748"><ele>598.0</ele><time>2026-04-24T12:48:58.999Z</time></trkpt><trkpt lat="44.59188264064568" lon="10.143696528072418"><ele>598.0</ele><time>2026-04-24T12:48:59.999Z</time></trkpt><trkpt lat="44.59200570283242" lon="10.143809251434146"><ele>598.0</ele><time>2026-04-24T12:49:00.999Z</time></trkpt><trkpt lat="44.59213117165128" lon="10.143928470146033"><ele>598.0</ele><time>2026-04-24T12:49:01.999Z</time></trkpt><trkpt lat="44.59227278340036" lon="10.144032318511234"><ele>596.5</ele><time>2026-04-24T12:49:02.999Z</time></trkpt><trkpt lat="44.592412038981784" lon="10.144138327793787"><ele>595.0</ele><time>2026-04-24T12:49:03.999Z</time></trkpt><trkpt lat="44.592541358803985" lon="10.144234321606097"><ele>593.5</ele><time>2026-04-24T12:49:04.999Z</time></trkpt><trkpt lat="44.59267380241028" lon="10.144298273620889"><ele>592.0</ele><time>2026-04-24T12:49:05.999Z</time></trkpt><trkpt lat="44.59281099672607" lon="10.144307262515829"><ele>592.0</ele><time>2026-04-24T12:49:06.999Z</time></trkpt><trkpt lat="44.59295895334141" lon="10.144267618549083"><ele>592.0</ele><time>2026-04-24T12:49:07.999Z</time></trkpt><trkpt lat="44.593115397672435" lon="10.14417641374002"><ele>592.0</ele><time>2026-04-24T12:49:08.999Z</time></trkpt><trkpt lat="44.59327250556651" lon="10.144038668066068"><ele>588.3333333333334</ele><time>2026-04-24T12:49:09.999Z</time></trkpt><trkpt lat="44.593432323101744" lon="10.143900717719031"><ele>584.6666666666666</ele><time>2026-04-24T12:49:10.999Z</time></trkpt><trkpt lat="44.593596915821905" lon="10.143773973137613"><ele>581.0</ele><time>2026-04-24T12:49:11.999Z</time></trkpt><trkpt lat="44.59375882998998" lon="10.143657339945488"><ele>581.0</ele><time>2026-04-24T12:49:12.999Z</time></trkpt><trkpt lat="44.59391309994663" lon="10.14354939628669"><ele>581.0</ele><time>2026-04-24T12:49:13.999Z</time></trkpt><trkpt lat="44.59405749349484" lon="10.143443713841668"><ele>581.0</ele><time>2026-04-24T12:49:14.999Z</time></trkpt><trkpt lat="44.594184220595125" lon="10.143349324718205"><ele>581.0</ele><time>2026-04-24T12:49:15.999Z</time></trkpt><trkpt lat="44.59428057098861" lon="10.143238190125386"><ele>581.0</ele><time>2026-04-24T12:49:16.999Z</time></trkpt><trkpt lat="44.59433156724735" lon="10.143065990638213"><ele>581.0</ele><time>2026-04-24T12:49:17.999Z</time></trkpt><trkpt lat="44.59433272352529" lon="10.142852592353819"><ele>581.0</ele><time>2026-04-24T12:49:18.998Z</time></trkpt><trkpt lat="44.594316852029806" lon="10.142633683554665"><ele>577.0</ele><time>2026-04-24T12:49:19.998Z</time></trkpt><trkpt lat="44.59433424408982" lon="10.142428472851808"><ele>573.0</ele><time>2026-04-24T12:49:20.998Z</time></trkpt><trkpt lat="44.594343170441704" lon="10.142248302630696"><ele>569.0</ele><time>2026-04-24T12:49:21.998Z</time></trkpt><trkpt lat="44.594381539384294" lon="10.142084585011096"><ele>565.0</ele><time>2026-04-24T12:49:22.998Z</time></trkpt><trkpt lat="44.594462871534645" lon="10.141916833903228"><ele>563.0</ele><time>2026-04-24T12:49:23.998Z</time></trkpt><trkpt lat="44.59457917295329" lon="10.141746309642055"><ele>561.0</ele><time>2026-04-24T12:49:24.998Z</time></trkpt><trkpt lat="44.594706439416626" lon="10.141584243669884"><ele>559.0</ele><time>2026-04-24T12:49:25.998Z</time></trkpt><trkpt lat="44.594811967503965" lon="10.141390947463886"><ele>559.0</ele><time>2026-04-24T12:49:26.998Z</time></trkpt><trkpt lat="44.59488844116253" lon="10.141148139154888"><ele>559.0</ele><time>2026-04-24T12:49:27.998Z</time></trkpt><trkpt lat="44.59496136241393" lon="10.140886280199041"><ele>559.0</ele><time>2026-04-24T12:49:28.998Z</time></trkpt><trkpt lat="44.595036522583186" lon="10.14061914327831"><ele>554.3333333333334</ele><time>2026-04-24T12:49:29.998Z</time></trkpt><trkpt lat="44.59511875198861" lon="10.14035656560476"><ele>549.6666666666666</ele><time>2026-04-24T12:49:30.998Z</time></trkpt><trkpt lat="44.59519310260631" lon="10.140103180575919"><ele>545.0</ele><time>2026-04-24T12:49:31.998Z</time></trkpt><trkpt lat="44.595262534096165" lon="10.139872457738111"><ele>542.0</ele><time>2026-04-24T12:49:32.998Z</time></trkpt><trkpt lat="44.59531948060071" lon="10.139674395907004"><ele>539.0</ele><time>2026-04-24T12:49:33.998Z</time></trkpt><trkpt lat="44.595353976508356" lon="10.1394748061489"><ele>536.0</ele><time>2026-04-24T12:49:34.998Z</time></trkpt><trkpt lat="44.595353152254155" lon="10.139261770733128"><ele>537.0</ele><time>2026-04-24T12:49:35.998Z</time></trkpt><trkpt lat="44.59530527903453" lon="10.139032270585169"><ele>538.0</ele><time>2026-04-24T12:49:36.998Z</time></trkpt><trkpt lat="44.595232005822275" lon="10.13880619891587"><ele>539.0</ele><time>2026-04-24T12:49:37.998Z</time></trkpt><trkpt lat="44.595159675006535" lon="10.138591075635631"><ele>539.0</ele><time>2026-04-24T12:49:38.998Z</time></trkpt><trkpt lat="44.595092943045685" lon="10.138377080069365"><ele>539.0</ele><time>2026-04-24T12:49:39.998Z</time></trkpt><trkpt lat="44.59503097780182" lon="10.138161013813027"><ele>539.0</ele><time>2026-04-24T12:49:41Z</time></trkpt><trkpt lat="44.59498170741143" lon="10.137941623569567"><ele>538.6666666666666</ele><time>2026-04-24T12:49:42Z</time></trkpt><trkpt lat="44.594919032821856" lon="10.137730888916561"><ele>538.3333333333334</ele><time>2026-04-24T12:49:43Z</time></trkpt><trkpt lat="44.59485028390467" lon="10.137523959037708"><ele>538.0</ele><time>2026-04-24T12:49:44Z</time></trkpt><trkpt lat="44.594779574054726" lon="10.137330876767816"><ele>538.0</ele><time>2026-04-24T12:49:45Z</time></trkpt><trkpt lat="44.594706074784646" lon="10.137148256200666"><ele>538.0</ele><time>2026-04-24T12:49:46Z</time></trkpt><trkpt lat="44.594629790628865" lon="10.136981320172561"><ele>538.0</ele><time>2026-04-24T12:49:47Z</time></trkpt><trkpt lat="44.59458598350283" lon="10.136801530039046"><ele>538.0</ele><time>2026-04-24T12:49:48Z</time></trkpt><trkpt lat="44.59457268875965" lon="10.136616247215683"><ele>535.25</ele><time>2026-04-24T12:49:49Z</time></trkpt><trkpt lat="44.59459159991353" lon="10.136419987809377"><ele>532.5</ele><time>2026-04-24T12:49:50Z</time></trkpt><trkpt lat="44.594645311361504" lon="10.13622745330149"><ele>529.75</ele><time>2026-04-24T12:49:51Z</time></trkpt><trkpt lat="44.594733565491126" lon="10.136053285282355"><ele>527.0</ele><time>2026-04-24T12:49:52Z</time></trkpt><trkpt lat="44.5948496642912" lon="10.135908565923495"><ele>527.0</ele><time>2026-04-24T12:49:53Z</time></trkpt><trkpt lat="44.59497506824795" lon="10.135770612315689"><ele>527.0</ele><time>2026-04-24T12:49:54Z</time></trkpt><trkpt lat="44.59509996193815" lon="10.135624975424529"><ele>527.0</ele><time>2026-04-24T12:49:55Z</time></trkpt><trkpt lat="44.5952275465249" lon="10.135471091651471"><ele>524.3333333333333</ele><time>2026-04-24T12:49:56Z</time></trkpt><trkpt lat="44.59535947422109" lon="10.13532307477153"><ele>521.6666666666666</ele><time>2026-04-24T12:49:57Z</time></trkpt><trkpt lat="44.595485565313325" lon="10.135168189446874"><ele>519.0</ele><time>2026-04-24T12:49:58Z</time></trkpt><trkpt lat="44.59561113782843" lon="10.135009997491316"><ele>514.0</ele><time>2026-04-24T12:49:59Z</time></trkpt><trkpt lat="44.595736181001925" lon="10.134858276724774"><ele>509.0</ele><time>2026-04-24T12:50:00Z</time></trkpt><trkpt lat="44.595861944636525" lon="10.134725541617268"><ele>504.0</ele><time>2026-04-24T12:50:01Z</time></trkpt><trkpt lat="44.59599278459188" lon="10.134611557128068"><ele>504.0</ele><time>2026-04-24T12:50:02Z</time></trkpt><trkpt lat="44.596136257151144" lon="10.134515478538079"><ele>504.0</ele><time>2026-04-24T12:50:03Z</time></trkpt><trkpt lat="44.59629154113428" lon="10.134427768600517"><ele>504.0</ele><time>2026-04-24T12:50:04Z</time></trkpt><trkpt lat="44.59644057744582" lon="10.134337378371473"><ele>506.0</ele><time>2026-04-24T12:50:05Z</time></trkpt><trkpt lat="44.59657921452975" lon="10.13424125124255"><ele>508.0</ele><time>2026-04-24T12:50:06Z</time></trkpt><trkpt lat="44.596687046966295" lon="10.134085196515976"><ele>510.0</ele><time>2026-04-24T12:50:07Z</time></trkpt><trkpt lat="44.59676881162225" lon="10.133888557248614"><ele>506.66666666666663</ele><time>2026-04-24T12:50:08Z</time></trkpt><trkpt lat="44.59686523965014" lon="10.133704105658934"><ele>503.3333333333333</ele><time>2026-04-24T12:50:09Z</time></trkpt><trkpt lat="44.59695678313422" lon="10.133527301161529"><ele>500.0</ele><time>2026-04-24T12:50:10Z</time></trkpt><trkpt lat="44.597049388646994" lon="10.133358022554443"><ele>500.0</ele><time>2026-04-24T12:50:11Z</time></trkpt><trkpt lat="44.597184756419125" lon="10.133257282900132"><ele>500.0</ele><time>2026-04-24T12:50:12Z</time></trkpt><trkpt lat="44.59733646979883" lon="10.133167903079288"><ele>500.0</ele><time>2026-04-24T12:50:13Z</time></trkpt><trkpt lat="44.59750276034134" lon="10.133069628565867"><ele>494.66666666666663</ele><time>2026-04-24T12:50:14Z</time></trkpt><trkpt lat="44.59768438061652" lon="10.132995774007725"><ele>489.33333333333337</ele><time>2026-04-24T12:50:15Z</time></trkpt><trkpt lat="44.59786439389722" lon="10.13290765915668"><ele>484.0</ele><time>2026-04-24T12:50:16Z</time></trkpt><trkpt lat="44.59804354255407" lon="10.132813524242378"><ele>484.0</ele><time>2026-04-24T12:50:17Z</time></trkpt><trkpt lat="44.598221683985194" lon="10.132723737144596"><ele>484.0</ele><time>2026-04-24T12:50:18Z</time></trkpt><trkpt lat="44.598399821728" lon="10.13262829316221"><ele>484.0</ele><time>2026-04-24T12:50:19Z</time></trkpt><trkpt lat="44.59857687747896" lon="10.132530527056977"><ele>482.6666666666667</ele><time>2026-04-24T12:50:20Z</time></trkpt><trkpt lat="44.598752463460684" lon="10.132435202907224"><ele>481.33333333333337</ele><time>2026-04-24T12:50:21Z</time></trkpt><trkpt lat="44.598922132710726" lon="10.132346657022907"><ele>480.0</ele><time>2026-04-24T12:50:21.999Z</time></trkpt><trkpt lat="44.599089520808434" lon="10.132268590948055"><ele>476.66666666666663</ele><time>2026-04-24T12:50:22.999Z</time></trkpt><trkpt lat="44.5992543846493" lon="10.132185617448883"><ele>473.3333333333333</ele><time>2026-04-24T12:50:23.999Z</time></trkpt><trkpt lat="44.599412778135516" lon="10.132096235212968"><ele>470.0</ele><time>2026-04-24T12:50:24.999Z</time></trkpt><trkpt lat="44.59956135538317" lon="10.131984979543592"><ele>470.0</ele><time>2026-04-24T12:50:25.999Z</time></trkpt><trkpt lat="44.599697740994735" lon="10.13185546533084"><ele>470.0</ele><time>2026-04-24T12:50:26.999Z</time></trkpt><trkpt lat="44.59982907179337" lon="10.131719463713315"><ele>470.0</ele><time>2026-04-24T12:50:27.999Z</time></trkpt><trkpt lat="44.59996543987123" lon="10.131596069564203"><ele>468.3333333333333</ele><time>2026-04-24T12:50:28.999Z</time></trkpt><trkpt lat="44.60011098724101" lon="10.13147333433831"><ele>466.66666666666663</ele><time>2026-04-24T12:50:29.999Z</time></trkpt><trkpt lat="44.60025850422173" lon="10.131352795027754"><ele>465.0</ele><time>2026-04-24T12:50:30.999Z</time></trkpt><trkpt lat="44.600398946637114" lon="10.131226364158765"><ele>465.0</ele><time>2026-04-24T12:50:31.999Z</time></trkpt><trkpt lat="44.600525370260534" lon="10.13108998251865"><ele>465.0</ele><time>2026-04-24T12:50:32.999Z</time></trkpt><trkpt lat="44.60063789875193" lon="10.130932632693044"><ele>465.0</ele><time>2026-04-24T12:50:33.999Z</time></trkpt><trkpt lat="44.60070864315561" lon="10.130738350824485"><ele>460.66666666666663</ele><time>2026-04-24T12:50:34.999Z</time></trkpt><trkpt lat="44.60075180046259" lon="10.130514289598324"><ele>456.3333333333333</ele><time>2026-04-24T12:50:35.999Z</time></trkpt><trkpt lat="44.60078908380942" lon="10.130281903534511"><ele>452.0</ele><time>2026-04-24T12:50:36.999Z</time></trkpt><trkpt lat="44.60084696625037" lon="10.130050750559331"><ele>448.0</ele><time>2026-04-24T12:50:37.999Z</time></trkpt><trkpt lat="44.60087356683694" lon="10.129817462233706"><ele>444.0</ele><time>2026-04-24T12:50:38.999Z</time></trkpt><trkpt lat="44.60092314944554" lon="10.129598510901438"><ele>440.0</ele><time>2026-04-24T12:50:39.999Z</time></trkpt><trkpt lat="44.600965561238475" lon="10.129384122889231"><ele>440.0</ele><time>2026-04-24T12:50:40.999Z</time></trkpt><trkpt lat="44.601023364055095" lon="10.129184371632254"><ele>440.0</ele><time>2026-04-24T12:50:41.999Z</time></trkpt><trkpt lat="44.60110216958868" lon="10.129001611843119"><ele>440.0</ele><time>2026-04-24T12:50:42.999Z</time></trkpt><trkpt lat="44.60120170747568" lon="10.128813962560582"><ele>438.0</ele><time>2026-04-24T12:50:43.999Z</time></trkpt><trkpt lat="44.60130755199218" lon="10.128617443032569"><ele>436.0</ele><time>2026-04-24T12:50:44.999Z</time></trkpt><trkpt lat="44.60141376969133" lon="10.12841227425029"><ele>434.0</ele><time>2026-04-24T12:50:45.999Z</time></trkpt><trkpt lat="44.60151541827211" lon="10.128209949382015"><ele>430.3333333333333</ele><time>2026-04-24T12:50:46.999Z</time></trkpt><trkpt lat="44.601619209402315" lon="10.12802302968074"><ele>426.66666666666663</ele><time>2026-04-24T12:50:47.999Z</time></trkpt><trkpt lat="44.60173279368839" lon="10.127854096246393"><ele>423.0</ele><time>2026-04-24T12:50:48.999Z</time></trkpt><trkpt lat="44.60185750410362" lon="10.12770381789488"><ele>423.0</ele><time>2026-04-24T12:50:49.999Z</time></trkpt><trkpt lat="44.601986973106214" lon="10.12755926624782"><ele>423.0</ele><time>2026-04-24T12:50:50.999Z</time></trkpt><trkpt lat="44.60211506541728" lon="10.127397648864433"><ele>423.0</ele><time>2026-04-24T12:50:51.999Z</time></trkpt><trkpt lat="44.60224083287196" lon="10.127219090963688"><ele>421.0</ele><time>2026-04-24T12:50:52.999Z</time></trkpt><trkpt lat="44.60236187060109" lon="10.127029220058825"><ele>419.0</ele><time>2026-04-24T12:50:53.999Z</time></trkpt><trkpt lat="44.60247288152657" lon="10.12682613840867"><ele>417.0</ele><time>2026-04-24T12:50:54.999Z</time></trkpt><trkpt lat="44.6025743083887" lon="10.126615933722247"><ele>414.0</ele><time>2026-04-24T12:50:55.999Z</time></trkpt><trkpt lat="44.60267369873908" lon="10.126411793255636"><ele>411.0</ele><time>2026-04-24T12:50:56.999Z</time></trkpt><trkpt lat="44.6027679410703" lon="10.126213840874996"><ele>408.0</ele><time>2026-04-24T12:50:57.999Z</time></trkpt><trkpt lat="44.60286189495888" lon="10.12601916483772"><ele>408.0</ele><time>2026-04-24T12:50:58.999Z</time></trkpt><trkpt lat="44.60295022118241" lon="10.125847457355837"><ele>408.0</ele><time>2026-04-24T12:50:59.999Z</time></trkpt><trkpt lat="44.603045783918176" lon="10.12570759960253"><ele>408.0</ele><time>2026-04-24T12:51:00.999Z</time></trkpt><trkpt lat="44.60317083771415" lon="10.125641726183188"><ele>408.0</ele><time>2026-04-24T12:51:01.999Z</time></trkpt><trkpt lat="44.603295474283776" lon="10.125570133427294"><ele>406.0</ele><time>2026-04-24T12:51:02.999Z</time></trkpt><trkpt lat="44.603430800483885" lon="10.125517788807496"><ele>404.0</ele><time>2026-04-24T12:51:03.999Z</time></trkpt><trkpt lat="44.603549696518975" lon="10.125419074122162"><ele>402.0</ele><time>2026-04-24T12:51:04.999Z</time></trkpt><trkpt lat="44.6036545416747" lon="10.125301807544709"><ele>400.0</ele><time>2026-04-24T12:51:05.999Z</time></trkpt><trkpt lat="44.60376056613196" lon="10.12519756398995"><ele>399.4</ele><time>2026-04-24T12:51:06.999Z</time></trkpt><trkpt lat="44.60386331192962" lon="10.125112511198324"><ele>398.8</ele><time>2026-04-24T12:51:07.999Z</time></trkpt><trkpt lat="44.60396526567101" lon="10.125046937492089"><ele>398.20000000000005</ele><time>2026-04-24T12:51:08.999Z</time></trkpt><trkpt lat="44.60405829224096" lon="10.124991601391406"><ele>397.6</ele><time>2026-04-24T12:51:09.999Z</time></trkpt><trkpt lat="44.60414089352228" lon="10.124938867855278"><ele>397.0</ele><time>2026-04-24T12:51:10.999Z</time></trkpt><trkpt lat="44.60420697405324" lon="10.124909731716583"><ele>397.0</ele><time>2026-04-24T12:51:11.999Z</time></trkpt><trkpt lat="44.604270241216724" lon="10.124904814327893"><ele>397.0</ele><time>2026-04-24T12:51:12.999Z</time></trkpt><trkpt lat="44.604347763326246" lon="10.124890199448823"><ele>397.0</ele><time>2026-04-24T12:51:13.999Z</time></trkpt><trkpt lat="44.60445801793098" lon="10.125039108747183"><ele>397.0</ele><time>2026-04-24T12:51:14.999Z</time></trkpt><trkpt lat="44.60458315412322" lon="10.12514510306938"><ele>397.0</ele><time>2026-04-24T12:51:15.999Z</time></trkpt><trkpt lat="44.60471329408122" lon="10.125259317848789"><ele>394.0</ele><time>2026-04-24T12:51:16.999Z</time></trkpt><trkpt lat="44.604861274621" lon="10.125389553712493"><ele>391.0</ele><time>2026-04-24T12:51:17.999Z</time></trkpt><trkpt lat="44.605011257792896" lon="10.125520762698795"><ele>388.0</ele><time>2026-04-24T12:51:18.999Z</time></trkpt><trkpt lat="44.60516743190174" lon="10.125655009502646"><ele>387.33333333333337</ele><time>2026-04-24T12:51:19.999Z</time></trkpt><trkpt lat="44.60532199999056" lon="10.125792774739038"><ele>386.66666666666663</ele><time>2026-04-24T12:51:20.999Z</time></trkpt><trkpt lat="44.60547558035021" lon="10.125927960178439"><ele>386.0</ele><time>2026-04-24T12:51:21.999Z</time></trkpt><trkpt lat="44.605626700848745" lon="10.126057261627963"><ele>386.0</ele><time>2026-04-24T12:51:22.999Z</time></trkpt><trkpt lat="44.6057671845473" lon="10.126174599705296"><ele>386.0</ele><time>2026-04-24T12:51:23.999Z</time></trkpt><trkpt lat="44.60589994211769" lon="10.126293399267432"><ele>386.0</ele><time>2026-04-24T12:51:24.999Z</time></trkpt><trkpt lat="44.606030228021" lon="10.126414323365376"><ele>386.0</ele><time>2026-04-24T12:51:25.999Z</time></trkpt><trkpt lat="44.60615757578165" lon="10.126542415444414"><ele>386.0</ele><time>2026-04-24T12:51:26.999Z</time></trkpt><trkpt lat="44.60627754680151" lon="10.126680437256725"><ele>386.0</ele><time>2026-04-24T12:51:27.998Z</time></trkpt><trkpt lat="44.60638918708332" lon="10.126835740879608"><ele>386.3333333333333</ele><time>2026-04-24T12:51:28.998Z</time></trkpt><trkpt lat="44.60648444040959" lon="10.12701385473642"><ele>386.66666666666663</ele><time>2026-04-24T12:51:29.998Z</time></trkpt><trkpt lat="44.606536302979414" lon="10.1272199031318"><ele>387.0</ele><time>2026-04-24T12:51:30.998Z</time></trkpt><trkpt lat="44.60660999147892" lon="10.127423448858872"><ele>388.66666666666663</ele><time>2026-04-24T12:51:31.998Z</time></trkpt><trkpt lat="44.60666538840651" lon="10.127644358010773"><ele>390.3333333333333</ele><time>2026-04-24T12:51:32.998Z</time></trkpt><trkpt lat="44.606730617040334" lon="10.127854095534987"><ele>392.0</ele><time>2026-04-24T12:51:33.998Z</time></trkpt><trkpt lat="44.60681173247663" lon="10.12803775049853"><ele>392.0</ele><time>2026-04-24T12:51:34.998Z</time></trkpt><trkpt lat="44.606929177167835" lon="10.128180865225989"><ele>392.0</ele><time>2026-04-24T12:51:35.998Z</time></trkpt><trkpt lat="44.6070747004354" lon="10.128279482261801"><ele>392.0</ele><time>2026-04-24T12:51:36.998Z</time></trkpt><trkpt lat="44.6072458059658" lon="10.128344469395294"><ele>390.3333333333333</ele><time>2026-04-24T12:51:37.998Z</time></trkpt><trkpt lat="44.60740666631052" lon="10.12840734973534"><ele>388.66666666666663</ele><time>2026-04-24T12:51:38.998Z</time></trkpt><trkpt lat="44.60755164602056" lon="10.128514631900574"><ele>387.0</ele><time>2026-04-24T12:51:39.998Z</time></trkpt><trkpt lat="44.60765415265863" lon="10.128693706695872"><ele>387.0</ele><time>2026-04-24T12:51:40.998Z</time></trkpt><trkpt lat="44.60774736508708" lon="10.128878267787636"><ele>387.0</ele><time>2026-04-24T12:51:41.998Z</time></trkpt><trkpt lat="44.607845637871925" lon="10.129051165557797"><ele>387.0</ele><time>2026-04-24T12:51:42.998Z</time></trkpt><trkpt lat="44.60796614998634" lon="10.129194411953558"><ele>388.66666666666663</ele><time>2026-04-24T12:51:43.998Z</time></trkpt><trkpt lat="44.608109578403194" lon="10.129280023307803"><ele>390.3333333333333</ele><time>2026-04-24T12:51:44.998Z</time></trkpt><trkpt lat="44.60827276592557" lon="10.129309228750396"><ele>392.0</ele><time>2026-04-24T12:51:46Z</time></trkpt><trkpt lat="44.60844396237692" lon="10.129309511399354"><ele>392.0</ele><time>2026-04-24T12:51:47Z</time></trkpt><trkpt lat="44.60861916157961" lon="10.129319662786017"><ele>392.0</ele><time>2026-04-24T12:51:48Z</time></trkpt><trkpt lat="44.608792099988364" lon="10.12932085379687"><ele>392.0</ele><time>2026-04-24T12:51:49Z</time></trkpt><trkpt lat="44.60895774860862" lon="10.129278088526005"><ele>392.5</ele><time>2026-04-24T12:51:50Z</time></trkpt><trkpt lat="44.609111436798266" lon="10.129211398914373"><ele>393.0</ele><time>2026-04-24T12:51:51Z</time></trkpt><trkpt lat="44.609250349691855" lon="10.129190854023385"><ele>393.5</ele><time>2026-04-24T12:51:52Z</time></trkpt><trkpt lat="44.609389695621964" lon="10.129221276868863"><ele>394.0</ele><time>2026-04-24T12:51:53Z</time></trkpt><trkpt lat="44.60952080155036" lon="10.129327212715584"><ele>396.6666666666667</ele><time>2026-04-24T12:51:54Z</time></trkpt><trkpt lat="44.609629032905865" lon="10.129509493264877"><ele>399.33333333333337</ele><time>2026-04-24T12:51:55Z</time></trkpt><trkpt lat="44.60975580927357" lon="10.12969550117326"><ele>402.0</ele><time>2026-04-24T12:51:56Z</time></trkpt><trkpt lat="44.60987597668701" lon="10.129902459871639"><ele>402.0</ele><time>2026-04-24T12:51:57Z</time></trkpt><trkpt lat="44.61000723207617" lon="10.130106960477837"><ele>402.0</ele><time>2026-04-24T12:51:58Z</time></trkpt><trkpt lat="44.61014473953957" lon="10.130311566716735"><ele>402.0</ele><time>2026-04-24T12:51:59Z</time></trkpt><trkpt lat="44.610279536610406" lon="10.130510830959073"><ele>395.3333333333333</ele><time>2026-04-24T12:52:00Z</time></trkpt><trkpt lat="44.61038331272049" lon="10.130709000707078"><ele>388.66666666666663</ele><time>2026-04-24T12:52:01Z</time></trkpt><trkpt lat="44.61050224742183" lon="10.13087723297929"><ele>382.0</ele><time>2026-04-24T12:52:02Z</time></trkpt><trkpt lat="44.610598582042414" lon="10.131077292876709"><ele>382.0</ele><time>2026-04-24T12:52:03Z</time></trkpt><trkpt lat="44.61067867509065" lon="10.13127394611415"><ele>382.0</ele><time>2026-04-24T12:52:04Z</time></trkpt><trkpt lat="44.61073487357798" lon="10.13146207213324"><ele>382.0</ele><time>2026-04-24T12:52:05Z</time></trkpt><trkpt lat="44.61075596840393" lon="10.131657723704615"><ele>382.0</ele><time>2026-04-24T12:52:06Z</time></trkpt><trkpt lat="44.61073558040816" lon="10.131871054668029"><ele>386.66666666666663</ele><time>2026-04-24T12:52:07Z</time></trkpt><trkpt lat="44.61072144112665" lon="10.132078928728811"><ele>391.3333333333333</ele><time>2026-04-24T12:52:08Z</time></trkpt><trkpt lat="44.61075034445233" lon="10.132282899552646"><ele>396.0</ele><time>2026-04-24T12:52:09Z</time></trkpt><trkpt lat="44.61083218969266" lon="10.132485066955248"><ele>396.0</ele><time>2026-04-24T12:52:10Z</time></trkpt><trkpt lat="44.61093266811429" lon="10.132684631245263"><ele>396.0</ele><time>2026-04-24T12:52:11Z</time></trkpt><trkpt lat="44.611034432693835" lon="10.132886457271024"><ele>396.0</ele><time>2026-04-24T12:52:12Z</time></trkpt><trkpt lat="44.611126804625194" lon="10.133093132035297"><ele>391.6666666666667</ele><time>2026-04-24T12:52:13Z</time></trkpt><trkpt lat="44.611217848660324" lon="10.133302741806327"><ele>387.33333333333337</ele><time>2026-04-24T12:52:14Z</time></trkpt><trkpt lat="44.61131742289836" lon="10.133501908731358"><ele>383.0</ele><time>2026-04-24T12:52:15Z</time></trkpt><trkpt lat="44.611424123535485" lon="10.133696017213767"><ele>383.0</ele><time>2026-04-24T12:52:16Z</time></trkpt><trkpt lat="44.61153074108349" lon="10.133886002219866"><ele>383.0</ele><time>2026-04-24T12:52:17Z</time></trkpt><trkpt lat="44.61163798849494" lon="10.134075874904283"><ele>383.0</ele><time>2026-04-24T12:52:18Z</time></trkpt><trkpt lat="44.61173653982095" lon="10.13424196380406"><ele>381.0</ele><time>2026-04-24T12:52:19Z</time></trkpt><trkpt lat="44.61185225424454" lon="10.13437619858113"><ele>379.0</ele><time>2026-04-24T12:52:20Z</time></trkpt><trkpt lat="44.61199670062417" lon="10.134477651195168"><ele>377.0</ele><time>2026-04-24T12:52:21Z</time></trkpt><trkpt lat="44.612161441335495" lon="10.134573106432684"><ele>377.0</ele><time>2026-04-24T12:52:22Z</time></trkpt><trkpt lat="44.61232096511937" lon="10.134696271723419"><ele>377.0</ele><time>2026-04-24T12:52:23Z</time></trkpt><trkpt lat="44.61248402555766" lon="10.134815977306815"><ele>377.0</ele><time>2026-04-24T12:52:24Z</time></trkpt><trkpt lat="44.61264531585741" lon="10.134928851382483"><ele>376.0</ele><time>2026-04-24T12:52:25Z</time></trkpt><trkpt lat="44.6127969452437" lon="10.135035476049056"><ele>375.0</ele><time>2026-04-24T12:52:26Z</time></trkpt><trkpt lat="44.6129331670277" lon="10.13513765836603"><ele>374.0</ele><time>2026-04-24T12:52:27Z</time></trkpt><trkpt lat="44.61305601196576" lon="10.1352678528689"><ele>374.0</ele><time>2026-04-24T12:52:28Z</time></trkpt><trkpt lat="44.613142198327765" lon="10.135462016447025"><ele>374.0</ele><time>2026-04-24T12:52:29Z</time></trkpt><trkpt lat="44.61322803755738" lon="10.13566264431838"><ele>374.0</ele><time>2026-04-24T12:52:30Z</time></trkpt><trkpt lat="44.613321926030856" lon="10.135866474898316"><ele>370.33333333333337</ele><time>2026-04-24T12:52:31Z</time></trkpt><trkpt lat="44.61341433697693" lon="10.1360829876715"><ele>366.6666666666667</ele><time>2026-04-24T12:52:32Z</time></trkpt><trkpt lat="44.61352766238631" lon="10.136289039573574"><ele>363.0</ele><time>2026-04-24T12:52:33Z</time></trkpt><trkpt lat="44.61365605475115" lon="10.136496501607411"><ele>366.0</ele><time>2026-04-24T12:52:34Z</time></trkpt><trkpt lat="44.613785115088156" lon="10.13672265435608"><ele>369.0</ele><time>2026-04-24T12:52:35Z</time></trkpt><trkpt lat="44.613904809867506" lon="10.136947058985095"><ele>372.0</ele><time>2026-04-24T12:52:35.999Z</time></trkpt><trkpt lat="44.61401470441836" lon="10.137143580281062"><ele>372.0</ele><time>2026-04-24T12:52:36.999Z</time></trkpt><trkpt lat="44.614120764282376" lon="10.13733836862594"><ele>372.0</ele><time>2026-04-24T12:52:37.999Z</time></trkpt><trkpt lat="44.6142120086689" lon="10.137543147513595"><ele>372.0</ele><time>2026-04-24T12:52:38.999Z</time></trkpt><trkpt lat="44.614285029981026" lon="10.137755902002866"><ele>371.3333333333333</ele><time>2026-04-24T12:52:39.999Z</time></trkpt><trkpt lat="44.614351924057395" lon="10.13796022098186"><ele>370.66666666666663</ele><time>2026-04-24T12:52:40.999Z</time></trkpt><trkpt lat="44.61442108985904" lon="10.138149360146995"><ele>370.0</ele><time>2026-04-24T12:52:41.999Z</time></trkpt><trkpt lat="44.614492439723634" lon="10.138331667070574"><ele>370.0</ele><time>2026-04-24T12:52:42.999Z</time></trkpt><trkpt lat="44.614567536897546" lon="10.138508006270513"><ele>370.0</ele><time>2026-04-24T12:52:43.999Z</time></trkpt><trkpt lat="44.61464383264084" lon="10.138672789170803"><ele>370.0</ele><time>2026-04-24T12:52:44.999Z</time></trkpt><trkpt lat="44.61471781322711" lon="10.138834528888097"><ele>370.0</ele><time>2026-04-24T12:52:45.999Z</time></trkpt><trkpt lat="44.61479157057087" lon="10.138994757698846"><ele>373.75</ele><time>2026-04-24T12:52:46.999Z</time></trkpt><trkpt lat="44.61486565642079" lon="10.139154288317735"><ele>377.5</ele><time>2026-04-24T12:52:47.999Z</time></trkpt><trkpt lat="44.61493984973315" lon="10.139313658618383"><ele>381.25</ele><time>2026-04-24T12:52:48.999Z</time></trkpt><trkpt lat="44.615014401888274" lon="10.139474972474012"><ele>385.0</ele><time>2026-04-24T12:52:49.999Z</time></trkpt><trkpt lat="44.61508874982638" lon="10.139638569804196"><ele>385.0</ele><time>2026-04-24T12:52:50.999Z</time></trkpt><trkpt lat="44.615155148703444" lon="10.139806688487658"><ele>385.0</ele><time>2026-04-24T12:52:51.999Z</time></trkpt><trkpt lat="44.615216164459845" lon="10.13997638361564"><ele>385.0</ele><time>2026-04-24T12:52:52.999Z</time></trkpt><trkpt lat="44.6152711283843" lon="10.140147504096957"><ele>385.0</ele><time>2026-04-24T12:52:53.999Z</time></trkpt><trkpt lat="44.61532349140628" lon="10.140320862189526"><ele>381.75</ele><time>2026-04-24T12:52:54.999Z</time></trkpt><trkpt lat="44.6153704003828" lon="10.140486130241992"><ele>378.5</ele><time>2026-04-24T12:52:55.999Z</time></trkpt><trkpt lat="44.61542708608273" lon="10.140640071419329"><ele>375.25</ele><time>2026-04-24T12:52:56.999Z</time></trkpt><trkpt lat="44.61547739676517" lon="10.140793980037131"><ele>372.0</ele><time>2026-04-24T12:52:57.999Z</time></trkpt><trkpt lat="44.61552740766947" lon="10.140943131617005"><ele>372.0</ele><time>2026-04-24T12:52:58.999Z</time></trkpt><trkpt lat="44.61558070828218" lon="10.141099333412093"><ele>372.0</ele><time>2026-04-24T12:52:59.999Z</time></trkpt><trkpt lat="44.61562302639073" lon="10.141250079013536"><ele>372.0</ele><time>2026-04-24T12:53:00.999Z</time></trkpt><trkpt lat="44.61566417190501" lon="10.14141490086878"><ele>372.0</ele><time>2026-04-24T12:53:01.999Z</time></trkpt><trkpt lat="44.61568551459231" lon="10.141572332692274"><ele>374.75</ele><time>2026-04-24T12:53:02.999Z</time></trkpt><trkpt lat="44.61568935295595" lon="10.14175753753495"><ele>377.5</ele><time>2026-04-24T12:53:03.999Z</time></trkpt><trkpt lat="44.61568124112562" lon="10.141962841931678"><ele>380.25</ele><time>2026-04-24T12:53:04.999Z</time></trkpt><trkpt lat="44.61567169360445" lon="10.14217531764561"><ele>383.0</ele><time>2026-04-24T12:53:05.999Z</time></trkpt><trkpt lat="44.6156629223276" lon="10.142370518210587"><ele>382.5</ele><time>2026-04-24T12:53:06.999Z</time></trkpt><trkpt lat="44.61567041108846" lon="10.142561650839047"><ele>382.0</ele><time>2026-04-24T12:53:07.999Z</time></trkpt><trkpt lat="44.61566921760863" lon="10.142746602709149"><ele>381.5</ele><time>2026-04-24T12:53:08.999Z</time></trkpt><trkpt lat="44.615705387815474" lon="10.142930097867724"><ele>381.0</ele><time>2026-04-24T12:53:09.999Z</time></trkpt><trkpt lat="44.61576792023758" lon="10.143108312551005"><ele>382.5</ele><time>2026-04-24T12:53:10.999Z</time></trkpt><trkpt lat="44.61585888059985" lon="10.143254250014236"><ele>384.0</ele><time>2026-04-24T12:53:11.999Z</time></trkpt><trkpt lat="44.615959623152015" lon="10.143383102908633"><ele>385.5</ele><time>2026-04-24T12:53:12.999Z</time></trkpt><trkpt lat="44.61604436039572" lon="10.14351373977253"><ele>387.0</ele><time>2026-04-24T12:53:13.999Z</time></trkpt><trkpt lat="44.61612852350211" lon="10.143644915186028"><ele>381.0</ele><time>2026-04-24T12:53:14.999Z</time></trkpt><trkpt lat="44.61620160723819" lon="10.143792498216602"><ele>375.0</ele><time>2026-04-24T12:53:15.999Z</time></trkpt><trkpt lat="44.61622508195506" lon="10.14396313518556"><ele>369.0</ele><time>2026-04-24T12:53:16.999Z</time></trkpt><trkpt lat="44.61622405294571" lon="10.144135810680037"><ele>363.0</ele><time>2026-04-24T12:53:17.999Z</time></trkpt><trkpt lat="44.61621435809337" lon="10.144310384736722"><ele>363.0</ele><time>2026-04-24T12:53:18.999Z</time></trkpt><trkpt lat="44.616200158636794" lon="10.144495903473599"><ele>363.0</ele><time>2026-04-24T12:53:19.999Z</time></trkpt><trkpt lat="44.61618391058843" lon="10.144694136752891"><ele>363.0</ele><time>2026-04-24T12:53:20.999Z</time></trkpt><trkpt lat="44.61616549988436" lon="10.144899237087467"><ele>363.0</ele><time>2026-04-24T12:53:21.999Z</time></trkpt><trkpt lat="44.61614505121402" lon="10.145102220958458"><ele>372.25</ele><time>2026-04-24T12:53:22.999Z</time></trkpt><trkpt lat="44.616124843319405" lon="10.145296505512094"><ele>381.5</ele><time>2026-04-24T12:53:23.999Z</time></trkpt><trkpt lat="44.61610181351114" lon="10.145483551761503"><ele>390.75</ele><time>2026-04-24T12:53:24.999Z</time></trkpt><trkpt lat="44.616077886940666" lon="10.14566588526106"><ele>400.0</ele><time>2026-04-24T12:53:25.999Z</time></trkpt><trkpt lat="44.616063714859955" lon="10.145846525042092"><ele>400.0</ele><time>2026-04-24T12:53:26.999Z</time></trkpt><trkpt lat="44.6160399713598" lon="10.146028036967822"><ele>400.0</ele><time>2026-04-24T12:53:27.999Z</time></trkpt><trkpt lat="44.61602491373683" lon="10.146216720892685"><ele>400.0</ele><time>2026-04-24T12:53:28.999Z</time></trkpt><trkpt lat="44.616014477975774" lon="10.146412462663314"><ele>400.0</ele><time>2026-04-24T12:53:29.999Z</time></trkpt><trkpt lat="44.61600512725937" lon="10.146599435639406"><ele>398.5</ele><time>2026-04-24T12:53:30.999Z</time></trkpt><trkpt lat="44.61599684449197" lon="10.146781491161512"><ele>397.0</ele><time>2026-04-24T12:53:31.999Z</time></trkpt><trkpt lat="44.615986651969024" lon="10.146970020876221"><ele>395.5</ele><time>2026-04-24T12:53:32.999Z</time></trkpt><trkpt lat="44.61599120751796" lon="10.147156065992029"><ele>394.0</ele><time>2026-04-24T12:53:33.999Z</time></trkpt><trkpt lat="44.61599934267346" lon="10.147342630381281"><ele>393.25</ele><time>2026-04-24T12:53:34.999Z</time></trkpt><trkpt lat="44.61602114038517" lon="10.14752526071474"><ele>392.5</ele><time>2026-04-24T12:53:35.999Z</time></trkpt><trkpt lat="44.61604843968651" lon="10.147710797180837"><ele>391.75</ele><time>2026-04-24T12:53:36.999Z</time></trkpt><trkpt lat="44.61603616593277" lon="10.1478948422474"><ele>391.0</ele><time>2026-04-24T12:53:37.999Z</time></trkpt><trkpt lat="44.61601099119509" lon="10.148077722381933"><ele>389.25</ele><time>2026-04-24T12:53:38.998Z</time></trkpt><trkpt lat="44.6159570565245" lon="10.148248190960059"><ele>387.5</ele><time>2026-04-24T12:53:39.998Z</time></trkpt><trkpt lat="44.6158896302711" lon="10.148411862780074"><ele>385.75</ele><time>2026-04-24T12:53:40.998Z</time></trkpt><trkpt lat="44.615810900894196" lon="10.148569776909635"><ele>384.0</ele><time>2026-04-24T12:53:41.998Z</time></trkpt><trkpt lat="44.615731615253594" lon="10.148713372610612"><ele>384.0</ele><time>2026-04-24T12:53:42.998Z</time></trkpt><trkpt lat="44.61565394827254" lon="10.148852082046897"><ele>384.0</ele><time>2026-04-24T12:53:43.998Z</time></trkpt><trkpt lat="44.615594373528104" lon="10.149008126448429"><ele>384.0</ele><time>2026-04-24T12:53:44.998Z</time></trkpt><trkpt lat="44.61555055596054" lon="10.149184277411543"><ele>384.0</ele><time>2026-04-24T12:53:45.998Z</time></trkpt><trkpt lat="44.615509323969256" lon="10.149395867817711"><ele>380.0</ele><time>2026-04-24T12:53:46.998Z</time></trkpt><trkpt lat="44.615421356766994" lon="10.149609623694262"><ele>376.0</ele><time>2026-04-24T12:53:47.998Z</time></trkpt><trkpt lat="44.61539115378496" lon="10.14983253996269"><ele>372.0</ele><time>2026-04-24T12:53:48.998Z</time></trkpt><trkpt lat="44.61534744775272" lon="10.150021717937488"><ele>370.6</ele><time>2026-04-24T12:53:49.998Z</time></trkpt><trkpt lat="44.61532481453089" lon="10.150179768199518"><ele>369.20000000000005</ele><time>2026-04-24T12:53:50.998Z</time></trkpt><trkpt lat="44.61529951631525" lon="10.15033097321989"><ele>367.8</ele><time>2026-04-24T12:53:52Z</time></trkpt><trkpt lat="44.615254341538694" lon="10.150431955626159"><ele>366.4</ele><time>2026-04-24T12:53:53Z</time></trkpt><trkpt lat="44.61517333859269" lon="10.150515594129248"><ele>365.0</ele><time>2026-04-24T12:53:55Z</time></trkpt><trkpt lat="44.615074039742645" lon="10.150359823213229"><ele>370.6</ele><time>2026-04-24T12:53:57Z</time></trkpt><trkpt lat="44.61504238505312" lon="10.150259776233277"><ele>376.2</ele><time>2026-04-24T12:53:58Z</time></trkpt><trkpt lat="44.615086072268376" lon="10.150057640173692"><ele>381.79999999999995</ele><time>2026-04-24T12:53:59Z</time></trkpt><trkpt lat="44.61508288488528" lon="10.149942826708491"><ele>387.4</ele><time>2026-04-24T12:54:00Z</time></trkpt><trkpt lat="44.615060218416204" lon="10.149850338235877"><ele>393.0</ele><time>2026-04-24T12:54:01Z</time></trkpt><trkpt lat="44.61488158985421" lon="10.149818106552738"><ele>393.0</ele><time>2026-04-24T12:54:03Z</time></trkpt><trkpt lat="44.61481031319312" lon="10.149891415895604"><ele>393.0</ele><time>2026-04-24T12:54:04Z</time></trkpt><trkpt lat="44.614773674435256" lon="10.150071391012363"><ele>393.0</ele><time>2026-04-24T12:54:05Z</time></trkpt><trkpt lat="44.61479700493373" lon="10.150262448884854"><ele>393.0</ele><time>2026-04-24T12:54:06Z</time></trkpt><trkpt lat="44.61480759109119" lon="10.150449644697641"><ele>393.0</ele><time>2026-04-24T12:54:07Z</time></trkpt><trkpt lat="44.61481567661681" lon="10.150616519818211"><ele>393.0</ele><time>2026-04-24T12:54:08Z</time></trkpt><trkpt lat="44.61481220933402" lon="10.15074924265939"><ele>393.0</ele><time>2026-04-24T12:54:09Z</time></trkpt><trkpt lat="44.614790682206255" lon="10.1508396271895"><ele>393.0</ele><time>2026-04-24T12:54:10Z</time></trkpt><trkpt lat="44.614736582188655" lon="10.150918955937504"><ele>393.0</ele><time>2026-04-24T12:54:12Z</time></trkpt><trkpt lat="44.61462891694557" lon="10.150799151132507"><ele>393.79999999999995</ele><time>2026-04-24T12:54:13Z</time></trkpt><trkpt lat="44.61454944109751" lon="10.150718515028172"><ele>394.6</ele><time>2026-04-24T12:54:14Z</time></trkpt><trkpt lat="44.61445221853274" lon="10.150629960499058"><ele>395.4</ele><time>2026-04-24T12:54:15Z</time></trkpt><trkpt lat="44.614363876048614" lon="10.150577279424358"><ele>396.20000000000005</ele><time>2026-04-24T12:54:16Z</time></trkpt><trkpt lat="44.61424688569903" lon="10.150513942735474"><ele>397.0</ele><time>2026-04-24T12:54:17Z</time></trkpt><trkpt lat="44.61417865709756" lon="10.150468113227726"><ele>401.00000000000006</ele><time>2026-04-24T12:54:18Z</time></trkpt><trkpt lat="44.61410276355627" lon="10.150455752433292"><ele>405.0</ele><time>2026-04-24T12:54:19Z</time></trkpt><trkpt lat="44.614036323948014" lon="10.150481912003482"><ele>409.0</ele><time>2026-04-24T12:54:20Z</time></trkpt><trkpt lat="44.61400026499377" lon="10.150597840171788"><ele>413.0</ele><time>2026-04-24T12:54:21Z</time></trkpt><trkpt lat="44.61395617666013" lon="10.150675933607546"><ele>417.00000000000006</ele><time>2026-04-24T12:54:22Z</time></trkpt><trkpt lat="44.61394339193177" lon="10.15077398624394"><ele>421.0</ele><time>2026-04-24T12:54:23Z</time></trkpt><trkpt lat="44.6139734089393" lon="10.15086660396374"><ele>421.00000000000006</ele><time>2026-04-24T12:54:24Z</time></trkpt><trkpt lat="44.613993725934904" lon="10.150958285446313"><ele>421.0</ele><time>2026-04-24T12:54:25Z</time></trkpt><trkpt lat="44.61400861237823" lon="10.151049291692006"><ele>421.0</ele><time>2026-04-24T12:54:26Z</time></trkpt><trkpt lat="44.61403144633646" lon="10.151148095371754"><ele>421.0</ele><time>2026-04-24T12:54:27Z</time></trkpt><trkpt lat="44.614037634007055" lon="10.151253935518431"><ele>421.0</ele><time>2026-04-24T12:54:28Z</time></trkpt><trkpt lat="44.61407066280891" lon="10.151357110102683"><ele>421.00000000000006</ele><time>2026-04-24T12:54:29Z</time></trkpt><trkpt lat="44.614084668472564" lon="10.15146351580237"><ele>421.0</ele><time>2026-04-24T12:54:30Z</time></trkpt><trkpt lat="44.614102632903396" lon="10.151570666837484"><ele>422.1666666666667</ele><time>2026-04-24T12:54:31Z</time></trkpt><trkpt lat="44.61412389183332" lon="10.151676737400294"><ele>423.33333333333337</ele><time>2026-04-24T12:54:32Z</time></trkpt><trkpt lat="44.61414535501445" lon="10.151783897655061"><ele>424.5</ele><time>2026-04-24T12:54:33Z</time></trkpt><trkpt lat="44.614162538490085" lon="10.151890186735825"><ele>425.66666666666663</ele><time>2026-04-24T12:54:34Z</time></trkpt><trkpt lat="44.614179941738314" lon="10.152003394876177"><ele>426.8333333333333</ele><time>2026-04-24T12:54:35Z</time></trkpt><trkpt lat="44.614187137919565" lon="10.152093678204242"><ele>428.0</ele><time>2026-04-24T12:54:36Z</time></trkpt><trkpt lat="44.61413108966823" lon="10.152215860038073"><ele>427.99999999999994</ele><time>2026-04-24T12:54:38Z</time></trkpt><trkpt lat="44.61406321537815" lon="10.152233221067616"><ele>428.0</ele><time>2026-04-24T12:54:39Z</time></trkpt><trkpt lat="44.61398379194227" lon="10.152232380830233"><ele>428.0</ele><time>2026-04-24T12:54:40Z</time></trkpt><trkpt lat="44.613904700296615" lon="10.152239010106609"><ele>428.0</ele><time>2026-04-24T12:54:41Z</time></trkpt><trkpt lat="44.61381258097881" lon="10.152227760068175"><ele>427.99999999999994</ele><time>2026-04-24T12:54:42Z</time></trkpt><trkpt lat="44.613724575532046" lon="10.152277197610767"><ele>428.0</ele><time>2026-04-24T12:54:42.999Z</time></trkpt><trkpt lat="44.6136255062013" lon="10.15230531440982"><ele>429.14285714285717</ele><time>2026-04-24T12:54:43.999Z</time></trkpt><trkpt lat="44.61354465543278" lon="10.152334518584512"><ele>430.2857142857143</ele><time>2026-04-24T12:54:44.999Z</time></trkpt><trkpt lat="44.61346533009188" lon="10.152364153177542"><ele>431.42857142857144</ele><time>2026-04-24T12:54:45.999Z</time></trkpt><trkpt lat="44.61339017417881" lon="10.152390851287016"><ele>432.57142857142856</ele><time>2026-04-24T12:54:46.999Z</time></trkpt><trkpt lat="44.613323347252596" lon="10.152419101325192"><ele>433.7142857142857</ele><time>2026-04-24T12:54:47.999Z</time></trkpt><trkpt lat="44.61325879475567" lon="10.152457435035172"><ele>434.8571428571429</ele><time>2026-04-24T12:54:48.999Z</time></trkpt><trkpt lat="44.613199799598576" lon="10.152499098833836"><ele>436.0</ele><time>2026-04-24T12:54:49.999Z</time></trkpt><trkpt lat="44.613196634546924" lon="10.152614113013605"><ele>437.00000000000006</ele><time>2026-04-24T12:54:50.999Z</time></trkpt><trkpt lat="44.61321101510737" lon="10.152701655219618"><ele>438.0</ele><time>2026-04-24T12:54:51.999Z</time></trkpt><trkpt lat="44.61323794356697" lon="10.152782015006919"><ele>439.0</ele><time>2026-04-24T12:54:52.999Z</time></trkpt><trkpt lat="44.613265527728394" lon="10.152862835484312"><ele>440.0</ele><time>2026-04-24T12:54:53.999Z</time></trkpt><trkpt lat="44.61331030083446" lon="10.15302529348379"><ele>441.00000000000006</ele><time>2026-04-24T12:54:55.999Z</time></trkpt><trkpt lat="44.61336087667206" lon="10.153177289418046"><ele>442.0</ele><time>2026-04-24T12:54:57.999Z</time></trkpt><trkpt lat="44.613410204391506" lon="10.153330876891731"><ele>443.40000000000003</ele><time>2026-04-24T12:54:59.999Z</time></trkpt><trkpt lat="44.61345992427659" lon="10.15348004592851"><ele>444.80000000000007</ele><time>2026-04-24T12:55:01.999Z</time></trkpt><trkpt lat="44.61349890867281" lon="10.15363846266026"><ele>446.2</ele><time>2026-04-24T12:55:03.999Z</time></trkpt><trkpt lat="44.613489650220885" lon="10.153727594818628"><ele>447.6</ele><time>2026-04-24T12:55:04.999Z</time></trkpt><trkpt lat="44.613449561464286" lon="10.153806484412328"><ele>449.0</ele><time>2026-04-24T12:55:05.999Z</time></trkpt><trkpt lat="44.613360603324985" lon="10.153825956804427"><ele>449.0</ele><time>2026-04-24T12:55:06.999Z</time></trkpt><trkpt lat="44.613279938147784" lon="10.15387292983097"><ele>449.0</ele><time>2026-04-24T12:55:07.999Z</time></trkpt><trkpt lat="44.61318782022661" lon="10.1539263971531"><ele>449.0</ele><time>2026-04-24T12:55:08.999Z</time></trkpt><trkpt lat="44.613098299446854" lon="10.153990777418079"><ele>449.0</ele><time>2026-04-24T12:55:09.999Z</time></trkpt><trkpt lat="44.613004023164144" lon="10.154036388162249"><ele>449.0</ele><time>2026-04-24T12:55:10.999Z</time></trkpt><trkpt lat="44.61291906889804" lon="10.154093623451006"><ele>448.4</ele><time>2026-04-24T12:55:11.999Z</time></trkpt><trkpt lat="44.612849296710884" lon="10.154172426309994"><ele>447.79999999999995</ele><time>2026-04-24T12:55:12.999Z</time></trkpt><trkpt lat="44.612792188229484" lon="10.154253865981975"><ele>447.20000000000005</ele><time>2026-04-24T12:55:13.999Z</time></trkpt><trkpt lat="44.61273932350674" lon="10.154352753807432"><ele>446.6</ele><time>2026-04-24T12:55:14.999Z</time></trkpt><trkpt lat="44.61269604372939" lon="10.15447293130121"><ele>446.0</ele><time>2026-04-24T12:55:15.999Z</time></trkpt><trkpt lat="44.612651779170875" lon="10.154594991672981"><ele>447.0</ele><time>2026-04-24T12:55:16.999Z</time></trkpt><trkpt lat="44.61258636580434" lon="10.154695107190912"><ele>448.0</ele><time>2026-04-24T12:55:17.999Z</time></trkpt><trkpt lat="44.61254051801299" lon="10.154810999392732"><ele>449.0</ele><time>2026-04-24T12:55:18.999Z</time></trkpt><trkpt lat="44.612462535103944" lon="10.15487138061656"><ele>450.0</ele><time>2026-04-24T12:55:19.999Z</time></trkpt><trkpt lat="44.61239145986509" lon="10.154942853152187"><ele>451.0</ele><time>2026-04-24T12:55:20.999Z</time></trkpt><trkpt lat="44.61231368479922" lon="10.155019188785587"><ele>451.0</ele><time>2026-04-24T12:55:21.999Z</time></trkpt><trkpt lat="44.612242614375795" lon="10.15512034907534"><ele>451.0</ele><time>2026-04-24T12:55:22.999Z</time></trkpt><trkpt lat="44.612158850730815" lon="10.155215553446759"><ele>451.0</ele><time>2026-04-24T12:55:23.999Z</time></trkpt><trkpt lat="44.61208881764457" lon="10.155322929782194"><ele>451.0</ele><time>2026-04-24T12:55:24.999Z</time></trkpt><trkpt lat="44.61202532843178" lon="10.155441087448796"><ele>451.0</ele><time>2026-04-24T12:55:25.999Z</time></trkpt><trkpt lat="44.61196475818434" lon="10.15556194123374"><ele>452.8</ele><time>2026-04-24T12:55:26.999Z</time></trkpt><trkpt lat="44.61190590614257" lon="10.155687509010036"><ele>454.6</ele><time>2026-04-24T12:55:27.999Z</time></trkpt><trkpt lat="44.61185213842342" lon="10.15581520678907"><ele>456.4</ele><time>2026-04-24T12:55:28.999Z</time></trkpt><trkpt lat="44.61178625311741" lon="10.15592462279517"><ele>458.2</ele><time>2026-04-24T12:55:29.999Z</time></trkpt><trkpt lat="44.61172407222181" lon="10.156024609512944"><ele>460.0</ele><time>2026-04-24T12:55:30.999Z</time></trkpt><trkpt lat="44.61165669147853" lon="10.156093785353308"><ele>460.00000000000006</ele><time>2026-04-24T12:55:31.999Z</time></trkpt><trkpt lat="44.61158762671735" lon="10.156132951421903"><ele>460.0</ele><time>2026-04-24T12:55:32.999Z</time></trkpt><trkpt lat="44.611509794512585" lon="10.156168009971083"><ele>460.0</ele><time>2026-04-24T12:55:33.999Z</time></trkpt><trkpt lat="44.61142712952759" lon="10.156190105695664"><ele>460.0</ele><time>2026-04-24T12:55:34.999Z</time></trkpt><trkpt lat="44.61132288588821" lon="10.156211180190072"><ele>460.00000000000006</ele><time>2026-04-24T12:55:35.999Z</time></trkpt><trkpt lat="44.61122298792519" lon="10.156224000904"><ele>460.0</ele><time>2026-04-24T12:55:36.999Z</time></trkpt><trkpt lat="44.611115194554706" lon="10.156252474751916"><ele>461.8</ele><time>2026-04-24T12:55:37.999Z</time></trkpt><trkpt lat="44.61101535289695" lon="10.156241677012131"><ele>463.6</ele><time>2026-04-24T12:55:38.999Z</time></trkpt><trkpt lat="44.61092583461034" lon="10.15624126045262"><ele>465.4</ele><time>2026-04-24T12:55:39.999Z</time></trkpt><trkpt lat="44.61084417644505" lon="10.156264347682255"><ele>467.2</ele><time>2026-04-24T12:55:40.999Z</time></trkpt><trkpt lat="44.61075949106233" lon="10.156287260637747"><ele>469.0</ele><time>2026-04-24T12:55:41.999Z</time></trkpt><trkpt lat="44.610684696618556" lon="10.156364036635681"><ele>469.0</ele><time>2026-04-24T12:55:42.999Z</time></trkpt><trkpt lat="44.61061467467901" lon="10.156434894255828"><ele>469.0</ele><time>2026-04-24T12:55:43.999Z</time></trkpt><trkpt lat="44.61055653742963" lon="10.156527599643793"><ele>469.0</ele><time>2026-04-24T12:55:44.999Z</time></trkpt><trkpt lat="44.61049871701358" lon="10.156630553430103"><ele>469.0</ele><time>2026-04-24T12:55:45.999Z</time></trkpt><trkpt lat="44.61043710715348" lon="10.156731279646248"><ele>469.0</ele><time>2026-04-24T12:55:46.998Z</time></trkpt><trkpt lat="44.610364372460886" lon="10.156827955469637"><ele>470.79999999999995</ele><time>2026-04-24T12:55:47.998Z</time></trkpt><trkpt lat="44.61027577072592" lon="10.156880876857059"><ele>472.59999999999997</ele><time>2026-04-24T12:55:48.998Z</time></trkpt><trkpt lat="44.61019666613907" lon="10.156940081191564"><ele>474.4</ele><time>2026-04-24T12:55:49.998Z</time></trkpt><trkpt lat="44.610126302850205" lon="10.157021352728526"><ele>476.2</ele><time>2026-04-24T12:55:50.998Z</time></trkpt><trkpt lat="44.6100526057861" lon="10.157077048167455"><ele>478.0</ele><time>2026-04-24T12:55:51.998Z</time></trkpt><trkpt lat="44.60997969977212" lon="10.157148873289978"><ele>478.0</ele><time>2026-04-24T12:55:52.998Z</time></trkpt><trkpt lat="44.60992105285732" lon="10.15722119056143"><ele>477.99999999999994</ele><time>2026-04-24T12:55:53.998Z</time></trkpt><trkpt lat="44.60986538465286" lon="10.157307733133969"><ele>477.99999999999994</ele><time>2026-04-24T12:55:54.998Z</time></trkpt><trkpt lat="44.60980248104012" lon="10.157416936894016"><ele>478.0</ele><time>2026-04-24T12:55:55.998Z</time></trkpt><trkpt lat="44.60973945023364" lon="10.157535315362496"><ele>478.0</ele><time>2026-04-24T12:55:56.998Z</time></trkpt><trkpt lat="44.60968037475427" lon="10.15767582342541"><ele>475.0</ele><time>2026-04-24T12:55:58Z</time></trkpt><trkpt lat="44.60963623765701" lon="10.157802065618773"><ele>471.99999999999994</ele><time>2026-04-24T12:55:59Z</time></trkpt><trkpt lat="44.60959925854007" lon="10.157912065576014"><ele>468.99999999999994</ele><time>2026-04-24T12:56:00Z</time></trkpt><trkpt lat="44.609563917288696" lon="10.158036497002275"><ele>466.0</ele><time>2026-04-24T12:56:01Z</time></trkpt><trkpt lat="44.60953061548993" lon="10.158161748583852"><ele>463.0</ele><time>2026-04-24T12:56:02Z</time></trkpt><trkpt lat="44.60949896417911" lon="10.158280443875595"><ele>469.2</ele><time>2026-04-24T12:56:03Z</time></trkpt><trkpt lat="44.609487467882424" lon="10.158397835687786"><ele>475.4</ele><time>2026-04-24T12:56:04Z</time></trkpt><trkpt lat="44.60948880078933" lon="10.158517574464188"><ele>481.59999999999997</ele><time>2026-04-24T12:56:05Z</time></trkpt><trkpt lat="44.609478273092954" lon="10.158647471224173"><ele>487.79999999999995</ele><time>2026-04-24T12:56:06Z</time></trkpt><trkpt lat="44.60941284958413" lon="10.1587508999032"><ele>494.0</ele><time>2026-04-24T12:56:07Z</time></trkpt><trkpt lat="44.60937962218365" lon="10.158883926985643"><ele>493.99999999999994</ele><time>2026-04-24T12:56:08Z</time></trkpt><trkpt lat="44.60933829514484" lon="10.159000564184815"><ele>494.0</ele><time>2026-04-24T12:56:09Z</time></trkpt><trkpt lat="44.609322020359954" lon="10.159103774215984"><ele>494.0</ele><time>2026-04-24T12:56:10Z</time></trkpt><trkpt lat="44.60928545032043" lon="10.159177094546123"><ele>494.0</ele><time>2026-04-24T12:56:11Z</time></trkpt><trkpt lat="44.60922320690766" lon="10.159224808872418"><ele>493.99999999999994</ele><time>2026-04-24T12:56:13Z</time></trkpt><trkpt lat="44.60915536075622" lon="10.159234923887281"><ele>494.0</ele><time>2026-04-24T12:56:14Z</time></trkpt><trkpt lat="44.60903105627334" lon="10.15921854209465"><ele>492.3333333333333</ele><time>2026-04-24T12:56:16Z</time></trkpt><trkpt lat="44.608957301750635" lon="10.159197338853087"><ele>490.66666666666663</ele><time>2026-04-24T12:56:17Z</time></trkpt><trkpt lat="44.60888260328764" lon="10.159206617313114"><ele>489.0</ele><time>2026-04-24T12:56:18Z</time></trkpt><trkpt lat="44.60882489231895" lon="10.159248994961368"><ele>487.33333333333337</ele><time>2026-04-24T12:56:19Z</time></trkpt><trkpt lat="44.6087862079623" lon="10.159339164799137"><ele>485.6666666666667</ele><time>2026-04-24T12:56:20Z</time></trkpt><trkpt lat="44.608802708983745" lon="10.15950467733019"><ele>484.0</ele><time>2026-04-24T12:56:22Z</time></trkpt><trkpt lat="44.608851362162305" lon="10.159563204362733"><ele>484.00000000000006</ele><time>2026-04-24T12:56:23Z</time></trkpt><trkpt lat="44.60892405767741" lon="10.159586089715628"><ele>484.0</ele><time>2026-04-24T12:56:24Z</time></trkpt><trkpt lat="44.60898900387101" lon="10.15958724916159"><ele>484.0</ele><time>2026-04-24T12:56:25Z</time></trkpt><trkpt lat="44.609094910753534" lon="10.159645337511112"><ele>484.0</ele><time>2026-04-24T12:56:27Z</time></trkpt><trkpt lat="44.60913718748733" lon="10.159763950496453"><ele>484.00000000000006</ele><time>2026-04-24T12:56:29Z</time></trkpt><trkpt lat="44.60917732661361" lon="10.159834028145664"><ele>484.0</ele><time>2026-04-24T12:56:30Z</time></trkpt><trkpt lat="44.60921926182214" lon="10.159920935971355"><ele>485.4</ele><time>2026-04-24T12:56:31Z</time></trkpt><trkpt lat="44.60930135973978" lon="10.159988709676504"><ele>486.79999999999995</ele><time>2026-04-24T12:56:32Z</time></trkpt><trkpt lat="44.60937583575575" lon="10.160074851749584"><ele>488.20000000000005</ele><time>2026-04-24T12:56:33Z</time></trkpt><trkpt lat="44.60947018380843" lon="10.160112117661376"><ele>489.6</ele><time>2026-04-24T12:56:34Z</time></trkpt><trkpt lat="44.60956036472751" lon="10.16017966572623"><ele>491.0</ele><time>2026-04-24T12:56:35Z</time></trkpt><trkpt lat="44.60964127057206" lon="10.160211228479332"><ele>489.6</ele><time>2026-04-24T12:56:36Z</time></trkpt><trkpt lat="44.6097026771574" lon="10.160242879659469"><ele>488.20000000000005</ele><time>2026-04-24T12:56:37Z</time></trkpt><trkpt lat="44.609763461041254" lon="10.160290631878542"><ele>486.79999999999995</ele><time>2026-04-24T12:56:38Z</time></trkpt><trkpt lat="44.6098145394208" lon="10.16046394246045"><ele>485.4</ele><time>2026-04-24T12:56:40Z</time></trkpt><trkpt lat="44.609860289540094" lon="10.160558984152873"><ele>484.0</ele><time>2026-04-24T12:56:41Z</time></trkpt><trkpt lat="44.60988490320853" lon="10.160703080340479"><ele>484.0</ele><time>2026-04-24T12:56:42Z</time></trkpt><trkpt lat="44.60991874742892" lon="10.160848676386236"><ele>484.0</ele><time>2026-04-24T12:56:43Z</time></trkpt><trkpt lat="44.60995625751838" lon="10.160994879637228"><ele>484.0</ele><time>2026-04-24T12:56:44Z</time></trkpt><trkpt lat="44.60999753863053" lon="10.161152822316591"><ele>484.0</ele><time>2026-04-24T12:56:45Z</time></trkpt><trkpt lat="44.61003012173536" lon="10.161319282925001"><ele>484.0</ele><time>2026-04-24T12:56:46Z</time></trkpt><trkpt lat="44.61005782764402" lon="10.161483082277517"><ele>484.0</ele><time>2026-04-24T12:56:47Z</time></trkpt><trkpt lat="44.6100762189772" lon="10.161636740438682"><ele>484.0</ele><time>2026-04-24T12:56:48Z</time></trkpt><trkpt lat="44.61008175090408" lon="10.161782209778472"><ele>484.0</ele><time>2026-04-24T12:56:49Z</time></trkpt><trkpt lat="44.61007695966191" lon="10.161932669490302"><ele>484.0</ele><time>2026-04-24T12:56:50Z</time></trkpt><trkpt lat="44.61007263544948" lon="10.16208544445769"><ele>486.2</ele><time>2026-04-24T12:56:51Z</time></trkpt><trkpt lat="44.61007526420762" lon="10.162251957492565"><ele>488.4</ele><time>2026-04-24T12:56:52Z</time></trkpt><trkpt lat="44.610089352116866" lon="10.162401511557935"><ele>490.6</ele><time>2026-04-24T12:56:53Z</time></trkpt><trkpt lat="44.61012414842437" lon="10.162516597532933"><ele>492.8</ele><time>2026-04-24T12:56:53.999Z</time></trkpt><trkpt lat="44.61018364260682" lon="10.162600396664027"><ele>495.0</ele><time>2026-04-24T12:56:54.999Z</time></trkpt><trkpt lat="44.61026459852849" lon="10.162663015341394"><ele>498.0</ele><time>2026-04-24T12:56:55.999Z</time></trkpt><trkpt lat="44.61035867786653" lon="10.162732294315019"><ele>501.0</ele><time>2026-04-24T12:56:56.999Z</time></trkpt><trkpt lat="44.610452724067905" lon="10.162800713082328"><ele>504.0</ele><time>2026-04-24T12:56:57.999Z</time></trkpt><trkpt lat="44.61050759114882" lon="10.162886257089582"><ele>507.0</ele><time>2026-04-24T12:56:58.999Z</time></trkpt><trkpt lat="44.610595397566264" lon="10.16296867653733"><ele>510.0</ele><time>2026-04-24T12:57:00.999Z</time></trkpt><trkpt lat="44.61064512940245" lon="10.163064102905771"><ele>510.0</ele><time>2026-04-24T12:57:02.999Z</time></trkpt><trkpt lat="44.61065029748827" lon="10.16316749032688"><ele>510.0</ele><time>2026-04-24T12:57:03.999Z</time></trkpt><trkpt lat="44.61064494227157" lon="10.163292259418396"><ele>510.0</ele><time>2026-04-24T12:57:04.999Z</time></trkpt><trkpt lat="44.610629066824856" lon="10.163433409263133"><ele>510.0</ele><time>2026-04-24T12:57:05.999Z</time></trkpt><trkpt lat="44.61061258808051" lon="10.163575698201274"><ele>510.0</ele><time>2026-04-24T12:57:06.999Z</time></trkpt><trkpt lat="44.61059911571825" lon="10.163725549871604"><ele>511.8</ele><time>2026-04-24T12:57:07.999Z</time></trkpt><trkpt lat="44.61057806320832" lon="10.163873504526189"><ele>513.6</ele><time>2026-04-24T12:57:08.999Z</time></trkpt><trkpt lat="44.61055251131518" lon="10.164012714271749"><ele>515.4</ele><time>2026-04-24T12:57:09.999Z</time></trkpt><trkpt lat="44.61051765422766" lon="10.164123177312462"><ele>517.2</ele><time>2026-04-24T12:57:10.999Z</time></trkpt><trkpt lat="44.61050760955925" lon="10.164223879030668"><ele>519.0</ele><time>2026-04-24T12:57:11.999Z</time></trkpt><trkpt lat="44.610515021472175" lon="10.164380108039063"><ele>520.4</ele><time>2026-04-24T12:57:13.999Z</time></trkpt><trkpt lat="44.61059170233083" lon="10.16446198798766"><ele>521.8</ele><time>2026-04-24T12:57:15.999Z</time></trkpt><trkpt lat="44.610688615761894" lon="10.164585236643262"><ele>523.2</ele><time>2026-04-24T12:57:17.999Z</time></trkpt><trkpt lat="44.610737578831" lon="10.164671027514508"><ele>524.6</ele><time>2026-04-24T12:57:18.999Z</time></trkpt><trkpt lat="44.61079668058152" lon="10.16474641539923"><ele>526.0</ele><time>2026-04-24T12:57:19.999Z</time></trkpt><trkpt lat="44.61085672338714" lon="10.16480507370576"><ele>526.0</ele><time>2026-04-24T12:57:20.999Z</time></trkpt><trkpt lat="44.610922164828914" lon="10.16484855767249"><ele>526.0</ele><time>2026-04-24T12:57:21.999Z</time></trkpt><trkpt lat="44.6109955851246" lon="10.16487356437116"><ele>526.0</ele><time>2026-04-24T12:57:22.999Z</time></trkpt><trkpt lat="44.611074127476215" lon="10.164887894892201"><ele>526.0</ele><time>2026-04-24T12:57:23.999Z</time></trkpt><trkpt lat="44.611156565892394" lon="10.16487828329719"><ele>526.0</ele><time>2026-04-24T12:57:24.999Z</time></trkpt><trkpt lat="44.611242077414985" lon="10.164839730615295"><ele>526.0</ele><time>2026-04-24T12:57:25.999Z</time></trkpt><trkpt lat="44.611327409774205" lon="10.164791238456091"><ele>526.6</ele><time>2026-04-24T12:57:26.999Z</time></trkpt><trkpt lat="44.61142019819603" lon="10.164740599798158"><ele>527.2</ele><time>2026-04-24T12:57:27.999Z</time></trkpt><trkpt lat="44.611509577640376" lon="10.164689298506062"><ele>527.8</ele><time>2026-04-24T12:57:28.999Z</time></trkpt><trkpt lat="44.61159985179464" lon="10.164641071186065"><ele>528.4</ele><time>2026-04-24T12:57:29.999Z</time></trkpt><trkpt lat="44.611689359316735" lon="10.164581182383282"><ele>529.0</ele><time>2026-04-24T12:57:30.999Z</time></trkpt><trkpt lat="44.611778993118406" lon="10.164520622158674"><ele>529.0</ele><time>2026-04-24T12:57:31.999Z</time></trkpt><trkpt lat="44.61187039063326" lon="10.164458771391558"><ele>529.0</ele><time>2026-04-24T12:57:32.999Z</time></trkpt><trkpt lat="44.61196495966698" lon="10.164401546011957"><ele>529.0</ele><time>2026-04-24T12:57:33.999Z</time></trkpt><trkpt lat="44.6120621011467" lon="10.164340532144573"><ele>529.0</ele><time>2026-04-24T12:57:34.999Z</time></trkpt><trkpt lat="44.61215823776453" lon="10.164279713283504"><ele>529.0</ele><time>2026-04-24T12:57:35.999Z</time></trkpt><trkpt lat="44.61225145350118" lon="10.164222376348091"><ele>528.2</ele><time>2026-04-24T12:57:36.999Z</time></trkpt><trkpt lat="44.612335535924785" lon="10.164173105025972"><ele>527.4</ele><time>2026-04-24T12:57:37.999Z</time></trkpt><trkpt lat="44.61241267283721" lon="10.16413001218441"><ele>526.6</ele><time>2026-04-24T12:57:38.999Z</time></trkpt><trkpt lat="44.612474298902086" lon="10.164102401278104"><ele>525.8</ele><time>2026-04-24T12:57:39.999Z</time></trkpt><trkpt lat="44.612596303459675" lon="10.164080406968283"><ele>525.0</ele><time>2026-04-24T12:57:41.999Z</time></trkpt><trkpt lat="44.6127124333932" lon="10.164005065824199"><ele>525.0</ele><time>2026-04-24T12:57:43.999Z</time></trkpt><trkpt lat="44.61276769221683" lon="10.163955361272341"><ele>525.0</ele><time>2026-04-24T12:57:44.999Z</time></trkpt><trkpt lat="44.61287880937151" lon="10.163922138828163"><ele>525.0</ele><time>2026-04-24T12:57:46.999Z</time></trkpt><trkpt lat="44.61295090738726" lon="10.163969469792155"><ele>525.0</ele><time>2026-04-24T12:57:47.999Z</time></trkpt><trkpt lat="44.61303033557459" lon="10.163958759207166"><ele>525.0</ele><time>2026-04-24T12:57:48.999Z</time></trkpt><trkpt lat="44.61311078061274" lon="10.163969226782886"><ele>525.0</ele><time>2026-04-24T12:57:49.999Z</time></trkpt><trkpt lat="44.613180084698385" lon="10.163980028011409"><ele>528.2</ele><time>2026-04-24T12:57:50.999Z</time></trkpt><trkpt lat="44.61328294773279" lon="10.164043459422539"><ele>531.4</ele><time>2026-04-24T12:57:52.999Z</time></trkpt><trkpt lat="44.61329047792701" lon="10.164208519490566"><ele>534.6</ele><time>2026-04-24T12:57:54.998Z</time></trkpt><trkpt lat="44.613258350551725" lon="10.164320636167991"><ele>537.8</ele><time>2026-04-24T12:57:55.998Z</time></trkpt><trkpt lat="44.61322018164303" lon="10.164438661150358"><ele>541.0</ele><time>2026-04-24T12:57:56.998Z</time></trkpt><trkpt lat="44.61317940388222" lon="10.16458248428118"><ele>541.0</ele><time>2026-04-24T12:57:57.998Z</time></trkpt><trkpt lat="44.613144310150574" lon="10.164757369501139"><ele>541.0</ele><time>2026-04-24T12:57:58.998Z</time></trkpt><trkpt lat="44.61311851296878" lon="10.164924728957711"><ele>541.0</ele><time>2026-04-24T12:57:59.998Z</time></trkpt><trkpt lat="44.613078980154306" lon="10.165042970349113"><ele>541.0</ele><time>2026-04-24T12:58:00.998Z</time></trkpt><trkpt lat="44.613031926822046" lon="10.165120974995345"><ele>541.0</ele><time>2026-04-24T12:58:01.998Z</time></trkpt><trkpt lat="44.61297739111873" lon="10.165193472033103"><ele>541.1666666666667</ele><time>2026-04-24T12:58:02.998Z</time></trkpt><trkpt lat="44.612921113325854" lon="10.165274865540894"><ele>541.3333333333334</ele><time>2026-04-24T12:58:04Z</time></trkpt><trkpt lat="44.612846386259505" lon="10.16534301586548"><ele>541.5</ele><time>2026-04-24T12:58:05Z</time></trkpt><trkpt lat="44.612771511290845" lon="10.165428014739417"><ele>541.6666666666666</ele><time>2026-04-24T12:58:06Z</time></trkpt><trkpt lat="44.612703285054145" lon="10.16552386964166"><ele>541.8333333333333</ele><time>2026-04-24T12:58:07Z</time></trkpt><trkpt lat="44.61265785253079" lon="10.165625455336606"><ele>542.0</ele><time>2026-04-24T12:58:08Z</time></trkpt><trkpt lat="44.61262070595593" lon="10.165741556082915"><ele>546.25</ele><time>2026-04-24T12:58:09Z</time></trkpt><trkpt lat="44.6125777835604" lon="10.16587506559552"><ele>550.5</ele><time>2026-04-24T12:58:10Z</time></trkpt><trkpt lat="44.61252658877156" lon="10.166021820089373"><ele>554.75</ele><time>2026-04-24T12:58:11Z</time></trkpt><trkpt lat="44.61246737105588" lon="10.166186647262771"><ele>559.0</ele><time>2026-04-24T12:58:12Z</time></trkpt><trkpt lat="44.61241396236328" lon="10.166336168513924"><ele>559.0</ele><time>2026-04-24T12:58:13Z</time></trkpt><trkpt lat="44.61237566061982" lon="10.16646107869192"><ele>559.0</ele><time>2026-04-24T12:58:14Z</time></trkpt><trkpt lat="44.61234023538703" lon="10.166558786206947"><ele>559.0</ele><time>2026-04-24T12:58:15Z</time></trkpt><trkpt lat="44.61231639468099" lon="10.166644496519504"><ele>559.0</ele><time>2026-04-24T12:58:16Z</time></trkpt><trkpt lat="44.61230790260274" lon="10.166750590494688"><ele>559.0</ele><time>2026-04-24T12:58:17Z</time></trkpt><trkpt lat="44.61229448007104" lon="10.166896371009813"><ele>559.0</ele><time>2026-04-24T12:58:18Z</time></trkpt><trkpt lat="44.61226279227917" lon="10.167053631661828"><ele>560.0</ele><time>2026-04-24T12:58:19Z</time></trkpt><trkpt lat="44.61223593715866" lon="10.167215778169314"><ele>561.0</ele><time>2026-04-24T12:58:20Z</time></trkpt><trkpt lat="44.612219980638294" lon="10.167375718178246"><ele>562.0</ele><time>2026-04-24T12:58:21Z</time></trkpt><trkpt lat="44.61221631138839" lon="10.167535602383394"><ele>563.0</ele><time>2026-04-24T12:58:22Z</time></trkpt><trkpt lat="44.61222588240566" lon="10.167699025175363"><ele>563.25</ele><time>2026-04-24T12:58:23Z</time></trkpt><trkpt lat="44.61224455278951" lon="10.167864135346681"><ele>563.5</ele><time>2026-04-24T12:58:24Z</time></trkpt><trkpt lat="44.61226188693753" lon="10.16803333428689"><ele>563.75</ele><time>2026-04-24T12:58:25Z</time></trkpt><trkpt lat="44.61226867158936" lon="10.168196818681238"><ele>564.0</ele><time>2026-04-24T12:58:26Z</time></trkpt><trkpt lat="44.61227299065447" lon="10.168360832558818"><ele>565.4</ele><time>2026-04-24T12:58:27Z</time></trkpt><trkpt lat="44.612274546033056" lon="10.168526167409441"><ele>566.8</ele><time>2026-04-24T12:58:28Z</time></trkpt><trkpt lat="44.612277488782425" lon="10.168686664760205"><ele>568.2</ele><time>2026-04-24T12:58:29Z</time></trkpt><trkpt lat="44.612275412055794" lon="10.168838373274973"><ele>569.6</ele><time>2026-04-24T12:58:30Z</time></trkpt><trkpt lat="44.612274960212446" lon="10.168975479150982"><ele>571.0</ele><time>2026-04-24T12:58:31Z</time></trkpt><trkpt lat="44.61227193644105" lon="10.169108119497006"><ele>571.8333333333334</ele><time>2026-04-24T12:58:32Z</time></trkpt><trkpt lat="44.612270911493596" lon="10.169221209206404"><ele>572.6666666666667</ele><time>2026-04-24T12:58:33Z</time></trkpt><trkpt lat="44.61226213888622" lon="10.169316099149924"><ele>573.5</ele><time>2026-04-24T12:58:34Z</time></trkpt><trkpt lat="44.612226297514326" lon="10.169415724638089"><ele>574.3333333333334</ele><time>2026-04-24T12:58:35Z</time></trkpt><trkpt lat="44.61214862677346" lon="10.16948773252088"><ele>575.1666666666666</ele><time>2026-04-24T12:58:36Z</time></trkpt><trkpt lat="44.612107739725246" lon="10.169606141713741"><ele>576.0</ele><time>2026-04-24T12:58:37Z</time></trkpt><trkpt lat="44.61205758201336" lon="10.16968201390106"><ele>578.75</ele><time>2026-04-24T12:58:38Z</time></trkpt><trkpt lat="44.611941264799725" lon="10.169756275327378"><ele>581.5</ele><time>2026-04-24T12:58:40Z</time></trkpt><trkpt lat="44.61184149852442" lon="10.169765709789129"><ele>584.25</ele><time>2026-04-24T12:58:41Z</time></trkpt><trkpt lat="44.61173142142329" lon="10.169814932573265"><ele>587.0</ele><time>2026-04-24T12:58:42Z</time></trkpt><trkpt lat="44.61160858813379" lon="10.169902097767867"><ele>587.0</ele><time>2026-04-24T12:58:43Z</time></trkpt><trkpt lat="44.61147846505911" lon="10.169916432129593"><ele>587.0</ele><time>2026-04-24T12:58:44Z</time></trkpt><trkpt lat="44.61138448160869" lon="10.169951697436717"><ele>587.0</ele><time>2026-04-24T12:58:45Z</time></trkpt><trkpt lat="44.611320912639556" lon="10.170020175404142"><ele>587.0</ele><time>2026-04-24T12:58:46Z</time></trkpt><trkpt lat="44.61124781439526" lon="10.170086178390564"><ele>587.0</ele><time>2026-04-24T12:58:47Z</time></trkpt><trkpt lat="44.61118232495419" lon="10.170169106307053"><ele>593.0</ele><time>2026-04-24T12:58:48Z</time></trkpt><trkpt lat="44.61113024538191" lon="10.170258076927023"><ele>599.0</ele><time>2026-04-24T12:58:49Z</time></trkpt><trkpt lat="44.611083545569784" lon="10.170363758622681"><ele>605.0</ele><time>2026-04-24T12:58:50Z</time></trkpt><trkpt lat="44.6110547497249" lon="10.17048486192312"><ele>611.0</ele><time>2026-04-24T12:58:51Z</time></trkpt><trkpt lat="44.61103414631707" lon="10.170630190004307"><ele>617.0</ele><time>2026-04-24T12:58:52Z</time></trkpt><trkpt lat="44.61102350517261" lon="10.170789866623345"><ele>617.2</ele><time>2026-04-24T12:58:53Z</time></trkpt><trkpt lat="44.61100921090447" lon="10.170941157755408"><ele>617.4000000000001</ele><time>2026-04-24T12:58:54Z</time></trkpt><trkpt lat="44.610958293028666" lon="10.171061253646473"><ele>617.5999999999999</ele><time>2026-04-24T12:58:55Z</time></trkpt><trkpt lat="44.610912928332475" lon="10.171194823444027"><ele>617.8</ele><time>2026-04-24T12:58:56Z</time></trkpt><trkpt lat="44.610860350578214" lon="10.171328740065784"><ele>618.0</ele><time>2026-04-24T12:58:57Z</time></trkpt><trkpt lat="44.610808274261565" lon="10.171445286227023"><ele>615.1999999999999</ele><time>2026-04-24T12:58:58Z</time></trkpt><trkpt lat="44.61075815916547" lon="10.17153866193792"><ele>612.4</ele><time>2026-04-24T12:58:58.999Z</time></trkpt><trkpt lat="44.61070152113029" lon="10.17162197725764"><ele>609.5999999999999</ele><time>2026-04-24T12:58:59.999Z</time></trkpt><trkpt lat="44.61063300945705" lon="10.171706163285762"><ele>606.8</ele><time>2026-04-24T12:59:00.999Z</time></trkpt><trkpt lat="44.61056033631329" lon="10.171812047794596"><ele>604.0</ele><time>2026-04-24T12:59:01.999Z</time></trkpt><trkpt lat="44.61047234828778" lon="10.171886584810634"><ele>604.0</ele><time>2026-04-24T12:59:02.999Z</time></trkpt><trkpt lat="44.61040172705094" lon="10.171964843539214"><ele>604.0</ele><time>2026-04-24T12:59:03.999Z</time></trkpt><trkpt lat="44.610321021733235" lon="10.17200913819409"><ele>604.0</ele><time>2026-04-24T12:59:04.999Z</time></trkpt><trkpt lat="44.61023750910766" lon="10.172055550776406"><ele>604.0</ele><time>2026-04-24T12:59:05.999Z</time></trkpt><trkpt lat="44.61014041554451" lon="10.172120273904888"><ele>604.0</ele><time>2026-04-24T12:59:06.999Z</time></trkpt><trkpt lat="44.61004316709028" lon="10.172168553595075"><ele>608.1666666666667</ele><time>2026-04-24T12:59:07.999Z</time></trkpt><trkpt lat="44.609983385198134" lon="10.172238574669159"><ele>612.3333333333334</ele><time>2026-04-24T12:59:08.999Z</time></trkpt><trkpt lat="44.60993296859233" lon="10.172331133822547"><ele>616.5</ele><time>2026-04-24T12:59:09.999Z</time></trkpt><trkpt lat="44.60990740105458" lon="10.172448689239339"><ele>620.6666666666666</ele><time>2026-04-24T12:59:10.999Z</time></trkpt><trkpt lat="44.6099040599173" lon="10.172586511087177"><ele>624.8333333333333</ele><time>2026-04-24T12:59:11.999Z</time></trkpt><trkpt lat="44.60989460657225" lon="10.17271390754164"><ele>629.0</ele><time>2026-04-24T12:59:12.999Z</time></trkpt><trkpt lat="44.609869780901406" lon="10.172813797230821"><ele>629.0</ele><time>2026-04-24T12:59:13.999Z</time></trkpt><trkpt lat="44.60982102079646" lon="10.172906089284622"><ele>629.0</ele><time>2026-04-24T12:59:14.999Z</time></trkpt><trkpt lat="44.609757196314504" lon="10.173018992191471"><ele>629.0</ele><time>2026-04-24T12:59:15.999Z</time></trkpt><trkpt lat="44.60969234859069" lon="10.173147884748689"><ele>629.0</ele><time>2026-04-24T12:59:16.999Z</time></trkpt><trkpt lat="44.60964007855017" lon="10.173235588422058"><ele>629.0</ele><time>2026-04-24T12:59:17.999Z</time></trkpt><trkpt lat="44.609523477086164" lon="10.173246666185477"><ele>635.6</ele><time>2026-04-24T12:59:19.999Z</time></trkpt><trkpt lat="44.60945510770899" lon="10.17328206074843"><ele>642.2</ele><time>2026-04-24T12:59:20.999Z</time></trkpt><trkpt lat="44.609393019427266" lon="10.173317987694194"><ele>648.8000000000001</ele><time>2026-04-24T12:59:21.999Z</time></trkpt><trkpt lat="44.609324469462905" lon="10.173429401314504"><ele>655.4</ele><time>2026-04-24T12:59:23.999Z</time></trkpt><trkpt lat="44.60938471609895" lon="10.173608837820797"><ele>662.0</ele><time>2026-04-24T12:59:25.999Z</time></trkpt><trkpt lat="44.609460153495036" lon="10.173627309789515"><ele>654.8000000000001</ele><time>2026-04-24T12:59:26.999Z</time></trkpt><trkpt lat="44.609596490587194" lon="10.17365456241216"><ele>647.6</ele><time>2026-04-24T12:59:28.999Z</time></trkpt><trkpt lat="44.609677592691895" lon="10.17367449877631"><ele>640.4000000000001</ele><time>2026-04-24T12:59:29.999Z</time></trkpt><trkpt lat="44.60976219622976" lon="10.173717356335823"><ele>633.2</ele><time>2026-04-24T12:59:31.999Z</time></trkpt><trkpt lat="44.60980488713956" lon="10.173810399446984"><ele>626.0</ele><time>2026-04-24T13:05:49.999Z</time></trkpt><trkpt lat="44.60984823295052" lon="10.173926502288817"><ele>628.5</ele><time>2026-04-24T13:05:51.999Z</time></trkpt><trkpt lat="44.60987611089602" lon="10.17402854222281"><ele>631.0</ele><time>2026-04-24T13:05:53.999Z</time></trkpt><trkpt lat="44.6099199887606" lon="10.174148669727067"><ele>633.5</ele><time>2026-04-24T13:05:55.999Z</time></trkpt><trkpt lat="44.60994457753085" lon="10.17423322611105"><ele>636.0</ele><time>2026-04-24T13:06:07.998Z</time></trkpt><trkpt lat="44.609973274582174" lon="10.17431765925937"><ele>638.5</ele><time>2026-04-24T13:06:08.998Z</time></trkpt><trkpt lat="44.60998605826615" lon="10.174428720008505"><ele>641.0</ele><time>2026-04-24T13:06:09.998Z</time></trkpt><trkpt lat="44.61003405397743" lon="10.174501753975505"><ele>641.0</ele><time>2026-04-24T13:06:10.998Z</time></trkpt><trkpt lat="44.61006660558011" lon="10.174598815740172"><ele>641.0</ele><time>2026-04-24T13:06:11.998Z</time></trkpt><trkpt lat="44.61010747801802" lon="10.17468577674151"><ele>641.0</ele><time>2026-04-24T13:06:12.998Z</time></trkpt><trkpt lat="44.61016671319117" lon="10.174755215964279"><ele>641.0</ele><time>2026-04-24T13:06:13.998Z</time></trkpt><trkpt lat="44.61024036422608" lon="10.174799231046421"><ele>641.0</ele><time>2026-04-24T13:06:14.998Z</time></trkpt><trkpt lat="44.61032019347065" lon="10.174815050608913"><ele>641.0</ele><time>2026-04-24T13:06:15.998Z</time></trkpt><trkpt lat="44.610395424896375" lon="10.174846967035824"><ele>642.5</ele><time>2026-04-24T13:06:16.998Z</time></trkpt><trkpt lat="44.610473793324616" lon="10.174847991313591"><ele>644.0</ele><time>2026-04-24T13:06:17.998Z</time></trkpt><trkpt lat="44.61054462911388" lon="10.174839372607748"><ele>645.5</ele><time>2026-04-24T13:06:18.998Z</time></trkpt><trkpt lat="44.610618331042474" lon="10.174831237545547"><ele>647.0</ele><time>2026-04-24T13:06:19.998Z</time></trkpt><trkpt lat="44.610691856924475" lon="10.174830590834944"><ele>648.5</ele><time>2026-04-24T13:06:20.998Z</time></trkpt><trkpt lat="44.61080255181933" lon="10.174828122356853"><ele>650.0</ele><time>2026-04-24T13:06:22.998Z</time></trkpt><trkpt lat="44.610902723304356" lon="10.174948940866946"><ele>650.0</ele><time>2026-04-24T13:06:24.998Z</time></trkpt><trkpt lat="44.61091244221893" lon="10.175062455437219"><ele>650.0</ele><time>2026-04-24T13:06:25.998Z</time></trkpt><trkpt lat="44.61094899623346" lon="10.175135226042704"><ele>650.0</ele><time>2026-04-24T13:06:26.999Z</time></trkpt><trkpt lat="44.61097001173454" lon="10.175224689661357"><ele>650.0</ele><time>2026-04-24T13:06:27.999Z</time></trkpt><trkpt lat="44.61101023285989" lon="10.175320448065655"><ele>650.0</ele><time>2026-04-24T13:06:28.999Z</time></trkpt><trkpt lat="44.61105282181063" lon="10.175427515838354"><ele>650.0</ele><time>2026-04-24T13:06:29.999Z</time></trkpt><trkpt lat="44.61111603420049" lon="10.175535954227596"><ele>650.8</ele><time>2026-04-24T13:06:30.999Z</time></trkpt><trkpt lat="44.61119319563797" lon="10.175624650707887"><ele>651.6</ele><time>2026-04-24T13:06:31.999Z</time></trkpt><trkpt lat="44.61127993014178" lon="10.17567925047422"><ele>652.4000000000001</ele><time>2026-04-24T13:06:32.999Z</time></trkpt><trkpt lat="44.6113757949831" lon="10.17572849340507"><ele>653.2</ele><time>2026-04-24T13:06:33.999Z</time></trkpt><trkpt lat="44.61147316323648" lon="10.175756678669474"><ele>654.0</ele><time>2026-04-24T13:06:34.999Z</time></trkpt><trkpt lat="44.61157580624073" lon="10.175816449428524"><ele>654.0</ele><time>2026-04-24T13:06:35.999Z</time></trkpt><trkpt lat="44.61166719074106" lon="10.17585763159767"><ele>654.0</ele><time>2026-04-24T13:06:36.999Z</time></trkpt><trkpt lat="44.61174369168753" lon="10.17588905118695"><ele>654.0</ele><time>2026-04-24T13:06:37.999Z</time></trkpt><trkpt lat="44.611806287084384" lon="10.17592259090034"><ele>654.0</ele><time>2026-04-24T13:06:38.999Z</time></trkpt><trkpt lat="44.611868644721525" lon="10.176047304247403"><ele>654.0</ele><time>2026-04-24T13:06:40.999Z</time></trkpt><trkpt lat="44.61189135992804" lon="10.176129880506384"><ele>654.0</ele><time>2026-04-24T13:06:41.999Z</time></trkpt><trkpt lat="44.611909029954184" lon="10.176227803790786"><ele>654.0</ele><time>2026-04-24T13:06:42.999Z</time></trkpt><trkpt lat="44.611940515273936" lon="10.176340519612118"><ele>654.0</ele><time>2026-04-24T13:06:43.999Z</time></trkpt><trkpt lat="44.611976840318555" lon="10.176463229926973"><ele>654.0</ele><time>2026-04-24T13:06:44.999Z</time></trkpt><trkpt lat="44.612011211490056" lon="10.176589182195118"><ele>654.0</ele><time>2026-04-24T13:06:45.999Z</time></trkpt><trkpt lat="44.61203389158306" lon="10.176701306923498"><ele>654.0</ele><time>2026-04-24T13:06:46.999Z</time></trkpt><trkpt lat="44.61205504515921" lon="10.176793726980488"><ele>654.0</ele><time>2026-04-24T13:06:47.999Z</time></trkpt><trkpt lat="44.61204333870678" lon="10.176965364563769"><ele>654.6666666666666</ele><time>2026-04-24T13:06:49.999Z</time></trkpt><trkpt lat="44.61202031230123" lon="10.177057094096044"><ele>655.3333333333334</ele><time>2026-04-24T13:06:50.999Z</time></trkpt><trkpt lat="44.61198779481102" lon="10.177142666307313"><ele>656.0</ele><time>2026-04-24T13:06:51.999Z</time></trkpt><trkpt lat="44.611955190699966" lon="10.17722161581986"><ele>656.6666666666667</ele><time>2026-04-24T13:06:52.999Z</time></trkpt><trkpt lat="44.611896549768566" lon="10.177379432429245"><ele>657.3333333333334</ele><time>2026-04-24T13:06:54.999Z</time></trkpt><trkpt lat="44.61186866381421" lon="10.177462485983138"><ele>658.0</ele><time>2026-04-24T13:06:55.999Z</time></trkpt><trkpt lat="44.61183947821828" lon="10.177543002302949"><ele>659.2</ele><time>2026-04-24T13:06:56.999Z</time></trkpt><trkpt lat="44.611780411052344" lon="10.177690432841523"><ele>660.4</ele><time>2026-04-24T13:06:58.999Z</time></trkpt><trkpt lat="44.61175754992184" lon="10.177828763815317"><ele>661.6</ele><time>2026-04-24T13:07:00.999Z</time></trkpt><trkpt lat="44.611791229656085" lon="10.177961265999423"><ele>662.8000000000001</ele><time>2026-04-24T13:07:02.999Z</time></trkpt><trkpt lat="44.61184808055914" lon="10.178039855691386"><ele>664.0</ele><time>2026-04-24T13:07:04.999Z</time></trkpt><trkpt lat="44.6118956391829" lon="10.178114307940508"><ele>664.0</ele><time>2026-04-24T13:07:07.999Z</time></trkpt><trkpt lat="44.61183523697287" lon="10.178004046306347"><ele>664.0</ele><time>2026-04-24T13:07:14.999Z</time></trkpt><trkpt lat="44.61179212344685" lon="10.177906552905474"><ele>664.0</ele><time>2026-04-24T13:07:17.999Z</time></trkpt><trkpt lat="44.61178262257951" lon="10.177779910940593"><ele>664.0</ele><time>2026-04-24T13:07:20.999Z</time></trkpt><trkpt lat="44.61181348287745" lon="10.177616271535571"><ele>664.0</ele><time>2026-04-24T13:07:22.999Z</time></trkpt><trkpt lat="44.611873694458616" lon="10.177463321410187"><ele>664.0</ele><time>2026-04-24T13:07:24.999Z</time></trkpt><trkpt lat="44.61190816565205" lon="10.177383427380233"><ele>664.0</ele><time>2026-04-24T13:07:25.999Z</time></trkpt><trkpt lat="44.61193598822819" lon="10.17730013772835"><ele>664.0</ele><time>2026-04-24T13:07:26.998Z</time></trkpt><trkpt lat="44.61196472091519" lon="10.17721355915758"><ele>664.0</ele><time>2026-04-24T13:07:27.998Z</time></trkpt><trkpt lat="44.611993968150585" lon="10.177129987737532"><ele>664.0</ele><time>2026-04-24T13:07:28.998Z</time></trkpt><trkpt lat="44.612022490103655" lon="10.177040239067887"><ele>664.0</ele><time>2026-04-24T13:07:29.998Z</time></trkpt><trkpt lat="44.61204702134459" lon="10.176946163195103"><ele>664.0</ele><time>2026-04-24T13:07:30.998Z</time></trkpt><trkpt lat="44.61204736141506" lon="10.176770039966796"><ele>663.1428571428571</ele><time>2026-04-24T13:07:32.998Z</time></trkpt><trkpt lat="44.61203308293345" lon="10.176676826442467"><ele>662.2857142857143</ele><time>2026-04-24T13:07:33.998Z</time></trkpt><trkpt lat="44.61200593373592" lon="10.176578301298566"><ele>661.4285714285714</ele><time>2026-04-24T13:07:34.998Z</time></trkpt><trkpt lat="44.61197957951738" lon="10.176480641152635"><ele>660.5714285714286</ele><time>2026-04-24T13:07:35.998Z</time></trkpt><trkpt lat="44.611947796189945" lon="10.17638198075831"><ele>659.7142857142858</ele><time>2026-04-24T13:07:36.998Z</time></trkpt><trkpt lat="44.61192090100129" lon="10.176277944292206"><ele>658.8571428571429</ele><time>2026-04-24T13:07:37.998Z</time></trkpt><trkpt lat="44.61189626390039" lon="10.17617832680798"><ele>658.0</ele><time>2026-04-24T13:07:38.998Z</time></trkpt><trkpt lat="44.6118744223727" lon="10.176089992970676"><ele>657.3333333333334</ele><time>2026-04-24T13:07:39.998Z</time></trkpt><trkpt lat="44.61187449848717" lon="10.175994529796805"><ele>656.6666666666667</ele><time>2026-04-24T13:07:40.998Z</time></trkpt><trkpt lat="44.61179593821346" lon="10.175870576372265"><ele>656.0</ele><time>2026-04-24T13:07:42.998Z</time></trkpt><trkpt lat="44.61173200474964" lon="10.175835158135211"><ele>655.3333333333334</ele><time>2026-04-24T13:07:43.998Z</time></trkpt><trkpt lat="44.61166565274676" lon="10.175822915961788"><ele>654.6666666666666</ele><time>2026-04-24T13:07:44.998Z</time></trkpt><trkpt lat="44.611589626165774" lon="10.175789383601213"><ele>654.0</ele><time>2026-04-24T13:07:45.998Z</time></trkpt><trkpt lat="44.61151017828102" lon="10.175748394131322"><ele>654.0</ele><time>2026-04-24T13:07:46.998Z</time></trkpt><trkpt lat="44.611427972632235" lon="10.175706258359106"><ele>654.0</ele><time>2026-04-24T13:07:47.998Z</time></trkpt><trkpt lat="44.61134962170706" lon="10.175687682389176"><ele>654.0</ele><time>2026-04-24T13:07:48.998Z</time></trkpt><trkpt lat="44.61129470883117" lon="10.17563120978669"><ele>654.0</ele><time>2026-04-24T13:07:49.998Z</time></trkpt><trkpt lat="44.61121519673585" lon="10.175570905895489"><ele>654.0</ele><time>2026-04-24T13:07:50.998Z</time></trkpt><trkpt lat="44.61115097246119" lon="10.175499214350973"><ele>654.0</ele><time>2026-04-24T13:07:51.998Z</time></trkpt><trkpt lat="44.61108717287491" lon="10.175423525479138"><ele>653.3333333333334</ele><time>2026-04-24T13:07:52.998Z</time></trkpt><trkpt lat="44.61103397760874" lon="10.175339803181402"><ele>652.6666666666666</ele><time>2026-04-24T13:07:53.998Z</time></trkpt><trkpt lat="44.611006871777526" lon="10.175222760108072"><ele>652.0</ele><time>2026-04-24T13:07:54.998Z</time></trkpt><trkpt lat="44.61096807890902" lon="10.17511171281672"><ele>651.3333333333333</ele><time>2026-04-24T13:07:55.998Z</time></trkpt><trkpt lat="44.610921033827104" lon="10.175023575999017"><ele>650.6666666666666</ele><time>2026-04-24T13:07:56.998Z</time></trkpt><trkpt lat="44.61090480111137" lon="10.17492368974451"><ele>650.0</ele><time>2026-04-24T13:07:57.998Z</time></trkpt><trkpt lat="44.61085941466042" lon="10.174841076697849"><ele>648.5</ele><time>2026-04-24T13:07:59.998Z</time></trkpt><trkpt lat="44.61073609990371" lon="10.174785555321904"><ele>647.0</ele><time>2026-04-24T13:08:02.998Z</time></trkpt><trkpt lat="44.610648195783284" lon="10.174782628323314"><ele>645.5</ele><time>2026-04-24T13:08:03.998Z</time></trkpt><trkpt lat="44.61055844969529" lon="10.174794796194288"><ele>644.0</ele><time>2026-04-24T13:08:04.998Z</time></trkpt><trkpt lat="44.61048682730332" lon="10.174798964726305"><ele>642.5</ele><time>2026-04-24T13:08:05.998Z</time></trkpt><trkpt lat="44.61041994214386" lon="10.174813297901762"><ele>641.0</ele><time>2026-04-24T13:08:06.998Z</time></trkpt><trkpt lat="44.61030074706215" lon="10.17478310061865"><ele>641.0</ele><time>2026-04-24T13:08:08.998Z</time></trkpt><trkpt lat="44.61019679304086" lon="10.174726646417179"><ele>641.0</ele><time>2026-04-24T13:08:10.998Z</time></trkpt><trkpt lat="44.610125669118354" lon="10.174583542414387"><ele>641.0</ele><time>2026-04-24T13:08:12.998Z</time></trkpt><trkpt lat="44.610036638984184" lon="10.174456425250307"><ele>641.0</ele><time>2026-04-24T13:08:14.998Z</time></trkpt><trkpt lat="44.60999952461761" lon="10.174364892944357"><ele>641.0</ele><time>2026-04-24T13:08:15.998Z</time></trkpt><trkpt lat="44.60995347753598" lon="10.174272261576458"><ele>641.0</ele><time>2026-04-24T13:08:16.998Z</time></trkpt><trkpt lat="44.60993088061376" lon="10.17417396209612"><ele>641.0</ele><time>2026-04-24T13:08:17.998Z</time></trkpt><trkpt lat="44.609901703924464" lon="10.174073192555134"><ele>641.0</ele><time>2026-04-24T13:08:18.998Z</time></trkpt><trkpt lat="44.60987460470778" lon="10.173971446438085"><ele>641.0</ele><time>2026-04-24T13:08:19.998Z</time></trkpt><trkpt lat="44.609852940698" lon="10.173881624271637"><ele>641.0</ele><time>2026-04-24T13:08:20.998Z</time></trkpt><trkpt lat="44.60979877413075" lon="10.173747222739106"><ele>641.0</ele><time>2026-04-24T13:08:22.998Z</time></trkpt><trkpt lat="44.60972093372548" lon="10.173654712214491"><ele>638.5</ele><time>2026-04-24T13:08:24.998Z</time></trkpt><trkpt lat="44.60965354915678" lon="10.173626782486616"><ele>636.0</ele><time>2026-04-24T13:08:25.998Z</time></trkpt><trkpt lat="44.60958405343594" lon="10.173611964414793"><ele>633.5</ele><time>2026-04-24T13:08:26.998Z</time></trkpt><trkpt lat="44.6094809748104" lon="10.173571261164874"><ele>631.0</ele><time>2026-04-24T13:08:28.998Z</time></trkpt><trkpt lat="44.609392145216624" lon="10.173515142582998"><ele>628.5</ele><time>2026-04-24T13:08:30.998Z</time></trkpt><trkpt lat="44.60937523575783" lon="10.173382954946316"><ele>626.0</ele><time>2026-04-24T13:08:32.999Z</time></trkpt><trkpt lat="44.60947371864419" lon="10.173307674729045"><ele>626.0</ele><time>2026-04-24T13:08:34.999Z</time></trkpt><trkpt lat="44.6096045465095" lon="10.173284162414246"><ele>626.0</ele><time>2026-04-24T13:08:36.998Z</time></trkpt><trkpt lat="44.60969602087087" lon="10.173203702808609"><ele>626.0</ele><time>2026-04-24T13:08:38.999Z</time></trkpt><trkpt lat="44.60976785332368" lon="10.173044539634"><ele>626.0</ele><time>2026-04-24T13:08:40.999Z</time></trkpt><trkpt lat="44.60981314659144" lon="10.172944394032907"><ele>626.4285714285714</ele><time>2026-04-24T13:08:41.999Z</time></trkpt><trkpt lat="44.609859405072946" lon="10.17284833360478"><ele>626.8571428571429</ele><time>2026-04-24T13:08:42.999Z</time></trkpt><trkpt lat="44.609897111642596" lon="10.17275982530147"><ele>627.2857142857142</ele><time>2026-04-24T13:08:43.999Z</time></trkpt><trkpt lat="44.60991843000204" lon="10.172662065620823"><ele>627.7142857142858</ele><time>2026-04-24T13:08:44.998Z</time></trkpt><trkpt lat="44.60993197052976" lon="10.17256316674831"><ele>628.1428571428572</ele><time>2026-04-24T13:08:45.998Z</time></trkpt><trkpt lat="44.60994093951652" lon="10.172467343568231"><ele>628.5714285714286</ele><time>2026-04-24T13:08:46.998Z</time></trkpt><trkpt lat="44.609954748103014" lon="10.172370631643961"><ele>629.0</ele><time>2026-04-24T13:08:47.998Z</time></trkpt><trkpt lat="44.610010811027244" lon="10.172242519821877"><ele>632.8</ele><time>2026-04-24T13:08:49.998Z</time></trkpt><trkpt lat="44.610109083124925" lon="10.172147924086872"><ele>636.5999999999999</ele><time>2026-04-24T13:08:51.998Z</time></trkpt><trkpt lat="44.6101820669098" lon="10.172107743793582"><ele>640.4</ele><time>2026-04-24T13:08:52.998Z</time></trkpt><trkpt lat="44.61025424253576" lon="10.17209264014497"><ele>644.1999999999999</ele><time>2026-04-24T13:08:53.999Z</time></trkpt><trkpt lat="44.61034756634099" lon="10.172049743987007"><ele>648.0</ele><time>2026-04-24T13:08:55.999Z</time></trkpt><trkpt lat="44.6104180649498" lon="10.17197148383241"><ele>639.1999999999999</ele><time>2026-04-24T13:09:04.999Z</time></trkpt><trkpt lat="44.61050859118638" lon="10.171905502348578"><ele>630.4</ele><time>2026-04-24T13:09:05.999Z</time></trkpt><trkpt lat="44.61056458396399" lon="10.17184571033442"><ele>621.5999999999999</ele><time>2026-04-24T13:09:06.999Z</time></trkpt><trkpt lat="44.61061618225658" lon="10.17178672867367"><ele>612.8</ele><time>2026-04-24T13:09:07.999Z</time></trkpt><trkpt lat="44.61070016228176" lon="10.171680444899481"><ele>604.0</ele><time>2026-04-24T13:09:09.999Z</time></trkpt><trkpt lat="44.61078167237333" lon="10.171553140481027"><ele>606.8</ele><time>2026-04-24T13:09:11.999Z</time></trkpt><trkpt lat="44.61084933988738" lon="10.171416980088747"><ele>609.5999999999999</ele><time>2026-04-24T13:09:13.999Z</time></trkpt><trkpt lat="44.61090186731884" lon="10.171291651548618"><ele>612.4</ele><time>2026-04-24T13:09:15.999Z</time></trkpt><trkpt lat="44.61093888897393" lon="10.171183937389001"><ele>615.1999999999999</ele><time>2026-04-24T13:09:17.999Z</time></trkpt><trkpt lat="44.61099408980776" lon="10.171062865091477"><ele>618.0</ele><time>2026-04-24T13:09:19.999Z</time></trkpt><trkpt lat="44.611005157214805" lon="10.170967536094684"><ele>618.0</ele><time>2026-04-24T13:09:20.999Z</time></trkpt><trkpt lat="44.61104516629177" lon="10.170866885340743"><ele>618.0</ele><time>2026-04-24T13:09:21.999Z</time></trkpt><trkpt lat="44.61106288607517" lon="10.170769698951673"><ele>618.0</ele><time>2026-04-24T13:09:22.999Z</time></trkpt><trkpt lat="44.61107834237493" lon="10.170670401951885"><ele>618.0</ele><time>2026-04-24T13:09:23.999Z</time></trkpt><trkpt lat="44.61109046355623" lon="10.170575265501805"><ele>618.0</ele><time>2026-04-24T13:09:24.999Z</time></trkpt><trkpt lat="44.61110203346982" lon="10.170484454454257"><ele>618.0</ele><time>2026-04-24T13:09:25.999Z</time></trkpt><trkpt lat="44.611142904031034" lon="10.17031361904181"><ele>613.5714285714287</ele><time>2026-04-24T13:09:27.999Z</time></trkpt><trkpt lat="44.611178892496824" lon="10.170233211097322"><ele>609.1428571428571</ele><time>2026-04-24T13:09:28.999Z</time></trkpt><trkpt lat="44.61122941594514" lon="10.170161409377512"><ele>604.7142857142858</ele><time>2026-04-24T13:09:29.999Z</time></trkpt><trkpt lat="44.611275389496676" lon="10.170085490657495"><ele>600.2857142857143</ele><time>2026-04-24T13:09:30.999Z</time></trkpt><trkpt lat="44.611337197232146" lon="10.17003181175474"><ele>595.8571428571429</ele><time>2026-04-24T13:09:31.999Z</time></trkpt><trkpt lat="44.61140283817921" lon="10.16999812542949"><ele>591.4285714285714</ele><time>2026-04-24T13:09:32.999Z</time></trkpt><trkpt lat="44.61148204829745" lon="10.169970742833122"><ele>587.0</ele><time>2026-04-24T13:09:33.999Z</time></trkpt><trkpt lat="44.611588600199354" lon="10.169929811805014"><ele>587.0</ele><time>2026-04-24T13:09:34.999Z</time></trkpt><trkpt lat="44.61171699355902" lon="10.169878867365249"><ele>587.0</ele><time>2026-04-24T13:09:35.999Z</time></trkpt><trkpt lat="44.611835419300355" lon="10.16981956450131"><ele>587.0</ele><time>2026-04-24T13:09:36.999Z</time></trkpt><trkpt lat="44.61192184999345" lon="10.169778321049286"><ele>587.0</ele><time>2026-04-24T13:09:37.999Z</time></trkpt><trkpt lat="44.61199114810381" lon="10.169750708117153"><ele>587.0</ele><time>2026-04-24T13:09:38.999Z</time></trkpt><trkpt lat="44.61209214349281" lon="10.169676367945915"><ele>585.4285714285714</ele><time>2026-04-24T13:09:40.999Z</time></trkpt><trkpt lat="44.61213388440019" lon="10.169599813145796"><ele>583.8571428571429</ele><time>2026-04-24T13:09:41.999Z</time></trkpt><trkpt lat="44.6121778884216" lon="10.16951317674968"><ele>582.2857142857143</ele><time>2026-04-24T13:09:42.999Z</time></trkpt><trkpt lat="44.61222680938972" lon="10.169436212683788"><ele>580.7142857142858</ele><time>2026-04-24T13:09:43.999Z</time></trkpt><trkpt lat="44.61226667880651" lon="10.169360755063565"><ele>579.1428571428571</ele><time>2026-04-24T13:09:44.999Z</time></trkpt><trkpt lat="44.61229145397233" lon="10.169274159319702"><ele>577.5714285714287</ele><time>2026-04-24T13:09:45.999Z</time></trkpt><trkpt lat="44.61231269512698" lon="10.169175876273027"><ele>576.0</ele><time>2026-04-24T13:09:46.999Z</time></trkpt><trkpt lat="44.61230730162073" lon="10.169062957838262"><ele>575.1666666666666</ele><time>2026-04-24T13:09:47.999Z</time></trkpt><trkpt lat="44.6123061440729" lon="10.168955092506847"><ele>574.3333333333334</ele><time>2026-04-24T13:09:48.999Z</time></trkpt><trkpt lat="44.612304913922095" lon="10.168840461762404"><ele>573.5</ele><time>2026-04-24T13:09:49.999Z</time></trkpt><trkpt lat="44.61230390416314" lon="10.168712284364736"><ele>572.6666666666667</ele><time>2026-04-24T13:09:50.999Z</time></trkpt><trkpt lat="44.61230258119917" lon="10.168576853877417"><ele>571.8333333333334</ele><time>2026-04-24T13:09:51.999Z</time></trkpt><trkpt lat="44.61230264651666" lon="10.168451470732652"><ele>571.0</ele><time>2026-04-24T13:09:52.999Z</time></trkpt><trkpt lat="44.61230264651826" lon="10.16833110961288"><ele>571.0</ele><time>2026-04-24T13:09:53.999Z</time></trkpt><trkpt lat="44.61230103262462" lon="10.168214555975954"><ele>571.0</ele><time>2026-04-24T13:09:54.999Z</time></trkpt><trkpt lat="44.61229815268431" lon="10.16810459914154"><ele>571.0</ele><time>2026-04-24T13:09:55.999Z</time></trkpt><trkpt lat="44.612292100093185" lon="10.167996443783075"><ele>571.0</ele><time>2026-04-24T13:09:56.999Z</time></trkpt><trkpt lat="44.61228652595125" lon="10.16788706004463"><ele>571.0</ele><time>2026-04-24T13:09:57.999Z</time></trkpt><trkpt lat="44.61228074780217" lon="10.167780613351102"><ele>571.0</ele><time>2026-04-24T13:09:58.999Z</time></trkpt><trkpt lat="44.61227354935686" lon="10.16766797056908"><ele>569.8333333333334</ele><time>2026-04-24T13:09:59.999Z</time></trkpt><trkpt lat="44.61226659182378" lon="10.167559098146672"><ele>568.6666666666667</ele><time>2026-04-24T13:10:00.999Z</time></trkpt><trkpt lat="44.61226358432782" lon="10.167457450473448"><ele>567.5</ele><time>2026-04-24T13:10:01.999Z</time></trkpt><trkpt lat="44.61226476721558" lon="10.167350458857669"><ele>566.3333333333334</ele><time>2026-04-24T13:10:02.999Z</time></trkpt><trkpt lat="44.61227533792665" lon="10.167236589734932"><ele>565.1666666666666</ele><time>2026-04-24T13:10:03.999Z</time></trkpt><trkpt lat="44.61228961858671" lon="10.167123298414136"><ele>564.0</ele><time>2026-04-24T13:10:04.999Z</time></trkpt><trkpt lat="44.61230536595559" lon="10.167013262363128"><ele>563.8</ele><time>2026-04-24T13:10:05.999Z</time></trkpt><trkpt lat="44.612322940418395" lon="10.166906118779304"><ele>563.5999999999999</ele><time>2026-04-24T13:10:06.999Z</time></trkpt><trkpt lat="44.61232510110433" lon="10.166796079360319"><ele>563.4</ele><time>2026-04-24T13:10:07.999Z</time></trkpt><trkpt lat="44.612356395476375" lon="10.166708497392618"><ele>563.1999999999999</ele><time>2026-04-24T13:10:08.999Z</time></trkpt><trkpt lat="44.61238696917484" lon="10.16655812440747"><ele>563.0</ele><time>2026-04-24T13:10:10.999Z</time></trkpt><trkpt lat="44.61242473081259" lon="10.166398673673346"><ele>562.3333333333333</ele><time>2026-04-24T13:10:12.998Z</time></trkpt><trkpt lat="44.61244702069057" lon="10.16628989051317"><ele>561.6666666666666</ele><time>2026-04-24T13:10:13.998Z</time></trkpt><trkpt lat="44.61248458051138" lon="10.166174381926972"><ele>561.0</ele><time>2026-04-24T13:10:14.998Z</time></trkpt><trkpt lat="44.612524401694394" lon="10.16607273222161"><ele>560.3333333333334</ele><time>2026-04-24T13:10:15.998Z</time></trkpt><trkpt lat="44.61256138171842" lon="10.16597763283443"><ele>559.6666666666667</ele><time>2026-04-24T13:10:16.998Z</time></trkpt><trkpt lat="44.612595145892115" lon="10.165884069280867"><ele>559.0</ele><time>2026-04-24T13:10:17.998Z</time></trkpt><trkpt lat="44.612626981820775" lon="10.165788736507055"><ele>559.0</ele><time>2026-04-24T13:10:18.998Z</time></trkpt><trkpt lat="44.61266068917126" lon="10.165697271142184"><ele>559.0</ele><time>2026-04-24T13:10:19.998Z</time></trkpt><trkpt lat="44.612710746730144" lon="10.165610410868656"><ele>559.0</ele><time>2026-04-24T13:10:20.998Z</time></trkpt><trkpt lat="44.61273785872678" lon="10.165512179659558"><ele>559.0</ele><time>2026-04-24T13:10:21.998Z</time></trkpt><trkpt lat="44.61278572327973" lon="10.16543997048001"><ele>559.0</ele><time>2026-04-24T13:10:22.998Z</time></trkpt><trkpt lat="44.61284098584878" lon="10.165379093252106"><ele>559.0</ele><time>2026-04-24T13:10:23.998Z</time></trkpt><trkpt lat="44.61289778417653" lon="10.165324420334967"><ele>559.0</ele><time>2026-04-24T13:10:24.998Z</time></trkpt><trkpt lat="44.61295480582655" lon="10.165268518726913"><ele>556.1666666666667</ele><time>2026-04-24T13:10:25.998Z</time></trkpt><trkpt lat="44.613013653270805" lon="10.165205839877416"><ele>553.3333333333334</ele><time>2026-04-24T13:10:26.998Z</time></trkpt><trkpt lat="44.61306815257289" lon="10.165129461333075"><ele>550.5</ele><time>2026-04-24T13:10:27.998Z</time></trkpt><trkpt lat="44.61310927616513" lon="10.165034245200014"><ele>547.6666666666666</ele><time>2026-04-24T13:10:28.998Z</time></trkpt><trkpt lat="44.613134587143236" lon="10.164920785589462"><ele>544.8333333333333</ele><time>2026-04-24T13:10:29.998Z</time></trkpt><trkpt lat="44.6131703484146" lon="10.1648193630821"><ele>542.0</ele><time>2026-04-24T13:10:30.998Z</time></trkpt><trkpt lat="44.61319195426139" lon="10.16470089541418"><ele>541.8333333333333</ele><time>2026-04-24T13:10:31.998Z</time></trkpt><trkpt lat="44.61321584077696" lon="10.164585754175354"><ele>541.6666666666666</ele><time>2026-04-24T13:10:32.998Z</time></trkpt><trkpt lat="44.61324440370873" lon="10.164477920140513"><ele>541.5</ele><time>2026-04-24T13:10:33.998Z</time></trkpt><trkpt lat="44.61327599005179" lon="10.164370814554312"><ele>541.3333333333334</ele><time>2026-04-24T13:10:34.998Z</time></trkpt><trkpt lat="44.6133017767655" lon="10.16426690165215"><ele>541.1666666666667</ele><time>2026-04-24T13:10:35.998Z</time></trkpt><trkpt lat="44.61332381762468" lon="10.16416561621509"><ele>541.0</ele><time>2026-04-24T13:10:36.998Z</time></trkpt><trkpt lat="44.61330167115811" lon="10.16399621815489"><ele>539.8333333333334</ele><time>2026-04-24T13:10:39Z</time></trkpt><trkpt lat="44.61323428010931" lon="10.163954263535397"><ele>538.6666666666667</ele><time>2026-04-24T13:10:40Z</time></trkpt><trkpt lat="44.61315761163675" lon="10.1639715570772"><ele>537.5</ele><time>2026-04-24T13:10:41Z</time></trkpt><trkpt lat="44.61308870758975" lon="10.163939355062627"><ele>536.3333333333334</ele><time>2026-04-24T13:10:42Z</time></trkpt><trkpt lat="44.61300642417189" lon="10.163928910901538"><ele>535.1666666666666</ele><time>2026-04-24T13:10:43Z</time></trkpt><trkpt lat="44.61290918322104" lon="10.163918053914083"><ele>534.0</ele><time>2026-04-24T13:10:44Z</time></trkpt><trkpt lat="44.61281753647026" lon="10.163930430608877"><ele>535.4</ele><time>2026-04-24T13:10:45Z</time></trkpt><trkpt lat="44.612748746826085" lon="10.163928426132568"><ele>536.8</ele><time>2026-04-24T13:10:46Z</time></trkpt><trkpt lat="44.61263785687826" lon="10.164009662984533"><ele>538.2</ele><time>2026-04-24T13:10:48Z</time></trkpt><trkpt lat="44.61255156405798" lon="10.164074771730977"><ele>539.6</ele><time>2026-04-24T13:10:50Z</time></trkpt><trkpt lat="44.612449760794554" lon="10.16407795803839"><ele>541.0</ele><time>2026-04-24T13:10:52Z</time></trkpt><trkpt lat="44.61238275287106" lon="10.164132643866843"><ele>541.0</ele><time>2026-04-24T13:10:53Z</time></trkpt><trkpt lat="44.61228877217475" lon="10.164188829976181"><ele>541.0</ele><time>2026-04-24T13:10:54Z</time></trkpt><trkpt lat="44.61215209620021" lon="10.16424958213315"><ele>541.0</ele><time>2026-04-24T13:10:55Z</time></trkpt><trkpt lat="44.611997260218516" lon="10.164347706283445"><ele>541.0</ele><time>2026-04-24T13:10:56Z</time></trkpt><trkpt lat="44.61184932683979" lon="10.164442274712489"><ele>538.0</ele><time>2026-04-24T13:10:57Z</time></trkpt><trkpt lat="44.611726530025784" lon="10.164516825952692"><ele>535.0</ele><time>2026-04-24T13:10:58Z</time></trkpt><trkpt lat="44.61161553879651" lon="10.164582244350067"><ele>532.0</ele><time>2026-04-24T13:10:59Z</time></trkpt><trkpt lat="44.611511167048526" lon="10.164645083389814"><ele>529.0</ele><time>2026-04-24T13:11:00Z</time></trkpt><trkpt lat="44.611417495795735" lon="10.164702272742456"><ele>529.0</ele><time>2026-04-24T13:11:01Z</time></trkpt><trkpt lat="44.61133084930618" lon="10.164750511239749"><ele>529.0</ele><time>2026-04-24T13:11:02Z</time></trkpt><trkpt lat="44.61125079253377" lon="10.16479161028127"><ele>529.0</ele><time>2026-04-24T13:11:03Z</time></trkpt><trkpt lat="44.61117160812147" lon="10.164824144840887"><ele>529.0</ele><time>2026-04-24T13:11:04Z</time></trkpt><trkpt lat="44.61109439938262" lon="10.164842791714115"><ele>529.0</ele><time>2026-04-24T13:11:04.999Z</time></trkpt><trkpt lat="44.611023008612456" lon="10.164833431074142"><ele>529.0</ele><time>2026-04-24T13:11:05.999Z</time></trkpt><trkpt lat="44.61095299687735" lon="10.164814756767875"><ele>528.5</ele><time>2026-04-24T13:11:06.999Z</time></trkpt><trkpt lat="44.61088519050584" lon="10.164786811745673"><ele>528.0</ele><time>2026-04-24T13:11:07.999Z</time></trkpt><trkpt lat="44.61083032441089" lon="10.164726393196494"><ele>527.5</ele><time>2026-04-24T13:11:08.999Z</time></trkpt><trkpt lat="44.6107728379058" lon="10.164654430570291"><ele>527.0</ele><time>2026-04-24T13:11:09.999Z</time></trkpt><trkpt lat="44.61070137167774" lon="10.164565506989234"><ele>526.5</ele><time>2026-04-24T13:11:10.999Z</time></trkpt><trkpt lat="44.610631879424076" lon="10.164472535932287"><ele>526.0</ele><time>2026-04-24T13:11:11.999Z</time></trkpt><trkpt lat="44.61057001713982" lon="10.164381646079867"><ele>526.0</ele><time>2026-04-24T13:11:12.999Z</time></trkpt><trkpt lat="44.61054548430354" lon="10.16429689121715"><ele>526.0</ele><time>2026-04-24T13:11:13.999Z</time></trkpt><trkpt lat="44.6105424916289" lon="10.164100249513673"><ele>526.0</ele><time>2026-04-24T13:11:15.999Z</time></trkpt><trkpt lat="44.61058017670313" lon="10.163961082061176"><ele>526.0</ele><time>2026-04-24T13:11:16.999Z</time></trkpt><trkpt lat="44.61060554289551" lon="10.163818008636774"><ele>526.0</ele><time>2026-04-24T13:11:17.999Z</time></trkpt><trkpt lat="44.6106238181071" lon="10.163666190626918"><ele>524.6</ele><time>2026-04-24T13:11:18.999Z</time></trkpt><trkpt lat="44.61063139637231" lon="10.163523844656874"><ele>523.2</ele><time>2026-04-24T13:11:19.999Z</time></trkpt><trkpt lat="44.61065632107046" lon="10.163392175773847"><ele>521.8</ele><time>2026-04-24T13:11:20.999Z</time></trkpt><trkpt lat="44.610651772871016" lon="10.16326162250488"><ele>520.4</ele><time>2026-04-24T13:11:21.999Z</time></trkpt><trkpt lat="44.610660498705876" lon="10.163149754721454"><ele>519.0</ele><time>2026-04-24T13:11:22.999Z</time></trkpt><trkpt lat="44.61066352760014" lon="10.163016202801732"><ele>517.2</ele><time>2026-04-24T13:11:24.999Z</time></trkpt><trkpt lat="44.610691209930316" lon="10.162894820655021"><ele>515.4</ele><time>2026-04-24T13:11:28.999Z</time></trkpt><trkpt lat="44.610742823773215" lon="10.162821690099122"><ele>513.6</ele><time>2026-04-24T13:11:30.999Z</time></trkpt><trkpt lat="44.610837391626376" lon="10.162783386523227"><ele>511.8</ele><time>2026-04-24T13:11:32.999Z</time></trkpt><trkpt lat="44.61094307199692" lon="10.162765880657089"><ele>510.0</ele><time>2026-04-24T13:11:34.999Z</time></trkpt><trkpt lat="44.61104654070273" lon="10.162737509404847"><ele>510.0</ele><time>2026-04-24T13:11:36.999Z</time></trkpt><trkpt lat="44.61114844890887" lon="10.162721672454937"><ele>510.0</ele><time>2026-04-24T13:11:38.999Z</time></trkpt><trkpt lat="44.61125425660478" lon="10.16269553919464"><ele>510.0</ele><time>2026-04-24T13:11:40.999Z</time></trkpt><trkpt lat="44.6113710799289" lon="10.162652464405832"><ele>510.0</ele><time>2026-04-24T13:11:42.999Z</time></trkpt><trkpt lat="44.61146789600547" lon="10.1625729427834"><ele>510.0</ele><time>2026-04-24T13:11:44.999Z</time></trkpt><trkpt lat="44.61153397891811" lon="10.162439652294823"><ele>509.5</ele><time>2026-04-24T13:11:46.999Z</time></trkpt><trkpt lat="44.61158492516831" lon="10.162361878733593"><ele>509.0</ele><time>2026-04-24T13:11:48.999Z</time></trkpt><trkpt lat="44.611510497346984" lon="10.162518241327739"><ele>508.5</ele><time>2026-04-24T13:11:55.999Z</time></trkpt><trkpt lat="44.61146156368813" lon="10.162601148501684"><ele>508.0</ele><time>2026-04-24T13:11:56.999Z</time></trkpt><trkpt lat="44.61140464869053" lon="10.162656649451819"><ele>507.5</ele><time>2026-04-24T13:11:57.999Z</time></trkpt><trkpt lat="44.61134275727517" lon="10.16267794427482"><ele>507.0</ele><time>2026-04-24T13:11:58.999Z</time></trkpt><trkpt lat="44.61123278461372" lon="10.162706070087038"><ele>507.6</ele><time>2026-04-24T13:12:00.999Z</time></trkpt><trkpt lat="44.61110569594981" lon="10.162733315247177"><ele>508.20000000000005</ele><time>2026-04-24T13:12:02.999Z</time></trkpt><trkpt lat="44.61102659177874" lon="10.162750268863658"><ele>508.8</ele><time>2026-04-24T13:12:03.999Z</time></trkpt><trkpt lat="44.61093480080201" lon="10.162772237601962"><ele>509.4</ele><time>2026-04-24T13:12:04.999Z</time></trkpt><trkpt lat="44.610828711419906" lon="10.162797627784562"><ele>510.0</ele><time>2026-04-24T13:12:05.999Z</time></trkpt><trkpt lat="44.6107417091834" lon="10.162790203598055"><ele>510.0</ele><time>2026-04-24T13:12:06.999Z</time></trkpt><trkpt lat="44.61068639843616" lon="10.162837920625565"><ele>510.0</ele><time>2026-04-24T13:12:07.999Z</time></trkpt><trkpt lat="44.61061688056057" lon="10.162834070619706"><ele>510.0</ele><time>2026-04-24T13:12:09.999Z</time></trkpt><trkpt lat="44.61057648860095" lon="10.162924212646672"><ele>510.0</ele><time>2026-04-24T13:12:11.999Z</time></trkpt><trkpt lat="44.610671711822484" lon="10.162886424815941"><ele>510.0</ele><time>2026-04-24T13:12:14.999Z</time></trkpt><trkpt lat="44.610694640088845" lon="10.162792274451208"><ele>510.0</ele><time>2026-04-24T13:12:15.999Z</time></trkpt><trkpt lat="44.61034619303831" lon="10.162608406057153"><ele>509.8</ele><time>2026-04-24T13:12:16.999Z</time></trkpt><trkpt lat="44.61023549705769" lon="10.162615220936782"><ele>509.6</ele><time>2026-04-24T13:12:17.999Z</time></trkpt><trkpt lat="44.610177982761876" lon="10.162545100410048"><ele>509.4</ele><time>2026-04-24T13:12:18.999Z</time></trkpt><trkpt lat="44.61011425663692" lon="10.162396516149744"><ele>509.2</ele><time>2026-04-24T13:12:20.999Z</time></trkpt><trkpt lat="44.610105722246544" lon="10.162295966249273"><ele>509.0</ele><time>2026-04-24T13:12:21.999Z</time></trkpt><trkpt lat="44.61010630103214" lon="10.162185717167068"><ele>506.2</ele><time>2026-04-24T13:12:22.999Z</time></trkpt><trkpt lat="44.61010405243386" lon="10.162067619002858"><ele>503.4</ele><time>2026-04-24T13:12:23.999Z</time></trkpt><trkpt lat="44.61008746654265" lon="10.161945596465761"><ele>500.6</ele><time>2026-04-24T13:12:24.999Z</time></trkpt><trkpt lat="44.610104956450044" lon="10.161814788104882"><ele>497.8</ele><time>2026-04-24T13:12:25.999Z</time></trkpt><trkpt lat="44.61010453102263" lon="10.161681362109709"><ele>495.0</ele><time>2026-04-24T13:12:26.999Z</time></trkpt><trkpt lat="44.61009201737195" lon="10.161531393782214"><ele>492.8</ele><time>2026-04-24T13:12:27.999Z</time></trkpt><trkpt lat="44.61006777690192" lon="10.161384138034373"><ele>490.6</ele><time>2026-04-24T13:12:28.999Z</time></trkpt><trkpt lat="44.61003816025319" lon="10.161233288685047"><ele>488.4</ele><time>2026-04-24T13:12:29.999Z</time></trkpt><trkpt lat="44.610007189185964" lon="10.16108508211634"><ele>486.2</ele><time>2026-04-24T13:12:30.999Z</time></trkpt><trkpt lat="44.609957817013914" lon="10.16094909933122"><ele>484.0</ele><time>2026-04-24T13:12:31.999Z</time></trkpt><trkpt lat="44.60992669131584" lon="10.16082115581837"><ele>484.00000000000006</ele><time>2026-04-24T13:12:32.999Z</time></trkpt><trkpt lat="44.609905053654174" lon="10.160721713405982"><ele>484.0</ele><time>2026-04-24T13:12:33.999Z</time></trkpt><trkpt lat="44.609871371256894" lon="10.160566316594647"><ele>484.0</ele><time>2026-04-24T13:12:35.999Z</time></trkpt><trkpt lat="44.60983036510718" lon="10.160402863491875"><ele>484.0</ele><time>2026-04-24T13:12:37.999Z</time></trkpt><trkpt lat="44.60979821700817" lon="10.160326408840254"><ele>484.00000000000006</ele><time>2026-04-24T13:12:38.999Z</time></trkpt><trkpt lat="44.60975310206829" lon="10.160260803566205"><ele>484.0</ele><time>2026-04-24T13:12:39.999Z</time></trkpt><trkpt lat="44.609705639152914" lon="10.160192721265773"><ele>485.4</ele><time>2026-04-24T13:12:40.999Z</time></trkpt><trkpt lat="44.60963102019672" lon="10.160153680422193"><ele>486.79999999999995</ele><time>2026-04-24T13:12:41.999Z</time></trkpt><trkpt lat="44.6095439000819" lon="10.160122282668135"><ele>488.20000000000005</ele><time>2026-04-24T13:12:42.999Z</time></trkpt><trkpt lat="44.6094480155655" lon="10.160075533232293"><ele>489.6</ele><time>2026-04-24T13:12:44Z</time></trkpt><trkpt lat="44.60936644621402" lon="10.160013435599492"><ele>491.0</ele><time>2026-04-24T13:12:45Z</time></trkpt><trkpt lat="44.60929133934768" lon="10.159946555438125"><ele>491.0</ele><time>2026-04-24T13:12:46Z</time></trkpt><trkpt lat="44.609235966190866" lon="10.159885751669405"><ele>491.0</ele><time>2026-04-24T13:12:47Z</time></trkpt><trkpt lat="44.60916669164049" lon="10.159754979507198"><ele>491.0</ele><time>2026-04-24T13:12:49Z</time></trkpt><trkpt lat="44.6091203716961" lon="10.159620571810457"><ele>491.0</ele><time>2026-04-24T13:12:51Z</time></trkpt><trkpt lat="44.60902258028431" lon="10.159546146430959"><ele>491.0</ele><time>2026-04-24T13:12:53Z</time></trkpt><trkpt lat="44.60894095729385" lon="10.159532573432822"><ele>489.6</ele><time>2026-04-24T13:12:54Z</time></trkpt><trkpt lat="44.60887446524072" lon="10.159517364876374"><ele>488.20000000000005</ele><time>2026-04-24T13:12:55Z</time></trkpt><trkpt lat="44.60882433258514" lon="10.15943810292233"><ele>486.79999999999995</ele><time>2026-04-24T13:12:57Z</time></trkpt><trkpt lat="44.60887411489772" lon="10.159308851813838"><ele>485.4</ele><time>2026-04-24T13:12:59Z</time></trkpt><trkpt lat="44.609002800871735" lon="10.159284864114241"><ele>484.0</ele><time>2026-04-24T13:13:01Z</time></trkpt><trkpt lat="44.609079407339415" lon="10.159281320052981"><ele>484.0</ele><time>2026-04-24T13:13:02Z</time></trkpt><trkpt lat="44.60916683466558" lon="10.159267856821165"><ele>484.0</ele><time>2026-04-24T13:13:03Z</time></trkpt><trkpt lat="44.60925033121966" lon="10.159236081501522"><ele>484.0</ele><time>2026-04-24T13:13:04Z</time></trkpt><trkpt lat="44.60932975277341" lon="10.15910704960372"><ele>484.0</ele><time>2026-04-24T13:13:07Z</time></trkpt><trkpt lat="44.60936170821244" lon="10.158997699185965"><ele>484.0</ele><time>2026-04-24T13:13:08Z</time></trkpt><trkpt lat="44.60939794409742" lon="10.15886057214771"><ele>485.6666666666667</ele><time>2026-04-24T13:13:09Z</time></trkpt><trkpt lat="44.60945935000487" lon="10.158730483966998"><ele>487.33333333333337</ele><time>2026-04-24T13:13:10Z</time></trkpt><trkpt lat="44.609492503324056" lon="10.158621440923605"><ele>489.0</ele><time>2026-04-24T13:13:11Z</time></trkpt><trkpt lat="44.60952003066841" lon="10.158520053618838"><ele>490.66666666666663</ele><time>2026-04-24T13:13:12Z</time></trkpt><trkpt lat="44.609524518111705" lon="10.158413827345777"><ele>492.3333333333333</ele><time>2026-04-24T13:13:13Z</time></trkpt><trkpt lat="44.60954381247057" lon="10.158305879377476"><ele>494.0</ele><time>2026-04-24T13:13:14Z</time></trkpt><trkpt lat="44.609563113223544" lon="10.158184722395612"><ele>487.79999999999995</ele><time>2026-04-24T13:13:15Z</time></trkpt><trkpt lat="44.60959069894547" lon="10.158042324957764"><ele>481.59999999999997</ele><time>2026-04-24T13:13:16Z</time></trkpt><trkpt lat="44.60962966493619" lon="10.15790245276565"><ele>475.4</ele><time>2026-04-24T13:13:17Z</time></trkpt><trkpt lat="44.609669156579756" lon="10.157779863502784"><ele>469.2</ele><time>2026-04-24T13:13:18Z</time></trkpt><trkpt lat="44.60969947946741" lon="10.157655615958351"><ele>463.0</ele><time>2026-04-24T13:13:19Z</time></trkpt><trkpt lat="44.60974888056867" lon="10.157539445611667"><ele>463.0</ele><time>2026-04-24T13:13:20Z</time></trkpt><trkpt lat="44.60981729350216" lon="10.157448509205084"><ele>462.99999999999994</ele><time>2026-04-24T13:13:21Z</time></trkpt><trkpt lat="44.609858457534436" lon="10.157335199734424"><ele>462.99999999999994</ele><time>2026-04-24T13:13:22Z</time></trkpt><trkpt lat="44.609921367003665" lon="10.157239384023153"><ele>463.0</ele><time>2026-04-24T13:13:23Z</time></trkpt><trkpt lat="44.60999586801543" lon="10.15714514719381"><ele>463.0</ele><time>2026-04-24T13:13:24Z</time></trkpt><trkpt lat="44.610084310052436" lon="10.157085964578592"><ele>462.1666666666667</ele><time>2026-04-24T13:13:25Z</time></trkpt><trkpt lat="44.61015746621046" lon="10.15699899642249"><ele>461.33333333333337</ele><time>2026-04-24T13:13:26Z</time></trkpt><trkpt lat="44.61023851496405" lon="10.156937775029471"><ele>460.5</ele><time>2026-04-24T13:13:27Z</time></trkpt><trkpt lat="44.610312879356776" lon="10.156892244389024"><ele>459.66666666666663</ele><time>2026-04-24T13:13:28Z</time></trkpt><trkpt lat="44.610376853799245" lon="10.156832604201727"><ele>458.8333333333333</ele><time>2026-04-24T13:13:29Z</time></trkpt><trkpt lat="44.61043730607663" lon="10.156765765985094"><ele>458.0</ele><time>2026-04-24T13:13:30Z</time></trkpt><trkpt lat="44.61049387555989" lon="10.156665859092037"><ele>458.0</ele><time>2026-04-24T13:13:31Z</time></trkpt><trkpt lat="44.610570713485394" lon="10.156539076909791"><ele>457.99999999999994</ele><time>2026-04-24T13:13:32Z</time></trkpt><trkpt lat="44.610652859415865" lon="10.156423995422992"><ele>457.99999999999994</ele><time>2026-04-24T13:13:33Z</time></trkpt><trkpt lat="44.6107237704131" lon="10.156345827088401"><ele>458.0</ele><time>2026-04-24T13:13:34Z</time></trkpt><trkpt lat="44.6108014329027" lon="10.156294402906454"><ele>458.0</ele><time>2026-04-24T13:13:35Z</time></trkpt><trkpt lat="44.610895724255734" lon="10.156286760935076"><ele>458.4</ele><time>2026-04-24T13:13:35.999Z</time></trkpt><trkpt lat="44.61098288065941" lon="10.156279763064498"><ele>458.79999999999995</ele><time>2026-04-24T13:13:36.999Z</time></trkpt><trkpt lat="44.611069460064414" lon="10.156278699995774"><ele>459.2</ele><time>2026-04-24T13:13:37.999Z</time></trkpt><trkpt lat="44.611161191847906" lon="10.156257650167152"><ele>459.6</ele><time>2026-04-24T13:13:38.999Z</time></trkpt><trkpt lat="44.61126663753486" lon="10.156274222879983"><ele>460.0</ele><time>2026-04-24T13:13:39.999Z</time></trkpt><trkpt lat="44.61135664546735" lon="10.156265917618672"><ele>460.0</ele><time>2026-04-24T13:13:40.999Z</time></trkpt><trkpt lat="44.61145353505607" lon="10.15623983811593"><ele>460.0</ele><time>2026-04-24T13:13:41.999Z</time></trkpt><trkpt lat="44.61154500722367" lon="10.156204686355972"><ele>460.0</ele><time>2026-04-24T13:13:42.999Z</time></trkpt><trkpt lat="44.61162767003716" lon="10.156164379905567"><ele>460.0</ele><time>2026-04-24T13:13:43.999Z</time></trkpt><trkpt lat="44.611702397883015" lon="10.156106440447122"><ele>460.0</ele><time>2026-04-24T13:13:44.999Z</time></trkpt><trkpt lat="44.611769854940015" lon="10.156023191340099"><ele>460.0</ele><time>2026-04-24T13:13:45.999Z</time></trkpt><trkpt lat="44.6118202652745" lon="10.155924550804077"><ele>460.0</ele><time>2026-04-24T13:13:46.999Z</time></trkpt><trkpt lat="44.611867495789085" lon="10.15581024060114"><ele>460.0</ele><time>2026-04-24T13:13:47.999Z</time></trkpt><trkpt lat="44.61193813048471" lon="10.155692815615712"><ele>460.0</ele><time>2026-04-24T13:13:48.999Z</time></trkpt><trkpt lat="44.61199301787925" lon="10.155565194188064"><ele>460.0</ele><time>2026-04-24T13:13:49.999Z</time></trkpt><trkpt lat="44.6120408378881" lon="10.155437045379328"><ele>458.2</ele><time>2026-04-24T13:13:50.999Z</time></trkpt><trkpt lat="44.61210275227884" lon="10.155325842087809"><ele>456.4</ele><time>2026-04-24T13:13:51.999Z</time></trkpt><trkpt lat="44.61217067698972" lon="10.155222145680629"><ele>454.6</ele><time>2026-04-24T13:13:52.999Z</time></trkpt><trkpt lat="44.61224155888538" lon="10.155131570413207"><ele>452.8</ele><time>2026-04-24T13:13:53.999Z</time></trkpt><trkpt lat="44.61232829169863" lon="10.155043965221354"><ele>451.0</ele><time>2026-04-24T13:13:54.999Z</time></trkpt><trkpt lat="44.61241143034952" lon="10.154960952199724"><ele>451.0</ele><time>2026-04-24T13:13:55.999Z</time></trkpt><trkpt lat="44.612488646385714" lon="10.154881966219822"><ele>451.0</ele><time>2026-04-24T13:13:56.999Z</time></trkpt><trkpt lat="44.61255966882027" lon="10.154803041783316"><ele>451.0</ele><time>2026-04-24T13:13:57.999Z</time></trkpt><trkpt lat="44.61261689935927" lon="10.154695875150752"><ele>451.0</ele><time>2026-04-24T13:13:58.999Z</time></trkpt><trkpt lat="44.61266737869703" lon="10.154583972011354"><ele>451.0</ele><time>2026-04-24T13:13:59.999Z</time></trkpt><trkpt lat="44.61271553886905" lon="10.154460794225207"><ele>450.6666666666667</ele><time>2026-04-24T13:14:00.999Z</time></trkpt><trkpt lat="44.61277903686369" lon="10.154363006502507"><ele>450.33333333333337</ele><time>2026-04-24T13:14:01.999Z</time></trkpt><trkpt lat="44.612828710331485" lon="10.154274148132545"><ele>450.0</ele><time>2026-04-24T13:14:02.999Z</time></trkpt><trkpt lat="44.61287878044029" lon="10.154197027756487"><ele>449.66666666666663</ele><time>2026-04-24T13:14:03.999Z</time></trkpt><trkpt lat="44.61291774323501" lon="10.15411667197913"><ele>449.3333333333333</ele><time>2026-04-24T13:14:04.999Z</time></trkpt><trkpt lat="44.61299236596327" lon="10.154091905260795"><ele>449.0</ele><time>2026-04-24T13:14:05.999Z</time></trkpt><trkpt lat="44.613072801252436" lon="10.154026890358212"><ele>449.0</ele><time>2026-04-24T13:14:06.999Z</time></trkpt><trkpt lat="44.613183708416784" lon="10.153968447251623"><ele>449.0</ele><time>2026-04-24T13:14:07.999Z</time></trkpt><trkpt lat="44.6132763330187" lon="10.153905176099645"><ele>449.0</ele><time>2026-04-24T13:14:08.999Z</time></trkpt><trkpt lat="44.61335853622738" lon="10.153858180692426"><ele>449.0</ele><time>2026-04-24T13:14:09.999Z</time></trkpt><trkpt lat="44.61343374663601" lon="10.153812801793435"><ele>449.0</ele><time>2026-04-24T13:14:10.999Z</time></trkpt><trkpt lat="44.6134847688396" lon="10.153750201368965"><ele>448.99999999999994</ele><time>2026-04-24T13:14:11.999Z</time></trkpt><trkpt lat="44.613527122314366" lon="10.153682599905983"><ele>449.0</ele><time>2026-04-24T13:14:12.999Z</time></trkpt><trkpt lat="44.61352247675891" lon="10.153580369128724"><ele>449.0</ele><time>2026-04-24T13:14:13.999Z</time></trkpt><trkpt lat="44.61346323189464" lon="10.15349797563073"><ele>449.0</ele><time>2026-04-24T13:14:14.999Z</time></trkpt><trkpt lat="44.61345166090737" lon="10.153410930685961"><ele>448.99999999999994</ele><time>2026-04-24T13:14:15.999Z</time></trkpt><trkpt lat="44.613429310761" lon="10.153327069103964"><ele>449.0</ele><time>2026-04-24T13:14:16.999Z</time></trkpt><trkpt lat="44.61338494803201" lon="10.153174233461243"><ele>447.8333333333333</ele><time>2026-04-24T13:14:18.999Z</time></trkpt><trkpt lat="44.61332846445846" lon="10.153006876894692"><ele>446.66666666666663</ele><time>2026-04-24T13:14:20.999Z</time></trkpt><trkpt lat="44.61330440639839" lon="10.152912851823391"><ele>445.5</ele><time>2026-04-24T13:14:21.999Z</time></trkpt><trkpt lat="44.61328130376054" lon="10.152810468388418"><ele>444.33333333333337</ele><time>2026-04-24T13:14:22.999Z</time></trkpt><trkpt lat="44.61326239148487" lon="10.152719940851837"><ele>443.1666666666667</ele><time>2026-04-24T13:14:23.999Z</time></trkpt><trkpt lat="44.61324689810549" lon="10.152602983759289"><ele>442.0</ele><time>2026-04-24T13:14:25.999Z</time></trkpt><trkpt lat="44.61325381686788" lon="10.15251157710769"><ele>442.00000000000006</ele><time>2026-04-24T13:14:27.999Z</time></trkpt><trkpt lat="44.6133283500013" lon="10.152447916935419"><ele>442.0</ele><time>2026-04-24T13:14:29.999Z</time></trkpt><trkpt lat="44.61344143071522" lon="10.152406845819963"><ele>442.0</ele><time>2026-04-24T13:14:31.999Z</time></trkpt><trkpt lat="44.61352548625248" lon="10.152374706057339"><ele>442.0</ele><time>2026-04-24T13:14:32.999Z</time></trkpt><trkpt lat="44.61360211045668" lon="10.152341527066552"><ele>442.00000000000006</ele><time>2026-04-24T13:14:33.999Z</time></trkpt><trkpt lat="44.613677153059136" lon="10.15231257895864"><ele>442.0</ele><time>2026-04-24T13:14:34.999Z</time></trkpt><trkpt lat="44.61375347916484" lon="10.152288467453738"><ele>439.6666666666667</ele><time>2026-04-24T13:14:35.999Z</time></trkpt><trkpt lat="44.61382451672989" lon="10.152268962056876"><ele>437.33333333333337</ele><time>2026-04-24T13:14:36.999Z</time></trkpt><trkpt lat="44.61388998661678" lon="10.152259472393164"><ele>435.0</ele><time>2026-04-24T13:14:37.999Z</time></trkpt><trkpt lat="44.613959229681676" lon="10.15226137023965"><ele>432.66666666666663</ele><time>2026-04-24T13:14:38.999Z</time></trkpt><trkpt lat="44.61402574519719" lon="10.152263044503268"><ele>430.3333333333333</ele><time>2026-04-24T13:14:39.999Z</time></trkpt><trkpt lat="44.61413850015505" lon="10.152226017279814"><ele>428.0</ele><time>2026-04-24T13:14:41.999Z</time></trkpt><trkpt lat="44.61421873683829" lon="10.152131961281949"><ele>428.0</ele><time>2026-04-24T13:14:43.999Z</time></trkpt><trkpt lat="44.61420111976177" lon="10.15204397358461"><ele>427.99999999999994</ele><time>2026-04-24T13:14:44.999Z</time></trkpt><trkpt lat="44.61419175659757" lon="10.151890789255653"><ele>427.99999999999994</ele><time>2026-04-24T13:14:46.999Z</time></trkpt><trkpt lat="44.61414521695194" lon="10.151745366712978"><ele>428.0</ele><time>2026-04-24T13:14:48.999Z</time></trkpt><trkpt lat="44.61413423263678" lon="10.151592303750544"><ele>428.0</ele><time>2026-04-24T13:14:50.999Z</time></trkpt><trkpt lat="44.61411011874189" lon="10.151453078970773"><ele>426.59999999999997</ele><time>2026-04-24T13:14:52.999Z</time></trkpt><trkpt lat="44.61408478019162" lon="10.151317993061149"><ele>425.19999999999993</ele><time>2026-04-24T13:14:54.999Z</time></trkpt><trkpt lat="44.6140580856172" lon="10.15118239770314"><ele>423.8</ele><time>2026-04-24T13:14:56.999Z</time></trkpt><trkpt lat="44.61403372962636" lon="10.151056112026703"><ele>422.4</ele><time>2026-04-24T13:14:58.999Z</time></trkpt><trkpt lat="44.61401303260332" lon="10.150938617191077"><ele>421.0</ele><time>2026-04-24T13:15:00.999Z</time></trkpt><trkpt lat="44.61398152085305" lon="10.150849017050458"><ele>421.0</ele><time>2026-04-24T13:15:02.999Z</time></trkpt><trkpt lat="44.61397033410987" lon="10.150735107244877"><ele>421.0</ele><time>2026-04-24T13:15:05.999Z</time></trkpt><trkpt lat="44.61399249727123" lon="10.15062930707878"><ele>421.0</ele><time>2026-04-24T13:15:07.999Z</time></trkpt><trkpt lat="44.61408681787653" lon="10.150511913946358"><ele>421.0</ele><time>2026-04-24T13:15:09.999Z</time></trkpt><trkpt lat="44.61419434524644" lon="10.15049648703982"><ele>421.0</ele><time>2026-04-24T13:15:11.999Z</time></trkpt><trkpt lat="44.614290329878706" lon="10.150584403643458"><ele>421.00000000000006</ele><time>2026-04-24T13:15:13.999Z</time></trkpt><trkpt lat="44.61434564918136" lon="10.150627485872686"><ele>421.0</ele><time>2026-04-24T13:15:14.999Z</time></trkpt><trkpt lat="44.614401241050594" lon="10.150673038195556"><ele>421.0</ele><time>2026-04-24T13:15:15.999Z</time></trkpt><trkpt lat="44.61445820332482" lon="10.15071558042388"><ele>421.0</ele><time>2026-04-24T13:15:16.999Z</time></trkpt><trkpt lat="44.61451943119546" lon="10.15076492730536"><ele>421.0</ele><time>2026-04-24T13:15:17.999Z</time></trkpt><trkpt lat="44.61458154433145" lon="10.15081602618796"><ele>421.00000000000006</ele><time>2026-04-24T13:15:18.999Z</time></trkpt><trkpt lat="44.614639632978246" lon="10.15085637320043"><ele>421.0</ele><time>2026-04-24T13:15:19.999Z</time></trkpt><trkpt lat="44.61472499845728" lon="10.150912258063505"><ele>417.00000000000006</ele><time>2026-04-24T13:15:21.999Z</time></trkpt><trkpt lat="44.61480630011877" lon="10.150838211215632"><ele>413.0</ele><time>2026-04-24T13:15:23.999Z</time></trkpt><trkpt lat="44.61483879581035" lon="10.150671864482284"><ele>409.0</ele><time>2026-04-24T13:15:25.999Z</time></trkpt><trkpt lat="44.61483886574026" lon="10.150578603122016"><ele>405.0</ele><time>2026-04-24T13:15:26.999Z</time></trkpt><trkpt lat="44.614836774195865" lon="10.150486316925123"><ele>401.00000000000006</ele><time>2026-04-24T13:15:27.999Z</time></trkpt><trkpt lat="44.61483174606999" lon="10.150396172417452"><ele>397.0</ele><time>2026-04-24T13:15:28.999Z</time></trkpt><trkpt lat="44.61482560687266" lon="10.150305161626843"><ele>396.33333333333337</ele><time>2026-04-24T13:15:29.999Z</time></trkpt><trkpt lat="44.61482235036352" lon="10.150213400472444"><ele>395.6666666666667</ele><time>2026-04-24T13:15:30.999Z</time></trkpt><trkpt lat="44.61482128010447" lon="10.150111960507141"><ele>395.0</ele><time>2026-04-24T13:15:31.999Z</time></trkpt><trkpt lat="44.61482633604226" lon="10.150018076921517"><ele>394.33333333333337</ele><time>2026-04-24T13:15:32.999Z</time></trkpt><trkpt lat="44.61484745200926" lon="10.149930240290006"><ele>393.6666666666667</ele><time>2026-04-24T13:15:33.999Z</time></trkpt><trkpt lat="44.614942024804044" lon="10.149844722644373"><ele>393.0</ele><time>2026-04-24T13:15:35.999Z</time></trkpt><trkpt lat="44.61505214621974" lon="10.149910066646298"><ele>393.0</ele><time>2026-04-24T13:15:37.999Z</time></trkpt><trkpt lat="44.615055071783594" lon="10.150103261720686"><ele>393.0</ele><time>2026-04-24T13:15:39.999Z</time></trkpt><trkpt lat="44.61507147756275" lon="10.150259378290418"><ele>393.0</ele><time>2026-04-24T13:15:41.999Z</time></trkpt><trkpt lat="44.61509728100224" lon="10.150418523512291"><ele>393.0</ele><time>2026-04-24T13:15:43.999Z</time></trkpt><trkpt lat="44.61517712305536" lon="10.150499569015201"><ele>393.0</ele><time>2026-04-24T13:15:45.999Z</time></trkpt><trkpt lat="44.61527686246041" lon="10.150448801148631"><ele>393.0</ele><time>2026-04-24T13:15:47.999Z</time></trkpt><trkpt lat="44.61531123815206" lon="10.15029711308357"><ele>393.0</ele><time>2026-04-24T13:15:49.999Z</time></trkpt><trkpt lat="44.61535704632694" lon="10.150145992051842"><ele>393.0</ele><time>2026-04-24T13:15:51.999Z</time></trkpt><trkpt lat="44.61538760184387" lon="10.149976843421227"><ele>388.79999999999995</ele><time>2026-04-24T13:15:53.999Z</time></trkpt><trkpt lat="44.615403287075395" lon="10.149886664725454"><ele>384.6</ele><time>2026-04-24T13:15:54.999Z</time></trkpt><trkpt lat="44.61543082452437" lon="10.14973772418685"><ele>380.4</ele><time>2026-04-24T13:15:56.999Z</time></trkpt><trkpt lat="44.61546461593059" lon="10.14957023197526"><ele>376.20000000000005</ele><time>2026-04-24T13:15:58.999Z</time></trkpt><trkpt lat="44.615539612042916" lon="10.149415284333102"><ele>372.0</ele><time>2026-04-24T13:16:05.999Z</time></trkpt><trkpt lat="44.61556065868493" lon="10.14927979931082"><ele>372.0</ele><time>2026-04-24T13:16:06.999Z</time></trkpt><trkpt lat="44.61559513557545" lon="10.149117502687663"><ele>372.0</ele><time>2026-04-24T13:16:07.999Z</time></trkpt><trkpt lat="44.6156474261469" lon="10.148954170329754"><ele>372.0</ele><time>2026-04-24T13:16:08.999Z</time></trkpt><trkpt lat="44.61572076685575" lon="10.148784396413884"><ele>372.0</ele><time>2026-04-24T13:16:09.999Z</time></trkpt><trkpt lat="44.615812178002706" lon="10.14861962361512"><ele>376.0</ele><time>2026-04-24T13:16:10.999Z</time></trkpt><trkpt lat="44.61591130915314" lon="10.14842973716705"><ele>380.0</ele><time>2026-04-24T13:16:11.999Z</time></trkpt><trkpt lat="44.616003053797264" lon="10.148232725102169"><ele>384.0</ele><time>2026-04-24T13:16:12.999Z</time></trkpt><trkpt lat="44.61605956841297" lon="10.148024682921568"><ele>386.33333333333337</ele><time>2026-04-24T13:16:13.999Z</time></trkpt><trkpt lat="44.616094309984284" lon="10.147834684183836"><ele>388.6666666666667</ele><time>2026-04-24T13:16:14.999Z</time></trkpt><trkpt lat="44.61609193008474" lon="10.14762663035494"><ele>391.0</ele><time>2026-04-24T13:16:15.999Z</time></trkpt><trkpt lat="44.61605341920794" lon="10.147403288899316"><ele>392.0</ele><time>2026-04-24T13:16:16.999Z</time></trkpt><trkpt lat="44.616011473825566" lon="10.147183291171105"><ele>393.0</ele><time>2026-04-24T13:16:17.999Z</time></trkpt><trkpt lat="44.616021576009345" lon="10.146937419539693"><ele>394.0</ele><time>2026-04-24T13:16:18.999Z</time></trkpt><trkpt lat="44.61602033707102" lon="10.146670866472242"><ele>396.0</ele><time>2026-04-24T13:16:19.999Z</time></trkpt><trkpt lat="44.61604282641487" lon="10.146391898739779"><ele>398.0</ele><time>2026-04-24T13:16:20.999Z</time></trkpt><trkpt lat="44.61605545419594" lon="10.14610532006389"><ele>400.0</ele><time>2026-04-24T13:16:21.999Z</time></trkpt><trkpt lat="44.616077118568626" lon="10.14584037592968"><ele>400.33333333333337</ele><time>2026-04-24T13:16:22.999Z</time></trkpt><trkpt lat="44.61610704121267" lon="10.145598384454972"><ele>400.66666666666663</ele><time>2026-04-24T13:16:23.999Z</time></trkpt><trkpt lat="44.616135466411464" lon="10.14536828113811"><ele>401.0</ele><time>2026-04-24T13:16:24.999Z</time></trkpt><trkpt lat="44.61616116885986" lon="10.145124347763486"><ele>388.3333333333333</ele><time>2026-04-24T13:16:25.999Z</time></trkpt><trkpt lat="44.616201041101576" lon="10.144879872452467"><ele>375.66666666666663</ele><time>2026-04-24T13:16:26.999Z</time></trkpt><trkpt lat="44.616205456411734" lon="10.144644676874282"><ele>363.0</ele><time>2026-04-24T13:16:27.999Z</time></trkpt><trkpt lat="44.61623875723089" lon="10.144428152418394"><ele>363.0</ele><time>2026-04-24T13:16:28.999Z</time></trkpt><trkpt lat="44.61623775552416" lon="10.144212738664308"><ele>363.0</ele><time>2026-04-24T13:16:29.999Z</time></trkpt><trkpt lat="44.61624648526978" lon="10.143995190081974"><ele>363.0</ele><time>2026-04-24T13:16:30.999Z</time></trkpt><trkpt lat="44.61621628648485" lon="10.143770080659309"><ele>371.0</ele><time>2026-04-24T13:16:31.999Z</time></trkpt><trkpt lat="44.616143292581036" lon="10.143565486052516"><ele>379.0</ele><time>2026-04-24T13:16:32.999Z</time></trkpt><trkpt lat="44.61603700490727" lon="10.143389336000762"><ele>387.0</ele><time>2026-04-24T13:16:33.999Z</time></trkpt><trkpt lat="44.61591581622766" lon="10.143228980080254"><ele>385.5</ele><time>2026-04-24T13:16:34.999Z</time></trkpt><trkpt lat="44.61582161960548" lon="10.143042346675122"><ele>384.0</ele><time>2026-04-24T13:16:35.999Z</time></trkpt><trkpt lat="44.61574529703336" lon="10.142877225237822"><ele>382.5</ele><time>2026-04-24T13:16:36.999Z</time></trkpt><trkpt lat="44.61570016175995" lon="10.142686771896582"><ele>381.0</ele><time>2026-04-24T13:16:37.999Z</time></trkpt><trkpt lat="44.61569343839736" lon="10.142478175165326"><ele>381.6666666666667</ele><time>2026-04-24T13:16:38.999Z</time></trkpt><trkpt lat="44.61570179968995" lon="10.142247729731505"><ele>382.33333333333337</ele><time>2026-04-24T13:16:39.999Z</time></trkpt><trkpt lat="44.615704159534594" lon="10.141988232666892"><ele>383.0</ele><time>2026-04-24T13:16:40.999Z</time></trkpt><trkpt lat="44.615712837607354" lon="10.141735331811718"><ele>379.33333333333337</ele><time>2026-04-24T13:16:41.999Z</time></trkpt><trkpt lat="44.615698315715846" lon="10.141489906425472"><ele>375.6666666666667</ele><time>2026-04-24T13:16:42.999Z</time></trkpt><trkpt lat="44.61565494407877" lon="10.141249625294707"><ele>372.0</ele><time>2026-04-24T13:16:43.999Z</time></trkpt><trkpt lat="44.615574800610425" lon="10.141012848249868"><ele>372.0</ele><time>2026-04-24T13:16:44.999Z</time></trkpt><trkpt lat="44.61548710733256" lon="10.140767400731646"><ele>372.0</ele><time>2026-04-24T13:16:45.999Z</time></trkpt><trkpt lat="44.61540726007127" lon="10.14051501830405"><ele>372.0</ele><time>2026-04-24T13:16:46.999Z</time></trkpt><trkpt lat="44.615324739655854" lon="10.14025943564134"><ele>376.33333333333337</ele><time>2026-04-24T13:16:47.999Z</time></trkpt><trkpt lat="44.61525529095239" lon="10.139996206105938"><ele>380.6666666666667</ele><time>2026-04-24T13:16:48.999Z</time></trkpt><trkpt lat="44.61516492458151" lon="10.13972940575795"><ele>385.0</ele><time>2026-04-24T13:16:49.999Z</time></trkpt><trkpt lat="44.615043046609934" lon="10.139481145929883"><ele>385.0</ele><time>2026-04-24T13:16:50.999Z</time></trkpt><trkpt lat="44.61490870668967" lon="10.139204995898453"><ele>385.0</ele><time>2026-04-24T13:16:51.999Z</time></trkpt><trkpt lat="44.61479261024523" lon="10.138918296469479"><ele>377.5</ele><time>2026-04-24T13:16:52.999Z</time></trkpt><trkpt lat="44.614649013242996" lon="10.138649621273283"><ele>370.0</ele><time>2026-04-24T13:16:53.999Z</time></trkpt><trkpt lat="44.61452893676429" lon="10.13835692332032"><ele>377.3333333333333</ele><time>2026-04-24T13:16:54.999Z</time></trkpt><trkpt lat="44.61441210760807" lon="10.138071507473729"><ele>384.66666666666663</ele><time>2026-04-24T13:16:56Z</time></trkpt><trkpt lat="44.61432546223019" lon="10.13779572662847"><ele>392.0</ele><time>2026-04-24T13:16:57Z</time></trkpt><trkpt lat="44.61423527141343" lon="10.137545166868634"><ele>385.3333333333333</ele><time>2026-04-24T13:16:58Z</time></trkpt><trkpt lat="44.614135278848224" lon="10.137297308054283"><ele>378.66666666666663</ele><time>2026-04-24T13:16:59Z</time></trkpt><trkpt lat="44.614010305531146" lon="10.137073359358265"><ele>372.0</ele><time>2026-04-24T13:17:00Z</time></trkpt><trkpt lat="44.61388636972713" lon="10.136852631763146"><ele>372.0</ele><time>2026-04-24T13:17:01Z</time></trkpt><trkpt lat="44.61376291725487" lon="10.136633473467505"><ele>372.0</ele><time>2026-04-24T13:17:02Z</time></trkpt><trkpt lat="44.61364107554274" lon="10.136418293049562"><ele>372.0</ele><time>2026-04-24T13:17:03Z</time></trkpt><trkpt lat="44.61350825000876" lon="10.136220336847982"><ele>372.6666666666667</ele><time>2026-04-24T13:17:04Z</time></trkpt><trkpt lat="44.61339510743734" lon="10.136013159458471"><ele>373.33333333333337</ele><time>2026-04-24T13:17:05Z</time></trkpt><trkpt lat="44.6133165592812" lon="10.135795194517994"><ele>374.0</ele><time>2026-04-24T13:17:06Z</time></trkpt><trkpt lat="44.61322845828399" lon="10.135602800295482"><ele>374.0</ele><time>2026-04-24T13:17:07Z</time></trkpt><trkpt lat="44.61315285839061" lon="10.135415400149467"><ele>374.0</ele><time>2026-04-24T13:17:08Z</time></trkpt><trkpt lat="44.61305769664807" lon="10.135235355649725"><ele>374.0</ele><time>2026-04-24T13:17:09Z</time></trkpt><trkpt lat="44.61292322505282" lon="10.135116009198647"><ele>375.0</ele><time>2026-04-24T13:17:10Z</time></trkpt><trkpt lat="44.61277790711393" lon="10.134999677811432"><ele>376.0</ele><time>2026-04-24T13:17:11Z</time></trkpt><trkpt lat="44.61263381716485" lon="10.134878051529638"><ele>377.0</ele><time>2026-04-24T13:17:12Z</time></trkpt><trkpt lat="44.6124797385682" lon="10.134766971939177"><ele>377.0</ele><time>2026-04-24T13:17:13Z</time></trkpt><trkpt lat="44.61232304236819" lon="10.134653992648865"><ele>377.0</ele><time>2026-04-24T13:17:14Z</time></trkpt><trkpt lat="44.612166237227456" lon="10.134540474730247"><ele>377.0</ele><time>2026-04-24T13:17:15Z</time></trkpt><trkpt lat="44.612013839227885" lon="10.134430951133117"><ele>378.5</ele><time>2026-04-24T13:17:16Z</time></trkpt><trkpt lat="44.61188062148757" lon="10.134329850884058"><ele>380.0</ele><time>2026-04-24T13:17:17Z</time></trkpt><trkpt lat="44.611765238915936" lon="10.134218628648744"><ele>381.5</ele><time>2026-04-24T13:17:18Z</time></trkpt><trkpt lat="44.611674526829276" lon="10.13406468908468"><ele>383.0</ele><time>2026-04-24T13:17:19Z</time></trkpt><trkpt lat="44.61157405336958" lon="10.133890093669084"><ele>383.0</ele><time>2026-04-24T13:17:20Z</time></trkpt><trkpt lat="44.61147458375917" lon="10.133708384203432"><ele>383.0</ele><time>2026-04-24T13:17:21Z</time></trkpt><trkpt lat="44.6113751706387" lon="10.133519059095407"><ele>383.0</ele><time>2026-04-24T13:17:22Z</time></trkpt><trkpt lat="44.61127745963876" lon="10.133325736910201"><ele>380.0</ele><time>2026-04-24T13:17:23Z</time></trkpt><trkpt lat="44.61118014755451" lon="10.133119667915032"><ele>377.0</ele><time>2026-04-24T13:17:24Z</time></trkpt><trkpt lat="44.61108559737208" lon="10.13291621704379"><ele>374.0</ele><time>2026-04-24T13:17:25Z</time></trkpt><trkpt lat="44.610984881170985" lon="10.132716207670441"><ele>379.5</ele><time>2026-04-24T13:17:26Z</time></trkpt><trkpt lat="44.610895179226404" lon="10.132535678090784"><ele>385.0</ele><time>2026-04-24T13:17:27Z</time></trkpt><trkpt lat="44.61083975843809" lon="10.132371712228634"><ele>390.5</ele><time>2026-04-24T13:17:28Z</time></trkpt><trkpt lat="44.61077980867893" lon="10.132261809721685"><ele>396.0</ele><time>2026-04-24T13:17:29Z</time></trkpt><trkpt lat="44.61076464541132" lon="10.132118655154656"><ele>396.0</ele><time>2026-04-24T13:17:30Z</time></trkpt><trkpt lat="44.610737112051844" lon="10.131972808363635"><ele>396.0</ele><time>2026-04-24T13:17:31Z</time></trkpt><trkpt lat="44.61074578026151" lon="10.131811533959885"><ele>396.0</ele><time>2026-04-24T13:17:32Z</time></trkpt><trkpt lat="44.61075886065388" lon="10.13164253330833"><ele>396.0</ele><time>2026-04-24T13:17:33Z</time></trkpt><trkpt lat="44.61075846131941" lon="10.131470731998258"><ele>392.5</ele><time>2026-04-24T13:17:34Z</time></trkpt><trkpt lat="44.61071769676331" lon="10.131289791759333"><ele>389.0</ele><time>2026-04-24T13:17:35Z</time></trkpt><trkpt lat="44.61065046960262" lon="10.131124439611717"><ele>385.5</ele><time>2026-04-24T13:17:36Z</time></trkpt><trkpt lat="44.61056864909674" lon="10.130973906185222"><ele>382.0</ele><time>2026-04-24T13:17:37Z</time></trkpt><trkpt lat="44.61048365838221" lon="10.1308257122822"><ele>378.3333333333333</ele><time>2026-04-24T13:17:38Z</time></trkpt><trkpt lat="44.61038751351808" lon="10.130667289815493"><ele>374.6666666666667</ele><time>2026-04-24T13:17:39Z</time></trkpt><trkpt lat="44.61028518632224" lon="10.130475552197838"><ele>371.0</ele><time>2026-04-24T13:17:40Z</time></trkpt><trkpt lat="44.610155288106476" lon="10.13026595153848"><ele>373.33333333333337</ele><time>2026-04-24T13:17:41Z</time></trkpt><trkpt lat="44.61001475504227" lon="10.13004484858237"><ele>375.6666666666667</ele><time>2026-04-24T13:17:42Z</time></trkpt><trkpt lat="44.609882893035184" lon="10.129837498981368"><ele>378.0</ele><time>2026-04-24T13:17:43Z</time></trkpt><trkpt lat="44.60975346340213" lon="10.129653272134158"><ele>378.0</ele><time>2026-04-24T13:17:44Z</time></trkpt><trkpt lat="44.60964467228737" lon="10.12947859881786"><ele>378.0</ele><time>2026-04-24T13:17:45Z</time></trkpt><trkpt lat="44.60953616723135" lon="10.12932025990785"><ele>378.0</ele><time>2026-04-24T13:17:46Z</time></trkpt><trkpt lat="44.60941216202444" lon="10.129204053291506"><ele>383.33333333333337</ele><time>2026-04-24T13:17:47Z</time></trkpt><trkpt lat="44.609253993035736" lon="10.129156821193005"><ele>388.6666666666667</ele><time>2026-04-24T13:17:48Z</time></trkpt><trkpt lat="44.60908683723155" lon="10.12915793734158"><ele>394.0</ele><time>2026-04-24T13:17:49Z</time></trkpt><trkpt lat="44.60892729530787" lon="10.129215630915148"><ele>394.0</ele><time>2026-04-24T13:17:50Z</time></trkpt><trkpt lat="44.60876525602015" lon="10.12927342245946"><ele>394.0</ele><time>2026-04-24T13:17:51Z</time></trkpt><trkpt lat="44.608605046922264" lon="10.1292804679848"><ele>394.0</ele><time>2026-04-24T13:17:52Z</time></trkpt><trkpt lat="44.608433169767025" lon="10.129264674897644"><ele>393.5</ele><time>2026-04-24T13:17:53Z</time></trkpt><trkpt lat="44.60827152501818" lon="10.129241779926291"><ele>393.0</ele><time>2026-04-24T13:17:54Z</time></trkpt><trkpt lat="44.60812672637145" lon="10.129216975880908"><ele>392.5</ele><time>2026-04-24T13:17:55Z</time></trkpt><trkpt lat="44.60799992447119" lon="10.12916428215924"><ele>392.0</ele><time>2026-04-24T13:17:56Z</time></trkpt><trkpt lat="44.60788603152375" lon="10.12904514289678"><ele>390.3333333333333</ele><time>2026-04-24T13:17:57Z</time></trkpt><trkpt lat="44.60778464593382" lon="10.128877640562424"><ele>388.66666666666663</ele><time>2026-04-24T13:17:58Z</time></trkpt><trkpt lat="44.6076892843497" lon="10.128689887481563"><ele>387.0</ele><time>2026-04-24T13:17:59Z</time></trkpt><trkpt lat="44.60758520112594" lon="10.128524636193141"><ele>387.0</ele><time>2026-04-24T13:18:00Z</time></trkpt><trkpt lat="44.60745941655097" lon="10.128395540159863"><ele>387.0</ele><time>2026-04-24T13:18:01Z</time></trkpt><trkpt lat="44.60730193680826" lon="10.128306573691972"><ele>387.0</ele><time>2026-04-24T13:18:02Z</time></trkpt><trkpt lat="44.607139193952875" lon="10.12824309313945"><ele>388.25</ele><time>2026-04-24T13:18:03Z</time></trkpt><trkpt lat="44.60698763118752" lon="10.128146004925107"><ele>389.5</ele><time>2026-04-24T13:18:04Z</time></trkpt><trkpt lat="44.60687081521505" lon="10.128039014033863"><ele>390.75</ele><time>2026-04-24T13:18:05Z</time></trkpt><trkpt lat="44.606785745876216" lon="10.127885085533277"><ele>392.0</ele><time>2026-04-24T13:18:06Z</time></trkpt><trkpt lat="44.60671262961002" lon="10.127677965661299"><ele>392.0</ele><time>2026-04-24T13:18:07Z</time></trkpt><trkpt lat="44.60662625788929" lon="10.127434222327567"><ele>392.0</ele><time>2026-04-24T13:18:08Z</time></trkpt><trkpt lat="44.60656260293444" lon="10.12719820046636"><ele>392.0</ele><time>2026-04-24T13:18:09Z</time></trkpt><trkpt lat="44.606496328919704" lon="10.12699928880551"><ele>390.3333333333333</ele><time>2026-04-24T13:18:10Z</time></trkpt><trkpt lat="44.60641508238128" lon="10.126818319277632"><ele>388.66666666666663</ele><time>2026-04-24T13:18:11Z</time></trkpt><trkpt lat="44.60630278040911" lon="10.126652233933061"><ele>387.0</ele><time>2026-04-24T13:18:12Z</time></trkpt><trkpt lat="44.606160942920575" lon="10.12650070231904"><ele>386.66666666666663</ele><time>2026-04-24T13:18:13Z</time></trkpt><trkpt lat="44.606003032163585" lon="10.126356173973262"><ele>386.3333333333333</ele><time>2026-04-24T13:18:14Z</time></trkpt><trkpt lat="44.60584105626326" lon="10.126216777581133"><ele>386.0</ele><time>2026-04-24T13:18:15Z</time></trkpt><trkpt lat="44.60568910645297" lon="10.126054693648594"><ele>386.0</ele><time>2026-04-24T13:18:16Z</time></trkpt><trkpt lat="44.605528049347605" lon="10.125911666904585"><ele>386.0</ele><time>2026-04-24T13:18:17Z</time></trkpt><trkpt lat="44.60536748632751" lon="10.125769078852258"><ele>386.0</ele><time>2026-04-24T13:18:18Z</time></trkpt><trkpt lat="44.6052055977295" lon="10.125625313721057"><ele>386.66666666666663</ele><time>2026-04-24T13:18:19Z</time></trkpt><trkpt lat="44.60504237331147" lon="10.125507369632514"><ele>387.33333333333337</ele><time>2026-04-24T13:18:20Z</time></trkpt><trkpt lat="44.604896073488845" lon="10.125377163428757"><ele>388.0</ele><time>2026-04-24T13:18:21Z</time></trkpt><trkpt lat="44.60475848826923" lon="10.125246541650654"><ele>388.0</ele><time>2026-04-24T13:18:22Z</time></trkpt><trkpt lat="44.604627993038" lon="10.12511289278891"><ele>388.0</ele><time>2026-04-24T13:18:23Z</time></trkpt><trkpt lat="44.604493979891515" lon="10.124994128337622"><ele>388.0</ele><time>2026-04-24T13:18:23.999Z</time></trkpt><trkpt lat="44.60436236574609" lon="10.124878008655152"><ele>389.25</ele><time>2026-04-24T13:18:24.999Z</time></trkpt><trkpt lat="44.60423476844713" lon="10.124765012577248"><ele>390.5</ele><time>2026-04-24T13:18:25.999Z</time></trkpt><trkpt lat="44.60410685337112" lon="10.124651596207768"><ele>391.75</ele><time>2026-04-24T13:18:26.999Z</time></trkpt><trkpt lat="44.603982936460554" lon="10.12454052306996"><ele>393.0</ele><time>2026-04-24T13:18:27.999Z</time></trkpt><trkpt lat="44.603852644785974" lon="10.124450779762851"><ele>393.0</ele><time>2026-04-24T13:18:28.999Z</time></trkpt><trkpt lat="44.60373891521467" lon="10.124347332177996"><ele>393.0</ele><time>2026-04-24T13:18:29.999Z</time></trkpt><trkpt lat="44.603637486400764" lon="10.124227191333851"><ele>393.0</ele><time>2026-04-24T13:18:30.999Z</time></trkpt><trkpt lat="44.603535589700726" lon="10.124134473522282"><ele>393.0</ele><time>2026-04-24T13:18:31.999Z</time></trkpt><trkpt lat="44.60343954711003" lon="10.124047157411562"><ele>393.5</ele><time>2026-04-24T13:18:32.999Z</time></trkpt><trkpt lat="44.60332845964224" lon="10.123973839011365"><ele>394.0</ele><time>2026-04-24T13:18:33.999Z</time></trkpt><trkpt lat="44.60322443173829" lon="10.123878348551607"><ele>394.5</ele><time>2026-04-24T13:18:34.999Z</time></trkpt><trkpt lat="44.60311631241794" lon="10.123784817192897"><ele>395.0</ele><time>2026-04-24T13:18:35.999Z</time></trkpt><trkpt lat="44.60301006873448" lon="10.123694686371934"><ele>395.0</ele><time>2026-04-24T13:18:36.999Z</time></trkpt><trkpt lat="44.602906565384394" lon="10.123604257308223"><ele>395.0</ele><time>2026-04-24T13:18:37.999Z</time></trkpt><trkpt lat="44.60281257446309" lon="10.123495724826942"><ele>395.0</ele><time>2026-04-24T13:18:38.999Z</time></trkpt><trkpt lat="44.60271010073666" lon="10.123405331238933"><ele>395.0</ele><time>2026-04-24T13:18:39.999Z</time></trkpt><trkpt lat="44.60261392521002" lon="10.123320333348882"><ele>394.75</ele><time>2026-04-24T13:18:40.999Z</time></trkpt><trkpt lat="44.60250997652056" lon="10.123228465714519"><ele>394.5</ele><time>2026-04-24T13:18:41.999Z</time></trkpt><trkpt lat="44.60240082462823" lon="10.123131848417698"><ele>394.25</ele><time>2026-04-24T13:18:42.999Z</time></trkpt><trkpt lat="44.602288824479494" lon="10.123032658276314"><ele>394.0</ele><time>2026-04-24T13:18:43.999Z</time></trkpt><trkpt lat="44.60217374927902" lon="10.12293079539101"><ele>394.0</ele><time>2026-04-24T13:18:44.999Z</time></trkpt><trkpt lat="44.60204828688496" lon="10.122846734304593"><ele>394.0</ele><time>2026-04-24T13:18:45.999Z</time></trkpt><trkpt lat="44.6019449298039" lon="10.122727024978854"><ele>394.0</ele><time>2026-04-24T13:18:46.999Z</time></trkpt><trkpt lat="44.601836366241116" lon="10.122629924234744"><ele>394.0</ele><time>2026-04-24T13:18:47.999Z</time></trkpt><trkpt lat="44.601731766153215" lon="10.122536368612652"><ele>394.4</ele><time>2026-04-24T13:18:48.999Z</time></trkpt><trkpt lat="44.60163150446642" lon="10.12244749432388"><ele>394.79999999999995</ele><time>2026-04-24T13:18:49.999Z</time></trkpt><trkpt lat="44.60152823933447" lon="10.12237919346187"><ele>395.20000000000005</ele><time>2026-04-24T13:18:50.999Z</time></trkpt><trkpt lat="44.601440653056244" lon="10.1222887054021"><ele>395.6</ele><time>2026-04-24T13:18:51.999Z</time></trkpt><trkpt lat="44.60135926083232" lon="10.122199152031344"><ele>396.0</ele><time>2026-04-24T13:18:52.999Z</time></trkpt><trkpt lat="44.60128235343659" lon="10.122109314385389"><ele>396.0</ele><time>2026-04-24T13:18:53.999Z</time></trkpt><trkpt lat="44.60120880342188" lon="10.12201375076647"><ele>396.0</ele><time>2026-04-24T13:18:54.999Z</time></trkpt><trkpt lat="44.6011453527142" lon="10.121913703590439"><ele>396.0</ele><time>2026-04-24T13:18:55.999Z</time></trkpt><trkpt lat="44.601099568053584" lon="10.12181651347988"><ele>396.0</ele><time>2026-04-24T13:18:56.999Z</time></trkpt><trkpt lat="44.60107382808172" lon="10.121719185027894"><ele>396.0</ele><time>2026-04-24T13:18:57.999Z</time></trkpt><trkpt lat="44.60106598516062" lon="10.121627630304705"><ele>396.0</ele><time>2026-04-24T13:18:58.999Z</time></trkpt><trkpt lat="44.60107713755604" lon="10.121526219338653"><ele>396.0</ele><time>2026-04-24T13:18:59.999Z</time></trkpt><trkpt lat="44.60112226791099" lon="10.121403412638625"><ele>396.0</ele><time>2026-04-24T13:19:00.999Z</time></trkpt><trkpt lat="44.601174303375316" lon="10.121243971313195"><ele>396.0</ele><time>2026-04-24T13:19:02.001Z</time></trkpt><trkpt lat="44.60123735334449" lon="10.121089402149131"><ele>396.0</ele><time>2026-04-24T13:19:03.001Z</time></trkpt><trkpt lat="44.60131066039803" lon="10.12093899662618"><ele>396.0</ele><time>2026-04-24T13:19:04.001Z</time></trkpt><trkpt lat="44.60138568521485" lon="10.12077955926721"><ele>396.0</ele><time>2026-04-24T13:19:05.001Z</time></trkpt><trkpt lat="44.60146460562963" lon="10.12060124283299"><ele>396.0</ele><time>2026-04-24T13:19:06.001Z</time></trkpt><trkpt lat="44.601548264399455" lon="10.120420493519926"><ele>396.0</ele><time>2026-04-24T13:19:07.001Z</time></trkpt><trkpt lat="44.60162391134585" lon="10.12024745541293"><ele>396.25</ele><time>2026-04-24T13:19:08.001Z</time></trkpt><trkpt lat="44.60169566459311" lon="10.12008413687099"><ele>396.5</ele><time>2026-04-24T13:19:09.001Z</time></trkpt><trkpt lat="44.601765468224926" lon="10.119934213385976"><ele>396.75</ele><time>2026-04-24T13:19:10.001Z</time></trkpt><trkpt lat="44.60182806005362" lon="10.119798185178224"><ele>397.0</ele><time>2026-04-24T13:19:11.001Z</time></trkpt><trkpt lat="44.60188847105735" lon="10.119665942685435"><ele>396.5</ele><time>2026-04-24T13:19:12.001Z</time></trkpt><trkpt lat="44.60195247150043" lon="10.119528000856993"><ele>396.0</ele><time>2026-04-24T13:19:13.001Z</time></trkpt><trkpt lat="44.60201946656657" lon="10.11937692763554"><ele>395.5</ele><time>2026-04-24T13:19:14.001Z</time></trkpt><trkpt lat="44.60208917786686" lon="10.119225116938889"><ele>395.0</ele><time>2026-04-24T13:19:15.001Z</time></trkpt><trkpt lat="44.6021611395539" lon="10.119065085001319"><ele>394.5</ele><time>2026-04-24T13:19:16.001Z</time></trkpt><trkpt lat="44.60223590362711" lon="10.118894806798462"><ele>394.0</ele><time>2026-04-24T13:19:17.001Z</time></trkpt><trkpt lat="44.602316105225675" lon="10.118717922641782"><ele>393.5</ele><time>2026-04-24T13:19:18.001Z</time></trkpt><trkpt lat="44.60239721674074" lon="10.118536513398574"><ele>393.0</ele><time>2026-04-24T13:19:19.001Z</time></trkpt><trkpt lat="44.60248218556333" lon="10.118347414537116"><ele>393.66666666666663</ele><time>2026-04-24T13:19:20.001Z</time></trkpt><trkpt lat="44.60256756278833" lon="10.118156925054514"><ele>394.3333333333333</ele><time>2026-04-24T13:19:21.001Z</time></trkpt><trkpt lat="44.602651509624934" lon="10.117970364800087"><ele>395.0</ele><time>2026-04-24T13:19:22.001Z</time></trkpt><trkpt lat="44.60273131206044" lon="10.117792798381084"><ele>395.0</ele><time>2026-04-24T13:19:23.001Z</time></trkpt><trkpt lat="44.602805096877965" lon="10.11762275916602"><ele>395.0</ele><time>2026-04-24T13:19:24.001Z</time></trkpt><trkpt lat="44.60288042262251" lon="10.117453532979184"><ele>395.0</ele><time>2026-04-24T13:19:25.001Z</time></trkpt><trkpt lat="44.60296296161247" lon="10.117292874533971"><ele>395.0</ele><time>2026-04-24T13:19:26.001Z</time></trkpt><trkpt lat="44.60306764778044" lon="10.11716018620822"><ele>397.5</ele><time>2026-04-24T13:19:27.001Z</time></trkpt><trkpt lat="44.60319594682519" lon="10.117063137891101"><ele>400.0</ele><time>2026-04-24T13:19:28.001Z</time></trkpt><trkpt lat="44.60334034351369" lon="10.117004186663653"><ele>402.5</ele><time>2026-04-24T13:19:29.001Z</time></trkpt><trkpt lat="44.603492537145634" lon="10.116987276127956"><ele>405.0</ele><time>2026-04-24T13:19:30.001Z</time></trkpt><trkpt lat="44.60364070822854" lon="10.117025290340166"><ele>406.66666666666663</ele><time>2026-04-24T13:19:31Z</time></trkpt><trkpt lat="44.603787088518246" lon="10.117101228069705"><ele>408.3333333333333</ele><time>2026-04-24T13:19:32Z</time></trkpt><trkpt lat="44.60393174375423" lon="10.1171811073845"><ele>410.0</ele><time>2026-04-24T13:19:33Z</time></trkpt><trkpt lat="44.604087005101334" lon="10.117244884514072"><ele>410.0</ele><time>2026-04-24T13:19:34Z</time></trkpt><trkpt lat="44.60424506814509" lon="10.117309314616172"><ele>410.0</ele><time>2026-04-24T13:19:35Z</time></trkpt><trkpt lat="44.60440584556579" lon="10.117380109723157"><ele>410.0</ele><time>2026-04-24T13:19:36Z</time></trkpt><trkpt lat="44.604567681788176" lon="10.117450384044004"><ele>408.3333333333333</ele><time>2026-04-24T13:19:37Z</time></trkpt><trkpt lat="44.60472954747146" lon="10.117521271425018"><ele>406.66666666666663</ele><time>2026-04-24T13:19:38Z</time></trkpt><trkpt lat="44.60488901179517" lon="10.117588484212872"><ele>405.0</ele><time>2026-04-24T13:19:39Z</time></trkpt><trkpt lat="44.60504916868504" lon="10.117656923787186"><ele>405.0</ele><time>2026-04-24T13:19:40Z</time></trkpt><trkpt lat="44.60520379859055" lon="10.117727531929743"><ele>405.0</ele><time>2026-04-24T13:19:41Z</time></trkpt><trkpt lat="44.60535610598536" lon="10.11779605914867"><ele>405.0</ele><time>2026-04-24T13:19:42Z</time></trkpt><trkpt lat="44.60550755528011" lon="10.117877651482408"><ele>404.0</ele><time>2026-04-24T13:19:43Z</time></trkpt><trkpt lat="44.6056572688755" lon="10.117989404182506"><ele>403.0</ele><time>2026-04-24T13:19:44Z</time></trkpt><trkpt lat="44.60579641691328" lon="10.118131408335632"><ele>402.0</ele><time>2026-04-24T13:19:45Z</time></trkpt><trkpt lat="44.605934440581976" lon="10.118287067799944"><ele>402.0</ele><time>2026-04-24T13:19:46Z</time></trkpt><trkpt lat="44.60607753027228" lon="10.118441214726912"><ele>402.0</ele><time>2026-04-24T13:19:47Z</time></trkpt><trkpt lat="44.606215566076266" lon="10.118571825591191"><ele>402.0</ele><time>2026-04-24T13:19:48Z</time></trkpt><trkpt lat="44.60632847652877" lon="10.118660615699318"><ele>403.6</ele><time>2026-04-24T13:19:49Z</time></trkpt><trkpt lat="44.60642284831869" lon="10.118680340531533"><ele>405.20000000000005</ele><time>2026-04-24T13:19:50Z</time></trkpt><trkpt lat="44.6065207127492" lon="10.118632708689265"><ele>406.8</ele><time>2026-04-24T13:19:51Z</time></trkpt><trkpt lat="44.606600531849395" lon="10.118509984306"><ele>408.4</ele><time>2026-04-24T13:19:52Z</time></trkpt><trkpt lat="44.6066355230561" lon="10.11834124206917"><ele>410.0</ele><time>2026-04-24T13:19:53Z</time></trkpt><trkpt lat="44.6066124752301" lon="10.118169697620774"><ele>412.25</ele><time>2026-04-24T13:19:54Z</time></trkpt><trkpt lat="44.606545233766916" lon="10.118004155651375"><ele>414.5</ele><time>2026-04-24T13:19:55Z</time></trkpt><trkpt lat="44.60644744567997" lon="10.11784054231658"><ele>416.75</ele><time>2026-04-24T13:19:56Z</time></trkpt><trkpt lat="44.606358754973265" lon="10.117664395545516"><ele>419.0</ele><time>2026-04-24T13:19:57Z</time></trkpt><trkpt lat="44.60627669275884" lon="10.117479131177314"><ele>419.0</ele><time>2026-04-24T13:19:58Z</time></trkpt><trkpt lat="44.60619427782174" lon="10.11728891312581"><ele>419.0</ele><time>2026-04-24T13:19:59Z</time></trkpt><trkpt lat="44.60611601955095" lon="10.117109829101306"><ele>419.0</ele><time>2026-04-24T13:20:00Z</time></trkpt><trkpt lat="44.606038699375176" lon="10.116951672315373"><ele>419.0</ele><time>2026-04-24T13:20:01Z</time></trkpt><trkpt lat="44.60594873905756" lon="10.116829695865617"><ele>419.0</ele><time>2026-04-24T13:20:02Z</time></trkpt><trkpt lat="44.60583200351222" lon="10.116752114000066"><ele>419.0</ele><time>2026-04-24T13:20:03Z</time></trkpt><trkpt lat="44.605702052727004" lon="10.116724799117135"><ele>419.0</ele><time>2026-04-24T13:20:04Z</time></trkpt><trkpt lat="44.60559631792913" lon="10.11668569092535"><ele>419.0</ele><time>2026-04-24T13:20:05Z</time></trkpt><trkpt lat="44.6055236649675" lon="10.116614938224911"><ele>421.6</ele><time>2026-04-24T13:20:06Z</time></trkpt><trkpt lat="44.60547751772896" lon="10.11650142271023"><ele>424.2</ele><time>2026-04-24T13:20:07Z</time></trkpt><trkpt lat="44.60547768486567" lon="10.116360764480902"><ele>426.80000000000007</ele><time>2026-04-24T13:20:08Z</time></trkpt><trkpt lat="44.605527296948964" lon="10.116226513319175"><ele>429.40000000000003</ele><time>2026-04-24T13:20:09Z</time></trkpt><trkpt lat="44.60562977107425" lon="10.116147651162569"><ele>432.0</ele><time>2026-04-24T13:20:10Z</time></trkpt><trkpt lat="44.60574636634868" lon="10.116146749947665"><ele>432.0</ele><time>2026-04-24T13:20:11Z</time></trkpt><trkpt lat="44.60586658508271" lon="10.11622131230624"><ele>432.0</ele><time>2026-04-24T13:20:12Z</time></trkpt><trkpt lat="44.605991099321244" lon="10.116337099820793"><ele>432.0</ele><time>2026-04-24T13:20:13Z</time></trkpt><trkpt lat="44.606134434587446" lon="10.116466666724627"><ele>429.66666666666663</ele><time>2026-04-24T13:20:14Z</time></trkpt><trkpt lat="44.606281100599496" lon="10.116577551271835"><ele>427.3333333333333</ele><time>2026-04-24T13:20:15Z</time></trkpt><trkpt lat="44.60642547847456" lon="10.116682603339553"><ele>425.0</ele><time>2026-04-24T13:20:16Z</time></trkpt><trkpt lat="44.606556812738944" lon="10.116778446183476"><ele>425.0</ele><time>2026-04-24T13:20:17Z</time></trkpt><trkpt lat="44.60668986889257" lon="10.116829877229474"><ele>425.0</ele><time>2026-04-24T13:20:18Z</time></trkpt><trkpt lat="44.60683994233547" lon="10.116821100269018"><ele>425.0</ele><time>2026-04-24T13:20:19Z</time></trkpt><trkpt lat="44.60699706777858" lon="10.116761379533706"><ele>427.0</ele><time>2026-04-24T13:20:20Z</time></trkpt><trkpt lat="44.60716582705294" lon="10.116673455011549"><ele>429.0</ele><time>2026-04-24T13:20:21Z</time></trkpt><trkpt lat="44.607329522381406" lon="10.116591719868543"><ele>431.0</ele><time>2026-04-24T13:20:22Z</time></trkpt><trkpt lat="44.607487143100904" lon="10.116507127097538"><ele>432.5</ele><time>2026-04-24T13:20:23Z</time></trkpt><trkpt lat="44.60763354778937" lon="10.116437958935292"><ele>434.0</ele><time>2026-04-24T13:20:24Z</time></trkpt><trkpt lat="44.607768583966305" lon="10.116408668991363"><ele>435.5</ele><time>2026-04-24T13:20:25Z</time></trkpt><trkpt lat="44.6078863618951" lon="10.116450064734972"><ele>437.0</ele><time>2026-04-24T13:20:26Z</time></trkpt><trkpt lat="44.607990071848405" lon="10.116571068972526"><ele>437.0</ele><time>2026-04-24T13:20:27Z</time></trkpt><trkpt lat="44.60807042497322" lon="10.11673614307528"><ele>437.0</ele><time>2026-04-24T13:20:28Z</time></trkpt><trkpt lat="44.60814546211144" lon="10.116897154977641"><ele>437.0</ele><time>2026-04-24T13:20:29Z</time></trkpt><trkpt lat="44.60823356078833" lon="10.116999094476675"><ele>437.0</ele><time>2026-04-24T13:20:30Z</time></trkpt><trkpt lat="44.60834222458358" lon="10.117031899916613"><ele>437.0</ele><time>2026-04-24T13:20:31Z</time></trkpt><trkpt lat="44.60845486996191" lon="10.117007785486654"><ele>437.0</ele><time>2026-04-24T13:20:32Z</time></trkpt><trkpt lat="44.608556351697025" lon="10.116924134452459"><ele>437.0</ele><time>2026-04-24T13:20:33Z</time></trkpt><trkpt lat="44.60862849287012" lon="10.116793014154082"><ele>437.0</ele><time>2026-04-24T13:20:34Z</time></trkpt><trkpt lat="44.608665220994894" lon="10.116624337369311"><ele>436.25</ele><time>2026-04-24T13:20:35Z</time></trkpt><trkpt lat="44.608669988481196" lon="10.116449179385844"><ele>435.5</ele><time>2026-04-24T13:20:36Z</time></trkpt><trkpt lat="44.608628640071785" lon="10.11625922077731"><ele>434.75</ele><time>2026-04-24T13:20:37Z</time></trkpt><trkpt lat="44.60858677395358" lon="10.116056529067606"><ele>434.0</ele><time>2026-04-24T13:20:38Z</time></trkpt><trkpt lat="44.608559802881636" lon="10.11586537011203"><ele>437.5</ele><time>2026-04-24T13:20:39Z</time></trkpt><trkpt lat="44.6085278132057" lon="10.115674681693251"><ele>441.0</ele><time>2026-04-24T13:20:40Z</time></trkpt><trkpt lat="44.60849121502594" lon="10.115493119809546"><ele>444.5</ele><time>2026-04-24T13:20:41Z</time></trkpt><trkpt lat="44.60847628710009" lon="10.115306761824002"><ele>448.0</ele><time>2026-04-24T13:20:42Z</time></trkpt><trkpt lat="44.608432088947076" lon="10.115135169434332"><ele>448.0</ele><time>2026-04-24T13:20:43Z</time></trkpt><trkpt lat="44.60840621185797" lon="10.114962143627464"><ele>448.0</ele><time>2026-04-24T13:20:44Z</time></trkpt><trkpt lat="44.60841827365172" lon="10.114795528786756"><ele>448.0</ele><time>2026-04-24T13:20:45Z</time></trkpt><trkpt lat="44.608422268299904" lon="10.11463524891425"><ele>448.0</ele><time>2026-04-24T13:20:46Z</time></trkpt><trkpt lat="44.60849289902064" lon="10.114497236363682"><ele>449.25</ele><time>2026-04-24T13:20:47Z</time></trkpt><trkpt lat="44.60855562135441" lon="10.11435091021526"><ele>450.5</ele><time>2026-04-24T13:20:48Z</time></trkpt><trkpt lat="44.60866025659744" lon="10.114252505376076"><ele>451.75</ele><time>2026-04-24T13:20:49Z</time></trkpt><trkpt lat="44.60878452627121" lon="10.114233931259728"><ele>453.0</ele><time>2026-04-24T13:20:50Z</time></trkpt><trkpt lat="44.60890799046964" lon="10.114225343492073"><ele>453.0</ele><time>2026-04-24T13:20:51Z</time></trkpt><trkpt lat="44.60902212378285" lon="10.114293154341441"><ele>453.0</ele><time>2026-04-24T13:20:52Z</time></trkpt><trkpt lat="44.609115846944576" lon="10.114398785769966"><ele>453.0</ele><time>2026-04-24T13:20:53Z</time></trkpt><trkpt lat="44.60919373915653" lon="10.114509191160295"><ele>453.0</ele><time>2026-04-24T13:20:54Z</time></trkpt><trkpt lat="44.60931840032674" lon="10.114619154886975"><ele>453.0</ele><time>2026-04-24T13:20:55Z</time></trkpt><trkpt lat="44.60943165787698" lon="10.11472583933349"><ele>453.0</ele><time>2026-04-24T13:20:56Z</time></trkpt><trkpt lat="44.60954315594893" lon="10.11481692779306"><ele>453.0</ele><time>2026-04-24T13:20:57Z</time></trkpt><trkpt lat="44.609659197413464" lon="10.11488369582704"><ele>453.0</ele><time>2026-04-24T13:20:58Z</time></trkpt><trkpt lat="44.60978578963024" lon="10.114915474347411"><ele>454.25</ele><time>2026-04-24T13:20:58.999Z</time></trkpt><trkpt lat="44.609907234089285" lon="10.114895348172038"><ele>455.5</ele><time>2026-04-24T13:20:59.999Z</time></trkpt><trkpt lat="44.61001667975133" lon="10.114821373933669"><ele>456.75</ele><time>2026-04-24T13:21:00.999Z</time></trkpt><trkpt lat="44.6101281056906" lon="10.11473990874818"><ele>458.0</ele><time>2026-04-24T13:21:01.999Z</time></trkpt><trkpt lat="44.610239164857916" lon="10.114649625408479"><ele>457.0</ele><time>2026-04-24T13:21:02.999Z</time></trkpt><trkpt lat="44.610354989775324" lon="10.114567786730674"><ele>456.0</ele><time>2026-04-24T13:21:03.999Z</time></trkpt><trkpt lat="44.61048271394476" lon="10.114525134605188"><ele>455.0</ele><time>2026-04-24T13:21:04.999Z</time></trkpt><trkpt lat="44.61061088848401" lon="10.11454199295325"><ele>454.0</ele><time>2026-04-24T13:21:05.999Z</time></trkpt><trkpt lat="44.61072728933763" lon="10.114606458023296"><ele>454.0</ele><time>2026-04-24T13:21:06.999Z</time></trkpt><trkpt lat="44.61083983670128" lon="10.114686423819538"><ele>454.0</ele><time>2026-04-24T13:21:08.001Z</time></trkpt><trkpt lat="44.61094945572604" lon="10.114755276713176"><ele>454.0</ele><time>2026-04-24T13:21:09.001Z</time></trkpt><trkpt lat="44.61106239769682" lon="10.114788681850813"><ele>454.0</ele><time>2026-04-24T13:21:10.001Z</time></trkpt><trkpt lat="44.61116959036137" lon="10.114777525361339"><ele>452.75</ele><time>2026-04-24T13:21:11.001Z</time></trkpt><trkpt lat="44.61126468506307" lon="10.114717484892678"><ele>451.5</ele><time>2026-04-24T13:21:12.001Z</time></trkpt><trkpt lat="44.611347694665206" lon="10.114604555111939"><ele>450.25</ele><time>2026-04-24T13:21:13.001Z</time></trkpt><trkpt lat="44.61141469041874" lon="10.114462240447363"><ele>449.0</ele><time>2026-04-24T13:21:14.001Z</time></trkpt><trkpt lat="44.61148252155887" lon="10.114308826609355"><ele>449.0</ele><time>2026-04-24T13:21:15.001Z</time></trkpt><trkpt lat="44.61156163158626" lon="10.114155686654673"><ele>449.0</ele><time>2026-04-24T13:21:16.001Z</time></trkpt><trkpt lat="44.61164297769703" lon="10.113999580366857"><ele>449.0</ele><time>2026-04-24T13:21:17.001Z</time></trkpt><trkpt lat="44.61172826272872" lon="10.113850160786043"><ele>449.0</ele><time>2026-04-24T13:21:18.001Z</time></trkpt><trkpt lat="44.61183246990718" lon="10.113728475727902"><ele>450.5</ele><time>2026-04-24T13:21:19.001Z</time></trkpt><trkpt lat="44.611975062590325" lon="10.113677952240224"><ele>452.0</ele><time>2026-04-24T13:21:20.001Z</time></trkpt><trkpt lat="44.61211910021485" lon="10.113608492093757"><ele>453.5</ele><time>2026-04-24T13:21:21.001Z</time></trkpt><trkpt lat="44.61226367418354" lon="10.113565465037256"><ele>455.0</ele><time>2026-04-24T13:21:22.001Z</time></trkpt><trkpt lat="44.61239917258482" lon="10.113509748327987"><ele>455.0</ele><time>2026-04-24T13:21:23.001Z</time></trkpt><trkpt lat="44.61253082352237" lon="10.113460207311192"><ele>455.0</ele><time>2026-04-24T13:21:24.001Z</time></trkpt><trkpt lat="44.61266335504092" lon="10.113441970756575"><ele>455.0</ele><time>2026-04-24T13:21:25.001Z</time></trkpt><trkpt lat="44.61279344275731" lon="10.113460553025785"><ele>455.0</ele><time>2026-04-24T13:21:26.001Z</time></trkpt><trkpt lat="44.61291714435083" lon="10.113480637742525"><ele>455.0</ele><time>2026-04-24T13:21:27.001Z</time></trkpt><trkpt lat="44.61304421692772" lon="10.113483856548301"><ele>455.0</ele><time>2026-04-24T13:21:28.001Z</time></trkpt><trkpt lat="44.613172113076246" lon="10.113488511533996"><ele>455.0</ele><time>2026-04-24T13:21:29.001Z</time></trkpt><trkpt lat="44.61328883741057" lon="10.11349173081586"><ele>455.0</ele><time>2026-04-24T13:21:30.001Z</time></trkpt><trkpt lat="44.613394690877634" lon="10.113516093418227"><ele>455.0</ele><time>2026-04-24T13:21:31.001Z</time></trkpt><trkpt lat="44.61348980528777" lon="10.113587822511066"><ele>455.0</ele><time>2026-04-24T13:21:32.001Z</time></trkpt><trkpt lat="44.61355104923685" lon="10.11371699574899"><ele>455.0</ele><time>2026-04-24T13:21:33.001Z</time></trkpt><trkpt lat="44.613574487953144" lon="10.113882871522545"><ele>455.0</ele><time>2026-04-24T13:21:34.001Z</time></trkpt><trkpt lat="44.61353089115993" lon="10.114051189731596"><ele>453.25</ele><time>2026-04-24T13:21:35.001Z</time></trkpt><trkpt lat="44.61351728133549" lon="10.114218389760655"><ele>451.5</ele><time>2026-04-24T13:21:36.001Z</time></trkpt><trkpt lat="44.61348887789415" lon="10.114392420063183"><ele>449.75</ele><time>2026-04-24T13:21:37.001Z</time></trkpt><trkpt lat="44.61346175448073" lon="10.11457985073697"><ele>448.0</ele><time>2026-04-24T13:21:38.001Z</time></trkpt><trkpt lat="44.61342980674476" lon="10.11479720391789"><ele>448.0</ele><time>2026-04-24T13:21:39.001Z</time></trkpt><trkpt lat="44.61339778262411" lon="10.115043597887924"><ele>448.0</ele><time>2026-04-24T13:21:40.001Z</time></trkpt><trkpt lat="44.61336079600113" lon="10.115299878129127"><ele>448.0</ele><time>2026-04-24T13:21:41.001Z</time></trkpt><trkpt lat="44.61332499695292" lon="10.115543539233705"><ele>447.0</ele><time>2026-04-24T13:21:42.001Z</time></trkpt><trkpt lat="44.61329340881374" lon="10.115766425657078"><ele>446.0</ele><time>2026-04-24T13:21:43.001Z</time></trkpt><trkpt lat="44.61326471055418" lon="10.115978091378532"><ele>445.0</ele><time>2026-04-24T13:21:44Z</time></trkpt><trkpt lat="44.61323318084399" lon="10.11619509980342"><ele>445.0</ele><time>2026-04-24T13:21:45Z</time></trkpt><trkpt lat="44.61320197545685" lon="10.116390904201523"><ele>445.0</ele><time>2026-04-24T13:21:46Z</time></trkpt><trkpt lat="44.613174504569805" lon="10.116576956264657"><ele>445.0</ele><time>2026-04-24T13:21:47Z</time></trkpt><trkpt lat="44.61315765392416" lon="10.1167521830606"><ele>445.0</ele><time>2026-04-24T13:21:48Z</time></trkpt><trkpt lat="44.613162957312156" lon="10.116926750676654"><ele>444.75</ele><time>2026-04-24T13:21:49Z</time></trkpt><trkpt lat="44.613216447286575" lon="10.11709593517571"><ele>444.5</ele><time>2026-04-24T13:21:50Z</time></trkpt><trkpt lat="44.613310954398045" lon="10.117234437080112"><ele>444.25</ele><time>2026-04-24T13:21:51Z</time></trkpt><trkpt lat="44.61342453544008" lon="10.117337592930694"><ele>444.0</ele><time>2026-04-24T13:21:52Z</time></trkpt><trkpt lat="44.613540169560025" lon="10.117419274480454"><ele>443.75</ele><time>2026-04-24T13:21:53Z</time></trkpt><trkpt lat="44.61364543489988" lon="10.11751454279082"><ele>443.5</ele><time>2026-04-24T13:21:54Z</time></trkpt><trkpt lat="44.613741927374065" lon="10.11762340863013"><ele>443.25</ele><time>2026-04-24T13:21:55Z</time></trkpt><trkpt lat="44.613804873546144" lon="10.11777069698319"><ele>443.0</ele><time>2026-04-24T13:21:56Z</time></trkpt><trkpt lat="44.61384260861899" lon="10.117940483439366"><ele>443.0</ele><time>2026-04-24T13:21:57Z</time></trkpt><trkpt lat="44.61385905181143" lon="10.118105532183119"><ele>442.99999999999994</ele><time>2026-04-24T13:21:58Z</time></trkpt><trkpt lat="44.613878235625265" lon="10.118246538262495"><ele>442.99999999999994</ele><time>2026-04-24T13:21:59Z</time></trkpt><trkpt lat="44.61392277652386" lon="10.118375951360996"><ele>443.0</ele><time>2026-04-24T13:22:00Z</time></trkpt><trkpt lat="44.61399669632144" lon="10.118489593306887"><ele>443.0</ele><time>2026-04-24T13:22:01Z</time></trkpt><trkpt lat="44.614095122456945" lon="10.118572362983143"><ele>443.5</ele><time>2026-04-24T13:22:02Z</time></trkpt><trkpt lat="44.61421095433504" lon="10.118612934369313"><ele>444.0</ele><time>2026-04-24T13:22:03Z</time></trkpt><trkpt lat="44.61433167131146" lon="10.118640136726075"><ele>444.5</ele><time>2026-04-24T13:22:04Z</time></trkpt><trkpt lat="44.614446034425896" lon="10.118695179368991"><ele>445.0</ele><time>2026-04-24T13:22:05Z</time></trkpt><trkpt lat="44.61454169236886" lon="10.118784768857402"><ele>445.0</ele><time>2026-04-24T13:22:06Z</time></trkpt><trkpt lat="44.61463154852461" lon="10.118912122875962"><ele>445.0</ele><time>2026-04-24T13:22:07Z</time></trkpt><trkpt lat="44.61471111881132" lon="10.11906630326166"><ele>445.0</ele><time>2026-04-24T13:22:08Z</time></trkpt><trkpt lat="44.61478616213603" lon="10.11923062167033"><ele>445.0</ele><time>2026-04-24T13:22:09Z</time></trkpt><trkpt lat="44.61485890288021" lon="10.119382353696832"><ele>447.75</ele><time>2026-04-24T13:22:10Z</time></trkpt><trkpt lat="44.61492987815048" lon="10.119527584939583"><ele>450.5</ele><time>2026-04-24T13:22:11Z</time></trkpt><trkpt lat="44.615001602765574" lon="10.119670010136142"><ele>453.25</ele><time>2026-04-24T13:22:12Z</time></trkpt><trkpt lat="44.61508877928362" lon="10.11979475538796"><ele>456.0</ele><time>2026-04-24T13:22:13Z</time></trkpt><trkpt lat="44.61519333637624" lon="10.119894668224177"><ele>456.25</ele><time>2026-04-24T13:22:14Z</time></trkpt><trkpt lat="44.61531067873288" lon="10.119949330124564"><ele>456.5</ele><time>2026-04-24T13:22:15Z</time></trkpt><trkpt lat="44.61543234556543" lon="10.11994495324951"><ele>456.75</ele><time>2026-04-24T13:22:16Z</time></trkpt><trkpt lat="44.615551348898954" lon="10.119900241103709"><ele>457.0</ele><time>2026-04-24T13:22:17Z</time></trkpt><trkpt lat="44.6156721359144" lon="10.119860471311991"><ele>457.0</ele><time>2026-04-24T13:22:18Z</time></trkpt><trkpt lat="44.615796054160974" lon="10.119861401606432"><ele>457.0</ele><time>2026-04-24T13:22:19Z</time></trkpt><trkpt lat="44.6159135057696" lon="10.119908713474697"><ele>457.0</ele><time>2026-04-24T13:22:20Z</time></trkpt><trkpt lat="44.61602048266907" lon="10.119995392945542"><ele>457.0</ele><time>2026-04-24T13:22:21Z</time></trkpt><trkpt lat="44.61612390288736" lon="10.120096648262148"><ele>454.75</ele><time>2026-04-24T13:22:22Z</time></trkpt><trkpt lat="44.616226126579164" lon="10.120201547597782"><ele>452.5</ele><time>2026-04-24T13:22:23Z</time></trkpt><trkpt lat="44.616328841088865" lon="10.120307124240327"><ele>450.25</ele><time>2026-04-24T13:22:24Z</time></trkpt><trkpt lat="44.616431693332096" lon="10.120416063777801"><ele>448.0</ele><time>2026-04-24T13:22:25Z</time></trkpt><trkpt lat="44.6165349320381" lon="10.120527527032076"><ele>448.0</ele><time>2026-04-24T13:22:26Z</time></trkpt><trkpt lat="44.61664173599003" lon="10.120637316481512"><ele>448.0</ele><time>2026-04-24T13:22:27Z</time></trkpt><trkpt lat="44.616751472624706" lon="10.12072888426319"><ele>448.0</ele><time>2026-04-24T13:22:28Z</time></trkpt><trkpt lat="44.616867357096616" lon="10.12078376042894"><ele>448.0</ele><time>2026-04-24T13:22:29Z</time></trkpt><trkpt lat="44.61699108858648" lon="10.120799034819845"><ele>448.25</ele><time>2026-04-24T13:22:30Z</time></trkpt><trkpt lat="44.61711643470179" lon="10.120769495171205"><ele>448.5</ele><time>2026-04-24T13:22:31Z</time></trkpt><trkpt lat="44.61722416580601" lon="10.120686058886713"><ele>448.75</ele><time>2026-04-24T13:22:32Z</time></trkpt><trkpt lat="44.617316794395855" lon="10.120568526194985"><ele>449.0</ele><time>2026-04-24T13:22:33Z</time></trkpt><trkpt lat="44.61741329224113" lon="10.120453724979512"><ele>447.25</ele><time>2026-04-24T13:22:34Z</time></trkpt><trkpt lat="44.61751329638316" lon="10.12033785700194"><ele>445.5</ele><time>2026-04-24T13:22:35Z</time></trkpt><trkpt lat="44.617618680319204" lon="10.120218154617332"><ele>443.75</ele><time>2026-04-24T13:22:36Z</time></trkpt><trkpt lat="44.61772674745334" lon="10.120107828961581"><ele>442.0</ele><time>2026-04-24T13:22:37Z</time></trkpt><trkpt lat="44.61783481525536" lon="10.120004783677969"><ele>441.25</ele><time>2026-04-24T13:22:38Z</time></trkpt><trkpt lat="44.61794793285457" lon="10.119913305596604"><ele>440.5</ele><time>2026-04-24T13:22:39Z</time></trkpt><trkpt lat="44.618076151388095" lon="10.119852974934103"><ele>439.75</ele><time>2026-04-24T13:22:40Z</time></trkpt><trkpt lat="44.61821691564561" lon="10.11986310894531"><ele>439.0</ele><time>2026-04-24T13:22:41Z</time></trkpt><trkpt lat="44.61836367305539" lon="10.119863274515174"><ele>439.0</ele><time>2026-04-24T13:22:42Z</time></trkpt><trkpt lat="44.618503774959954" lon="10.119916300931942"><ele>439.0</ele><time>2026-04-24T13:22:43Z</time></trkpt><trkpt lat="44.61862962547533" lon="10.120001376502872"><ele>439.0</ele><time>2026-04-24T13:22:44Z</time></trkpt><trkpt lat="44.61874274048765" lon="10.120112321583187"><ele>439.0</ele><time>2026-04-24T13:22:45Z</time></trkpt><trkpt lat="44.61882874110386" lon="10.120239670230674"><ele>437.5</ele><time>2026-04-24T13:22:46Z</time></trkpt><trkpt lat="44.61892841762201" lon="10.120338228465867"><ele>436.0</ele><time>2026-04-24T13:22:47Z</time></trkpt><trkpt lat="44.61902221455918" lon="10.12042718809256"><ele>434.5</ele><time>2026-04-24T13:22:48Z</time></trkpt><trkpt lat="44.619125561571884" lon="10.120504541168573"><ele>433.0</ele><time>2026-04-24T13:22:49Z</time></trkpt><trkpt lat="44.61922506886894" lon="10.120569907511912"><ele>433.0</ele><time>2026-04-24T13:22:50Z</time></trkpt><trkpt lat="44.6193262727946" lon="10.120608069961749"><ele>432.99999999999994</ele><time>2026-04-24T13:22:51Z</time></trkpt><trkpt lat="44.619426492081594" lon="10.120612317871068"><ele>432.99999999999994</ele><time>2026-04-24T13:22:52Z</time></trkpt><trkpt lat="44.6195232608541" lon="10.120561162790642"><ele>433.0</ele><time>2026-04-24T13:22:53Z</time></trkpt><trkpt lat="44.61961114488193" lon="10.120458664241003"><ele>433.0</ele><time>2026-04-24T13:22:54Z</time></trkpt><trkpt lat="44.61968658730873" lon="10.120303810624748"><ele>433.5</ele><time>2026-04-24T13:22:55Z</time></trkpt><trkpt lat="44.61975791103361" lon="10.120172192261826"><ele>434.0</ele><time>2026-04-24T13:22:56Z</time></trkpt><trkpt lat="44.61983263565045" lon="10.120036431571595"><ele>434.5</ele><time>2026-04-24T13:22:57Z</time></trkpt><trkpt lat="44.61991164858845" lon="10.11989603255067"><ele>435.0</ele><time>2026-04-24T13:22:58Z</time></trkpt><trkpt lat="44.619991445790696" lon="10.119746490730227"><ele>432.75</ele><time>2026-04-24T13:22:59Z</time></trkpt><trkpt lat="44.62007383748882" lon="10.119597514075675"><ele>430.5</ele><time>2026-04-24T13:23:00Z</time></trkpt><trkpt lat="44.62015467361355" lon="10.119449652992534"><ele>428.25</ele><time>2026-04-24T13:23:00.999Z</time></trkpt><trkpt lat="44.620232995904566" lon="10.119310562815917"><ele>426.0</ele><time>2026-04-24T13:23:01.999Z</time></trkpt><trkpt lat="44.62030726616506" lon="10.119174071704096"><ele>424.20000000000005</ele><time>2026-04-24T13:23:02.999Z</time></trkpt><trkpt lat="44.620374513000876" lon="10.119038981163317"><ele>422.40000000000003</ele><time>2026-04-24T13:23:03.999Z</time></trkpt><trkpt lat="44.620440140433274" lon="10.118912763558434"><ele>420.6</ele><time>2026-04-24T13:23:04.999Z</time></trkpt><trkpt lat="44.620516489602046" lon="10.118815800322439"><ele>418.8</ele><time>2026-04-24T13:23:05.999Z</time></trkpt><trkpt lat="44.62060826272848" lon="10.118747378225363"><ele>417.0</ele><time>2026-04-24T13:23:06.999Z</time></trkpt><trkpt lat="44.62070953164064" lon="10.118729390365253"><ele>417.0</ele><time>2026-04-24T13:23:07.999Z</time></trkpt><trkpt lat="44.62079909257868" lon="10.118757758737857"><ele>417.0</ele><time>2026-04-24T13:23:08.999Z</time></trkpt><trkpt lat="44.62092759817917" lon="10.118786940950868"><ele>417.0</ele><time>2026-04-24T13:23:09.999Z</time></trkpt><trkpt lat="44.62108060943053" lon="10.118841495181563"><ele>417.0</ele><time>2026-04-24T13:23:10.999Z</time></trkpt><trkpt lat="44.62126199183425" lon="10.1189049305633"><ele>418.0</ele><time>2026-04-24T13:23:11.999Z</time></trkpt><trkpt lat="44.62146915325161" lon="10.118977099445774"><ele>419.0</ele><time>2026-04-24T13:23:12.999Z</time></trkpt><trkpt lat="44.62167039249219" lon="10.119026547369318"><ele>420.0</ele><time>2026-04-24T13:23:14.001Z</time></trkpt><trkpt lat="44.62185097309092" lon="10.119082342407594"><ele>418.66666666666663</ele><time>2026-04-24T13:23:15.001Z</time></trkpt><trkpt lat="44.622014976480905" lon="10.119125195370367"><ele>417.3333333333333</ele><time>2026-04-24T13:23:16.001Z</time></trkpt><trkpt lat="44.62216051803161" lon="10.119150495560671"><ele>416.0</ele><time>2026-04-24T13:23:17.001Z</time></trkpt><trkpt lat="44.62229671333433" lon="10.119143883144114"><ele>416.0</ele><time>2026-04-24T13:23:18.001Z</time></trkpt><trkpt lat="44.62242451282303" lon="10.11912360473793"><ele>416.0</ele><time>2026-04-24T13:23:19.001Z</time></trkpt><trkpt lat="44.62255720438562" lon="10.11909565381441"><ele>416.0</ele><time>2026-04-24T13:23:20.001Z</time></trkpt><trkpt lat="44.62270370613293" lon="10.11907975307145"><ele>416.0</ele><time>2026-04-24T13:23:21.001Z</time></trkpt><trkpt lat="44.62285412737345" lon="10.11907443598973"><ele>413.0</ele><time>2026-04-24T13:23:22.001Z</time></trkpt><trkpt lat="44.62300579665596" lon="10.119080486475607"><ele>410.0</ele><time>2026-04-24T13:23:23.001Z</time></trkpt><trkpt lat="44.62315853256121" lon="10.119099236289712"><ele>407.0</ele><time>2026-04-24T13:23:24.001Z</time></trkpt><trkpt lat="44.62330914663666" lon="10.119129870195804"><ele>407.0</ele><time>2026-04-24T13:23:25.001Z</time></trkpt><trkpt lat="44.623460512768176" lon="10.119167341382425"><ele>407.0</ele><time>2026-04-24T13:23:26.001Z</time></trkpt><trkpt lat="44.623601015245725" lon="10.119194855795923"><ele>407.0</ele><time>2026-04-24T13:23:27.001Z</time></trkpt><trkpt lat="44.6237238801918" lon="10.119265516660505"><ele>407.0</ele><time>2026-04-24T13:23:28.001Z</time></trkpt><trkpt lat="44.62385192300283" lon="10.119310751552717"><ele>405.25</ele><time>2026-04-24T13:23:29.001Z</time></trkpt><trkpt lat="44.62398412552581" lon="10.119400132465032"><ele>403.5</ele><time>2026-04-24T13:23:30.001Z</time></trkpt><trkpt lat="44.624117554165224" lon="10.119486840731788"><ele>401.75</ele><time>2026-04-24T13:23:31.001Z</time></trkpt><trkpt lat="44.624233954512995" lon="10.11957964723289"><ele>400.0</ele><time>2026-04-24T13:23:32.001Z</time></trkpt><trkpt lat="44.62435078450416" lon="10.119665447869382"><ele>400.0</ele><time>2026-04-24T13:23:33.001Z</time></trkpt><trkpt lat="44.62446403780957" lon="10.119744625425108"><ele>400.0</ele><time>2026-04-24T13:23:34.001Z</time></trkpt><trkpt lat="44.62456687205631" lon="10.119826554065703"><ele>400.0</ele><time>2026-04-24T13:23:35.001Z</time></trkpt><trkpt lat="44.62466786197882" lon="10.119899497429584"><ele>400.0</ele><time>2026-04-24T13:23:36.001Z</time></trkpt><trkpt lat="44.62476632386404" lon="10.119937430680034"><ele>399.8</ele><time>2026-04-24T13:23:37.001Z</time></trkpt><trkpt lat="44.624858113922116" lon="10.119911267914098"><ele>399.6</ele><time>2026-04-24T13:23:38.001Z</time></trkpt><trkpt lat="44.62493055547241" lon="10.11981349273151"><ele>399.4</ele><time>2026-04-24T13:23:39.001Z</time></trkpt><trkpt lat="44.62496037078793" lon="10.119667290199276"><ele>399.2</ele><time>2026-04-24T13:23:40.001Z</time></trkpt><trkpt lat="44.624938662784636" lon="10.119519773733415"><ele>399.0</ele><time>2026-04-24T13:23:41.001Z</time></trkpt><trkpt lat="44.6248763943953" lon="10.119391237430472"><ele>397.25</ele><time>2026-04-24T13:23:42.001Z</time></trkpt><trkpt lat="44.6247822356717" lon="10.119294033005936"><ele>395.5</ele><time>2026-04-24T13:23:43.001Z</time></trkpt><trkpt lat="44.624674284104735" lon="10.119191475078296"><ele>393.75</ele><time>2026-04-24T13:23:44.001Z</time></trkpt><trkpt lat="44.6245735407959" lon="10.119087518198157"><ele>392.0</ele><time>2026-04-24T13:23:45.001Z</time></trkpt><trkpt lat="44.62448982497911" lon="10.118990200990433"><ele>392.25</ele><time>2026-04-24T13:23:46Z</time></trkpt><trkpt lat="44.62439945143132" lon="10.118899018115643"><ele>392.5</ele><time>2026-04-24T13:23:47Z</time></trkpt><trkpt lat="44.62431258209069" lon="10.11877546532362"><ele>392.75</ele><time>2026-04-24T13:23:48Z</time></trkpt><trkpt lat="44.62423365780187" lon="10.118649951603397"><ele>393.0</ele><time>2026-04-24T13:23:49Z</time></trkpt><trkpt lat="44.62419082726946" lon="10.118499287365127"><ele>393.0</ele><time>2026-04-24T13:23:50Z</time></trkpt><trkpt lat="44.62418261024432" lon="10.118337149647894"><ele>393.0</ele><time>2026-04-24T13:23:51Z</time></trkpt><trkpt lat="44.62421100596795" lon="10.118169286447614"><ele>393.0</ele><time>2026-04-24T13:23:52Z</time></trkpt><trkpt lat="44.62425496673894" lon="10.117999100553012"><ele>393.0</ele><time>2026-04-24T13:23:53Z</time></trkpt><trkpt lat="44.6242901166666" lon="10.117824634187892"><ele>391.0</ele><time>2026-04-24T13:23:54Z</time></trkpt><trkpt lat="44.624326452180924" lon="10.11764915760839"><ele>389.0</ele><time>2026-04-24T13:23:55Z</time></trkpt><trkpt lat="44.62432942571593" lon="10.117448984322568"><ele>387.0</ele><time>2026-04-24T13:23:56Z</time></trkpt><trkpt lat="44.62432930944323" lon="10.117215944065418"><ele>385.0</ele><time>2026-04-24T13:23:57Z</time></trkpt><trkpt lat="44.62430974367245" lon="10.116940427950226"><ele>383.6666666666667</ele><time>2026-04-24T13:23:58Z</time></trkpt><trkpt lat="44.624289614213" lon="10.116673613202847"><ele>382.33333333333337</ele><time>2026-04-24T13:23:59Z</time></trkpt><trkpt lat="44.62427149379505" lon="10.116433428264255"><ele>381.0</ele><time>2026-04-24T13:24:00Z</time></trkpt><trkpt lat="44.62424289648861" lon="10.116208262978468"><ele>380.0</ele><time>2026-04-24T13:24:01Z</time></trkpt><trkpt lat="44.62423224089963" lon="10.115978940516076"><ele>379.0</ele><time>2026-04-24T13:24:02Z</time></trkpt><trkpt lat="44.624221211198446" lon="10.11577311146631"><ele>378.0</ele><time>2026-04-24T13:24:03Z</time></trkpt><trkpt lat="44.62419168162926" lon="10.115580942933786"><ele>376.0</ele><time>2026-04-24T13:24:04Z</time></trkpt><trkpt lat="44.62414126757277" lon="10.115406136544408"><ele>374.0</ele><time>2026-04-24T13:24:05Z</time></trkpt><trkpt lat="44.624056719327484" lon="10.115261349422914"><ele>372.0</ele><time>2026-04-24T13:24:06Z</time></trkpt><trkpt lat="44.62394318012287" lon="10.1151586380539"><ele>370.0</ele><time>2026-04-24T13:24:07Z</time></trkpt><trkpt lat="44.62380782700444" lon="10.115084690854118"><ele>370.0</ele><time>2026-04-24T13:24:08Z</time></trkpt><trkpt lat="44.62367432036977" lon="10.11504604644894"><ele>370.0</ele><time>2026-04-24T13:24:09Z</time></trkpt><trkpt lat="44.62354574410725" lon="10.115049069618083"><ele>370.0</ele><time>2026-04-24T13:24:10Z</time></trkpt><trkpt lat="44.62344489287798" lon="10.115024866250003"><ele>370.0</ele><time>2026-04-24T13:24:11Z</time></trkpt><trkpt lat="44.623382023883366" lon="10.114963513230501"><ele>370.0</ele><time>2026-04-24T13:24:12Z</time></trkpt><trkpt lat="44.62332090535255" lon="10.114883286926016"><ele>368.5</ele><time>2026-04-24T13:24:13Z</time></trkpt><trkpt lat="44.623321444262174" lon="10.1147269282644"><ele>367.0</ele><time>2026-04-24T13:24:14Z</time></trkpt><trkpt lat="44.62336060715898" lon="10.11459048464756"><ele>365.5</ele><time>2026-04-24T13:24:15Z</time></trkpt><trkpt lat="44.623454712972034" lon="10.114500780759238"><ele>364.0</ele><time>2026-04-24T13:24:16Z</time></trkpt><trkpt lat="44.6235816095488" lon="10.114488279052425"><ele>363.0</ele><time>2026-04-24T13:24:17Z</time></trkpt><trkpt lat="44.62372481454283" lon="10.114447927221628"><ele>362.0</ele><time>2026-04-24T13:24:18Z</time></trkpt><trkpt lat="44.62390464993565" lon="10.11441446791303"><ele>361.0</ele><time>2026-04-24T13:24:19Z</time></trkpt><trkpt lat="44.62410257503563" lon="10.114373813221874"><ele>361.0</ele><time>2026-04-24T13:24:20Z</time></trkpt><trkpt lat="44.62429897118813" lon="10.114351167205088"><ele>361.0</ele><time>2026-04-24T13:24:21Z</time></trkpt><trkpt lat="44.62448386058226" lon="10.114322547841875"><ele>361.0</ele><time>2026-04-24T13:24:22Z</time></trkpt><trkpt lat="44.62465398480873" lon="10.114267793799966"><ele>360.0</ele><time>2026-04-24T13:24:23Z</time></trkpt><trkpt lat="44.624808866233096" lon="10.114209360069832"><ele>359.0</ele><time>2026-04-24T13:24:24Z</time></trkpt><trkpt lat="44.624946859188775" lon="10.114176372207844"><ele>358.0</ele><time>2026-04-24T13:24:25Z</time></trkpt><trkpt lat="44.62507672730072" lon="10.114204738590482"><ele>357.0</ele><time>2026-04-24T13:24:26Z</time></trkpt><trkpt lat="44.62520247629139" lon="10.114307866073958"><ele>357.0</ele><time>2026-04-24T13:24:27Z</time></trkpt><trkpt lat="44.62530709863435" lon="10.114493371268063"><ele>357.0</ele><time>2026-04-24T13:24:28Z</time></trkpt><trkpt lat="44.62541377874341" lon="10.114659159124155"><ele>357.0</ele><time>2026-04-24T13:24:29Z</time></trkpt><trkpt lat="44.62550617967865" lon="10.114806320126874"><ele>356.25</ele><time>2026-04-24T13:24:30Z</time></trkpt><trkpt lat="44.625601089868795" lon="10.114893430383107"><ele>355.5</ele><time>2026-04-24T13:24:31Z</time></trkpt><trkpt lat="44.62571353864698" lon="10.11492502466509"><ele>354.75</ele><time>2026-04-24T13:24:32Z</time></trkpt><trkpt lat="44.625841959535585" lon="10.114888756907426"><ele>354.0</ele><time>2026-04-24T13:24:33Z</time></trkpt><trkpt lat="44.625985879346956" lon="10.114788615138092"><ele>350.0</ele><time>2026-04-24T13:24:34Z</time></trkpt><trkpt lat="44.626149165428885" lon="10.11468453707716"><ele>346.0</ele><time>2026-04-24T13:24:35Z</time></trkpt><trkpt lat="44.626298971633005" lon="10.114592163315562"><ele>342.0</ele><time>2026-04-24T13:24:36Z</time></trkpt><trkpt lat="44.62643375524405" lon="10.114510534993016"><ele>342.0</ele><time>2026-04-24T13:24:37Z</time></trkpt><trkpt lat="44.626542419856904" lon="10.114426840343933"><ele>342.0</ele><time>2026-04-24T13:24:38Z</time></trkpt><trkpt lat="44.626636893254464" lon="10.11432842664215"><ele>342.0</ele><time>2026-04-24T13:24:39Z</time></trkpt><trkpt lat="44.62669890151951" lon="10.11419611267261"><ele>342.0</ele><time>2026-04-24T13:24:40Z</time></trkpt><trkpt lat="44.626708180572486" lon="10.114041813927965"><ele>340.5</ele><time>2026-04-24T13:24:41Z</time></trkpt><trkpt lat="44.6266552383319" lon="10.1139162510578"><ele>339.0</ele><time>2026-04-24T13:24:42Z</time></trkpt><trkpt lat="44.626552105817645" lon="10.113824560865924"><ele>337.5</ele><time>2026-04-24T13:24:43Z</time></trkpt><trkpt lat="44.62641816164658" lon="10.113756302520779"><ele>336.0</ele><time>2026-04-24T13:24:44Z</time></trkpt><trkpt lat="44.626297431500056" lon="10.113643591470229"><ele>336.0</ele><time>2026-04-24T13:24:45Z</time></trkpt><trkpt lat="44.62619276286426" lon="10.11354243727982"><ele>336.0</ele><time>2026-04-24T13:24:46Z</time></trkpt><trkpt lat="44.62610789923838" lon="10.113434486183877"><ele>336.0</ele><time>2026-04-24T13:24:47Z</time></trkpt><trkpt lat="44.626054991969724" lon="10.11329608122016"><ele>336.0</ele><time>2026-04-24T13:24:48Z</time></trkpt><trkpt lat="44.62605996522129" lon="10.11312035375159"><ele>336.25</ele><time>2026-04-24T13:24:49Z</time></trkpt><trkpt lat="44.62605228343204" lon="10.112914680333507"><ele>336.5</ele><time>2026-04-24T13:24:49.999Z</time></trkpt><trkpt lat="44.62605262797282" lon="10.112722091325272"><ele>336.75</ele><time>2026-04-24T13:24:50.999Z</time></trkpt><trkpt lat="44.62607195237668" lon="10.112559329664693"><ele>337.0</ele><time>2026-04-24T13:24:51.999Z</time></trkpt><trkpt lat="44.62611437390028" lon="10.11240758163309"><ele>333.0</ele><time>2026-04-24T13:24:52.999Z</time></trkpt><trkpt lat="44.626220153703635" lon="10.112299289453844"><ele>329.0</ele><time>2026-04-24T13:24:53.999Z</time></trkpt><trkpt lat="44.6263734905688" lon="10.112233217441402"><ele>325.0</ele><time>2026-04-24T13:24:54.999Z</time></trkpt><trkpt lat="44.62654356554604" lon="10.112177892958172"><ele>325.0</ele><time>2026-04-24T13:24:55.999Z</time></trkpt><trkpt lat="44.626727787016655" lon="10.112096550783598"><ele>325.0</ele><time>2026-04-24T13:24:56.999Z</time></trkpt><trkpt lat="44.62691743860857" lon="10.111994722095032"><ele>325.0</ele><time>2026-04-24T13:24:57.999Z</time></trkpt><trkpt lat="44.62712400249783" lon="10.111892462105867"><ele>324.66666666666663</ele><time>2026-04-24T13:24:58.999Z</time></trkpt><trkpt lat="44.62733449118935" lon="10.11180382332628"><ele>324.3333333333333</ele><time>2026-04-24T13:24:59.999Z</time></trkpt><trkpt lat="44.62752771898058" lon="10.111728807087097"><ele>324.0</ele><time>2026-04-24T13:25:00.999Z</time></trkpt><trkpt lat="44.62770784746181" lon="10.111662013788397"><ele>322.5</ele><time>2026-04-24T13:25:01.999Z</time></trkpt><trkpt lat="44.627868313477016" lon="10.11159659881751"><ele>321.0</ele><time>2026-04-24T13:25:02.999Z</time></trkpt><trkpt lat="44.62800814447634" lon="10.111534030775395"><ele>319.5</ele><time>2026-04-24T13:25:03.999Z</time></trkpt><trkpt lat="44.628118614550466" lon="10.111441944327417"><ele>318.0</ele><time>2026-04-24T13:25:04.999Z</time></trkpt><trkpt lat="44.62820842659936" lon="10.11129414852366"><ele>317.0</ele><time>2026-04-24T13:25:05.999Z</time></trkpt><trkpt lat="44.628274680422216" lon="10.111112570510286"><ele>316.0</ele><time>2026-04-24T13:25:06.999Z</time></trkpt><trkpt lat="44.62830991821604" lon="10.110921565461478"><ele>315.0</ele><time>2026-04-24T13:25:07.999Z</time></trkpt><trkpt lat="44.628297362315735" lon="10.110740284982187"><ele>314.0</ele><time>2026-04-24T13:25:08.999Z</time></trkpt><trkpt lat="44.62825217882528" lon="10.110571645805246"><ele>313.25</ele><time>2026-04-24T13:25:09.999Z</time></trkpt><trkpt lat="44.62817610709585" lon="10.11042164509723"><ele>312.5</ele><time>2026-04-24T13:25:10.999Z</time></trkpt><trkpt lat="44.62806288508154" lon="10.110292211875235"><ele>311.75</ele><time>2026-04-24T13:25:11.999Z</time></trkpt><trkpt lat="44.627930959452314" lon="10.110153998761504"><ele>311.0</ele><time>2026-04-24T13:25:12.999Z</time></trkpt><trkpt lat="44.62779715048554" lon="10.110025013329446"><ele>309.5</ele><time>2026-04-24T13:25:13.999Z</time></trkpt><trkpt lat="44.62767684681974" lon="10.109902787678605"><ele>308.0</ele><time>2026-04-24T13:25:14.999Z</time></trkpt><trkpt lat="44.627574073505635" lon="10.10978424557633"><ele>306.5</ele><time>2026-04-24T13:25:15.999Z</time></trkpt><trkpt lat="44.62748821290241" lon="10.109654561700488"><ele>305.0</ele><time>2026-04-24T13:25:16.999Z</time></trkpt><trkpt lat="44.627431779727644" lon="10.109505124349583"><ele>305.0</ele><time>2026-04-24T13:25:17.999Z</time></trkpt><trkpt lat="44.62740947288999" lon="10.109321128486055"><ele>305.0</ele><time>2026-04-24T13:25:18.999Z</time></trkpt><trkpt lat="44.62742400331284" lon="10.109124351951518"><ele>305.0</ele><time>2026-04-24T13:25:20.001Z</time></trkpt><trkpt lat="44.62747175877705" lon="10.108928112623028"><ele>305.0</ele><time>2026-04-24T13:25:21.001Z</time></trkpt><trkpt lat="44.62756197104737" lon="10.108772769215978"><ele>305.0</ele><time>2026-04-24T13:25:22.001Z</time></trkpt><trkpt lat="44.6276781136397" lon="10.10865951936634"><ele>305.0</ele><time>2026-04-24T13:25:23.001Z</time></trkpt><trkpt lat="44.62781319155462" lon="10.108561854871486"><ele>305.0</ele><time>2026-04-24T13:25:24.001Z</time></trkpt><trkpt lat="44.627974609185365" lon="10.108498478131347"><ele>305.0</ele><time>2026-04-24T13:25:25.001Z</time></trkpt><trkpt lat="44.62814338256068" lon="10.108425461176902"><ele>305.0</ele><time>2026-04-24T13:25:26.001Z</time></trkpt><trkpt lat="44.62831286934491" lon="10.108342686112"><ele>305.0</ele><time>2026-04-24T13:25:27.001Z</time></trkpt><trkpt lat="44.62848606080992" lon="10.1082611193621"><ele>303.6666666666667</ele><time>2026-04-24T13:25:28.001Z</time></trkpt><trkpt lat="44.62865418326545" lon="10.108178655963298"><ele>302.3333333333333</ele><time>2026-04-24T13:25:29.001Z</time></trkpt><trkpt lat="44.628800705017795" lon="10.108092213369154"><ele>301.0</ele><time>2026-04-24T13:25:30.001Z</time></trkpt><trkpt lat="44.62894030575694" lon="10.107981864521385"><ele>301.0</ele><time>2026-04-24T13:25:31.001Z</time></trkpt><trkpt lat="44.62907724260306" lon="10.107853576587674"><ele>301.0</ele><time>2026-04-24T13:25:32.001Z</time></trkpt><trkpt lat="44.62922020536404" lon="10.107727311557257"><ele>301.0</ele><time>2026-04-24T13:25:33.001Z</time></trkpt><trkpt lat="44.62935867764355" lon="10.107617170025764"><ele>299.66666666666663</ele><time>2026-04-24T13:25:34.001Z</time></trkpt><trkpt lat="44.62951493628258" lon="10.107563852017034"><ele>298.3333333333333</ele><time>2026-04-24T13:25:35.001Z</time></trkpt><trkpt lat="44.629684682042715" lon="10.10753602458366"><ele>297.0</ele><time>2026-04-24T13:25:36.001Z</time></trkpt><trkpt lat="44.62985594191403" lon="10.10753696040668"><ele>297.0</ele><time>2026-04-24T13:25:37.001Z</time></trkpt><trkpt lat="44.63002259836411" lon="10.107562593988272"><ele>297.0</ele><time>2026-04-24T13:25:38.001Z</time></trkpt><trkpt lat="44.63018257212186" lon="10.107604704580709"><ele>297.0</ele><time>2026-04-24T13:25:39.001Z</time></trkpt><trkpt lat="44.63033460432632" lon="10.107629118584628"><ele>296.3333333333333</ele><time>2026-04-24T13:25:40.001Z</time></trkpt><trkpt lat="44.63048800188413" lon="10.107660137431173"><ele>295.66666666666663</ele><time>2026-04-24T13:25:41.001Z</time></trkpt><trkpt lat="44.630643645877164" lon="10.107726223956668"><ele>295.0</ele><time>2026-04-24T13:25:42.001Z</time></trkpt><trkpt lat="44.63080171751294" lon="10.107824411325849"><ele>295.0</ele><time>2026-04-24T13:25:43.001Z</time></trkpt><trkpt lat="44.6309699608298" lon="10.10793596026402"><ele>295.0</ele><time>2026-04-24T13:25:44.001Z</time></trkpt><trkpt lat="44.63114448480742" lon="10.108037176426826"><ele>295.0</ele><time>2026-04-24T13:25:45.001Z</time></trkpt><trkpt lat="44.6313012201955" lon="10.108124836097952"><ele>294.0</ele><time>2026-04-24T13:25:46.001Z</time></trkpt><trkpt lat="44.631429775006524" lon="10.108175203134302"><ele>293.0</ele><time>2026-04-24T13:25:47Z</time></trkpt><trkpt lat="44.63155669144267" lon="10.108190179502438"><ele>292.0</ele><time>2026-04-24T13:25:48Z</time></trkpt><trkpt lat="44.631707034500145" lon="10.108152013452557"><ele>291.0</ele><time>2026-04-24T13:25:49Z</time></trkpt><trkpt lat="44.63186138828336" lon="10.108054540348139"><ele>291.0</ele><time>2026-04-24T13:25:50Z</time></trkpt><trkpt lat="44.63202221960797" lon="10.107928079491035"><ele>291.0</ele><time>2026-04-24T13:25:51Z</time></trkpt><trkpt lat="44.63217767104759" lon="10.107803623753446"><ele>291.0</ele><time>2026-04-24T13:25:52Z</time></trkpt><trkpt lat="44.63233122108235" lon="10.107691518078218"><ele>291.0</ele><time>2026-04-24T13:25:53Z</time></trkpt><trkpt lat="44.63247173224702" lon="10.107619367321401"><ele>291.0</ele><time>2026-04-24T13:25:54Z</time></trkpt><trkpt lat="44.632610263935845" lon="10.107643187057626"><ele>291.0</ele><time>2026-04-24T13:25:55Z</time></trkpt><trkpt lat="44.632756888429356" lon="10.107707404760218"><ele>291.0</ele><time>2026-04-24T13:25:56Z</time></trkpt><trkpt lat="44.632917287382995" lon="10.107783939966462"><ele>294.3333333333333</ele><time>2026-04-24T13:25:57Z</time></trkpt><trkpt lat="44.63308543178289" lon="10.107870446058065"><ele>297.66666666666663</ele><time>2026-04-24T13:25:58Z</time></trkpt><trkpt lat="44.633232596562756" lon="10.107946180470941"><ele>301.0</ele><time>2026-04-24T13:25:59Z</time></trkpt><trkpt lat="44.63336019534274" lon="10.108030882889835"><ele>301.0</ele><time>2026-04-24T13:26:00Z</time></trkpt><trkpt lat="44.63347478036378" lon="10.108138950949973"><ele>301.0</ele><time>2026-04-24T13:26:01Z</time></trkpt><trkpt lat="44.633583839941515" lon="10.108277208465564"><ele>301.0</ele><time>2026-04-24T13:26:02Z</time></trkpt><trkpt lat="44.63369125692721" lon="10.108424627647464"><ele>301.0</ele><time>2026-04-24T13:26:03Z</time></trkpt><trkpt lat="44.63380587221097" lon="10.108552419738233"><ele>298.75</ele><time>2026-04-24T13:26:04Z</time></trkpt><trkpt lat="44.63392480025273" lon="10.108657553316416"><ele>296.5</ele><time>2026-04-24T13:26:05Z</time></trkpt><trkpt lat="44.634062341328" lon="10.10872144153014"><ele>294.25</ele><time>2026-04-24T13:26:06Z</time></trkpt><trkpt lat="44.63421173367589" lon="10.1087336709107"><ele>292.0</ele><time>2026-04-24T13:26:07Z</time></trkpt><trkpt lat="44.63436719048981" lon="10.108695966652077"><ele>291.66666666666663</ele><time>2026-04-24T13:26:08Z</time></trkpt><trkpt lat="44.63451768434245" lon="10.108625912181468"><ele>291.3333333333333</ele><time>2026-04-24T13:26:09Z</time></trkpt><trkpt lat="44.6346536538268" lon="10.108529417737786"><ele>291.0</ele><time>2026-04-24T13:26:10Z</time></trkpt><trkpt lat="44.634774907407234" lon="10.108427300638713"><ele>291.0</ele><time>2026-04-24T13:26:11Z</time></trkpt><trkpt lat="44.63488113944403" lon="10.108352515830017"><ele>291.0</ele><time>2026-04-24T13:26:12Z</time></trkpt><trkpt lat="44.63499335648463" lon="10.108327620315247"><ele>291.0</ele><time>2026-04-24T13:26:13Z</time></trkpt><trkpt lat="44.6351096412911" lon="10.10837898425787"><ele>291.0</ele><time>2026-04-24T13:26:14Z</time></trkpt><trkpt lat="44.63523382057162" lon="10.10844328235723"><ele>289.3333333333333</ele><time>2026-04-24T13:26:15Z</time></trkpt><trkpt lat="44.635364640020285" lon="10.108565396729189"><ele>287.66666666666663</ele><time>2026-04-24T13:26:16Z</time></trkpt><trkpt lat="44.635509163716385" lon="10.108670524655606"><ele>286.0</ele><time>2026-04-24T13:26:17Z</time></trkpt><trkpt lat="44.635643725249395" lon="10.108756353550707"><ele>286.0</ele><time>2026-04-24T13:26:18Z</time></trkpt><trkpt lat="44.63577401771647" lon="10.108821925242703"><ele>286.0</ele><time>2026-04-24T13:26:19Z</time></trkpt><trkpt lat="44.635900733078834" lon="10.1088506239841"><ele>286.0</ele><time>2026-04-24T13:26:20Z</time></trkpt><trkpt lat="44.6360299307293" lon="10.108815399503753"><ele>286.0</ele><time>2026-04-24T13:26:21Z</time></trkpt><trkpt lat="44.63615023317512" lon="10.10871007124195"><ele>281.66666666666663</ele><time>2026-04-24T13:26:22Z</time></trkpt><trkpt lat="44.63627369802398" lon="10.108569392224004"><ele>277.3333333333333</ele><time>2026-04-24T13:26:23Z</time></trkpt><trkpt lat="44.63641370539059" lon="10.108416003025507"><ele>273.0</ele><time>2026-04-24T13:26:24Z</time></trkpt><trkpt lat="44.636558236673785" lon="10.10827383844874"><ele>274.0</ele><time>2026-04-24T13:26:25Z</time></trkpt><trkpt lat="44.6367130005603" lon="10.108130763009784"><ele>275.0</ele><time>2026-04-24T13:26:26Z</time></trkpt><trkpt lat="44.63686191624817" lon="10.107982923724178"><ele>276.0</ele><time>2026-04-24T13:26:27Z</time></trkpt><trkpt lat="44.63699746042789" lon="10.107848818229733"><ele>276.0</ele><time>2026-04-24T13:26:28Z</time></trkpt><trkpt lat="44.63712085303179" lon="10.107728727507498"><ele>276.0</ele><time>2026-04-24T13:26:29Z</time></trkpt><trkpt lat="44.637234979506346" lon="10.107645066992239"><ele>276.0</ele><time>2026-04-24T13:26:30Z</time></trkpt><trkpt lat="44.637322091679145" lon="10.107545058658781"><ele>276.0</ele><time>2026-04-24T13:26:31Z</time></trkpt><trkpt lat="44.6374276257561" lon="10.107492575209225"><ele>276.0</ele><time>2026-04-24T13:26:32Z</time></trkpt><trkpt lat="44.63754991527578" lon="10.107484006123796"><ele>276.0</ele><time>2026-04-24T13:26:33Z</time></trkpt><trkpt lat="44.63767404158782" lon="10.107548018191274"><ele>276.0</ele><time>2026-04-24T13:26:34Z</time></trkpt><trkpt lat="44.63778272345642" lon="10.107675467886702"><ele>276.0</ele><time>2026-04-24T13:26:35Z</time></trkpt><trkpt lat="44.63788432310005" lon="10.107821415489262"><ele>276.25</ele><time>2026-04-24T13:26:36Z</time></trkpt><trkpt lat="44.63796121386977" lon="10.107970557746427"><ele>276.5</ele><time>2026-04-24T13:26:37Z</time></trkpt><trkpt lat="44.638028680021065" lon="10.108115688276218"><ele>276.75</ele><time>2026-04-24T13:26:38Z</time></trkpt><trkpt lat="44.638090284791616" lon="10.108287193363552"><ele>277.0</ele><time>2026-04-24T13:26:39Z</time></trkpt><trkpt lat="44.63814020202075" lon="10.108478141462543"><ele>276.5</ele><time>2026-04-24T13:26:40Z</time></trkpt><trkpt lat="44.63817396403689" lon="10.108676715054601"><ele>276.0</ele><time>2026-04-24T13:26:41Z</time></trkpt><trkpt lat="44.638205709843035" lon="10.108862986483535"><ele>275.5</ele><time>2026-04-24T13:26:42Z</time></trkpt><trkpt lat="44.63824219544395" lon="10.109032790551753"><ele>275.0</ele><time>2026-04-24T13:26:43Z</time></trkpt><trkpt lat="44.63828415019851" lon="10.109171803387694"><ele>274.0</ele><time>2026-04-24T13:26:44Z</time></trkpt><trkpt lat="44.638315741933624" lon="10.109276990661707"><ele>273.0</ele><time>2026-04-24T13:26:45Z</time></trkpt><trkpt lat="44.63835493754822" lon="10.109366093751301"><ele>272.0</ele><time>2026-04-24T13:26:46Z</time></trkpt><trkpt lat="44.638404486444095" lon="10.109447958062068"><ele>271.0</ele><time>2026-04-24T13:26:46.999Z</time></trkpt><trkpt lat="44.63845050772598" lon="10.10956489540817"><ele>270.0</ele><time>2026-04-24T13:26:47.999Z</time></trkpt><trkpt lat="44.63853577044518" lon="10.109721332901167"><ele>269.0</ele><time>2026-04-24T13:26:48.999Z</time></trkpt><trkpt lat="44.63864480289899" lon="10.109904542141347"><ele>268.0</ele><time>2026-04-24T13:26:49.999Z</time></trkpt><trkpt lat="44.63878525250013" lon="10.110115890382195"><ele>267.0</ele><time>2026-04-24T13:26:50.999Z</time></trkpt><trkpt lat="44.638913402933746" lon="10.110354670178857"><ele>267.0</ele><time>2026-04-24T13:26:51.999Z</time></trkpt><trkpt lat="44.63905872417805" lon="10.110595353788097"><ele>267.0</ele><time>2026-04-24T13:26:52.999Z</time></trkpt><trkpt lat="44.63920879171504" lon="10.110812574081088"><ele>267.0</ele><time>2026-04-24T13:26:53.999Z</time></trkpt><trkpt lat="44.63936694893389" lon="10.11102573375378"><ele>267.6666666666667</ele><time>2026-04-24T13:26:54.999Z</time></trkpt><trkpt lat="44.63952619640705" lon="10.11123895308809"><ele>268.33333333333337</ele><time>2026-04-24T13:26:55.999Z</time></trkpt><trkpt lat="44.639686316865344" lon="10.111452719200956"><ele>269.0</ele><time>2026-04-24T13:26:56.999Z</time></trkpt><trkpt lat="44.639844843237455" lon="10.111667928096095"><ele>265.33333333333337</ele><time>2026-04-24T13:26:57.999Z</time></trkpt><trkpt lat="44.64000062581743" lon="10.111880604194791"><ele>261.6666666666667</ele><time>2026-04-24T13:26:58.999Z</time></trkpt><trkpt lat="44.640152396618674" lon="10.112084768380823"><ele>258.0</ele><time>2026-04-24T13:26:59.999Z</time></trkpt><trkpt lat="44.64029198679129" lon="10.112275512341277"><ele>259.0</ele><time>2026-04-24T13:27:00.999Z</time></trkpt><trkpt lat="44.64042207014257" lon="10.112453866517074"><ele>260.0</ele><time>2026-04-24T13:27:01.999Z</time></trkpt><trkpt lat="44.6405445847347" lon="10.112642461504935"><ele>261.0</ele><time>2026-04-24T13:27:02.999Z</time></trkpt><trkpt lat="44.64064920684038" lon="10.112866890141454"><ele>261.0</ele><time>2026-04-24T13:27:03.999Z</time></trkpt><trkpt lat="44.640742623473265" lon="10.113129267538072"><ele>261.0</ele><time>2026-04-24T13:27:04.999Z</time></trkpt><trkpt lat="44.64083817699257" lon="10.113398057158266"><ele>261.0</ele><time>2026-04-24T13:27:05.999Z</time></trkpt><trkpt lat="44.64093501320956" lon="10.113658137489356"><ele>260.6666666666667</ele><time>2026-04-24T13:27:06.999Z</time></trkpt><trkpt lat="44.641029814558756" lon="10.113913443161072"><ele>260.33333333333337</ele><time>2026-04-24T13:27:07.999Z</time></trkpt><trkpt lat="44.64112310647486" lon="10.11416399299349"><ele>260.0</ele><time>2026-04-24T13:27:08.999Z</time></trkpt><trkpt lat="44.64121300687146" lon="10.114404597453825"><ele>260.0</ele><time>2026-04-24T13:27:09.999Z</time></trkpt><trkpt lat="44.64130196885564" lon="10.114642519370653"><ele>260.0</ele><time>2026-04-24T13:27:10.999Z</time></trkpt><trkpt lat="44.64138400906625" lon="10.114866651609434"><ele>260.0</ele><time>2026-04-24T13:27:11.999Z</time></trkpt><trkpt lat="44.64146646678389" lon="10.115076892491532"><ele>258.33333333333337</ele><time>2026-04-24T13:27:12.999Z</time></trkpt><trkpt lat="44.64154578097948" lon="10.115278064579174"><ele>256.6666666666667</ele><time>2026-04-24T13:27:13.999Z</time></trkpt><trkpt lat="44.64161316115956" lon="10.115478325049976"><ele>255.0</ele><time>2026-04-24T13:27:14.999Z</time></trkpt><trkpt lat="44.64168100065505" lon="10.11568526097405"><ele>253.33333333333331</ele><time>2026-04-24T13:27:15.999Z</time></trkpt><trkpt lat="44.641756957014245" lon="10.115884794756372"><ele>251.66666666666666</ele><time>2026-04-24T13:27:16.999Z</time></trkpt><trkpt lat="44.64183437914599" lon="10.116084004602303"><ele>250.0</ele><time>2026-04-24T13:27:17.999Z</time></trkpt><trkpt lat="44.64191661290807" lon="10.116272008690622"><ele>249.66666666666666</ele><time>2026-04-24T13:27:18.999Z</time></trkpt><trkpt lat="44.64200756967779" lon="10.116451772649027"><ele>249.33333333333331</ele><time>2026-04-24T13:27:19.999Z</time></trkpt><trkpt lat="44.64211028941506" lon="10.116618794937631"><ele>249.0</ele><time>2026-04-24T13:27:20.999Z</time></trkpt><trkpt lat="44.64223088648312" lon="10.116775843355171"><ele>249.0</ele><time>2026-04-24T13:27:21.999Z</time></trkpt><trkpt lat="44.642360406962894" lon="10.116927766204995"><ele>249.0</ele><time>2026-04-24T13:27:22.999Z</time></trkpt><trkpt lat="44.642477156736156" lon="10.11709453359611"><ele>249.0</ele><time>2026-04-24T13:27:23.999Z</time></trkpt><trkpt lat="44.64258809613346" lon="10.117245416813219"><ele>249.0</ele><time>2026-04-24T13:27:25.001Z</time></trkpt><trkpt lat="44.64270919260857" lon="10.117382245474355"><ele>249.0</ele><time>2026-04-24T13:27:26.001Z</time></trkpt><trkpt lat="44.6428487250483" lon="10.11751057171322"><ele>249.0</ele><time>2026-04-24T13:27:27.001Z</time></trkpt><trkpt lat="44.64299675182417" lon="10.117634701237119"><ele>249.33333333333331</ele><time>2026-04-24T13:27:28.001Z</time></trkpt><trkpt lat="44.64314868208684" lon="10.117759982352275"><ele>249.66666666666666</ele><time>2026-04-24T13:27:29.001Z</time></trkpt><trkpt lat="44.64330263821018" lon="10.117891933678957"><ele>250.0</ele><time>2026-04-24T13:27:30.001Z</time></trkpt><trkpt lat="44.64345127076322" lon="10.118024719486558"><ele>250.0</ele><time>2026-04-24T13:27:31.001Z</time></trkpt><trkpt lat="44.64358389196386" lon="10.118145067477732"><ele>250.0</ele><time>2026-04-24T13:27:32.001Z</time></trkpt><trkpt lat="44.6436981341283" lon="10.118237429720923"><ele>250.0</ele><time>2026-04-24T13:27:33.001Z</time></trkpt><trkpt lat="44.64381309841148" lon="10.118308102473035"><ele>250.0</ele><time>2026-04-24T13:27:34.001Z</time></trkpt><trkpt lat="44.64394223780974" lon="10.118351607528655"><ele>248.0</ele><time>2026-04-24T13:27:35.001Z</time></trkpt><trkpt lat="44.64408197796037" lon="10.11837637401061"><ele>246.0</ele><time>2026-04-24T13:27:36.001Z</time></trkpt><trkpt lat="44.644229269559474" lon="10.118396815796995"><ele>244.0</ele><time>2026-04-24T13:27:37.001Z</time></trkpt><trkpt lat="44.644376452936314" lon="10.118431452939483"><ele>242.0</ele><time>2026-04-24T13:27:38.001Z</time></trkpt><trkpt lat="44.64452328174448" lon="10.118482334277635"><ele>242.0</ele><time>2026-04-24T13:27:39.001Z</time></trkpt><trkpt lat="44.64466954334869" lon="10.118548388605218"><ele>242.0</ele><time>2026-04-24T13:27:40.001Z</time></trkpt><trkpt lat="44.64481541174643" lon="10.11863107496567"><ele>242.0</ele><time>2026-04-24T13:27:41.001Z</time></trkpt><trkpt lat="44.64495008881134" lon="10.118746212414395"><ele>242.0</ele><time>2026-04-24T13:27:42.001Z</time></trkpt><trkpt lat="44.64508384743236" lon="10.1188839790569"><ele>242.0</ele><time>2026-04-24T13:27:43Z</time></trkpt><trkpt lat="44.645216355882496" lon="10.119034037521397"><ele>242.0</ele><time>2026-04-24T13:27:44Z</time></trkpt><trkpt lat="44.64535420682583" lon="10.119178691134248"><ele>241.0</ele><time>2026-04-24T13:27:45Z</time></trkpt><trkpt lat="44.64550220954163" lon="10.119321133235855"><ele>240.0</ele><time>2026-04-24T13:27:46Z</time></trkpt><trkpt lat="44.64566163042243" lon="10.119450409926214"><ele>239.0</ele><time>2026-04-24T13:27:47Z</time></trkpt><trkpt lat="44.64583129266136" lon="10.119564214487625"><ele>239.0</ele><time>2026-04-24T13:27:48Z</time></trkpt><trkpt lat="44.646012389681125" lon="10.119659116246766"><ele>239.0</ele><time>2026-04-24T13:27:49Z</time></trkpt><trkpt lat="44.646193929114936" lon="10.119744187530324"><ele>239.0</ele><time>2026-04-24T13:27:50Z</time></trkpt><trkpt lat="44.64636420960795" lon="10.119830455012771"><ele>237.0</ele><time>2026-04-24T13:27:51Z</time></trkpt><trkpt lat="44.646536857191016" lon="10.119912487590241"><ele>235.0</ele><time>2026-04-24T13:27:52Z</time></trkpt><trkpt lat="44.64671853040355" lon="10.11998637908753"><ele>233.0</ele><time>2026-04-24T13:27:53Z</time></trkpt><trkpt lat="44.64689500188766" lon="10.120052653784859"><ele>233.33333333333334</ele><time>2026-04-24T13:27:54Z</time></trkpt><trkpt lat="44.64706134426004" lon="10.12011664857855"><ele>233.66666666666669</ele><time>2026-04-24T13:27:55Z</time></trkpt><trkpt lat="44.64723201955794" lon="10.120183682364482"><ele>234.0</ele><time>2026-04-24T13:27:56Z</time></trkpt><trkpt lat="44.647404120446446" lon="10.120249495906686"><ele>234.0</ele><time>2026-04-24T13:27:57Z</time></trkpt><trkpt lat="44.64757808226131" lon="10.120309862467469"><ele>234.0</ele><time>2026-04-24T13:27:58Z</time></trkpt><trkpt lat="44.64775021115144" lon="10.120367723595844"><ele>234.0</ele><time>2026-04-24T13:27:59Z</time></trkpt><trkpt lat="44.64792107346839" lon="10.120427367042998"><ele>236.66666666666669</ele><time>2026-04-24T13:28:00Z</time></trkpt><trkpt lat="44.6480902273771" lon="10.120490162844069"><ele>239.33333333333334</ele><time>2026-04-24T13:28:01Z</time></trkpt><trkpt lat="44.648259037990535" lon="10.120561852480671"><ele>242.0</ele><time>2026-04-24T13:28:02Z</time></trkpt><trkpt lat="44.64842937744455" lon="10.120631710939003"><ele>242.0</ele><time>2026-04-24T13:28:03Z</time></trkpt><trkpt lat="44.64860012788226" lon="10.120699439169742"><ele>242.0</ele><time>2026-04-24T13:28:03.999Z</time></trkpt><trkpt lat="44.648769045786274" lon="10.12076515802589"><ele>242.0</ele><time>2026-04-24T13:28:04.999Z</time></trkpt><trkpt lat="44.648939432346225" lon="10.120826937861375"><ele>238.66666666666669</ele><time>2026-04-24T13:28:05.999Z</time></trkpt><trkpt lat="44.64910970195231" lon="10.120888166184232"><ele>235.33333333333331</ele><time>2026-04-24T13:28:06.999Z</time></trkpt><trkpt lat="44.64928097784719" lon="10.120950061257869"><ele>232.0</ele><time>2026-04-24T13:28:07.999Z</time></trkpt><trkpt lat="44.64944879577332" lon="10.121018399303233"><ele>232.0</ele><time>2026-04-24T13:28:08.999Z</time></trkpt><trkpt lat="44.64961524263039" lon="10.121084306761038"><ele>232.0</ele><time>2026-04-24T13:28:09.999Z</time></trkpt><trkpt lat="44.649782785549014" lon="10.121150195207035"><ele>232.0</ele><time>2026-04-24T13:28:10.999Z</time></trkpt><trkpt lat="44.64994997767594" lon="10.121216267543804"><ele>232.0</ele><time>2026-04-24T13:28:11.999Z</time></trkpt><trkpt lat="44.65011967093654" lon="10.12128350002257"><ele>232.0</ele><time>2026-04-24T13:28:12.999Z</time></trkpt><trkpt lat="44.65028009128412" lon="10.121364319576116"><ele>232.0</ele><time>2026-04-24T13:28:13.999Z</time></trkpt><trkpt lat="44.650417677482324" lon="10.121494633216237"><ele>231.75</ele><time>2026-04-24T13:28:14.999Z</time></trkpt><trkpt lat="44.65055083461214" lon="10.121603134458729"><ele>231.5</ele><time>2026-04-24T13:28:15.999Z</time></trkpt><trkpt lat="44.65066430323724" lon="10.12172108679941"><ele>231.25</ele><time>2026-04-24T13:28:16.999Z</time></trkpt><trkpt lat="44.650798029272494" lon="10.121800588236884"><ele>231.0</ele><time>2026-04-24T13:28:17.999Z</time></trkpt><trkpt lat="44.650953046315394" lon="10.121829697817"><ele>231.0</ele><time>2026-04-24T13:28:18.999Z</time></trkpt><trkpt lat="44.65112243503465" lon="10.121799353008534"><ele>231.0</ele><time>2026-04-24T13:28:19.999Z</time></trkpt><trkpt lat="44.651297004314735" lon="10.121724250449319"><ele>231.0</ele><time>2026-04-24T13:28:20.999Z</time></trkpt><trkpt lat="44.65146831459144" lon="10.121630863823086"><ele>231.33333333333331</ele><time>2026-04-24T13:28:21.999Z</time></trkpt><trkpt lat="44.6516323903994" lon="10.121578758156721"><ele>231.66666666666666</ele><time>2026-04-24T13:28:22.999Z</time></trkpt><trkpt lat="44.65179889604838" lon="10.12158960631882"><ele>232.0</ele><time>2026-04-24T13:28:23.999Z</time></trkpt><trkpt lat="44.651968422187345" lon="10.121645400982292"><ele>232.0</ele><time>2026-04-24T13:28:24.999Z</time></trkpt><trkpt lat="44.65212559677868" lon="10.12172462186359"><ele>232.0</ele><time>2026-04-24T13:28:25.999Z</time></trkpt><trkpt lat="44.65227547071454" lon="10.121815274725646"><ele>232.0</ele><time>2026-04-24T13:28:26.999Z</time></trkpt><trkpt lat="44.65238603502895" lon="10.121993085659891"><ele>232.0</ele><time>2026-04-24T13:28:27.999Z</time></trkpt><trkpt lat="44.65248010188931" lon="10.122189890893603"><ele>232.0</ele><time>2026-04-24T13:28:28.999Z</time></trkpt><trkpt lat="44.652563844560305" lon="10.122401815139332"><ele>232.0</ele><time>2026-04-24T13:28:29.999Z</time></trkpt><trkpt lat="44.65263194661309" lon="10.122598355333292"><ele>232.0</ele><time>2026-04-24T13:28:30.999Z</time></trkpt><trkpt lat="44.65273233025914" lon="10.122761286120973"><ele>232.0</ele><time>2026-04-24T13:28:31.999Z</time></trkpt><trkpt lat="44.65287110169038" lon="10.122889529016463"><ele>232.0</ele><time>2026-04-24T13:28:32.999Z</time></trkpt><trkpt lat="44.65303602745056" lon="10.122981581643767"><ele>232.0</ele><time>2026-04-24T13:28:33.999Z</time></trkpt><trkpt lat="44.65318950660693" lon="10.123086778275072"><ele>232.0</ele><time>2026-04-24T13:28:34.999Z</time></trkpt><trkpt lat="44.65334167144538" lon="10.12320111805648"><ele>232.0</ele><time>2026-04-24T13:28:35.999Z</time></trkpt><trkpt lat="44.653495781401965" lon="10.1233022009157"><ele>229.33333333333331</ele><time>2026-04-24T13:28:36.999Z</time></trkpt><trkpt lat="44.653655241625586" lon="10.12338629028781"><ele>226.66666666666669</ele><time>2026-04-24T13:28:37.999Z</time></trkpt><trkpt lat="44.6538192579236" lon="10.12345485777592"><ele>224.0</ele><time>2026-04-24T13:28:38.999Z</time></trkpt><trkpt lat="44.65398369528882" lon="10.123523891805224"><ele>224.0</ele><time>2026-04-24T13:28:39.999Z</time></trkpt><trkpt lat="44.65414724984187" lon="10.123599434110734"><ele>224.0</ele><time>2026-04-24T13:28:40.999Z</time></trkpt><trkpt lat="44.65431115878981" lon="10.123676442645205"><ele>224.0</ele><time>2026-04-24T13:28:41.999Z</time></trkpt><trkpt lat="44.65447078052561" lon="10.123758600822509"><ele>225.0</ele><time>2026-04-24T13:28:42.999Z</time></trkpt><trkpt lat="44.65462406444225" lon="10.123860526628366"><ele>226.0</ele><time>2026-04-24T13:28:43.999Z</time></trkpt><trkpt lat="44.65476221037751" lon="10.123989613815308"><ele>227.0</ele><time>2026-04-24T13:28:44.999Z</time></trkpt><trkpt lat="44.65488062064641" lon="10.124147969381072"><ele>225.0</ele><time>2026-04-24T13:28:45.999Z</time></trkpt><trkpt lat="44.65497230550653" lon="10.124341173916608"><ele>223.0</ele><time>2026-04-24T13:28:46.999Z</time></trkpt><trkpt lat="44.6550529734295" lon="10.124516937732148"><ele>221.0</ele><time>2026-04-24T13:28:47.999Z</time></trkpt><trkpt lat="44.65516256311178" lon="10.124635981034132"><ele>219.33333333333334</ele><time>2026-04-24T13:28:48.999Z</time></trkpt><trkpt lat="44.655296516597964" lon="10.124705689742674"><ele>217.66666666666669</ele><time>2026-04-24T13:28:49.999Z</time></trkpt><trkpt lat="44.655451705660205" lon="10.124730704595677"><ele>216.0</ele><time>2026-04-24T13:28:50.999Z</time></trkpt><trkpt lat="44.65561631462587" lon="10.12471272141644"><ele>216.0</ele><time>2026-04-24T13:28:51.999Z</time></trkpt><trkpt lat="44.655782230682895" lon="10.124682458766356"><ele>216.0</ele><time>2026-04-24T13:28:52.999Z</time></trkpt><trkpt lat="44.65594046373027" lon="10.12466593999771"><ele>216.0</ele><time>2026-04-24T13:28:53.998Z</time></trkpt><trkpt lat="44.656095749930955" lon="10.124684626481962"><ele>213.0</ele><time>2026-04-24T13:28:54.998Z</time></trkpt><trkpt lat="44.65624586767386" lon="10.124777942969422"><ele>210.0</ele><time>2026-04-24T13:28:55.998Z</time></trkpt><trkpt lat="44.65640154088565" lon="10.12487577575895"><ele>207.0</ele><time>2026-04-24T13:28:56.998Z</time></trkpt><trkpt lat="44.65654496315444" lon="10.12500684245902"><ele>207.0</ele><time>2026-04-24T13:28:57.998Z</time></trkpt><trkpt lat="44.65669261596779" lon="10.125132906416145"><ele>207.0</ele><time>2026-04-24T13:28:58.998Z</time></trkpt><trkpt lat="44.65684249906926" lon="10.125261184997326"><ele>207.0</ele><time>2026-04-24T13:28:59.998Z</time></trkpt><trkpt lat="44.65699634153476" lon="10.125391853631214"><ele>207.0</ele><time>2026-04-24T13:29:00.998Z</time></trkpt><trkpt lat="44.65715203277861" lon="10.125524121626395"><ele>207.0</ele><time>2026-04-24T13:29:01.998Z</time></trkpt><trkpt lat="44.65731010764203" lon="10.125657907428916"><ele>207.0</ele><time>2026-04-24T13:29:02.998Z</time></trkpt><trkpt lat="44.65747059238755" lon="10.125792157794722"><ele>207.0</ele><time>2026-04-24T13:29:03.998Z</time></trkpt><trkpt lat="44.65763371846052" lon="10.125922453779758"><ele>207.0</ele><time>2026-04-24T13:29:04.998Z</time></trkpt><trkpt lat="44.65779975899804" lon="10.126045645744517"><ele>207.0</ele><time>2026-04-24T13:29:05.998Z</time></trkpt><trkpt lat="44.6579719161256" lon="10.126160936932024"><ele>206.33333333333331</ele><time>2026-04-24T13:29:06.998Z</time></trkpt><trkpt lat="44.658150097627455" lon="10.126263805861397"><ele>205.66666666666666</ele><time>2026-04-24T13:29:07.998Z</time></trkpt><trkpt lat="44.658334534545254" lon="10.12635309161446"><ele>205.0</ele><time>2026-04-24T13:29:08.998Z</time></trkpt><trkpt lat="44.658521502782776" lon="10.126434846832623"><ele>205.33333333333331</ele><time>2026-04-24T13:29:09.998Z</time></trkpt><trkpt lat="44.65871463901325" lon="10.126505698711096"><ele>205.66666666666669</ele><time>2026-04-24T13:29:10.998Z</time></trkpt><trkpt lat="44.65890782233699" lon="10.126571935829363"><ele>206.0</ele><time>2026-04-24T13:29:11.998Z</time></trkpt><trkpt lat="44.6591007205731" lon="10.126628839632446"><ele>207.33333333333334</ele><time>2026-04-24T13:29:12.998Z</time></trkpt><trkpt lat="44.65928470924552" lon="10.126646801584071"><ele>208.66666666666669</ele><time>2026-04-24T13:29:13.998Z</time></trkpt><trkpt lat="44.65946303115047" lon="10.126611465347358"><ele>210.0</ele><time>2026-04-24T13:29:14.998Z</time></trkpt><trkpt lat="44.65963705261899" lon="10.126544560535487"><ele>210.0</ele><time>2026-04-24T13:29:15.998Z</time></trkpt><trkpt lat="44.65980058873188" lon="10.126447934227878"><ele>210.0</ele><time>2026-04-24T13:29:16.998Z</time></trkpt><trkpt lat="44.65995758149856" lon="10.126336037113091"><ele>210.0</ele><time>2026-04-24T13:29:17.998Z</time></trkpt><trkpt lat="44.660122228215826" lon="10.126228901031828"><ele>210.0</ele><time>2026-04-24T13:29:18.998Z</time></trkpt><trkpt lat="44.66029101490337" lon="10.126130488643302"><ele>210.0</ele><time>2026-04-24T13:29:19.998Z</time></trkpt><trkpt lat="44.66046413701068" lon="10.126029553394394"><ele>210.0</ele><time>2026-04-24T13:29:20.998Z</time></trkpt><trkpt lat="44.660633037009454" lon="10.12593561166332"><ele>210.0</ele><time>2026-04-24T13:29:21.998Z</time></trkpt><trkpt lat="44.660802064543546" lon="10.125863808041892"><ele>210.0</ele><time>2026-04-24T13:29:22.998Z</time></trkpt><trkpt lat="44.660980760981275" lon="10.125806274208347"><ele>210.0</ele><time>2026-04-24T13:29:23.998Z</time></trkpt><trkpt lat="44.66116635503815" lon="10.125757091858379"><ele>207.33333333333331</ele><time>2026-04-24T13:29:24.998Z</time></trkpt><trkpt lat="44.66135036549511" lon="10.125700437757356"><ele>204.66666666666666</ele><time>2026-04-24T13:29:25.998Z</time></trkpt><trkpt lat="44.66153344863399" lon="10.12563873864809"><ele>202.0</ele><time>2026-04-24T13:29:26.998Z</time></trkpt><trkpt lat="44.66171619598821" lon="10.125581844958466"><ele>202.0</ele><time>2026-04-24T13:29:27.998Z</time></trkpt><trkpt lat="44.661891965185355" lon="10.125531255636645"><ele>202.0</ele><time>2026-04-24T13:29:28.998Z</time></trkpt><trkpt lat="44.66206383287948" lon="10.125481070410466"><ele>202.0</ele><time>2026-04-24T13:29:29.998Z</time></trkpt><trkpt lat="44.66223216792847" lon="10.125428485953709"><ele>202.33333333333331</ele><time>2026-04-24T13:29:31Z</time></trkpt><trkpt lat="44.66239686831322" lon="10.125375828347979"><ele>202.66666666666669</ele><time>2026-04-24T13:29:32Z</time></trkpt><trkpt lat="44.662560018253274" lon="10.12532450137473"><ele>203.0</ele><time>2026-04-24T13:29:33Z</time></trkpt><trkpt lat="44.66271926703219" lon="10.125276595152037"><ele>204.33333333333334</ele><time>2026-04-24T13:29:34Z</time></trkpt><trkpt lat="44.662884719509634" lon="10.125232881985054"><ele>205.66666666666669</ele><time>2026-04-24T13:29:35Z</time></trkpt><trkpt lat="44.663040081286375" lon="10.125181007446473"><ele>207.0</ele><time>2026-04-24T13:29:36Z</time></trkpt><trkpt lat="44.66317950820993" lon="10.125106287064577"><ele>207.0</ele><time>2026-04-24T13:29:37Z</time></trkpt><trkpt lat="44.663296372990324" lon="10.12500212018393"><ele>207.0</ele><time>2026-04-24T13:29:38Z</time></trkpt><trkpt lat="44.66339089747256" lon="10.124847861464144"><ele>207.0</ele><time>2026-04-24T13:29:39Z</time></trkpt><trkpt lat="44.66347615778911" lon="10.12466692602842"><ele>207.0</ele><time>2026-04-24T13:29:40Z</time></trkpt><trkpt lat="44.6635591808967" lon="10.124476863129424"><ele>206.66666666666669</ele><time>2026-04-24T13:29:41Z</time></trkpt><trkpt lat="44.663667913986714" lon="10.124303791493645"><ele>206.33333333333334</ele><time>2026-04-24T13:29:42Z</time></trkpt><trkpt lat="44.6637636592617" lon="10.124105608330533"><ele>206.0</ele><time>2026-04-24T13:29:43Z</time></trkpt><trkpt lat="44.66388376503088" lon="10.1239287069697"><ele>204.0</ele><time>2026-04-24T13:29:44Z</time></trkpt><trkpt lat="44.66401212746084" lon="10.123764801362466"><ele>202.0</ele><time>2026-04-24T13:29:45Z</time></trkpt><trkpt lat="44.66415861423349" lon="10.123617036475876"><ele>200.0</ele><time>2026-04-24T13:29:46Z</time></trkpt><trkpt lat="44.66431133193261" lon="10.123453926972036"><ele>199.66666666666669</ele><time>2026-04-24T13:29:47Z</time></trkpt><trkpt lat="44.6644686624956" lon="10.123276064426694"><ele>199.33333333333331</ele><time>2026-04-24T13:29:48Z</time></trkpt><trkpt lat="44.66463009248868" lon="10.123096297953996"><ele>199.0</ele><time>2026-04-24T13:29:49Z</time></trkpt><trkpt lat="44.66480272143209" lon="10.122908823913162"><ele>199.0</ele><time>2026-04-24T13:29:50Z</time></trkpt><trkpt lat="44.66497757472547" lon="10.122705114837872"><ele>199.0</ele><time>2026-04-24T13:29:51Z</time></trkpt><trkpt lat="44.665172300397245" lon="10.12251302544261"><ele>199.5</ele><time>2026-04-24T13:29:52Z</time></trkpt><trkpt lat="44.665366682367186" lon="10.1222995404391"><ele>200.0</ele><time>2026-04-24T13:29:53Z</time></trkpt><trkpt lat="44.66555732836805" lon="10.122091674778789"><ele>200.0</ele><time>2026-04-24T13:29:54Z</time></trkpt><trkpt lat="44.665738727582415" lon="10.12187844395143"><ele>200.0</ele><time>2026-04-24T13:29:55Z</time></trkpt><trkpt lat="44.66591681407422" lon="10.121699977009984"><ele>200.0</ele><time>2026-04-24T13:29:56Z</time></trkpt><trkpt lat="44.66608234011817" lon="10.121532215154463"><ele>200.0</ele><time>2026-04-24T13:29:57Z</time></trkpt><trkpt lat="44.66624588482805" lon="10.12137280986588"><ele>200.0</ele><time>2026-04-24T13:29:58Z</time></trkpt><trkpt lat="44.66641739202755" lon="10.121222614660102"><ele>199.66666666666669</ele><time>2026-04-24T13:29:59Z</time></trkpt><trkpt lat="44.66659459479633" lon="10.121085888792393"><ele>199.33333333333331</ele><time>2026-04-24T13:30:00Z</time></trkpt><trkpt lat="44.666775552351034" lon="10.120954894516524"><ele>199.0</ele><time>2026-04-24T13:30:01Z</time></trkpt><trkpt lat="44.66695933427436" lon="10.120831338993618"><ele>198.0</ele><time>2026-04-24T13:30:02Z</time></trkpt><trkpt lat="44.66714532825975" lon="10.120709541547043"><ele>197.0</ele><time>2026-04-24T13:30:03Z</time></trkpt><trkpt lat="44.66733489014524" lon="10.120596132870851"><ele>196.0</ele><time>2026-04-24T13:30:04Z</time></trkpt><trkpt lat="44.667523263891134" lon="10.120486820986576"><ele>196.0</ele><time>2026-04-24T13:30:05Z</time></trkpt><trkpt lat="44.66770791809863" lon="10.120377706370176"><ele>196.0</ele><time>2026-04-24T13:30:06Z</time></trkpt><trkpt lat="44.66788551210763" lon="10.12027173759686"><ele>196.0</ele><time>2026-04-24T13:30:07Z</time></trkpt><trkpt lat="44.668064575420004" lon="10.120165121883973"><ele>193.33333333333331</ele><time>2026-04-24T13:30:08Z</time></trkpt><trkpt lat="44.6682478550314" lon="10.12006003765223"><ele>190.66666666666666</ele><time>2026-04-24T13:30:09Z</time></trkpt><trkpt lat="44.66842896674231" lon="10.119967604671553"><ele>188.0</ele><time>2026-04-24T13:30:10Z</time></trkpt><trkpt lat="44.66861328107733" lon="10.119901657674578"><ele>188.33333333333331</ele><time>2026-04-24T13:30:11Z</time></trkpt><trkpt lat="44.66879672307138" lon="10.119857207748543"><ele>188.66666666666666</ele><time>2026-04-24T13:30:12Z</time></trkpt><trkpt lat="44.66897295497491" lon="10.119821840430578"><ele>189.0</ele><time>2026-04-24T13:30:13Z</time></trkpt><trkpt lat="44.669146096277295" lon="10.119763744699053"><ele>189.0</ele><time>2026-04-24T13:30:14Z</time></trkpt><trkpt lat="44.66931280710962" lon="10.119687118767901"><ele>189.0</ele><time>2026-04-24T13:30:15Z</time></trkpt><trkpt lat="44.66948143454694" lon="10.119597626358512"><ele>189.0</ele><time>2026-04-24T13:30:16Z</time></trkpt><trkpt lat="44.66964386010988" lon="10.119506925900561"><ele>191.33333333333331</ele><time>2026-04-24T13:30:17Z</time></trkpt><trkpt lat="44.66980123706438" lon="10.119415387942048"><ele>193.66666666666666</ele><time>2026-04-24T13:30:18Z</time></trkpt><trkpt lat="44.66995533557314" lon="10.11932768636497"><ele>196.0</ele><time>2026-04-24T13:30:19Z</time></trkpt><trkpt lat="44.67011321365107" lon="10.119239476008328"><ele>196.0</ele><time>2026-04-24T13:30:20Z</time></trkpt><trkpt lat="44.670271357198075" lon="10.119149491800304"><ele>196.0</ele><time>2026-04-24T13:30:21Z</time></trkpt><trkpt lat="44.67042464983174" lon="10.119065372093978"><ele>196.0</ele><time>2026-04-24T13:30:22Z</time></trkpt><trkpt lat="44.67057977498666" lon="10.118980577050484"><ele>196.0</ele><time>2026-04-24T13:30:23Z</time></trkpt><trkpt lat="44.67073732029291" lon="10.118893444616866"><ele>196.0</ele><time>2026-04-24T13:30:24Z</time></trkpt><trkpt lat="44.670891228999665" lon="10.118805019452337"><ele>196.0</ele><time>2026-04-24T13:30:25Z</time></trkpt><trkpt lat="44.671049922070296" lon="10.118713657624951"><ele>196.33333333333331</ele><time>2026-04-24T13:30:26Z</time></trkpt><trkpt lat="44.67120597174365" lon="10.118629688796366"><ele>196.66666666666669</ele><time>2026-04-24T13:30:27Z</time></trkpt><trkpt lat="44.67135794713585" lon="10.118544253942433"><ele>197.0</ele><time>2026-04-24T13:30:28Z</time></trkpt><trkpt lat="44.671500198306134" lon="10.11846578057964"><ele>197.0</ele><time>2026-04-24T13:30:29Z</time></trkpt><trkpt lat="44.671631709281606" lon="10.118391281076969"><ele>197.0</ele><time>2026-04-24T13:30:30Z</time></trkpt><trkpt lat="44.67176038453859" lon="10.118320722670068"><ele>197.0</ele><time>2026-04-24T13:30:31Z</time></trkpt><trkpt lat="44.67188893670647" lon="10.118252531568473"><ele>197.0</ele><time>2026-04-24T13:30:32Z</time></trkpt><trkpt lat="44.67201618151172" lon="10.118163014732053"><ele>197.0</ele><time>2026-04-24T13:30:33Z</time></trkpt><trkpt lat="44.672134151372845" lon="10.11804288581551"><ele>197.0</ele><time>2026-04-24T13:30:34Z</time></trkpt><trkpt lat="44.67223047693489" lon="10.11787514148844"><ele>197.0</ele><time>2026-04-24T13:30:35Z</time></trkpt><trkpt lat="44.67231360302311" lon="10.117694218259716"><ele>197.0</ele><time>2026-04-24T13:30:36Z</time></trkpt><trkpt lat="44.67238936526759" lon="10.117504314669944"><ele>197.0</ele><time>2026-04-24T13:30:37Z</time></trkpt><trkpt lat="44.67245722257088" lon="10.117299759025409"><ele>197.0</ele><time>2026-04-24T13:30:38Z</time></trkpt><trkpt lat="44.6725317239546" lon="10.117100889848759"><ele>196.0</ele><time>2026-04-24T13:30:39Z</time></trkpt><trkpt lat="44.67260860679697" lon="10.116894658671022"><ele>195.0</ele><time>2026-04-24T13:30:39.999Z</time></trkpt><trkpt lat="44.67268761645577" lon="10.116675791453888"><ele>194.0</ele><time>2026-04-24T13:30:40.999Z</time></trkpt><trkpt lat="44.67276389509341" lon="10.1164715710318"><ele>194.25</ele><time>2026-04-24T13:30:41.999Z</time></trkpt><trkpt lat="44.67283396258896" lon="10.116285587338272"><ele>194.5</ele><time>2026-04-24T13:30:42.999Z</time></trkpt><trkpt lat="44.672897123108015" lon="10.116108456268508"><ele>194.75</ele><time>2026-04-24T13:30:43.999Z</time></trkpt><trkpt lat="44.67296278271164" lon="10.115941926175159"><ele>195.0</ele><time>2026-04-24T13:30:44.999Z</time></trkpt><trkpt lat="44.67299280535149" lon="10.115745020662038"><ele>194.5</ele><time>2026-04-24T13:30:45.999Z</time></trkpt><trkpt lat="44.67297126541735" lon="10.115537548941084"><ele>194.0</ele><time>2026-04-24T13:30:46.999Z</time></trkpt><trkpt lat="44.672931551786434" lon="10.115346305623241"><ele>193.5</ele><time>2026-04-24T13:30:47.999Z</time></trkpt><trkpt lat="44.672887859318905" lon="10.115153100724047"><ele>193.0</ele><time>2026-04-24T13:30:48.999Z</time></trkpt><trkpt lat="44.67282860226331" lon="10.114966588800486"><ele>192.25</ele><time>2026-04-24T13:30:49.999Z</time></trkpt><trkpt lat="44.672776724013396" lon="10.114785570534838"><ele>191.5</ele><time>2026-04-24T13:30:50.999Z</time></trkpt><trkpt lat="44.67274474723528" lon="10.114607503827546"><ele>190.75</ele><time>2026-04-24T13:30:51.999Z</time></trkpt><trkpt lat="44.67275030697559" lon="10.114420488205766"><ele>190.0</ele><time>2026-04-24T13:30:52.999Z</time></trkpt><trkpt lat="44.67277857873072" lon="10.114226420788766"><ele>190.75</ele><time>2026-04-24T13:30:53.999Z</time></trkpt><trkpt lat="44.67283689194161" lon="10.114049322496884"><ele>191.5</ele><time>2026-04-24T13:30:54.999Z</time></trkpt><trkpt lat="44.672892786136984" lon="10.113868641890623"><ele>192.25</ele><time>2026-04-24T13:30:55.999Z</time></trkpt><trkpt lat="44.67292517274158" lon="10.113678371013144"><ele>193.0</ele><time>2026-04-24T13:30:56.999Z</time></trkpt><trkpt lat="44.672938047376185" lon="10.113483672148636"><ele>193.0</ele><time>2026-04-24T13:30:57.999Z</time></trkpt><trkpt lat="44.672876523643026" lon="10.113285039683268"><ele>193.0</ele><time>2026-04-24T13:30:58.999Z</time></trkpt><trkpt lat="44.67281613610243" lon="10.113091305481866"><ele>193.0</ele><time>2026-04-24T13:30:59.999Z</time></trkpt><trkpt lat="44.67276528637157" lon="10.112915607363975"><ele>193.0</ele><time>2026-04-24T13:31:00.999Z</time></trkpt><trkpt lat="44.67272631164103" lon="10.11274204109203"><ele>193.0</ele><time>2026-04-24T13:31:01.999Z</time></trkpt><trkpt lat="44.67270147009917" lon="10.112561804401803"><ele>193.0</ele><time>2026-04-24T13:31:02.999Z</time></trkpt><trkpt lat="44.67269817102287" lon="10.112374424375055"><ele>193.0</ele><time>2026-04-24T13:31:03.999Z</time></trkpt><trkpt lat="44.672718001326075" lon="10.11217915303728"><ele>193.0</ele><time>2026-04-24T13:31:04.999Z</time></trkpt><trkpt lat="44.67278242151006" lon="10.112001611530847"><ele>193.0</ele><time>2026-04-24T13:31:05.999Z</time></trkpt><trkpt lat="44.672835009636685" lon="10.111822390222006"><ele>193.0</ele><time>2026-04-24T13:31:06.999Z</time></trkpt><trkpt lat="44.67292138633327" lon="10.111650520136083"><ele>193.0</ele><time>2026-04-24T13:31:07.999Z</time></trkpt><trkpt lat="44.67299887901717" lon="10.111471310001061"><ele>193.0</ele><time>2026-04-24T13:31:08.999Z</time></trkpt><trkpt lat="44.67307395686191" lon="10.111297180129002"><ele>192.25</ele><time>2026-04-24T13:31:09.999Z</time></trkpt><trkpt lat="44.673148300888364" lon="10.111131782486073"><ele>191.5</ele><time>2026-04-24T13:31:10.999Z</time></trkpt><trkpt lat="44.6732075779137" lon="10.1109746301839"><ele>190.75</ele><time>2026-04-24T13:31:11.999Z</time></trkpt><trkpt lat="44.67323029467623" lon="10.11080032041469"><ele>190.0</ele><time>2026-04-24T13:31:12.999Z</time></trkpt><trkpt lat="44.673206664315366" lon="10.110610462772398"><ele>190.0</ele><time>2026-04-24T13:31:13.999Z</time></trkpt><trkpt lat="44.673159963724366" lon="10.110420717819727"><ele>190.0</ele><time>2026-04-24T13:31:14.999Z</time></trkpt><trkpt lat="44.673121004298004" lon="10.11023556948769"><ele>190.0</ele><time>2026-04-24T13:31:15.999Z</time></trkpt><trkpt lat="44.673087003125666" lon="10.110053908981154"><ele>190.0</ele><time>2026-04-24T13:31:16.999Z</time></trkpt><trkpt lat="44.67306799581311" lon="10.109868548022046"><ele>191.0</ele><time>2026-04-24T13:31:17.999Z</time></trkpt><trkpt lat="44.67300969695973" lon="10.109693541803656"><ele>192.0</ele><time>2026-04-24T13:31:18.999Z</time></trkpt><trkpt lat="44.6729471375113" lon="10.10951602115256"><ele>193.0</ele><time>2026-04-24T13:31:19.999Z</time></trkpt><trkpt lat="44.67285647777962" lon="10.10936353263907"><ele>194.0</ele><time>2026-04-24T13:31:20.999Z</time></trkpt><trkpt lat="44.672775185896924" lon="10.10920301557838"><ele>191.25</ele><time>2026-04-24T13:31:21.999Z</time></trkpt><trkpt lat="44.67269928028778" lon="10.109059354933452"><ele>188.5</ele><time>2026-04-24T13:31:22.999Z</time></trkpt><trkpt lat="44.67260955858692" lon="10.108908555528387"><ele>185.75</ele><time>2026-04-24T13:31:23.999Z</time></trkpt><trkpt lat="44.67256737636341" lon="10.108714527461794"><ele>183.0</ele><time>2026-04-24T13:31:24.999Z</time></trkpt><trkpt lat="44.67250916866763" lon="10.108542183769023"><ele>183.0</ele><time>2026-04-24T13:31:25.999Z</time></trkpt><trkpt lat="44.672520214428936" lon="10.108310353042945"><ele>183.0</ele><time>2026-04-24T13:31:26.999Z</time></trkpt><trkpt lat="44.672496843771775" lon="10.108104675969539"><ele>183.0</ele><time>2026-04-24T13:31:27.999Z</time></trkpt><trkpt lat="44.67247223599563" lon="10.107910440308206"><ele>184.0</ele><time>2026-04-24T13:31:28.999Z</time></trkpt><trkpt lat="44.6724420422167" lon="10.107726080522282"><ele>185.0</ele><time>2026-04-24T13:31:29.999Z</time></trkpt><trkpt lat="44.67240970936132" lon="10.107535621520114"><ele>186.0</ele><time>2026-04-24T13:31:30.999Z</time></trkpt><trkpt lat="44.67237380768086" lon="10.107338514808738"><ele>187.0</ele><time>2026-04-24T13:31:31.999Z</time></trkpt><trkpt lat="44.67234088832396" lon="10.107144227611629"><ele>188.25</ele><time>2026-04-24T13:31:32.999Z</time></trkpt><trkpt lat="44.672302364095415" lon="10.106943208001871"><ele>189.5</ele><time>2026-04-24T13:31:33.999Z</time></trkpt><trkpt lat="44.67226583696142" lon="10.106742484387857"><ele>190.75</ele><time>2026-04-24T13:31:34.999Z</time></trkpt><trkpt lat="44.672229300263815" lon="10.106543946144209"><ele>192.0</ele><time>2026-04-24T13:31:35.999Z</time></trkpt><trkpt lat="44.67221066396852" lon="10.106332006681678"><ele>192.66666666666669</ele><time>2026-04-24T13:31:37Z</time></trkpt><trkpt lat="44.6722000388081" lon="10.106115608023007"><ele>193.33333333333334</ele><time>2026-04-24T13:31:38Z</time></trkpt><trkpt lat="44.67217488856461" lon="10.10588998946188"><ele>194.0</ele><time>2026-04-24T13:31:39Z</time></trkpt><trkpt lat="44.67211443872828" lon="10.105665758113036"><ele>194.0</ele><time>2026-04-24T13:31:40Z</time></trkpt><trkpt lat="44.67203903938677" lon="10.105450478999321"><ele>194.0</ele><time>2026-04-24T13:31:41Z</time></trkpt><trkpt lat="44.67196844256353" lon="10.105254060163755"><ele>194.0</ele><time>2026-04-24T13:31:42Z</time></trkpt><trkpt lat="44.6719071112268" lon="10.105047050340314"><ele>190.25</ele><time>2026-04-24T13:31:43Z</time></trkpt><trkpt lat="44.671844585202756" lon="10.10484600667631"><ele>186.5</ele><time>2026-04-24T13:31:44Z</time></trkpt><trkpt lat="44.67176736702027" lon="10.104673637240113"><ele>182.75</ele><time>2026-04-24T13:31:45Z</time></trkpt><trkpt lat="44.67167184559504" lon="10.104524558725762"><ele>179.0</ele><time>2026-04-24T13:31:46Z</time></trkpt><trkpt lat="44.67155639446664" lon="10.10440792568392"><ele>179.0</ele><time>2026-04-24T13:31:47Z</time></trkpt><trkpt lat="44.67145527981665" lon="10.10429158883146"><ele>179.0</ele><time>2026-04-24T13:31:48Z</time></trkpt><trkpt lat="44.67137979441287" lon="10.104187113666523"><ele>179.0</ele><time>2026-04-24T13:31:49Z</time></trkpt><trkpt lat="44.671331878130374" lon="10.104075510946243"><ele>179.0</ele><time>2026-04-24T13:31:50Z</time></trkpt><trkpt lat="44.67131659042849" lon="10.103952909909045"><ele>179.0</ele><time>2026-04-24T13:31:51Z</time></trkpt><trkpt lat="44.67132642717825" lon="10.10383156611791"><ele>177.25</ele><time>2026-04-24T13:31:52Z</time></trkpt><trkpt lat="44.67136940815335" lon="10.10371194076221"><ele>175.5</ele><time>2026-04-24T13:31:53Z</time></trkpt><trkpt lat="44.67144925008632" lon="10.103605174347754"><ele>173.75</ele><time>2026-04-24T13:31:54Z</time></trkpt><trkpt lat="44.671560472056036" lon="10.10351788600814"><ele>172.0</ele><time>2026-04-24T13:31:55Z</time></trkpt><trkpt lat="44.67168255281805" lon="10.103449085999745"><ele>172.0</ele><time>2026-04-24T13:31:56Z</time></trkpt><trkpt lat="44.671807301382835" lon="10.103365972952693"><ele>172.0</ele><time>2026-04-24T13:31:57Z</time></trkpt><trkpt lat="44.67192928632481" lon="10.103262531231906"><ele>172.0</ele><time>2026-04-24T13:31:58Z</time></trkpt><trkpt lat="44.67205771929201" lon="10.103154556931662"><ele>172.0</ele><time>2026-04-24T13:31:59Z</time></trkpt><trkpt lat="44.67218658710409" lon="10.10304610736723"><ele>170.75</ele><time>2026-04-24T13:32:00Z</time></trkpt><trkpt lat="44.67231511012958" lon="10.102931693503203"><ele>169.5</ele><time>2026-04-24T13:32:01Z</time></trkpt><trkpt lat="44.672434815880784" lon="10.102816207864336"><ele>168.25</ele><time>2026-04-24T13:32:02Z</time></trkpt><trkpt lat="44.67254833599654" lon="10.102704604303444"><ele>167.0</ele><time>2026-04-24T13:32:03Z</time></trkpt><trkpt lat="44.67266640790543" lon="10.102602066700063"><ele>168.0</ele><time>2026-04-24T13:32:04Z</time></trkpt><trkpt lat="44.67278174925722" lon="10.102477907740818"><ele>169.0</ele><time>2026-04-24T13:32:05Z</time></trkpt><trkpt lat="44.67287196029066" lon="10.102309412786397"><ele>170.0</ele><time>2026-04-24T13:32:06Z</time></trkpt><trkpt lat="44.672930299024586" lon="10.102106756422534"><ele>170.0</ele><time>2026-04-24T13:32:07Z</time></trkpt><trkpt lat="44.67297103958357" lon="10.101901545590483"><ele>170.0</ele><time>2026-04-24T13:32:08Z</time></trkpt><trkpt lat="44.673021555276016" lon="10.10170021367199"><ele>170.0</ele><time>2026-04-24T13:32:09Z</time></trkpt><trkpt lat="44.673080029254834" lon="10.10150859102884"><ele>168.33333333333331</ele><time>2026-04-24T13:32:10Z</time></trkpt><trkpt lat="44.67314765476621" lon="10.101322640512864"><ele>166.66666666666666</ele><time>2026-04-24T13:32:11Z</time></trkpt><trkpt lat="44.67323658943025" lon="10.101152154582229"><ele>165.0</ele><time>2026-04-24T13:32:12Z</time></trkpt><trkpt lat="44.67336007005456" lon="10.101020048461486"><ele>165.0</ele><time>2026-04-24T13:32:13Z</time></trkpt><trkpt lat="44.67350546470093" lon="10.100924686784255"><ele>165.0</ele><time>2026-04-24T13:32:14Z</time></trkpt><trkpt lat="44.673654411730645" lon="10.100832060339025"><ele>165.0</ele><time>2026-04-24T13:32:15Z</time></trkpt><trkpt lat="44.67378956209354" lon="10.100741375961212"><ele>163.5</ele><time>2026-04-24T13:32:16Z</time></trkpt><trkpt lat="44.673918676672635" lon="10.10064792717127"><ele>162.0</ele><time>2026-04-24T13:32:17Z</time></trkpt><trkpt lat="44.67405792366858" lon="10.100568656108017"><ele>160.5</ele><time>2026-04-24T13:32:18Z</time></trkpt><trkpt lat="44.67420695260445" lon="10.100524295624217"><ele>159.0</ele><time>2026-04-24T13:32:19Z</time></trkpt><trkpt lat="44.6743646700015" lon="10.100526760617234"><ele>159.33333333333334</ele><time>2026-04-24T13:32:20Z</time></trkpt><trkpt lat="44.674522615266405" lon="10.100559261159907"><ele>159.66666666666669</ele><time>2026-04-24T13:32:21Z</time></trkpt><trkpt lat="44.67467830196208" lon="10.100574513413193"><ele>160.0</ele><time>2026-04-24T13:32:22Z</time></trkpt><trkpt lat="44.67483500606007" lon="10.100545760706442"><ele>160.0</ele><time>2026-04-24T13:32:23Z</time></trkpt><trkpt lat="44.67498145612096" lon="10.100473277863664"><ele>160.0</ele><time>2026-04-24T13:32:24Z</time></trkpt><trkpt lat="44.675101721879244" lon="10.100357300702369"><ele>160.0</ele><time>2026-04-24T13:32:25Z</time></trkpt><trkpt lat="44.67519733634635" lon="10.100205764807706"><ele>160.0</ele><time>2026-04-24T13:32:26Z</time></trkpt><trkpt lat="44.675285032024355" lon="10.10003377532283"><ele>159.66666666666669</ele><time>2026-04-24T13:32:27Z</time></trkpt><trkpt lat="44.67537942050569" lon="10.099868519794727"><ele>159.33333333333334</ele><time>2026-04-24T13:32:28Z</time></trkpt><trkpt lat="44.67548101792552" lon="10.099702656895698"><ele>159.0</ele><time>2026-04-24T13:32:29Z</time></trkpt><trkpt lat="44.67558895287344" lon="10.099547417222265"><ele>159.0</ele><time>2026-04-24T13:32:30Z</time></trkpt><trkpt lat="44.67571152240875" lon="10.099408709992208"><ele>159.0</ele><time>2026-04-24T13:32:31Z</time></trkpt><trkpt lat="44.67584356407691" lon="10.09930898990006"><ele>159.0</ele><time>2026-04-24T13:32:32Z</time></trkpt><trkpt lat="44.67598958496041" lon="10.099239038105248"><ele>158.0</ele><time>2026-04-24T13:32:33Z</time></trkpt><trkpt lat="44.67615138639869" lon="10.099178732982331"><ele>157.0</ele><time>2026-04-24T13:32:34Z</time></trkpt><trkpt lat="44.67632876443664" lon="10.099098421693093"><ele>156.0</ele><time>2026-04-24T13:32:35Z</time></trkpt><trkpt lat="44.676516231104905" lon="10.099005051848074"><ele>156.0</ele><time>2026-04-24T13:32:36Z</time></trkpt><trkpt lat="44.67672201686018" lon="10.098896963904552"><ele>156.0</ele><time>2026-04-24T13:32:37Z</time></trkpt><trkpt lat="44.676955803061475" lon="10.098836302923567"><ele>156.5</ele><time>2026-04-24T13:32:38Z</time></trkpt><trkpt lat="44.67720493730036" lon="10.09874465540244"><ele>157.0</ele><time>2026-04-24T13:32:39Z</time></trkpt><trkpt lat="44.677446587946456" lon="10.098642182296972"><ele>157.0</ele><time>2026-04-24T13:32:40Z</time></trkpt><trkpt lat="44.67767190535997" lon="10.098574070576529"><ele>157.0</ele><time>2026-04-24T13:32:41Z</time></trkpt><trkpt lat="44.67787107282846" lon="10.098496348208"><ele>157.0</ele><time>2026-04-24T13:32:42Z</time></trkpt><trkpt lat="44.6780437313944" lon="10.098379979736015"><ele>156.0</ele><time>2026-04-24T13:32:43Z</time></trkpt><trkpt lat="44.67818377676288" lon="10.098220910786912"><ele>155.0</ele><time>2026-04-24T13:32:44Z</time></trkpt><trkpt lat="44.67831768559783" lon="10.098074705161247"><ele>154.0</ele><time>2026-04-24T13:32:44.999Z</time></trkpt><trkpt lat="44.67846558360106" lon="10.097977549782085"><ele>155.66666666666669</ele><time>2026-04-24T13:32:45.999Z</time></trkpt><trkpt lat="44.67864789337985" lon="10.097957792772334"><ele>157.33333333333334</ele><time>2026-04-24T13:32:46.999Z</time></trkpt><trkpt lat="44.67884592215606" lon="10.09791446509145"><ele>159.0</ele><time>2026-04-24T13:32:47.999Z</time></trkpt><trkpt lat="44.6790529848626" lon="10.09789542397999"><ele>159.0</ele><time>2026-04-24T13:32:48.999Z</time></trkpt><trkpt lat="44.679258542063096" lon="10.097828741218333"><ele>159.0</ele><time>2026-04-24T13:32:49.999Z</time></trkpt><trkpt lat="44.67946653451591" lon="10.097725323318775"><ele>159.0</ele><time>2026-04-24T13:32:50.999Z</time></trkpt><trkpt lat="44.67967382253823" lon="10.0976159871922"><ele>159.66666666666666</ele><time>2026-04-24T13:32:51.999Z</time></trkpt><trkpt lat="44.6798697727231" lon="10.097515924771217"><ele>160.33333333333331</ele><time>2026-04-24T13:32:52.999Z</time></trkpt><trkpt lat="44.68004945257993" lon="10.097425581641255"><ele>161.0</ele><time>2026-04-24T13:32:53.999Z</time></trkpt><trkpt lat="44.680214449708046" lon="10.097327457701722"><ele>160.0</ele><time>2026-04-24T13:32:54.999Z</time></trkpt><trkpt lat="44.68036787329166" lon="10.09719312240104"><ele>159.0</ele><time>2026-04-24T13:32:55.999Z</time></trkpt><trkpt lat="44.680494061529835" lon="10.097009471449606"><ele>158.0</ele><time>2026-04-24T13:32:56.999Z</time></trkpt><trkpt lat="44.68060110824526" lon="10.09678501476956"><ele>155.33333333333331</ele><time>2026-04-24T13:32:57.999Z</time></trkpt><trkpt lat="44.68069296519129" lon="10.096548997286877"><ele>152.66666666666666</ele><time>2026-04-24T13:32:58.999Z</time></trkpt><trkpt lat="44.68078809664674" lon="10.09633036688876"><ele>150.0</ele><time>2026-04-24T13:32:59.999Z</time></trkpt><trkpt lat="44.68088540723567" lon="10.096167455164224"><ele>150.0</ele><time>2026-04-24T13:33:00.999Z</time></trkpt><trkpt lat="44.6809780787669" lon="10.096034788406785"><ele>150.0</ele><time>2026-04-24T13:33:01.999Z</time></trkpt><trkpt lat="44.68108610992761" lon="10.095941276490295"><ele>150.0</ele><time>2026-04-24T13:33:02.999Z</time></trkpt><trkpt lat="44.68123100701938" lon="10.095939940823076"><ele>150.0</ele><time>2026-04-24T13:33:03.999Z</time></trkpt><trkpt lat="44.68137855714026" lon="10.095920087177594"><ele>150.0</ele><time>2026-04-24T13:33:04.999Z</time></trkpt><trkpt lat="44.68151042669326" lon="10.095904228657092"><ele>150.0</ele><time>2026-04-24T13:33:05.999Z</time></trkpt><trkpt lat="44.681617583861964" lon="10.095880812653215"><ele>150.0</ele><time>2026-04-24T13:33:06.999Z</time></trkpt><trkpt lat="44.681712107439374" lon="10.095855292540541"><ele>150.0</ele><time>2026-04-24T13:33:07.999Z</time></trkpt><trkpt lat="44.68176062362849" lon="10.095781762842364"><ele>150.0</ele><time>2026-04-24T13:33:08.999Z</time></trkpt><trkpt lat="44.681855658130615" lon="10.095837452588611"><ele>149.75</ele><time>2026-04-24T13:33:09.999Z</time></trkpt><trkpt lat="44.68195804958288" lon="10.095849034351843"><ele>149.5</ele><time>2026-04-24T13:33:10.999Z</time></trkpt><trkpt lat="44.68209368142791" lon="10.095870341806062"><ele>149.25</ele><time>2026-04-24T13:33:11.999Z</time></trkpt><trkpt lat="44.682234326847144" lon="10.095896753321957"><ele>149.0</ele><time>2026-04-24T13:33:12.999Z</time></trkpt><trkpt lat="44.682364430044444" lon="10.095922581788926"><ele>149.0</ele><time>2026-04-24T13:33:13.999Z</time></trkpt><trkpt lat="44.682491599977396" lon="10.095946249910655"><ele>149.0</ele><time>2026-04-24T13:33:14.999Z</time></trkpt><trkpt lat="44.682622138355896" lon="10.095974571138457"><ele>149.0</ele><time>2026-04-24T13:33:15.999Z</time></trkpt><trkpt lat="44.68274779965927" lon="10.096002427541737"><ele>149.0</ele><time>2026-04-24T13:33:16.999Z</time></trkpt><trkpt lat="44.68287399817156" lon="10.096033853921865"><ele>148.25</ele><time>2026-04-24T13:33:17.999Z</time></trkpt><trkpt lat="44.68300126031727" lon="10.096064170098009"><ele>147.5</ele><time>2026-04-24T13:33:18.999Z</time></trkpt><trkpt lat="44.68312966317571" lon="10.09609368462426"><ele>146.75</ele><time>2026-04-24T13:33:19.999Z</time></trkpt><trkpt lat="44.6832618961672" lon="10.096123974827432"><ele>146.0</ele><time>2026-04-24T13:33:20.999Z</time></trkpt><trkpt lat="44.68339908355682" lon="10.096153458327297"><ele>146.0</ele><time>2026-04-24T13:33:21.999Z</time></trkpt><trkpt lat="44.68354137593065" lon="10.096183821167442"><ele>146.0</ele><time>2026-04-24T13:33:22.999Z</time></trkpt><trkpt lat="44.68368744160754" lon="10.09621508055041"><ele>146.0</ele><time>2026-04-24T13:33:23.999Z</time></trkpt><trkpt lat="44.683837365827024" lon="10.096249517527234"><ele>146.0</ele><time>2026-04-24T13:33:24.999Z</time></trkpt><trkpt lat="44.68398663001257" lon="10.09628612301743"><ele>146.0</ele><time>2026-04-24T13:33:25.999Z</time></trkpt><trkpt lat="44.68413473965664" lon="10.0963191511575"><ele>146.0</ele><time>2026-04-24T13:33:26.999Z</time></trkpt><trkpt lat="44.68427982738793" lon="10.09635085145586"><ele>146.0</ele><time>2026-04-24T13:33:27.999Z</time></trkpt><trkpt lat="44.68441863092368" lon="10.096382549018895"><ele>146.0</ele><time>2026-04-24T13:33:28.999Z</time></trkpt><trkpt lat="44.684556581363545" lon="10.096413531097859"><ele>145.75</ele><time>2026-04-24T13:33:29.999Z</time></trkpt><trkpt lat="44.68469653458604" lon="10.096444383467334"><ele>145.5</ele><time>2026-04-24T13:33:30.999Z</time></trkpt><trkpt lat="44.684839232247235" lon="10.096475777581112"><ele>145.25</ele><time>2026-04-24T13:33:31.999Z</time></trkpt><trkpt lat="44.68497914375453" lon="10.096509094283785"><ele>145.0</ele><time>2026-04-24T13:33:32.999Z</time></trkpt><trkpt lat="44.685124253646606" lon="10.096539811402165"><ele>144.75</ele><time>2026-04-24T13:33:33.999Z</time></trkpt><trkpt lat="44.68526765339046" lon="10.096570406457873"><ele>144.5</ele><time>2026-04-24T13:33:34.999Z</time></trkpt><trkpt lat="44.685415875222176" lon="10.096602748291168"><ele>144.25</ele><time>2026-04-24T13:33:35.999Z</time></trkpt><trkpt lat="44.68556619269613" lon="10.096635657503892"><ele>144.0</ele><time>2026-04-24T13:33:36.999Z</time></trkpt><trkpt lat="44.68571822123335" lon="10.096668481318916"><ele>144.33333333333334</ele><time>2026-04-24T13:33:37.999Z</time></trkpt><trkpt lat="44.68587288631338" lon="10.096701662622642"><ele>144.66666666666669</ele><time>2026-04-24T13:33:38.999Z</time></trkpt><trkpt lat="44.686025648079436" lon="10.096732277468792"><ele>145.0</ele><time>2026-04-24T13:33:39.999Z</time></trkpt><trkpt lat="44.68618172794659" lon="10.096769432763843"><ele>145.0</ele><time>2026-04-24T13:33:40.999Z</time></trkpt><trkpt lat="44.686331660500784" lon="10.096805514866688"><ele>145.0</ele><time>2026-04-24T13:33:41.999Z</time></trkpt><trkpt lat="44.68648373980343" lon="10.096840727968054"><ele>145.0</ele><time>2026-04-24T13:33:43Z</time></trkpt><trkpt lat="44.68663886787858" lon="10.096876355566089"><ele>145.0</ele><time>2026-04-24T13:33:44Z</time></trkpt><trkpt lat="44.686793955185856" lon="10.096911497581564"><ele>145.0</ele><time>2026-04-24T13:33:45Z</time></trkpt><trkpt lat="44.68694715296389" lon="10.09694273419856"><ele>145.0</ele><time>2026-04-24T13:33:46Z</time></trkpt><trkpt lat="44.68710226152278" lon="10.096973770676831"><ele>144.0</ele><time>2026-04-24T13:33:47Z</time></trkpt><trkpt lat="44.68725787271581" lon="10.0970065952942"><ele>143.0</ele><time>2026-04-24T13:33:48Z</time></trkpt><trkpt lat="44.68741364812605" lon="10.097040303496339"><ele>142.0</ele><time>2026-04-24T13:33:49Z</time></trkpt><trkpt lat="44.68756547006965" lon="10.097072711671197"><ele>142.0</ele><time>2026-04-24T13:33:50Z</time></trkpt><trkpt lat="44.68771874456567" lon="10.09710855028893"><ele>142.0</ele><time>2026-04-24T13:33:51Z</time></trkpt><trkpt lat="44.68786743262309" lon="10.09714067227058"><ele>142.0</ele><time>2026-04-24T13:33:52Z</time></trkpt><trkpt lat="44.68801711111728" lon="10.097173843977464"><ele>141.75</ele><time>2026-04-24T13:33:53Z</time></trkpt><trkpt lat="44.68816211823998" lon="10.097206147029032"><ele>141.5</ele><time>2026-04-24T13:33:54Z</time></trkpt><trkpt lat="44.688306308664025" lon="10.097241808294298"><ele>141.25</ele><time>2026-04-24T13:33:55Z</time></trkpt><trkpt lat="44.68844593828062" lon="10.097273039913244"><ele>141.0</ele><time>2026-04-24T13:33:56Z</time></trkpt><trkpt lat="44.68858753449065" lon="10.097302589564087"><ele>141.0</ele><time>2026-04-24T13:33:57Z</time></trkpt><trkpt lat="44.68872939938219" lon="10.097335984619473"><ele>141.0</ele><time>2026-04-24T13:33:58Z</time></trkpt><trkpt lat="44.68887516065355" lon="10.09736934802027"><ele>141.0</ele><time>2026-04-24T13:33:59Z</time></trkpt><trkpt lat="44.68902837130084" lon="10.097405775526717"><ele>141.0</ele><time>2026-04-24T13:34:00Z</time></trkpt><trkpt lat="44.68917037666297" lon="10.097440658983924"><ele>143.5</ele><time>2026-04-24T13:34:01Z</time></trkpt><trkpt lat="44.689312824252596" lon="10.097485258622129"><ele>146.0</ele><time>2026-04-24T13:34:02Z</time></trkpt><trkpt lat="44.689452492267634" lon="10.097528361808543"><ele>148.5</ele><time>2026-04-24T13:34:03Z</time></trkpt><trkpt lat="44.6895845905492" lon="10.097586106504309"><ele>151.0</ele><time>2026-04-24T13:34:04Z</time></trkpt><trkpt lat="44.68971091620783" lon="10.097666857188115"><ele>152.0</ele><time>2026-04-24T13:34:05Z</time></trkpt><trkpt lat="44.689827153214175" lon="10.097769813606781"><ele>153.0</ele><time>2026-04-24T13:34:06Z</time></trkpt><trkpt lat="44.68993421985847" lon="10.09789708309439"><ele>154.0</ele><time>2026-04-24T13:34:07Z</time></trkpt><trkpt lat="44.690015752133455" lon="10.098032040291322"><ele>155.0</ele><time>2026-04-24T13:34:08Z</time></trkpt><trkpt lat="44.69007183247611" lon="10.09817003641633"><ele>155.25</ele><time>2026-04-24T13:34:09Z</time></trkpt><trkpt lat="44.690132910766934" lon="10.098324796369988"><ele>155.5</ele><time>2026-04-24T13:34:10Z</time></trkpt><trkpt lat="44.69018870990907" lon="10.09850747566683"><ele>155.75</ele><time>2026-04-24T13:34:11Z</time></trkpt><trkpt lat="44.69024036584053" lon="10.09871566454729"><ele>156.0</ele><time>2026-04-24T13:34:12Z</time></trkpt><trkpt lat="44.69029626554872" lon="10.098932864359165"><ele>155.66666666666666</ele><time>2026-04-24T13:34:13Z</time></trkpt><trkpt lat="44.69035375116003" lon="10.099153291352167"><ele>155.33333333333331</ele><time>2026-04-24T13:34:14Z</time></trkpt><trkpt lat="44.69039926147462" lon="10.099352322179808"><ele>155.0</ele><time>2026-04-24T13:34:15Z</time></trkpt><trkpt lat="44.69043825943853" lon="10.09954063299868"><ele>155.0</ele><time>2026-04-24T13:34:16Z</time></trkpt><trkpt lat="44.69048289974115" lon="10.099732589766155"><ele>155.0</ele><time>2026-04-24T13:34:17Z</time></trkpt><trkpt lat="44.69052884372241" lon="10.099926950519507"><ele>155.0</ele><time>2026-04-24T13:34:18Z</time></trkpt><trkpt lat="44.690575279427186" lon="10.10011655419045"><ele>155.0</ele><time>2026-04-24T13:34:19Z</time></trkpt><trkpt lat="44.6906147039289" lon="10.100294626326319"><ele>155.75</ele><time>2026-04-24T13:34:20Z</time></trkpt><trkpt lat="44.69065135871308" lon="10.100461433869294"><ele>156.5</ele><time>2026-04-24T13:34:21Z</time></trkpt><trkpt lat="44.69069286584143" lon="10.100625750079143"><ele>157.25</ele><time>2026-04-24T13:34:22Z</time></trkpt><trkpt lat="44.69073358904256" lon="10.100790856169034"><ele>158.0</ele><time>2026-04-24T13:34:23Z</time></trkpt><trkpt lat="44.69077510350936" lon="10.100961638947501"><ele>158.75</ele><time>2026-04-24T13:34:23.999Z</time></trkpt><trkpt lat="44.69081436799515" lon="10.101133512118018"><ele>159.5</ele><time>2026-04-24T13:34:24.999Z</time></trkpt><trkpt lat="44.69087145489228" lon="10.101305704370894"><ele>160.25</ele><time>2026-04-24T13:34:25.999Z</time></trkpt><trkpt lat="44.69095482728764" lon="10.101474578503183"><ele>161.0</ele><time>2026-04-24T13:34:26.999Z</time></trkpt><trkpt lat="44.69105482735352" lon="10.10163784763151"><ele>159.0</ele><time>2026-04-24T13:34:27.999Z</time></trkpt><trkpt lat="44.691161258792995" lon="10.101798805850907"><ele>157.0</ele><time>2026-04-24T13:34:28.999Z</time></trkpt><trkpt lat="44.69125466146882" lon="10.10194463921704"><ele>155.0</ele><time>2026-04-24T13:34:29.999Z</time></trkpt><trkpt lat="44.691344131747144" lon="10.10209502783576"><ele>153.0</ele><time>2026-04-24T13:34:30.999Z</time></trkpt><trkpt lat="44.691435907966365" lon="10.102247602988646"><ele>153.0</ele><time>2026-04-24T13:34:31.999Z</time></trkpt><trkpt lat="44.69153534106852" lon="10.102401556201187"><ele>153.0</ele><time>2026-04-24T13:34:32.999Z</time></trkpt><trkpt lat="44.691630165608515" lon="10.102551898409821"><ele>153.0</ele><time>2026-04-24T13:34:33.999Z</time></trkpt><trkpt lat="44.69172384084802" lon="10.102706045163421"><ele>153.0</ele><time>2026-04-24T13:34:34.999Z</time></trkpt><trkpt lat="44.69181726413074" lon="10.10286157392806"><ele>153.0</ele><time>2026-04-24T13:34:35.999Z</time></trkpt><trkpt lat="44.6919148192434" lon="10.103019156080308"><ele>153.0</ele><time>2026-04-24T13:34:36.999Z</time></trkpt><trkpt lat="44.69201770046621" lon="10.103182531224533"><ele>153.0</ele><time>2026-04-24T13:34:37.999Z</time></trkpt><trkpt lat="44.692122280779756" lon="10.103349446267703"><ele>153.0</ele><time>2026-04-24T13:34:38.999Z</time></trkpt><trkpt lat="44.692225098502945" lon="10.103513756081087"><ele>153.0</ele><time>2026-04-24T13:34:39.999Z</time></trkpt><trkpt lat="44.69231908784038" lon="10.103663038607811"><ele>153.0</ele><time>2026-04-24T13:34:40.999Z</time></trkpt><trkpt lat="44.69240887173463" lon="10.103811996184964"><ele>153.0</ele><time>2026-04-24T13:34:41.999Z</time></trkpt><trkpt lat="44.69249904931452" lon="10.103958172575624"><ele>152.75</ele><time>2026-04-24T13:34:42.999Z</time></trkpt><trkpt lat="44.69258952262159" lon="10.104097760709097"><ele>152.5</ele><time>2026-04-24T13:34:43.999Z</time></trkpt><trkpt lat="44.69267830704505" lon="10.104237925992466"><ele>152.25</ele><time>2026-04-24T13:34:44.999Z</time></trkpt><trkpt lat="44.69276520459473" lon="10.104380458550299"><ele>152.0</ele><time>2026-04-24T13:34:45.999Z</time></trkpt><trkpt lat="44.69285178556" lon="10.104524823815048"><ele>152.0</ele><time>2026-04-24T13:34:46.999Z</time></trkpt><trkpt lat="44.69293915968109" lon="10.104675000123551"><ele>152.0</ele><time>2026-04-24T13:34:47.999Z</time></trkpt><trkpt lat="44.69302529164889" lon="10.104838551180947"><ele>152.0</ele><time>2026-04-24T13:34:48.999Z</time></trkpt><trkpt lat="44.69310836332209" lon="10.105003066116534"><ele>152.0</ele><time>2026-04-24T13:34:49.999Z</time></trkpt><trkpt lat="44.69315263332722" lon="10.105121004819859"><ele>153.0</ele><time>2026-04-24T13:34:50.999Z</time></trkpt><trkpt lat="44.693210238161754" lon="10.105273234680867"><ele>154.0</ele><time>2026-04-24T13:34:51.999Z</time></trkpt><trkpt lat="44.69327493980005" lon="10.105420251184047"><ele>155.0</ele><time>2026-04-24T13:34:52.999Z</time></trkpt><trkpt lat="44.69334196629691" lon="10.105575056771963"><ele>156.0</ele><time>2026-04-24T13:34:53.999Z</time></trkpt><trkpt lat="44.69340626574153" lon="10.105734137578091"><ele>156.0</ele><time>2026-04-24T13:34:54.998Z</time></trkpt><trkpt lat="44.69347483739843" lon="10.105899528108862"><ele>156.0</ele><time>2026-04-24T13:34:55.998Z</time></trkpt><trkpt lat="44.69354173099662" lon="10.106065270623205"><ele>156.0</ele><time>2026-04-24T13:34:56.998Z</time></trkpt><trkpt lat="44.69361189278626" lon="10.106232157498479"><ele>156.0</ele><time>2026-04-24T13:34:57.998Z</time></trkpt><trkpt lat="44.693683571608176" lon="10.106407701085095"><ele>156.5</ele><time>2026-04-24T13:34:58.998Z</time></trkpt><trkpt lat="44.69375805500411" lon="10.106587253422317"><ele>157.0</ele><time>2026-04-24T13:34:59.998Z</time></trkpt><trkpt lat="44.69382236062023" lon="10.106765558740467"><ele>157.5</ele><time>2026-04-24T13:35:00.998Z</time></trkpt><trkpt lat="44.693874809814794" lon="10.106941961381633"><ele>158.0</ele><time>2026-04-24T13:35:01.998Z</time></trkpt><trkpt lat="44.69392126782449" lon="10.107123733987413"><ele>158.0</ele><time>2026-04-24T13:35:02.998Z</time></trkpt><trkpt lat="44.69396327387525" lon="10.10730918658627"><ele>158.0</ele><time>2026-04-24T13:35:03.998Z</time></trkpt><trkpt lat="44.694010307279676" lon="10.10749443473594"><ele>158.0</ele><time>2026-04-24T13:35:04.998Z</time></trkpt><trkpt lat="44.69405820120141" lon="10.107683956459521"><ele>158.0</ele><time>2026-04-24T13:35:05.998Z</time></trkpt><trkpt lat="44.6941066384182" lon="10.107879919269338"><ele>158.75</ele><time>2026-04-24T13:35:06.998Z</time></trkpt><trkpt lat="44.69415389274676" lon="10.108059978433062"><ele>159.5</ele><time>2026-04-24T13:35:07.998Z</time></trkpt><trkpt lat="44.69419892118596" lon="10.108233247473182"><ele>160.25</ele><time>2026-04-24T13:35:08.998Z</time></trkpt><trkpt lat="44.694241879871406" lon="10.108392158560912"><ele>161.0</ele><time>2026-04-24T13:35:09.998Z</time></trkpt><trkpt lat="44.69428433168891" lon="10.108530553569475"><ele>161.8</ele><time>2026-04-24T13:35:10.998Z</time></trkpt><trkpt lat="44.69433536256395" lon="10.108660401316365"><ele>162.60000000000002</ele><time>2026-04-24T13:35:11.998Z</time></trkpt><trkpt lat="44.69438891121069" lon="10.108753682520383"><ele>163.4</ele><time>2026-04-24T13:35:12.998Z</time></trkpt><trkpt lat="44.69448590122877" lon="10.10887128773144"><ele>164.2</ele><time>2026-04-24T13:35:14.998Z</time></trkpt><trkpt lat="44.694542576828695" lon="10.108949228139293"><ele>165.0</ele><time>2026-04-24T13:35:16.998Z</time></trkpt><trkpt lat="44.694734835345336" lon="10.109096981455233"><ele>162.4</ele><time>2026-04-24T13:35:19.998Z</time></trkpt><trkpt lat="44.69482248902189" lon="10.109102816887264"><ele>159.8</ele><time>2026-04-24T13:35:20.998Z</time></trkpt><trkpt lat="44.69489226611478" lon="10.109216556624446"><ele>157.2</ele><time>2026-04-24T13:35:21.998Z</time></trkpt><trkpt lat="44.6949568927325" lon="10.10932828504262"><ele>154.6</ele><time>2026-04-24T13:35:22.998Z</time></trkpt><trkpt lat="44.6950312586257" lon="10.109460283019189"><ele>152.0</ele><time>2026-04-24T13:35:23.998Z</time></trkpt><trkpt lat="44.6951064874547" lon="10.10960527674508"><ele>152.0</ele><time>2026-04-24T13:35:24.998Z</time></trkpt><trkpt lat="44.69518542485911" lon="10.109761914791372"><ele>152.0</ele><time>2026-04-24T13:35:25.998Z</time></trkpt><trkpt lat="44.69526385163167" lon="10.10993347626567"><ele>152.0</ele><time>2026-04-24T13:35:26.998Z</time></trkpt><trkpt lat="44.695341569752834" lon="10.11011217283197"><ele>152.0</ele><time>2026-04-24T13:35:27.998Z</time></trkpt><trkpt lat="44.695423641450816" lon="10.11030211875794"><ele>151.66666666666666</ele><time>2026-04-24T13:35:28.998Z</time></trkpt><trkpt lat="44.69551015112965" lon="10.11049742026691"><ele>151.33333333333334</ele><time>2026-04-24T13:35:29.998Z</time></trkpt><trkpt lat="44.69560365568346" lon="10.11069789590842"><ele>151.0</ele><time>2026-04-24T13:35:30.998Z</time></trkpt><trkpt lat="44.69569377609563" lon="10.110889341833262"><ele>151.0</ele><time>2026-04-24T13:35:31.998Z</time></trkpt><trkpt lat="44.69578916837674" lon="10.111088844115574"><ele>151.0</ele><time>2026-04-24T13:35:32.998Z</time></trkpt><trkpt lat="44.695889886667906" lon="10.111292086170385"><ele>151.0</ele><time>2026-04-24T13:35:33.998Z</time></trkpt><trkpt lat="44.69599642433549" lon="10.111496667630886"><ele>146.66666666666669</ele><time>2026-04-24T13:35:34.998Z</time></trkpt><trkpt lat="44.69610651482902" lon="10.111706405370036"><ele>142.33333333333334</ele><time>2026-04-24T13:35:35.998Z</time></trkpt><trkpt lat="44.69621398888572" lon="10.111909111797381"><ele>138.0</ele><time>2026-04-24T13:35:36.998Z</time></trkpt><trkpt lat="44.696323329931964" lon="10.112115040228787"><ele>138.0</ele><time>2026-04-24T13:35:37.998Z</time></trkpt><trkpt lat="44.69644060898202" lon="10.11230836261941"><ele>138.0</ele><time>2026-04-24T13:35:38.998Z</time></trkpt><trkpt lat="44.69657467449486" lon="10.112483907240424"><ele>138.0</ele><time>2026-04-24T13:35:39.998Z</time></trkpt><trkpt lat="44.69672139676484" lon="10.112634162052563"><ele>140.0</ele><time>2026-04-24T13:35:40.998Z</time></trkpt><trkpt lat="44.696892430713866" lon="10.112719177287634"><ele>142.0</ele><time>2026-04-24T13:35:41.998Z</time></trkpt><trkpt lat="44.69706665767175" lon="10.112784677029534"><ele>144.0</ele><time>2026-04-24T13:35:42.998Z</time></trkpt><trkpt lat="44.69725238778661" lon="10.11282003017279"><ele>144.0</ele><time>2026-04-24T13:35:43.998Z</time></trkpt><trkpt lat="44.69744090589591" lon="10.112847605816976"><ele>144.0</ele><time>2026-04-24T13:35:44.998Z</time></trkpt><trkpt lat="44.69762860357982" lon="10.112879494422376"><ele>144.0</ele><time>2026-04-24T13:35:45.998Z</time></trkpt><trkpt lat="44.69781169542808" lon="10.11291368838695"><ele>142.66666666666666</ele><time>2026-04-24T13:35:46.998Z</time></trkpt><trkpt lat="44.69799419473528" lon="10.112951255361267"><ele>141.33333333333331</ele><time>2026-04-24T13:35:47.998Z</time></trkpt><trkpt lat="44.69818302274545" lon="10.112988884414543"><ele>140.0</ele><time>2026-04-24T13:35:48.999Z</time></trkpt><trkpt lat="44.6983710871662" lon="10.113021621991084"><ele>140.0</ele><time>2026-04-24T13:35:49.999Z</time></trkpt><trkpt lat="44.69856717104376" lon="10.113060005842026"><ele>140.0</ele><time>2026-04-24T13:35:50.999Z</time></trkpt><trkpt lat="44.69875634922026" lon="10.113094066190836"><ele>140.0</ele><time>2026-04-24T13:35:51.999Z</time></trkpt><trkpt lat="44.69894754349131" lon="10.113132398546844"><ele>140.33333333333331</ele><time>2026-04-24T13:35:52.999Z</time></trkpt><trkpt lat="44.69913721240827" lon="10.113166267036263"><ele>140.66666666666666</ele><time>2026-04-24T13:35:53.999Z</time></trkpt><trkpt lat="44.69930980691786" lon="10.11319964518378"><ele>141.0</ele><time>2026-04-24T13:35:54.999Z</time></trkpt><trkpt lat="44.69947479535609" lon="10.113248111981518"><ele>141.0</ele><time>2026-04-24T13:35:55.999Z</time></trkpt><trkpt lat="44.6996349304371" lon="10.113327604172134"><ele>141.0</ele><time>2026-04-24T13:35:56.999Z</time></trkpt><trkpt lat="44.69978540450518" lon="10.113440513627285"><ele>141.0</ele><time>2026-04-24T13:35:57.999Z</time></trkpt><trkpt lat="44.69992244519165" lon="10.113584908788184"><ele>141.0</ele><time>2026-04-24T13:35:58.999Z</time></trkpt><trkpt lat="44.70004666293589" lon="10.113758710771878"><ele>141.0</ele><time>2026-04-24T13:35:59.999Z</time></trkpt><trkpt lat="44.70014617212725" lon="10.113957597682617"><ele>141.0</ele><time>2026-04-24T13:36:00.999Z</time></trkpt><trkpt lat="44.700233103223106" lon="10.114177851150725"><ele>140.33333333333334</ele><time>2026-04-24T13:36:01.999Z</time></trkpt><trkpt lat="44.70030970052699" lon="10.11440781484732"><ele>139.66666666666669</ele><time>2026-04-24T13:36:02.999Z</time></trkpt><trkpt lat="44.700374928887925" lon="10.114645043427073"><ele>139.0</ele><time>2026-04-24T13:36:03.999Z</time></trkpt><trkpt lat="44.70043329560914" lon="10.114890762151045"><ele>140.0</ele><time>2026-04-24T13:36:04.999Z</time></trkpt><trkpt lat="44.70049414057615" lon="10.11513481263281"><ele>141.0</ele><time>2026-04-24T13:36:05.999Z</time></trkpt><trkpt lat="44.70055172343097" lon="10.115376443264642"><ele>142.0</ele><time>2026-04-24T13:36:06.999Z</time></trkpt><trkpt lat="44.70059240930476" lon="10.115614657910617"><ele>142.66666666666669</ele><time>2026-04-24T13:36:07.999Z</time></trkpt><trkpt lat="44.700612105695015" lon="10.115852581045711"><ele>143.33333333333334</ele><time>2026-04-24T13:36:08.999Z</time></trkpt><trkpt lat="44.70063230210163" lon="10.116085460278919"><ele>144.0</ele><time>2026-04-24T13:36:09.999Z</time></trkpt><trkpt lat="44.700657765357484" lon="10.116308176295561"><ele>144.0</ele><time>2026-04-24T13:36:10.999Z</time></trkpt><trkpt lat="44.700689167064006" lon="10.116527559187476"><ele>144.0</ele><time>2026-04-24T13:36:11.999Z</time></trkpt><trkpt lat="44.70072712297786" lon="10.116742063013186"><ele>144.0</ele><time>2026-04-24T13:36:12.999Z</time></trkpt><trkpt lat="44.70077228600099" lon="10.116947146971352"><ele>144.66666666666666</ele><time>2026-04-24T13:36:13.999Z</time></trkpt><trkpt lat="44.700821780057666" lon="10.117158554589524"><ele>145.33333333333331</ele><time>2026-04-24T13:36:14.999Z</time></trkpt><trkpt lat="44.700868466241324" lon="10.11737370940183"><ele>146.0</ele><time>2026-04-24T13:36:15.999Z</time></trkpt><trkpt lat="44.70091040724313" lon="10.11758485770219"><ele>146.33333333333331</ele><time>2026-04-24T13:36:16.999Z</time></trkpt><trkpt lat="44.700947690693766" lon="10.117803501267614"><ele>146.66666666666666</ele><time>2026-04-24T13:36:17.999Z</time></trkpt><trkpt lat="44.70097712852751" lon="10.118036169911232"><ele>147.0</ele><time>2026-04-24T13:36:18.999Z</time></trkpt><trkpt lat="44.70099615074757" lon="10.118270983396993"><ele>148.0</ele><time>2026-04-24T13:36:19.999Z</time></trkpt><trkpt lat="44.70100905028085" lon="10.118503332644906"><ele>149.0</ele><time>2026-04-24T13:36:20.999Z</time></trkpt><trkpt lat="44.70102386703353" lon="10.118731034037408"><ele>150.0</ele><time>2026-04-24T13:36:21.999Z</time></trkpt><trkpt lat="44.70103783821907" lon="10.118946266917197"><ele>149.33333333333334</ele><time>2026-04-24T13:36:22.999Z</time></trkpt><trkpt lat="44.70104694227169" lon="10.11916085031565"><ele>148.66666666666669</ele><time>2026-04-24T13:36:23.999Z</time></trkpt><trkpt lat="44.70105291746873" lon="10.11938193385169"><ele>148.0</ele><time>2026-04-24T13:36:24.999Z</time></trkpt><trkpt lat="44.70104681231038" lon="10.119604043092616"><ele>148.0</ele><time>2026-04-24T13:36:25.999Z</time></trkpt><trkpt lat="44.70102345818953" lon="10.119820686794704"><ele>148.0</ele><time>2026-04-24T13:36:26.999Z</time></trkpt><trkpt lat="44.7009803021665" lon="10.120037669791017"><ele>148.0</ele><time>2026-04-24T13:36:27.999Z</time></trkpt><trkpt lat="44.700926375924865" lon="10.120247632374864"><ele>147.0</ele><time>2026-04-24T13:36:28.999Z</time></trkpt><trkpt lat="44.700877350721484" lon="10.120458526768498"><ele>146.0</ele><time>2026-04-24T13:36:29.999Z</time></trkpt><trkpt lat="44.70084142851845" lon="10.120668197547243"><ele>145.0</ele><time>2026-04-24T13:36:30.999Z</time></trkpt><trkpt lat="44.70081531940479" lon="10.120874484225626"><ele>143.0</ele><time>2026-04-24T13:36:31.999Z</time></trkpt><trkpt lat="44.70080636427051" lon="10.12108373993458"><ele>141.0</ele><time>2026-04-24T13:36:32.999Z</time></trkpt><trkpt lat="44.70080663009425" lon="10.121293877443184"><ele>139.0</ele><time>2026-04-24T13:36:33.999Z</time></trkpt><trkpt lat="44.700816532655466" lon="10.121507074698716"><ele>138.0</ele><time>2026-04-24T13:36:34.999Z</time></trkpt><trkpt lat="44.70084077238393" lon="10.121720143867703"><ele>137.0</ele><time>2026-04-24T13:36:35.999Z</time></trkpt><trkpt lat="44.70088113725673" lon="10.121929576626162"><ele>136.0</ele><time>2026-04-24T13:36:36.999Z</time></trkpt><trkpt lat="44.70092762838672" lon="10.122136143290355"><ele>136.0</ele><time>2026-04-24T13:36:37.999Z</time></trkpt><trkpt lat="44.70097688480291" lon="10.12234079918101"><ele>136.0</ele><time>2026-04-24T13:36:38.999Z</time></trkpt><trkpt lat="44.7010253124678" lon="10.122532782284619"><ele>136.0</ele><time>2026-04-24T13:36:39.999Z</time></trkpt><trkpt lat="44.701073647043835" lon="10.12271020415121"><ele>136.0</ele><time>2026-04-24T13:36:40.999Z</time></trkpt><trkpt lat="44.70112224703608" lon="10.122867260703563"><ele>137.2</ele><time>2026-04-24T13:36:41.999Z</time></trkpt><trkpt lat="44.701170582426435" lon="10.123018742250744"><ele>138.39999999999998</ele><time>2026-04-24T13:36:42.999Z</time></trkpt><trkpt lat="44.70121808283917" lon="10.123163177182654"><ele>139.6</ele><time>2026-04-24T13:36:43.999Z</time></trkpt><trkpt lat="44.70126093682481" lon="10.123297231174403"><ele>140.79999999999998</ele><time>2026-04-24T13:36:44.999Z</time></trkpt><trkpt lat="44.701295926071786" lon="10.123408631315986"><ele>142.0</ele><time>2026-04-24T13:36:45.999Z</time></trkpt><trkpt lat="44.7013328592843" lon="10.123514097296617"><ele>143.0</ele><time>2026-04-24T13:36:46.999Z</time></trkpt><trkpt lat="44.701386246632296" lon="10.123650521254614"><ele>144.0</ele><time>2026-04-24T13:36:47.999Z</time></trkpt><trkpt lat="44.70147610099391" lon="10.123838980233096"><ele>145.0</ele><time>2026-04-24T13:36:48.999Z</time></trkpt><trkpt lat="44.701563080204316" lon="10.124029867368803"><ele>146.0</ele><time>2026-04-24T13:36:49.999Z</time></trkpt><trkpt lat="44.70165222099058" lon="10.124223089228902"><ele>146.0</ele><time>2026-04-24T13:36:50.999Z</time></trkpt><trkpt lat="44.70174283932701" lon="10.124427375296822"><ele>146.0</ele><time>2026-04-24T13:36:51.999Z</time></trkpt><trkpt lat="44.7018396666972" lon="10.124636863929036"><ele>146.0</ele><time>2026-04-24T13:36:52.999Z</time></trkpt><trkpt lat="44.70193538434251" lon="10.12484809017716"><ele>145.0</ele><time>2026-04-24T13:36:53.999Z</time></trkpt><trkpt lat="44.70203945162363" lon="10.125071572398067"><ele>144.0</ele><time>2026-04-24T13:36:54.999Z</time></trkpt><trkpt lat="44.70214107788489" lon="10.125289712431902"><ele>143.0</ele><time>2026-04-24T13:36:55.999Z</time></trkpt><trkpt lat="44.70223290551361" lon="10.12549039460451"><ele>143.0</ele><time>2026-04-24T13:36:56.999Z</time></trkpt><trkpt lat="44.702315079572664" lon="10.125675857457086"><ele>143.0</ele><time>2026-04-24T13:36:57.999Z</time></trkpt><trkpt lat="44.702394612039946" lon="10.125847031526058"><ele>143.0</ele><time>2026-04-24T13:36:58.999Z</time></trkpt><trkpt lat="44.70246794349998" lon="10.126004918047913"><ele>143.0</ele><time>2026-04-24T13:36:59.999Z</time></trkpt><trkpt lat="44.70253719886339" lon="10.126155265199262"><ele>143.4</ele><time>2026-04-24T13:37:00.999Z</time></trkpt><trkpt lat="44.70258877729251" lon="10.126286768449313"><ele>143.8</ele><time>2026-04-24T13:37:01.999Z</time></trkpt><trkpt lat="44.7026226695616" lon="10.12641556869981"><ele>144.2</ele><time>2026-04-24T13:37:02.999Z</time></trkpt><trkpt lat="44.702643376083316" lon="10.126549611831033"><ele>144.6</ele><time>2026-04-24T13:37:03.999Z</time></trkpt><trkpt lat="44.70266095879859" lon="10.126679629888665"><ele>145.0</ele><time>2026-04-24T13:37:04.999Z</time></trkpt><trkpt lat="44.70272426839353" lon="10.12678713886377"><ele>144.33333333333334</ele><time>2026-04-24T13:37:05.999Z</time></trkpt><trkpt lat="44.70284001017297" lon="10.12690809119292"><ele>143.66666666666666</ele><time>2026-04-24T13:37:06.999Z</time></trkpt><trkpt lat="44.70295748049965" lon="10.127077427095047"><ele>143.0</ele><time>2026-04-24T13:37:07.998Z</time></trkpt><trkpt lat="44.70306781123441" lon="10.12731770471805"><ele>143.0</ele><time>2026-04-24T13:37:08.998Z</time></trkpt><trkpt lat="44.703169689143834" lon="10.127570770910884"><ele>143.0</ele><time>2026-04-24T13:37:09.998Z</time></trkpt><trkpt lat="44.70328611582197" lon="10.127834151652307"><ele>143.0</ele><time>2026-04-24T13:37:10.998Z</time></trkpt><trkpt lat="44.70340220732886" lon="10.128091639508488"><ele>142.66666666666666</ele><time>2026-04-24T13:37:11.998Z</time></trkpt><trkpt lat="44.70351393358163" lon="10.128334548875328"><ele>142.33333333333334</ele><time>2026-04-24T13:37:12.998Z</time></trkpt><trkpt lat="44.70362482303769" lon="10.128551222694568"><ele>142.0</ele><time>2026-04-24T13:37:13.998Z</time></trkpt><trkpt lat="44.70371315170685" lon="10.128764165313104"><ele>141.33333333333334</ele><time>2026-04-24T13:37:14.998Z</time></trkpt><trkpt lat="44.70380515870683" lon="10.128970436997225"><ele>140.66666666666666</ele><time>2026-04-24T13:37:15.998Z</time></trkpt><trkpt lat="44.70390214537062" lon="10.129182349164696"><ele>140.0</ele><time>2026-04-24T13:37:16.998Z</time></trkpt><trkpt lat="44.704000014439146" lon="10.129402345470428"><ele>140.0</ele><time>2026-04-24T13:37:17.998Z</time></trkpt><trkpt lat="44.70410184973742" lon="10.129622262694923"><ele>140.0</ele><time>2026-04-24T13:37:18.998Z</time></trkpt><trkpt lat="44.70420425411705" lon="10.129845306368214"><ele>140.0</ele><time>2026-04-24T13:37:19.998Z</time></trkpt><trkpt lat="44.704307656487" lon="10.130069279601393"><ele>139.33333333333331</ele><time>2026-04-24T13:37:20.998Z</time></trkpt><trkpt lat="44.70441596684584" lon="10.130290380418023"><ele>138.66666666666666</ele><time>2026-04-24T13:37:21.998Z</time></trkpt><trkpt lat="44.70452768307618" lon="10.130513157724012"><ele>138.0</ele><time>2026-04-24T13:37:22.998Z</time></trkpt><trkpt lat="44.70464065151408" lon="10.130741326289984"><ele>138.0</ele><time>2026-04-24T13:37:23.998Z</time></trkpt><trkpt lat="44.70475269385594" lon="10.130975804056359"><ele>138.0</ele><time>2026-04-24T13:37:24.998Z</time></trkpt><trkpt lat="44.704869768579314" lon="10.131210638609442"><ele>138.0</ele><time>2026-04-24T13:37:25.998Z</time></trkpt><trkpt lat="44.70499091416015" lon="10.131444800373243"><ele>138.66666666666666</ele><time>2026-04-24T13:37:26.998Z</time></trkpt><trkpt lat="44.705106078013" lon="10.13168252590835"><ele>139.33333333333331</ele><time>2026-04-24T13:37:27.998Z</time></trkpt><trkpt lat="44.70522031034685" lon="10.131920746230417"><ele>140.0</ele><time>2026-04-24T13:37:28.998Z</time></trkpt><trkpt lat="44.705335557233994" lon="10.13215873164651"><ele>140.66666666666666</ele><time>2026-04-24T13:37:29.998Z</time></trkpt><trkpt lat="44.705448778543015" lon="10.132391542264589"><ele>141.33333333333334</ele><time>2026-04-24T13:37:30.998Z</time></trkpt><trkpt lat="44.7055581049453" lon="10.132608952683789"><ele>142.0</ele><time>2026-04-24T13:37:31.998Z</time></trkpt><trkpt lat="44.705666155965694" lon="10.132822407020539"><ele>142.0</ele><time>2026-04-24T13:37:32.998Z</time></trkpt><trkpt lat="44.705770729489615" lon="10.133035011303232"><ele>142.0</ele><time>2026-04-24T13:37:33.998Z</time></trkpt><trkpt lat="44.70587793221642" lon="10.133246669694122"><ele>142.0</ele><time>2026-04-24T13:37:34.998Z</time></trkpt><trkpt lat="44.70598899051074" lon="10.133460553785001"><ele>141.66666666666669</ele><time>2026-04-24T13:37:35.998Z</time></trkpt><trkpt lat="44.70609890782517" lon="10.133677808437094"><ele>141.33333333333334</ele><time>2026-04-24T13:37:36.998Z</time></trkpt><trkpt lat="44.70621110748112" lon="10.133894919157699"><ele>141.0</ele><time>2026-04-24T13:37:37.998Z</time></trkpt><trkpt lat="44.70632818669" lon="10.134109372650087"><ele>141.66666666666666</ele><time>2026-04-24T13:37:38.998Z</time></trkpt><trkpt lat="44.70644928385764" lon="10.134327168587708"><ele>142.33333333333331</ele><time>2026-04-24T13:37:39.998Z</time></trkpt><trkpt lat="44.70657027874007" lon="10.134547314045696"><ele>143.0</ele><time>2026-04-24T13:37:40.998Z</time></trkpt><trkpt lat="44.70669130517839" lon="10.134771362017737"><ele>142.0</ele><time>2026-04-24T13:37:41.998Z</time></trkpt><trkpt lat="44.70681207618918" lon="10.134993269200057"><ele>141.0</ele><time>2026-04-24T13:37:42.998Z</time></trkpt><trkpt lat="44.70693702263871" lon="10.135219708033594"><ele>140.0</ele><time>2026-04-24T13:37:43.998Z</time></trkpt><trkpt lat="44.70706252500211" lon="10.135450753303894"><ele>138.66666666666666</ele><time>2026-04-24T13:37:44.998Z</time></trkpt><trkpt lat="44.70718579501864" lon="10.135680752669332"><ele>137.33333333333334</ele><time>2026-04-24T13:37:45.998Z</time></trkpt><trkpt lat="44.70731072073067" lon="10.13591287172751"><ele>136.0</ele><time>2026-04-24T13:37:46.998Z</time></trkpt><trkpt lat="44.70743506498824" lon="10.136145970720913"><ele>136.0</ele><time>2026-04-24T13:37:47.998Z</time></trkpt><trkpt lat="44.7075584182381" lon="10.13637941758195"><ele>136.0</ele><time>2026-04-24T13:37:48.998Z</time></trkpt><trkpt lat="44.7076811110449" lon="10.136608768158158"><ele>136.0</ele><time>2026-04-24T13:37:49.998Z</time></trkpt><trkpt lat="44.70780236175107" lon="10.136835303119282"><ele>136.66666666666669</ele><time>2026-04-24T13:37:50.998Z</time></trkpt><trkpt lat="44.70791611712008" lon="10.137050341449974"><ele>137.33333333333334</ele><time>2026-04-24T13:37:51.998Z</time></trkpt><trkpt lat="44.7080289060023" lon="10.137262656102779"><ele>138.0</ele><time>2026-04-24T13:37:52.998Z</time></trkpt><trkpt lat="44.70814019234505" lon="10.137467728315274"><ele>138.33333333333334</ele><time>2026-04-24T13:37:54Z</time></trkpt><trkpt lat="44.70824476854184" lon="10.137666126174153"><ele>138.66666666666669</ele><time>2026-04-24T13:37:55Z</time></trkpt><trkpt lat="44.70834464543212" lon="10.13785443120904"><ele>139.0</ele><time>2026-04-24T13:37:56Z</time></trkpt><trkpt lat="44.70844120050059" lon="10.138043677597185"><ele>139.33333333333334</ele><time>2026-04-24T13:37:57Z</time></trkpt><trkpt lat="44.708538934613145" lon="10.138231790003344"><ele>139.66666666666666</ele><time>2026-04-24T13:37:58Z</time></trkpt><trkpt lat="44.70863546106126" lon="10.1384184658994"><ele>140.0</ele><time>2026-04-24T13:37:59Z</time></trkpt><trkpt lat="44.70873468170825" lon="10.138603640161433"><ele>139.66666666666666</ele><time>2026-04-24T13:38:00Z</time></trkpt><trkpt lat="44.708835214273435" lon="10.138790197283319"><ele>139.33333333333334</ele><time>2026-04-24T13:38:01Z</time></trkpt><trkpt lat="44.70893460131646" lon="10.138977313120378"><ele>139.0</ele><time>2026-04-24T13:38:02Z</time></trkpt><trkpt lat="44.709033251473954" lon="10.139167761473175"><ele>139.0</ele><time>2026-04-24T13:38:03Z</time></trkpt><trkpt lat="44.70913328957948" lon="10.139354469087046"><ele>139.0</ele><time>2026-04-24T13:38:04Z</time></trkpt><trkpt lat="44.709236398820295" lon="10.13952963809084"><ele>139.0</ele><time>2026-04-24T13:38:05Z</time></trkpt><trkpt lat="44.7093498866315" lon="10.139693684051167"><ele>137.66666666666669</ele><time>2026-04-24T13:38:06Z</time></trkpt><trkpt lat="44.70947346775" lon="10.139846416235192"><ele>136.33333333333334</ele><time>2026-04-24T13:38:07Z</time></trkpt><trkpt lat="44.709599038632156" lon="10.139995207602748"><ele>135.0</ele><time>2026-04-24T13:38:08Z</time></trkpt><trkpt lat="44.70973593968332" lon="10.140146204907307"><ele>135.0</ele><time>2026-04-24T13:38:09Z</time></trkpt><trkpt lat="44.70984484468728" lon="10.140275746880937"><ele>135.0</ele><time>2026-04-24T13:38:10Z</time></trkpt><trkpt lat="44.709973208985105" lon="10.140417395470191"><ele>135.0</ele><time>2026-04-24T13:38:11Z</time></trkpt><trkpt lat="44.710107881344605" lon="10.140561114503882"><ele>134.0</ele><time>2026-04-24T13:38:12Z</time></trkpt><trkpt lat="44.71024229564548" lon="10.140705553112705"><ele>133.0</ele><time>2026-04-24T13:38:13Z</time></trkpt><trkpt lat="44.710373809793786" lon="10.14085171784015"><ele>132.0</ele><time>2026-04-24T13:38:14Z</time></trkpt><trkpt lat="44.71049990912224" lon="10.141004562413576"><ele>132.0</ele><time>2026-04-24T13:38:15Z</time></trkpt><trkpt lat="44.710605580412505" lon="10.141174999540842"><ele>132.0</ele><time>2026-04-24T13:38:16Z</time></trkpt><trkpt lat="44.71070675958672" lon="10.141348526278124"><ele>132.0</ele><time>2026-04-24T13:38:17Z</time></trkpt><trkpt lat="44.7108044066932" lon="10.141522231953697"><ele>132.25</ele><time>2026-04-24T13:38:18Z</time></trkpt><trkpt lat="44.71089047043578" lon="10.141676394157505"><ele>132.5</ele><time>2026-04-24T13:38:19Z</time></trkpt><trkpt lat="44.71098296393433" lon="10.141833603247571"><ele>132.75</ele><time>2026-04-24T13:38:20Z</time></trkpt><trkpt lat="44.71107877655169" lon="10.141978546146847"><ele>133.0</ele><time>2026-04-24T13:38:20.999Z</time></trkpt><trkpt lat="44.71117811013526" lon="10.142130778766514"><ele>133.0</ele><time>2026-04-24T13:38:21.999Z</time></trkpt><trkpt lat="44.711285124491866" lon="10.142266999107807"><ele>133.0</ele><time>2026-04-24T13:38:22.999Z</time></trkpt><trkpt lat="44.71138997851906" lon="10.142380829415794"><ele>133.0</ele><time>2026-04-24T13:38:23.999Z</time></trkpt><trkpt lat="44.71149497724982" lon="10.142486453446768"><ele>133.0</ele><time>2026-04-24T13:38:24.999Z</time></trkpt><trkpt lat="44.71159785298987" lon="10.14258517978567"><ele>132.8</ele><time>2026-04-24T13:38:25.999Z</time></trkpt><trkpt lat="44.71168684423131" lon="10.14268044169754"><ele>132.60000000000002</ele><time>2026-04-24T13:38:26.999Z</time></trkpt><trkpt lat="44.71177654267327" lon="10.14276795959545"><ele>132.39999999999998</ele><time>2026-04-24T13:38:27.999Z</time></trkpt><trkpt lat="44.71186598166094" lon="10.142858456243882"><ele>132.2</ele><time>2026-04-24T13:38:28.999Z</time></trkpt><trkpt lat="44.71195348898143" lon="10.142954458175039"><ele>132.0</ele><time>2026-04-24T13:38:29.999Z</time></trkpt><trkpt lat="44.712045372405264" lon="10.143050491104834"><ele>132.0</ele><time>2026-04-24T13:38:30.999Z</time></trkpt><trkpt lat="44.71213768635696" lon="10.143139281504924"><ele>132.0</ele><time>2026-04-24T13:38:31.999Z</time></trkpt><trkpt lat="44.712235524770065" lon="10.143243117886545"><ele>132.0</ele><time>2026-04-24T13:38:32.999Z</time></trkpt><trkpt lat="44.71233805906327" lon="10.143358007366276"><ele>132.0</ele><time>2026-04-24T13:38:33.999Z</time></trkpt><trkpt lat="44.712441021187566" lon="10.14346945172901"><ele>132.5</ele><time>2026-04-24T13:38:34.999Z</time></trkpt><trkpt lat="44.71253751820322" lon="10.143585889729021"><ele>133.0</ele><time>2026-04-24T13:38:35.999Z</time></trkpt><trkpt lat="44.71262714707389" lon="10.143713684751384"><ele>133.5</ele><time>2026-04-24T13:38:36.999Z</time></trkpt><trkpt lat="44.71270121634934" lon="10.143851280083206"><ele>134.0</ele><time>2026-04-24T13:38:37.999Z</time></trkpt><trkpt lat="44.712763152883845" lon="10.143988695746065"><ele>133.0</ele><time>2026-04-24T13:38:38.999Z</time></trkpt><trkpt lat="44.71281853127226" lon="10.144125220151798"><ele>132.0</ele><time>2026-04-24T13:38:39.999Z</time></trkpt><trkpt lat="44.71287713504659" lon="10.144266701816216"><ele>131.0</ele><time>2026-04-24T13:38:40.999Z</time></trkpt><trkpt lat="44.712936842943236" lon="10.144399860188507"><ele>130.0</ele><time>2026-04-24T13:38:41.999Z</time></trkpt><trkpt lat="44.71299667887242" lon="10.144539505015848"><ele>130.0</ele><time>2026-04-24T13:38:42.999Z</time></trkpt><trkpt lat="44.713059197915605" lon="10.144678815953132"><ele>130.0</ele><time>2026-04-24T13:38:43.999Z</time></trkpt><trkpt lat="44.713118986069325" lon="10.144817295572405"><ele>130.0</ele><time>2026-04-24T13:38:44.999Z</time></trkpt><trkpt lat="44.713176686668476" lon="10.144959510427272"><ele>130.0</ele><time>2026-04-24T13:38:45.999Z</time></trkpt><trkpt lat="44.71323497863704" lon="10.14510150156911"><ele>130.25</ele><time>2026-04-24T13:38:46.999Z</time></trkpt><trkpt lat="44.71329793383757" lon="10.145248375676243"><ele>130.5</ele><time>2026-04-24T13:38:47.999Z</time></trkpt><trkpt lat="44.71336685837725" lon="10.145401498753593"><ele>130.75</ele><time>2026-04-24T13:38:48.999Z</time></trkpt><trkpt lat="44.71343580116787" lon="10.145558815461"><ele>131.0</ele><time>2026-04-24T13:38:49.999Z</time></trkpt><trkpt lat="44.71350989917079" lon="10.145722752456821"><ele>130.0</ele><time>2026-04-24T13:38:50.999Z</time></trkpt><trkpt lat="44.713586874869264" lon="10.145890328905404"><ele>129.0</ele><time>2026-04-24T13:38:51.999Z</time></trkpt><trkpt lat="44.71366218568867" lon="10.146059215853116"><ele>128.0</ele><time>2026-04-24T13:38:52.999Z</time></trkpt><trkpt lat="44.71373977680587" lon="10.146223376095486"><ele>127.0</ele><time>2026-04-24T13:38:53.999Z</time></trkpt><trkpt lat="44.71381951803822" lon="10.146390004185454"><ele>128.0</ele><time>2026-04-24T13:38:54.999Z</time></trkpt><trkpt lat="44.71390209585765" lon="10.146559653218294"><ele>129.0</ele><time>2026-04-24T13:38:55.999Z</time></trkpt><trkpt lat="44.71398297947704" lon="10.146729054519438"><ele>130.0</ele><time>2026-04-24T13:38:56.999Z</time></trkpt><trkpt lat="44.71406606009669" lon="10.146898549834363"><ele>131.0</ele><time>2026-04-24T13:38:57.999Z</time></trkpt><trkpt lat="44.71414991194183" lon="10.147070577053482"><ele>131.0</ele><time>2026-04-24T13:38:58.999Z</time></trkpt><trkpt lat="44.71423711367535" lon="10.147244750722656"><ele>131.0</ele><time>2026-04-24T13:38:59.999Z</time></trkpt><trkpt lat="44.71432313479876" lon="10.14742537367009"><ele>131.0</ele><time>2026-04-24T13:39:00.999Z</time></trkpt><trkpt lat="44.714410669046906" lon="10.147606048224782"><ele>129.33333333333331</ele><time>2026-04-24T13:39:01.999Z</time></trkpt><trkpt lat="44.714494610171435" lon="10.147782967663682"><ele>127.66666666666666</ele><time>2026-04-24T13:39:02.999Z</time></trkpt><trkpt lat="44.71458362376509" lon="10.147974067052802"><ele>126.0</ele><time>2026-04-24T13:39:03.999Z</time></trkpt><trkpt lat="44.71466335019212" lon="10.14816090989061"><ele>126.33333333333334</ele><time>2026-04-24T13:39:04.999Z</time></trkpt><trkpt lat="44.71473953576416" lon="10.148360653923689"><ele>126.66666666666667</ele><time>2026-04-24T13:39:05.999Z</time></trkpt><trkpt lat="44.7148083453141" lon="10.148562560070381"><ele>127.0</ele><time>2026-04-24T13:39:06.999Z</time></trkpt><trkpt lat="44.71486860578227" lon="10.148772487719905"><ele>127.0</ele><time>2026-04-24T13:39:07.999Z</time></trkpt><trkpt lat="44.71492874544281" lon="10.14899498643543"><ele>127.0</ele><time>2026-04-24T13:39:08.999Z</time></trkpt><trkpt lat="44.71498478632665" lon="10.149212615197007"><ele>127.0</ele><time>2026-04-24T13:39:09.999Z</time></trkpt><trkpt lat="44.715039196058186" lon="10.149427082017601"><ele>127.33333333333334</ele><time>2026-04-24T13:39:10.999Z</time></trkpt><trkpt lat="44.71509622674222" lon="10.149649545873883"><ele>127.66666666666666</ele><time>2026-04-24T13:39:11.999Z</time></trkpt><trkpt lat="44.71515312702741" lon="10.149868985396346"><ele>128.0</ele><time>2026-04-24T13:39:12.999Z</time></trkpt><trkpt lat="44.715213810663755" lon="10.150085853941944"><ele>127.66666666666666</ele><time>2026-04-24T13:39:13.999Z</time></trkpt><trkpt lat="44.71527791629425" lon="10.150298145783843"><ele>127.33333333333334</ele><time>2026-04-24T13:39:14.999Z</time></trkpt><trkpt lat="44.71535524638602" lon="10.150505967204577"><ele>127.0</ele><time>2026-04-24T13:39:15.999Z</time></trkpt><trkpt lat="44.71544282388842" lon="10.150709112713052"><ele>127.66666666666667</ele><time>2026-04-24T13:39:16.999Z</time></trkpt><trkpt lat="44.71553517317538" lon="10.150904986532035"><ele>128.33333333333334</ele><time>2026-04-24T13:39:17.999Z</time></trkpt><trkpt lat="44.71563389027362" lon="10.151103296167737"><ele>129.0</ele><time>2026-04-24T13:39:18.999Z</time></trkpt><trkpt lat="44.71573237902619" lon="10.151302436104789"><ele>129.0</ele><time>2026-04-24T13:39:19.999Z</time></trkpt><trkpt lat="44.71583444839399" lon="10.151499719797915"><ele>129.0</ele><time>2026-04-24T13:39:20.999Z</time></trkpt><trkpt lat="44.715929770643136" lon="10.151687231787784"><ele>129.0</ele><time>2026-04-24T13:39:21.999Z</time></trkpt><trkpt lat="44.716028127753646" lon="10.151871953436839"><ele>130.33333333333334</ele><time>2026-04-24T13:39:22.999Z</time></trkpt><trkpt lat="44.71612107234487" lon="10.15205133838928"><ele>131.66666666666669</ele><time>2026-04-24T13:39:23.999Z</time></trkpt><trkpt lat="44.71621201442238" lon="10.152227473545768"><ele>133.0</ele><time>2026-04-24T13:39:24.998Z</time></trkpt><trkpt lat="44.7163047615877" lon="10.152402864497976"><ele>133.0</ele><time>2026-04-24T13:39:25.998Z</time></trkpt><trkpt lat="44.71639543682032" lon="10.152576728101586"><ele>133.0</ele><time>2026-04-24T13:39:26.998Z</time></trkpt><trkpt lat="44.71648562652741" lon="10.152748043941054"><ele>133.0</ele><time>2026-04-24T13:39:27.998Z</time></trkpt><trkpt lat="44.71657711250482" lon="10.152925962169375"><ele>133.0</ele><time>2026-04-24T13:39:28.998Z</time></trkpt><trkpt lat="44.71666938721339" lon="10.153104946776928"><ele>133.0</ele><time>2026-04-24T13:39:29.998Z</time></trkpt><trkpt lat="44.71676261316712" lon="10.153287931175242"><ele>133.0</ele><time>2026-04-24T13:39:30.998Z</time></trkpt><trkpt lat="44.716844880521606" lon="10.153485906686441"><ele>131.66666666666669</ele><time>2026-04-24T13:39:31.998Z</time></trkpt><trkpt lat="44.71693226859907" lon="10.153685512570485"><ele>130.33333333333334</ele><time>2026-04-24T13:39:32.998Z</time></trkpt><trkpt lat="44.71701484045197" lon="10.153891483836723"><ele>129.0</ele><time>2026-04-24T13:39:33.998Z</time></trkpt><trkpt lat="44.71709028170235" lon="10.154096942543529"><ele>129.0</ele><time>2026-04-24T13:39:34.998Z</time></trkpt><trkpt lat="44.717166196837326" lon="10.154305403505349"><ele>129.0</ele><time>2026-04-24T13:39:35.998Z</time></trkpt><trkpt lat="44.71723808601848" lon="10.154511234061726"><ele>129.0</ele><time>2026-04-24T13:39:36.998Z</time></trkpt><trkpt lat="44.717311985183855" lon="10.15471289740005"><ele>128.33333333333334</ele><time>2026-04-24T13:39:37.998Z</time></trkpt><trkpt lat="44.7173839659362" lon="10.15490962544753"><ele>127.66666666666667</ele><time>2026-04-24T13:39:38.998Z</time></trkpt><trkpt lat="44.71745595206451" lon="10.155118158209024"><ele>127.0</ele><time>2026-04-24T13:39:39.998Z</time></trkpt><trkpt lat="44.7175269888309" lon="10.155318139908688"><ele>127.0</ele><time>2026-04-24T13:39:40.998Z</time></trkpt><trkpt lat="44.717597507555496" lon="10.155520252107566"><ele>127.0</ele><time>2026-04-24T13:39:41.998Z</time></trkpt><trkpt lat="44.71767118991779" lon="10.15571921156056"><ele>127.0</ele><time>2026-04-24T13:39:42.998Z</time></trkpt><trkpt lat="44.717746551938966" lon="10.155922399806451"><ele>127.0</ele><time>2026-04-24T13:39:43.998Z</time></trkpt><trkpt lat="44.71782353967309" lon="10.1561369489764"><ele>127.0</ele><time>2026-04-24T13:39:44.998Z</time></trkpt><trkpt lat="44.7179034464379" lon="10.15635887287038"><ele>127.0</ele><time>2026-04-24T13:39:45.998Z</time></trkpt><trkpt lat="44.717990151232364" lon="10.156587460444982"><ele>127.33333333333334</ele><time>2026-04-24T13:39:46.998Z</time></trkpt><trkpt lat="44.718072255742186" lon="10.156822141758992"><ele>127.66666666666666</ele><time>2026-04-24T13:39:47.998Z</time></trkpt><trkpt lat="44.718158576715986" lon="10.157057286276451"><ele>128.0</ele><time>2026-04-24T13:39:48.998Z</time></trkpt><trkpt lat="44.7182450550604" lon="10.157297891340091"><ele>127.33333333333333</ele><time>2026-04-24T13:39:49.998Z</time></trkpt><trkpt lat="44.718331576551556" lon="10.157535213763605"><ele>126.66666666666666</ele><time>2026-04-24T13:39:50.998Z</time></trkpt><trkpt lat="44.718419750402276" lon="10.157776346159254"><ele>126.0</ele><time>2026-04-24T13:39:51.998Z</time></trkpt><trkpt lat="44.718506707110244" lon="10.158014103161666"><ele>124.66666666666666</ele><time>2026-04-24T13:39:52.998Z</time></trkpt><trkpt lat="44.71859558638438" lon="10.158250601150097"><ele>123.33333333333333</ele><time>2026-04-24T13:39:53.998Z</time></trkpt><trkpt lat="44.71868148988082" lon="10.158486494585642"><ele>122.0</ele><time>2026-04-24T13:39:54.998Z</time></trkpt><trkpt lat="44.71876833979474" lon="10.158720263954727"><ele>122.0</ele><time>2026-04-24T13:39:55.998Z</time></trkpt><trkpt lat="44.718854620319554" lon="10.158957177655008"><ele>122.0</ele><time>2026-04-24T13:39:56.998Z</time></trkpt><trkpt lat="44.71894144559034" lon="10.159196371190843"><ele>122.0</ele><time>2026-04-24T13:39:57.998Z</time></trkpt><trkpt lat="44.71902748818099" lon="10.159436712658183"><ele>121.66666666666666</ele><time>2026-04-24T13:39:58.998Z</time></trkpt><trkpt lat="44.719114846359055" lon="10.159677685527674"><ele>121.33333333333334</ele><time>2026-04-24T13:40:00Z</time></trkpt><trkpt lat="44.719202337483004" lon="10.159921523333137"><ele>121.0</ele><time>2026-04-24T13:40:01Z</time></trkpt><trkpt lat="44.719286234512744" lon="10.160172393968532"><ele>121.0</ele><time>2026-04-24T13:40:02Z</time></trkpt><trkpt lat="44.719376526547556" lon="10.160433316821226"><ele>121.0</ele><time>2026-04-24T13:40:03Z</time></trkpt><trkpt lat="44.71946779845679" lon="10.16070055595211"><ele>121.0</ele><time>2026-04-24T13:40:04Z</time></trkpt><trkpt lat="44.71955832743123" lon="10.160967119430588"><ele>121.0</ele><time>2026-04-24T13:40:05Z</time></trkpt><trkpt lat="44.719648765952385" lon="10.161234709935668"><ele>121.0</ele><time>2026-04-24T13:40:06Z</time></trkpt><trkpt lat="44.71973500967239" lon="10.161499580114137"><ele>121.0</ele><time>2026-04-24T13:40:07Z</time></trkpt><trkpt lat="44.719819341582074" lon="10.161756339761508"><ele>121.66666666666667</ele><time>2026-04-24T13:40:08Z</time></trkpt><trkpt lat="44.719903395927844" lon="10.162009954908434"><ele>122.33333333333334</ele><time>2026-04-24T13:40:09Z</time></trkpt><trkpt lat="44.71998734402105" lon="10.162262877187988"><ele>123.0</ele><time>2026-04-24T13:40:10Z</time></trkpt><trkpt lat="44.72006913972443" lon="10.162516601141327"><ele>123.33333333333334</ele><time>2026-04-24T13:40:11Z</time></trkpt><trkpt lat="44.720153729441485" lon="10.162772153380766"><ele>123.66666666666667</ele><time>2026-04-24T13:40:12Z</time></trkpt><trkpt lat="44.72023831343291" lon="10.163026664841972"><ele>124.0</ele><time>2026-04-24T13:40:13Z</time></trkpt><trkpt lat="44.72032277516485" lon="10.163284779961838"><ele>123.0</ele><time>2026-04-24T13:40:14Z</time></trkpt><trkpt lat="44.720405070824036" lon="10.16354412385206"><ele>122.0</ele><time>2026-04-24T13:40:15Z</time></trkpt><trkpt lat="44.72048743990335" lon="10.163800863671193"><ele>121.0</ele><time>2026-04-24T13:40:16Z</time></trkpt><trkpt lat="44.72056953564082" lon="10.164055325863437"><ele>120.66666666666667</ele><time>2026-04-24T13:40:17Z</time></trkpt><trkpt lat="44.720650761104345" lon="10.164317624712002"><ele>120.33333333333334</ele><time>2026-04-24T13:40:18Z</time></trkpt><trkpt lat="44.72073109684801" lon="10.164575785662615"><ele>120.0</ele><time>2026-04-24T13:40:19Z</time></trkpt><trkpt lat="44.720810835589035" lon="10.164833313065738"><ele>119.66666666666666</ele><time>2026-04-24T13:40:20Z</time></trkpt><trkpt lat="44.720889339590315" lon="10.165086849444737"><ele>119.33333333333333</ele><time>2026-04-24T13:40:21Z</time></trkpt><trkpt lat="44.72096448803979" lon="10.165334009137299"><ele>119.0</ele><time>2026-04-24T13:40:22Z</time></trkpt><trkpt lat="44.72103905827857" lon="10.165583010339747"><ele>118.66666666666666</ele><time>2026-04-24T13:40:23Z</time></trkpt><trkpt lat="44.72111357514133" lon="10.165828915510147"><ele>118.33333333333334</ele><time>2026-04-24T13:40:24Z</time></trkpt><trkpt lat="44.72118270171083" lon="10.166066032907736"><ele>118.0</ele><time>2026-04-24T13:40:25Z</time></trkpt><trkpt lat="44.72125425298826" lon="10.166313500841701"><ele>117.66666666666667</ele><time>2026-04-24T13:40:26Z</time></trkpt><trkpt lat="44.721322249788" lon="10.166558009701445"><ele>117.33333333333334</ele><time>2026-04-24T13:40:27Z</time></trkpt><trkpt lat="44.72139247682083" lon="10.166802305630755"><ele>117.0</ele><time>2026-04-24T13:40:28Z</time></trkpt><trkpt lat="44.72146933630896" lon="10.167048481921912"><ele>117.0</ele><time>2026-04-24T13:40:29Z</time></trkpt><trkpt lat="44.72154976642842" lon="10.16729226910901"><ele>117.0</ele><time>2026-04-24T13:40:30Z</time></trkpt><trkpt lat="44.72163456113831" lon="10.167530921603992"><ele>117.0</ele><time>2026-04-24T13:40:31Z</time></trkpt><trkpt lat="44.721725755783446" lon="10.167771007973645"><ele>117.33333333333334</ele><time>2026-04-24T13:40:32Z</time></trkpt><trkpt lat="44.72181701467111" lon="10.168015334430889"><ele>117.66666666666667</ele><time>2026-04-24T13:40:33Z</time></trkpt><trkpt lat="44.721911454922285" lon="10.168256025430447"><ele>118.0</ele><time>2026-04-24T13:40:34Z</time></trkpt><trkpt lat="44.72200004762066" lon="10.16848309113827"><ele>118.33333333333334</ele><time>2026-04-24T13:40:35Z</time></trkpt><trkpt lat="44.72208133135149" lon="10.168687920112005"><ele>118.66666666666666</ele><time>2026-04-24T13:40:36Z</time></trkpt><trkpt lat="44.72215939043612" lon="10.168890634298304"><ele>119.0</ele><time>2026-04-24T13:40:37Z</time></trkpt><trkpt lat="44.72223144273503" lon="10.16907163004236"><ele>119.0</ele><time>2026-04-24T13:40:38Z</time></trkpt><trkpt lat="44.72230088777077" lon="10.16924058434754"><ele>119.0</ele><time>2026-04-24T13:40:39Z</time></trkpt><trkpt lat="44.72236437964018" lon="10.169401702413769"><ele>119.0</ele><time>2026-04-24T13:40:39.999Z</time></trkpt><trkpt lat="44.72242394141224" lon="10.169554985658186"><ele>119.0</ele><time>2026-04-24T13:40:40.999Z</time></trkpt><trkpt lat="44.722488094729165" lon="10.16972373418269"><ele>119.0</ele><time>2026-04-24T13:40:41.999Z</time></trkpt><trkpt lat="44.72255063380733" lon="10.169887130656827"><ele>119.0</ele><time>2026-04-24T13:40:42.999Z</time></trkpt><trkpt lat="44.722615149931116" lon="10.170058207254938"><ele>119.0</ele><time>2026-04-24T13:40:43.999Z</time></trkpt><trkpt lat="44.72268107086676" lon="10.170229674400984"><ele>119.0</ele><time>2026-04-24T13:40:44.999Z</time></trkpt><trkpt lat="44.72274686958596" lon="10.170400346496892"><ele>118.5</ele><time>2026-04-24T13:40:45.999Z</time></trkpt><trkpt lat="44.72281161196398" lon="10.170572914169158"><ele>118.0</ele><time>2026-04-24T13:40:46.999Z</time></trkpt><trkpt lat="44.722879029411075" lon="10.170747975950217"><ele>117.5</ele><time>2026-04-24T13:40:47.999Z</time></trkpt><trkpt lat="44.72294516073791" lon="10.170920000013483"><ele>117.0</ele><time>2026-04-24T13:40:48.999Z</time></trkpt><trkpt lat="44.723011632838926" lon="10.171094531432997"><ele>117.0</ele><time>2026-04-24T13:40:49.999Z</time></trkpt><trkpt lat="44.72308121633563" lon="10.171267984329537"><ele>117.0</ele><time>2026-04-24T13:40:50.999Z</time></trkpt><trkpt lat="44.72314936401951" lon="10.171445196439358"><ele>117.0</ele><time>2026-04-24T13:40:51.999Z</time></trkpt><trkpt lat="44.72321977475957" lon="10.171623184303085"><ele>117.0</ele><time>2026-04-24T13:40:52.999Z</time></trkpt><trkpt lat="44.72329022670694" lon="10.171803878347225"><ele>117.33333333333334</ele><time>2026-04-24T13:40:53.999Z</time></trkpt><trkpt lat="44.723360566969404" lon="10.171989578818721"><ele>117.66666666666667</ele><time>2026-04-24T13:40:54.999Z</time></trkpt><trkpt lat="44.72343383748781" lon="10.172175994345983"><ele>118.0</ele><time>2026-04-24T13:40:55.999Z</time></trkpt><trkpt lat="44.72350907125852" lon="10.172359632494212"><ele>118.0</ele><time>2026-04-24T13:40:56.999Z</time></trkpt><trkpt lat="44.7235792271573" lon="10.172535410702885"><ele>118.0</ele><time>2026-04-24T13:40:57.999Z</time></trkpt><trkpt lat="44.723650644711014" lon="10.172701305677053"><ele>118.0</ele><time>2026-04-24T13:40:58.999Z</time></trkpt><trkpt lat="44.72372376867672" lon="10.172868100524463"><ele>118.0</ele><time>2026-04-24T13:40:59.999Z</time></trkpt><trkpt lat="44.72379440189986" lon="10.173033260511298"><ele>118.0</ele><time>2026-04-24T13:41:00.999Z</time></trkpt><trkpt lat="44.72386189235927" lon="10.173198722555613"><ele>118.0</ele><time>2026-04-24T13:41:01.999Z</time></trkpt><trkpt lat="44.72391170471928" lon="10.173323150913026"><ele>118.0</ele><time>2026-04-24T13:41:02.999Z</time></trkpt><trkpt lat="44.72397076032374" lon="10.173477169426736"><ele>118.0</ele><time>2026-04-24T13:41:03.999Z</time></trkpt><trkpt lat="44.72402960009931" lon="10.173630266192639"><ele>118.0</ele><time>2026-04-24T13:41:04.999Z</time></trkpt><trkpt lat="44.724090160191814" lon="10.173783183922025"><ele>118.0</ele><time>2026-04-24T13:41:05.999Z</time></trkpt><trkpt lat="44.724150103945874" lon="10.173938086002607"><ele>118.0</ele><time>2026-04-24T13:41:06.999Z</time></trkpt><trkpt lat="44.724209387505816" lon="10.174092173175987"><ele>118.0</ele><time>2026-04-24T13:41:07.999Z</time></trkpt><trkpt lat="44.724270068500466" lon="10.174245156528983"><ele>118.0</ele><time>2026-04-24T13:41:08.999Z</time></trkpt><trkpt lat="44.72432974370642" lon="10.174395999420854"><ele>118.0</ele><time>2026-04-24T13:41:09.999Z</time></trkpt><trkpt lat="44.72438817981" lon="10.17454048672654"><ele>118.0</ele><time>2026-04-24T13:41:10.999Z</time></trkpt><trkpt lat="44.724450531640066" lon="10.174687176524353"><ele>118.0</ele><time>2026-04-24T13:41:11.999Z</time></trkpt><trkpt lat="44.72451131134572" lon="10.174849391076455"><ele>118.00000000000001</ele><time>2026-04-24T13:41:12.999Z</time></trkpt><trkpt lat="44.724568227313455" lon="10.174996770878007"><ele>118.0</ele><time>2026-04-24T13:41:13.999Z</time></trkpt><trkpt lat="44.72461698128544" lon="10.175131775754178"><ele>118.0</ele><time>2026-04-24T13:41:14.999Z</time></trkpt><trkpt lat="44.72464685719659" lon="10.175227443993977"><ele>118.0</ele><time>2026-04-24T13:41:15.999Z</time></trkpt><trkpt lat="44.7246260758414" lon="10.175326711730468"><ele>118.00000000000001</ele><time>2026-04-24T13:41:17.999Z</time></trkpt><trkpt lat="44.72455350571872" lon="10.175313579787389"><ele>118.0</ele><time>2026-04-24T13:41:18.999Z</time></trkpt><trkpt lat="44.72448020524105" lon="10.175378406753081"><ele>118.0</ele><time>2026-04-24T13:41:19.999Z</time></trkpt><trkpt lat="44.72440555825705" lon="10.175442062290646"><ele>118.00000000000001</ele><time>2026-04-24T13:41:20.999Z</time></trkpt><trkpt lat="44.72434786552158" lon="10.175487005028724"><ele>118.00000000000001</ele><time>2026-04-24T13:41:21.999Z</time></trkpt><trkpt lat="44.724245634785795" lon="10.175541098427471"><ele>118.0</ele><time>2026-04-24T13:41:23.999Z</time></trkpt><trkpt lat="44.72415832653337" lon="10.17551675967463"><ele>118.0</ele><time>2026-04-24T13:41:25.999Z</time></trkpt><trkpt lat="44.724079870204676" lon="10.175242625407153"><ele>118.0</ele><time>2026-04-24T13:41:26.999Z</time></trkpt><trkpt lat="44.724003229195176" lon="10.175111569962922"><ele>118.00000000000001</ele><time>2026-04-24T13:41:27.999Z</time></trkpt><trkpt lat="44.72393397559663" lon="10.17499545080613"><ele>118.00000000000001</ele><time>2026-04-24T13:41:28.999Z</time></trkpt><trkpt lat="44.72387351187451" lon="10.174898323853313"><ele>118.0</ele><time>2026-04-24T13:41:29.999Z</time></trkpt><trkpt lat="44.72382765740979" lon="10.174808523086924"><ele>118.0</ele><time>2026-04-24T13:41:30.999Z</time></trkpt><trkpt lat="44.72373910941209" lon="10.1747782047567"><ele>118.2</ele><time>2026-04-24T13:41:32.999Z</time></trkpt><trkpt lat="44.72369696235824" lon="10.174892664479094"><ele>118.4</ele><time>2026-04-24T13:41:33.999Z</time></trkpt><trkpt lat="44.72369800285118" lon="10.175060419874557"><ele>118.60000000000001</ele><time>2026-04-24T13:41:34.999Z</time></trkpt><trkpt lat="44.72366379827914" lon="10.175174919037872"><ele>118.80000000000001</ele><time>2026-04-24T13:41:35.999Z</time></trkpt><trkpt lat="44.723608407272124" lon="10.175299953132559"><ele>119.0</ele><time>2026-04-24T13:41:36.999Z</time></trkpt><trkpt lat="44.72356493927738" lon="10.175456172919278"><ele>119.5</ele><time>2026-04-24T13:41:37.999Z</time></trkpt><trkpt lat="44.72351953077174" lon="10.175620414295345"><ele>120.0</ele><time>2026-04-24T13:41:38.999Z</time></trkpt><trkpt lat="44.72348637961718" lon="10.175803093385994"><ele>120.5</ele><time>2026-04-24T13:41:39.998Z</time></trkpt><trkpt lat="44.723435733880784" lon="10.175981907941974"><ele>121.0</ele><time>2026-04-24T13:41:40.998Z</time></trkpt><trkpt lat="44.72338252190218" lon="10.176160539294257"><ele>121.0</ele><time>2026-04-24T13:41:41.998Z</time></trkpt><trkpt lat="44.723318569481734" lon="10.176330294959127"><ele>121.0</ele><time>2026-04-24T13:41:42.998Z</time></trkpt><trkpt lat="44.723281451347056" lon="10.17651632779801"><ele>121.0</ele><time>2026-04-24T13:41:43.998Z</time></trkpt><trkpt lat="44.72323044535405" lon="10.176671864360742"><ele>121.0</ele><time>2026-04-24T13:41:44.998Z</time></trkpt><trkpt lat="44.72318692487543" lon="10.176822262478874"><ele>121.6</ele><time>2026-04-24T13:41:45.998Z</time></trkpt><trkpt lat="44.72314657203245" lon="10.176966946312799"><ele>122.19999999999999</ele><time>2026-04-24T13:41:46.998Z</time></trkpt><trkpt lat="44.72310894334977" lon="10.177097204942571"><ele>122.80000000000001</ele><time>2026-04-24T13:41:47.998Z</time></trkpt><trkpt lat="44.723089055127716" lon="10.177197011493817"><ele>123.4</ele><time>2026-04-24T13:41:48.998Z</time></trkpt><trkpt lat="44.723092952622665" lon="10.177289793151674"><ele>124.0</ele><time>2026-04-24T13:41:49.998Z</time></trkpt><trkpt lat="44.723185834474165" lon="10.177371212360066"><ele>125.33333333333334</ele><time>2026-04-24T13:41:50.998Z</time></trkpt><trkpt lat="44.72323268643614" lon="10.177441569069156"><ele>126.66666666666667</ele><time>2026-04-24T13:41:51.998Z</time></trkpt><trkpt lat="44.723216266675486" lon="10.177586926268402"><ele>128.0</ele><time>2026-04-24T13:41:53.998Z</time></trkpt><trkpt lat="44.723153638010366" lon="10.177607881401377"><ele>129.33333333333334</ele><time>2026-04-24T13:41:54.998Z</time></trkpt><trkpt lat="44.72307480025484" lon="10.177547960784397"><ele>130.66666666666666</ele><time>2026-04-24T13:41:55.998Z</time></trkpt><trkpt lat="44.7229771600384" lon="10.177533479554997"><ele>132.0</ele><time>2026-04-24T13:41:56.998Z</time></trkpt><trkpt lat="44.7228498681382" lon="10.177489425055612"><ele>132.0</ele><time>2026-04-24T13:41:57.998Z</time></trkpt><trkpt lat="44.72278133175113" lon="10.177475207593405"><ele>132.0</ele><time>2026-04-24T13:41:58.998Z</time></trkpt><trkpt lat="44.72268127933894" lon="10.177539670620865"><ele>132.0</ele><time>2026-04-24T13:42:00.998Z</time></trkpt><trkpt lat="44.72267070322416" lon="10.177671999888561"><ele>132.0</ele><time>2026-04-24T13:42:01.998Z</time></trkpt><trkpt lat="44.72276255113735" lon="10.177792749781236"><ele>132.0</ele><time>2026-04-24T13:42:02.998Z</time></trkpt><trkpt lat="44.722815915516584" lon="10.177923160662976"><ele>132.0</ele><time>2026-04-24T13:42:03.998Z</time></trkpt><trkpt lat="44.722885774252816" lon="10.178043456405067"><ele>132.0</ele><time>2026-04-24T13:42:04.998Z</time></trkpt><trkpt lat="44.722942632922944" lon="10.178146949673058"><ele>132.0</ele><time>2026-04-24T13:42:06Z</time></trkpt><trkpt lat="44.72297778884338" lon="10.178276007562252"><ele>132.0</ele><time>2026-04-24T13:42:08Z</time></trkpt><trkpt lat="44.72284637942805" lon="10.178311856422301"><ele>132.0</ele><time>2026-04-24T13:42:10Z</time></trkpt><trkpt lat="44.722754181563936" lon="10.178249196664522"><ele>135.0</ele><time>2026-04-24T13:42:11Z</time></trkpt><trkpt lat="44.72264799972627" lon="10.1782088206246"><ele>138.0</ele><time>2026-04-24T13:42:12Z</time></trkpt><trkpt lat="44.722546850095334" lon="10.178181229300874"><ele>141.0</ele><time>2026-04-24T13:42:13Z</time></trkpt><trkpt lat="44.72247394628029" lon="10.17817665014057"><ele>144.0</ele><time>2026-04-24T13:42:14Z</time></trkpt><trkpt lat="44.72240342511936" lon="10.178286610226507"><ele>147.0</ele><time>2026-04-24T13:42:16Z</time></trkpt><trkpt lat="44.722427842851445" lon="10.178425164214334"><ele>149.75</ele><time>2026-04-24T13:42:17Z</time></trkpt><trkpt lat="44.72249665329931" lon="10.178543259799278"><ele>152.5</ele><time>2026-04-24T13:42:18Z</time></trkpt><trkpt lat="44.722564300238965" lon="10.178673974499711"><ele>155.25</ele><time>2026-04-24T13:42:19Z</time></trkpt><trkpt lat="44.72262822157414" lon="10.178820650680375"><ele>158.0</ele><time>2026-04-24T13:42:20Z</time></trkpt><trkpt lat="44.72268675708688" lon="10.178964934823012"><ele>158.8</ele><time>2026-04-24T13:42:21Z</time></trkpt><trkpt lat="44.72274766659197" lon="10.179104416064433"><ele>159.60000000000002</ele><time>2026-04-24T13:42:22Z</time></trkpt><trkpt lat="44.72280355131754" lon="10.179238352575119"><ele>160.39999999999998</ele><time>2026-04-24T13:42:23Z</time></trkpt><trkpt lat="44.72285697099115" lon="10.179364097246053"><ele>161.2</ele><time>2026-04-24T13:42:24Z</time></trkpt><trkpt lat="44.722905230894916" lon="10.179489914975452"><ele>162.0</ele><time>2026-04-24T13:42:25Z</time></trkpt><trkpt lat="44.7229759041245" lon="10.179602969704769"><ele>162.0</ele><time>2026-04-24T13:42:26Z</time></trkpt><trkpt lat="44.72305665171914" lon="10.17972867347339"><ele>162.0</ele><time>2026-04-24T13:42:27Z</time></trkpt><trkpt lat="44.72316057847935" lon="10.179868716161831"><ele>162.0</ele><time>2026-04-24T13:42:28Z</time></trkpt><trkpt lat="44.72329599947186" lon="10.180028054697146"><ele>162.0</ele><time>2026-04-24T13:42:29Z</time></trkpt><trkpt lat="44.7234361920176" lon="10.18017762704923"><ele>162.25</ele><time>2026-04-24T13:42:30Z</time></trkpt><trkpt lat="44.72357195767443" lon="10.180310127424839"><ele>162.5</ele><time>2026-04-24T13:42:31Z</time></trkpt><trkpt lat="44.723675989075524" lon="10.18042161583431"><ele>162.75</ele><time>2026-04-24T13:42:32Z</time></trkpt><trkpt lat="44.72375862388474" lon="10.180514899708744"><ele>163.0</ele><time>2026-04-24T13:42:33Z</time></trkpt><trkpt lat="44.72381343106251" lon="10.180583748832255"><ele>163.0</ele><time>2026-04-24T13:42:34Z</time></trkpt><trkpt lat="44.723808052559704" lon="10.180711928827666"><ele>163.0</ele><time>2026-04-24T13:42:36Z</time></trkpt><trkpt lat="44.72374002443699" lon="10.180736480080736"><ele>163.0</ele><time>2026-04-24T13:42:37Z</time></trkpt><trkpt lat="44.723650560981014" lon="10.180670871878986"><ele>163.0</ele><time>2026-04-24T13:42:38Z</time></trkpt><trkpt lat="44.7235200185914" lon="10.180644318287241"><ele>163.0</ele><time>2026-04-24T13:42:39Z</time></trkpt><trkpt lat="44.723375099504466" lon="10.180594691867018"><ele>168.0</ele><time>2026-04-24T13:42:40Z</time></trkpt><trkpt lat="44.723218546061716" lon="10.18057364175981"><ele>173.0</ele><time>2026-04-24T13:42:41Z</time></trkpt><trkpt lat="44.72306891989976" lon="10.180577746205982"><ele>178.0</ele><time>2026-04-24T13:42:42Z</time></trkpt><trkpt lat="44.722915181521756" lon="10.180598417329737"><ele>178.0</ele><time>2026-04-24T13:42:43Z</time></trkpt><trkpt lat="44.722762132334" lon="10.180634314023205"><ele>178.0</ele><time>2026-04-24T13:42:44Z</time></trkpt><trkpt lat="44.72260480286378" lon="10.180641099454533"><ele>178.0</ele><time>2026-04-24T13:42:45Z</time></trkpt><trkpt lat="44.7224735884536" lon="10.180656740443466"><ele>178.0</ele><time>2026-04-24T13:42:46Z</time></trkpt><trkpt lat="44.72236578796095" lon="10.180669590452545"><ele>179.66666666666669</ele><time>2026-04-24T13:42:47Z</time></trkpt><trkpt lat="44.72226554266147" lon="10.180682370911255"><ele>181.33333333333334</ele><time>2026-04-24T13:42:48Z</time></trkpt><trkpt lat="44.722181889215214" lon="10.180717207473874"><ele>183.0</ele><time>2026-04-24T13:42:49Z</time></trkpt><trkpt lat="44.722115454148984" lon="10.180757106871893"><ele>184.66666666666666</ele><time>2026-04-24T13:42:50Z</time></trkpt><trkpt lat="44.72207303214453" lon="10.180840302532456"><ele>186.33333333333331</ele><time>2026-04-24T13:42:51Z</time></trkpt><trkpt lat="44.72205162501956" lon="10.180961876775779"><ele>188.0</ele><time>2026-04-24T13:42:52Z</time></trkpt><trkpt lat="44.722000685528684" lon="10.181074781594686"><ele>191.75</ele><time>2026-04-24T13:42:53Z</time></trkpt><trkpt lat="44.72195429473715" lon="10.181209132325101"><ele>195.5</ele><time>2026-04-24T13:42:53.999Z</time></trkpt><trkpt lat="44.72190688083055" lon="10.181348664430232"><ele>199.25</ele><time>2026-04-24T13:42:54.999Z</time></trkpt><trkpt lat="44.72185734621197" lon="10.181494786331653"><ele>203.0</ele><time>2026-04-24T13:42:55.999Z</time></trkpt><trkpt lat="44.72180526970074" lon="10.181648406543555"><ele>203.75</ele><time>2026-04-24T13:42:56.999Z</time></trkpt><trkpt lat="44.721767009961276" lon="10.181811535625537"><ele>204.5</ele><time>2026-04-24T13:42:57.999Z</time></trkpt><trkpt lat="44.721709371520156" lon="10.181985165712273"><ele>205.25</ele><time>2026-04-24T13:42:58.999Z</time></trkpt><trkpt lat="44.72165305578438" lon="10.182160778286258"><ele>206.0</ele><time>2026-04-24T13:42:59.999Z</time></trkpt><trkpt lat="44.721593558421375" lon="10.182336661688595"><ele>205.0</ele><time>2026-04-24T13:43:00.999Z</time></trkpt><trkpt lat="44.721533490798954" lon="10.182513973008097"><ele>204.0</ele><time>2026-04-24T13:43:01.999Z</time></trkpt><trkpt lat="44.72147301951725" lon="10.182690826691415"><ele>203.0</ele><time>2026-04-24T13:43:02.999Z</time></trkpt><trkpt lat="44.72141169447333" lon="10.182868365839795"><ele>202.0</ele><time>2026-04-24T13:43:03.999Z</time></trkpt><trkpt lat="44.721348362362846" lon="10.183053587563903"><ele>200.5</ele><time>2026-04-24T13:43:04.999Z</time></trkpt><trkpt lat="44.72128506187273" lon="10.183238752238422"><ele>199.0</ele><time>2026-04-24T13:43:05.999Z</time></trkpt><trkpt lat="44.72122054398185" lon="10.183423575062283"><ele>197.5</ele><time>2026-04-24T13:43:06.999Z</time></trkpt><trkpt lat="44.72115982600378" lon="10.183605867352592"><ele>196.0</ele><time>2026-04-24T13:43:07.999Z</time></trkpt><trkpt lat="44.72110391005929" lon="10.183788488259326"><ele>199.75</ele><time>2026-04-24T13:43:08.999Z</time></trkpt><trkpt lat="44.7210458561855" lon="10.183964375334654"><ele>203.5</ele><time>2026-04-24T13:43:09.999Z</time></trkpt><trkpt lat="44.72098682352567" lon="10.184132886397444"><ele>207.25</ele><time>2026-04-24T13:43:10.999Z</time></trkpt><trkpt lat="44.72093297530657" lon="10.184293635810798"><ele>211.0</ele><time>2026-04-24T13:43:11.999Z</time></trkpt><trkpt lat="44.72088047012" lon="10.184451281050123"><ele>211.0</ele><time>2026-04-24T13:43:12.999Z</time></trkpt><trkpt lat="44.72082919642546" lon="10.184605800091495"><ele>211.0</ele><time>2026-04-24T13:43:13.999Z</time></trkpt><trkpt lat="44.720779884928334" lon="10.184745713610251"><ele>211.0</ele><time>2026-04-24T13:43:14.999Z</time></trkpt><trkpt lat="44.72073773247641" lon="10.18487799783872"><ele>211.0</ele><time>2026-04-24T13:43:15.999Z</time></trkpt><trkpt lat="44.72070383451448" lon="10.184976834938421"><ele>211.0</ele><time>2026-04-24T13:43:16.999Z</time></trkpt><trkpt lat="44.72066029836302" lon="10.185068730615981"><ele>211.0</ele><time>2026-04-24T13:43:18.999Z</time></trkpt><trkpt lat="44.72061243843684" lon="10.18512722593122"><ele>211.0</ele><time>2026-04-24T13:43:33.999Z</time></trkpt><trkpt lat="44.720735405521395" lon="10.185302839422295"><ele>211.0</ele><time>2026-04-24T13:43:34.999Z</time></trkpt><trkpt lat="44.720786070784186" lon="10.185440191923808"><ele>211.0</ele><time>2026-04-24T13:43:35.999Z</time></trkpt><trkpt lat="44.72084426045015" lon="10.185569069197241"><ele>211.0</ele><time>2026-04-24T13:43:36.999Z</time></trkpt><trkpt lat="44.72091809950814" lon="10.185693504182176"><ele>211.0</ele><time>2026-04-24T13:43:37.999Z</time></trkpt><trkpt lat="44.72097766574879" lon="10.185837886241746"><ele>211.0</ele><time>2026-04-24T13:43:38.999Z</time></trkpt><trkpt lat="44.721040446487706" lon="10.185978898538764"><ele>211.0</ele><time>2026-04-24T13:43:39.999Z</time></trkpt><trkpt lat="44.72108039276812" lon="10.186141451760065"><ele>208.75</ele><time>2026-04-24T13:43:40.999Z</time></trkpt><trkpt lat="44.721129795532484" lon="10.186293116808983"><ele>206.5</ele><time>2026-04-24T13:43:41.999Z</time></trkpt><trkpt lat="44.72119220359251" lon="10.186434725518547"><ele>204.25</ele><time>2026-04-24T13:43:42.999Z</time></trkpt><trkpt lat="44.72123859368949" lon="10.186591437744614"><ele>202.0</ele><time>2026-04-24T13:43:43.999Z</time></trkpt><trkpt lat="44.7213006188292" lon="10.186746244692262"><ele>202.0</ele><time>2026-04-24T13:43:44.999Z</time></trkpt><trkpt lat="44.721355396642096" lon="10.18689030412443"><ele>202.0</ele><time>2026-04-24T13:43:45.999Z</time></trkpt><trkpt lat="44.72141372429296" lon="10.187040354411574"><ele>202.0</ele><time>2026-04-24T13:43:46.999Z</time></trkpt><trkpt lat="44.72146648614373" lon="10.187191296987598"><ele>202.0</ele><time>2026-04-24T13:43:47.999Z</time></trkpt><trkpt lat="44.72152357837104" lon="10.187338997668961"><ele>201.5</ele><time>2026-04-24T13:43:48.999Z</time></trkpt><trkpt lat="44.72158117122216" lon="10.187485094616717"><ele>201.0</ele><time>2026-04-24T13:43:49.999Z</time></trkpt><trkpt lat="44.721637825766216" lon="10.187631717096663"><ele>200.5</ele><time>2026-04-24T13:43:50.998Z</time></trkpt><trkpt lat="44.721692187233984" lon="10.187772739207992"><ele>200.0</ele><time>2026-04-24T13:43:51.998Z</time></trkpt><trkpt lat="44.72174898964455" lon="10.187910586208687"><ele>200.0</ele><time>2026-04-24T13:43:52.998Z</time></trkpt><trkpt lat="44.72180665609129" lon="10.188041810182769"><ele>200.0</ele><time>2026-04-24T13:43:53.998Z</time></trkpt><trkpt lat="44.721863870485286" lon="10.18817208942323"><ele>200.0</ele><time>2026-04-24T13:43:54.998Z</time></trkpt><trkpt lat="44.72191805342595" lon="10.188301874309353"><ele>200.0</ele><time>2026-04-24T13:43:55.998Z</time></trkpt><trkpt lat="44.72197338204956" lon="10.188428139384055"><ele>200.0</ele><time>2026-04-24T13:43:56.998Z</time></trkpt><trkpt lat="44.72202896222421" lon="10.188553299507872"><ele>197.4</ele><time>2026-04-24T13:43:57.998Z</time></trkpt><trkpt lat="44.7220824692275" lon="10.188680929595716"><ele>194.8</ele><time>2026-04-24T13:43:58.998Z</time></trkpt><trkpt lat="44.72213951662054" lon="10.188803154870762"><ele>192.2</ele><time>2026-04-24T13:43:59.998Z</time></trkpt><trkpt lat="44.722193803685386" lon="10.188927386484641"><ele>189.6</ele><time>2026-04-24T13:44:00.998Z</time></trkpt><trkpt lat="44.72224705826884" lon="10.189048640557447"><ele>187.0</ele><time>2026-04-24T13:44:01.998Z</time></trkpt><trkpt lat="44.722300631457" lon="10.189157927706145"><ele>186.6</ele><time>2026-04-24T13:44:02.998Z</time></trkpt><trkpt lat="44.72234526013213" lon="10.189233750384053"><ele>186.2</ele><time>2026-04-24T13:44:03.998Z</time></trkpt><trkpt lat="44.72242540900949" lon="10.189405229914762"><ele>185.8</ele><time>2026-04-24T13:44:05.998Z</time></trkpt><trkpt lat="44.72232379053285" lon="10.189471534817235"><ele>185.4</ele><time>2026-04-24T13:44:07.998Z</time></trkpt><trkpt lat="44.72226724694775" lon="10.189554667638943"><ele>185.0</ele><time>2026-04-24T13:44:08.998Z</time></trkpt><trkpt lat="44.722198833272216" lon="10.18965525234165"><ele>185.0</ele><time>2026-04-24T13:44:09.998Z</time></trkpt><trkpt lat="44.72212446376089" lon="10.189764593570787"><ele>185.0</ele><time>2026-04-24T13:44:10.998Z</time></trkpt><trkpt lat="44.722045016276546" lon="10.189880900804527"><ele>185.0</ele><time>2026-04-24T13:44:12Z</time></trkpt><trkpt lat="44.72196386796445" lon="10.189984529922032"><ele>185.0</ele><time>2026-04-24T13:44:13Z</time></trkpt><trkpt lat="44.72187081865239" lon="10.190054851666405"><ele>185.0</ele><time>2026-04-24T13:44:14Z</time></trkpt><trkpt lat="44.72177594233768" lon="10.190095783998444"><ele>184.6</ele><time>2026-04-24T13:44:15Z</time></trkpt><trkpt lat="44.72168391820687" lon="10.190141377565832"><ele>184.2</ele><time>2026-04-24T13:44:16Z</time></trkpt><trkpt lat="44.7215961986976" lon="10.190170668524521"><ele>183.8</ele><time>2026-04-24T13:44:17Z</time></trkpt><trkpt lat="44.72150096194447" lon="10.190177974844774"><ele>183.4</ele><time>2026-04-24T13:44:18Z</time></trkpt><trkpt lat="44.721415084827576" lon="10.190148584067906"><ele>183.0</ele><time>2026-04-24T13:44:19Z</time></trkpt><trkpt lat="44.721331121976775" lon="10.190111285434158"><ele>183.0</ele><time>2026-04-24T13:44:20Z</time></trkpt><trkpt lat="44.72123280041293" lon="10.190080122758047"><ele>183.0</ele><time>2026-04-24T13:44:21Z</time></trkpt><trkpt lat="44.72113063780266" lon="10.19005462018567"><ele>183.0</ele><time>2026-04-24T13:44:22Z</time></trkpt><trkpt lat="44.72102951282112" lon="10.190029378130665"><ele>183.0</ele><time>2026-04-24T13:44:23Z</time></trkpt><trkpt lat="44.72093364104704" lon="10.190000777708944"><ele>183.0</ele><time>2026-04-24T13:44:24Z</time></trkpt><trkpt lat="44.720851887426335" lon="10.18995983415091"><ele>183.4</ele><time>2026-04-24T13:44:25Z</time></trkpt><trkpt lat="44.72079196368212" lon="10.18988354966896"><ele>183.8</ele><time>2026-04-24T13:44:26Z</time></trkpt><trkpt lat="44.720734569885806" lon="10.189783329528986"><ele>184.2</ele><time>2026-04-24T13:44:27Z</time></trkpt><trkpt lat="44.7206651560963" lon="10.189658612300368"><ele>184.6</ele><time>2026-04-24T13:44:28Z</time></trkpt><trkpt lat="44.72058561115785" lon="10.189512908218358"><ele>185.0</ele><time>2026-04-24T13:44:29Z</time></trkpt><trkpt lat="44.72050203265389" lon="10.189359768199589"><ele>185.0</ele><time>2026-04-24T13:44:30Z</time></trkpt><trkpt lat="44.72042539108083" lon="10.18921196665559"><ele>185.0</ele><time>2026-04-24T13:44:31Z</time></trkpt><trkpt lat="44.720348882722845" lon="10.189055930828351"><ele>185.0</ele><time>2026-04-24T13:44:32Z</time></trkpt><trkpt lat="44.7202624725391" lon="10.188897536276885"><ele>185.0</ele><time>2026-04-24T13:44:33Z</time></trkpt><trkpt lat="44.72017106183734" lon="10.188745893835375"><ele>180.75</ele><time>2026-04-24T13:44:34Z</time></trkpt><trkpt lat="44.72006090507639" lon="10.188612331311285"><ele>176.5</ele><time>2026-04-24T13:44:35Z</time></trkpt><trkpt lat="44.719959446459015" lon="10.188472789875986"><ele>172.25</ele><time>2026-04-24T13:44:36Z</time></trkpt><trkpt lat="44.71986637563511" lon="10.18834075657388"><ele>168.0</ele><time>2026-04-24T13:44:37Z</time></trkpt><trkpt lat="44.719785493969674" lon="10.188238900082865"><ele>168.0</ele><time>2026-04-24T13:44:38Z</time></trkpt><trkpt lat="44.71972257374424" lon="10.188158125714969"><ele>168.0</ele><time>2026-04-24T13:44:39Z</time></trkpt><trkpt lat="44.71966746320069" lon="10.18809670469723"><ele>168.0</ele><time>2026-04-24T13:44:40Z</time></trkpt><trkpt lat="44.71958285173406" lon="10.188084157099027"><ele>168.0</ele><time>2026-04-24T13:44:41Z</time></trkpt><trkpt lat="44.71949900066696" lon="10.188151206969842"><ele>168.0</ele><time>2026-04-24T13:44:42Z</time></trkpt><trkpt lat="44.719420533447064" lon="10.188292786828013"><ele>162.25</ele><time>2026-04-24T13:44:43Z</time></trkpt><trkpt lat="44.719312696936036" lon="10.188449364367083"><ele>156.5</ele><time>2026-04-24T13:44:44Z</time></trkpt><trkpt lat="44.71922477670063" lon="10.18856267289215"><ele>150.75</ele><time>2026-04-24T13:44:45Z</time></trkpt><trkpt lat="44.71913806865602" lon="10.188671323427288"><ele>145.0</ele><time>2026-04-24T13:44:46Z</time></trkpt><trkpt lat="44.71905333328757" lon="10.188774213944688"><ele>145.0</ele><time>2026-04-24T13:44:47Z</time></trkpt><trkpt lat="44.71897765526862" lon="10.18886610651534"><ele>145.0</ele><time>2026-04-24T13:44:48Z</time></trkpt><trkpt lat="44.71891397500503" lon="10.188943664143798"><ele>145.0</ele><time>2026-04-24T13:44:49Z</time></trkpt><trkpt lat="44.718859372060884" lon="10.189010758173398"><ele>145.0</ele><time>2026-04-24T13:44:50Z</time></trkpt><trkpt lat="44.71881023685839" lon="10.189071133650037"><ele>145.0</ele><time>2026-04-24T13:44:51Z</time></trkpt><trkpt lat="44.718734952089605" lon="10.189181350125866"><ele>145.0</ele><time>2026-04-24T13:44:53Z</time></trkpt><trkpt lat="44.71867282686356" lon="10.189257380784149"><ele>144.0</ele><time>2026-04-24T13:44:56Z</time></trkpt><trkpt lat="44.71861571601516" lon="10.189321112359043"><ele>143.0</ele><time>2026-04-24T13:44:59Z</time></trkpt><trkpt lat="44.71867496917878" lon="10.189451798600182"><ele>142.0</ele><time>2026-04-24T13:45:00.999Z</time></trkpt><trkpt lat="44.71876958686207" lon="10.189538381288116"><ele>141.0</ele><time>2026-04-24T13:45:01.999Z</time></trkpt><trkpt lat="44.71887150484412" lon="10.18964068620484"><ele>140.0</ele><time>2026-04-24T13:45:02.999Z</time></trkpt><trkpt lat="44.71896013024219" lon="10.189758921489322"><ele>139.25</ele><time>2026-04-24T13:45:03.999Z</time></trkpt><trkpt lat="44.719045821824835" lon="10.18990251913925"><ele>138.5</ele><time>2026-04-24T13:45:04.999Z</time></trkpt><trkpt lat="44.71913953873582" lon="10.190053842910165"><ele>137.75</ele><time>2026-04-24T13:45:05.999Z</time></trkpt><trkpt lat="44.719223453069276" lon="10.190228114755074"><ele>137.0</ele><time>2026-04-24T13:45:06.999Z</time></trkpt><trkpt lat="44.71930864315025" lon="10.190410171911914"><ele>138.0</ele><time>2026-04-24T13:45:07.999Z</time></trkpt><trkpt lat="44.719410097786415" lon="10.1905823219597"><ele>139.0</ele><time>2026-04-24T13:45:08.999Z</time></trkpt><trkpt lat="44.71952487089675" lon="10.19075753724219"><ele>140.0</ele><time>2026-04-24T13:45:09.999Z</time></trkpt><trkpt lat="44.719638294364735" lon="10.1909308090827"><ele>140.0</ele><time>2026-04-24T13:45:10.999Z</time></trkpt><trkpt lat="44.71973996632954" lon="10.191095101637151"><ele>140.0</ele><time>2026-04-24T13:45:11.999Z</time></trkpt><trkpt lat="44.71982860896806" lon="10.1912393864044"><ele>140.0</ele><time>2026-04-24T13:45:12.999Z</time></trkpt><trkpt lat="44.71990863191748" lon="10.191367430701298"><ele>140.0</ele><time>2026-04-24T13:45:13.999Z</time></trkpt><trkpt lat="44.71998355515418" lon="10.191491034497417"><ele>140.4</ele><time>2026-04-24T13:45:14.999Z</time></trkpt><trkpt lat="44.720056087934104" lon="10.191603613822478"><ele>140.8</ele><time>2026-04-24T13:45:15.999Z</time></trkpt><trkpt lat="44.72012400128822" lon="10.191713635920918"><ele>141.2</ele><time>2026-04-24T13:45:16.999Z</time></trkpt><trkpt lat="44.720194681993064" lon="10.19181062306801"><ele>141.6</ele><time>2026-04-24T13:45:17.999Z</time></trkpt><trkpt lat="44.72026667658204" lon="10.19188596754536"><ele>142.0</ele><time>2026-04-24T13:45:18.999Z</time></trkpt><trkpt lat="44.720331143622516" lon="10.191946306291312"><ele>142.0</ele><time>2026-04-24T13:45:19.999Z</time></trkpt><trkpt lat="44.720378088452556" lon="10.192019960568887"><ele>142.0</ele><time>2026-04-24T13:45:21.999Z</time></trkpt><trkpt lat="44.720265092500405" lon="10.192181555726219"><ele>142.0</ele><time>2026-04-24T13:45:22.999Z</time></trkpt><trkpt lat="44.72021395664059" lon="10.192325945718139"><ele>142.0</ele><time>2026-04-24T13:45:23.999Z</time></trkpt><trkpt lat="44.72016643852255" lon="10.192482071018084"><ele>141.5</ele><time>2026-04-24T13:45:24.999Z</time></trkpt><trkpt lat="44.7201628255598" lon="10.192660899470583"><ele>141.0</ele><time>2026-04-24T13:45:25.999Z</time></trkpt><trkpt lat="44.72017396752464" lon="10.19285459128801"><ele>140.5</ele><time>2026-04-24T13:45:26.999Z</time></trkpt><trkpt lat="44.720179419103175" lon="10.193057602664156"><ele>140.0</ele><time>2026-04-24T13:45:27.999Z</time></trkpt><trkpt lat="44.720180577872945" lon="10.193265740616521"><ele>140.0</ele><time>2026-04-24T13:45:28.999Z</time></trkpt><trkpt lat="44.72018379748646" lon="10.19346930439804"><ele>140.0</ele><time>2026-04-24T13:45:29.999Z</time></trkpt><trkpt lat="44.72019266874818" lon="10.193669205683772"><ele>140.0</ele><time>2026-04-24T13:45:30.999Z</time></trkpt><trkpt lat="44.720190171686404" lon="10.193858301706522"><ele>140.0</ele><time>2026-04-24T13:45:31.999Z</time></trkpt><trkpt lat="44.72020099708751" lon="10.194036923886893"><ele>141.25</ele><time>2026-04-24T13:45:32.999Z</time></trkpt><trkpt lat="44.72020388268639" lon="10.194197830832945"><ele>142.5</ele><time>2026-04-24T13:45:33.999Z</time></trkpt><trkpt lat="44.72019978640624" lon="10.194362022604187"><ele>143.75</ele><time>2026-04-24T13:45:34.999Z</time></trkpt><trkpt lat="44.72019377006338" lon="10.194532017989518"><ele>145.0</ele><time>2026-04-24T13:45:35.999Z</time></trkpt><trkpt lat="44.72016753016868" lon="10.194720053562554"><ele>147.33333333333334</ele><time>2026-04-24T13:45:36.999Z</time></trkpt><trkpt lat="44.72012634400531" lon="10.194921177064625"><ele>149.66666666666666</ele><time>2026-04-24T13:45:37.999Z</time></trkpt><trkpt lat="44.72008393935617" lon="10.195140919200803"><ele>152.0</ele><time>2026-04-24T13:45:38.999Z</time></trkpt><trkpt lat="44.720046012169796" lon="10.19535884335695"><ele>152.0</ele><time>2026-04-24T13:45:39.999Z</time></trkpt><trkpt lat="44.720011621713404" lon="10.195559010536114"><ele>152.0</ele><time>2026-04-24T13:45:40.999Z</time></trkpt><trkpt lat="44.71998672693912" lon="10.195734546343749"><ele>152.0</ele><time>2026-04-24T13:45:41.999Z</time></trkpt><trkpt lat="44.71995859979368" lon="10.195878621937933"><ele>152.0</ele><time>2026-04-24T13:45:42.999Z</time></trkpt><trkpt lat="44.71994990917068" lon="10.196005833269796"><ele>152.0</ele><time>2026-04-24T13:45:43.999Z</time></trkpt><trkpt lat="44.719973515841204" lon="10.196119757012303"><ele>152.0</ele><time>2026-04-24T13:45:44.999Z</time></trkpt><trkpt lat="44.72004322963785" lon="10.196217298488278"><ele>152.0</ele><time>2026-04-24T13:45:45.999Z</time></trkpt><trkpt lat="44.720148150068255" lon="10.196307763843873"><ele>152.0</ele><time>2026-04-24T13:45:46.999Z</time></trkpt><trkpt lat="44.720259880675464" lon="10.19639505225447"><ele>152.0</ele><time>2026-04-24T13:45:47.999Z</time></trkpt><trkpt lat="44.720382285988606" lon="10.196482523555593"><ele>156.5</ele><time>2026-04-24T13:45:48.999Z</time></trkpt><trkpt lat="44.720510997519135" lon="10.196567867385015"><ele>161.0</ele><time>2026-04-24T13:45:49.999Z</time></trkpt><trkpt lat="44.72061990305475" lon="10.196645168146654"><ele>165.5</ele><time>2026-04-24T13:45:50.999Z</time></trkpt><trkpt lat="44.72069673069427" lon="10.196727337466486"><ele>170.0</ele><time>2026-04-24T13:45:51.999Z</time></trkpt><trkpt lat="44.720760334517145" lon="10.196840847778669"><ele>170.0</ele><time>2026-04-24T13:45:52.999Z</time></trkpt><trkpt lat="44.72080582851607" lon="10.19699466683411"><ele>170.0</ele><time>2026-04-24T13:45:53.999Z</time></trkpt><trkpt lat="44.72083502169841" lon="10.197151198816927"><ele>170.0</ele><time>2026-04-24T13:45:54.998Z</time></trkpt><trkpt lat="44.72084223640456" lon="10.197302825424746"><ele>170.0</ele><time>2026-04-24T13:45:55.998Z</time></trkpt><trkpt lat="44.72082018981157" lon="10.197456907123026"><ele>173.4</ele><time>2026-04-24T13:45:56.998Z</time></trkpt><trkpt lat="44.720793297932744" lon="10.197623432446811"><ele>176.8</ele><time>2026-04-24T13:45:57.998Z</time></trkpt><trkpt lat="44.720772325857865" lon="10.197780161168872"><ele>180.2</ele><time>2026-04-24T13:45:58.998Z</time></trkpt><trkpt lat="44.72077977560872" lon="10.197921421727067"><ele>183.6</ele><time>2026-04-24T13:45:59.998Z</time></trkpt><trkpt lat="44.720828330971244" lon="10.198037291888953"><ele>187.0</ele><time>2026-04-24T13:46:00.998Z</time></trkpt><trkpt lat="44.72090417916208" lon="10.198121411166182"><ele>187.0</ele><time>2026-04-24T13:46:01.998Z</time></trkpt><trkpt lat="44.721006886309866" lon="10.19815675273653"><ele>187.0</ele><time>2026-04-24T13:46:02.998Z</time></trkpt><trkpt lat="44.72113914089031" lon="10.198188983497175"><ele>187.0</ele><time>2026-04-24T13:46:03.998Z</time></trkpt><trkpt lat="44.72126339384545" lon="10.198222769634468"><ele>187.0</ele><time>2026-04-24T13:46:04.998Z</time></trkpt><trkpt lat="44.72137300940559" lon="10.198318782371876"><ele>186.2</ele><time>2026-04-24T13:46:05.998Z</time></trkpt><trkpt lat="44.72144550741147" lon="10.198448243996891"><ele>185.39999999999998</ele><time>2026-04-24T13:46:06.998Z</time></trkpt><trkpt lat="44.72148847474199" lon="10.19858716989294"><ele>184.60000000000002</ele><time>2026-04-24T13:46:07.998Z</time></trkpt><trkpt lat="44.721472387432506" lon="10.198726414128384"><ele>183.8</ele><time>2026-04-24T13:46:08.998Z</time></trkpt><trkpt lat="44.72141116505764" lon="10.19884837493071"><ele>183.0</ele><time>2026-04-24T13:46:09.998Z</time></trkpt><trkpt lat="44.72131784327275" lon="10.198983304740784"><ele>185.0</ele><time>2026-04-24T13:46:10.998Z</time></trkpt><trkpt lat="44.72122822985221" lon="10.199115740175332"><ele>187.0</ele><time>2026-04-24T13:46:11.998Z</time></trkpt><trkpt lat="44.72118134408245" lon="10.199245150190361"><ele>189.0</ele><time>2026-04-24T13:46:12.998Z</time></trkpt><trkpt lat="44.721159639031725" lon="10.199387176189397"><ele>191.0</ele><time>2026-04-24T13:46:13.998Z</time></trkpt><trkpt lat="44.721159028700804" lon="10.19955369846566"><ele>191.0</ele><time>2026-04-24T13:46:14.998Z</time></trkpt><trkpt lat="44.72118217084661" lon="10.199695145187013"><ele>191.0</ele><time>2026-04-24T13:46:15.998Z</time></trkpt><trkpt lat="44.721243363754084" lon="10.199808319646717"><ele>191.0</ele><time>2026-04-24T13:46:17Z</time></trkpt><trkpt lat="44.721337692404425" lon="10.199863524974335"><ele>191.0</ele><time>2026-04-24T13:46:18Z</time></trkpt><trkpt lat="44.72147343402132" lon="10.199888056155473"><ele>191.0</ele><time>2026-04-24T13:46:19Z</time></trkpt><trkpt lat="44.721624028563255" lon="10.199889435466774"><ele>190.5</ele><time>2026-04-24T13:46:20Z</time></trkpt><trkpt lat="44.72174961591509" lon="10.19987863096162"><ele>190.0</ele><time>2026-04-24T13:46:21Z</time></trkpt><trkpt lat="44.721884289930934" lon="10.199833559762256"><ele>189.5</ele><time>2026-04-24T13:46:22Z</time></trkpt><trkpt lat="44.722013604689536" lon="10.199762457675085"><ele>189.0</ele><time>2026-04-24T13:46:23Z</time></trkpt><trkpt lat="44.72214757524697" lon="10.19970184914013"><ele>189.0</ele><time>2026-04-24T13:46:24Z</time></trkpt><trkpt lat="44.72229138635501" lon="10.199666020506584"><ele>189.0</ele><time>2026-04-24T13:46:25Z</time></trkpt><trkpt lat="44.72242924852352" lon="10.19964947476146"><ele>189.0</ele><time>2026-04-24T13:46:26Z</time></trkpt><trkpt lat="44.722557119093054" lon="10.199658690091619"><ele>189.0</ele><time>2026-04-24T13:46:27Z</time></trkpt><trkpt lat="44.7226749090165" lon="10.199694530163619"><ele>189.25</ele><time>2026-04-24T13:46:28Z</time></trkpt><trkpt lat="44.72277258652677" lon="10.19975744549072"><ele>189.5</ele><time>2026-04-24T13:46:29Z</time></trkpt><trkpt lat="44.722870565258106" lon="10.199895063172095"><ele>189.75</ele><time>2026-04-24T13:46:30Z</time></trkpt><trkpt lat="44.722973468264826" lon="10.200057384208025"><ele>190.0</ele><time>2026-04-24T13:46:31Z</time></trkpt><trkpt lat="44.72308438803113" lon="10.200207362286807"><ele>191.25</ele><time>2026-04-24T13:46:32Z</time></trkpt><trkpt lat="44.723207374074114" lon="10.20032296496071"><ele>192.5</ele><time>2026-04-24T13:46:33Z</time></trkpt><trkpt lat="44.7233343323189" lon="10.200383163491395"><ele>193.75</ele><time>2026-04-24T13:46:34Z</time></trkpt><trkpt lat="44.72346562639766" lon="10.20043556145687"><ele>195.0</ele><time>2026-04-24T13:46:35Z</time></trkpt><trkpt lat="44.72358678240919" lon="10.20050169854297"><ele>195.0</ele><time>2026-04-24T13:46:36Z</time></trkpt><trkpt lat="44.723709385666005" lon="10.20057380122728"><ele>195.0</ele><time>2026-04-24T13:46:37Z</time></trkpt><trkpt lat="44.72381151304798" lon="10.200675915621721"><ele>195.0</ele><time>2026-04-24T13:46:38Z</time></trkpt><trkpt lat="44.723869883904264" lon="10.200818642765794"><ele>195.0</ele><time>2026-04-24T13:46:39Z</time></trkpt><trkpt lat="44.723885152362826" lon="10.20099413634737"><ele>195.5</ele><time>2026-04-24T13:46:40Z</time></trkpt><trkpt lat="44.723876663413044" lon="10.201167934338908"><ele>196.0</ele><time>2026-04-24T13:46:41Z</time></trkpt><trkpt lat="44.72386673533458" lon="10.201321694227756"><ele>196.5</ele><time>2026-04-24T13:46:42Z</time></trkpt><trkpt lat="44.723845604490066" lon="10.20147259419879"><ele>197.0</ele><time>2026-04-24T13:46:43Z</time></trkpt><trkpt lat="44.72379297308806" lon="10.201619408834606"><ele>197.0</ele><time>2026-04-24T13:46:44Z</time></trkpt><trkpt lat="44.723724229143926" lon="10.201765575241325"><ele>197.0</ele><time>2026-04-24T13:46:45Z</time></trkpt><trkpt lat="44.72365288639174" lon="10.201904564748205"><ele>197.0</ele><time>2026-04-24T13:46:46Z</time></trkpt><trkpt lat="44.72358661378385" lon="10.202010096740036"><ele>197.0</ele><time>2026-04-24T13:46:47Z</time></trkpt><trkpt lat="44.72351528847354" lon="10.202059389342452"><ele>197.0</ele><time>2026-04-24T13:46:48Z</time></trkpt><trkpt lat="44.723427765157936" lon="10.202068929663778"><ele>197.66666666666669</ele><time>2026-04-24T13:46:49Z</time></trkpt><trkpt lat="44.72334058567519" lon="10.20205839016888"><ele>198.33333333333334</ele><time>2026-04-24T13:46:50Z</time></trkpt><trkpt lat="44.72327288699943" lon="10.202056801829512"><ele>199.0</ele><time>2026-04-24T13:46:51Z</time></trkpt><trkpt lat="44.72319169343643" lon="10.20208398583265"><ele>199.66666666666669</ele><time>2026-04-24T13:46:53Z</time></trkpt><trkpt lat="44.723121376864384" lon="10.202114112074213"><ele>200.33333333333334</ele><time>2026-04-24T13:46:55Z</time></trkpt><trkpt lat="44.72305631657516" lon="10.202122032371655"><ele>201.0</ele><time>2026-04-24T13:46:58Z</time></trkpt><trkpt lat="44.722948226795324" lon="10.202216524632123"><ele>201.0</ele><time>2026-04-24T13:47:01.999Z</time></trkpt><trkpt lat="44.72287554890917" lon="10.202265752395649"><ele>201.0</ele><time>2026-04-24T13:47:02.999Z</time></trkpt><trkpt lat="44.722794823387154" lon="10.202339329793375"><ele>201.0</ele><time>2026-04-24T13:47:03.999Z</time></trkpt><trkpt lat="44.72270462754661" lon="10.202408063825569"><ele>201.0</ele><time>2026-04-24T13:47:04.999Z</time></trkpt><trkpt lat="44.72260370215595" lon="10.20248621602615"><ele>201.0</ele><time>2026-04-24T13:47:05.999Z</time></trkpt><trkpt lat="44.72250099879412" lon="10.202594837331759"><ele>200.0</ele><time>2026-04-24T13:47:06.999Z</time></trkpt><trkpt lat="44.722403312417086" lon="10.202720746118693"><ele>199.0</ele><time>2026-04-24T13:47:07.999Z</time></trkpt><trkpt lat="44.72230590177138" lon="10.202873781462156"><ele>198.0</ele><time>2026-04-24T13:47:08.999Z</time></trkpt><trkpt lat="44.722213219331685" lon="10.203043576111329"><ele>197.0</ele><time>2026-04-24T13:47:09.999Z</time></trkpt><trkpt lat="44.72212676076055" lon="10.203219624687245"><ele>196.75</ele><time>2026-04-24T13:47:10.999Z</time></trkpt><trkpt lat="44.72203499448386" lon="10.203403300775424"><ele>196.5</ele><time>2026-04-24T13:47:11.999Z</time></trkpt><trkpt lat="44.72194697829888" lon="10.20357358277078"><ele>196.25</ele><time>2026-04-24T13:47:12.999Z</time></trkpt><trkpt lat="44.7218662522374" lon="10.203727069300152"><ele>196.0</ele><time>2026-04-24T13:47:13.999Z</time></trkpt><trkpt lat="44.72178456982082" lon="10.203859415515003"><ele>196.0</ele><time>2026-04-24T13:47:14.999Z</time></trkpt><trkpt lat="44.72169278400515" lon="10.203964306411335"><ele>196.0</ele><time>2026-04-24T13:47:15.999Z</time></trkpt><trkpt lat="44.721582770472956" lon="10.204060392657246"><ele>196.0</ele><time>2026-04-24T13:47:16.999Z</time></trkpt><trkpt lat="44.721457083360484" lon="10.204153416038148"><ele>196.0</ele><time>2026-04-24T13:47:17.999Z</time></trkpt><trkpt lat="44.72132986828939" lon="10.204242813385559"><ele>195.75</ele><time>2026-04-24T13:47:18.999Z</time></trkpt><trkpt lat="44.7211963822119" lon="10.204348917682475"><ele>195.5</ele><time>2026-04-24T13:47:19.999Z</time></trkpt><trkpt lat="44.72107195354348" lon="10.204451780610551"><ele>195.25</ele><time>2026-04-24T13:47:20.999Z</time></trkpt><trkpt lat="44.720966055132706" lon="10.204551744653884"><ele>195.0</ele><time>2026-04-24T13:47:21.999Z</time></trkpt><trkpt lat="44.72087377404503" lon="10.204672672467133"><ele>195.0</ele><time>2026-04-24T13:47:22.999Z</time></trkpt><trkpt lat="44.72078930669281" lon="10.204812081579206"><ele>195.0</ele><time>2026-04-24T13:47:23.999Z</time></trkpt><trkpt lat="44.72070377682644" lon="10.204962242161702"><ele>195.0</ele><time>2026-04-24T13:47:24.999Z</time></trkpt><trkpt lat="44.72061645964339" lon="10.205106035459247"><ele>195.0</ele><time>2026-04-24T13:47:25.999Z</time></trkpt><trkpt lat="44.72053047908163" lon="10.205256056601971"><ele>191.25</ele><time>2026-04-24T13:47:26.999Z</time></trkpt><trkpt lat="44.720450998420176" lon="10.205412197038818"><ele>187.5</ele><time>2026-04-24T13:47:27.999Z</time></trkpt><trkpt lat="44.72037693056937" lon="10.205576146188793"><ele>183.75</ele><time>2026-04-24T13:47:28.999Z</time></trkpt><trkpt lat="44.720306821263186" lon="10.205742791603118"><ele>180.0</ele><time>2026-04-24T13:47:29.999Z</time></trkpt><trkpt lat="44.72025837144683" lon="10.205895521420326"><ele>179.8</ele><time>2026-04-24T13:47:30.999Z</time></trkpt><trkpt lat="44.72024553383651" lon="10.206037387835941"><ele>179.6</ele><time>2026-04-24T13:47:31.999Z</time></trkpt><trkpt lat="44.72027258869418" lon="10.206165451914249"><ele>179.39999999999998</ele><time>2026-04-24T13:47:32.999Z</time></trkpt><trkpt lat="44.72033495064419" lon="10.206282046471442"><ele>179.2</ele><time>2026-04-24T13:47:33.999Z</time></trkpt><trkpt lat="44.720404915066524" lon="10.206379412007584"><ele>179.0</ele><time>2026-04-24T13:47:34.999Z</time></trkpt><trkpt lat="44.72049234339149" lon="10.206465140567659"><ele>182.2</ele><time>2026-04-24T13:47:35.999Z</time></trkpt><trkpt lat="44.72055701651867" lon="10.206513859780229"><ele>185.39999999999998</ele><time>2026-04-24T13:47:36.999Z</time></trkpt><trkpt lat="44.720551590486735" lon="10.206669382594113"><ele>188.6</ele><time>2026-04-24T13:47:38.999Z</time></trkpt><trkpt lat="44.720467733210945" lon="10.206698666204192"><ele>191.8</ele><time>2026-04-24T13:47:39.999Z</time></trkpt><trkpt lat="44.72036633165011" lon="10.206713859961368"><ele>195.0</ele><time>2026-04-24T13:47:40.999Z</time></trkpt><trkpt lat="44.7202504826995" lon="10.206784432475004"><ele>196.25</ele><time>2026-04-24T13:47:41.999Z</time></trkpt><trkpt lat="44.72013551204884" lon="10.206871340313151"><ele>197.5</ele><time>2026-04-24T13:47:42.999Z</time></trkpt><trkpt lat="44.72004307083111" lon="10.206976092155069"><ele>198.75</ele><time>2026-04-24T13:47:43.999Z</time></trkpt><trkpt lat="44.71992216959826" lon="10.20705149758509"><ele>200.0</ele><time>2026-04-24T13:47:44.999Z</time></trkpt><trkpt lat="44.71977823683935" lon="10.207052946047156"><ele>200.0</ele><time>2026-04-24T13:47:45.999Z</time></trkpt><trkpt lat="44.71963120937734" lon="10.207029510134502"><ele>200.0</ele><time>2026-04-24T13:47:46.999Z</time></trkpt><trkpt lat="44.71948143643879" lon="10.207004579734543"><ele>200.0</ele><time>2026-04-24T13:47:47.999Z</time></trkpt><trkpt lat="44.71932148507314" lon="10.20699478739613"><ele>202.5</ele><time>2026-04-24T13:47:48.999Z</time></trkpt><trkpt lat="44.719165040958146" lon="10.20698778265591"><ele>205.0</ele><time>2026-04-24T13:47:49.999Z</time></trkpt><trkpt lat="44.71901457641105" lon="10.206994542917958"><ele>207.5</ele><time>2026-04-24T13:47:50.999Z</time></trkpt><trkpt lat="44.71887262363873" lon="10.206999562840165"><ele>210.0</ele><time>2026-04-24T13:47:51.999Z</time></trkpt><trkpt lat="44.71874834029062" lon="10.2070110139898"><ele>210.0</ele><time>2026-04-24T13:47:52.999Z</time></trkpt><trkpt lat="44.71864469772361" lon="10.207041254003704"><ele>210.0</ele><time>2026-04-24T13:47:53.999Z</time></trkpt><trkpt lat="44.718573499898845" lon="10.207105258182827"><ele>210.0</ele><time>2026-04-24T13:47:54.998Z</time></trkpt><trkpt lat="44.718543845647275" lon="10.207222876459456"><ele>210.0</ele><time>2026-04-24T13:47:55.998Z</time></trkpt><trkpt lat="44.71855110083489" lon="10.207356966613377"><ele>210.0</ele><time>2026-04-24T13:47:56.998Z</time></trkpt><trkpt lat="44.718588045607774" lon="10.20750883882157"><ele>210.0</ele><time>2026-04-24T13:47:57.998Z</time></trkpt><trkpt lat="44.71860265229041" lon="10.20767632935349"><ele>210.0</ele><time>2026-04-24T13:47:58.998Z</time></trkpt><trkpt lat="44.71858466344865" lon="10.207836474404917"><ele>210.0</ele><time>2026-04-24T13:47:59.998Z</time></trkpt><trkpt lat="44.71856134098603" lon="10.208024733365109"><ele>210.0</ele><time>2026-04-24T13:48:00.998Z</time></trkpt><trkpt lat="44.718560053385815" lon="10.208226017290864"><ele>209.5</ele><time>2026-04-24T13:48:01.998Z</time></trkpt><trkpt lat="44.71855426941043" lon="10.208434400742453"><ele>209.0</ele><time>2026-04-24T13:48:02.998Z</time></trkpt><trkpt lat="44.71856760198166" lon="10.208640467916437"><ele>208.5</ele><time>2026-04-24T13:48:03.998Z</time></trkpt><trkpt lat="44.71858545644698" lon="10.208836423321419"><ele>208.0</ele><time>2026-04-24T13:48:04.998Z</time></trkpt><trkpt lat="44.71860200666773" lon="10.20903279778027"><ele>207.0</ele><time>2026-04-24T13:48:05.998Z</time></trkpt><trkpt lat="44.71861587018579" lon="10.209229634571164"><ele>206.0</ele><time>2026-04-24T13:48:06.998Z</time></trkpt><trkpt lat="44.71862380061966" lon="10.209432321129672"><ele>205.0</ele><time>2026-04-24T13:48:07.998Z</time></trkpt><trkpt lat="44.718619583761324" lon="10.209619694585003"><ele>204.0</ele><time>2026-04-24T13:48:08.998Z</time></trkpt><trkpt lat="44.71861083138866" lon="10.209800947996097"><ele>203.75</ele><time>2026-04-24T13:48:09.998Z</time></trkpt><trkpt lat="44.71860117237392" lon="10.20997865561266"><ele>203.5</ele><time>2026-04-24T13:48:10.998Z</time></trkpt><trkpt lat="44.718593834906194" lon="10.210169401293316"><ele>203.25</ele><time>2026-04-24T13:48:11.998Z</time></trkpt><trkpt lat="44.71858530180995" lon="10.210367073985687"><ele>203.0</ele><time>2026-04-24T13:48:12.998Z</time></trkpt><trkpt lat="44.71855880874825" lon="10.2105769095211"><ele>201.66666666666669</ele><time>2026-04-24T13:48:13.998Z</time></trkpt><trkpt lat="44.71853300953857" lon="10.210789786277356"><ele>200.33333333333331</ele><time>2026-04-24T13:48:14.998Z</time></trkpt><trkpt lat="44.718509631799876" lon="10.211003793871916"><ele>199.0</ele><time>2026-04-24T13:48:15.998Z</time></trkpt><trkpt lat="44.7184826885916" lon="10.211226885624392"><ele>199.0</ele><time>2026-04-24T13:48:16.998Z</time></trkpt><trkpt lat="44.71845790315736" lon="10.211453673933056"><ele>199.0</ele><time>2026-04-24T13:48:17.998Z</time></trkpt><trkpt lat="44.718432911996125" lon="10.211686718146746"><ele>199.0</ele><time>2026-04-24T13:48:18.998Z</time></trkpt><trkpt lat="44.71840682285775" lon="10.211912615263984"><ele>199.25</ele><time>2026-04-24T13:48:19.998Z</time></trkpt><trkpt lat="44.71838206754476" lon="10.212125910215148"><ele>199.5</ele><time>2026-04-24T13:48:20.998Z</time></trkpt><trkpt lat="44.71836717451981" lon="10.21232831498266"><ele>199.75</ele><time>2026-04-24T13:48:21.998Z</time></trkpt><trkpt lat="44.718344484250224" lon="10.212517898653696"><ele>200.0</ele><time>2026-04-24T13:48:23Z</time></trkpt><trkpt lat="44.718324372078655" lon="10.212697687368133"><ele>199.4</ele><time>2026-04-24T13:48:24Z</time></trkpt><trkpt lat="44.71830985348349" lon="10.212867783642473"><ele>198.8</ele><time>2026-04-24T13:48:25Z</time></trkpt><trkpt lat="44.71829928229498" lon="10.213016454897977"><ele>198.2</ele><time>2026-04-24T13:48:26Z</time></trkpt><trkpt lat="44.718291558998494" lon="10.213133467278407"><ele>197.6</ele><time>2026-04-24T13:48:27Z</time></trkpt><trkpt lat="44.718280505282955" lon="10.213252567376156"><ele>197.0</ele><time>2026-04-24T13:48:28Z</time></trkpt><trkpt lat="44.71827360193617" lon="10.213367030678143"><ele>196.33333333333334</ele><time>2026-04-24T13:48:29Z</time></trkpt><trkpt lat="44.71824604318014" lon="10.213465117427349"><ele>195.66666666666669</ele><time>2026-04-24T13:48:30Z</time></trkpt><trkpt lat="44.71823416704109" lon="10.21356171924894"><ele>195.0</ele><time>2026-04-24T13:48:31Z</time></trkpt><trkpt lat="44.718220965256165" lon="10.213669104033482"><ele>194.33333333333331</ele><time>2026-04-24T13:48:32Z</time></trkpt><trkpt lat="44.71821319111063" lon="10.213778038373418"><ele>193.66666666666666</ele><time>2026-04-24T13:48:33Z</time></trkpt><trkpt lat="44.718195560885626" lon="10.213895502007357"><ele>193.0</ele><time>2026-04-24T13:48:34Z</time></trkpt><trkpt lat="44.71818502672533" lon="10.214026132788328"><ele>192.60000000000002</ele><time>2026-04-24T13:48:35Z</time></trkpt><trkpt lat="44.71817403368208" lon="10.214159877645494"><ele>192.20000000000002</ele><time>2026-04-24T13:48:36Z</time></trkpt><trkpt lat="44.7181632326247" lon="10.214302174010582"><ele>191.8</ele><time>2026-04-24T13:48:37Z</time></trkpt><trkpt lat="44.71815214917319" lon="10.21442315132635"><ele>191.4</ele><time>2026-04-24T13:48:38Z</time></trkpt><trkpt lat="44.71813946361339" lon="10.214539580667138"><ele>191.0</ele><time>2026-04-24T13:48:39Z</time></trkpt><trkpt lat="44.71811750256173" lon="10.21465137404659"><ele>191.0</ele><time>2026-04-24T13:48:40Z</time></trkpt><trkpt lat="44.71806241646935" lon="10.214737101680933"><ele>191.0</ele><time>2026-04-24T13:48:41Z</time></trkpt><trkpt lat="44.717971201154114" lon="10.214778318946824"><ele>191.0</ele><time>2026-04-24T13:48:42Z</time></trkpt><trkpt lat="44.71786760441872" lon="10.214795511731731"><ele>191.0</ele><time>2026-04-24T13:48:43Z</time></trkpt><trkpt lat="44.71776378166846" lon="10.214804417317454"><ele>191.0</ele><time>2026-04-24T13:48:44Z</time></trkpt><trkpt lat="44.71765360413282" lon="10.214827512638951"><ele>190.20000000000002</ele><time>2026-04-24T13:48:45Z</time></trkpt><trkpt lat="44.71754685701537" lon="10.21484399838385"><ele>189.4</ele><time>2026-04-24T13:48:46Z</time></trkpt><trkpt lat="44.71744174647762" lon="10.214854929124025"><ele>188.6</ele><time>2026-04-24T13:48:47Z</time></trkpt><trkpt lat="44.71733266561748" lon="10.214856358275666"><ele>187.8</ele><time>2026-04-24T13:48:48Z</time></trkpt><trkpt lat="44.71722571732875" lon="10.214850193862597"><ele>187.0</ele><time>2026-04-24T13:48:49Z</time></trkpt><trkpt lat="44.71711758479728" lon="10.21485784148334"><ele>187.0</ele><time>2026-04-24T13:48:50Z</time></trkpt><trkpt lat="44.71700902758092" lon="10.214879358219774"><ele>187.0</ele><time>2026-04-24T13:48:51Z</time></trkpt><trkpt lat="44.71689952448674" lon="10.214928153629936"><ele>187.0</ele><time>2026-04-24T13:48:52Z</time></trkpt><trkpt lat="44.71679714416483" lon="10.215022470630904"><ele>187.0</ele><time>2026-04-24T13:48:53Z</time></trkpt><trkpt lat="44.716699770431774" lon="10.215142043063416"><ele>184.5</ele><time>2026-04-24T13:48:54Z</time></trkpt><trkpt lat="44.71660871383643" lon="10.215272760249137"><ele>182.0</ele><time>2026-04-24T13:48:55Z</time></trkpt><trkpt lat="44.716516915771884" lon="10.215406639463701"><ele>179.5</ele><time>2026-04-24T13:48:56Z</time></trkpt><trkpt lat="44.716420418823" lon="10.21553474415205"><ele>177.0</ele><time>2026-04-24T13:48:57Z</time></trkpt><trkpt lat="44.716319295191305" lon="10.215663983174032"><ele>176.0</ele><time>2026-04-24T13:48:58Z</time></trkpt><trkpt lat="44.716241586332714" lon="10.215794822259808"><ele>175.0</ele><time>2026-04-24T13:48:59Z</time></trkpt><trkpt lat="44.71621037351198" lon="10.215943420299679"><ele>174.0</ele><time>2026-04-24T13:49:00Z</time></trkpt><trkpt lat="44.71619727569276" lon="10.216116433472381"><ele>173.0</ele><time>2026-04-24T13:49:01Z</time></trkpt><trkpt lat="44.71622899569752" lon="10.216292844023398"><ele>174.33333333333331</ele><time>2026-04-24T13:49:02Z</time></trkpt><trkpt lat="44.71624761277317" lon="10.21648820794866"><ele>175.66666666666666</ele><time>2026-04-24T13:49:03Z</time></trkpt><trkpt lat="44.716296684939714" lon="10.216697902168622"><ele>177.0</ele><time>2026-04-24T13:49:04Z</time></trkpt><trkpt lat="44.71633587059279" lon="10.21692093126577"><ele>177.0</ele><time>2026-04-24T13:49:06Z</time></trkpt><trkpt lat="44.71636186288484" lon="10.217052323407772"><ele>177.0</ele><time>2026-04-24T13:49:07Z</time></trkpt><trkpt lat="44.71634486044656" lon="10.217192402138199"><ele>177.0</ele><time>2026-04-24T13:49:08Z</time></trkpt><trkpt lat="44.71631792859044" lon="10.217322953656721"><ele>177.0</ele><time>2026-04-24T13:49:09Z</time></trkpt><trkpt lat="44.716268242893584" lon="10.217457554591011"><ele>177.0</ele><time>2026-04-24T13:49:10Z</time></trkpt><trkpt lat="44.71623145740248" lon="10.217602612816439"><ele>177.75</ele><time>2026-04-24T13:49:10.999Z</time></trkpt><trkpt lat="44.716191766722844" lon="10.217758386972053"><ele>178.5</ele><time>2026-04-24T13:49:11.999Z</time></trkpt><trkpt lat="44.71614963140521" lon="10.217915996007727"><ele>179.25</ele><time>2026-04-24T13:49:12.999Z</time></trkpt><trkpt lat="44.716110727769305" lon="10.218062635327053"><ele>180.0</ele><time>2026-04-24T13:49:13.999Z</time></trkpt><trkpt lat="44.7160894279016" lon="10.218207665149931"><ele>181.0</ele><time>2026-04-24T13:49:14.999Z</time></trkpt><trkpt lat="44.716046525787846" lon="10.218337825826382"><ele>182.0</ele><time>2026-04-24T13:49:15.999Z</time></trkpt><trkpt lat="44.71600990730424" lon="10.218461611275536"><ele>183.0</ele><time>2026-04-24T13:49:16.999Z</time></trkpt><trkpt lat="44.71597966188698" lon="10.218571667035945"><ele>184.0</ele><time>2026-04-24T13:49:17.999Z</time></trkpt><trkpt lat="44.715952649537726" lon="10.218670207680782"><ele>185.0</ele><time>2026-04-24T13:49:18.999Z</time></trkpt><trkpt lat="44.71592819690069" lon="10.21876748063727"><ele>186.0</ele><time>2026-04-24T13:49:19.999Z</time></trkpt><trkpt lat="44.71589725529382" lon="10.218876156279007"><ele>185.5</ele><time>2026-04-24T13:49:20.999Z</time></trkpt><trkpt lat="44.715866817129054" lon="10.21898685460912"><ele>185.0</ele><time>2026-04-24T13:49:21.999Z</time></trkpt><trkpt lat="44.71584105501826" lon="10.219098863740868"><ele>184.5</ele><time>2026-04-24T13:49:22.999Z</time></trkpt><trkpt lat="44.715808984326266" lon="10.21921816822112"><ele>184.0</ele><time>2026-04-24T13:49:23.999Z</time></trkpt><trkpt lat="44.71578015165254" lon="10.21934545274044"><ele>183.5</ele><time>2026-04-24T13:49:24.999Z</time></trkpt><trkpt lat="44.715749566982126" lon="10.219470383079374"><ele>183.0</ele><time>2026-04-24T13:49:25.999Z</time></trkpt><trkpt lat="44.71571815421468" lon="10.21959936424633"><ele>183.0</ele><time>2026-04-24T13:49:26.999Z</time></trkpt><trkpt lat="44.71567980000383" lon="10.21973866984437"><ele>183.0</ele><time>2026-04-24T13:49:27.999Z</time></trkpt><trkpt lat="44.71564530652212" lon="10.219890200006782"><ele>183.0</ele><time>2026-04-24T13:49:28.999Z</time></trkpt><trkpt lat="44.71560664596916" lon="10.220042537308327"><ele>183.0</ele><time>2026-04-24T13:49:29.999Z</time></trkpt><trkpt lat="44.715567901140965" lon="10.220199614270147"><ele>182.5</ele><time>2026-04-24T13:49:30.999Z</time></trkpt><trkpt lat="44.7155214718172" lon="10.220354509950116"><ele>182.0</ele><time>2026-04-24T13:49:31.999Z</time></trkpt><trkpt lat="44.715478350071294" lon="10.220513709919066"><ele>181.5</ele><time>2026-04-24T13:49:32.999Z</time></trkpt><trkpt lat="44.71543442680897" lon="10.220674374629954"><ele>181.0</ele><time>2026-04-24T13:49:33.999Z</time></trkpt><trkpt lat="44.71538515814139" lon="10.220833683849538"><ele>180.5</ele><time>2026-04-24T13:49:34.999Z</time></trkpt><trkpt lat="44.71534395344554" lon="10.220989661727868"><ele>180.0</ele><time>2026-04-24T13:49:35.999Z</time></trkpt><trkpt lat="44.71530376521585" lon="10.221141791805188"><ele>179.5</ele><time>2026-04-24T13:49:36.999Z</time></trkpt><trkpt lat="44.71526357814825" lon="10.221293917541018"><ele>179.0</ele><time>2026-04-24T13:49:37.999Z</time></trkpt><trkpt lat="44.71523630165713" lon="10.221445016906213"><ele>179.25</ele><time>2026-04-24T13:49:38.999Z</time></trkpt><trkpt lat="44.71519352538256" lon="10.221597015024317"><ele>179.5</ele><time>2026-04-24T13:49:39.999Z</time></trkpt><trkpt lat="44.71515802387514" lon="10.221751362789083"><ele>179.75</ele><time>2026-04-24T13:49:40.999Z</time></trkpt><trkpt lat="44.71511606483556" lon="10.22190601273052"><ele>180.0</ele><time>2026-04-24T13:49:41.999Z</time></trkpt><trkpt lat="44.71507276094053" lon="10.222063599870669"><ele>180.0</ele><time>2026-04-24T13:49:42.999Z</time></trkpt><trkpt lat="44.71503130622783" lon="10.222212835443468"><ele>180.0</ele><time>2026-04-24T13:49:43.999Z</time></trkpt><trkpt lat="44.71499076077767" lon="10.222374558408518"><ele>180.0</ele><time>2026-04-24T13:49:44.999Z</time></trkpt><trkpt lat="44.71495114087676" lon="10.222521370478132"><ele>180.0</ele><time>2026-04-24T13:49:45.999Z</time></trkpt><trkpt lat="44.71491012146114" lon="10.22266926216326"><ele>179.2</ele><time>2026-04-24T13:49:46.999Z</time></trkpt><trkpt lat="44.71487357584386" lon="10.222812264203728"><ele>178.4</ele><time>2026-04-24T13:49:47.999Z</time></trkpt><trkpt lat="44.71484093996525" lon="10.222949840295403"><ele>177.60000000000002</ele><time>2026-04-24T13:49:48.999Z</time></trkpt><trkpt lat="44.714809956286814" lon="10.22306867122225"><ele>176.8</ele><time>2026-04-24T13:49:49.999Z</time></trkpt><trkpt lat="44.71477544148232" lon="10.223192517361957"><ele>176.0</ele><time>2026-04-24T13:49:50.999Z</time></trkpt><trkpt lat="44.71474857784574" lon="10.22330866719193"><ele>175.83333333333331</ele><time>2026-04-24T13:49:51.999Z</time></trkpt><trkpt lat="44.71471130384714" lon="10.223428046190696"><ele>175.66666666666666</ele><time>2026-04-24T13:49:52.999Z</time></trkpt><trkpt lat="44.7146836889694" lon="10.223539827006775"><ele>175.5</ele><time>2026-04-24T13:49:53.999Z</time></trkpt><trkpt lat="44.714660515593266" lon="10.22363678555395"><ele>175.33333333333334</ele><time>2026-04-24T13:49:54.999Z</time></trkpt><trkpt lat="44.71464178987625" lon="10.22373726734624"><ele>175.16666666666669</ele><time>2026-04-24T13:49:55.999Z</time></trkpt><trkpt lat="44.71461251282864" lon="10.223833277577368"><ele>175.0</ele><time>2026-04-24T13:49:56.999Z</time></trkpt><trkpt lat="44.714577506113194" lon="10.223937422976936"><ele>174.25</ele><time>2026-04-24T13:49:57.999Z</time></trkpt><trkpt lat="44.714538745905" lon="10.224075570823251"><ele>173.5</ele><time>2026-04-24T13:49:58.999Z</time></trkpt><trkpt lat="44.71449989952202" lon="10.224231152850905"><ele>172.75</ele><time>2026-04-24T13:49:59.999Z</time></trkpt><trkpt lat="44.714461114494696" lon="10.224392457679853"><ele>172.0</ele><time>2026-04-24T13:50:00.999Z</time></trkpt><trkpt lat="44.714420776284626" lon="10.22453390043433"><ele>172.33333333333334</ele><time>2026-04-24T13:50:01.999Z</time></trkpt><trkpt lat="44.714388657462905" lon="10.224653529597306"><ele>172.66666666666669</ele><time>2026-04-24T13:50:02.998Z</time></trkpt><trkpt lat="44.71435921099975" lon="10.224775601568423"><ele>173.0</ele><time>2026-04-24T13:50:03.998Z</time></trkpt><trkpt lat="44.71432912748943" lon="10.224894974347343"><ele>173.33333333333334</ele><time>2026-04-24T13:50:04.998Z</time></trkpt><trkpt lat="44.7143036181422" lon="10.224987305884682"><ele>173.66666666666666</ele><time>2026-04-24T13:50:05.998Z</time></trkpt><trkpt lat="44.71425157378901" lon="10.22510598401933"><ele>174.0</ele><time>2026-04-24T13:50:07.998Z</time></trkpt><trkpt lat="44.714129458955064" lon="10.225096207000856"><ele>174.0</ele><time>2026-04-24T13:50:09.998Z</time></trkpt><trkpt lat="44.71404773730874" lon="10.225078666061597"><ele>174.0</ele><time>2026-04-24T13:50:10.998Z</time></trkpt><trkpt lat="44.71395964920953" lon="10.225068063908973"><ele>174.0</ele><time>2026-04-24T13:50:11.998Z</time></trkpt><trkpt lat="44.71386522649174" lon="10.225056102039087"><ele>174.0</ele><time>2026-04-24T13:50:12.998Z</time></trkpt><trkpt lat="44.713759410875916" lon="10.225041639807085"><ele>174.0</ele><time>2026-04-24T13:50:13.998Z</time></trkpt><trkpt lat="44.713649144245416" lon="10.22502459243903"><ele>174.25</ele><time>2026-04-24T13:50:14.998Z</time></trkpt><trkpt lat="44.71353703000771" lon="10.225003483422968"><ele>174.5</ele><time>2026-04-24T13:50:15.998Z</time></trkpt><trkpt lat="44.71343260222738" lon="10.22498301877033"><ele>174.75</ele><time>2026-04-24T13:50:16.998Z</time></trkpt><trkpt lat="44.71332080779652" lon="10.224973597827022"><ele>175.0</ele><time>2026-04-24T13:50:17.998Z</time></trkpt><trkpt lat="44.7132018772954" lon="10.224962729284377"><ele>175.0</ele><time>2026-04-24T13:50:18.998Z</time></trkpt><trkpt lat="44.71308123604003" lon="10.224949174327794"><ele>175.0</ele><time>2026-04-24T13:50:19.998Z</time></trkpt><trkpt lat="44.71296124158074" lon="10.224936035658047"><ele>175.0</ele><time>2026-04-24T13:50:20.998Z</time></trkpt><trkpt lat="44.71284046906452" lon="10.224921078763115"><ele>175.0</ele><time>2026-04-24T13:50:21.998Z</time></trkpt><trkpt lat="44.712718304225156" lon="10.224882959892975"><ele>174.75</ele><time>2026-04-24T13:50:22.998Z</time></trkpt><trkpt lat="44.71259473305214" lon="10.224889486572687"><ele>174.5</ele><time>2026-04-24T13:50:23.998Z</time></trkpt><trkpt lat="44.71247583769077" lon="10.224872129954566"><ele>174.25</ele><time>2026-04-24T13:50:24.998Z</time></trkpt><trkpt lat="44.71236156835129" lon="10.224852249918209"><ele>174.0</ele><time>2026-04-24T13:50:25.998Z</time></trkpt><trkpt lat="44.7122452624832" lon="10.22483833449055"><ele>174.0</ele><time>2026-04-24T13:50:26.998Z</time></trkpt><trkpt lat="44.71212645231557" lon="10.224821491694751"><ele>174.0</ele><time>2026-04-24T13:50:27.998Z</time></trkpt><trkpt lat="44.71200803585203" lon="10.22480118763441"><ele>174.0</ele><time>2026-04-24T13:50:29Z</time></trkpt><trkpt lat="44.71188729401033" lon="10.224790515651929"><ele>174.0</ele><time>2026-04-24T13:50:30Z</time></trkpt><trkpt lat="44.71176653051927" lon="10.224772789554372"><ele>174.75</ele><time>2026-04-24T13:50:31Z</time></trkpt><trkpt lat="44.711646573045506" lon="10.224756102351138"><ele>175.5</ele><time>2026-04-24T13:50:32Z</time></trkpt><trkpt lat="44.71152319599306" lon="10.224743249991814"><ele>176.25</ele><time>2026-04-24T13:50:33Z</time></trkpt><trkpt lat="44.71140635488927" lon="10.224704784853095"><ele>177.0</ele><time>2026-04-24T13:50:34Z</time></trkpt><trkpt lat="44.71128305029851" lon="10.224708368200734"><ele>177.0</ele><time>2026-04-24T13:50:35Z</time></trkpt><trkpt lat="44.71116185510342" lon="10.224688302424147"><ele>177.0</ele><time>2026-04-24T13:50:36Z</time></trkpt><trkpt lat="44.71103864195317" lon="10.224671641341708"><ele>177.0</ele><time>2026-04-24T13:50:37Z</time></trkpt><trkpt lat="44.71091160748213" lon="10.224656102206911"><ele>177.0</ele><time>2026-04-24T13:50:38Z</time></trkpt><trkpt lat="44.71078555971064" lon="10.224639436589541"><ele>177.25</ele><time>2026-04-24T13:50:39Z</time></trkpt><trkpt lat="44.71065877195107" lon="10.22461767679284"><ele>177.5</ele><time>2026-04-24T13:50:40Z</time></trkpt><trkpt lat="44.71053544263484" lon="10.224587607995355"><ele>177.75</ele><time>2026-04-24T13:50:41Z</time></trkpt><trkpt lat="44.71041415577028" lon="10.224571234789591"><ele>178.0</ele><time>2026-04-24T13:50:42Z</time></trkpt><trkpt lat="44.71029124618409" lon="10.224554192533345"><ele>178.0</ele><time>2026-04-24T13:50:43Z</time></trkpt><trkpt lat="44.71016781041758" lon="10.224556780441633"><ele>178.0</ele><time>2026-04-24T13:50:44Z</time></trkpt><trkpt lat="44.71004562343102" lon="10.224540575919995"><ele>178.0</ele><time>2026-04-24T13:50:45Z</time></trkpt><trkpt lat="44.70992569313638" lon="10.224524037370111"><ele>178.0</ele><time>2026-04-24T13:50:46Z</time></trkpt><trkpt lat="44.70980861836159" lon="10.224509440019016"><ele>178.0</ele><time>2026-04-24T13:50:47Z</time></trkpt><trkpt lat="44.70969069436191" lon="10.224469339067563"><ele>178.0</ele><time>2026-04-24T13:50:48Z</time></trkpt><trkpt lat="44.70956775064508" lon="10.224452288976543"><ele>178.0</ele><time>2026-04-24T13:50:49Z</time></trkpt><trkpt lat="44.709439746891" lon="10.224434537142658"><ele>178.0</ele><time>2026-04-24T13:50:50Z</time></trkpt><trkpt lat="44.7093095086773" lon="10.22441647543977"><ele>178.25</ele><time>2026-04-24T13:50:51Z</time></trkpt><trkpt lat="44.70917721584096" lon="10.22439813069961"><ele>178.5</ele><time>2026-04-24T13:50:52Z</time></trkpt><trkpt lat="44.709043989572905" lon="10.22437965459791"><ele>178.75</ele><time>2026-04-24T13:50:53Z</time></trkpt><trkpt lat="44.70890621307295" lon="10.22436054746425"><ele>179.0</ele><time>2026-04-24T13:50:54Z</time></trkpt><trkpt lat="44.70876999757515" lon="10.224341656805933"><ele>179.0</ele><time>2026-04-24T13:50:55Z</time></trkpt><trkpt lat="44.70863511836101" lon="10.224322951467673"><ele>179.0</ele><time>2026-04-24T13:50:56Z</time></trkpt><trkpt lat="44.70850157612229" lon="10.224304431546393"><ele>179.0</ele><time>2026-04-24T13:50:57Z</time></trkpt><trkpt lat="44.70836445685212" lon="10.224285415561134"><ele>179.0</ele><time>2026-04-24T13:50:58Z</time></trkpt><trkpt lat="44.708227955685004" lon="10.22426666736736"><ele>179.25</ele><time>2026-04-24T13:50:59Z</time></trkpt><trkpt lat="44.7080893657676" lon="10.224247909021152"><ele>179.5</ele><time>2026-04-24T13:51:00Z</time></trkpt><trkpt lat="44.70795088090419" lon="10.22422916489333"><ele>179.75</ele><time>2026-04-24T13:51:01Z</time></trkpt><trkpt lat="44.70781007293137" lon="10.224210106333121"><ele>180.0</ele><time>2026-04-24T13:51:02Z</time></trkpt><trkpt lat="44.70766966733285" lon="10.22419112912372"><ele>181.0</ele><time>2026-04-24T13:51:03Z</time></trkpt><trkpt lat="44.70752843327248" lon="10.224172112481606"><ele>182.0</ele><time>2026-04-24T13:51:04Z</time></trkpt><trkpt lat="44.70738964120031" lon="10.22415338144246"><ele>183.0</ele><time>2026-04-24T13:51:05Z</time></trkpt><trkpt lat="44.707257449065004" lon="10.224135451431135"><ele>184.0</ele><time>2026-04-24T13:51:06Z</time></trkpt><trkpt lat="44.707134028125026" lon="10.224118907550391"><ele>184.0</ele><time>2026-04-24T13:51:07Z</time></trkpt><trkpt lat="44.70701382421804" lon="10.224103100184221"><ele>184.0</ele><time>2026-04-24T13:51:08Z</time></trkpt><trkpt lat="44.70689444961273" lon="10.224087401880356"><ele>184.0</ele><time>2026-04-24T13:51:09Z</time></trkpt><trkpt lat="44.706770170230065" lon="10.224071058579481"><ele>184.0</ele><time>2026-04-24T13:51:10Z</time></trkpt><trkpt lat="44.70664492062293" lon="10.224054587685155"><ele>185.5</ele><time>2026-04-24T13:51:11Z</time></trkpt><trkpt lat="44.70651960651457" lon="10.224037931862041"><ele>187.0</ele><time>2026-04-24T13:51:12Z</time></trkpt><trkpt lat="44.70639524872485" lon="10.224021215347584"><ele>188.5</ele><time>2026-04-24T13:51:13Z</time></trkpt><trkpt lat="44.7062719052634" lon="10.224002985620846"><ele>190.0</ele><time>2026-04-24T13:51:14Z</time></trkpt><trkpt lat="44.7061491046678" lon="10.22398435098025"><ele>190.5</ele><time>2026-04-24T13:51:15Z</time></trkpt><trkpt lat="44.7060273493133" lon="10.223965931988749"><ele>191.0</ele><time>2026-04-24T13:51:16Z</time></trkpt><trkpt lat="44.705898525298444" lon="10.223946443655196"><ele>191.5</ele><time>2026-04-24T13:51:17Z</time></trkpt><trkpt lat="44.70576696666535" lon="10.223928455023671"><ele>192.0</ele><time>2026-04-24T13:51:17.999Z</time></trkpt><trkpt lat="44.705627342421856" lon="10.223916423147925"><ele>192.0</ele><time>2026-04-24T13:51:18.999Z</time></trkpt><trkpt lat="44.70548710847372" lon="10.223908210266442"><ele>192.0</ele><time>2026-04-24T13:51:19.999Z</time></trkpt><trkpt lat="44.705352091475696" lon="10.223900302917132"><ele>192.0</ele><time>2026-04-24T13:51:20.999Z</time></trkpt><trkpt lat="44.705208834696485" lon="10.223916061046014"><ele>192.0</ele><time>2026-04-24T13:51:21.999Z</time></trkpt><trkpt lat="44.70506635785605" lon="10.223912722076319"><ele>193.0</ele><time>2026-04-24T13:51:22.999Z</time></trkpt><trkpt lat="44.704925328845206" lon="10.22389062136198"><ele>194.0</ele><time>2026-04-24T13:51:23.999Z</time></trkpt><trkpt lat="44.70477964026573" lon="10.223917125941128"><ele>195.0</ele><time>2026-04-24T13:51:24.999Z</time></trkpt><trkpt lat="44.70463976431946" lon="10.223893558615462"><ele>196.0</ele><time>2026-04-24T13:51:25.999Z</time></trkpt><trkpt lat="44.70451028057703" lon="10.223886543822923"><ele>196.75</ele><time>2026-04-24T13:51:26.999Z</time></trkpt><trkpt lat="44.70439088815226" lon="10.223870922424156"><ele>197.5</ele><time>2026-04-24T13:51:27.999Z</time></trkpt><trkpt lat="44.704270979766264" lon="10.223834694385603"><ele>198.25</ele><time>2026-04-24T13:51:28.999Z</time></trkpt><trkpt lat="44.70414674647385" lon="10.223772395721705"><ele>199.0</ele><time>2026-04-24T13:51:29.999Z</time></trkpt><trkpt lat="44.704017772890936" lon="10.223690449912432"><ele>199.0</ele><time>2026-04-24T13:51:30.999Z</time></trkpt><trkpt lat="44.70388680602347" lon="10.2235943138368"><ele>199.0</ele><time>2026-04-24T13:51:31.999Z</time></trkpt><trkpt lat="44.70374110053581" lon="10.223488649677257"><ele>199.0</ele><time>2026-04-24T13:51:32.999Z</time></trkpt><trkpt lat="44.70359085289591" lon="10.223382379166905"><ele>197.66666666666666</ele><time>2026-04-24T13:51:33.999Z</time></trkpt><trkpt lat="44.70343737511969" lon="10.223273823950574"><ele>196.33333333333331</ele><time>2026-04-24T13:51:34.999Z</time></trkpt><trkpt lat="44.70327690688226" lon="10.223160324292161"><ele>195.0</ele><time>2026-04-24T13:51:35.999Z</time></trkpt><trkpt lat="44.70311708956991" lon="10.223047284804789"><ele>195.0</ele><time>2026-04-24T13:51:36.999Z</time></trkpt><trkpt lat="44.7029506502221" lon="10.222929561787433"><ele>195.0</ele><time>2026-04-24T13:51:37.999Z</time></trkpt><trkpt lat="44.70278925005968" lon="10.222815402896893"><ele>195.0</ele><time>2026-04-24T13:51:38.999Z</time></trkpt><trkpt lat="44.7026280175079" lon="10.222706917717007"><ele>193.66666666666666</ele><time>2026-04-24T13:51:39.999Z</time></trkpt><trkpt lat="44.702469895469314" lon="10.222612590121583"><ele>192.33333333333331</ele><time>2026-04-24T13:51:40.999Z</time></trkpt><trkpt lat="44.702304414448804" lon="10.222534059871586"><ele>191.0</ele><time>2026-04-24T13:51:41.999Z</time></trkpt><trkpt lat="44.70214038496014" lon="10.2225031268654"><ele>191.0</ele><time>2026-04-24T13:51:42.999Z</time></trkpt><trkpt lat="44.70199561622276" lon="10.222449233386047"><ele>191.0</ele><time>2026-04-24T13:51:43.999Z</time></trkpt><trkpt lat="44.701858799366896" lon="10.222407232033845"><ele>191.0</ele><time>2026-04-24T13:51:44.999Z</time></trkpt><trkpt lat="44.70172053221645" lon="10.22235891670972"><ele>191.0</ele><time>2026-04-24T13:51:45.999Z</time></trkpt><trkpt lat="44.701582046039505" lon="10.222299853662955"><ele>191.0</ele><time>2026-04-24T13:51:46.999Z</time></trkpt><trkpt lat="44.70144018254352" lon="10.222254789486609"><ele>191.0</ele><time>2026-04-24T13:51:47.999Z</time></trkpt><trkpt lat="44.70130287408675" lon="10.222211172257573"><ele>191.0</ele><time>2026-04-24T13:51:48.999Z</time></trkpt><trkpt lat="44.70116927286884" lon="10.22216873260159"><ele>191.0</ele><time>2026-04-24T13:51:49.999Z</time></trkpt><trkpt lat="44.70104594738675" lon="10.2221587763282"><ele>191.0</ele><time>2026-04-24T13:51:50.999Z</time></trkpt><trkpt lat="44.700947958978894" lon="10.222138736772903"><ele>191.0</ele><time>2026-04-24T13:51:51.999Z</time></trkpt><trkpt lat="44.70086306511565" lon="10.222125447802"><ele>191.0</ele><time>2026-04-24T13:51:52.999Z</time></trkpt><trkpt lat="44.70077021056237" lon="10.222107178465023"><ele>191.0</ele><time>2026-04-24T13:51:54.999Z</time></trkpt><trkpt lat="44.70083534667001" lon="10.222108486144878"><ele>191.0</ele><time>2026-04-24T13:52:00.999Z</time></trkpt><trkpt lat="44.700961340167645" lon="10.22216644012426"><ele>191.0</ele><time>2026-04-24T13:52:01.999Z</time></trkpt><trkpt lat="44.70107045880248" lon="10.222185915891014"><ele>191.0</ele><time>2026-04-24T13:52:02.999Z</time></trkpt><trkpt lat="44.70118144322898" lon="10.222215055226238"><ele>191.0</ele><time>2026-04-24T13:52:03.999Z</time></trkpt><trkpt lat="44.70130365905234" lon="10.222247412843235"><ele>191.0</ele><time>2026-04-24T13:52:04.999Z</time></trkpt><trkpt lat="44.70143031500875" lon="10.22228525319993"><ele>191.0</ele><time>2026-04-24T13:52:05.999Z</time></trkpt><trkpt lat="44.70156040346079" lon="10.222323437741894"><ele>191.0</ele><time>2026-04-24T13:52:06.999Z</time></trkpt><trkpt lat="44.70169749623154" lon="10.222366364625165"><ele>191.0</ele><time>2026-04-24T13:52:07.999Z</time></trkpt><trkpt lat="44.701838195604545" lon="10.22241292674085"><ele>191.0</ele><time>2026-04-24T13:52:08.999Z</time></trkpt><trkpt lat="44.70198115513299" lon="10.222460037201452"><ele>191.0</ele><time>2026-04-24T13:52:09.998Z</time></trkpt><trkpt lat="44.702126043837794" lon="10.222510691675033"><ele>191.0</ele><time>2026-04-24T13:52:10.998Z</time></trkpt><trkpt lat="44.70226932950659" lon="10.222565315014526"><ele>191.0</ele><time>2026-04-24T13:52:11.998Z</time></trkpt><trkpt lat="44.70240665018592" lon="10.222630566193876"><ele>191.0</ele><time>2026-04-24T13:52:12.998Z</time></trkpt><trkpt lat="44.702546012706314" lon="10.222711798999715"><ele>191.0</ele><time>2026-04-24T13:52:13.998Z</time></trkpt><trkpt lat="44.70267862691239" lon="10.222797870670266"><ele>191.0</ele><time>2026-04-24T13:52:14.998Z</time></trkpt><trkpt lat="44.702804170404086" lon="10.222881867190114"><ele>191.0</ele><time>2026-04-24T13:52:15.998Z</time></trkpt><trkpt lat="44.702918633314205" lon="10.222959798407722"><ele>191.0</ele><time>2026-04-24T13:52:16.998Z</time></trkpt><trkpt lat="44.703028945601524" lon="10.223039551428284"><ele>190.5</ele><time>2026-04-24T13:52:17.998Z</time></trkpt><trkpt lat="44.70313814546324" lon="10.223117010248236"><ele>190.0</ele><time>2026-04-24T13:52:18.998Z</time></trkpt><trkpt lat="44.70325267924649" lon="10.22319694266544"><ele>189.5</ele><time>2026-04-24T13:52:19.998Z</time></trkpt><trkpt lat="44.70337753524158" lon="10.223292885664947"><ele>189.0</ele><time>2026-04-24T13:52:20.998Z</time></trkpt><trkpt lat="44.70350771352631" lon="10.223396050854443"><ele>191.5</ele><time>2026-04-24T13:52:21.998Z</time></trkpt><trkpt lat="44.703646540745254" lon="10.223508579812469"><ele>194.0</ele><time>2026-04-24T13:52:22.998Z</time></trkpt><trkpt lat="44.70374658698429" lon="10.223537446567198"><ele>196.5</ele><time>2026-04-24T13:52:24.998Z</time></trkpt><trkpt lat="44.70383137054151" lon="10.223596265384902"><ele>199.0</ele><time>2026-04-24T13:52:25.998Z</time></trkpt><trkpt lat="44.703914040011" lon="10.223656949421324"><ele>199.0</ele><time>2026-04-24T13:52:26.998Z</time></trkpt><trkpt lat="44.70399489804833" lon="10.22371883906373"><ele>199.0</ele><time>2026-04-24T13:52:27.998Z</time></trkpt><trkpt lat="44.70407645095722" lon="10.22377873721727"><ele>199.0</ele><time>2026-04-24T13:52:28.998Z</time></trkpt><trkpt lat="44.704161677779325" lon="10.223831197243145"><ele>199.0</ele><time>2026-04-24T13:52:29.998Z</time></trkpt><trkpt lat="44.70424414225147" lon="10.223883093849548"><ele>199.0</ele><time>2026-04-24T13:52:30.998Z</time></trkpt><trkpt lat="44.70433696508157" lon="10.223918430702994"><ele>198.49999999999997</ele><time>2026-04-24T13:52:31.998Z</time></trkpt><trkpt lat="44.70442366008394" lon="10.223939624934584"><ele>198.0</ele><time>2026-04-24T13:52:32.998Z</time></trkpt><trkpt lat="44.70450627589364" lon="10.223942618284857"><ele>197.5</ele><time>2026-04-24T13:52:33.998Z</time></trkpt><trkpt lat="44.70459633416259" lon="10.223935104869067"><ele>197.0</ele><time>2026-04-24T13:52:35Z</time></trkpt><trkpt lat="44.70468789464678" lon="10.223934480118182"><ele>196.49999999999997</ele><time>2026-04-24T13:52:36Z</time></trkpt><trkpt lat="44.70476680191619" lon="10.22393316159585"><ele>196.0</ele><time>2026-04-24T13:52:37Z</time></trkpt><trkpt lat="44.70484447743001" lon="10.223928880118947"><ele>195.99999999999997</ele><time>2026-04-24T13:52:38Z</time></trkpt><trkpt lat="44.70491691033384" lon="10.223926100346421"><ele>196.0</ele><time>2026-04-24T13:52:39Z</time></trkpt><trkpt lat="44.70498966242972" lon="10.223923417560947"><ele>196.0</ele><time>2026-04-24T13:52:40Z</time></trkpt><trkpt lat="44.705060942289435" lon="10.2239250338771"><ele>196.0</ele><time>2026-04-24T13:52:41Z</time></trkpt><trkpt lat="44.705180239632014" lon="10.223927727182508"><ele>195.99999999999997</ele><time>2026-04-24T13:52:43Z</time></trkpt><trkpt lat="44.70524312605519" lon="10.223932374809081"><ele>196.0</ele><time>2026-04-24T13:52:44Z</time></trkpt><trkpt lat="44.70531774374956" lon="10.223933358732957"><ele>195.33333333333331</ele><time>2026-04-24T13:52:45Z</time></trkpt><trkpt lat="44.70540621863406" lon="10.223937391606098"><ele>194.66666666666666</ele><time>2026-04-24T13:52:46Z</time></trkpt><trkpt lat="44.705495539064216" lon="10.223939364683645"><ele>194.0</ele><time>2026-04-24T13:52:47Z</time></trkpt><trkpt lat="44.70559088009022" lon="10.223948015691239"><ele>193.33333333333331</ele><time>2026-04-24T13:52:48Z</time></trkpt><trkpt lat="44.70567821637032" lon="10.223954942506243"><ele>192.66666666666666</ele><time>2026-04-24T13:52:49Z</time></trkpt><trkpt lat="44.7057621977212" lon="10.223963244547612"><ele>192.0</ele><time>2026-04-24T13:52:50Z</time></trkpt><trkpt lat="44.70585180935802" lon="10.223969754336956"><ele>191.6</ele><time>2026-04-24T13:52:51Z</time></trkpt><trkpt lat="44.70594024235269" lon="10.22399971249559"><ele>191.2</ele><time>2026-04-24T13:52:52Z</time></trkpt><trkpt lat="44.70603591554337" lon="10.223992067864913"><ele>190.8</ele><time>2026-04-24T13:52:53Z</time></trkpt><trkpt lat="44.706133155237275" lon="10.224008973796323"><ele>190.4</ele><time>2026-04-24T13:52:54Z</time></trkpt><trkpt lat="44.70623369313722" lon="10.224027245750557"><ele>190.0</ele><time>2026-04-24T13:52:55Z</time></trkpt><trkpt lat="44.706333731263115" lon="10.224041583609042"><ele>190.0</ele><time>2026-04-24T13:52:56Z</time></trkpt><trkpt lat="44.70644031058635" lon="10.224059740212036"><ele>190.0</ele><time>2026-04-24T13:52:57Z</time></trkpt><trkpt lat="44.70654152266741" lon="10.2240772375878"><ele>190.0</ele><time>2026-04-24T13:52:58Z</time></trkpt><trkpt lat="44.70664337424049" lon="10.224089061353082"><ele>190.0</ele><time>2026-04-24T13:52:59Z</time></trkpt><trkpt lat="44.706738138353586" lon="10.224103989384812"><ele>190.0</ele><time>2026-04-24T13:53:00Z</time></trkpt><trkpt lat="44.70682703492961" lon="10.224116320195542"><ele>189.14285714285714</ele><time>2026-04-24T13:53:01Z</time></trkpt><trkpt lat="44.706913013338486" lon="10.224126441873633"><ele>188.28571428571428</ele><time>2026-04-24T13:53:02Z</time></trkpt><trkpt lat="44.70699360954846" lon="10.2241391603247"><ele>187.42857142857144</ele><time>2026-04-24T13:53:03Z</time></trkpt><trkpt lat="44.70706524122755" lon="10.224149327532926"><ele>186.57142857142856</ele><time>2026-04-24T13:53:04Z</time></trkpt><trkpt lat="44.70713586434892" lon="10.22415714707473"><ele>185.7142857142857</ele><time>2026-04-24T13:53:05Z</time></trkpt><trkpt lat="44.70720427243918" lon="10.224166970109914"><ele>184.85714285714286</ele><time>2026-04-24T13:53:06Z</time></trkpt><trkpt lat="44.70727333014389" lon="10.224175207718407"><ele>184.0</ele><time>2026-04-24T13:53:07Z</time></trkpt><trkpt lat="44.707346544127596" lon="10.22418826337794"><ele>184.0</ele><time>2026-04-24T13:53:08Z</time></trkpt><trkpt lat="44.70742593494876" lon="10.22419556040602"><ele>184.0</ele><time>2026-04-24T13:53:09Z</time></trkpt><trkpt lat="44.707509663242185" lon="10.224205735960052"><ele>184.0</ele><time>2026-04-24T13:53:10Z</time></trkpt><trkpt lat="44.70759671590153" lon="10.224220094634653"><ele>184.0</ele><time>2026-04-24T13:53:11Z</time></trkpt><trkpt lat="44.70768460567223" lon="10.22423324370748"><ele>184.0</ele><time>2026-04-24T13:53:12Z</time></trkpt><trkpt lat="44.70777470048578" lon="10.224239784144762"><ele>184.0</ele><time>2026-04-24T13:53:13Z</time></trkpt><trkpt lat="44.707864565462756" lon="10.224246846575896"><ele>183.2</ele><time>2026-04-24T13:53:14Z</time></trkpt><trkpt lat="44.70795186690654" lon="10.224259371613785"><ele>182.39999999999998</ele><time>2026-04-24T13:53:15Z</time></trkpt><trkpt lat="44.70804091509634" lon="10.224276976327621"><ele>181.6</ele><time>2026-04-24T13:53:16Z</time></trkpt><trkpt lat="44.708131850716825" lon="10.224293266272303"><ele>180.8</ele><time>2026-04-24T13:53:17Z</time></trkpt><trkpt lat="44.70822380268858" lon="10.224306419585519"><ele>180.0</ele><time>2026-04-24T13:53:18Z</time></trkpt><trkpt lat="44.708315950746716" lon="10.22431582549323"><ele>180.0</ele><time>2026-04-24T13:53:19Z</time></trkpt><trkpt lat="44.708399375883324" lon="10.22433141917146"><ele>180.0</ele><time>2026-04-24T13:53:20Z</time></trkpt><trkpt lat="44.708477376790945" lon="10.224340376693576"><ele>180.0</ele><time>2026-04-24T13:53:21Z</time></trkpt><trkpt lat="44.708552960384" lon="10.224350984142648"><ele>180.0</ele><time>2026-04-24T13:53:22Z</time></trkpt><trkpt lat="44.70863037700615" lon="10.224359323236557"><ele>180.0</ele><time>2026-04-24T13:53:23Z</time></trkpt><trkpt lat="44.70871222907391" lon="10.224369573014052"><ele>180.0</ele><time>2026-04-24T13:53:24Z</time></trkpt><trkpt lat="44.70880073047204" lon="10.224384941903523"><ele>179.83333333333334</ele><time>2026-04-24T13:53:25Z</time></trkpt><trkpt lat="44.70888548024604" lon="10.224395587371854"><ele>179.66666666666666</ele><time>2026-04-24T13:53:26Z</time></trkpt><trkpt lat="44.70897084139823" lon="10.224408490026363"><ele>179.5</ele><time>2026-04-24T13:53:26.999Z</time></trkpt><trkpt lat="44.70906598449427" lon="10.224422080933394"><ele>179.33333333333331</ele><time>2026-04-24T13:53:27.999Z</time></trkpt><trkpt lat="44.709156522564484" lon="10.224429360603215"><ele>179.16666666666666</ele><time>2026-04-24T13:53:28.999Z</time></trkpt><trkpt lat="44.70924805603983" lon="10.224442998656517"><ele>179.0</ele><time>2026-04-24T13:53:29.999Z</time></trkpt><trkpt lat="44.7093424120209" lon="10.224459314039436"><ele>178.79999999999998</ele><time>2026-04-24T13:53:30.999Z</time></trkpt><trkpt lat="44.709432617875294" lon="10.224471491159907"><ele>178.6</ele><time>2026-04-24T13:53:31.999Z</time></trkpt><trkpt lat="44.709512956035205" lon="10.224482433551534"><ele>178.4</ele><time>2026-04-24T13:53:32.999Z</time></trkpt><trkpt lat="44.70958585719007" lon="10.224486955913772"><ele>178.2</ele><time>2026-04-24T13:53:33.999Z</time></trkpt><trkpt lat="44.70969915170788" lon="10.224501735364475"><ele>178.0</ele><time>2026-04-24T13:53:35.999Z</time></trkpt><trkpt lat="44.70979467700955" lon="10.224525859599224"><ele>178.0</ele><time>2026-04-24T13:53:37.999Z</time></trkpt><trkpt lat="44.70989059129956" lon="10.224537138082326"><ele>178.0</ele><time>2026-04-24T13:53:39.999Z</time></trkpt><trkpt lat="44.70999897484307" lon="10.22454341204745"><ele>178.0</ele><time>2026-04-24T13:53:41.999Z</time></trkpt><trkpt lat="44.7101132279073" lon="10.224558494878325"><ele>178.0</ele><time>2026-04-24T13:53:43.999Z</time></trkpt><trkpt lat="44.71021526800924" lon="10.224577186892846"><ele>178.0</ele><time>2026-04-24T13:53:45.999Z</time></trkpt><trkpt lat="44.710312756365475" lon="10.224592727577189"><ele>178.0</ele><time>2026-04-24T13:53:47.999Z</time></trkpt><trkpt lat="44.71040746714305" lon="10.224607262652752"><ele>178.0</ele><time>2026-04-24T13:53:49.999Z</time></trkpt><trkpt lat="44.71052467272435" lon="10.224610813764484"><ele>178.0</ele><time>2026-04-24T13:53:51.999Z</time></trkpt><trkpt lat="44.710623572187025" lon="10.224628567793436"><ele>178.0</ele><time>2026-04-24T13:53:53.999Z</time></trkpt><trkpt lat="44.71069522536155" lon="10.224640011700503"><ele>178.0</ele><time>2026-04-24T13:53:55.999Z</time></trkpt><trkpt lat="44.71079387749023" lon="10.224648733144088"><ele>178.0</ele><time>2026-04-24T13:53:57.999Z</time></trkpt><trkpt lat="44.71090253334052" lon="10.224664134711025"><ele>178.0</ele><time>2026-04-24T13:53:59.999Z</time></trkpt><trkpt lat="44.71101371697491" lon="10.224680567575865"><ele>178.0</ele><time>2026-04-24T13:54:01.999Z</time></trkpt><trkpt lat="44.71113626941941" lon="10.224694774783872"><ele>178.0</ele><time>2026-04-24T13:54:03.999Z</time></trkpt><trkpt lat="44.71119906122362" lon="10.224703614608531"><ele>178.0</ele><time>2026-04-24T13:54:04.999Z</time></trkpt><trkpt lat="44.711263715323255" lon="10.224715980230345"><ele>177.85714285714283</ele><time>2026-04-24T13:54:05.999Z</time></trkpt><trkpt lat="44.71133847884623" lon="10.22472008453029"><ele>177.71428571428572</ele><time>2026-04-24T13:54:06.999Z</time></trkpt><trkpt lat="44.711408882954544" lon="10.224731194330932"><ele>177.57142857142856</ele><time>2026-04-24T13:54:07.999Z</time></trkpt><trkpt lat="44.711474449941356" lon="10.22474953389517"><ele>177.42857142857142</ele><time>2026-04-24T13:54:08.999Z</time></trkpt><trkpt lat="44.71154162756924" lon="10.224750934552928"><ele>177.28571428571428</ele><time>2026-04-24T13:54:09.999Z</time></trkpt><trkpt lat="44.71161357613605" lon="10.224764757181969"><ele>177.14285714285714</ele><time>2026-04-24T13:54:10.999Z</time></trkpt><trkpt lat="44.711683538285264" lon="10.224768465355085"><ele>177.0</ele><time>2026-04-24T13:54:11.999Z</time></trkpt><trkpt lat="44.711756339796636" lon="10.224778705620963"><ele>177.0</ele><time>2026-04-24T13:54:12.999Z</time></trkpt><trkpt lat="44.71182706662949" lon="10.22480780186426"><ele>177.0</ele><time>2026-04-24T13:54:13.999Z</time></trkpt><trkpt lat="44.71191451014527" lon="10.224800194207196"><ele>177.0</ele><time>2026-04-24T13:54:14.999Z</time></trkpt><trkpt lat="44.71199717926979" lon="10.224816205627997"><ele>177.0</ele><time>2026-04-24T13:54:15.999Z</time></trkpt><trkpt lat="44.71208141339749" lon="10.224829682794804"><ele>177.0</ele><time>2026-04-24T13:54:16.999Z</time></trkpt><trkpt lat="44.712168880918554" lon="10.224841294448312"><ele>177.0</ele><time>2026-04-24T13:54:17.998Z</time></trkpt><trkpt lat="44.7122441090235" lon="10.224850318477559"><ele>176.5</ele><time>2026-04-24T13:54:18.998Z</time></trkpt><trkpt lat="44.712323149629455" lon="10.2248601818567"><ele>176.0</ele><time>2026-04-24T13:54:19.998Z</time></trkpt><trkpt lat="44.712399832158" lon="10.224870872504821"><ele>175.5</ele><time>2026-04-24T13:54:20.998Z</time></trkpt><trkpt lat="44.71247516696097" lon="10.224878742175166"><ele>175.0</ele><time>2026-04-24T13:54:21.998Z</time></trkpt><trkpt lat="44.712550839757604" lon="10.224887694323181"><ele>174.5</ele><time>2026-04-24T13:54:22.998Z</time></trkpt><trkpt lat="44.712626879877874" lon="10.224904479736093"><ele>174.0</ele><time>2026-04-24T13:54:23.998Z</time></trkpt><trkpt lat="44.7127048872967" lon="10.224916161978292"><ele>174.16666666666666</ele><time>2026-04-24T13:54:24.998Z</time></trkpt><trkpt lat="44.712783765293544" lon="10.224927185599737"><ele>174.33333333333334</ele><time>2026-04-24T13:54:25.998Z</time></trkpt><trkpt lat="44.71286360293565" lon="10.224938347378542"><ele>174.5</ele><time>2026-04-24T13:54:26.998Z</time></trkpt><trkpt lat="44.7129377975827" lon="10.224951685109867"><ele>174.66666666666669</ele><time>2026-04-24T13:54:27.998Z</time></trkpt><trkpt lat="44.713007036540034" lon="10.224967001810581"><ele>174.83333333333334</ele><time>2026-04-24T13:54:28.998Z</time></trkpt><trkpt lat="44.713081866824396" lon="10.224968852695532"><ele>175.0</ele><time>2026-04-24T13:54:29.998Z</time></trkpt><trkpt lat="44.713158337009126" lon="10.224975829456886"><ele>175.0</ele><time>2026-04-24T13:54:30.998Z</time></trkpt><trkpt lat="44.71323532692364" lon="10.224984716124908"><ele>175.0</ele><time>2026-04-24T13:54:31.998Z</time></trkpt><trkpt lat="44.71331245222787" lon="10.224997745238571"><ele>175.0</ele><time>2026-04-24T13:54:32.998Z</time></trkpt><trkpt lat="44.71339484279017" lon="10.225009996160503"><ele>175.0</ele><time>2026-04-24T13:54:33.998Z</time></trkpt><trkpt lat="44.71346726260291" lon="10.225020135267114"><ele>175.0</ele><time>2026-04-24T13:54:34.998Z</time></trkpt><trkpt lat="44.7135356084321" lon="10.225029690424003"><ele>175.0</ele><time>2026-04-24T13:54:35.998Z</time></trkpt><trkpt lat="44.71360279843079" lon="10.22503385710401"><ele>175.0</ele><time>2026-04-24T13:54:36.998Z</time></trkpt><trkpt lat="44.713666747202886" lon="10.225049470178828"><ele>174.85714285714286</ele><time>2026-04-24T13:54:37.998Z</time></trkpt><trkpt lat="44.713731256222545" lon="10.225063063807493"><ele>174.71428571428572</ele><time>2026-04-24T13:54:38.998Z</time></trkpt><trkpt lat="44.71379758996191" lon="10.22506724064865"><ele>174.57142857142856</ele><time>2026-04-24T13:54:40Z</time></trkpt><trkpt lat="44.713863927717284" lon="10.2250839149997"><ele>174.42857142857144</ele><time>2026-04-24T13:54:41Z</time></trkpt><trkpt lat="44.713931109019946" lon="10.225086115576758"><ele>174.28571428571428</ele><time>2026-04-24T13:54:42Z</time></trkpt><trkpt lat="44.71404134110548" lon="10.22510415803059"><ele>174.14285714285714</ele><time>2026-04-24T13:54:44Z</time></trkpt><trkpt lat="44.71410693598314" lon="10.225114905882094"><ele>174.0</ele><time>2026-04-24T13:54:46Z</time></trkpt><trkpt lat="44.71418686317485" lon="10.225126930720817"><ele>174.0</ele><time>2026-04-24T13:54:51Z</time></trkpt><trkpt lat="44.714253018412236" lon="10.225168841374549"><ele>174.0</ele><time>2026-04-24T13:54:53Z</time></trkpt><trkpt lat="44.71433618096909" lon="10.224952637008633"><ele>174.0</ele><time>2026-04-24T13:54:57Z</time></trkpt><trkpt lat="44.71435193889207" lon="10.224830183465434"><ele>174.0</ele><time>2026-04-24T13:54:58Z</time></trkpt><trkpt lat="44.71439303543839" lon="10.224719260881402"><ele>174.0</ele><time>2026-04-24T13:54:59Z</time></trkpt><trkpt lat="44.71442972914607" lon="10.22458647379442"><ele>174.2</ele><time>2026-04-24T13:55:00Z</time></trkpt><trkpt lat="44.71446826216552" lon="10.224442569389181"><ele>174.39999999999998</ele><time>2026-04-24T13:55:01Z</time></trkpt><trkpt lat="44.71450338998633" lon="10.224287329784545"><ele>174.6</ele><time>2026-04-24T13:55:02Z</time></trkpt><trkpt lat="44.71454398901265" lon="10.224135248503096"><ele>174.8</ele><time>2026-04-24T13:55:03Z</time></trkpt><trkpt lat="44.71458079135076" lon="10.22401793942775"><ele>175.0</ele><time>2026-04-24T13:55:04Z</time></trkpt><trkpt lat="44.714607546717716" lon="10.223918184308543"><ele>175.0</ele><time>2026-04-24T13:55:05Z</time></trkpt><trkpt lat="44.71469816771915" lon="10.223827774318782"><ele>175.0</ele><time>2026-04-24T13:55:07Z</time></trkpt><trkpt lat="44.71471380600373" lon="10.223708530910256"><ele>175.0</ele><time>2026-04-24T13:55:09Z</time></trkpt><trkpt lat="44.71467864903578" lon="10.223615230639702"><ele>175.0</ele><time>2026-04-24T13:55:10Z</time></trkpt><trkpt lat="44.714717800720926" lon="10.223498421959322"><ele>175.0</ele><time>2026-04-24T13:55:11Z</time></trkpt><trkpt lat="44.71474091599255" lon="10.22335379119458"><ele>175.0</ele><time>2026-04-24T13:55:12Z</time></trkpt><trkpt lat="44.71477773805249" lon="10.223223411935479"><ele>175.0</ele><time>2026-04-24T13:55:13Z</time></trkpt><trkpt lat="44.71482701556869" lon="10.223087316443923"><ele>175.0</ele><time>2026-04-24T13:55:14Z</time></trkpt><trkpt lat="44.71485863255901" lon="10.222927159979676"><ele>175.0</ele><time>2026-04-24T13:55:15Z</time></trkpt><trkpt lat="44.71489730831277" lon="10.22276890521046"><ele>175.0</ele><time>2026-04-24T13:55:16Z</time></trkpt><trkpt lat="44.71493930284267" lon="10.222605920989794"><ele>175.25</ele><time>2026-04-24T13:55:17Z</time></trkpt><trkpt lat="44.71498300051107" lon="10.222435980098375"><ele>175.5</ele><time>2026-04-24T13:55:18Z</time></trkpt><trkpt lat="44.7150282103747" lon="10.222271425816942"><ele>175.75</ele><time>2026-04-24T13:55:19Z</time></trkpt><trkpt lat="44.71507296762166" lon="10.222107129258447"><ele>176.0</ele><time>2026-04-24T13:55:20Z</time></trkpt><trkpt lat="44.715120841373945" lon="10.221941398833788"><ele>176.75</ele><time>2026-04-24T13:55:21Z</time></trkpt><trkpt lat="44.71516366322658" lon="10.22178003785179"><ele>177.5</ele><time>2026-04-24T13:55:22Z</time></trkpt><trkpt lat="44.71520729562499" lon="10.221617580747228"><ele>178.25</ele><time>2026-04-24T13:55:23Z</time></trkpt><trkpt lat="44.71524787772689" lon="10.221465466911779"><ele>179.0</ele><time>2026-04-24T13:55:24Z</time></trkpt><trkpt lat="44.71528064035126" lon="10.221335504900836"><ele>179.0</ele><time>2026-04-24T13:55:25Z</time></trkpt><trkpt lat="44.71530847350147" lon="10.221209445907371"><ele>179.0</ele><time>2026-04-24T13:55:26Z</time></trkpt><trkpt lat="44.71534950266935" lon="10.221068795523998"><ele>179.0</ele><time>2026-04-24T13:55:27Z</time></trkpt><trkpt lat="44.715385934971216" lon="10.220928526399769"><ele>179.0</ele><time>2026-04-24T13:55:28Z</time></trkpt><trkpt lat="44.71542453192206" lon="10.22077236567548"><ele>179.0</ele><time>2026-04-24T13:55:29Z</time></trkpt><trkpt lat="44.7154671531151" lon="10.220612395029589"><ele>179.5</ele><time>2026-04-24T13:55:30Z</time></trkpt><trkpt lat="44.71551004510816" lon="10.220457157689701"><ele>180.0</ele><time>2026-04-24T13:55:31Z</time></trkpt><trkpt lat="44.71554845732297" lon="10.220306468204873"><ele>180.5</ele><time>2026-04-24T13:55:32Z</time></trkpt><trkpt lat="44.715588458141376" lon="10.220156462122045"><ele>181.0</ele><time>2026-04-24T13:55:33Z</time></trkpt><trkpt lat="44.71563501386756" lon="10.220008440236628"><ele>181.0</ele><time>2026-04-24T13:55:34Z</time></trkpt><trkpt lat="44.715673515619216" lon="10.219855916338263"><ele>181.0</ele><time>2026-04-24T13:55:34.999Z</time></trkpt><trkpt lat="44.71571233667899" lon="10.219699793896154"><ele>181.0</ele><time>2026-04-24T13:55:35.999Z</time></trkpt><trkpt lat="44.71575176703664" lon="10.219549153301854"><ele>181.0</ele><time>2026-04-24T13:55:36.999Z</time></trkpt><trkpt lat="44.71578959636402" lon="10.21939996136478"><ele>181.5</ele><time>2026-04-24T13:55:37.999Z</time></trkpt><trkpt lat="44.71582745691895" lon="10.21925203611884"><ele>182.0</ele><time>2026-04-24T13:55:38.999Z</time></trkpt><trkpt lat="44.71586702469065" lon="10.219097827134357"><ele>182.5</ele><time>2026-04-24T13:55:39.999Z</time></trkpt><trkpt lat="44.71590805700524" lon="10.218941703792234"><ele>183.0</ele><time>2026-04-24T13:55:40.999Z</time></trkpt><trkpt lat="44.71595143062166" lon="10.218780788931696"><ele>182.75</ele><time>2026-04-24T13:55:41.999Z</time></trkpt><trkpt lat="44.71599528648794" lon="10.218619821828629"><ele>182.5</ele><time>2026-04-24T13:55:42.999Z</time></trkpt><trkpt lat="44.716038326026506" lon="10.218453331469092"><ele>182.25</ele><time>2026-04-24T13:55:43.999Z</time></trkpt><trkpt lat="44.716074504965114" lon="10.218296722129278"><ele>182.0</ele><time>2026-04-24T13:55:44.999Z</time></trkpt><trkpt lat="44.71611283275202" lon="10.218141970016818"><ele>181.6</ele><time>2026-04-24T13:55:45.999Z</time></trkpt><trkpt lat="44.716153892292134" lon="10.21799467253437"><ele>181.2</ele><time>2026-04-24T13:55:46.999Z</time></trkpt><trkpt lat="44.71619389610344" lon="10.217850330845318"><ele>180.8</ele><time>2026-04-24T13:55:47.999Z</time></trkpt><trkpt lat="44.71623102589348" lon="10.217709761115838"><ele>180.4</ele><time>2026-04-24T13:55:48.999Z</time></trkpt><trkpt lat="44.71625785658394" lon="10.217596658897598"><ele>180.0</ele><time>2026-04-24T13:55:49.999Z</time></trkpt><trkpt lat="44.71627390334128" lon="10.21751059844776"><ele>180.0</ele><time>2026-04-24T13:55:50.999Z</time></trkpt><trkpt lat="44.716316774785355" lon="10.217406531360083"><ele>180.0</ele><time>2026-04-24T13:55:52.999Z</time></trkpt><trkpt lat="44.716166957386235" lon="10.217313328055482"><ele>180.0</ele><time>2026-04-24T13:55:54.999Z</time></trkpt><trkpt lat="44.71607991862917" lon="10.217287006222632"><ele>180.0</ele><time>2026-04-24T13:55:55.999Z</time></trkpt><trkpt lat="44.71600135730806" lon="10.217226741141594"><ele>180.0</ele><time>2026-04-24T13:55:56.999Z</time></trkpt><trkpt lat="44.715908412947115" lon="10.217178822889686"><ele>182.0</ele><time>2026-04-24T13:55:57.999Z</time></trkpt><trkpt lat="44.71581095529188" lon="10.21713135195334"><ele>184.0</ele><time>2026-04-24T13:55:58.999Z</time></trkpt><trkpt lat="44.71571129334555" lon="10.217083165894241"><ele>186.0</ele><time>2026-04-24T13:55:59.999Z</time></trkpt><trkpt lat="44.715607985101045" lon="10.217034421508753"><ele>188.0</ele><time>2026-04-24T13:56:00.999Z</time></trkpt><trkpt lat="44.71549847971898" lon="10.216982054391508"><ele>190.0</ele><time>2026-04-24T13:56:01.999Z</time></trkpt><trkpt lat="44.71538665239796" lon="10.216927489853996"><ele>190.0</ele><time>2026-04-24T13:56:02.999Z</time></trkpt><trkpt lat="44.715274493105895" lon="10.216872763341634"><ele>190.0</ele><time>2026-04-24T13:56:03.999Z</time></trkpt><trkpt lat="44.715157047434026" lon="10.216816046960847"><ele>190.0</ele><time>2026-04-24T13:56:04.999Z</time></trkpt><trkpt lat="44.71503679526159" lon="10.216758073585638"><ele>190.0</ele><time>2026-04-24T13:56:05.999Z</time></trkpt><trkpt lat="44.71491076545425" lon="10.216697314836647"><ele>190.5</ele><time>2026-04-24T13:56:06.999Z</time></trkpt><trkpt lat="44.714783461426414" lon="10.216635941806867"><ele>191.0</ele><time>2026-04-24T13:56:07.999Z</time></trkpt><trkpt lat="44.714649598142664" lon="10.216571406551637"><ele>191.5</ele><time>2026-04-24T13:56:08.999Z</time></trkpt><trkpt lat="44.71451470150192" lon="10.216506372967237"><ele>192.0</ele><time>2026-04-24T13:56:09.999Z</time></trkpt><trkpt lat="44.714371753075156" lon="10.216446928884308"><ele>193.66666666666669</ele><time>2026-04-24T13:56:10.999Z</time></trkpt><trkpt lat="44.71422590425583" lon="10.216384523911234"><ele>195.33333333333334</ele><time>2026-04-24T13:56:11.999Z</time></trkpt><trkpt lat="44.7140846586656" lon="10.216315913104493"><ele>197.0</ele><time>2026-04-24T13:56:12.999Z</time></trkpt><trkpt lat="44.71394172890576" lon="10.21625106505447"><ele>197.0</ele><time>2026-04-24T13:56:13.999Z</time></trkpt><trkpt lat="44.713803191993584" lon="10.216163110068768"><ele>197.0</ele><time>2026-04-24T13:56:14.999Z</time></trkpt><trkpt lat="44.713663295067136" lon="10.216093529998574"><ele>197.0</ele><time>2026-04-24T13:56:15.999Z</time></trkpt><trkpt lat="44.713519308049555" lon="10.21602191563267"><ele>198.33333333333334</ele><time>2026-04-24T13:56:16.999Z</time></trkpt><trkpt lat="44.71337431325783" lon="10.215951092000301"><ele>199.66666666666669</ele><time>2026-04-24T13:56:17.999Z</time></trkpt><trkpt lat="44.7132233217946" lon="10.215902343170438"><ele>201.0</ele><time>2026-04-24T13:56:18.999Z</time></trkpt><trkpt lat="44.71308206628421" lon="10.215824338792304"><ele>201.0</ele><time>2026-04-24T13:56:19.999Z</time></trkpt><trkpt lat="44.71294114382244" lon="10.21576229526611"><ele>201.0</ele><time>2026-04-24T13:56:20.999Z</time></trkpt><trkpt lat="44.712800846244" lon="10.215693193549246"><ele>201.0</ele><time>2026-04-24T13:56:21.999Z</time></trkpt><trkpt lat="44.71266322831001" lon="10.215625703260706"><ele>201.0</ele><time>2026-04-24T13:56:22.999Z</time></trkpt><trkpt lat="44.71252916420559" lon="10.215551248094329"><ele>201.75</ele><time>2026-04-24T13:56:23.999Z</time></trkpt><trkpt lat="44.71238886458639" lon="10.215493046972295"><ele>202.5</ele><time>2026-04-24T13:56:24.999Z</time></trkpt><trkpt lat="44.71224924969749" lon="10.215428369603588"><ele>203.25</ele><time>2026-04-24T13:56:25.998Z</time></trkpt><trkpt lat="44.71211152899863" lon="10.215342208647554"><ele>204.0</ele><time>2026-04-24T13:56:26.998Z</time></trkpt><trkpt lat="44.71196720131662" lon="10.215296369703852"><ele>204.66666666666669</ele><time>2026-04-24T13:56:27.998Z</time></trkpt><trkpt lat="44.71182337198678" lon="10.21522620774503"><ele>205.33333333333334</ele><time>2026-04-24T13:56:28.998Z</time></trkpt><trkpt lat="44.71168252981042" lon="10.2151595991033"><ele>206.0</ele><time>2026-04-24T13:56:29.998Z</time></trkpt><trkpt lat="44.711545108686735" lon="10.21506917428837"><ele>206.0</ele><time>2026-04-24T13:56:30.998Z</time></trkpt><trkpt lat="44.71139406193951" lon="10.215021437146293"><ele>206.0</ele><time>2026-04-24T13:56:31.998Z</time></trkpt><trkpt lat="44.71125005892041" lon="10.214951511778938"><ele>206.0</ele><time>2026-04-24T13:56:32.998Z</time></trkpt><trkpt lat="44.711102272128045" lon="10.214878530682679"><ele>208.0</ele><time>2026-04-24T13:56:33.998Z</time></trkpt><trkpt lat="44.71095769596548" lon="10.214800014149638"><ele>210.0</ele><time>2026-04-24T13:56:34.998Z</time></trkpt><trkpt lat="44.71080807260196" lon="10.21472535024622"><ele>212.0</ele><time>2026-04-24T13:56:35.998Z</time></trkpt><trkpt lat="44.71065869703465" lon="10.214661440973797"><ele>212.0</ele><time>2026-04-24T13:56:36.998Z</time></trkpt><trkpt lat="44.71051163581801" lon="10.214596653298258"><ele>212.0</ele><time>2026-04-24T13:56:37.998Z</time></trkpt><trkpt lat="44.71036725253125" lon="10.214527252535131"><ele>212.0</ele><time>2026-04-24T13:56:38.998Z</time></trkpt><trkpt lat="44.71022050484683" lon="10.214455236002625"><ele>213.0</ele><time>2026-04-24T13:56:39.998Z</time></trkpt><trkpt lat="44.710075730162366" lon="10.214384808396069"><ele>214.0</ele><time>2026-04-24T13:56:40.998Z</time></trkpt><trkpt lat="44.70992801055704" lon="10.214316762667018"><ele>215.0</ele><time>2026-04-24T13:56:41.998Z</time></trkpt><trkpt lat="44.70977967420861" lon="10.214245018876925"><ele>215.0</ele><time>2026-04-24T13:56:42.998Z</time></trkpt><trkpt lat="44.70963468444648" lon="10.214175113043328"><ele>215.0</ele><time>2026-04-24T13:56:43.998Z</time></trkpt><trkpt lat="44.70949389355674" lon="10.214082875965081"><ele>215.0</ele><time>2026-04-24T13:56:44.998Z</time></trkpt><trkpt lat="44.70934760361208" lon="10.214010904442633"><ele>215.66666666666669</ele><time>2026-04-24T13:56:46Z</time></trkpt><trkpt lat="44.70920414791049" lon="10.213940327307164"><ele>216.33333333333331</ele><time>2026-04-24T13:56:47Z</time></trkpt><trkpt lat="44.70905943058358" lon="10.21387092266891"><ele>217.0</ele><time>2026-04-24T13:56:48Z</time></trkpt><trkpt lat="44.70891805091136" lon="10.213803509847297"><ele>217.0</ele><time>2026-04-24T13:56:49Z</time></trkpt><trkpt lat="44.70877393733348" lon="10.213732519956958"><ele>217.0</ele><time>2026-04-24T13:56:50Z</time></trkpt><trkpt lat="44.708622315344854" lon="10.21368174792766"><ele>217.0</ele><time>2026-04-24T13:56:51Z</time></trkpt><trkpt lat="44.70847563002269" lon="10.213608761218373"><ele>218.66666666666666</ele><time>2026-04-24T13:56:52Z</time></trkpt><trkpt lat="44.70833012320686" lon="10.21353622024484"><ele>220.33333333333331</ele><time>2026-04-24T13:56:53Z</time></trkpt><trkpt lat="44.70818087254275" lon="10.213465531147161"><ele>222.0</ele><time>2026-04-24T13:56:54Z</time></trkpt><trkpt lat="44.70803174478266" lon="10.213397683986733"><ele>222.0</ele><time>2026-04-24T13:56:55Z</time></trkpt><trkpt lat="44.70788108772917" lon="10.213332213901126"><ele>222.0</ele><time>2026-04-24T13:56:56Z</time></trkpt><trkpt lat="44.70772884158883" lon="10.21328330078811"><ele>222.0</ele><time>2026-04-24T13:56:57Z</time></trkpt><trkpt lat="44.707574140316225" lon="10.213211060580706"><ele>223.33333333333331</ele><time>2026-04-24T13:56:58Z</time></trkpt><trkpt lat="44.70742014910295" lon="10.213159895084845"><ele>224.66666666666666</ele><time>2026-04-24T13:56:59Z</time></trkpt><trkpt lat="44.70726896114732" lon="10.213109288526361"><ele>226.0</ele><time>2026-04-24T13:57:00Z</time></trkpt><trkpt lat="44.70711347784676" lon="10.213057244192797"><ele>226.33333333333331</ele><time>2026-04-24T13:57:01Z</time></trkpt><trkpt lat="44.706963048610326" lon="10.2130068916037"><ele>226.66666666666669</ele><time>2026-04-24T13:57:02Z</time></trkpt><trkpt lat="44.70681436779511" lon="10.212957124239983"><ele>227.0</ele><time>2026-04-24T13:57:03Z</time></trkpt><trkpt lat="44.70665783324558" lon="10.212928594872842"><ele>227.33333333333334</ele><time>2026-04-24T13:57:04Z</time></trkpt><trkpt lat="44.70651531534359" lon="10.212856876389278"><ele>227.66666666666669</ele><time>2026-04-24T13:57:05Z</time></trkpt><trkpt lat="44.70636730667543" lon="10.212807196435385"><ele>228.0</ele><time>2026-04-24T13:57:06Z</time></trkpt><trkpt lat="44.706216311177776" lon="10.212781551600353"><ele>228.33333333333331</ele><time>2026-04-24T13:57:07Z</time></trkpt><trkpt lat="44.70606675440063" lon="10.212731921423003"><ele>228.66666666666666</ele><time>2026-04-24T13:57:08Z</time></trkpt><trkpt lat="44.70591750858801" lon="10.212681508353166"><ele>229.0</ele><time>2026-04-24T13:57:09Z</time></trkpt><trkpt lat="44.70576673383898" lon="10.212637258869819"><ele>229.0</ele><time>2026-04-24T13:57:10Z</time></trkpt><trkpt lat="44.70562109284133" lon="10.212563777685917"><ele>229.0</ele><time>2026-04-24T13:57:11Z</time></trkpt><trkpt lat="44.705473850491565" lon="10.212515745742085"><ele>229.0</ele><time>2026-04-24T13:57:12Z</time></trkpt><trkpt lat="44.70532507208412" lon="10.212466212092131"><ele>230.0</ele><time>2026-04-24T13:57:13Z</time></trkpt><trkpt lat="44.70518103519283" lon="10.212419227393964"><ele>231.0</ele><time>2026-04-24T13:57:14Z</time></trkpt><trkpt lat="44.70503134846602" lon="10.212394938485867"><ele>232.0</ele><time>2026-04-24T13:57:15Z</time></trkpt><trkpt lat="44.704889097175446" lon="10.212346934046936"><ele>233.0</ele><time>2026-04-24T13:57:16Z</time></trkpt><trkpt lat="44.70475179113899" lon="10.212296942722"><ele>233.0</ele><time>2026-04-24T13:57:17Z</time></trkpt><trkpt lat="44.70461492363084" lon="10.21225215955302"><ele>233.0</ele><time>2026-04-24T13:57:18Z</time></trkpt><trkpt lat="44.70447838324039" lon="10.212204259422943"><ele>233.0</ele><time>2026-04-24T13:57:19Z</time></trkpt><trkpt lat="44.70434718764245" lon="10.212142261657242"><ele>233.0</ele><time>2026-04-24T13:57:20Z</time></trkpt><trkpt lat="44.70421274144217" lon="10.212120108487433"><ele>234.75</ele><time>2026-04-24T13:57:21Z</time></trkpt><trkpt lat="44.70408549545732" lon="10.212053022960646"><ele>236.5</ele><time>2026-04-24T13:57:22Z</time></trkpt><trkpt lat="44.7039592101792" lon="10.212007999914055"><ele>238.25</ele><time>2026-04-24T13:57:23Z</time></trkpt><trkpt lat="44.703828390107674" lon="10.211985476716647"><ele>240.0</ele><time>2026-04-24T13:57:24Z</time></trkpt><trkpt lat="44.703706849435974" lon="10.211920647798848"><ele>240.0</ele><time>2026-04-24T13:57:25Z</time></trkpt><trkpt lat="44.70358168389743" lon="10.21187821880288"><ele>240.0</ele><time>2026-04-24T13:57:26Z</time></trkpt><trkpt lat="44.70345091198497" lon="10.211832295302264"><ele>240.0</ele><time>2026-04-24T13:57:27Z</time></trkpt><trkpt lat="44.70332281193085" lon="10.211789149531588"><ele>240.0</ele><time>2026-04-24T13:57:28Z</time></trkpt><trkpt lat="44.70319407285766" lon="10.2117481330618"><ele>241.25</ele><time>2026-04-24T13:57:29Z</time></trkpt><trkpt lat="44.703068069340674" lon="10.211707120658374"><ele>242.5</ele><time>2026-04-24T13:57:30Z</time></trkpt><trkpt lat="44.70294515208557" lon="10.211683208126884"><ele>243.75</ele><time>2026-04-24T13:57:31Z</time></trkpt><trkpt lat="44.70282261346419" lon="10.211644664815724"><ele>245.0</ele><time>2026-04-24T13:57:32Z</time></trkpt><trkpt lat="44.70270409034182" lon="10.211605260260189"><ele>245.5</ele><time>2026-04-24T13:57:33Z</time></trkpt><trkpt lat="44.70258729712804" lon="10.211557095451871"><ele>246.0</ele><time>2026-04-24T13:57:34Z</time></trkpt><trkpt lat="44.70246954130992" lon="10.211530855588952"><ele>246.5</ele><time>2026-04-24T13:57:35Z</time></trkpt><trkpt lat="44.70235034616389" lon="10.211493844753175"><ele>247.0</ele><time>2026-04-24T13:57:36Z</time></trkpt><trkpt lat="44.70222953944694" lon="10.211459175723814"><ele>248.0</ele><time>2026-04-24T13:57:37Z</time></trkpt><trkpt lat="44.7021088207444" lon="10.211417600288152"><ele>249.0</ele><time>2026-04-24T13:57:38Z</time></trkpt><trkpt lat="44.70198378304949" lon="10.211377917093749"><ele>250.0</ele><time>2026-04-24T13:57:39Z</time></trkpt><trkpt lat="44.701857935103796" lon="10.211334258592872"><ele>251.0</ele><time>2026-04-24T13:57:40Z</time></trkpt><trkpt lat="44.70172736168139" lon="10.211287902519436"><ele>252.25</ele><time>2026-04-24T13:57:41Z</time></trkpt><trkpt lat="44.70160081629848" lon="10.211238855232004"><ele>253.5</ele><time>2026-04-24T13:57:41.999Z</time></trkpt><trkpt lat="44.70147054562283" lon="10.211193536540355"><ele>254.75</ele><time>2026-04-24T13:57:42.999Z</time></trkpt><trkpt lat="44.70134518321823" lon="10.211138383265235"><ele>256.0</ele><time>2026-04-24T13:57:43.999Z</time></trkpt><trkpt lat="44.701225499522124" lon="10.21107968065106"><ele>256.0</ele><time>2026-04-24T13:57:44.999Z</time></trkpt><trkpt lat="44.701104968413915" lon="10.21101819128952"><ele>256.0</ele><time>2026-04-24T13:57:45.999Z</time></trkpt><trkpt lat="44.70099182390049" lon="10.210944746334562"><ele>256.0</ele><time>2026-04-24T13:57:46.999Z</time></trkpt><trkpt lat="44.700872278529395" lon="10.21087401395966"><ele>256.0</ele><time>2026-04-24T13:57:47.999Z</time></trkpt><trkpt lat="44.70075806099647" lon="10.210803490931514"><ele>258.25</ele><time>2026-04-24T13:57:48.999Z</time></trkpt><trkpt lat="44.700647001826525" lon="10.21072678038284"><ele>260.5</ele><time>2026-04-24T13:57:49.999Z</time></trkpt><trkpt lat="44.700542805208656" lon="10.210638923006014"><ele>262.75</ele><time>2026-04-24T13:57:50.999Z</time></trkpt><trkpt lat="44.70045159112708" lon="10.210521403117"><ele>265.0</ele><time>2026-04-24T13:57:51.999Z</time></trkpt><trkpt lat="44.70035965126345" lon="10.210391288406484"><ele>267.2</ele><time>2026-04-24T13:57:52.999Z</time></trkpt><trkpt lat="44.70029454289182" lon="10.210338531489649"><ele>269.4</ele><time>2026-04-24T13:57:53.999Z</time></trkpt><trkpt lat="44.700232252540296" lon="10.210217982656783"><ele>271.6</ele><time>2026-04-24T13:57:54.999Z</time></trkpt><trkpt lat="44.70016833164318" lon="10.210097589070376"><ele>273.8</ele><time>2026-04-24T13:57:55.999Z</time></trkpt><trkpt lat="44.70010315669957" lon="10.20997112238671"><ele>276.0</ele><time>2026-04-24T13:57:56.999Z</time></trkpt><trkpt lat="44.70002631930688" lon="10.209855417433328"><ele>277.40000000000003</ele><time>2026-04-24T13:57:57.999Z</time></trkpt><trkpt lat="44.6999332716169" lon="10.209765357489406"><ele>278.8</ele><time>2026-04-24T13:57:58.999Z</time></trkpt><trkpt lat="44.69982825079113" lon="10.209711075860238"><ele>280.20000000000005</ele><time>2026-04-24T13:57:59.999Z</time></trkpt><trkpt lat="44.699724633948996" lon="10.209653198765514"><ele>281.6</ele><time>2026-04-24T13:58:00.999Z</time></trkpt><trkpt lat="44.69962824818819" lon="10.209579805021763"><ele>283.0</ele><time>2026-04-24T13:58:01.999Z</time></trkpt><trkpt lat="44.699553302782284" lon="10.209465771330724"><ele>283.0</ele><time>2026-04-24T13:58:02.999Z</time></trkpt><trkpt lat="44.69948169174832" lon="10.209343197971906"><ele>283.0</ele><time>2026-04-24T13:58:03.999Z</time></trkpt><trkpt lat="44.699420057192924" lon="10.209211653568644"><ele>283.0</ele><time>2026-04-24T13:58:04.999Z</time></trkpt><trkpt lat="44.69935541561741" lon="10.209076371535042"><ele>283.0</ele><time>2026-04-24T13:58:05.999Z</time></trkpt><trkpt lat="44.699291995864364" lon="10.208945175619755"><ele>283.5</ele><time>2026-04-24T13:58:06.999Z</time></trkpt><trkpt lat="44.6992223267871" lon="10.208809744854845"><ele>284.0</ele><time>2026-04-24T13:58:07.999Z</time></trkpt><trkpt lat="44.69915461421025" lon="10.208675853019395"><ele>284.5</ele><time>2026-04-24T13:58:08.999Z</time></trkpt><trkpt lat="44.69908084996757" lon="10.208542282567693"><ele>285.0</ele><time>2026-04-24T13:58:09.999Z</time></trkpt><trkpt lat="44.699007120055576" lon="10.20840922539643"><ele>285.0</ele><time>2026-04-24T13:58:10.999Z</time></trkpt><trkpt lat="44.69893903543202" lon="10.208270947030082"><ele>285.0</ele><time>2026-04-24T13:58:11.999Z</time></trkpt><trkpt lat="44.69886762355516" lon="10.208136667087818"><ele>285.0</ele><time>2026-04-24T13:58:12.999Z</time></trkpt><trkpt lat="44.69880161313033" lon="10.20799926192018"><ele>285.0</ele><time>2026-04-24T13:58:13.999Z</time></trkpt><trkpt lat="44.69873862826439" lon="10.207855526676525"><ele>285.25</ele><time>2026-04-24T13:58:14.999Z</time></trkpt><trkpt lat="44.698677150652344" lon="10.207716868279789"><ele>285.5</ele><time>2026-04-24T13:58:15.999Z</time></trkpt><trkpt lat="44.69861983839144" lon="10.20757658574551"><ele>285.75</ele><time>2026-04-24T13:58:16.999Z</time></trkpt><trkpt lat="44.69856448418524" lon="10.207430186498705"><ele>286.0</ele><time>2026-04-24T13:58:17.999Z</time></trkpt><trkpt lat="44.69850774369479" lon="10.20728530270215"><ele>288.75</ele><time>2026-04-24T13:58:18.999Z</time></trkpt><trkpt lat="44.6984541569559" lon="10.207145520322895"><ele>291.5</ele><time>2026-04-24T13:58:19.999Z</time></trkpt><trkpt lat="44.69839364484077" lon="10.207009460721554"><ele>294.25</ele><time>2026-04-24T13:58:20.999Z</time></trkpt><trkpt lat="44.6983376262736" lon="10.206869421035618"><ele>297.0</ele><time>2026-04-24T13:58:21.999Z</time></trkpt><trkpt lat="44.698279222277826" lon="10.206730057051276"><ele>297.0</ele><time>2026-04-24T13:58:22.999Z</time></trkpt><trkpt lat="44.69821703724525" lon="10.20659280614354"><ele>297.0</ele><time>2026-04-24T13:58:23.999Z</time></trkpt><trkpt lat="44.698156495134505" lon="10.20645687796337"><ele>297.0</ele><time>2026-04-24T13:58:24.999Z</time></trkpt><trkpt lat="44.698096294936974" lon="10.206314839395416"><ele>297.0</ele><time>2026-04-24T13:58:25.999Z</time></trkpt><trkpt lat="44.698031458015485" lon="10.20617567314479"><ele>296.5</ele><time>2026-04-24T13:58:26.999Z</time></trkpt><trkpt lat="44.69796808976436" lon="10.20603486308866"><ele>296.0</ele><time>2026-04-24T13:58:27.999Z</time></trkpt><trkpt lat="44.697908571127364" lon="10.205886871546873"><ele>295.5</ele><time>2026-04-24T13:58:28.999Z</time></trkpt><trkpt lat="44.69785485386377" lon="10.205737116965704"><ele>295.0</ele><time>2026-04-24T13:58:29.999Z</time></trkpt><trkpt lat="44.69781235009964" lon="10.205585756956937"><ele>295.0</ele><time>2026-04-24T13:58:30.999Z</time></trkpt><trkpt lat="44.69777334862842" lon="10.205423861755145"><ele>295.0</ele><time>2026-04-24T13:58:31.999Z</time></trkpt><trkpt lat="44.697729122948616" lon="10.205260308040213"><ele>295.0</ele><time>2026-04-24T13:58:32.998Z</time></trkpt><trkpt lat="44.69769362988543" lon="10.205104870423797"><ele>295.0</ele><time>2026-04-24T13:58:33.998Z</time></trkpt><trkpt lat="44.697668786548284" lon="10.20496421111227"><ele>296.0</ele><time>2026-04-24T13:58:34.998Z</time></trkpt><trkpt lat="44.69764835956912" lon="10.204839666040243"><ele>297.0</ele><time>2026-04-24T13:58:35.998Z</time></trkpt><trkpt lat="44.69762984032362" lon="10.204714250202857"><ele>298.0</ele><time>2026-04-24T13:58:36.998Z</time></trkpt><trkpt lat="44.697613861543054" lon="10.204596461160913"><ele>299.0</ele><time>2026-04-24T13:58:37.998Z</time></trkpt><trkpt lat="44.69758980816185" lon="10.204477971384478"><ele>300.0</ele><time>2026-04-24T13:58:38.998Z</time></trkpt><trkpt lat="44.69756162183642" lon="10.204347503219958"><ele>300.0</ele><time>2026-04-24T13:58:39.998Z</time></trkpt><trkpt lat="44.69753302947813" lon="10.204207990926191"><ele>300.0</ele><time>2026-04-24T13:58:40.998Z</time></trkpt><trkpt lat="44.697489556601596" lon="10.204068628302894"><ele>300.0</ele><time>2026-04-24T13:58:41.998Z</time></trkpt><trkpt lat="44.697439573589364" lon="10.20393285647141"><ele>300.0</ele><time>2026-04-24T13:58:42.998Z</time></trkpt><trkpt lat="44.69737300184324" lon="10.203801779187284"><ele>300.0</ele><time>2026-04-24T13:58:43.998Z</time></trkpt><trkpt lat="44.69727618376757" lon="10.203696464648605"><ele>297.0</ele><time>2026-04-24T13:58:44.998Z</time></trkpt><trkpt lat="44.69718321743154" lon="10.203595592990476"><ele>294.0</ele><time>2026-04-24T13:58:45.998Z</time></trkpt><trkpt lat="44.69709191671944" lon="10.203493904068585"><ele>291.0</ele><time>2026-04-24T13:58:46.998Z</time></trkpt><trkpt lat="44.69700639253375" lon="10.203383992919974"><ele>288.0</ele><time>2026-04-24T13:58:47.998Z</time></trkpt><trkpt lat="44.69693306578918" lon="10.203255411576093"><ele>288.75</ele><time>2026-04-24T13:58:48.998Z</time></trkpt><trkpt lat="44.69687620141116" lon="10.20311735388017"><ele>289.5</ele><time>2026-04-24T13:58:49.998Z</time></trkpt><trkpt lat="44.696832183689594" lon="10.202965475537718"><ele>290.25</ele><time>2026-04-24T13:58:50.998Z</time></trkpt><trkpt lat="44.69679355058962" lon="10.202809581378776"><ele>291.0</ele><time>2026-04-24T13:58:52Z</time></trkpt><trkpt lat="44.696750859242194" lon="10.20266209052293"><ele>291.0</ele><time>2026-04-24T13:58:53Z</time></trkpt><trkpt lat="44.69669915114569" lon="10.202521315228225"><ele>291.0</ele><time>2026-04-24T13:58:54Z</time></trkpt><trkpt lat="44.69662416389315" lon="10.202394696180882"><ele>291.0</ele><time>2026-04-24T13:58:55Z</time></trkpt><trkpt lat="44.69653835264468" lon="10.202276325996253"><ele>291.0</ele><time>2026-04-24T13:58:56Z</time></trkpt><trkpt lat="44.69645596134509" lon="10.202159850685256"><ele>291.2</ele><time>2026-04-24T13:58:57Z</time></trkpt><trkpt lat="44.696382571288524" lon="10.20204774738844"><ele>291.40000000000003</ele><time>2026-04-24T13:58:58Z</time></trkpt><trkpt lat="44.696323843103634" lon="10.201935001720901"><ele>291.6</ele><time>2026-04-24T13:58:59Z</time></trkpt><trkpt lat="44.69629431320431" lon="10.201810515483325"><ele>291.8</ele><time>2026-04-24T13:59:00Z</time></trkpt><trkpt lat="44.696298998780506" lon="10.201672827417296"><ele>292.0</ele><time>2026-04-24T13:59:01Z</time></trkpt><trkpt lat="44.696324474052425" lon="10.201541728471003"><ele>293.4</ele><time>2026-04-24T13:59:02Z</time></trkpt><trkpt lat="44.69635630556545" lon="10.20141052419595"><ele>294.79999999999995</ele><time>2026-04-24T13:59:03Z</time></trkpt><trkpt lat="44.69639637736743" lon="10.201285112523584"><ele>296.2</ele><time>2026-04-24T13:59:04Z</time></trkpt><trkpt lat="44.6964512732823" lon="10.201168835683015"><ele>297.59999999999997</ele><time>2026-04-24T13:59:05Z</time></trkpt><trkpt lat="44.696509984682365" lon="10.201041858918552"><ele>299.0</ele><time>2026-04-24T13:59:06Z</time></trkpt><trkpt lat="44.69657434630559" lon="10.200918104544582"><ele>299.0</ele><time>2026-04-24T13:59:07Z</time></trkpt><trkpt lat="44.69664338117013" lon="10.200790996365178"><ele>299.0</ele><time>2026-04-24T13:59:08Z</time></trkpt><trkpt lat="44.69670454204235" lon="10.200667319358592"><ele>299.0</ele><time>2026-04-24T13:59:09Z</time></trkpt><trkpt lat="44.69675263142577" lon="10.20055096084973"><ele>299.0</ele><time>2026-04-24T13:59:10Z</time></trkpt><trkpt lat="44.696794858474" lon="10.20042737101637"><ele>299.0</ele><time>2026-04-24T13:59:11Z</time></trkpt><trkpt lat="44.69682362958512" lon="10.200288163712463"><ele>298.5</ele><time>2026-04-24T13:59:12Z</time></trkpt><trkpt lat="44.69683134521268" lon="10.200134752470337"><ele>298.0</ele><time>2026-04-24T13:59:13Z</time></trkpt><trkpt lat="44.69682554786479" lon="10.199977809728589"><ele>297.5</ele><time>2026-04-24T13:59:14Z</time></trkpt><trkpt lat="44.696817209621585" lon="10.199819706119003"><ele>297.0</ele><time>2026-04-24T13:59:15Z</time></trkpt><trkpt lat="44.69680647924572" lon="10.199653897134434"><ele>295.75</ele><time>2026-04-24T13:59:16Z</time></trkpt><trkpt lat="44.696796532869755" lon="10.199483715851297"><ele>294.5</ele><time>2026-04-24T13:59:17Z</time></trkpt><trkpt lat="44.69679665941519" lon="10.199313355141564"><ele>293.25</ele><time>2026-04-24T13:59:18Z</time></trkpt><trkpt lat="44.69680090079936" lon="10.19915742131718"><ele>292.0</ele><time>2026-04-24T13:59:19Z</time></trkpt><trkpt lat="44.69679992581613" lon="10.199011818031803"><ele>292.4</ele><time>2026-04-24T13:59:20Z</time></trkpt><trkpt lat="44.69680440625425" lon="10.198870026985837"><ele>292.79999999999995</ele><time>2026-04-24T13:59:21Z</time></trkpt><trkpt lat="44.6968341480612" lon="10.198736750037838"><ele>293.2</ele><time>2026-04-24T13:59:22Z</time></trkpt><trkpt lat="44.696891515283134" lon="10.198618204527188"><ele>293.59999999999997</ele><time>2026-04-24T13:59:23Z</time></trkpt><trkpt lat="44.69697394195044" lon="10.19853627605636"><ele>294.0</ele><time>2026-04-24T13:59:24Z</time></trkpt><trkpt lat="44.69707195749734" lon="10.198479261400372"><ele>292.0</ele><time>2026-04-24T13:59:25Z</time></trkpt><trkpt lat="44.697173397676295" lon="10.198425972688296"><ele>290.0</ele><time>2026-04-24T13:59:26Z</time></trkpt><trkpt lat="44.69726120226916" lon="10.198363433858196"><ele>288.0</ele><time>2026-04-24T13:59:27Z</time></trkpt><trkpt lat="44.69732477225383" lon="10.198282965876588"><ele>286.0</ele><time>2026-04-24T13:59:28Z</time></trkpt><trkpt lat="44.69733476781013" lon="10.198159309272741"><ele>284.0</ele><time>2026-04-24T13:59:30Z</time></trkpt><trkpt lat="44.69727822670315" lon="10.198055064679306"><ele>284.0</ele><time>2026-04-24T13:59:40Z</time></trkpt><trkpt lat="44.69721407464307" lon="10.197991180419105"><ele>284.0</ele><time>2026-04-24T13:59:41Z</time></trkpt><trkpt lat="44.69713363673722" lon="10.197955490315108"><ele>284.0</ele><time>2026-04-24T13:59:42Z</time></trkpt><trkpt lat="44.69703483148314" lon="10.19793383043793"><ele>284.0</ele><time>2026-04-24T13:59:43Z</time></trkpt><trkpt lat="44.69692943339256" lon="10.197910547529572"><ele>284.0</ele><time>2026-04-24T13:59:44Z</time></trkpt><trkpt lat="44.69682193178263" lon="10.197882643594959"><ele>284.0</ele><time>2026-04-24T13:59:45Z</time></trkpt><trkpt lat="44.696709329109346" lon="10.19786059835018"><ele>284.0</ele><time>2026-04-24T13:59:46Z</time></trkpt><trkpt lat="44.69659487082066" lon="10.197831298904775"><ele>284.0</ele><time>2026-04-24T13:59:47Z</time></trkpt><trkpt lat="44.696478550067624" lon="10.197799954320145"><ele>284.0</ele><time>2026-04-24T13:59:48Z</time></trkpt><trkpt lat="44.69636696360624" lon="10.197759044728107"><ele>284.0</ele><time>2026-04-24T13:59:49Z</time></trkpt><trkpt lat="44.69625674088416" lon="10.197713975329245"><ele>284.0</ele><time>2026-04-24T13:59:50Z</time></trkpt><trkpt lat="44.69615201771703" lon="10.197660080438277"><ele>284.0</ele><time>2026-04-24T13:59:51Z</time></trkpt><trkpt lat="44.69604722523384" lon="10.197606579626603"><ele>284.0</ele><time>2026-04-24T13:59:51.999Z</time></trkpt><trkpt lat="44.695938655586055" lon="10.197558082509016"><ele>283.59999999999997</ele><time>2026-04-24T13:59:52.999Z</time></trkpt><trkpt lat="44.69584095289532" lon="10.19750846186405"><ele>283.2</ele><time>2026-04-24T13:59:53.999Z</time></trkpt><trkpt lat="44.69575374729938" lon="10.197457775432026"><ele>282.79999999999995</ele><time>2026-04-24T13:59:54.999Z</time></trkpt><trkpt lat="44.69567719102477" lon="10.197384549990351"><ele>282.4</ele><time>2026-04-24T13:59:55.999Z</time></trkpt><trkpt lat="44.69561726727125" lon="10.197284865110912"><ele>282.0</ele><time>2026-04-24T13:59:56.999Z</time></trkpt><trkpt lat="44.69557602417366" lon="10.197156649093888"><ele>282.0</ele><time>2026-04-24T13:59:57.999Z</time></trkpt><trkpt lat="44.69554918149489" lon="10.19701943810324"><ele>282.0</ele><time>2026-04-24T13:59:58.999Z</time></trkpt><trkpt lat="44.695537111886786" lon="10.19689683626078"><ele>282.0</ele><time>2026-04-24T13:59:59.999Z</time></trkpt><trkpt lat="44.69554369466559" lon="10.196783959533233"><ele>282.0</ele><time>2026-04-24T14:00:00.999Z</time></trkpt><trkpt lat="44.695554402123534" lon="10.196673704779409"><ele>282.0</ele><time>2026-04-24T14:00:01.999Z</time></trkpt><trkpt lat="44.6955501706012" lon="10.19654635856354"><ele>282.0</ele><time>2026-04-24T14:00:02.999Z</time></trkpt><trkpt lat="44.69551148898873" lon="10.196431680848153"><ele>282.0</ele><time>2026-04-24T14:00:03.999Z</time></trkpt><trkpt lat="44.69542983467409" lon="10.196329387087252"><ele>282.0</ele><time>2026-04-24T14:00:04.999Z</time></trkpt><trkpt lat="44.69533354868355" lon="10.196208483299808"><ele>282.0</ele><time>2026-04-24T14:00:05.999Z</time></trkpt><trkpt lat="44.69524761904223" lon="10.196063341474423"><ele>282.0</ele><time>2026-04-24T14:00:06.999Z</time></trkpt><trkpt lat="44.695158877675226" lon="10.195887109804408"><ele>282.0</ele><time>2026-04-24T14:00:07.999Z</time></trkpt><trkpt lat="44.695064095662396" lon="10.195697969379092"><ele>282.0</ele><time>2026-04-24T14:00:08.999Z</time></trkpt><trkpt lat="44.694968532758786" lon="10.19550899680778"><ele>282.0</ele><time>2026-04-24T14:00:09.999Z</time></trkpt><trkpt lat="44.69488411389546" lon="10.195337930999045"><ele>280.25</ele><time>2026-04-24T14:00:10.999Z</time></trkpt><trkpt lat="44.69480612000969" lon="10.195175033552657"><ele>278.5</ele><time>2026-04-24T14:00:11.999Z</time></trkpt><trkpt lat="44.69473062510668" lon="10.19501128032896"><ele>276.75</ele><time>2026-04-24T14:00:12.999Z</time></trkpt><trkpt lat="44.694652011334924" lon="10.194851221826788"><ele>275.0</ele><time>2026-04-24T14:00:13.999Z</time></trkpt><trkpt lat="44.69457674428309" lon="10.194687543305651"><ele>273.75</ele><time>2026-04-24T14:00:14.999Z</time></trkpt><trkpt lat="44.694515038960986" lon="10.19451813199926"><ele>272.5</ele><time>2026-04-24T14:00:15.999Z</time></trkpt><trkpt lat="44.69446434491325" lon="10.19434945586012"><ele>271.25</ele><time>2026-04-24T14:00:16.999Z</time></trkpt><trkpt lat="44.694422666979314" lon="10.194171416519426"><ele>270.0</ele><time>2026-04-24T14:00:17.999Z</time></trkpt><trkpt lat="44.69437949602543" lon="10.193991899384597"><ele>274.75</ele><time>2026-04-24T14:00:18.999Z</time></trkpt><trkpt lat="44.69434269465332" lon="10.193812036494073"><ele>279.5</ele><time>2026-04-24T14:00:19.999Z</time></trkpt><trkpt lat="44.69430892093616" lon="10.193630592248304"><ele>284.25</ele><time>2026-04-24T14:00:20.999Z</time></trkpt><trkpt lat="44.694283141060616" lon="10.19347027139636"><ele>289.0</ele><time>2026-04-24T14:00:21.999Z</time></trkpt><trkpt lat="44.69424520016583" lon="10.193317150979608"><ele>289.0</ele><time>2026-04-24T14:00:22.999Z</time></trkpt><trkpt lat="44.694175826934654" lon="10.193182118078353"><ele>289.0</ele><time>2026-04-24T14:00:23.999Z</time></trkpt><trkpt lat="44.6940919292633" lon="10.193051832970193"><ele>289.0</ele><time>2026-04-24T14:00:24.999Z</time></trkpt><trkpt lat="44.6940303023834" lon="10.192915219320879"><ele>289.0</ele><time>2026-04-24T14:00:25.999Z</time></trkpt><trkpt lat="44.693958197326765" lon="10.192785499041879"><ele>288.8</ele><time>2026-04-24T14:00:26.999Z</time></trkpt><trkpt lat="44.69389962669403" lon="10.1926442323553"><ele>288.59999999999997</ele><time>2026-04-24T14:00:27.999Z</time></trkpt><trkpt lat="44.69387176584335" lon="10.192499362594988"><ele>288.4</ele><time>2026-04-24T14:00:28.999Z</time></trkpt><trkpt lat="44.69386611308504" lon="10.19235387350566"><ele>288.2</ele><time>2026-04-24T14:00:29.999Z</time></trkpt><trkpt lat="44.6938598667594" lon="10.192189206440435"><ele>288.0</ele><time>2026-04-24T14:00:30.999Z</time></trkpt><trkpt lat="44.693825894747796" lon="10.19202163010418"><ele>287.75</ele><time>2026-04-24T14:00:31.999Z</time></trkpt><trkpt lat="44.69379082930965" lon="10.191857071704234"><ele>287.5</ele><time>2026-04-24T14:00:32.999Z</time></trkpt><trkpt lat="44.69372945636878" lon="10.19170264506122"><ele>287.25</ele><time>2026-04-24T14:00:33.999Z</time></trkpt><trkpt lat="44.69364786934224" lon="10.19156973113084"><ele>287.0</ele><time>2026-04-24T14:00:34.999Z</time></trkpt><trkpt lat="44.69356939248272" lon="10.191439675763409"><ele>289.0</ele><time>2026-04-24T14:00:35.999Z</time></trkpt><trkpt lat="44.69349652736773" lon="10.191320048431082"><ele>291.0</ele><time>2026-04-24T14:00:36.999Z</time></trkpt><trkpt lat="44.6934255234496" lon="10.191203476741014"><ele>293.0</ele><time>2026-04-24T14:00:37.999Z</time></trkpt><trkpt lat="44.69335240460999" lon="10.191084988257654"><ele>295.0</ele><time>2026-04-24T14:00:38.999Z</time></trkpt><trkpt lat="44.69328522985822" lon="10.190976808889378"><ele>297.0</ele><time>2026-04-24T14:00:39.999Z</time></trkpt><trkpt lat="44.69321551025026" lon="10.190862511732483"><ele>297.0</ele><time>2026-04-24T14:00:40.999Z</time></trkpt><trkpt lat="44.69313048413052" lon="10.190758478974567"><ele>297.0</ele><time>2026-04-24T14:00:41.998Z</time></trkpt><trkpt lat="44.69302390381037" lon="10.190694821954512"><ele>297.0</ele><time>2026-04-24T14:00:42.998Z</time></trkpt><trkpt lat="44.69291835297157" lon="10.190645322132406"><ele>297.0</ele><time>2026-04-24T14:00:43.998Z</time></trkpt><trkpt lat="44.692809257899995" lon="10.190621260293755"><ele>295.0</ele><time>2026-04-24T14:00:44.998Z</time></trkpt><trkpt lat="44.692686113059644" lon="10.190609890851185"><ele>293.0</ele><time>2026-04-24T14:00:45.998Z</time></trkpt><trkpt lat="44.69256883616089" lon="10.190556956284043"><ele>291.0</ele><time>2026-04-24T14:00:46.998Z</time></trkpt><trkpt lat="44.69245185735484" lon="10.190522426530444"><ele>289.0</ele><time>2026-04-24T14:00:47.998Z</time></trkpt><trkpt lat="44.692340396524365" lon="10.190485006580818"><ele>289.0</ele><time>2026-04-24T14:00:48.998Z</time></trkpt><trkpt lat="44.69223022461997" lon="10.190438572131846"><ele>289.0</ele><time>2026-04-24T14:00:49.998Z</time></trkpt><trkpt lat="44.692136513744074" lon="10.190367073827918"><ele>289.0</ele><time>2026-04-24T14:00:50.998Z</time></trkpt><trkpt lat="44.69206347208602" lon="10.190261007898778"><ele>289.0</ele><time>2026-04-24T14:00:51.998Z</time></trkpt><trkpt lat="44.69202400905976" lon="10.190126718655536"><ele>289.0</ele><time>2026-04-24T14:00:52.998Z</time></trkpt><trkpt lat="44.69199325298446" lon="10.189975587494033"><ele>288.0</ele><time>2026-04-24T14:00:53.998Z</time></trkpt><trkpt lat="44.69195267325882" lon="10.189838251983073"><ele>287.0</ele><time>2026-04-24T14:00:54.998Z</time></trkpt><trkpt lat="44.691872448087096" lon="10.189730933597675"><ele>286.0</ele><time>2026-04-24T14:00:55.998Z</time></trkpt><trkpt lat="44.69177764094134" lon="10.18965133139388"><ele>285.0</ele><time>2026-04-24T14:00:56.998Z</time></trkpt><trkpt lat="44.69166075520712" lon="10.189612439613777"><ele>284.0</ele><time>2026-04-24T14:00:58.001Z</time></trkpt><trkpt lat="44.69155693060681" lon="10.18953199700672"><ele>284.0</ele><time>2026-04-24T14:00:59.001Z</time></trkpt><trkpt lat="44.69145748200376" lon="10.189465135988753"><ele>284.0</ele><time>2026-04-24T14:01:00.001Z</time></trkpt><trkpt lat="44.69136890760083" lon="10.189391022183697"><ele>284.0</ele><time>2026-04-24T14:01:01.001Z</time></trkpt><trkpt lat="44.6912874809784" lon="10.18930712463655"><ele>284.0</ele><time>2026-04-24T14:01:02.001Z</time></trkpt><trkpt lat="44.691204016060595" lon="10.189207655855938"><ele>284.0</ele><time>2026-04-24T14:01:03.001Z</time></trkpt><trkpt lat="44.691132472918554" lon="10.189102396554725"><ele>284.59999999999997</ele><time>2026-04-24T14:01:04.001Z</time></trkpt><trkpt lat="44.691063448717614" lon="10.188977734123155"><ele>285.2</ele><time>2026-04-24T14:01:05.001Z</time></trkpt><trkpt lat="44.69100054081471" lon="10.188840798499127"><ele>285.79999999999995</ele><time>2026-04-24T14:01:06.001Z</time></trkpt><trkpt lat="44.69094433452475" lon="10.188714401220981"><ele>286.4</ele><time>2026-04-24T14:01:07.001Z</time></trkpt><trkpt lat="44.69089700772414" lon="10.18859620863991"><ele>287.0</ele><time>2026-04-24T14:01:08.001Z</time></trkpt><trkpt lat="44.69086222113769" lon="10.188470496113599"><ele>287.0</ele><time>2026-04-24T14:01:09Z</time></trkpt><trkpt lat="44.69084149402963" lon="10.188325599106706"><ele>287.0</ele><time>2026-04-24T14:01:10Z</time></trkpt><trkpt lat="44.690852892800045" lon="10.188180083041956"><ele>287.0</ele><time>2026-04-24T14:01:11Z</time></trkpt><trkpt lat="44.69086655277982" lon="10.188033873215566"><ele>287.0</ele><time>2026-04-24T14:01:12Z</time></trkpt><trkpt lat="44.690861786199775" lon="10.187886107763227"><ele>287.0</ele><time>2026-04-24T14:01:13Z</time></trkpt><trkpt lat="44.690864821512584" lon="10.187736455295427"><ele>288.2</ele><time>2026-04-24T14:01:14Z</time></trkpt><trkpt lat="44.69085645188477" lon="10.18758532507922"><ele>289.4</ele><time>2026-04-24T14:01:15Z</time></trkpt><trkpt lat="44.690827573857966" lon="10.187437472245927"><ele>290.6</ele><time>2026-04-24T14:01:16Z</time></trkpt><trkpt lat="44.690780676712635" lon="10.187293306627875"><ele>291.8</ele><time>2026-04-24T14:01:17Z</time></trkpt><trkpt lat="44.69074844276493" lon="10.187136188163198"><ele>293.0</ele><time>2026-04-24T14:01:18Z</time></trkpt><trkpt lat="44.6907042790606" lon="10.18698651290815"><ele>293.2</ele><time>2026-04-24T14:01:19Z</time></trkpt><trkpt lat="44.69067422379998" lon="10.186840108938117"><ele>293.4</ele><time>2026-04-24T14:01:20Z</time></trkpt><trkpt lat="44.69063378038211" lon="10.18669749066611"><ele>293.59999999999997</ele><time>2026-04-24T14:01:21Z</time></trkpt><trkpt lat="44.69060605251546" lon="10.186551987787078"><ele>293.8</ele><time>2026-04-24T14:01:22Z</time></trkpt><trkpt lat="44.69056187554193" lon="10.186439041873642"><ele>294.0</ele><time>2026-04-24T14:01:23Z</time></trkpt><trkpt lat="44.69049493269622" lon="10.18636380277639"><ele>292.59999999999997</ele><time>2026-04-24T14:01:24Z</time></trkpt><trkpt lat="44.69042511438592" lon="10.186298092803503"><ele>291.2</ele><time>2026-04-24T14:01:25Z</time></trkpt><trkpt lat="44.690314079806306" lon="10.186333646298385"><ele>289.79999999999995</ele><time>2026-04-24T14:01:26Z</time></trkpt><trkpt lat="44.6902068659605" lon="10.186341956464224"><ele>288.4</ele><time>2026-04-24T14:01:27Z</time></trkpt><trkpt lat="44.69009064275354" lon="10.186356858107638"><ele>287.0</ele><time>2026-04-24T14:01:28Z</time></trkpt><trkpt lat="44.68997544949839" lon="10.18636998088674"><ele>286.75</ele><time>2026-04-24T14:01:29Z</time></trkpt><trkpt lat="44.68985428123675" lon="10.186380226415169"><ele>286.5</ele><time>2026-04-24T14:01:30Z</time></trkpt><trkpt lat="44.68973534587513" lon="10.186388329907556"><ele>286.25</ele><time>2026-04-24T14:01:31Z</time></trkpt><trkpt lat="44.689620350381574" lon="10.186390177428072"><ele>286.0</ele><time>2026-04-24T14:01:32Z</time></trkpt><trkpt lat="44.68950970593989" lon="10.186374525794823"><ele>286.40000000000003</ele><time>2026-04-24T14:01:33Z</time></trkpt><trkpt lat="44.68939947287437" lon="10.186341613341071"><ele>286.8</ele><time>2026-04-24T14:01:34Z</time></trkpt><trkpt lat="44.689300560755235" lon="10.18629054102933"><ele>287.20000000000005</ele><time>2026-04-24T14:01:35Z</time></trkpt><trkpt lat="44.68920732061108" lon="10.186237252040895"><ele>287.6</ele><time>2026-04-24T14:01:36Z</time></trkpt><trkpt lat="44.68911699693844" lon="10.186176008853153"><ele>288.0</ele><time>2026-04-24T14:01:37Z</time></trkpt><trkpt lat="44.68903067352637" lon="10.1861020567248"><ele>288.0</ele><time>2026-04-24T14:01:38Z</time></trkpt><trkpt lat="44.68895871876296" lon="10.186019488568535"><ele>288.0</ele><time>2026-04-24T14:01:39Z</time></trkpt><trkpt lat="44.688899858398045" lon="10.185915699975073"><ele>288.0</ele><time>2026-04-24T14:01:40Z</time></trkpt><trkpt lat="44.68884368627708" lon="10.185804607529246"><ele>288.0</ele><time>2026-04-24T14:01:41Z</time></trkpt><trkpt lat="44.688786364376654" lon="10.18568902923614"><ele>288.0</ele><time>2026-04-24T14:01:42Z</time></trkpt><trkpt lat="44.68872310829309" lon="10.18558802166332"><ele>286.4</ele><time>2026-04-24T14:01:43Z</time></trkpt><trkpt lat="44.68863931084501" lon="10.185506786306235"><ele>284.8</ele><time>2026-04-24T14:01:44Z</time></trkpt><trkpt lat="44.68853656850793" lon="10.185451391196617"><ele>283.2</ele><time>2026-04-24T14:01:45Z</time></trkpt><trkpt lat="44.68842659027781" lon="10.18539284006164"><ele>281.6</ele><time>2026-04-24T14:01:46Z</time></trkpt><trkpt lat="44.688326232084954" lon="10.185340578570706"><ele>280.0</ele><time>2026-04-24T14:01:47Z</time></trkpt><trkpt lat="44.68822968680074" lon="10.185292143172168"><ele>280.0</ele><time>2026-04-24T14:01:48Z</time></trkpt><trkpt lat="44.688134492236344" lon="10.18525680014172"><ele>280.0</ele><time>2026-04-24T14:01:49Z</time></trkpt><trkpt lat="44.68802318166724" lon="10.185242588474644"><ele>280.0</ele><time>2026-04-24T14:01:50Z</time></trkpt><trkpt lat="44.6879146376277" lon="10.185250436676734"><ele>280.0</ele><time>2026-04-24T14:01:51Z</time></trkpt><trkpt lat="44.68779768109648" lon="10.185224429396168"><ele>280.0</ele><time>2026-04-24T14:01:52Z</time></trkpt><trkpt lat="44.687681734363075" lon="10.185266482783646"><ele>281.66666666666663</ele><time>2026-04-24T14:01:53Z</time></trkpt><trkpt lat="44.687579096271094" lon="10.185262442251846"><ele>283.3333333333333</ele><time>2026-04-24T14:01:54Z</time></trkpt><trkpt lat="44.687489591917384" lon="10.185267510654697"><ele>285.0</ele><time>2026-04-24T14:01:55Z</time></trkpt><trkpt lat="44.687421752989366" lon="10.185217762421681"><ele>286.6666666666667</ele><time>2026-04-24T14:01:56Z</time></trkpt><trkpt lat="44.687356662993416" lon="10.185163725625927"><ele>288.33333333333337</ele><time>2026-04-24T14:01:57Z</time></trkpt><trkpt lat="44.687320918878946" lon="10.185050073361584"><ele>290.0</ele><time>2026-04-24T14:01:58Z</time></trkpt><trkpt lat="44.687284752428766" lon="10.184934988523617"><ele>288.4</ele><time>2026-04-24T14:01:58.999Z</time></trkpt><trkpt lat="44.687221636504574" lon="10.184842426726071"><ele>286.8</ele><time>2026-04-24T14:01:59.999Z</time></trkpt><trkpt lat="44.68716347493895" lon="10.184744447327875"><ele>285.2</ele><time>2026-04-24T14:02:00.999Z</time></trkpt><trkpt lat="44.68710710045336" lon="10.184628918478243"><ele>283.6</ele><time>2026-04-24T14:02:01.999Z</time></trkpt><trkpt lat="44.68703108969268" lon="10.184523807630804"><ele>282.0</ele><time>2026-04-24T14:02:02.999Z</time></trkpt><trkpt lat="44.686949682700906" lon="10.184418362806339"><ele>284.75</ele><time>2026-04-24T14:02:03.999Z</time></trkpt><trkpt lat="44.68686497822237" lon="10.184308582094939"><ele>287.5</ele><time>2026-04-24T14:02:04.999Z</time></trkpt><trkpt lat="44.68678121395588" lon="10.18419063925471"><ele>290.25</ele><time>2026-04-24T14:02:05.999Z</time></trkpt><trkpt lat="44.68668711508028" lon="10.184084969966237"><ele>293.0</ele><time>2026-04-24T14:02:06.999Z</time></trkpt><trkpt lat="44.68659980231436" lon="10.183988332532815"><ele>294.2</ele><time>2026-04-24T14:02:07.999Z</time></trkpt><trkpt lat="44.68652433974163" lon="10.183890337512677"><ele>295.4</ele><time>2026-04-24T14:02:08.999Z</time></trkpt><trkpt lat="44.68645935703974" lon="10.183779307111443"><ele>296.59999999999997</ele><time>2026-04-24T14:02:09.999Z</time></trkpt><trkpt lat="44.68640915832851" lon="10.183657760467536"><ele>297.8</ele><time>2026-04-24T14:02:10.999Z</time></trkpt><trkpt lat="44.686362509380515" lon="10.183527296082325"><ele>299.0</ele><time>2026-04-24T14:02:11.999Z</time></trkpt><trkpt lat="44.68630207443602" lon="10.183400444434323"><ele>299.0</ele><time>2026-04-24T14:02:12.999Z</time></trkpt><trkpt lat="44.68625388906016" lon="10.18326804094921"><ele>299.0</ele><time>2026-04-24T14:02:13.999Z</time></trkpt><trkpt lat="44.68621941223055" lon="10.183125266156463"><ele>299.0</ele><time>2026-04-24T14:02:14.999Z</time></trkpt><trkpt lat="44.68616097447691" lon="10.183004677723233"><ele>299.0</ele><time>2026-04-24T14:02:15.999Z</time></trkpt><trkpt lat="44.686105917823504" lon="10.182880589278714"><ele>299.0</ele><time>2026-04-24T14:02:16.999Z</time></trkpt><trkpt lat="44.68607158884013" lon="10.182734848920838"><ele>302.75</ele><time>2026-04-24T14:02:17.999Z</time></trkpt><trkpt lat="44.68602531465159" lon="10.182596153467722"><ele>306.5</ele><time>2026-04-24T14:02:18.999Z</time></trkpt><trkpt lat="44.68597525043573" lon="10.18244203751928"><ele>310.25</ele><time>2026-04-24T14:02:19.999Z</time></trkpt><trkpt lat="44.68591751666244" lon="10.182270975413523"><ele>314.0</ele><time>2026-04-24T14:02:20.999Z</time></trkpt><trkpt lat="44.68584704955399" lon="10.182101675430221"><ele>315.5</ele><time>2026-04-24T14:02:21.999Z</time></trkpt><trkpt lat="44.68575217178691" lon="10.18196972740538"><ele>317.0</ele><time>2026-04-24T14:02:22.999Z</time></trkpt><trkpt lat="44.68566009275859" lon="10.181839334969261"><ele>318.5</ele><time>2026-04-24T14:02:23.999Z</time></trkpt><trkpt lat="44.68555327525418" lon="10.18171850018628"><ele>320.0</ele><time>2026-04-24T14:02:24.999Z</time></trkpt><trkpt lat="44.685449140140975" lon="10.181592933193556"><ele>320.0</ele><time>2026-04-24T14:02:25.999Z</time></trkpt><trkpt lat="44.6853522953609" lon="10.181447452453876"><ele>320.0</ele><time>2026-04-24T14:02:26.999Z</time></trkpt><trkpt lat="44.68524271222697" lon="10.181334570197938"><ele>320.0</ele><time>2026-04-24T14:02:27.999Z</time></trkpt><trkpt lat="44.685143735790454" lon="10.181213067575325"><ele>320.0</ele><time>2026-04-24T14:02:28.999Z</time></trkpt><trkpt lat="44.68505937149972" lon="10.181102253520388"><ele>322.4</ele><time>2026-04-24T14:02:29.999Z</time></trkpt><trkpt lat="44.68496248425957" lon="10.181030776616682"><ele>324.8</ele><time>2026-04-24T14:02:30.999Z</time></trkpt><trkpt lat="44.684874138752804" lon="10.180967448142264"><ele>327.20000000000005</ele><time>2026-04-24T14:02:31.999Z</time></trkpt><trkpt lat="44.6848023776093" lon="10.180887073036821"><ele>329.6</ele><time>2026-04-24T14:02:32.999Z</time></trkpt><trkpt lat="44.68473698493208" lon="10.180827219586915"><ele>332.0</ele><time>2026-04-24T14:02:33.999Z</time></trkpt><trkpt lat="44.68466417047396" lon="10.180758468065875"><ele>332.40000000000003</ele><time>2026-04-24T14:02:34.999Z</time></trkpt><trkpt lat="44.68463857150021" lon="10.18062043156926"><ele>332.8</ele><time>2026-04-24T14:02:35.999Z</time></trkpt><trkpt lat="44.684573196854565" lon="10.1805086414747"><ele>333.2</ele><time>2026-04-24T14:02:36.999Z</time></trkpt><trkpt lat="44.6845193674174" lon="10.18038725312613"><ele>333.6</ele><time>2026-04-24T14:02:37.999Z</time></trkpt><trkpt lat="44.68444237203239" lon="10.180300979108251"><ele>334.0</ele><time>2026-04-24T14:02:38.999Z</time></trkpt><trkpt lat="44.68434005429806" lon="10.180260747065573"><ele>332.4</ele><time>2026-04-24T14:02:39.999Z</time></trkpt><trkpt lat="44.68424551507489" lon="10.180193974318167"><ele>330.79999999999995</ele><time>2026-04-24T14:02:40.999Z</time></trkpt><trkpt lat="44.68415065200256" lon="10.180116609986008"><ele>329.20000000000005</ele><time>2026-04-24T14:02:41.999Z</time></trkpt><trkpt lat="44.68405010593387" lon="10.180031968673942"><ele>327.6</ele><time>2026-04-24T14:02:42.999Z</time></trkpt><trkpt lat="44.68395197807977" lon="10.179948448812636"><ele>326.0</ele><time>2026-04-24T14:02:43.999Z</time></trkpt><trkpt lat="44.68386399475471" lon="10.17986958434963"><ele>325.0</ele><time>2026-04-24T14:02:44.999Z</time></trkpt><trkpt lat="44.68377624878829" lon="10.179781862519183"><ele>324.0</ele><time>2026-04-24T14:02:45.999Z</time></trkpt><trkpt lat="44.68368701429742" lon="10.179700750378945"><ele>323.0</ele><time>2026-04-24T14:02:46.999Z</time></trkpt><trkpt lat="44.683619071283566" lon="10.179599334879509"><ele>322.0</ele><time>2026-04-24T14:02:47.999Z</time></trkpt><trkpt lat="44.683576338669106" lon="10.179500006691248"><ele>321.0</ele><time>2026-04-24T14:02:48.999Z</time></trkpt><trkpt lat="44.68355524566873" lon="10.179372732142484"><ele>321.0</ele><time>2026-04-24T14:02:49.997Z</time></trkpt><trkpt lat="44.683511841458774" lon="10.17924379048153"><ele>321.0</ele><time>2026-04-24T14:02:50.997Z</time></trkpt><trkpt lat="44.683483084452206" lon="10.179105982826552"><ele>321.0</ele><time>2026-04-24T14:02:51.997Z</time></trkpt><trkpt lat="44.68344824127578" lon="10.178972487434661"><ele>321.0</ele><time>2026-04-24T14:02:52.997Z</time></trkpt><trkpt lat="44.68339284467521" lon="10.178840097214604"><ele>321.0</ele><time>2026-04-24T14:02:53.997Z</time></trkpt><trkpt lat="44.68331555666837" lon="10.178737305624331"><ele>321.0</ele><time>2026-04-24T14:02:54.997Z</time></trkpt><trkpt lat="44.68322517770549" lon="10.178627328169208"><ele>321.0</ele><time>2026-04-24T14:02:55.997Z</time></trkpt><trkpt lat="44.68313787778808" lon="10.178523248994557"><ele>321.0</ele><time>2026-04-24T14:02:56.997Z</time></trkpt><trkpt lat="44.683002310554144" lon="10.178395555529562"><ele>321.0</ele><time>2026-04-24T14:02:57.997Z</time></trkpt><trkpt lat="44.68290745305054" lon="10.178257776422479"><ele>321.5</ele><time>2026-04-24T14:02:58.997Z</time></trkpt><trkpt lat="44.68282939368053" lon="10.178150072839832"><ele>322.0</ele><time>2026-04-24T14:02:59.997Z</time></trkpt><trkpt lat="44.682762434778844" lon="10.178050516466566"><ele>322.5</ele><time>2026-04-24T14:03:00.997Z</time></trkpt><trkpt lat="44.68270182423803" lon="10.17796031381308"><ele>323.0</ele><time>2026-04-24T14:03:01.997Z</time></trkpt><trkpt lat="44.68267002360683" lon="10.17785568964828"><ele>323.5</ele><time>2026-04-24T14:03:02.997Z</time></trkpt><trkpt lat="44.68265960890962" lon="10.177756258030124"><ele>324.0</ele><time>2026-04-24T14:03:03.999Z</time></trkpt><trkpt lat="44.682665673746065" lon="10.177657634510519"><ele>324.0</ele><time>2026-04-24T14:03:04.999Z</time></trkpt><trkpt lat="44.68267617527227" lon="10.17752386148112"><ele>324.0</ele><time>2026-04-24T14:03:05.999Z</time></trkpt><trkpt lat="44.682665013780834" lon="10.177366435554063"><ele>324.0</ele><time>2026-04-24T14:03:06.999Z</time></trkpt><trkpt lat="44.68268076391947" lon="10.177223570485852"><ele>324.0</ele><time>2026-04-24T14:03:07.999Z</time></trkpt><trkpt lat="44.682681794397645" lon="10.177103961524487"><ele>324.0</ele><time>2026-04-24T14:03:08.999Z</time></trkpt><trkpt lat="44.68265154312581" lon="10.17699811023163"><ele>323.79999999999995</ele><time>2026-04-24T14:03:09.999Z</time></trkpt><trkpt lat="44.68258712573119" lon="10.17691671648091"><ele>323.59999999999997</ele><time>2026-04-24T14:03:10.999Z</time></trkpt><trkpt lat="44.68251120814783" lon="10.17684036772925"><ele>323.4</ele><time>2026-04-24T14:03:11.999Z</time></trkpt><trkpt lat="44.68242480988891" lon="10.176756475420712"><ele>323.2</ele><time>2026-04-24T14:03:12.999Z</time></trkpt><trkpt lat="44.68232770420295" lon="10.17668755551383"><ele>323.0</ele><time>2026-04-24T14:03:13.999Z</time></trkpt><trkpt lat="44.6822479520712" lon="10.176591193846516"><ele>323.0</ele><time>2026-04-24T14:03:14.999Z</time></trkpt><trkpt lat="44.682176985768635" lon="10.176526012139593"><ele>323.0</ele><time>2026-04-24T14:03:15.999Z</time></trkpt><trkpt lat="44.68212487874351" lon="10.176469072316925"><ele>323.0</ele><time>2026-04-24T14:03:16.999Z</time></trkpt><trkpt lat="44.68204996575386" lon="10.176367643944195"><ele>323.0</ele><time>2026-04-24T14:03:18.999Z</time></trkpt><trkpt lat="44.681989882016204" lon="10.176341209437163"><ele>323.0</ele><time>2026-04-24T14:03:19.999Z</time></trkpt><trkpt lat="44.682059185333785" lon="10.176193089134436"><ele>323.0</ele><time>2026-04-24T14:03:20.999Z</time></trkpt><trkpt lat="44.68211235577337" lon="10.17607518447993"><ele>321.59999999999997</ele><time>2026-04-24T14:03:21.999Z</time></trkpt><trkpt lat="44.68218085615426" lon="10.175923180820158"><ele>320.2</ele><time>2026-04-24T14:03:22.999Z</time></trkpt><trkpt lat="44.68223233177402" lon="10.17579224000307"><ele>318.8</ele><time>2026-04-24T14:03:23.999Z</time></trkpt><trkpt lat="44.68228170687989" lon="10.175664255365723"><ele>317.4</ele><time>2026-04-24T14:03:24.999Z</time></trkpt><trkpt lat="44.68232113408572" lon="10.175534875316258"><ele>316.0</ele><time>2026-04-24T14:03:25.999Z</time></trkpt><trkpt lat="44.68235485027251" lon="10.175418202243526"><ele>313.6</ele><time>2026-04-24T14:03:26.999Z</time></trkpt><trkpt lat="44.682339634110804" lon="10.175291632761185"><ele>311.20000000000005</ele><time>2026-04-24T14:03:27.999Z</time></trkpt><trkpt lat="44.68226649713607" lon="10.175180948853072"><ele>308.79999999999995</ele><time>2026-04-24T14:03:28.999Z</time></trkpt><trkpt lat="44.68219014298534" lon="10.175045117561243"><ele>306.4</ele><time>2026-04-24T14:03:29.999Z</time></trkpt><trkpt lat="44.68209086903592" lon="10.174941764455617"><ele>304.0</ele><time>2026-04-24T14:03:30.999Z</time></trkpt><trkpt lat="44.68198367798509" lon="10.1748608644231"><ele>302.25</ele><time>2026-04-24T14:03:31.999Z</time></trkpt><trkpt lat="44.6818642012835" lon="10.174814672420833"><ele>300.5</ele><time>2026-04-24T14:03:32.999Z</time></trkpt><trkpt lat="44.68173548373828" lon="10.174792302062578"><ele>298.75</ele><time>2026-04-24T14:03:33.999Z</time></trkpt><trkpt lat="44.681606652980435" lon="10.174781223321286"><ele>297.0</ele><time>2026-04-24T14:03:34.999Z</time></trkpt><trkpt lat="44.68148594375342" lon="10.174777784585457"><ele>297.0</ele><time>2026-04-24T14:03:35.999Z</time></trkpt><trkpt lat="44.68138222576778" lon="10.174767573944692"><ele>297.0</ele><time>2026-04-24T14:03:36.999Z</time></trkpt><trkpt lat="44.68129538605546" lon="10.174742995062536"><ele>297.0</ele><time>2026-04-24T14:03:37.999Z</time></trkpt><trkpt lat="44.681219236861445" lon="10.174696298252874"><ele>297.0</ele><time>2026-04-24T14:03:38.999Z</time></trkpt><trkpt lat="44.681120424435775" lon="10.174627891672957"><ele>297.0</ele><time>2026-04-24T14:03:39.999Z</time></trkpt><trkpt lat="44.6810123518799" lon="10.174557081402305"><ele>298.4</ele><time>2026-04-24T14:03:40.999Z</time></trkpt><trkpt lat="44.68091741166434" lon="10.174491266395764"><ele>299.79999999999995</ele><time>2026-04-24T14:03:41.999Z</time></trkpt><trkpt lat="44.68082565002381" lon="10.174423001506199"><ele>301.2</ele><time>2026-04-24T14:03:42.999Z</time></trkpt><trkpt lat="44.680735024461434" lon="10.17433573242403"><ele>302.59999999999997</ele><time>2026-04-24T14:03:43.999Z</time></trkpt><trkpt lat="44.68063977602241" lon="10.174235931878265"><ele>304.0</ele><time>2026-04-24T14:03:44.999Z</time></trkpt><trkpt lat="44.68054705932521" lon="10.174130373309602"><ele>304.5</ele><time>2026-04-24T14:03:45.999Z</time></trkpt><trkpt lat="44.68045637816896" lon="10.174016408010477"><ele>305.0</ele><time>2026-04-24T14:03:46.999Z</time></trkpt><trkpt lat="44.680370288564696" lon="10.173897792889038"><ele>305.5</ele><time>2026-04-24T14:03:47.999Z</time></trkpt><trkpt lat="44.68028879408734" lon="10.173770544461515"><ele>306.0</ele><time>2026-04-24T14:03:48.999Z</time></trkpt><trkpt lat="44.68020777062023" lon="10.173632570965434"><ele>306.0</ele><time>2026-04-24T14:03:49.999Z</time></trkpt><trkpt lat="44.68011635642203" lon="10.173502646329625"><ele>306.0</ele><time>2026-04-24T14:03:50.999Z</time></trkpt><trkpt lat="44.68003764573082" lon="10.173373619433791"><ele>306.0</ele><time>2026-04-24T14:03:51.999Z</time></trkpt><trkpt lat="44.67995367882944" lon="10.173236789236583"><ele>306.0</ele><time>2026-04-24T14:03:52.999Z</time></trkpt><trkpt lat="44.679858276639244" lon="10.173098657495126"><ele>305.25</ele><time>2026-04-24T14:03:53.999Z</time></trkpt><trkpt lat="44.67977625548809" lon="10.172943818527289"><ele>304.5</ele><time>2026-04-24T14:03:54.999Z</time></trkpt><trkpt lat="44.67971938728738" lon="10.172779709390731"><ele>303.75</ele><time>2026-04-24T14:03:55.999Z</time></trkpt><trkpt lat="44.679656019748904" lon="10.172640046152363"><ele>303.0</ele><time>2026-04-24T14:03:56.999Z</time></trkpt><trkpt lat="44.67960117295765" lon="10.172504905485656"><ele>303.0</ele><time>2026-04-24T14:03:57.999Z</time></trkpt><trkpt lat="44.679554521436415" lon="10.172384397194582"><ele>303.0</ele><time>2026-04-24T14:03:58.999Z</time></trkpt><trkpt lat="44.679476208626724" lon="10.172296964702518"><ele>303.0</ele><time>2026-04-24T14:03:59.999Z</time></trkpt><trkpt lat="44.67938961205008" lon="10.17226681474336"><ele>303.0</ele><time>2026-04-24T14:04:00.999Z</time></trkpt><trkpt lat="44.679306438302" lon="10.172216517562404"><ele>303.0</ele><time>2026-04-24T14:04:01.999Z</time></trkpt><trkpt lat="44.67921646484852" lon="10.172159490624495"><ele>303.4</ele><time>2026-04-24T14:04:02.999Z</time></trkpt><trkpt lat="44.67913641842001" lon="10.172069929230252"><ele>303.8</ele><time>2026-04-24T14:04:03.999Z</time></trkpt><trkpt lat="44.67904595355986" lon="10.171995069586304"><ele>304.2</ele><time>2026-04-24T14:04:04.999Z</time></trkpt><trkpt lat="44.678947478858085" lon="10.171912416587848"><ele>304.6</ele><time>2026-04-24T14:04:05.999Z</time></trkpt><trkpt lat="44.67885039367031" lon="10.171828214182371"><ele>305.0</ele><time>2026-04-24T14:04:06.998Z</time></trkpt><trkpt lat="44.67878248087592" lon="10.171766216573715"><ele>305.0</ele><time>2026-04-24T14:04:07.998Z</time></trkpt><trkpt lat="44.67871674122405" lon="10.171700884513617"><ele>305.0</ele><time>2026-04-24T14:04:08.998Z</time></trkpt><trkpt lat="44.67865698109766" lon="10.171633128218184"><ele>305.0</ele><time>2026-04-24T14:04:09.998Z</time></trkpt><trkpt lat="44.678604452902" lon="10.171568553960105"><ele>305.0</ele><time>2026-04-24T14:04:10.998Z</time></trkpt><trkpt lat="44.678537045493655" lon="10.17145243468273"><ele>305.0</ele><time>2026-04-24T14:04:12.998Z</time></trkpt><trkpt lat="44.67850167593917" lon="10.171327223434186"><ele>305.0</ele><time>2026-04-24T14:04:14.998Z</time></trkpt><trkpt lat="44.678486845250276" lon="10.171202859467567"><ele>304.6</ele><time>2026-04-24T14:04:16.998Z</time></trkpt><trkpt lat="44.67846576052871" lon="10.171104828765875"><ele>304.2</ele><time>2026-04-24T14:04:18.998Z</time></trkpt><trkpt lat="44.67846461232412" lon="10.171232043742842"><ele>303.8</ele><time>2026-04-24T14:04:25.998Z</time></trkpt><trkpt lat="44.67847433323775" lon="10.171393383680892"><ele>303.4</ele><time>2026-04-24T14:04:27.998Z</time></trkpt><trkpt lat="44.67853255356163" lon="10.171568111976208"><ele>303.0</ele><time>2026-04-24T14:04:29.998Z</time></trkpt><trkpt lat="44.67858600730383" lon="10.171646385327701"><ele>303.4</ele><time>2026-04-24T14:04:30.998Z</time></trkpt><trkpt lat="44.67865779957233" lon="10.171720345490453"><ele>303.8</ele><time>2026-04-24T14:04:31.998Z</time></trkpt><trkpt lat="44.67873514436437" lon="10.171784454846108"><ele>304.2</ele><time>2026-04-24T14:04:32.998Z</time></trkpt><trkpt lat="44.67881446357611" lon="10.171848152122449"><ele>304.6</ele><time>2026-04-24T14:04:33.998Z</time></trkpt><trkpt lat="44.6788933496551" lon="10.171913231481753"><ele>305.0</ele><time>2026-04-24T14:04:34.998Z</time></trkpt><trkpt lat="44.67897468399139" lon="10.171965700894278"><ele>305.0</ele><time>2026-04-24T14:04:35.998Z</time></trkpt><trkpt lat="44.679043838904335" lon="10.172030898384406"><ele>305.0</ele><time>2026-04-24T14:04:36.998Z</time></trkpt><trkpt lat="44.67911645801771" lon="10.172095558641969"><ele>305.0</ele><time>2026-04-24T14:04:37.998Z</time></trkpt><trkpt lat="44.67919652061689" lon="10.172154028442177"><ele>305.0</ele><time>2026-04-24T14:04:38.998Z</time></trkpt><trkpt lat="44.6792693982621" lon="10.17222928826435"><ele>305.0</ele><time>2026-04-24T14:04:39.998Z</time></trkpt><trkpt lat="44.67935865824948" lon="10.17226555063879"><ele>305.0</ele><time>2026-04-24T14:04:40.998Z</time></trkpt><trkpt lat="44.67942683989226" lon="10.172317204632884"><ele>304.6</ele><time>2026-04-24T14:04:41.998Z</time></trkpt><trkpt lat="44.679487341942" lon="10.172358563048656"><ele>304.2</ele><time>2026-04-24T14:04:42.998Z</time></trkpt><trkpt lat="44.6795463997064" lon="10.172433994507935"><ele>303.8</ele><time>2026-04-24T14:04:43.998Z</time></trkpt><trkpt lat="44.67960965843733" lon="10.17254504620134"><ele>303.4</ele><time>2026-04-24T14:04:44.998Z</time></trkpt><trkpt lat="44.67966316042688" lon="10.172680321089704"><ele>303.0</ele><time>2026-04-24T14:04:45.998Z</time></trkpt><trkpt lat="44.67970694874186" lon="10.172839766378232"><ele>303.0</ele><time>2026-04-24T14:04:46.998Z</time></trkpt><trkpt lat="44.67975391935352" lon="10.173000029966788"><ele>303.0</ele><time>2026-04-24T14:04:47.998Z</time></trkpt><trkpt lat="44.679817633721974" lon="10.173136346828732"><ele>303.0</ele><time>2026-04-24T14:04:48.998Z</time></trkpt><trkpt lat="44.679894257557436" lon="10.173245338058257"><ele>303.0</ele><time>2026-04-24T14:04:49.998Z</time></trkpt><trkpt lat="44.67997490502559" lon="10.17335446981062"><ele>303.75</ele><time>2026-04-24T14:04:50.998Z</time></trkpt><trkpt lat="44.68005620890267" lon="10.173469958798552"><ele>304.5</ele><time>2026-04-24T14:04:51.998Z</time></trkpt><trkpt lat="44.68013894119006" lon="10.173589416424896"><ele>305.25</ele><time>2026-04-24T14:04:52.998Z</time></trkpt><trkpt lat="44.6802193838117" lon="10.173726721123591"><ele>306.0</ele><time>2026-04-24T14:04:53.998Z</time></trkpt><trkpt lat="44.68030862340099" lon="10.173861737751597"><ele>305.5</ele><time>2026-04-24T14:04:54.998Z</time></trkpt><trkpt lat="44.680394621525664" lon="10.174000616200454"><ele>305.0</ele><time>2026-04-24T14:04:55.998Z</time></trkpt><trkpt lat="44.68049901391558" lon="10.17411145974512"><ele>304.5</ele><time>2026-04-24T14:04:56.998Z</time></trkpt><trkpt lat="44.68059253318608" lon="10.17423183709397"><ele>304.0</ele><time>2026-04-24T14:04:57.997Z</time></trkpt><trkpt lat="44.68069145137447" lon="10.174346364047274"><ele>304.0</ele><time>2026-04-24T14:04:58.997Z</time></trkpt><trkpt lat="44.68079105766186" lon="10.174450672153718"><ele>304.0</ele><time>2026-04-24T14:04:59.997Z</time></trkpt><trkpt lat="44.68089405852193" lon="10.174524378284099"><ele>304.0</ele><time>2026-04-24T14:05:00.997Z</time></trkpt><trkpt lat="44.680994245835116" lon="10.17459675640579"><ele>304.0</ele><time>2026-04-24T14:05:01.997Z</time></trkpt><trkpt lat="44.68110207080424" lon="10.174649361500455"><ele>302.59999999999997</ele><time>2026-04-24T14:05:02.997Z</time></trkpt><trkpt lat="44.681199437854055" lon="10.174712418797746"><ele>301.2</ele><time>2026-04-24T14:05:03.997Z</time></trkpt><trkpt lat="44.681286904867136" lon="10.174777140977893"><ele>299.79999999999995</ele><time>2026-04-24T14:05:04.997Z</time></trkpt><trkpt lat="44.681376319917554" lon="10.174812738873614"><ele>298.4</ele><time>2026-04-24T14:05:05.997Z</time></trkpt><trkpt lat="44.681482188168864" lon="10.174824860980966"><ele>297.0</ele><time>2026-04-24T14:05:06.997Z</time></trkpt><trkpt lat="44.681590556758415" lon="10.174827555012955"><ele>297.0</ele><time>2026-04-24T14:05:07.997Z</time></trkpt><trkpt lat="44.68169540521704" lon="10.174833521916161"><ele>297.0</ele><time>2026-04-24T14:05:09Z</time></trkpt><trkpt lat="44.6817925442282" lon="10.174847995492117"><ele>297.0</ele><time>2026-04-24T14:05:10Z</time></trkpt><trkpt lat="44.68188559246305" lon="10.174868234466492"><ele>297.0</ele><time>2026-04-24T14:05:11Z</time></trkpt><trkpt lat="44.681972962087386" lon="10.174901699836077"><ele>297.0</ele><time>2026-04-24T14:05:12Z</time></trkpt><trkpt lat="44.68205074955269" lon="10.174959098596979"><ele>298.4</ele><time>2026-04-24T14:05:13Z</time></trkpt><trkpt lat="44.68212745977622" lon="10.17503457847121"><ele>299.79999999999995</ele><time>2026-04-24T14:05:14Z</time></trkpt><trkpt lat="44.68221487220089" lon="10.175106952838744"><ele>301.2</ele><time>2026-04-24T14:05:15Z</time></trkpt><trkpt lat="44.68228304290711" lon="10.175212890403968"><ele>302.59999999999997</ele><time>2026-04-24T14:05:16Z</time></trkpt><trkpt lat="44.682325868175624" lon="10.175328852984583"><ele>304.0</ele><time>2026-04-24T14:05:17Z</time></trkpt><trkpt lat="44.68232971155014" lon="10.175452766079449"><ele>304.0</ele><time>2026-04-24T14:05:18Z</time></trkpt><trkpt lat="44.682298189402196" lon="10.17558133831857"><ele>304.0</ele><time>2026-04-24T14:05:19Z</time></trkpt><trkpt lat="44.68223393440681" lon="10.175718172114845"><ele>304.0</ele><time>2026-04-24T14:05:20Z</time></trkpt><trkpt lat="44.68217328958517" lon="10.175870994933845"><ele>304.0</ele><time>2026-04-24T14:05:21Z</time></trkpt><trkpt lat="44.682120171452205" lon="10.176018297410572"><ele>306.0</ele><time>2026-04-24T14:05:22Z</time></trkpt><trkpt lat="44.68207451163776" lon="10.17614250935813"><ele>308.0</ele><time>2026-04-24T14:05:23Z</time></trkpt><trkpt lat="44.682050884872965" lon="10.176253704246221"><ele>310.0</ele><time>2026-04-24T14:05:24Z</time></trkpt><trkpt lat="44.6820506857687" lon="10.176352043851155"><ele>312.0</ele><time>2026-04-24T14:05:25Z</time></trkpt><trkpt lat="44.68205246820735" lon="10.176445320959981"><ele>314.0</ele><time>2026-04-24T14:05:26Z</time></trkpt><trkpt lat="44.68210799907992" lon="10.176520200041834"><ele>316.0</ele><time>2026-04-24T14:05:26.999Z</time></trkpt><trkpt lat="44.68217969975477" lon="10.176586877836503"><ele>317.4</ele><time>2026-04-24T14:05:27.999Z</time></trkpt><trkpt lat="44.68226414659548" lon="10.176661542090146"><ele>318.8</ele><time>2026-04-24T14:05:28.999Z</time></trkpt><trkpt lat="44.68235809943316" lon="10.176743178796025"><ele>320.2</ele><time>2026-04-24T14:05:29.999Z</time></trkpt><trkpt lat="44.682461124527194" lon="10.176836244670273"><ele>321.59999999999997</ele><time>2026-04-24T14:05:30.999Z</time></trkpt><trkpt lat="44.68255532094488" lon="10.176931712707505"><ele>323.0</ele><time>2026-04-24T14:05:31.999Z</time></trkpt><trkpt lat="44.68260843846049" lon="10.177033652798837"><ele>323.0</ele><time>2026-04-24T14:05:32.999Z</time></trkpt><trkpt lat="44.68263834335048" lon="10.177119571751811"><ele>323.0</ele><time>2026-04-24T14:05:33.999Z</time></trkpt><trkpt lat="44.682648153028616" lon="10.17733101080546"><ele>323.0</ele><time>2026-04-24T14:05:35.999Z</time></trkpt><trkpt lat="44.68264658154307" lon="10.17749599913035"><ele>323.0</ele><time>2026-04-24T14:05:36.999Z</time></trkpt><trkpt lat="44.682632436591454" lon="10.17764467368239"><ele>323.0</ele><time>2026-04-24T14:05:37.999Z</time></trkpt><trkpt lat="44.682628751457116" lon="10.177771155793339"><ele>323.2</ele><time>2026-04-24T14:05:38.999Z</time></trkpt><trkpt lat="44.682652177797294" lon="10.177881919086957"><ele>323.4</ele><time>2026-04-24T14:05:39.999Z</time></trkpt><trkpt lat="44.68270318891428" lon="10.1779901059684"><ele>323.59999999999997</ele><time>2026-04-24T14:05:40.999Z</time></trkpt><trkpt lat="44.68275528372942" lon="10.178099547531195"><ele>323.79999999999995</ele><time>2026-04-24T14:05:41.999Z</time></trkpt><trkpt lat="44.68281317176988" lon="10.178198701620389"><ele>324.0</ele><time>2026-04-24T14:05:42.999Z</time></trkpt><trkpt lat="44.682897891695816" lon="10.178295107212682"><ele>323.25</ele><time>2026-04-24T14:05:43.999Z</time></trkpt><trkpt lat="44.68298929696809" lon="10.178395619908752"><ele>322.5</ele><time>2026-04-24T14:05:44.999Z</time></trkpt><trkpt lat="44.68308776926473" lon="10.178502663674065"><ele>321.75</ele><time>2026-04-24T14:05:45.999Z</time></trkpt><trkpt lat="44.68318627727875" lon="10.178612899978871"><ele>321.0</ele><time>2026-04-24T14:05:46.999Z</time></trkpt><trkpt lat="44.68326300688139" lon="10.178733692575573"><ele>321.0</ele><time>2026-04-24T14:05:47.999Z</time></trkpt><trkpt lat="44.683352998898464" lon="10.178810412407046"><ele>321.0</ele><time>2026-04-24T14:05:48.999Z</time></trkpt><trkpt lat="44.68341985900322" lon="10.178911513351082"><ele>321.0</ele><time>2026-04-24T14:05:49.999Z</time></trkpt><trkpt lat="44.68346324324287" lon="10.179027312885337"><ele>321.0</ele><time>2026-04-24T14:05:50.999Z</time></trkpt><trkpt lat="44.683477870853885" lon="10.179170701817856"><ele>321.0</ele><time>2026-04-24T14:05:51.999Z</time></trkpt><trkpt lat="44.68351216142108" lon="10.179318033872892"><ele>321.0</ele><time>2026-04-24T14:05:52.999Z</time></trkpt><trkpt lat="44.68353280836982" lon="10.179450882039848"><ele>321.0</ele><time>2026-04-24T14:05:53.999Z</time></trkpt><trkpt lat="44.683568906331665" lon="10.17956911044905"><ele>321.0</ele><time>2026-04-24T14:05:54.999Z</time></trkpt><trkpt lat="44.683634118663726" lon="10.179679581595314"><ele>321.0</ele><time>2026-04-24T14:05:55.999Z</time></trkpt><trkpt lat="44.683724063948006" lon="10.179778166810065"><ele>321.0</ele><time>2026-04-24T14:05:56.999Z</time></trkpt><trkpt lat="44.6838219483421" lon="10.179873232657"><ele>322.25</ele><time>2026-04-24T14:05:57.999Z</time></trkpt><trkpt lat="44.683931166559695" lon="10.179975135239287"><ele>323.5</ele><time>2026-04-24T14:05:58.999Z</time></trkpt><trkpt lat="44.68404806579037" lon="10.180067849025821"><ele>324.75</ele><time>2026-04-24T14:05:59.999Z</time></trkpt><trkpt lat="44.684158569022195" lon="10.18015928573171"><ele>326.0</ele><time>2026-04-24T14:06:00.999Z</time></trkpt><trkpt lat="44.68426438723653" lon="10.180240672581276"><ele>326.0</ele><time>2026-04-24T14:06:01.999Z</time></trkpt><trkpt lat="44.684368568951676" lon="10.180302956617926"><ele>326.0</ele><time>2026-04-24T14:06:02.999Z</time></trkpt><trkpt lat="44.684453240328935" lon="10.180374357008347"><ele>326.0</ele><time>2026-04-24T14:06:03.999Z</time></trkpt><trkpt lat="44.68452230583186" lon="10.180447168478043"><ele>326.0</ele><time>2026-04-24T14:06:04.999Z</time></trkpt><trkpt lat="44.684593904154966" lon="10.180547305089686"><ele>326.0</ele><time>2026-04-24T14:06:05.999Z</time></trkpt><trkpt lat="44.68464026440273" lon="10.180705350835142"><ele>327.20000000000005</ele><time>2026-04-24T14:06:06.999Z</time></trkpt><trkpt lat="44.68469083517944" lon="10.180832694683255"><ele>328.40000000000003</ele><time>2026-04-24T14:06:07.999Z</time></trkpt><trkpt lat="44.68475943221462" lon="10.180916897387004"><ele>329.6</ele><time>2026-04-24T14:06:08.999Z</time></trkpt><trkpt lat="44.68485543292304" lon="10.180970373043959"><ele>330.8</ele><time>2026-04-24T14:06:09.999Z</time></trkpt><trkpt lat="44.684961571648074" lon="10.181071915227845"><ele>332.0</ele><time>2026-04-24T14:06:10.999Z</time></trkpt><trkpt lat="44.68508538874337" lon="10.18118731059124"><ele>332.0</ele><time>2026-04-24T14:06:11.999Z</time></trkpt><trkpt lat="44.68520846028891" lon="10.181331968104814"><ele>332.0</ele><time>2026-04-24T14:06:12.999Z</time></trkpt><trkpt lat="44.685342490640885" lon="10.181497408972588"><ele>332.0</ele><time>2026-04-24T14:06:13.999Z</time></trkpt><trkpt lat="44.685483492381834" lon="10.181675052259216"><ele>329.0</ele><time>2026-04-24T14:06:14.999Z</time></trkpt><trkpt lat="44.685603927842934" lon="10.181838962906038"><ele>326.0</ele><time>2026-04-24T14:06:15.999Z</time></trkpt><trkpt lat="44.68570631773872" lon="10.181961298983286"><ele>323.0</ele><time>2026-04-24T14:06:16.998Z</time></trkpt><trkpt lat="44.68579813420141" lon="10.182056839528004"><ele>320.0</ele><time>2026-04-24T14:06:17.998Z</time></trkpt><trkpt lat="44.68585925230278" lon="10.182178786697085"><ele>320.0</ele><time>2026-04-24T14:06:18.998Z</time></trkpt><trkpt lat="44.68591071646266" lon="10.182315112932432"><ele>320.0</ele><time>2026-04-24T14:06:19.998Z</time></trkpt><trkpt lat="44.68594961031544" lon="10.182475724587986"><ele>320.0</ele><time>2026-04-24T14:06:20.998Z</time></trkpt><trkpt lat="44.68601540626063" lon="10.18263918837555"><ele>320.0</ele><time>2026-04-24T14:06:21.998Z</time></trkpt><trkpt lat="44.68607732661518" lon="10.182824128933431"><ele>315.25</ele><time>2026-04-24T14:06:22.998Z</time></trkpt><trkpt lat="44.68614618885813" lon="10.183007741521914"><ele>310.5</ele><time>2026-04-24T14:06:23.998Z</time></trkpt><trkpt lat="44.68620698346342" lon="10.183187675138463"><ele>305.75</ele><time>2026-04-24T14:06:24.998Z</time></trkpt><trkpt lat="44.68626579509546" lon="10.183368373584944"><ele>301.0</ele><time>2026-04-24T14:06:25.998Z</time></trkpt><trkpt lat="44.686323495365755" lon="10.183539420334531"><ele>300.5</ele><time>2026-04-24T14:06:26.998Z</time></trkpt><trkpt lat="44.68638436533113" lon="10.183693581451312"><ele>300.0</ele><time>2026-04-24T14:06:27.998Z</time></trkpt><trkpt lat="44.68645170348256" lon="10.183821813245617"><ele>299.5</ele><time>2026-04-24T14:06:28.998Z</time></trkpt><trkpt lat="44.686520447067736" lon="10.183949936851322"><ele>299.0</ele><time>2026-04-24T14:06:29.998Z</time></trkpt><trkpt lat="44.68661218122365" lon="10.184061641264133"><ele>297.5</ele><time>2026-04-24T14:06:30.998Z</time></trkpt><trkpt lat="44.6867240430081" lon="10.184168690584123"><ele>296.0</ele><time>2026-04-24T14:06:31.998Z</time></trkpt><trkpt lat="44.686829717279934" lon="10.184288875475822"><ele>294.5</ele><time>2026-04-24T14:06:32.998Z</time></trkpt><trkpt lat="44.686919477095124" lon="10.184442782743346"><ele>293.0</ele><time>2026-04-24T14:06:33.998Z</time></trkpt><trkpt lat="44.68702213693439" lon="10.184562857024655"><ele>292.25</ele><time>2026-04-24T14:06:34.998Z</time></trkpt><trkpt lat="44.687115042400386" lon="10.18469858582307"><ele>291.5</ele><time>2026-04-24T14:06:35.998Z</time></trkpt><trkpt lat="44.68720003588658" lon="10.184829590801657"><ele>290.75</ele><time>2026-04-24T14:06:36.998Z</time></trkpt><trkpt lat="44.68727063338211" lon="10.184953216677705"><ele>290.0</ele><time>2026-04-24T14:06:37.998Z</time></trkpt><trkpt lat="44.68731613348548" lon="10.185085841809494"><ele>290.0</ele><time>2026-04-24T14:06:38.998Z</time></trkpt><trkpt lat="44.68736072159021" lon="10.18519929321036"><ele>290.0</ele><time>2026-04-24T14:06:39.998Z</time></trkpt><trkpt lat="44.68742381729448" lon="10.185279708221135"><ele>290.0</ele><time>2026-04-24T14:06:40.998Z</time></trkpt><trkpt lat="44.68750748306053" lon="10.185322798305872"><ele>290.0</ele><time>2026-04-24T14:06:41.998Z</time></trkpt><trkpt lat="44.68760203078664" lon="10.18531176366306"><ele>290.0</ele><time>2026-04-24T14:06:42.998Z</time></trkpt><trkpt lat="44.687708539506694" lon="10.18527352674546"><ele>287.5</ele><time>2026-04-24T14:06:43.998Z</time></trkpt><trkpt lat="44.68782768034044" lon="10.185271601065084"><ele>285.0</ele><time>2026-04-24T14:06:44.998Z</time></trkpt><trkpt lat="44.68794326046009" lon="10.185235829859835"><ele>282.5</ele><time>2026-04-24T14:06:45.998Z</time></trkpt><trkpt lat="44.688054495757974" lon="10.18526014869177"><ele>280.0</ele><time>2026-04-24T14:06:46.998Z</time></trkpt><trkpt lat="44.688159517307405" lon="10.185288323326889"><ele>280.0</ele><time>2026-04-24T14:06:47.998Z</time></trkpt><trkpt lat="44.68826171665496" lon="10.185331158583868"><ele>280.0</ele><time>2026-04-24T14:06:48.998Z</time></trkpt><trkpt lat="44.68837300578585" lon="10.185414723021749"><ele>280.0</ele><time>2026-04-24T14:06:49.998Z</time></trkpt><trkpt lat="44.68849981317376" lon="10.185480937147876"><ele>280.0</ele><time>2026-04-24T14:06:50.998Z</time></trkpt><trkpt lat="44.68861099727361" lon="10.18552012704989"><ele>279.2</ele><time>2026-04-24T14:06:51.998Z</time></trkpt><trkpt lat="44.6886940111965" lon="10.185590162375933"><ele>278.4</ele><time>2026-04-24T14:06:52.998Z</time></trkpt><trkpt lat="44.68876319148832" lon="10.185676991062415"><ele>277.6</ele><time>2026-04-24T14:06:53.998Z</time></trkpt><trkpt lat="44.68881866124342" lon="10.185797043619328"><ele>276.8</ele><time>2026-04-24T14:06:54.998Z</time></trkpt><trkpt lat="44.6888768911231" lon="10.18593660991741"><ele>276.0</ele><time>2026-04-24T14:06:55.998Z</time></trkpt><trkpt lat="44.688954383405374" lon="10.186071398689279"><ele>278.5</ele><time>2026-04-24T14:06:56.998Z</time></trkpt><trkpt lat="44.689059129742866" lon="10.186182374899655"><ele>281.0</ele><time>2026-04-24T14:06:57.998Z</time></trkpt><trkpt lat="44.689177454646384" lon="10.186263890963417"><ele>283.5</ele><time>2026-04-24T14:06:58.998Z</time></trkpt><trkpt lat="44.68930554158395" lon="10.186331027813466"><ele>286.0</ele><time>2026-04-24T14:06:59.998Z</time></trkpt><trkpt lat="44.68943549124696" lon="10.1863788329644"><ele>286.0</ele><time>2026-04-24T14:07:00.998Z</time></trkpt><trkpt lat="44.68957091991946" lon="10.18643134244727"><ele>286.0</ele><time>2026-04-24T14:07:01.998Z</time></trkpt><trkpt lat="44.68972313480897" lon="10.186412695096248"><ele>286.0</ele><time>2026-04-24T14:07:02.998Z</time></trkpt><trkpt lat="44.689888591283605" lon="10.186424084615044"><ele>286.0</ele><time>2026-04-24T14:07:03.998Z</time></trkpt><trkpt lat="44.69004564066193" lon="10.186409080414878"><ele>286.0</ele><time>2026-04-24T14:07:04.998Z</time></trkpt><trkpt lat="44.69017900723881" lon="10.186369239512723"><ele>286.0</ele><time>2026-04-24T14:07:05.998Z</time></trkpt><trkpt lat="44.69029745174163" lon="10.186356273827258"><ele>286.0</ele><time>2026-04-24T14:07:06.997Z</time></trkpt><trkpt lat="44.69039796186937" lon="10.18637613620679"><ele>286.2</ele><time>2026-04-24T14:07:07.997Z</time></trkpt><trkpt lat="44.69047730815342" lon="10.18636806233879"><ele>286.40000000000003</ele><time>2026-04-24T14:07:08.997Z</time></trkpt><trkpt lat="44.69054276042798" lon="10.186429023932003"><ele>286.6</ele><time>2026-04-24T14:07:09.997Z</time></trkpt><trkpt lat="44.69059823151051" lon="10.186535066684232"><ele>286.8</ele><time>2026-04-24T14:07:10.997Z</time></trkpt><trkpt lat="44.69063532465259" lon="10.186688092366682"><ele>287.0</ele><time>2026-04-24T14:07:11.997Z</time></trkpt><trkpt lat="44.69066215615135" lon="10.18687570351037"><ele>288.5</ele><time>2026-04-24T14:07:12.997Z</time></trkpt><trkpt lat="44.69068837357333" lon="10.18706614782325"><ele>290.0</ele><time>2026-04-24T14:07:13.997Z</time></trkpt><trkpt lat="44.69073341440918" lon="10.187229237231394"><ele>291.5</ele><time>2026-04-24T14:07:15Z</time></trkpt><trkpt lat="44.69078774907243" lon="10.187376953229286"><ele>293.0</ele><time>2026-04-24T14:07:16Z</time></trkpt><trkpt lat="44.69083267742747" lon="10.187516133398915"><ele>293.0</ele><time>2026-04-24T14:07:17Z</time></trkpt><trkpt lat="44.69085620431516" lon="10.187684133698767"><ele>293.0</ele><time>2026-04-24T14:07:18Z</time></trkpt><trkpt lat="44.690852536598626" lon="10.187874193095755"><ele>293.0</ele><time>2026-04-24T14:07:19Z</time></trkpt><trkpt lat="44.6908357820822" lon="10.188077524261395"><ele>293.0</ele><time>2026-04-24T14:07:20Z</time></trkpt><trkpt lat="44.69082107474733" lon="10.188262695166044"><ele>291.5</ele><time>2026-04-24T14:07:21Z</time></trkpt><trkpt lat="44.69081773682651" lon="10.188427142710449"><ele>290.0</ele><time>2026-04-24T14:07:22Z</time></trkpt><trkpt lat="44.69084139320294" lon="10.188587349683559"><ele>288.5</ele><time>2026-04-24T14:07:23Z</time></trkpt><trkpt lat="44.690896633861215" lon="10.188736265610196"><ele>287.0</ele><time>2026-04-24T14:07:24Z</time></trkpt><trkpt lat="44.69097619499247" lon="10.188891003527267"><ele>286.25</ele><time>2026-04-24T14:07:25Z</time></trkpt><trkpt lat="44.69106791586166" lon="10.189069552155027"><ele>285.5</ele><time>2026-04-24T14:07:26Z</time></trkpt><trkpt lat="44.691165119403045" lon="10.189235636958585"><ele>284.75</ele><time>2026-04-24T14:07:27Z</time></trkpt><trkpt lat="44.691272304111166" lon="10.189360909403216"><ele>284.0</ele><time>2026-04-24T14:07:28Z</time></trkpt><trkpt lat="44.69139143308612" lon="10.189470164196738"><ele>284.0</ele><time>2026-04-24T14:07:29Z</time></trkpt><trkpt lat="44.691521930791666" lon="10.189564635245459"><ele>284.0</ele><time>2026-04-24T14:07:30Z</time></trkpt><trkpt lat="44.6916659027613" lon="10.189643205994672"><ele>284.0</ele><time>2026-04-24T14:07:31Z</time></trkpt><trkpt lat="44.69179459664326" lon="10.189700441291649"><ele>284.0</ele><time>2026-04-24T14:07:32Z</time></trkpt><trkpt lat="44.69187617096476" lon="10.189781904763901"><ele>285.25</ele><time>2026-04-24T14:07:33Z</time></trkpt><trkpt lat="44.691930945537" lon="10.189881387828553"><ele>286.5</ele><time>2026-04-24T14:07:34Z</time></trkpt><trkpt lat="44.691983809498886" lon="10.190020327100747"><ele>287.75</ele><time>2026-04-24T14:07:35Z</time></trkpt><trkpt lat="44.69201908184587" lon="10.190191100590296"><ele>289.0</ele><time>2026-04-24T14:07:36Z</time></trkpt><trkpt lat="44.69207134578642" lon="10.190348497852145"><ele>289.0</ele><time>2026-04-24T14:07:37Z</time></trkpt><trkpt lat="44.692159239407665" lon="10.190463514705556"><ele>289.0</ele><time>2026-04-24T14:07:37.999Z</time></trkpt><trkpt lat="44.692284442769655" lon="10.190526857421904"><ele>289.0</ele><time>2026-04-24T14:07:38.999Z</time></trkpt><trkpt lat="44.69243406053403" lon="10.190560358562506"><ele>289.0</ele><time>2026-04-24T14:07:39.999Z</time></trkpt><trkpt lat="44.692597636821425" lon="10.190596613653959"><ele>289.0</ele><time>2026-04-24T14:07:40.999Z</time></trkpt><trkpt lat="44.69275426033402" lon="10.190650660263662"><ele>289.0</ele><time>2026-04-24T14:07:41.999Z</time></trkpt><trkpt lat="44.692895263898784" lon="10.19069192468025"><ele>289.0</ele><time>2026-04-24T14:07:42.999Z</time></trkpt><trkpt lat="44.69300328244148" lon="10.19073368684627"><ele>289.0</ele><time>2026-04-24T14:07:43.999Z</time></trkpt><trkpt lat="44.693086740971815" lon="10.190786520822993"><ele>290.59999999999997</ele><time>2026-04-24T14:07:44.999Z</time></trkpt><trkpt lat="44.6931787493453" lon="10.190845004942338"><ele>292.2</ele><time>2026-04-24T14:07:45.999Z</time></trkpt><trkpt lat="44.69324662080937" lon="10.190951696359479"><ele>293.79999999999995</ele><time>2026-04-24T14:07:46.999Z</time></trkpt><trkpt lat="44.69330859567657" lon="10.19105709709455"><ele>295.4</ele><time>2026-04-24T14:07:47.999Z</time></trkpt><trkpt lat="44.693383984640484" lon="10.191176393457853"><ele>297.0</ele><time>2026-04-24T14:07:48.999Z</time></trkpt><trkpt lat="44.69346334584273" lon="10.191305324894877"><ele>297.0</ele><time>2026-04-24T14:07:49.999Z</time></trkpt><trkpt lat="44.69354030000376" lon="10.191437216435544"><ele>297.0</ele><time>2026-04-24T14:07:50.999Z</time></trkpt><trkpt lat="44.69361321321605" lon="10.191558428868852"><ele>297.0</ele><time>2026-04-24T14:07:51.999Z</time></trkpt><trkpt lat="44.693681128105055" lon="10.191693680801018"><ele>297.0</ele><time>2026-04-24T14:07:52.999Z</time></trkpt><trkpt lat="44.6937456252917" lon="10.191828850233183"><ele>295.2</ele><time>2026-04-24T14:07:53.999Z</time></trkpt><trkpt lat="44.69378888767658" lon="10.191965791693796"><ele>293.4</ele><time>2026-04-24T14:07:54.999Z</time></trkpt><trkpt lat="44.69383522822534" lon="10.192111362551529"><ele>291.6</ele><time>2026-04-24T14:07:55.999Z</time></trkpt><trkpt lat="44.693829397364446" lon="10.192273373955798"><ele>289.8</ele><time>2026-04-24T14:07:56.999Z</time></trkpt><trkpt lat="44.693837902441786" lon="10.192431456808727"><ele>288.0</ele><time>2026-04-24T14:07:57.999Z</time></trkpt><trkpt lat="44.693866756913614" lon="10.192584240861583"><ele>288.0</ele><time>2026-04-24T14:07:58.999Z</time></trkpt><trkpt lat="44.69390808580911" lon="10.192737150372674"><ele>288.0</ele><time>2026-04-24T14:07:59.999Z</time></trkpt><trkpt lat="44.69396792461081" lon="10.192874504792139"><ele>288.0</ele><time>2026-04-24T14:08:00.999Z</time></trkpt><trkpt lat="44.69405421587897" lon="10.193009219382455"><ele>288.0</ele><time>2026-04-24T14:08:01.999Z</time></trkpt><trkpt lat="44.694130261192576" lon="10.193163922144702"><ele>288.25</ele><time>2026-04-24T14:08:02.999Z</time></trkpt><trkpt lat="44.69420493429486" lon="10.193294440020766"><ele>288.5</ele><time>2026-04-24T14:08:03.999Z</time></trkpt><trkpt lat="44.69425972359465" lon="10.193427237379947"><ele>288.75</ele><time>2026-04-24T14:08:04.999Z</time></trkpt><trkpt lat="44.69429174980726" lon="10.193568042173196"><ele>289.0</ele><time>2026-04-24T14:08:05.999Z</time></trkpt><trkpt lat="44.69432321026104" lon="10.193749920680006"><ele>289.0</ele><time>2026-04-24T14:08:06.999Z</time></trkpt><trkpt lat="44.69437241041465" lon="10.193967400220018"><ele>289.0</ele><time>2026-04-24T14:08:07.999Z</time></trkpt><trkpt lat="44.69442276737949" lon="10.194207397594235"><ele>289.0</ele><time>2026-04-24T14:08:08.999Z</time></trkpt><trkpt lat="44.69447540989531" lon="10.194442253607443"><ele>284.3333333333333</ele><time>2026-04-24T14:08:09.999Z</time></trkpt><trkpt lat="44.694558755088615" lon="10.194661320011217"><ele>279.6666666666667</ele><time>2026-04-24T14:08:10.999Z</time></trkpt><trkpt lat="44.694646696088085" lon="10.194875250737784"><ele>275.0</ele><time>2026-04-24T14:08:11.999Z</time></trkpt><trkpt lat="44.69474749208032" lon="10.195074335770983"><ele>275.0</ele><time>2026-04-24T14:08:12.999Z</time></trkpt><trkpt lat="44.69485142629389" lon="10.195274334160677"><ele>275.0</ele><time>2026-04-24T14:08:13.999Z</time></trkpt><trkpt lat="44.6949535514741" lon="10.195484206562863"><ele>275.0</ele><time>2026-04-24T14:08:14.999Z</time></trkpt><trkpt lat="44.69505688180826" lon="10.19568534206894"><ele>274.0</ele><time>2026-04-24T14:08:15.999Z</time></trkpt><trkpt lat="44.69514651679591" lon="10.195868401695058"><ele>273.0</ele><time>2026-04-24T14:08:16.999Z</time></trkpt><trkpt lat="44.69522332668114" lon="10.196023853090317"><ele>272.0</ele><time>2026-04-24T14:08:17.999Z</time></trkpt><trkpt lat="44.69530249913693" lon="10.196170169838316"><ele>271.0</ele><time>2026-04-24T14:08:18.999Z</time></trkpt><trkpt lat="44.695380285661756" lon="10.196298901989577"><ele>271.0</ele><time>2026-04-24T14:08:19.999Z</time></trkpt><trkpt lat="44.69546168425359" lon="10.196413912951154"><ele>271.0</ele><time>2026-04-24T14:08:20.999Z</time></trkpt><trkpt lat="44.69552846544624" lon="10.196525171043143"><ele>271.0</ele><time>2026-04-24T14:08:21.999Z</time></trkpt><trkpt lat="44.69555744621952" lon="10.19665194941552"><ele>271.0</ele><time>2026-04-24T14:08:22.999Z</time></trkpt><trkpt lat="44.69552986999016" lon="10.196794020005392"><ele>271.0</ele><time>2026-04-24T14:08:23.999Z</time></trkpt><trkpt lat="44.695531064420166" lon="10.19695359228412"><ele>273.2</ele><time>2026-04-24T14:08:24.999Z</time></trkpt><trkpt lat="44.69554641632257" lon="10.197106053495325"><ele>275.40000000000003</ele><time>2026-04-24T14:08:25.999Z</time></trkpt><trkpt lat="44.695591299719716" lon="10.197223189530451"><ele>277.6</ele><time>2026-04-24T14:08:26.999Z</time></trkpt><trkpt lat="44.69564432236875" lon="10.197327489945256"><ele>279.8</ele><time>2026-04-24T14:08:27.998Z</time></trkpt><trkpt lat="44.69570950364287" lon="10.197427002362467"><ele>282.0</ele><time>2026-04-24T14:08:28.998Z</time></trkpt><trkpt lat="44.69580638670847" lon="10.197498185486406"><ele>282.5</ele><time>2026-04-24T14:08:29.998Z</time></trkpt><trkpt lat="44.69594059044346" lon="10.197558753555295"><ele>283.0</ele><time>2026-04-24T14:08:30.998Z</time></trkpt><trkpt lat="44.69609248876555" lon="10.19763325290375"><ele>283.5</ele><time>2026-04-24T14:08:31.998Z</time></trkpt><trkpt lat="44.696217994752956" lon="10.19768817005456"><ele>284.0</ele><time>2026-04-24T14:08:32.998Z</time></trkpt><trkpt lat="44.69633566737852" lon="10.19774995369171"><ele>284.0</ele><time>2026-04-24T14:08:33.998Z</time></trkpt><trkpt lat="44.69647770297933" lon="10.197793127693641"><ele>284.0</ele><time>2026-04-24T14:08:34.998Z</time></trkpt><trkpt lat="44.696631109408166" lon="10.197838353411715"><ele>284.0</ele><time>2026-04-24T14:08:35.998Z</time></trkpt><trkpt lat="44.69678542453842" lon="10.197879324003573"><ele>281.5</ele><time>2026-04-24T14:08:36.998Z</time></trkpt><trkpt lat="44.6969219974394" lon="10.197921427549087"><ele>279.0</ele><time>2026-04-24T14:08:37.998Z</time></trkpt><trkpt lat="44.697052274827065" lon="10.197954833160132"><ele>276.5</ele><time>2026-04-24T14:08:38.998Z</time></trkpt><trkpt lat="44.697154741605324" lon="10.1980042851073"><ele>274.0</ele><time>2026-04-24T14:08:39.998Z</time></trkpt><trkpt lat="44.69723619185256" lon="10.19805816004508"><ele>274.0</ele><time>2026-04-24T14:08:40.998Z</time></trkpt><trkpt lat="44.69729149557973" lon="10.198125496600538"><ele>274.0</ele><time>2026-04-24T14:08:41.998Z</time></trkpt><trkpt lat="44.69732210820993" lon="10.198211544038795"><ele>274.0</ele><time>2026-04-24T14:08:42.998Z</time></trkpt><trkpt lat="44.6973002702984" lon="10.198314646216948"><ele>274.0</ele><time>2026-04-24T14:08:43.998Z</time></trkpt><trkpt lat="44.69722933831425" lon="10.19838285045821"><ele>274.0</ele><time>2026-04-24T14:08:44.998Z</time></trkpt><trkpt lat="44.69713623034596" lon="10.19842926745519"><ele>274.0</ele><time>2026-04-24T14:08:45.998Z</time></trkpt><trkpt lat="44.69704182027189" lon="10.198482484862751"><ele>276.0</ele><time>2026-04-24T14:08:46.998Z</time></trkpt><trkpt lat="44.69695185550013" lon="10.198549644469242"><ele>278.0</ele><time>2026-04-24T14:08:47.998Z</time></trkpt><trkpt lat="44.69687571066444" lon="10.198626317228745"><ele>280.0</ele><time>2026-04-24T14:08:48.998Z</time></trkpt><trkpt lat="44.69683023693495" lon="10.19874306248771"><ele>282.0</ele><time>2026-04-24T14:08:49.998Z</time></trkpt><trkpt lat="44.69679737168262" lon="10.198883963971067"><ele>284.0</ele><time>2026-04-24T14:08:50.998Z</time></trkpt><trkpt lat="44.69679050187004" lon="10.199046976886153"><ele>286.0</ele><time>2026-04-24T14:08:51.998Z</time></trkpt><trkpt lat="44.696787452672964" lon="10.199219782163482"><ele>288.0</ele><time>2026-04-24T14:08:52.998Z</time></trkpt><trkpt lat="44.69678805747185" lon="10.199400425483594"><ele>290.0</ele><time>2026-04-24T14:08:53.998Z</time></trkpt><trkpt lat="44.69679069146617" lon="10.199584401926598"><ele>292.0</ele><time>2026-04-24T14:08:54.998Z</time></trkpt><trkpt lat="44.69679455406959" lon="10.199772420202233"><ele>293.25</ele><time>2026-04-24T14:08:55.998Z</time></trkpt><trkpt lat="44.6968108534405" lon="10.199949871551533"><ele>294.5</ele><time>2026-04-24T14:08:56.998Z</time></trkpt><trkpt lat="44.696810216724806" lon="10.200106268084518"><ele>295.75</ele><time>2026-04-24T14:08:57.998Z</time></trkpt><trkpt lat="44.696798120842" lon="10.200261003071502"><ele>297.0</ele><time>2026-04-24T14:08:58.998Z</time></trkpt><trkpt lat="44.696774462964996" lon="10.200408954672502"><ele>297.0</ele><time>2026-04-24T14:08:59.998Z</time></trkpt><trkpt lat="44.69673914839451" lon="10.200538975194956"><ele>297.0</ele><time>2026-04-24T14:09:00.998Z</time></trkpt><trkpt lat="44.696682108238264" lon="10.200667587354348"><ele>297.0</ele><time>2026-04-24T14:09:01.998Z</time></trkpt><trkpt lat="44.69661176961373" lon="10.200804748582835"><ele>297.0</ele><time>2026-04-24T14:09:02.998Z</time></trkpt><trkpt lat="44.696535854349655" lon="10.200960658905888"><ele>297.5</ele><time>2026-04-24T14:09:03.998Z</time></trkpt><trkpt lat="44.69645309969083" lon="10.201130931742515"><ele>298.0</ele><time>2026-04-24T14:09:04.998Z</time></trkpt><trkpt lat="44.69638751889497" lon="10.201296776875253"><ele>298.5</ele><time>2026-04-24T14:09:05.998Z</time></trkpt><trkpt lat="44.69633975909965" lon="10.201459694707715"><ele>299.0</ele><time>2026-04-24T14:09:06.998Z</time></trkpt><trkpt lat="44.69629520059017" lon="10.201613807396468"><ele>297.25</ele><time>2026-04-24T14:09:07.998Z</time></trkpt><trkpt lat="44.69628665296602" lon="10.201777077217514"><ele>295.5</ele><time>2026-04-24T14:09:08.998Z</time></trkpt><trkpt lat="44.696306050817455" lon="10.201938069619551"><ele>293.75</ele><time>2026-04-24T14:09:09.998Z</time></trkpt><trkpt lat="44.69636097869243" lon="10.202079509787076"><ele>292.0</ele><time>2026-04-24T14:09:10.998Z</time></trkpt><trkpt lat="44.69643714792074" lon="10.202177596690351"><ele>292.0</ele><time>2026-04-24T14:09:11.998Z</time></trkpt><trkpt lat="44.69651520626486" lon="10.20227314761181"><ele>292.0</ele><time>2026-04-24T14:09:12.998Z</time></trkpt><trkpt lat="44.69659703672031" lon="10.202376724776135"><ele>292.0</ele><time>2026-04-24T14:09:13.998Z</time></trkpt><trkpt lat="44.6966589735638" lon="10.202505731538231"><ele>292.0</ele><time>2026-04-24T14:09:14.998Z</time></trkpt><trkpt lat="44.69671748581253" lon="10.202638323081404"><ele>292.0</ele><time>2026-04-24T14:09:15.998Z</time></trkpt><trkpt lat="44.696767111830596" lon="10.202790493955357"><ele>291.75</ele><time>2026-04-24T14:09:16.997Z</time></trkpt><trkpt lat="44.696823067263374" lon="10.202942156991716"><ele>291.5</ele><time>2026-04-24T14:09:17.997Z</time></trkpt><trkpt lat="44.69686627890916" lon="10.203107765316684"><ele>291.25</ele><time>2026-04-24T14:09:18.997Z</time></trkpt><trkpt lat="44.696929869405665" lon="10.203264611809619"><ele>291.0</ele><time>2026-04-24T14:09:19.997Z</time></trkpt><trkpt lat="44.697015683627704" lon="10.203409739029551"><ele>290.25</ele><time>2026-04-24T14:09:21Z</time></trkpt><trkpt lat="44.69711464969309" lon="10.203534235880126"><ele>289.5</ele><time>2026-04-24T14:09:22Z</time></trkpt><trkpt lat="44.69721003610669" lon="10.203672679223983"><ele>288.75</ele><time>2026-04-24T14:09:23Z</time></trkpt><trkpt lat="44.69730571697071" lon="10.20379406803911"><ele>288.0</ele><time>2026-04-24T14:09:24Z</time></trkpt><trkpt lat="44.69738501604198" lon="10.203909636160384"><ele>291.0</ele><time>2026-04-24T14:09:25Z</time></trkpt><trkpt lat="44.69744669564608" lon="10.204038001224115"><ele>294.0</ele><time>2026-04-24T14:09:26Z</time></trkpt><trkpt lat="44.69749821799439" lon="10.204183400097948"><ele>297.0</ele><time>2026-04-24T14:09:27Z</time></trkpt><trkpt lat="44.69755121514859" lon="10.204336214155168"><ele>300.0</ele><time>2026-04-24T14:09:28Z</time></trkpt><trkpt lat="44.69758458209983" lon="10.20449828647133"><ele>300.0</ele><time>2026-04-24T14:09:29Z</time></trkpt><trkpt lat="44.69761428770394" lon="10.204652304398698"><ele>300.0</ele><time>2026-04-24T14:09:30Z</time></trkpt><trkpt lat="44.69764122900611" lon="10.204804133883236"><ele>300.0</ele><time>2026-04-24T14:09:31Z</time></trkpt><trkpt lat="44.697665620824516" lon="10.204950384373452"><ele>300.0</ele><time>2026-04-24T14:09:32Z</time></trkpt><trkpt lat="44.69769033577888" lon="10.205087842427805"><ele>300.0</ele><time>2026-04-24T14:09:33Z</time></trkpt><trkpt lat="44.69771897507251" lon="10.205226655910069"><ele>300.0</ele><time>2026-04-24T14:09:34Z</time></trkpt><trkpt lat="44.69775564089935" lon="10.205372119354461"><ele>300.0</ele><time>2026-04-24T14:09:35Z</time></trkpt><trkpt lat="44.697795113037856" lon="10.20551682001685"><ele>300.0</ele><time>2026-04-24T14:09:36Z</time></trkpt><trkpt lat="44.69783016682336" lon="10.205664228553516"><ele>300.0</ele><time>2026-04-24T14:09:37Z</time></trkpt><trkpt lat="44.69787638998615" lon="10.20581399788478"><ele>300.0</ele><time>2026-04-24T14:09:38Z</time></trkpt><trkpt lat="44.69792982047844" lon="10.20596292964587"><ele>300.0</ele><time>2026-04-24T14:09:39Z</time></trkpt><trkpt lat="44.69798624203778" lon="10.206104467050562"><ele>300.0</ele><time>2026-04-24T14:09:40Z</time></trkpt><trkpt lat="44.69804163270719" lon="10.20623816463572"><ele>300.0</ele><time>2026-04-24T14:09:41Z</time></trkpt><trkpt lat="44.69809400029868" lon="10.206365327775337"><ele>300.0</ele><time>2026-04-24T14:09:42Z</time></trkpt><trkpt lat="44.69814416792654" lon="10.206484914496766"><ele>300.0</ele><time>2026-04-24T14:09:43Z</time></trkpt><trkpt lat="44.698182124111156" lon="10.206572577379106"><ele>299.4</ele><time>2026-04-24T14:09:44Z</time></trkpt><trkpt lat="44.69822985295021" lon="10.206692344249307"><ele>298.8</ele><time>2026-04-24T14:09:46Z</time></trkpt><trkpt lat="44.69827474470153" lon="10.206795596269828"><ele>298.2</ele><time>2026-04-24T14:09:48.999Z</time></trkpt><trkpt lat="44.6983316004208" lon="10.20694190146476"><ele>297.6</ele><time>2026-04-24T14:09:50.999Z</time></trkpt><trkpt lat="44.69837457883162" lon="10.20704476214882"><ele>297.0</ele><time>2026-04-24T14:09:51.999Z</time></trkpt><trkpt lat="44.69844184598551" lon="10.207149061068481"><ele>297.0</ele><time>2026-04-24T14:09:52.999Z</time></trkpt><trkpt lat="44.69849055774973" lon="10.20729368726232"><ele>297.0</ele><time>2026-04-24T14:09:53.999Z</time></trkpt><trkpt lat="44.6985447248982" lon="10.207444528140709"><ele>297.0</ele><time>2026-04-24T14:09:54.999Z</time></trkpt><trkpt lat="44.698610662084455" lon="10.207602472574553"><ele>297.0</ele><time>2026-04-24T14:09:55.999Z</time></trkpt><trkpt lat="44.698682476624924" lon="10.207767252105526"><ele>294.25</ele><time>2026-04-24T14:09:56.999Z</time></trkpt><trkpt lat="44.69875969835338" lon="10.207942973444146"><ele>291.5</ele><time>2026-04-24T14:09:57.999Z</time></trkpt><trkpt lat="44.698831674626206" lon="10.208103123093554"><ele>288.75</ele><time>2026-04-24T14:09:58.999Z</time></trkpt><trkpt lat="44.69891337639787" lon="10.208259925712609"><ele>286.0</ele><time>2026-04-24T14:09:59.999Z</time></trkpt><trkpt lat="44.69899422829699" lon="10.20841651991301"><ele>285.75</ele><time>2026-04-24T14:10:00.999Z</time></trkpt><trkpt lat="44.69907412212124" lon="10.208565624684693"><ele>285.5</ele><time>2026-04-24T14:10:01.999Z</time></trkpt><trkpt lat="44.69915589143268" lon="10.208715173557176"><ele>285.25</ele><time>2026-04-24T14:10:02.999Z</time></trkpt><trkpt lat="44.699232804408894" lon="10.20887069786919"><ele>285.0</ele><time>2026-04-24T14:10:03.999Z</time></trkpt><trkpt lat="44.69931335132818" lon="10.209017474450194"><ele>284.75</ele><time>2026-04-24T14:10:04.999Z</time></trkpt><trkpt lat="44.699397066197726" lon="10.209165111353718"><ele>284.5</ele><time>2026-04-24T14:10:05.999Z</time></trkpt><trkpt lat="44.69947527719989" lon="10.209318333688985"><ele>284.25</ele><time>2026-04-24T14:10:06.999Z</time></trkpt><trkpt lat="44.699546184440734" lon="10.209462394432565"><ele>284.0</ele><time>2026-04-24T14:10:07.999Z</time></trkpt><trkpt lat="44.69962646010535" lon="10.209581374120411"><ele>283.8</ele><time>2026-04-24T14:10:08.999Z</time></trkpt><trkpt lat="44.69971688044719" lon="10.209676085548784"><ele>283.59999999999997</ele><time>2026-04-24T14:10:09.999Z</time></trkpt><trkpt lat="44.69981930693469" lon="10.209744325670673"><ele>283.4</ele><time>2026-04-24T14:10:10.999Z</time></trkpt><trkpt lat="44.699922741235476" lon="10.209800665553837"><ele>283.2</ele><time>2026-04-24T14:10:11.999Z</time></trkpt><trkpt lat="44.700020185847606" lon="10.20987205279158"><ele>283.0</ele><time>2026-04-24T14:10:12.999Z</time></trkpt><trkpt lat="44.700105101133964" lon="10.20996505981879"><ele>281.75</ele><time>2026-04-24T14:10:13.999Z</time></trkpt><trkpt lat="44.700179361456954" lon="10.210094229290577"><ele>280.5</ele><time>2026-04-24T14:10:14.999Z</time></trkpt><trkpt lat="44.70025458079899" lon="10.210236749942426"><ele>279.25</ele><time>2026-04-24T14:10:15.999Z</time></trkpt><trkpt lat="44.700333206981696" lon="10.210381451200279"><ele>278.0</ele><time>2026-04-24T14:10:16.999Z</time></trkpt><trkpt lat="44.7004226175873" lon="10.210515645316775"><ele>277.5</ele><time>2026-04-24T14:10:17.999Z</time></trkpt><trkpt lat="44.70051689518864" lon="10.210632496963264"><ele>277.0</ele><time>2026-04-24T14:10:18.999Z</time></trkpt><trkpt lat="44.700615464506555" lon="10.210734084195648"><ele>276.5</ele><time>2026-04-24T14:10:19.999Z</time></trkpt><trkpt lat="44.7007263226864" lon="10.210810119105528"><ele>276.0</ele><time>2026-04-24T14:10:20.999Z</time></trkpt><trkpt lat="44.70084438693756" lon="10.210876712159028"><ele>273.25</ele><time>2026-04-24T14:10:21.999Z</time></trkpt><trkpt lat="44.700967621628735" lon="10.210950054391462"><ele>270.5</ele><time>2026-04-24T14:10:22.999Z</time></trkpt><trkpt lat="44.70109647170298" lon="10.21102991007984"><ele>267.75</ele><time>2026-04-24T14:10:23.999Z</time></trkpt><trkpt lat="44.70123688288999" lon="10.211101881063811"><ele>265.0</ele><time>2026-04-24T14:10:24.999Z</time></trkpt><trkpt lat="44.701378313186744" lon="10.211162898223098"><ele>262.0</ele><time>2026-04-24T14:10:25.999Z</time></trkpt><trkpt lat="44.7015255321921" lon="10.211219539938735"><ele>259.0</ele><time>2026-04-24T14:10:26.999Z</time></trkpt><trkpt lat="44.701673017501044" lon="10.211271123936237"><ele>256.0</ele><time>2026-04-24T14:10:27.999Z</time></trkpt><trkpt lat="44.701820912349575" lon="10.211329047989286"><ele>254.33333333333331</ele><time>2026-04-24T14:10:28.999Z</time></trkpt><trkpt lat="44.701971633831945" lon="10.211378109028221"><ele>252.66666666666669</ele><time>2026-04-24T14:10:29.999Z</time></trkpt><trkpt lat="44.702122364249746" lon="10.21142671849258"><ele>251.0</ele><time>2026-04-24T14:10:30.999Z</time></trkpt><trkpt lat="44.70227459491852" lon="10.21147488559866"><ele>249.66666666666669</ele><time>2026-04-24T14:10:31.999Z</time></trkpt><trkpt lat="44.70242394351028" lon="10.211524489135597"><ele>248.33333333333331</ele><time>2026-04-24T14:10:32.999Z</time></trkpt><trkpt lat="44.70257555517116" lon="10.211573548927763"><ele>247.0</ele><time>2026-04-24T14:10:33.999Z</time></trkpt><trkpt lat="44.70272455597883" lon="10.211624517357665"><ele>246.33333333333331</ele><time>2026-04-24T14:10:34.999Z</time></trkpt><trkpt lat="44.70287639734724" lon="10.211674553481112"><ele>245.66666666666669</ele><time>2026-04-24T14:10:35.999Z</time></trkpt><trkpt lat="44.70302855226479" lon="10.211726119755886"><ele>245.0</ele><time>2026-04-24T14:10:36.998Z</time></trkpt><trkpt lat="44.70317663415099" lon="10.211780426537006"><ele>245.0</ele><time>2026-04-24T14:10:37.998Z</time></trkpt><trkpt lat="44.703313989175086" lon="10.211828017945656"><ele>245.0</ele><time>2026-04-24T14:10:38.998Z</time></trkpt><trkpt lat="44.70344792348547" lon="10.211873859553611"><ele>245.0</ele><time>2026-04-24T14:10:39.998Z</time></trkpt><trkpt lat="44.70358471859595" lon="10.211914483459578"><ele>245.0</ele><time>2026-04-24T14:10:40.998Z</time></trkpt><trkpt lat="44.70372239002846" lon="10.211963609654713"><ele>243.75</ele><time>2026-04-24T14:10:41.998Z</time></trkpt><trkpt lat="44.703859315795604" lon="10.21200731431798"><ele>242.5</ele><time>2026-04-24T14:10:42.998Z</time></trkpt><trkpt lat="44.70399628989706" lon="10.21205994319434"><ele>241.25</ele><time>2026-04-24T14:10:43.998Z</time></trkpt><trkpt lat="44.70413746340608" lon="10.21211133526955"><ele>240.0</ele><time>2026-04-24T14:10:44.998Z</time></trkpt><trkpt lat="44.704280077297796" lon="10.212156182562044"><ele>237.66666666666669</ele><time>2026-04-24T14:10:45.998Z</time></trkpt><trkpt lat="44.70442635805069" lon="10.212200802208995"><ele>235.33333333333334</ele><time>2026-04-24T14:10:46.998Z</time></trkpt><trkpt lat="44.70457387073907" lon="10.212249193870234"><ele>233.0</ele><time>2026-04-24T14:10:47.998Z</time></trkpt><trkpt lat="44.704723788786495" lon="10.212302507524543"><ele>233.33333333333334</ele><time>2026-04-24T14:10:48.998Z</time></trkpt><trkpt lat="44.70487915570383" lon="10.212352013173339"><ele>233.66666666666669</ele><time>2026-04-24T14:10:49.998Z</time></trkpt><trkpt lat="44.70503753408182" lon="10.212399896078155"><ele>234.0</ele><time>2026-04-24T14:10:50.998Z</time></trkpt><trkpt lat="44.70519582267986" lon="10.21244999596012"><ele>232.33333333333331</ele><time>2026-04-24T14:10:51.998Z</time></trkpt><trkpt lat="44.70534917395948" lon="10.212522330363623"><ele>230.66666666666666</ele><time>2026-04-24T14:10:52.998Z</time></trkpt><trkpt lat="44.70551023138468" lon="10.212551580731688"><ele>229.0</ele><time>2026-04-24T14:10:53.998Z</time></trkpt><trkpt lat="44.705666208568296" lon="10.212612819467441"><ele>229.0</ele><time>2026-04-24T14:10:54.998Z</time></trkpt><trkpt lat="44.705827904582414" lon="10.21266353800683"><ele>229.0</ele><time>2026-04-24T14:10:55.998Z</time></trkpt><trkpt lat="44.70598188247871" lon="10.212711204294939"><ele>229.0</ele><time>2026-04-24T14:10:56.998Z</time></trkpt><trkpt lat="44.70613312680368" lon="10.212759107205216"><ele>228.66666666666666</ele><time>2026-04-24T14:10:57.998Z</time></trkpt><trkpt lat="44.706283469213616" lon="10.212805160413254"><ele>228.33333333333331</ele><time>2026-04-24T14:10:58.998Z</time></trkpt><trkpt lat="44.70642988258506" lon="10.212876205873144"><ele>228.0</ele><time>2026-04-24T14:10:59.998Z</time></trkpt><trkpt lat="44.70658317720782" lon="10.212927737000486"><ele>228.0</ele><time>2026-04-24T14:11:00.998Z</time></trkpt><trkpt lat="44.70673609946211" lon="10.212978924077746"><ele>228.0</ele><time>2026-04-24T14:11:01.998Z</time></trkpt><trkpt lat="44.70689176972185" lon="10.213009291477396"><ele>228.0</ele><time>2026-04-24T14:11:02.998Z</time></trkpt><trkpt lat="44.70703933720583" lon="10.213057175647894"><ele>227.75</ele><time>2026-04-24T14:11:03.998Z</time></trkpt><trkpt lat="44.7071813481195" lon="10.21312796045004"><ele>227.5</ele><time>2026-04-24T14:11:04.998Z</time></trkpt><trkpt lat="44.707321857078654" lon="10.213151952430213"><ele>227.25</ele><time>2026-04-24T14:11:05.998Z</time></trkpt><trkpt lat="44.707453974859824" lon="10.213198706298712"><ele>227.0</ele><time>2026-04-24T14:11:06.998Z</time></trkpt><trkpt lat="44.70758112428246" lon="10.213241581578101"><ele>226.75</ele><time>2026-04-24T14:11:07.998Z</time></trkpt><trkpt lat="44.70770470426692" lon="10.213281202100124"><ele>226.5</ele><time>2026-04-24T14:11:08.998Z</time></trkpt><trkpt lat="44.70782104948593" lon="10.213324435762752"><ele>226.25</ele><time>2026-04-24T14:11:09.998Z</time></trkpt><trkpt lat="44.70794525196721" lon="10.213390065363111"><ele>226.0</ele><time>2026-04-24T14:11:10.998Z</time></trkpt><trkpt lat="44.70807400549753" lon="10.213423842624325"><ele>225.0</ele><time>2026-04-24T14:11:11.998Z</time></trkpt><trkpt lat="44.70820610478682" lon="10.213492398293807"><ele>224.0</ele><time>2026-04-24T14:11:12.998Z</time></trkpt><trkpt lat="44.70833268996511" lon="10.213585968356618"><ele>223.0</ele><time>2026-04-24T14:11:13.998Z</time></trkpt><trkpt lat="44.70846552791937" lon="10.21364281740503"><ele>222.0</ele><time>2026-04-24T14:11:14.998Z</time></trkpt><trkpt lat="44.70861517175295" lon="10.213693474117287"><ele>220.75</ele><time>2026-04-24T14:11:15.998Z</time></trkpt><trkpt lat="44.70875296041056" lon="10.213753544689446"><ele>219.5</ele><time>2026-04-24T14:11:16.998Z</time></trkpt><trkpt lat="44.70889555301462" lon="10.213821789601575"><ele>218.25</ele><time>2026-04-24T14:11:17.998Z</time></trkpt><trkpt lat="44.70902650044691" lon="10.213889085640568"><ele>217.0</ele><time>2026-04-24T14:11:18.998Z</time></trkpt><trkpt lat="44.709165156952096" lon="10.213958450394818"><ele>217.0</ele><time>2026-04-24T14:11:19.998Z</time></trkpt><trkpt lat="44.70930034021018" lon="10.214021600993215"><ele>217.0</ele><time>2026-04-24T14:11:20.998Z</time></trkpt><trkpt lat="44.70943038546737" lon="10.214082985038978"><ele>217.0</ele><time>2026-04-24T14:11:21.998Z</time></trkpt><trkpt lat="44.70955321798617" lon="10.214144057755941"><ele>217.0</ele><time>2026-04-24T14:11:22.998Z</time></trkpt><trkpt lat="44.70968022407956" lon="10.214210643017688"><ele>216.5</ele><time>2026-04-24T14:11:23.998Z</time></trkpt><trkpt lat="44.709810576887854" lon="10.214272288085246"><ele>216.0</ele><time>2026-04-24T14:11:24.998Z</time></trkpt><trkpt lat="44.70994237633038" lon="10.214335199048547"><ele>215.5</ele><time>2026-04-24T14:11:25.997Z</time></trkpt><trkpt lat="44.71007294641071" lon="10.21440297337213"><ele>215.0</ele><time>2026-04-24T14:11:27Z</time></trkpt><trkpt lat="44.71020746135347" lon="10.2144670198488"><ele>214.25</ele><time>2026-04-24T14:11:28Z</time></trkpt><trkpt lat="44.71034250780953" lon="10.214525948634776"><ele>213.5</ele><time>2026-04-24T14:11:29Z</time></trkpt><trkpt lat="44.71047326879579" lon="10.21459161295856"><ele>212.75</ele><time>2026-04-24T14:11:30Z</time></trkpt><trkpt lat="44.71060860443025" lon="10.21465580215232"><ele>212.0</ele><time>2026-04-24T14:11:31Z</time></trkpt><trkpt lat="44.7107412361943" lon="10.21471703569384"><ele>212.0</ele><time>2026-04-24T14:11:32Z</time></trkpt><trkpt lat="44.710877380723595" lon="10.214783514252835"><ele>212.0</ele><time>2026-04-24T14:11:33Z</time></trkpt><trkpt lat="44.711013083770055" lon="10.21484718121907"><ele>212.0</ele><time>2026-04-24T14:11:34Z</time></trkpt><trkpt lat="44.71114598448245" lon="10.214912147650308"><ele>212.0</ele><time>2026-04-24T14:11:35Z</time></trkpt><trkpt lat="44.711273662629836" lon="10.214979291363116"><ele>210.5</ele><time>2026-04-24T14:11:36Z</time></trkpt><trkpt lat="44.71140169973889" lon="10.215036486865595"><ele>209.0</ele><time>2026-04-24T14:11:37Z</time></trkpt><trkpt lat="44.7115336495767" lon="10.215092848734578"><ele>207.5</ele><time>2026-04-24T14:11:38Z</time></trkpt><trkpt lat="44.71166230072735" lon="10.21515453835437"><ele>206.0</ele><time>2026-04-24T14:11:39Z</time></trkpt><trkpt lat="44.71178922699247" lon="10.215217883480568"><ele>205.5</ele><time>2026-04-24T14:11:40Z</time></trkpt><trkpt lat="44.71191761808744" lon="10.215282887211856"><ele>205.0</ele><time>2026-04-24T14:11:41Z</time></trkpt><trkpt lat="44.712049660218064" lon="10.215353332567952"><ele>204.5</ele><time>2026-04-24T14:11:42Z</time></trkpt><trkpt lat="44.71218073749221" lon="10.21542171243906"><ele>204.0</ele><time>2026-04-24T14:11:43Z</time></trkpt><trkpt lat="44.712315851716056" lon="10.215481074206751"><ele>204.0</ele><time>2026-04-24T14:11:44Z</time></trkpt><trkpt lat="44.71244958564394" lon="10.215558022753411"><ele>204.0</ele><time>2026-04-24T14:11:45Z</time></trkpt><trkpt lat="44.71259436403797" lon="10.215603419452579"><ele>204.0</ele><time>2026-04-24T14:11:46Z</time></trkpt><trkpt lat="44.712734828752666" lon="10.21568302049236"><ele>204.0</ele><time>2026-04-24T14:11:47Z</time></trkpt><trkpt lat="44.71288411908224" lon="10.215759751373884"><ele>203.0</ele><time>2026-04-24T14:11:48Z</time></trkpt><trkpt lat="44.71303488621104" lon="10.215832014211141"><ele>202.0</ele><time>2026-04-24T14:11:49Z</time></trkpt><trkpt lat="44.71318595046358" lon="10.215900693638947"><ele>201.0</ele><time>2026-04-24T14:11:50Z</time></trkpt><trkpt lat="44.71333489678316" lon="10.215969493254967"><ele>201.0</ele><time>2026-04-24T14:11:51Z</time></trkpt><trkpt lat="44.71348563193623" lon="10.216042807889567"><ele>201.0</ele><time>2026-04-24T14:11:52Z</time></trkpt><trkpt lat="44.71363483711549" lon="10.216115975233722"><ele>201.0</ele><time>2026-04-24T14:11:53Z</time></trkpt><trkpt lat="44.71377933661758" lon="10.216192419291517"><ele>199.66666666666669</ele><time>2026-04-24T14:11:54Z</time></trkpt><trkpt lat="44.71392823182895" lon="10.21626717010123"><ele>198.33333333333334</ele><time>2026-04-24T14:11:55Z</time></trkpt><trkpt lat="44.714082448731524" lon="10.216338476994707"><ele>197.0</ele><time>2026-04-24T14:11:56Z</time></trkpt><trkpt lat="44.71423223606782" lon="10.216411500191013"><ele>197.0</ele><time>2026-04-24T14:11:57Z</time></trkpt><trkpt lat="44.71438495523588" lon="10.21648449220723"><ele>197.0</ele><time>2026-04-24T14:11:57.999Z</time></trkpt><trkpt lat="44.71453863676526" lon="10.216559232803165"><ele>197.0</ele><time>2026-04-24T14:11:58.999Z</time></trkpt><trkpt lat="44.71469187330658" lon="10.216632871681151"><ele>195.33333333333334</ele><time>2026-04-24T14:11:59.999Z</time></trkpt><trkpt lat="44.71484701723911" lon="10.216707240348532"><ele>193.66666666666669</ele><time>2026-04-24T14:12:00.999Z</time></trkpt><trkpt lat="44.71499566428191" lon="10.216777466084833"><ele>192.0</ele><time>2026-04-24T14:12:01.999Z</time></trkpt><trkpt lat="44.715145843409545" lon="10.216848056566441"><ele>191.5</ele><time>2026-04-24T14:12:02.999Z</time></trkpt><trkpt lat="44.71528675434054" lon="10.216915557506217"><ele>191.0</ele><time>2026-04-24T14:12:03.999Z</time></trkpt><trkpt lat="44.71541473668642" lon="10.216984557780142"><ele>190.5</ele><time>2026-04-24T14:12:04.999Z</time></trkpt><trkpt lat="44.71554263872431" lon="10.217047524607182"><ele>190.0</ele><time>2026-04-24T14:12:05.999Z</time></trkpt><trkpt lat="44.71566309633073" lon="10.217110220964544"><ele>190.0</ele><time>2026-04-24T14:12:06.999Z</time></trkpt><trkpt lat="44.71578035989492" lon="10.217165551353611"><ele>190.0</ele><time>2026-04-24T14:12:07.999Z</time></trkpt><trkpt lat="44.715887732357366" lon="10.217211251512618"><ele>190.0</ele><time>2026-04-24T14:12:08.999Z</time></trkpt><trkpt lat="44.715989287944716" lon="10.217257009183715"><ele>190.0</ele><time>2026-04-24T14:12:09.999Z</time></trkpt><trkpt lat="44.716085950980286" lon="10.217303254322067"><ele>190.0</ele><time>2026-04-24T14:12:10.999Z</time></trkpt><trkpt lat="44.716171002592986" lon="10.217353772371716"><ele>188.0</ele><time>2026-04-24T14:12:11.999Z</time></trkpt><trkpt lat="44.71624340525514" lon="10.217442894132391"><ele>186.0</ele><time>2026-04-24T14:12:13.999Z</time></trkpt><trkpt lat="44.71623435714251" lon="10.217563805202069"><ele>184.0</ele><time>2026-04-24T14:12:15.999Z</time></trkpt><trkpt lat="44.716212371491494" lon="10.217670789940565"><ele>182.0</ele><time>2026-04-24T14:12:16.999Z</time></trkpt><trkpt lat="44.7161714932951" lon="10.217793911816626"><ele>180.0</ele><time>2026-04-24T14:12:17.999Z</time></trkpt><trkpt lat="44.716136017130346" lon="10.217929232897445"><ele>180.0</ele><time>2026-04-24T14:12:18.999Z</time></trkpt><trkpt lat="44.71609959551995" lon="10.218081720716057"><ele>180.0</ele><time>2026-04-24T14:12:19.999Z</time></trkpt><trkpt lat="44.716062804443126" lon="10.218232730134673"><ele>180.0</ele><time>2026-04-24T14:12:20.999Z</time></trkpt><trkpt lat="44.7160274123364" lon="10.218371210368273"><ele>180.0</ele><time>2026-04-24T14:12:21.999Z</time></trkpt><trkpt lat="44.71598920199281" lon="10.21850705682702"><ele>180.0</ele><time>2026-04-24T14:12:22.999Z</time></trkpt><trkpt lat="44.71595230894762" lon="10.218645662288047"><ele>180.5</ele><time>2026-04-24T14:12:23.999Z</time></trkpt><trkpt lat="44.71591556676079" lon="10.218780558756675"><ele>181.0</ele><time>2026-04-24T14:12:24.999Z</time></trkpt><trkpt lat="44.71588383340454" lon="10.218904188528775"><ele>181.5</ele><time>2026-04-24T14:12:25.999Z</time></trkpt><trkpt lat="44.715853451516494" lon="10.219020284076699"><ele>182.0</ele><time>2026-04-24T14:12:26.999Z</time></trkpt><trkpt lat="44.715824058198066" lon="10.219129068105483"><ele>182.5</ele><time>2026-04-24T14:12:27.999Z</time></trkpt><trkpt lat="44.71579782367429" lon="10.219226836349371"><ele>183.0</ele><time>2026-04-24T14:12:28.999Z</time></trkpt><trkpt lat="44.715754019609214" lon="10.219330427877049"><ele>183.0</ele><time>2026-04-24T14:12:30.999Z</time></trkpt><trkpt lat="44.71560645565373" lon="10.219263487056388"><ele>183.0</ele><time>2026-04-24T14:12:33.999Z</time></trkpt><trkpt lat="44.715542125777354" lon="10.219219096844853"><ele>183.0</ele><time>2026-04-24T14:12:34.999Z</time></trkpt><trkpt lat="44.715426635466066" lon="10.219155297281281"><ele>183.0</ele><time>2026-04-24T14:12:36.999Z</time></trkpt><trkpt lat="44.71535232920036" lon="10.219131796117345"><ele>183.0</ele><time>2026-04-24T14:12:37.999Z</time></trkpt><trkpt lat="44.7152904244646" lon="10.219108326247886"><ele>183.0</ele><time>2026-04-24T14:12:38.999Z</time></trkpt><trkpt lat="44.71522315097034" lon="10.219088443841143"><ele>183.0</ele><time>2026-04-24T14:12:39.999Z</time></trkpt><trkpt lat="44.7151541742598" lon="10.219054166269537"><ele>183.0</ele><time>2026-04-24T14:12:40.999Z</time></trkpt><trkpt lat="44.71508594787073" lon="10.219023405602856"><ele>183.0</ele><time>2026-04-24T14:12:41.999Z</time></trkpt><trkpt lat="44.71502145061341" lon="10.21899194863172"><ele>183.0</ele><time>2026-04-24T14:12:42.999Z</time></trkpt><trkpt lat="44.71495771996978" lon="10.218962377854654"><ele>183.0</ele><time>2026-04-24T14:12:43.999Z</time></trkpt><trkpt lat="44.714890449659244" lon="10.218931154473976"><ele>183.0</ele><time>2026-04-24T14:12:44.999Z</time></trkpt><trkpt lat="44.714824248858186" lon="10.218902473129809"><ele>183.33333333333334</ele><time>2026-04-24T14:12:45.998Z</time></trkpt><trkpt lat="44.714757402398384" lon="10.218869281423338"><ele>183.66666666666666</ele><time>2026-04-24T14:12:46.998Z</time></trkpt><trkpt lat="44.71469381888631" lon="10.218839732301728"><ele>184.0</ele><time>2026-04-24T14:12:47.998Z</time></trkpt><trkpt lat="44.71463646614953" lon="10.218788957632128"><ele>184.33333333333331</ele><time>2026-04-24T14:12:48.998Z</time></trkpt><trkpt lat="44.71456652738348" lon="10.218772626956824"><ele>184.66666666666666</ele><time>2026-04-24T14:12:49.998Z</time></trkpt><trkpt lat="44.71447900439222" lon="10.21867487637948"><ele>185.0</ele><time>2026-04-24T14:12:51.998Z</time></trkpt><trkpt lat="44.71440163536194" lon="10.218660130603018"><ele>185.0</ele><time>2026-04-24T14:12:53.998Z</time></trkpt><trkpt lat="44.71446411597549" lon="10.218797755284804"><ele>185.0</ele><time>2026-04-24T14:12:56.998Z</time></trkpt><trkpt lat="44.71457731936257" lon="10.218805703327218"><ele>185.0</ele><time>2026-04-24T14:12:58.998Z</time></trkpt><trkpt lat="44.71467754478289" lon="10.218854559546214"><ele>185.0</ele><time>2026-04-24T14:13:00.998Z</time></trkpt><trkpt lat="44.71478457316864" lon="10.218911447845526"><ele>185.0</ele><time>2026-04-24T14:13:02.998Z</time></trkpt><trkpt lat="44.714901065198106" lon="10.218970154229572"><ele>185.0</ele><time>2026-04-24T14:13:04.998Z</time></trkpt><trkpt lat="44.71496423646943" lon="10.219000514902289"><ele>185.0</ele><time>2026-04-24T14:13:05.998Z</time></trkpt><trkpt lat="44.71503084458978" lon="10.219025989257272"><ele>185.0</ele><time>2026-04-24T14:13:06.998Z</time></trkpt><trkpt lat="44.71510225885486" lon="10.219056940011432"><ele>185.0</ele><time>2026-04-24T14:13:07.998Z</time></trkpt><trkpt lat="44.715175834077655" lon="10.219089517051671"><ele>185.0</ele><time>2026-04-24T14:13:08.998Z</time></trkpt><trkpt lat="44.715252517440746" lon="10.219125775417156"><ele>184.66666666666666</ele><time>2026-04-24T14:13:09.998Z</time></trkpt><trkpt lat="44.7153320608559" lon="10.219162990145021"><ele>184.33333333333331</ele><time>2026-04-24T14:13:10.998Z</time></trkpt><trkpt lat="44.715401777516966" lon="10.219200263122234"><ele>184.0</ele><time>2026-04-24T14:13:11.998Z</time></trkpt><trkpt lat="44.71546957312392" lon="10.219235208211423"><ele>183.66666666666666</ele><time>2026-04-24T14:13:12.998Z</time></trkpt><trkpt lat="44.715537733501634" lon="10.219265939226073"><ele>183.33333333333334</ele><time>2026-04-24T14:13:13.998Z</time></trkpt><trkpt lat="44.715631259612834" lon="10.219308360171631"><ele>183.0</ele><time>2026-04-24T14:13:15.998Z</time></trkpt><trkpt lat="44.71569314748351" lon="10.219336449502954"><ele>183.0</ele><time>2026-04-24T14:13:17.998Z</time></trkpt><trkpt lat="44.715751389156814" lon="10.219392809498464"><ele>183.0</ele><time>2026-04-24T14:13:25.998Z</time></trkpt><trkpt lat="44.71573941579721" lon="10.219484176631784"><ele>183.0</ele><time>2026-04-24T14:13:26.998Z</time></trkpt><trkpt lat="44.71569424098571" lon="10.219656365749595"><ele>183.0</ele><time>2026-04-24T14:13:28.998Z</time></trkpt><trkpt lat="44.71566764351235" lon="10.219748891879249"><ele>183.0</ele><time>2026-04-24T14:13:29.998Z</time></trkpt><trkpt lat="44.71563878814139" lon="10.21984682800498"><ele>183.0</ele><time>2026-04-24T14:13:30.998Z</time></trkpt><trkpt lat="44.71560912790476" lon="10.219956591829767"><ele>182.66666666666666</ele><time>2026-04-24T14:13:32Z</time></trkpt><trkpt lat="44.715582705556216" lon="10.220064637274152"><ele>182.33333333333334</ele><time>2026-04-24T14:13:33Z</time></trkpt><trkpt lat="44.7155634601481" lon="10.22017411954581"><ele>182.0</ele><time>2026-04-24T14:13:34Z</time></trkpt><trkpt lat="44.71553834049363" lon="10.22027998524712"><ele>181.66666666666669</ele><time>2026-04-24T14:13:35Z</time></trkpt><trkpt lat="44.715506414237794" lon="10.220386881977872"><ele>181.33333333333334</ele><time>2026-04-24T14:13:36Z</time></trkpt><trkpt lat="44.71547859672551" lon="10.220492680699122"><ele>181.0</ele><time>2026-04-24T14:13:37Z</time></trkpt><trkpt lat="44.715447214997624" lon="10.220606585554608"><ele>180.60000000000002</ele><time>2026-04-24T14:13:38Z</time></trkpt><trkpt lat="44.71542087470377" lon="10.22071452905429"><ele>180.2</ele><time>2026-04-24T14:13:39Z</time></trkpt><trkpt lat="44.71538772557638" lon="10.220832517972292"><ele>179.8</ele><time>2026-04-24T14:13:40Z</time></trkpt><trkpt lat="44.71535462628507" lon="10.220953424740445"><ele>179.39999999999998</ele><time>2026-04-24T14:13:41Z</time></trkpt><trkpt lat="44.71531706063633" lon="10.22107795091671"><ele>179.0</ele><time>2026-04-24T14:13:42Z</time></trkpt><trkpt lat="44.71528136414747" lon="10.221201134783156"><ele>179.0</ele><time>2026-04-24T14:13:43Z</time></trkpt><trkpt lat="44.715248816252625" lon="10.221320151697789"><ele>179.0</ele><time>2026-04-24T14:13:44Z</time></trkpt><trkpt lat="44.71522154963959" lon="10.221434642607008"><ele>179.0</ele><time>2026-04-24T14:13:45Z</time></trkpt><trkpt lat="44.71519191040457" lon="10.221548170623581"><ele>179.0</ele><time>2026-04-24T14:13:46Z</time></trkpt><trkpt lat="44.715163560033915" lon="10.2216731058981"><ele>179.0</ele><time>2026-04-24T14:13:47Z</time></trkpt><trkpt lat="44.715124486430355" lon="10.221818611003313"><ele>179.25</ele><time>2026-04-24T14:13:48Z</time></trkpt><trkpt lat="44.715078874556376" lon="10.22197980913168"><ele>179.5</ele><time>2026-04-24T14:13:49Z</time></trkpt><trkpt lat="44.71503213679012" lon="10.222146391936452"><ele>179.75</ele><time>2026-04-24T14:13:50Z</time></trkpt><trkpt lat="44.71498778999038" lon="10.222327400556026"><ele>180.0</ele><time>2026-04-24T14:13:51Z</time></trkpt><trkpt lat="44.71494358672983" lon="10.222495501458855"><ele>179.2</ele><time>2026-04-24T14:13:52Z</time></trkpt><trkpt lat="44.714897709875906" lon="10.222656101206653"><ele>178.4</ele><time>2026-04-24T14:13:53Z</time></trkpt><trkpt lat="44.71485769462178" lon="10.22281208415877"><ele>177.60000000000002</ele><time>2026-04-24T14:13:54Z</time></trkpt><trkpt lat="44.7148232704815" lon="10.222958969129188"><ele>176.8</ele><time>2026-04-24T14:13:55Z</time></trkpt><trkpt lat="44.71479206488626" lon="10.223083164879847"><ele>176.0</ele><time>2026-04-24T14:13:56Z</time></trkpt><trkpt lat="44.714760054843154" lon="10.223202006497067"><ele>175.83333333333331</ele><time>2026-04-24T14:13:57Z</time></trkpt><trkpt lat="44.71472967145011" lon="10.223312179503896"><ele>175.66666666666666</ele><time>2026-04-24T14:13:58Z</time></trkpt><trkpt lat="44.71470555182143" lon="10.223418527140817"><ele>175.5</ele><time>2026-04-24T14:13:59Z</time></trkpt><trkpt lat="44.71468310023765" lon="10.223519585273031"><ele>175.33333333333334</ele><time>2026-04-24T14:14:00Z</time></trkpt><trkpt lat="44.71465389649609" lon="10.22362349623354"><ele>175.16666666666669</ele><time>2026-04-24T14:14:01Z</time></trkpt><trkpt lat="44.7146317275692" lon="10.223717769008445"><ele>175.0</ele><time>2026-04-24T14:14:02Z</time></trkpt><trkpt lat="44.714599536820884" lon="10.22381677543466"><ele>175.0</ele><time>2026-04-24T14:14:03Z</time></trkpt><trkpt lat="44.71456503554963" lon="10.223936757009945"><ele>175.0</ele><time>2026-04-24T14:14:04Z</time></trkpt><trkpt lat="44.714531014843594" lon="10.224067687080638"><ele>175.0</ele><time>2026-04-24T14:14:04.999Z</time></trkpt><trkpt lat="44.71449144418702" lon="10.224226075558986"><ele>175.0</ele><time>2026-04-24T14:14:05.999Z</time></trkpt><trkpt lat="44.71444624923764" lon="10.224391611924796"><ele>175.0</ele><time>2026-04-24T14:14:06.999Z</time></trkpt><trkpt lat="44.71440209410342" lon="10.224561445255365"><ele>174.8</ele><time>2026-04-24T14:14:07.999Z</time></trkpt><trkpt lat="44.7143658539121" lon="10.22470871475974"><ele>174.6</ele><time>2026-04-24T14:14:08.999Z</time></trkpt><trkpt lat="44.71432870689641" lon="10.224831216815916"><ele>174.39999999999998</ele><time>2026-04-24T14:14:09.999Z</time></trkpt><trkpt lat="44.714305863929006" lon="10.224927012553987"><ele>174.2</ele><time>2026-04-24T14:14:10.999Z</time></trkpt><trkpt lat="44.714252913490384" lon="10.225058505855436"><ele>174.0</ele><time>2026-04-24T14:14:12.999Z</time></trkpt><trkpt lat="44.714223447130486" lon="10.22520742633017"><ele>174.0</ele><time>2026-04-24T14:14:14.999Z</time></trkpt><trkpt lat="44.71432890977534" lon="10.225193912410429"><ele>174.0</ele><time>2026-04-24T14:14:16.999Z</time></trkpt><trkpt lat="44.714398369272665" lon="10.22518295340668"><ele>174.0</ele><time>2026-04-24T14:14:18.999Z</time></trkpt><trkpt lat="44.71448444080095" lon="10.225208435666907"><ele>174.0</ele><time>2026-04-24T14:14:21.999Z</time></trkpt><trkpt lat="44.7145518339518" lon="10.225231153549926"><ele>174.0</ele><time>2026-04-24T14:14:23.999Z</time></trkpt><trkpt lat="44.71464525790165" lon="10.225252966567282"><ele>174.0</ele><time>2026-04-24T14:14:26.999Z</time></trkpt><trkpt lat="44.714745762745906" lon="10.225280879496326"><ele>173.0</ele><time>2026-04-24T14:14:28.999Z</time></trkpt><trkpt lat="44.71484692855506" lon="10.225324340625688"><ele>172.0</ele><time>2026-04-24T14:14:30.999Z</time></trkpt><trkpt lat="44.71496404116358" lon="10.22535549346593"><ele>171.0</ele><time>2026-04-24T14:14:32.999Z</time></trkpt><trkpt lat="44.715086573338006" lon="10.225393858848658"><ele>170.0</ele><time>2026-04-24T14:14:34.999Z</time></trkpt><trkpt lat="44.71519813236446" lon="10.225416860762662"><ele>169.5</ele><time>2026-04-24T14:14:36.999Z</time></trkpt><trkpt lat="44.71526260376511" lon="10.225430627958232"><ele>169.0</ele><time>2026-04-24T14:14:37.999Z</time></trkpt><trkpt lat="44.71538148820731" lon="10.22546933178142"><ele>168.5</ele><time>2026-04-24T14:14:39.999Z</time></trkpt><trkpt lat="44.715460763997896" lon="10.225489389944029"><ele>168.0</ele><time>2026-04-24T14:14:40.999Z</time></trkpt><trkpt lat="44.71554526702458" lon="10.225515043938112"><ele>167.5</ele><time>2026-04-24T14:14:41.999Z</time></trkpt><trkpt lat="44.71563658756781" lon="10.225540426513938"><ele>167.0</ele><time>2026-04-24T14:14:42.999Z</time></trkpt><trkpt lat="44.7157309713017" lon="10.225566721283705"><ele>167.0</ele><time>2026-04-24T14:14:43.999Z</time></trkpt><trkpt lat="44.715823526875624" lon="10.225617886019393"><ele>167.0</ele><time>2026-04-24T14:14:44.999Z</time></trkpt><trkpt lat="44.715919959749776" lon="10.225646589097765"><ele>167.0</ele><time>2026-04-24T14:14:45.999Z</time></trkpt><trkpt lat="44.71602289187764" lon="10.225653852452938"><ele>167.0</ele><time>2026-04-24T14:14:46.999Z</time></trkpt><trkpt lat="44.71611513544576" lon="10.225691043341772"><ele>167.0</ele><time>2026-04-24T14:14:47.999Z</time></trkpt><trkpt lat="44.71620263529325" lon="10.225716027493336"><ele>167.0</ele><time>2026-04-24T14:14:48.999Z</time></trkpt><trkpt lat="44.71628808383127" lon="10.225750652782468"><ele>167.0</ele><time>2026-04-24T14:14:49.999Z</time></trkpt><trkpt lat="44.716365316730965" lon="10.225790923448406"><ele>167.0</ele><time>2026-04-24T14:14:50.999Z</time></trkpt><trkpt lat="44.716432391254294" lon="10.225847407684423"><ele>167.0</ele><time>2026-04-24T14:14:51.999Z</time></trkpt><trkpt lat="44.716487644444854" lon="10.225914153965153"><ele>167.0</ele><time>2026-04-24T14:14:52.998Z</time></trkpt><trkpt lat="44.71653585626008" lon="10.226001197243914"><ele>167.0</ele><time>2026-04-24T14:14:53.998Z</time></trkpt><trkpt lat="44.71659766905878" lon="10.22607703022813"><ele>167.0</ele><time>2026-04-24T14:14:54.998Z</time></trkpt><trkpt lat="44.7166481877502" lon="10.226161242678886"><ele>167.0</ele><time>2026-04-24T14:14:55.998Z</time></trkpt><trkpt lat="44.71659633790387" lon="10.226330951286121"><ele>167.0</ele><time>2026-04-24T14:14:56.998Z</time></trkpt><trkpt lat="44.71658424354232" lon="10.226439811314126"><ele>167.0</ele><time>2026-04-24T14:14:57.998Z</time></trkpt><trkpt lat="44.71655220352219" lon="10.226563389755265"><ele>167.0</ele><time>2026-04-24T14:14:58.998Z</time></trkpt><trkpt lat="44.71652957076314" lon="10.226694014084007"><ele>167.16666666666666</ele><time>2026-04-24T14:14:59.998Z</time></trkpt><trkpt lat="44.716513103000736" lon="10.22681772808509"><ele>167.33333333333331</ele><time>2026-04-24T14:15:00.998Z</time></trkpt><trkpt lat="44.716493951061246" lon="10.22692943238909"><ele>167.5</ele><time>2026-04-24T14:15:01.998Z</time></trkpt><trkpt lat="44.716482426604145" lon="10.227043349988472"><ele>167.66666666666666</ele><time>2026-04-24T14:15:02.998Z</time></trkpt><trkpt lat="44.716465015618574" lon="10.227152159331286"><ele>167.83333333333334</ele><time>2026-04-24T14:15:03.998Z</time></trkpt><trkpt lat="44.716447920071836" lon="10.227251601649975"><ele>168.0</ele><time>2026-04-24T14:15:04.998Z</time></trkpt><trkpt lat="44.716430323059384" lon="10.227357480025487"><ele>168.33333333333334</ele><time>2026-04-24T14:15:05.998Z</time></trkpt><trkpt lat="44.71641345586757" lon="10.22745861239572"><ele>168.66666666666666</ele><time>2026-04-24T14:15:06.998Z</time></trkpt><trkpt lat="44.71639647650917" lon="10.227567699220781"><ele>169.0</ele><time>2026-04-24T14:15:07.998Z</time></trkpt><trkpt lat="44.71638028733306" lon="10.227676180086153"><ele>169.33333333333331</ele><time>2026-04-24T14:15:08.998Z</time></trkpt><trkpt lat="44.716357869713896" lon="10.227779375803866"><ele>169.66666666666666</ele><time>2026-04-24T14:15:09.998Z</time></trkpt><trkpt lat="44.71634842222646" lon="10.227871411153588"><ele>170.0</ele><time>2026-04-24T14:15:10.998Z</time></trkpt><trkpt lat="44.716319467487935" lon="10.228036378713144"><ele>170.33333333333331</ele><time>2026-04-24T14:15:12.998Z</time></trkpt><trkpt lat="44.71627928104789" lon="10.228161683511301"><ele>170.66666666666666</ele><time>2026-04-24T14:15:14.998Z</time></trkpt><trkpt lat="44.716269711153025" lon="10.228296170194113"><ele>171.0</ele><time>2026-04-24T14:15:17.998Z</time></trkpt><trkpt lat="44.71624658544815" lon="10.228416367094084"><ele>171.33333333333334</ele><time>2026-04-24T14:15:19.998Z</time></trkpt><trkpt lat="44.71625448846356" lon="10.2285072525548"><ele>171.66666666666669</ele><time>2026-04-24T14:15:20.998Z</time></trkpt><trkpt lat="44.716248433362395" lon="10.228600216610765"><ele>172.0</ele><time>2026-04-24T14:15:21.998Z</time></trkpt><trkpt lat="44.71622913508832" lon="10.22870109259773"><ele>172.0</ele><time>2026-04-24T14:15:22.998Z</time></trkpt><trkpt lat="44.71619858246175" lon="10.228846285534814"><ele>172.0</ele><time>2026-04-24T14:15:24.998Z</time></trkpt><trkpt lat="44.716194586497295" lon="10.228983782193463"><ele>172.0</ele><time>2026-04-24T14:15:26.998Z</time></trkpt><trkpt lat="44.71616525499092" lon="10.229114989631311"><ele>172.0</ele><time>2026-04-24T14:15:28.998Z</time></trkpt><trkpt lat="44.71614708712321" lon="10.229249320461838"><ele>172.0</ele><time>2026-04-24T14:15:30.998Z</time></trkpt><trkpt lat="44.71612234498148" lon="10.229395096628407"><ele>172.16666666666669</ele><time>2026-04-24T14:15:32.998Z</time></trkpt><trkpt lat="44.716095092540414" lon="10.22955077066673"><ele>172.33333333333334</ele><time>2026-04-24T14:15:34.998Z</time></trkpt><trkpt lat="44.71606535252823" lon="10.229723133721684"><ele>172.5</ele><time>2026-04-24T14:15:36.998Z</time></trkpt><trkpt lat="44.71605112080561" lon="10.229811123585137"><ele>172.66666666666666</ele><time>2026-04-24T14:15:38Z</time></trkpt><trkpt lat="44.716037393110575" lon="10.229905911312077"><ele>172.83333333333331</ele><time>2026-04-24T14:15:39Z</time></trkpt><trkpt lat="44.71602110265701" lon="10.230001186723117"><ele>173.0</ele><time>2026-04-24T14:15:40Z</time></trkpt><trkpt lat="44.71600486593843" lon="10.230095512453861"><ele>171.83333333333331</ele><time>2026-04-24T14:15:41Z</time></trkpt><trkpt lat="44.715989988657036" lon="10.230202654798262"><ele>170.66666666666666</ele><time>2026-04-24T14:15:42Z</time></trkpt><trkpt lat="44.715973293321085" lon="10.230311707294787"><ele>169.5</ele><time>2026-04-24T14:15:43Z</time></trkpt><trkpt lat="44.71595378508089" lon="10.230424947334434"><ele>168.33333333333334</ele><time>2026-04-24T14:15:44Z</time></trkpt><trkpt lat="44.71593788552915" lon="10.230538907122115"><ele>167.16666666666669</ele><time>2026-04-24T14:15:45Z</time></trkpt><trkpt lat="44.715918658157356" lon="10.230657416389223"><ele>166.0</ele><time>2026-04-24T14:15:46Z</time></trkpt><trkpt lat="44.71589904920315" lon="10.230776140290054"><ele>165.83333333333334</ele><time>2026-04-24T14:15:47Z</time></trkpt><trkpt lat="44.71588296500613" lon="10.230886033400992"><ele>165.66666666666669</ele><time>2026-04-24T14:15:48Z</time></trkpt><trkpt lat="44.7158702006066" lon="10.230995565214975"><ele>165.5</ele><time>2026-04-24T14:15:49Z</time></trkpt><trkpt lat="44.71585151243437" lon="10.231101739280447"><ele>165.33333333333334</ele><time>2026-04-24T14:15:50Z</time></trkpt><trkpt lat="44.715827254444605" lon="10.23125174514936"><ele>165.16666666666666</ele><time>2026-04-24T14:15:52Z</time></trkpt><trkpt lat="44.71580737376487" lon="10.231350398707788"><ele>165.0</ele><time>2026-04-24T14:15:54Z</time></trkpt><trkpt lat="44.715791849457226" lon="10.23144351889845"><ele>164.6</ele><time>2026-04-24T14:16:14.999Z</time></trkpt><trkpt lat="44.71576571171739" lon="10.231540971815411"><ele>164.2</ele><time>2026-04-24T14:16:24.999Z</time></trkpt><trkpt lat="44.71575261787579" lon="10.2316325833594"><ele>163.8</ele><time>2026-04-24T14:16:51.999Z</time></trkpt><trkpt lat="44.71557435036382" lon="10.231642707354176"><ele>163.4</ele><time>2026-04-24T14:17:01.999Z</time></trkpt><trkpt lat="44.71550236827635" lon="10.231620704747744"><ele>163.0</ele><time>2026-04-24T14:17:02.999Z</time></trkpt><trkpt lat="44.715433845038675" lon="10.231595851189923"><ele>163.0</ele><time>2026-04-24T14:17:03.998Z</time></trkpt><trkpt lat="44.71534454488971" lon="10.231586718838871"><ele>163.0</ele><time>2026-04-24T14:17:04.998Z</time></trkpt><trkpt lat="44.71525705874777" lon="10.231558482020409"><ele>163.0</ele><time>2026-04-24T14:17:05.998Z</time></trkpt><trkpt lat="44.715171160797084" lon="10.231531050686959"><ele>163.0</ele><time>2026-04-24T14:17:06.998Z</time></trkpt><trkpt lat="44.71505931264407" lon="10.231506437994462"><ele>163.0</ele><time>2026-04-24T14:17:07.998Z</time></trkpt><trkpt lat="44.71492479672609" lon="10.23144253516498"><ele>163.0</ele><time>2026-04-24T14:17:08.998Z</time></trkpt><trkpt lat="44.714787491546375" lon="10.231397532930602"><ele>163.0</ele><time>2026-04-24T14:17:09.998Z</time></trkpt><trkpt lat="44.714647974155845" lon="10.231353390838157"><ele>163.0</ele><time>2026-04-24T14:17:10.998Z</time></trkpt><trkpt lat="44.714521404160784" lon="10.231331275563427"><ele>163.0</ele><time>2026-04-24T14:17:11.998Z</time></trkpt><trkpt lat="44.71440901887751" lon="10.23129452551301"><ele>163.60000000000002</ele><time>2026-04-24T14:17:12.998Z</time></trkpt><trkpt lat="44.7143066822628" lon="10.231264073042052"><ele>164.20000000000002</ele><time>2026-04-24T14:17:13.998Z</time></trkpt><trkpt lat="44.714216770445326" lon="10.23123912293152"><ele>164.8</ele><time>2026-04-24T14:17:14.998Z</time></trkpt><trkpt lat="44.71411788195783" lon="10.231213324788584"><ele>165.4</ele><time>2026-04-24T14:17:15.998Z</time></trkpt><trkpt lat="44.714005521632245" lon="10.231197778836245"><ele>166.0</ele><time>2026-04-24T14:17:16.998Z</time></trkpt><trkpt lat="44.71389009224187" lon="10.231212772961815"><ele>166.0</ele><time>2026-04-24T14:17:17.998Z</time></trkpt><trkpt lat="44.71378687276551" lon="10.231258193341828"><ele>166.0</ele><time>2026-04-24T14:17:18.998Z</time></trkpt><trkpt lat="44.713692575637715" lon="10.231286880077969"><ele>166.0</ele><time>2026-04-24T14:17:19.998Z</time></trkpt><trkpt lat="44.713589116595585" lon="10.231323949797238"><ele>166.0</ele><time>2026-04-24T14:17:20.998Z</time></trkpt><trkpt lat="44.7134636258901" lon="10.231370645000009"><ele>166.0</ele><time>2026-04-24T14:17:21.998Z</time></trkpt><trkpt lat="44.713322633576986" lon="10.231419570355582"><ele>166.66666666666669</ele><time>2026-04-24T14:17:22.998Z</time></trkpt><trkpt lat="44.71315669112481" lon="10.23148065044697"><ele>167.33333333333334</ele><time>2026-04-24T14:17:23.998Z</time></trkpt><trkpt lat="44.712982380421494" lon="10.231547825064652"><ele>168.0</ele><time>2026-04-24T14:17:24.998Z</time></trkpt><trkpt lat="44.71280673745776" lon="10.231612561462867"><ele>167.5</ele><time>2026-04-24T14:17:25.998Z</time></trkpt><trkpt lat="44.71265513681164" lon="10.231680190525784"><ele>167.0</ele><time>2026-04-24T14:17:26.998Z</time></trkpt><trkpt lat="44.71251731328087" lon="10.231759766626741"><ele>166.5</ele><time>2026-04-24T14:17:27.998Z</time></trkpt><trkpt lat="44.71239970153514" lon="10.231854738308105"><ele>166.0</ele><time>2026-04-24T14:17:28.998Z</time></trkpt><trkpt lat="44.71230440454758" lon="10.231984763254166"><ele>166.0</ele><time>2026-04-24T14:17:29.998Z</time></trkpt><trkpt lat="44.7122250310645" lon="10.232136877850053"><ele>166.0</ele><time>2026-04-24T14:17:30.998Z</time></trkpt><trkpt lat="44.712163630991405" lon="10.232293442228686"><ele>166.0</ele><time>2026-04-24T14:17:31.998Z</time></trkpt><trkpt lat="44.71209949053896" lon="10.232441501633076"><ele>166.0</ele><time>2026-04-24T14:17:32.998Z</time></trkpt><trkpt lat="44.71204129137295" lon="10.232582275977798"><ele>166.20000000000002</ele><time>2026-04-24T14:17:33.998Z</time></trkpt><trkpt lat="44.71198758319783" lon="10.232710408170592"><ele>166.4</ele><time>2026-04-24T14:17:34.998Z</time></trkpt><trkpt lat="44.71194985058867" lon="10.23279901858694"><ele>166.6</ele><time>2026-04-24T14:17:35.998Z</time></trkpt><trkpt lat="44.711915568407534" lon="10.232891345194854"><ele>166.8</ele><time>2026-04-24T14:17:38.998Z</time></trkpt><trkpt lat="44.71184503580759" lon="10.23303271818821"><ele>167.0</ele><time>2026-04-24T14:17:41.998Z</time></trkpt><trkpt lat="44.711806320418376" lon="10.233126212377877"><ele>167.0</ele><time>2026-04-24T14:17:43Z</time></trkpt><trkpt lat="44.71176494156988" lon="10.233231703261538"><ele>167.0</ele><time>2026-04-24T14:17:44Z</time></trkpt><trkpt lat="44.71171510463585" lon="10.23334943008944"><ele>167.0</ele><time>2026-04-24T14:17:45Z</time></trkpt><trkpt lat="44.71166348911178" lon="10.233468484730862"><ele>167.0</ele><time>2026-04-24T14:17:46Z</time></trkpt><trkpt lat="44.711605885152146" lon="10.233600726786749"><ele>167.0</ele><time>2026-04-24T14:17:47Z</time></trkpt><trkpt lat="44.711547758565814" lon="10.233733864497328"><ele>167.0</ele><time>2026-04-24T14:17:48Z</time></trkpt><trkpt lat="44.71148224414973" lon="10.233877100925826"><ele>167.0</ele><time>2026-04-24T14:17:49Z</time></trkpt><trkpt lat="44.711412523979696" lon="10.234029623051923"><ele>167.0</ele><time>2026-04-24T14:17:50Z</time></trkpt><trkpt lat="44.71134615041522" lon="10.234182778221795"><ele>167.0</ele><time>2026-04-24T14:17:51Z</time></trkpt><trkpt lat="44.71127850995315" lon="10.23434195595058"><ele>166.25</ele><time>2026-04-24T14:17:52Z</time></trkpt><trkpt lat="44.71120740281018" lon="10.234509528565491"><ele>165.5</ele><time>2026-04-24T14:17:53Z</time></trkpt><trkpt lat="44.71113129081757" lon="10.234687729520003"><ele>164.75</ele><time>2026-04-24T14:17:54Z</time></trkpt><trkpt lat="44.71104940443495" lon="10.23488028609591"><ele>164.0</ele><time>2026-04-24T14:17:55Z</time></trkpt><trkpt lat="44.710959420628804" lon="10.235088966784328"><ele>164.0</ele><time>2026-04-24T14:17:56Z</time></trkpt><trkpt lat="44.71087181845761" lon="10.23528935726264"><ele>164.0</ele><time>2026-04-24T14:17:57Z</time></trkpt><trkpt lat="44.710789028509915" lon="10.235481982529182"><ele>164.0</ele><time>2026-04-24T14:17:58Z</time></trkpt><trkpt lat="44.71070293002056" lon="10.235679303327162"><ele>163.66666666666666</ele><time>2026-04-24T14:17:59Z</time></trkpt><trkpt lat="44.710619414262005" lon="10.235873703652446"><ele>163.33333333333334</ele><time>2026-04-24T14:18:00Z</time></trkpt><trkpt lat="44.710537023673496" lon="10.236064840956352"><ele>163.0</ele><time>2026-04-24T14:18:01Z</time></trkpt><trkpt lat="44.71045583429777" lon="10.236253064149714"><ele>163.0</ele><time>2026-04-24T14:18:02Z</time></trkpt><trkpt lat="44.71037461542696" lon="10.236436289242853"><ele>163.0</ele><time>2026-04-24T14:18:03Z</time></trkpt><trkpt lat="44.710297214177075" lon="10.236609286398672"><ele>163.0</ele><time>2026-04-24T14:18:04Z</time></trkpt><trkpt lat="44.710221421193374" lon="10.236781721656918"><ele>163.0</ele><time>2026-04-24T14:18:05Z</time></trkpt><trkpt lat="44.710144417568266" lon="10.236961461409901"><ele>163.0</ele><time>2026-04-24T14:18:06Z</time></trkpt><trkpt lat="44.710072371993085" lon="10.2371380838796"><ele>163.0</ele><time>2026-04-24T14:18:07Z</time></trkpt><trkpt lat="44.71000332660688" lon="10.237303528044707"><ele>163.0</ele><time>2026-04-24T14:18:08Z</time></trkpt><trkpt lat="44.70993401592118" lon="10.237463407926443"><ele>163.0</ele><time>2026-04-24T14:18:09Z</time></trkpt><trkpt lat="44.70986351321402" lon="10.237625123121674"><ele>163.75</ele><time>2026-04-24T14:18:10Z</time></trkpt><trkpt lat="44.70979414166304" lon="10.237786320482927"><ele>164.5</ele><time>2026-04-24T14:18:11Z</time></trkpt><trkpt lat="44.70972689805758" lon="10.23794670708269"><ele>165.25</ele><time>2026-04-24T14:18:12Z</time></trkpt><trkpt lat="44.70966246689136" lon="10.238108512058005"><ele>166.0</ele><time>2026-04-24T14:18:13Z</time></trkpt><trkpt lat="44.70959875442793" lon="10.238265740479157"><ele>166.25</ele><time>2026-04-24T14:18:14Z</time></trkpt><trkpt lat="44.709531412305815" lon="10.238422646225732"><ele>166.5</ele><time>2026-04-24T14:18:15Z</time></trkpt><trkpt lat="44.70946325365377" lon="10.23857632907005"><ele>166.75</ele><time>2026-04-24T14:18:16Z</time></trkpt><trkpt lat="44.709396185055326" lon="10.238728903874817"><ele>167.0</ele><time>2026-04-24T14:18:17Z</time></trkpt><trkpt lat="44.709332654423655" lon="10.238874960863052"><ele>167.8</ele><time>2026-04-24T14:18:18Z</time></trkpt><trkpt lat="44.70927190028153" lon="10.239009412535443"><ele>168.6</ele><time>2026-04-24T14:18:19Z</time></trkpt><trkpt lat="44.70921271743806" lon="10.23913559288463"><ele>169.4</ele><time>2026-04-24T14:18:20Z</time></trkpt><trkpt lat="44.709159141559866" lon="10.239248846890064"><ele>170.20000000000002</ele><time>2026-04-24T14:18:21Z</time></trkpt><trkpt lat="44.709108476179985" lon="10.23935175609465"><ele>171.0</ele><time>2026-04-24T14:18:21.999Z</time></trkpt><trkpt lat="44.709060918795046" lon="10.23944665246119"><ele>171.0</ele><time>2026-04-24T14:18:22.999Z</time></trkpt><trkpt lat="44.7090174215294" lon="10.239533212978346"><ele>171.0</ele><time>2026-04-24T14:18:23.999Z</time></trkpt><trkpt lat="44.70897088975415" lon="10.23961515797309"><ele>171.0</ele><time>2026-04-24T14:18:24.999Z</time></trkpt><trkpt lat="44.708911271132386" lon="10.239681716283194"><ele>171.0</ele><time>2026-04-24T14:18:25.999Z</time></trkpt><trkpt lat="44.70883111349536" lon="10.239729241858836"><ele>171.0</ele><time>2026-04-24T14:18:26.999Z</time></trkpt><trkpt lat="44.708734113358915" lon="10.2397517727977"><ele>171.0</ele><time>2026-04-24T14:18:27.999Z</time></trkpt><trkpt lat="44.70864515547196" lon="10.239792819898124"><ele>171.0</ele><time>2026-04-24T14:18:28.999Z</time></trkpt><trkpt lat="44.70857924729801" lon="10.239895786851639"><ele>171.0</ele><time>2026-04-24T14:18:29.999Z</time></trkpt><trkpt lat="44.70855380889761" lon="10.240033033413857"><ele>171.0</ele><time>2026-04-24T14:18:30.999Z</time></trkpt><trkpt lat="44.7085712216187" lon="10.240177024492953"><ele>171.0</ele><time>2026-04-24T14:18:31.999Z</time></trkpt><trkpt lat="44.70860348008548" lon="10.240328205412164"><ele>171.0</ele><time>2026-04-24T14:18:32.999Z</time></trkpt><trkpt lat="44.708617728502" lon="10.240502682488646"><ele>171.0</ele><time>2026-04-24T14:18:33.999Z</time></trkpt><trkpt lat="44.70860038542523" lon="10.2407028678345"><ele>171.0</ele><time>2026-04-24T14:18:34.999Z</time></trkpt><trkpt lat="44.70856291733441" lon="10.24093598672579"><ele>171.0</ele><time>2026-04-24T14:18:35.999Z</time></trkpt><trkpt lat="44.7085293908129" lon="10.241160259247927"><ele>171.0</ele><time>2026-04-24T14:18:36.999Z</time></trkpt><trkpt lat="44.708494547662795" lon="10.241382936605152"><ele>171.0</ele><time>2026-04-24T14:18:37.999Z</time></trkpt><trkpt lat="44.70845616186537" lon="10.24161252746809"><ele>171.0</ele><time>2026-04-24T14:18:38.999Z</time></trkpt><trkpt lat="44.708415061680206" lon="10.24184652490536"><ele>169.66666666666666</ele><time>2026-04-24T14:18:39.999Z</time></trkpt><trkpt lat="44.708372886462215" lon="10.24210234218413"><ele>168.33333333333331</ele><time>2026-04-24T14:18:40.999Z</time></trkpt><trkpt lat="44.70833322478179" lon="10.242388417614272"><ele>167.0</ele><time>2026-04-24T14:18:41.999Z</time></trkpt><trkpt lat="44.70827196237856" lon="10.242717797677841"><ele>166.5</ele><time>2026-04-24T14:18:42.999Z</time></trkpt><trkpt lat="44.70822608773189" lon="10.243040576013263"><ele>166.0</ele><time>2026-04-24T14:18:43.999Z</time></trkpt><trkpt lat="44.70818605014103" lon="10.24339415191713"><ele>166.0</ele><time>2026-04-24T14:18:44.999Z</time></trkpt><trkpt lat="44.708156401976936" lon="10.243722938260381"><ele>166.0</ele><time>2026-04-24T14:18:45.999Z</time></trkpt><trkpt lat="44.708149912026734" lon="10.24408291149954"><ele>165.0</ele><time>2026-04-24T14:18:46.999Z</time></trkpt><trkpt lat="44.708136318457285" lon="10.244427037878996"><ele>164.0</ele><time>2026-04-24T14:18:47.999Z</time></trkpt><trkpt lat="44.70813346109903" lon="10.24477327447762"><ele>163.5</ele><time>2026-04-24T14:18:48.999Z</time></trkpt><trkpt lat="44.708152979782945" lon="10.24512828671913"><ele>163.0</ele><time>2026-04-24T14:18:49.999Z</time></trkpt><trkpt lat="44.70819040372537" lon="10.245488019953259"><ele>162.5</ele><time>2026-04-24T14:18:50.999Z</time></trkpt><trkpt lat="44.70824485213644" lon="10.245836537439944"><ele>162.0</ele><time>2026-04-24T14:18:51.999Z</time></trkpt><trkpt lat="44.70831243662969" lon="10.246169856015062"><ele>162.0</ele><time>2026-04-24T14:18:52.999Z</time></trkpt><trkpt lat="44.70839726598158" lon="10.24650484453892"><ele>162.0</ele><time>2026-04-24T14:18:53.999Z</time></trkpt><trkpt lat="44.70848791145168" lon="10.246842460030646"><ele>161.5</ele><time>2026-04-24T14:18:54.999Z</time></trkpt><trkpt lat="44.70859572363133" lon="10.247189661254648"><ele>161.0</ele><time>2026-04-24T14:18:55.999Z</time></trkpt><trkpt lat="44.70870203578859" lon="10.24754502223926"><ele>160.5</ele><time>2026-04-24T14:18:56.999Z</time></trkpt><trkpt lat="44.70880949510764" lon="10.247881390504286"><ele>160.0</ele><time>2026-04-24T14:18:57.999Z</time></trkpt><trkpt lat="44.70890790541984" lon="10.248221206676734"><ele>160.0</ele><time>2026-04-24T14:18:58.999Z</time></trkpt><trkpt lat="44.708990684844316" lon="10.24854762142555"><ele>160.0</ele><time>2026-04-24T14:18:59.999Z</time></trkpt><trkpt lat="44.70907188599911" lon="10.24887259677293"><ele>160.5</ele><time>2026-04-24T14:19:00.999Z</time></trkpt><trkpt lat="44.7091457552665" lon="10.249198862777934"><ele>161.0</ele><time>2026-04-24T14:19:01.999Z</time></trkpt><trkpt lat="44.70921066965309" lon="10.249527541883642"><ele>160.0</ele><time>2026-04-24T14:19:02.999Z</time></trkpt><trkpt lat="44.709257998397774" lon="10.2498580240612"><ele>159.0</ele><time>2026-04-24T14:19:03.999Z</time></trkpt><trkpt lat="44.709279575036234" lon="10.25019171785384"><ele>159.0</ele><time>2026-04-24T14:19:04.999Z</time></trkpt><trkpt lat="44.70929615565777" lon="10.250505252634516"><ele>159.0</ele><time>2026-04-24T14:19:05.999Z</time></trkpt><trkpt lat="44.70930317651341" lon="10.25082675223368"><ele>158.0</ele><time>2026-04-24T14:19:06.999Z</time></trkpt><trkpt lat="44.70929950025482" lon="10.2511349690185"><ele>157.0</ele><time>2026-04-24T14:19:07.999Z</time></trkpt><trkpt lat="44.70928657282639" lon="10.251411337721523"><ele>156.0</ele><time>2026-04-24T14:19:08.999Z</time></trkpt><trkpt lat="44.70926616015883" lon="10.251672354336366"><ele>156.0</ele><time>2026-04-24T14:19:09.998Z</time></trkpt><trkpt lat="44.70924003553915" lon="10.251925119296487"><ele>156.0</ele><time>2026-04-24T14:19:10.998Z</time></trkpt><trkpt lat="44.709208501690185" lon="10.252160649276286"><ele>156.0</ele><time>2026-04-24T14:19:11.998Z</time></trkpt><trkpt lat="44.70917152638346" lon="10.252389052536648"><ele>156.66666666666666</ele><time>2026-04-24T14:19:12.998Z</time></trkpt><trkpt lat="44.70912678147371" lon="10.252621377357237"><ele>157.33333333333331</ele><time>2026-04-24T14:19:13.998Z</time></trkpt><trkpt lat="44.70908645628285" lon="10.252847367190501"><ele>158.0</ele><time>2026-04-24T14:19:14.998Z</time></trkpt><trkpt lat="44.70903666358118" lon="10.253057308375002"><ele>158.0</ele><time>2026-04-24T14:19:15.998Z</time></trkpt><trkpt lat="44.70898230933983" lon="10.253274157841206"><ele>158.0</ele><time>2026-04-24T14:19:16.998Z</time></trkpt><trkpt lat="44.70892377774412" lon="10.253478788018493"><ele>158.0</ele><time>2026-04-24T14:19:17.998Z</time></trkpt><trkpt lat="44.70886421430621" lon="10.253700449820066"><ele>158.0</ele><time>2026-04-24T14:19:18.998Z</time></trkpt><trkpt lat="44.70878344686162" lon="10.253941838723973"><ele>158.0</ele><time>2026-04-24T14:19:19.998Z</time></trkpt><trkpt lat="44.70870568532567" lon="10.254212454788613"><ele>158.0</ele><time>2026-04-24T14:19:20.998Z</time></trkpt><trkpt lat="44.7086427939081" lon="10.254488312786275"><ele>158.0</ele><time>2026-04-24T14:19:21.998Z</time></trkpt><trkpt lat="44.70856890629569" lon="10.254722572396808"><ele>158.0</ele><time>2026-04-24T14:19:22.998Z</time></trkpt><trkpt lat="44.708499850472485" lon="10.254933767503065"><ele>158.0</ele><time>2026-04-24T14:19:23.998Z</time></trkpt><trkpt lat="44.708437323788175" lon="10.25513131404181"><ele>158.0</ele><time>2026-04-24T14:19:24.998Z</time></trkpt><trkpt lat="44.70838302286243" lon="10.25531337121298"><ele>158.0</ele><time>2026-04-24T14:19:25.998Z</time></trkpt><trkpt lat="44.708339422036275" lon="10.255477977272216"><ele>158.0</ele><time>2026-04-24T14:19:26.998Z</time></trkpt><trkpt lat="44.70829064331993" lon="10.255651604302644"><ele>158.0</ele><time>2026-04-24T14:19:27.998Z</time></trkpt><trkpt lat="44.70823469845274" lon="10.255849731783409"><ele>157.33333333333331</ele><time>2026-04-24T14:19:28.998Z</time></trkpt><trkpt lat="44.70817228212194" lon="10.256097121594557"><ele>156.66666666666666</ele><time>2026-04-24T14:19:29.998Z</time></trkpt><trkpt lat="44.70807848859175" lon="10.25637915549467"><ele>156.0</ele><time>2026-04-24T14:19:30.998Z</time></trkpt><trkpt lat="44.708006913648376" lon="10.256689687661188"><ele>156.0</ele><time>2026-04-24T14:19:31.998Z</time></trkpt><trkpt lat="44.70791204316494" lon="10.257009753031795"><ele>156.0</ele><time>2026-04-24T14:19:32.998Z</time></trkpt><trkpt lat="44.70782289711769" lon="10.257310489950864"><ele>155.0</ele><time>2026-04-24T14:19:33.998Z</time></trkpt><trkpt lat="44.707743018498036" lon="10.257581158084713"><ele>154.0</ele><time>2026-04-24T14:19:34.998Z</time></trkpt><trkpt lat="44.70766797229778" lon="10.257826362258543"><ele>153.0</ele><time>2026-04-24T14:19:35.998Z</time></trkpt><trkpt lat="44.707603362800576" lon="10.258032338509084"><ele>153.20000000000002</ele><time>2026-04-24T14:19:36.998Z</time></trkpt><trkpt lat="44.707558376648386" lon="10.258191556851017"><ele>153.4</ele><time>2026-04-24T14:19:37.998Z</time></trkpt><trkpt lat="44.70751776226719" lon="10.258337192528407"><ele>153.60000000000002</ele><time>2026-04-24T14:19:38.998Z</time></trkpt><trkpt lat="44.70748094067877" lon="10.258468101099654"><ele>153.8</ele><time>2026-04-24T14:19:39.998Z</time></trkpt><trkpt lat="44.70744270761068" lon="10.258599487120101"><ele>154.0</ele><time>2026-04-24T14:19:40.998Z</time></trkpt><trkpt lat="44.70740660816799" lon="10.25871997623844"><ele>154.0</ele><time>2026-04-24T14:19:41.998Z</time></trkpt><trkpt lat="44.70737502980052" lon="10.258826796254338"><ele>154.0</ele><time>2026-04-24T14:19:42.998Z</time></trkpt><trkpt lat="44.70734780362794" lon="10.258919515063155"><ele>154.0</ele><time>2026-04-24T14:19:43.998Z</time></trkpt><trkpt lat="44.707317568101594" lon="10.259010469025666"><ele>154.0</ele><time>2026-04-24T14:19:44.998Z</time></trkpt><trkpt lat="44.70727884815849" lon="10.259095003761663"><ele>154.0</ele><time>2026-04-24T14:19:45.998Z</time></trkpt><trkpt lat="44.70723405733189" lon="10.25916251046282"><ele>154.0</ele><time>2026-04-24T14:19:46.998Z</time></trkpt><trkpt lat="44.70718206906065" lon="10.259222008967335"><ele>154.0</ele><time>2026-04-24T14:19:50Z</time></trkpt><trkpt lat="44.70707784647078" lon="10.259321862731186"><ele>154.2</ele><time>2026-04-24T14:19:52Z</time></trkpt><trkpt lat="44.707001313510695" lon="10.259408172374084"><ele>154.4</ele><time>2026-04-24T14:19:53Z</time></trkpt><trkpt lat="44.706985080761946" lon="10.259566649762618"><ele>154.6</ele><time>2026-04-24T14:19:54Z</time></trkpt><trkpt lat="44.706954118447534" lon="10.259710502700722"><ele>154.8</ele><time>2026-04-24T14:19:55Z</time></trkpt><trkpt lat="44.70690415265237" lon="10.259849373842378"><ele>155.0</ele><time>2026-04-24T14:19:56Z</time></trkpt><trkpt lat="44.706831267388914" lon="10.259970425599025"><ele>154.25</ele><time>2026-04-24T14:19:57Z</time></trkpt><trkpt lat="44.70673897625528" lon="10.260082166513909"><ele>153.5</ele><time>2026-04-24T14:19:58Z</time></trkpt><trkpt lat="44.70664316982224" lon="10.260196822597228"><ele>152.75</ele><time>2026-04-24T14:19:59Z</time></trkpt><trkpt lat="44.70654666079058" lon="10.260313584724091"><ele>152.0</ele><time>2026-04-24T14:20:00Z</time></trkpt><trkpt lat="44.70644793995462" lon="10.260427099724893"><ele>152.0</ele><time>2026-04-24T14:20:01Z</time></trkpt><trkpt lat="44.70634234718545" lon="10.260537207486037"><ele>152.0</ele><time>2026-04-24T14:20:02Z</time></trkpt><trkpt lat="44.70623080577365" lon="10.260635578667623"><ele>152.0</ele><time>2026-04-24T14:20:03Z</time></trkpt><trkpt lat="44.70611696723799" lon="10.26072161985644"><ele>152.0</ele><time>2026-04-24T14:20:04Z</time></trkpt><trkpt lat="44.70599194613531" lon="10.260805360744246"><ele>152.75</ele><time>2026-04-24T14:20:05Z</time></trkpt><trkpt lat="44.70586750642491" lon="10.26088072266649"><ele>153.5</ele><time>2026-04-24T14:20:06Z</time></trkpt><trkpt lat="44.70574258770337" lon="10.260944659404347"><ele>154.25</ele><time>2026-04-24T14:20:07Z</time></trkpt><trkpt lat="44.70561609719418" lon="10.260998197520669"><ele>155.0</ele><time>2026-04-24T14:20:08Z</time></trkpt><trkpt lat="44.70548656735418" lon="10.261038157180026"><ele>155.0</ele><time>2026-04-24T14:20:09Z</time></trkpt><trkpt lat="44.70535012794668" lon="10.261070246553718"><ele>155.0</ele><time>2026-04-24T14:20:10Z</time></trkpt><trkpt lat="44.705206483408425" lon="10.261092601704219"><ele>155.0</ele><time>2026-04-24T14:20:11Z</time></trkpt><trkpt lat="44.705066557054145" lon="10.261100532022219"><ele>155.0</ele><time>2026-04-24T14:20:12Z</time></trkpt><trkpt lat="44.704931694919054" lon="10.261099188348135"><ele>155.5</ele><time>2026-04-24T14:20:13Z</time></trkpt><trkpt lat="44.70479848935986" lon="10.261086140070347"><ele>156.0</ele><time>2026-04-24T14:20:14Z</time></trkpt><trkpt lat="44.70466579502747" lon="10.261063389126715"><ele>156.5</ele><time>2026-04-24T14:20:15Z</time></trkpt><trkpt lat="44.704535569956896" lon="10.26103174560869"><ele>157.0</ele><time>2026-04-24T14:20:16Z</time></trkpt><trkpt lat="44.704415563719515" lon="10.260968991512685"><ele>157.25</ele><time>2026-04-24T14:20:17Z</time></trkpt><trkpt lat="44.70429231696392" lon="10.260942844068566"><ele>157.5</ele><time>2026-04-24T14:20:18Z</time></trkpt><trkpt lat="44.704172163790695" lon="10.26086256495692"><ele>157.75</ele><time>2026-04-24T14:20:19Z</time></trkpt><trkpt lat="44.7040389595506" lon="10.260816685816541"><ele>158.0</ele><time>2026-04-24T14:20:20Z</time></trkpt><trkpt lat="44.70390780258332" lon="10.260741109700037"><ele>158.0</ele><time>2026-04-24T14:20:21Z</time></trkpt><trkpt lat="44.70378171429673" lon="10.260646470278996"><ele>158.0</ele><time>2026-04-24T14:20:22Z</time></trkpt><trkpt lat="44.70365840531289" lon="10.260587149384179"><ele>158.0</ele><time>2026-04-24T14:20:23Z</time></trkpt><trkpt lat="44.70353191131466" lon="10.26051464133674"><ele>158.0</ele><time>2026-04-24T14:20:24Z</time></trkpt><trkpt lat="44.70339976566738" lon="10.260428816719392"><ele>158.33333333333331</ele><time>2026-04-24T14:20:25Z</time></trkpt><trkpt lat="44.70325171712588" lon="10.26034296697199"><ele>158.66666666666666</ele><time>2026-04-24T14:20:26Z</time></trkpt><trkpt lat="44.703102286437485" lon="10.260231756309071"><ele>159.0</ele><time>2026-04-24T14:20:27Z</time></trkpt><trkpt lat="44.702935660368105" lon="10.26012947597259"><ele>159.0</ele><time>2026-04-24T14:20:28Z</time></trkpt><trkpt lat="44.702758502903215" lon="10.2600195344423"><ele>159.0</ele><time>2026-04-24T14:20:29Z</time></trkpt><trkpt lat="44.702587054650216" lon="10.259912210358673"><ele>159.0</ele><time>2026-04-24T14:20:29.999Z</time></trkpt><trkpt lat="44.70241971647755" lon="10.259807458898866"><ele>159.0</ele><time>2026-04-24T14:20:30.999Z</time></trkpt><trkpt lat="44.7022519090751" lon="10.259702415491148"><ele>159.0</ele><time>2026-04-24T14:20:31.999Z</time></trkpt><trkpt lat="44.70207734523694" lon="10.259593627454695"><ele>159.0</ele><time>2026-04-24T14:20:32.999Z</time></trkpt><trkpt lat="44.70189583756985" lon="10.259481986549124"><ele>159.33333333333334</ele><time>2026-04-24T14:20:33.999Z</time></trkpt><trkpt lat="44.70170578532491" lon="10.259385515095252"><ele>159.66666666666669</ele><time>2026-04-24T14:20:34.999Z</time></trkpt><trkpt lat="44.7015146956008" lon="10.259266662849214"><ele>160.0</ele><time>2026-04-24T14:20:35.999Z</time></trkpt><trkpt lat="44.70130446985202" lon="10.259145455980107"><ele>160.0</ele><time>2026-04-24T14:20:36.999Z</time></trkpt><trkpt lat="44.701076077952095" lon="10.259024743447005"><ele>160.0</ele><time>2026-04-24T14:20:37.999Z</time></trkpt><trkpt lat="44.700836005664705" lon="10.25890779807406"><ele>160.0</ele><time>2026-04-24T14:20:38.999Z</time></trkpt><trkpt lat="44.70062247596165" lon="10.258782190069628"><ele>160.0</ele><time>2026-04-24T14:20:39.999Z</time></trkpt><trkpt lat="44.70041732022526" lon="10.258687233664903"><ele>160.0</ele><time>2026-04-24T14:20:40.999Z</time></trkpt><trkpt lat="44.70020689110031" lon="10.258603011576023"><ele>161.0</ele><time>2026-04-24T14:20:41.999Z</time></trkpt><trkpt lat="44.699990372271614" lon="10.258547582003427"><ele>162.0</ele><time>2026-04-24T14:20:42.999Z</time></trkpt><trkpt lat="44.6997761259975" lon="10.258474113760498"><ele>163.0</ele><time>2026-04-24T14:20:43.999Z</time></trkpt><trkpt lat="44.69956002277203" lon="10.258402277389983"><ele>164.0</ele><time>2026-04-24T14:20:44.999Z</time></trkpt><trkpt lat="44.69934861346488" lon="10.258307965250125"><ele>165.0</ele><time>2026-04-24T14:20:45.999Z</time></trkpt><trkpt lat="44.6991516028271" lon="10.258241660985627"><ele>166.0</ele><time>2026-04-24T14:20:46.999Z</time></trkpt><trkpt lat="44.69896807908437" lon="10.258179895664407"><ele>166.0</ele><time>2026-04-24T14:20:47.999Z</time></trkpt><trkpt lat="44.69879703760883" lon="10.258122331312498"><ele>166.0</ele><time>2026-04-24T14:20:48.999Z</time></trkpt><trkpt lat="44.69863424283827" lon="10.25806754240618"><ele>166.0</ele><time>2026-04-24T14:20:49.999Z</time></trkpt><trkpt lat="44.698479659531905" lon="10.258016183845756"><ele>166.5</ele><time>2026-04-24T14:20:50.999Z</time></trkpt><trkpt lat="44.69833512795232" lon="10.257968814467805"><ele>167.0</ele><time>2026-04-24T14:20:51.999Z</time></trkpt><trkpt lat="44.69819722969143" lon="10.25792364233943"><ele>167.5</ele><time>2026-04-24T14:20:52.999Z</time></trkpt><trkpt lat="44.69806746846263" lon="10.25788159350132"><ele>168.0</ele><time>2026-04-24T14:20:53.999Z</time></trkpt><trkpt lat="44.69796186280374" lon="10.257847372222665"><ele>168.0</ele><time>2026-04-24T14:20:54.999Z</time></trkpt><trkpt lat="44.6978752013615" lon="10.257819289805193"><ele>168.0</ele><time>2026-04-24T14:20:55.999Z</time></trkpt><trkpt lat="44.69779503599645" lon="10.257796340953558"><ele>168.0</ele><time>2026-04-24T14:20:56.999Z</time></trkpt><trkpt lat="44.697726862426876" lon="10.257731869433352"><ele>168.0</ele><time>2026-04-24T14:20:57.999Z</time></trkpt><trkpt lat="44.69766355365538" lon="10.25764796386997"><ele>168.0</ele><time>2026-04-24T14:20:58.999Z</time></trkpt><trkpt lat="44.697607228721296" lon="10.257550954540598"><ele>168.0</ele><time>2026-04-24T14:20:59.999Z</time></trkpt><trkpt lat="44.69753968705628" lon="10.25748721491681"><ele>168.2</ele><time>2026-04-24T14:21:00.999Z</time></trkpt><trkpt lat="44.69746635158428" lon="10.257420714004061"><ele>168.4</ele><time>2026-04-24T14:21:01.999Z</time></trkpt><trkpt lat="44.6973629873783" lon="10.257461797483412"><ele>168.6</ele><time>2026-04-24T14:21:02.999Z</time></trkpt><trkpt lat="44.69728632452207" lon="10.25755984005982"><ele>168.79999999999998</ele><time>2026-04-24T14:21:03.999Z</time></trkpt><trkpt lat="44.69725711618042" lon="10.257715860433839"><ele>169.0</ele><time>2026-04-24T14:21:04.999Z</time></trkpt><trkpt lat="44.6972499745244" lon="10.257876182806553"><ele>169.0</ele><time>2026-04-24T14:21:05.999Z</time></trkpt><trkpt lat="44.69718556176738" lon="10.258030756752328"><ele>169.0</ele><time>2026-04-24T14:21:06.999Z</time></trkpt><trkpt lat="44.69708868255466" lon="10.258155991718471"><ele>169.0</ele><time>2026-04-24T14:21:07.999Z</time></trkpt><trkpt lat="44.696985016243666" lon="10.258304379735423"><ele>169.0</ele><time>2026-04-24T14:21:08.999Z</time></trkpt><trkpt lat="44.69686418964721" lon="10.258446677043485"><ele>168.0</ele><time>2026-04-24T14:21:09.999Z</time></trkpt><trkpt lat="44.69674072796516" lon="10.258592615235255"><ele>167.0</ele><time>2026-04-24T14:21:10.999Z</time></trkpt><trkpt lat="44.696608104936224" lon="10.258752838773347"><ele>166.0</ele><time>2026-04-24T14:21:11.999Z</time></trkpt><trkpt lat="44.696470403884824" lon="10.258925875049801"><ele>166.0</ele><time>2026-04-24T14:21:12.999Z</time></trkpt><trkpt lat="44.696300312627436" lon="10.259104211430975"><ele>166.0</ele><time>2026-04-24T14:21:13.999Z</time></trkpt><trkpt lat="44.69612918845616" lon="10.259311919884519"><ele>166.0</ele><time>2026-04-24T14:21:14.999Z</time></trkpt><trkpt lat="44.69595343480575" lon="10.259529069056986"><ele>166.5</ele><time>2026-04-24T14:21:15.999Z</time></trkpt><trkpt lat="44.695789655779684" lon="10.25975948416488"><ele>167.0</ele><time>2026-04-24T14:21:16.999Z</time></trkpt><trkpt lat="44.69561685063156" lon="10.259972032986012"><ele>167.0</ele><time>2026-04-24T14:21:17.998Z</time></trkpt><trkpt lat="44.69546192190169" lon="10.260201413470917"><ele>167.0</ele><time>2026-04-24T14:21:18.998Z</time></trkpt><trkpt lat="44.69530954540196" lon="10.2604547729404"><ele>166.5</ele><time>2026-04-24T14:21:19.998Z</time></trkpt><trkpt lat="44.695164309919065" lon="10.260726985728553"><ele>166.0</ele><time>2026-04-24T14:21:20.998Z</time></trkpt><trkpt lat="44.695031885439015" lon="10.26102488213952"><ele>166.0</ele><time>2026-04-24T14:21:21.998Z</time></trkpt><trkpt lat="44.69491609904475" lon="10.261328694907084"><ele>166.0</ele><time>2026-04-24T14:21:22.998Z</time></trkpt><trkpt lat="44.69481735717847" lon="10.26163812290018"><ele>166.0</ele><time>2026-04-24T14:21:23.998Z</time></trkpt><trkpt lat="44.69473528838565" lon="10.261947616673154"><ele>166.0</ele><time>2026-04-24T14:21:24.998Z</time></trkpt><trkpt lat="44.694665181563906" lon="10.262240363478147"><ele>165.66666666666669</ele><time>2026-04-24T14:21:25.998Z</time></trkpt><trkpt lat="44.69459999936955" lon="10.262524853121588"><ele>165.33333333333334</ele><time>2026-04-24T14:21:26.998Z</time></trkpt><trkpt lat="44.694537680346166" lon="10.262805858282357"><ele>165.0</ele><time>2026-04-24T14:21:27.998Z</time></trkpt><trkpt lat="44.69447399621203" lon="10.263079387798896"><ele>165.0</ele><time>2026-04-24T14:21:28.998Z</time></trkpt><trkpt lat="44.694412532368524" lon="10.263331627423778"><ele>165.0</ele><time>2026-04-24T14:21:29.998Z</time></trkpt><trkpt lat="44.69435714223444" lon="10.263569270856044"><ele>165.0</ele><time>2026-04-24T14:21:30.998Z</time></trkpt><trkpt lat="44.6943067478673" lon="10.263793379145953"><ele>165.0</ele><time>2026-04-24T14:21:31.998Z</time></trkpt><trkpt lat="44.69425898500427" lon="10.263997560213625"><ele>165.0</ele><time>2026-04-24T14:21:32.998Z</time></trkpt><trkpt lat="44.694221108309335" lon="10.264165454688994"><ele>165.0</ele><time>2026-04-24T14:21:33.998Z</time></trkpt><trkpt lat="44.694182599099605" lon="10.264319102902032"><ele>165.0</ele><time>2026-04-24T14:21:34.998Z</time></trkpt><trkpt lat="44.69413364149831" lon="10.264447142914468"><ele>165.0</ele><time>2026-04-24T14:21:35.998Z</time></trkpt><trkpt lat="44.6940514077034" lon="10.264534622154853"><ele>165.0</ele><time>2026-04-24T14:21:36.998Z</time></trkpt><trkpt lat="44.69395718263546" lon="10.264607398997095"><ele>165.0</ele><time>2026-04-24T14:21:37.998Z</time></trkpt><trkpt lat="44.69389639871983" lon="10.264724039001251"><ele>165.0</ele><time>2026-04-24T14:21:38.998Z</time></trkpt><trkpt lat="44.69388118391255" lon="10.264871511344836"><ele>165.0</ele><time>2026-04-24T14:21:39.998Z</time></trkpt><trkpt lat="44.69390656945442" lon="10.26500807676167"><ele>165.0</ele><time>2026-04-24T14:21:40.998Z</time></trkpt><trkpt lat="44.69396819684456" lon="10.265121752217409"><ele>165.0</ele><time>2026-04-24T14:21:41.998Z</time></trkpt><trkpt lat="44.69399547715965" lon="10.265281843248658"><ele>165.0</ele><time>2026-04-24T14:21:42.998Z</time></trkpt><trkpt lat="44.694043899377974" lon="10.26543226678294"><ele>165.0</ele><time>2026-04-24T14:21:43.998Z</time></trkpt><trkpt lat="44.69399827704343" lon="10.265645855448517"><ele>165.0</ele><time>2026-04-24T14:21:44.998Z</time></trkpt><trkpt lat="44.693977103705166" lon="10.265850143006665"><ele>165.0</ele><time>2026-04-24T14:21:45.998Z</time></trkpt><trkpt lat="44.69395397721397" lon="10.266088192060613"><ele>165.0</ele><time>2026-04-24T14:21:46.998Z</time></trkpt><trkpt lat="44.69394621936049" lon="10.266363667609603"><ele>165.33333333333334</ele><time>2026-04-24T14:21:47.998Z</time></trkpt><trkpt lat="44.69393048377783" lon="10.266672081315141"><ele>165.66666666666669</ele><time>2026-04-24T14:21:48.998Z</time></trkpt><trkpt lat="44.69390097535826" lon="10.266992308684324"><ele>166.0</ele><time>2026-04-24T14:21:49.998Z</time></trkpt><trkpt lat="44.69386606107187" lon="10.267332834499772"><ele>165.0</ele><time>2026-04-24T14:21:50.998Z</time></trkpt><trkpt lat="44.693834819564884" lon="10.26768319398734"><ele>164.0</ele><time>2026-04-24T14:21:51.998Z</time></trkpt><trkpt lat="44.69379869852213" lon="10.268018266126898"><ele>163.0</ele><time>2026-04-24T14:21:52.998Z</time></trkpt><trkpt lat="44.693764676644925" lon="10.268405072429362"><ele>162.0</ele><time>2026-04-24T14:21:54Z</time></trkpt><trkpt lat="44.69373331892533" lon="10.268801944491113"><ele>162.5</ele><time>2026-04-24T14:21:55Z</time></trkpt><trkpt lat="44.69370347557868" lon="10.269180803520053"><ele>163.0</ele><time>2026-04-24T14:21:56Z</time></trkpt><trkpt lat="44.6936727210961" lon="10.269567492487392"><ele>162.5</ele><time>2026-04-24T14:21:57Z</time></trkpt><trkpt lat="44.69364619729119" lon="10.269939910650706"><ele>162.0</ele><time>2026-04-24T14:21:58Z</time></trkpt><trkpt lat="44.693620148550444" lon="10.27030522847858"><ele>161.5</ele><time>2026-04-24T14:21:59Z</time></trkpt><trkpt lat="44.69359212745872" lon="10.270670380264068"><ele>161.0</ele><time>2026-04-24T14:22:00Z</time></trkpt><trkpt lat="44.693565578143776" lon="10.271029045705296"><ele>162.0</ele><time>2026-04-24T14:22:01Z</time></trkpt><trkpt lat="44.69353713743779" lon="10.271375576911339"><ele>163.0</ele><time>2026-04-24T14:22:02Z</time></trkpt><trkpt lat="44.69350770069219" lon="10.271724150506504"><ele>163.0</ele><time>2026-04-24T14:22:03Z</time></trkpt><trkpt lat="44.69348142278636" lon="10.272066987625797"><ele>163.0</ele><time>2026-04-24T14:22:04Z</time></trkpt><trkpt lat="44.69345269812651" lon="10.272420916979275"><ele>162.0</ele><time>2026-04-24T14:22:05Z</time></trkpt><trkpt lat="44.69342666432145" lon="10.272795067412517"><ele>161.0</ele><time>2026-04-24T14:22:06Z</time></trkpt><trkpt lat="44.69340402835633" lon="10.273189095000912"><ele>161.0</ele><time>2026-04-24T14:22:07Z</time></trkpt><trkpt lat="44.69335935868781" lon="10.273587916391241"><ele>161.0</ele><time>2026-04-24T14:22:08Z</time></trkpt><trkpt lat="44.69332814317596" lon="10.273971135381469"><ele>159.5</ele><time>2026-04-24T14:22:09Z</time></trkpt><trkpt lat="44.693309298279814" lon="10.274337799693427"><ele>158.0</ele><time>2026-04-24T14:22:10Z</time></trkpt><trkpt lat="44.693277699556" lon="10.274680570980083"><ele>158.0</ele><time>2026-04-24T14:22:11Z</time></trkpt><trkpt lat="44.69324849774301" lon="10.275012662074003"><ele>158.0</ele><time>2026-04-24T14:22:12Z</time></trkpt><trkpt lat="44.69322379396006" lon="10.27534977855545"><ele>159.0</ele><time>2026-04-24T14:22:13Z</time></trkpt><trkpt lat="44.69319597788407" lon="10.275677202702294"><ele>160.0</ele><time>2026-04-24T14:22:14Z</time></trkpt><trkpt lat="44.69316491392576" lon="10.275991072123935"><ele>160.0</ele><time>2026-04-24T14:22:15Z</time></trkpt><trkpt lat="44.69314058824759" lon="10.276278219681993"><ele>160.0</ele><time>2026-04-24T14:22:16Z</time></trkpt><trkpt lat="44.69311887400312" lon="10.276552835695817"><ele>160.0</ele><time>2026-04-24T14:22:17Z</time></trkpt><trkpt lat="44.693100048437586" lon="10.276809936419468"><ele>160.25</ele><time>2026-04-24T14:22:18Z</time></trkpt><trkpt lat="44.6930815616084" lon="10.277043399521146"><ele>160.5</ele><time>2026-04-24T14:22:19Z</time></trkpt><trkpt lat="44.69306424369812" lon="10.277245483334076"><ele>160.75</ele><time>2026-04-24T14:22:20Z</time></trkpt><trkpt lat="44.693039789904574" lon="10.277418683766882"><ele>161.0</ele><time>2026-04-24T14:22:21Z</time></trkpt><trkpt lat="44.69298617578811" lon="10.277569421455654"><ele>160.5</ele><time>2026-04-24T14:22:22Z</time></trkpt><trkpt lat="44.692910307317945" lon="10.277720761884051"><ele>160.0</ele><time>2026-04-24T14:22:23Z</time></trkpt><trkpt lat="44.69284815392097" lon="10.277872327344136"><ele>159.5</ele><time>2026-04-24T14:22:24Z</time></trkpt><trkpt lat="44.69282815551733" lon="10.278039166210176"><ele>159.0</ele><time>2026-04-24T14:22:25Z</time></trkpt><trkpt lat="44.69286859499598" lon="10.278221391459345"><ele>158.66666666666666</ele><time>2026-04-24T14:22:26Z</time></trkpt><trkpt lat="44.69293602637147" lon="10.278419508346591"><ele>158.33333333333331</ele><time>2026-04-24T14:22:27Z</time></trkpt><trkpt lat="44.69298634397519" lon="10.278652522875063"><ele>158.0</ele><time>2026-04-24T14:22:28Z</time></trkpt><trkpt lat="44.69288976188271" lon="10.278952602691447"><ele>158.0</ele><time>2026-04-24T14:22:29Z</time></trkpt><trkpt lat="44.692849036117764" lon="10.279256791174204"><ele>158.0</ele><time>2026-04-24T14:22:30Z</time></trkpt><trkpt lat="44.69281098454424" lon="10.27959058598711"><ele>158.0</ele><time>2026-04-24T14:22:31Z</time></trkpt><trkpt lat="44.692773325971864" lon="10.279927847739284"><ele>158.0</ele><time>2026-04-24T14:22:32Z</time></trkpt><trkpt lat="44.69273416847332" lon="10.280289960793269"><ele>158.0</ele><time>2026-04-24T14:22:33Z</time></trkpt><trkpt lat="44.69269363862135" lon="10.280666550677857"><ele>158.0</ele><time>2026-04-24T14:22:34Z</time></trkpt><trkpt lat="44.69265495201529" lon="10.28104301237254"><ele>158.0</ele><time>2026-04-24T14:22:35Z</time></trkpt><trkpt lat="44.692616126461914" lon="10.281405009409367"><ele>158.0</ele><time>2026-04-24T14:22:36Z</time></trkpt><trkpt lat="44.692576570704844" lon="10.281754336229529"><ele>156.5</ele><time>2026-04-24T14:22:36.999Z</time></trkpt><trkpt lat="44.69253947060753" lon="10.282077075681347"><ele>155.0</ele><time>2026-04-24T14:22:37.999Z</time></trkpt><trkpt lat="44.69250366684873" lon="10.282393223416637"><ele>155.0</ele><time>2026-04-24T14:22:38.999Z</time></trkpt><trkpt lat="44.69246816832138" lon="10.282708713658414"><ele>155.0</ele><time>2026-04-24T14:22:39.999Z</time></trkpt><trkpt lat="44.692431450866415" lon="10.283029242903076"><ele>155.5</ele><time>2026-04-24T14:22:40.999Z</time></trkpt><trkpt lat="44.69239344654123" lon="10.283351848716023"><ele>156.0</ele><time>2026-04-24T14:22:41.999Z</time></trkpt><trkpt lat="44.6923563491047" lon="10.28367139079453"><ele>156.0</ele><time>2026-04-24T14:22:42.999Z</time></trkpt><trkpt lat="44.69232156242722" lon="10.283988862752254"><ele>156.0</ele><time>2026-04-24T14:22:43.999Z</time></trkpt><trkpt lat="44.69228635482033" lon="10.284299171278612"><ele>156.0</ele><time>2026-04-24T14:22:44.999Z</time></trkpt><trkpt lat="44.69225013812079" lon="10.284599466977085"><ele>156.0</ele><time>2026-04-24T14:22:45.999Z</time></trkpt><trkpt lat="44.692210943889265" lon="10.284906720632561"><ele>156.0</ele><time>2026-04-24T14:22:46.999Z</time></trkpt><trkpt lat="44.69216838960299" lon="10.285215070229716"><ele>155.5</ele><time>2026-04-24T14:22:47.999Z</time></trkpt><trkpt lat="44.69212132678183" lon="10.285525062195799"><ele>155.0</ele><time>2026-04-24T14:22:48.999Z</time></trkpt><trkpt lat="44.69206683752969" lon="10.285832298066138"><ele>155.0</ele><time>2026-04-24T14:22:49.999Z</time></trkpt><trkpt lat="44.69200666388457" lon="10.286138214123373"><ele>155.0</ele><time>2026-04-24T14:22:50.999Z</time></trkpt><trkpt lat="44.69194347916866" lon="10.286445175160997"><ele>155.33333333333331</ele><time>2026-04-24T14:22:51.999Z</time></trkpt><trkpt lat="44.691878476231885" lon="10.286749185207976"><ele>155.66666666666666</ele><time>2026-04-24T14:22:52.999Z</time></trkpt><trkpt lat="44.69180871155948" lon="10.287047763362754"><ele>156.0</ele><time>2026-04-24T14:22:53.999Z</time></trkpt><trkpt lat="44.691732679283085" lon="10.287342772237885"><ele>156.0</ele><time>2026-04-24T14:22:54.999Z</time></trkpt><trkpt lat="44.69165477172976" lon="10.287630914744641"><ele>156.0</ele><time>2026-04-24T14:22:55.999Z</time></trkpt><trkpt lat="44.691576497532736" lon="10.287912210015831"><ele>156.0</ele><time>2026-04-24T14:22:56.999Z</time></trkpt><trkpt lat="44.691499173788" lon="10.288186516569745"><ele>156.33333333333334</ele><time>2026-04-24T14:22:57.999Z</time></trkpt><trkpt lat="44.69142547519135" lon="10.288452797894184"><ele>156.66666666666669</ele><time>2026-04-24T14:22:58.999Z</time></trkpt><trkpt lat="44.69135579846073" lon="10.288715087792317"><ele>157.0</ele><time>2026-04-24T14:22:59.999Z</time></trkpt><trkpt lat="44.691284562658765" lon="10.28897596025397"><ele>157.33333333333334</ele><time>2026-04-24T14:23:00.999Z</time></trkpt><trkpt lat="44.69121264663881" lon="10.289231638040185"><ele>157.66666666666666</ele><time>2026-04-24T14:23:01.999Z</time></trkpt><trkpt lat="44.69114151816939" lon="10.289481087205685"><ele>158.0</ele><time>2026-04-24T14:23:02.999Z</time></trkpt><trkpt lat="44.6910716328384" lon="10.289723164740858"><ele>158.0</ele><time>2026-04-24T14:23:03.999Z</time></trkpt><trkpt lat="44.69100344601714" lon="10.2899663366344"><ele>158.0</ele><time>2026-04-24T14:23:04.999Z</time></trkpt><trkpt lat="44.69093776355351" lon="10.290210193195781"><ele>158.0</ele><time>2026-04-24T14:23:05.999Z</time></trkpt><trkpt lat="44.690871304960154" lon="10.29045580504231"><ele>158.0</ele><time>2026-04-24T14:23:06.999Z</time></trkpt><trkpt lat="44.69080430122651" lon="10.290698358940023"><ele>158.0</ele><time>2026-04-24T14:23:07.999Z</time></trkpt><trkpt lat="44.69073873883454" lon="10.290938662457545"><ele>158.0</ele><time>2026-04-24T14:23:08.999Z</time></trkpt><trkpt lat="44.69067475461117" lon="10.291177165169918"><ele>158.0</ele><time>2026-04-24T14:23:09.999Z</time></trkpt><trkpt lat="44.69061167766739" lon="10.291404209223465"><ele>158.0</ele><time>2026-04-24T14:23:10.999Z</time></trkpt><trkpt lat="44.69055775049405" lon="10.291605268183444"><ele>158.0</ele><time>2026-04-24T14:23:11.999Z</time></trkpt><trkpt lat="44.69051340921839" lon="10.291770201407239"><ele>158.25</ele><time>2026-04-24T14:23:12.999Z</time></trkpt><trkpt lat="44.69046881621385" lon="10.291902175439605"><ele>158.5</ele><time>2026-04-24T14:23:13.999Z</time></trkpt><trkpt lat="44.690401986544984" lon="10.292011398844242"><ele>158.75</ele><time>2026-04-24T14:23:14.999Z</time></trkpt><trkpt lat="44.690301077377555" lon="10.292110619358459"><ele>159.0</ele><time>2026-04-24T14:23:15.999Z</time></trkpt><trkpt lat="44.69018036491517" lon="10.29218294954737"><ele>159.0</ele><time>2026-04-24T14:23:16.999Z</time></trkpt><trkpt lat="44.690042335327675" lon="10.292222859563644"><ele>159.0</ele><time>2026-04-24T14:23:17.999Z</time></trkpt><trkpt lat="44.68988969355543" lon="10.292242657834038"><ele>159.0</ele><time>2026-04-24T14:23:18.999Z</time></trkpt><trkpt lat="44.689728229375284" lon="10.292223400800815"><ele>159.0</ele><time>2026-04-24T14:23:19.999Z</time></trkpt><trkpt lat="44.689556879915436" lon="10.292128720062749"><ele>159.0</ele><time>2026-04-24T14:23:20.999Z</time></trkpt><trkpt lat="44.6893716101021" lon="10.29202297355077"><ele>159.0</ele><time>2026-04-24T14:23:21.999Z</time></trkpt><trkpt lat="44.68917701703384" lon="10.291921224863328"><ele>160.0</ele><time>2026-04-24T14:23:22.999Z</time></trkpt><trkpt lat="44.68898271106244" lon="10.29182718557283"><ele>161.0</ele><time>2026-04-24T14:23:23.999Z</time></trkpt><trkpt lat="44.688799385824176" lon="10.291738054449233"><ele>162.0</ele><time>2026-04-24T14:23:24.999Z</time></trkpt><trkpt lat="44.688620058910416" lon="10.291650831467829"><ele>162.0</ele><time>2026-04-24T14:23:25.998Z</time></trkpt><trkpt lat="44.688443697374986" lon="10.29155425158687"><ele>162.0</ele><time>2026-04-24T14:23:26.998Z</time></trkpt><trkpt lat="44.68825043916269" lon="10.291434762185359"><ele>162.0</ele><time>2026-04-24T14:23:27.998Z</time></trkpt><trkpt lat="44.68805795890143" lon="10.291307938948048"><ele>162.0</ele><time>2026-04-24T14:23:28.998Z</time></trkpt><trkpt lat="44.68788546867502" lon="10.291193221911394"><ele>162.0</ele><time>2026-04-24T14:23:29.998Z</time></trkpt><trkpt lat="44.68772696111987" lon="10.291089705212567"><ele>162.0</ele><time>2026-04-24T14:23:30.998Z</time></trkpt><trkpt lat="44.687582692634294" lon="10.29099895697046"><ele>162.66666666666666</ele><time>2026-04-24T14:23:31.998Z</time></trkpt><trkpt lat="44.68744184825663" lon="10.29091448923435"><ele>163.33333333333331</ele><time>2026-04-24T14:23:32.998Z</time></trkpt><trkpt lat="44.68729813725865" lon="10.290830662521017"><ele>164.0</ele><time>2026-04-24T14:23:33.998Z</time></trkpt><trkpt lat="44.68714905306703" lon="10.290746664970294"><ele>164.0</ele><time>2026-04-24T14:23:34.998Z</time></trkpt><trkpt lat="44.686995646005634" lon="10.29066916700179"><ele>164.0</ele><time>2026-04-24T14:23:35.998Z</time></trkpt><trkpt lat="44.686843870053366" lon="10.290595297893978"><ele>164.0</ele><time>2026-04-24T14:23:36.998Z</time></trkpt><trkpt lat="44.68668901910254" lon="10.290517214928572"><ele>164.25</ele><time>2026-04-24T14:23:37.998Z</time></trkpt><trkpt lat="44.68654707210802" lon="10.290447197817764"><ele>164.5</ele><time>2026-04-24T14:23:38.998Z</time></trkpt><trkpt lat="44.68641093563417" lon="10.290383859972495"><ele>164.75</ele><time>2026-04-24T14:23:39.998Z</time></trkpt><trkpt lat="44.68627462540253" lon="10.290323660949618"><ele>165.0</ele><time>2026-04-24T14:23:40.998Z</time></trkpt><trkpt lat="44.68614006144831" lon="10.290268647697909"><ele>164.75</ele><time>2026-04-24T14:23:41.998Z</time></trkpt><trkpt lat="44.68600457082093" lon="10.290213110239506"><ele>164.5</ele><time>2026-04-24T14:23:42.998Z</time></trkpt><trkpt lat="44.68587048530942" lon="10.290157606197326"><ele>164.25</ele><time>2026-04-24T14:23:43.998Z</time></trkpt><trkpt lat="44.68573834822522" lon="10.290101173707752"><ele>164.0</ele><time>2026-04-24T14:23:44.998Z</time></trkpt><trkpt lat="44.68560669512655" lon="10.290044521856059"><ele>164.0</ele><time>2026-04-24T14:23:45.998Z</time></trkpt><trkpt lat="44.68546855973247" lon="10.289989540146934"><ele>164.0</ele><time>2026-04-24T14:23:46.998Z</time></trkpt><trkpt lat="44.68532665940636" lon="10.28993394074135"><ele>164.0</ele><time>2026-04-24T14:23:47.998Z</time></trkpt><trkpt lat="44.685182300421694" lon="10.289876255666725"><ele>164.0</ele><time>2026-04-24T14:23:48.998Z</time></trkpt><trkpt lat="44.685036216855984" lon="10.289814718953789"><ele>165.33333333333331</ele><time>2026-04-24T14:23:49.998Z</time></trkpt><trkpt lat="44.684889078112334" lon="10.289752163375017"><ele>166.66666666666666</ele><time>2026-04-24T14:23:50.998Z</time></trkpt><trkpt lat="44.68474034949748" lon="10.28968603184453"><ele>168.0</ele><time>2026-04-24T14:23:51.998Z</time></trkpt><trkpt lat="44.68458935935749" lon="10.289620861456713"><ele>168.0</ele><time>2026-04-24T14:23:52.998Z</time></trkpt><trkpt lat="44.684437478890736" lon="10.289551443747902"><ele>168.0</ele><time>2026-04-24T14:23:53.998Z</time></trkpt><trkpt lat="44.68428663261256" lon="10.28947737881035"><ele>168.0</ele><time>2026-04-24T14:23:54.998Z</time></trkpt><trkpt lat="44.68413479173892" lon="10.289398069710412"><ele>168.5</ele><time>2026-04-24T14:23:55.998Z</time></trkpt><trkpt lat="44.683991962107335" lon="10.289322804469753"><ele>169.0</ele><time>2026-04-24T14:23:56.998Z</time></trkpt><trkpt lat="44.68386300610789" lon="10.289250362835839"><ele>169.5</ele><time>2026-04-24T14:23:57.998Z</time></trkpt><trkpt lat="44.68373384059598" lon="10.289178908181704"><ele>170.0</ele><time>2026-04-24T14:23:59Z</time></trkpt><trkpt lat="44.683610694529655" lon="10.289108468712385"><ele>170.25</ele><time>2026-04-24T14:24:00Z</time></trkpt><trkpt lat="44.68348321406799" lon="10.28903656155056"><ele>170.5</ele><time>2026-04-24T14:24:01Z</time></trkpt><trkpt lat="44.68335689837661" lon="10.288947395633818"><ele>170.75</ele><time>2026-04-24T14:24:02Z</time></trkpt><trkpt lat="44.68321751425492" lon="10.28889033711734"><ele>171.0</ele><time>2026-04-24T14:24:03Z</time></trkpt><trkpt lat="44.683083311761294" lon="10.288809817559384"><ele>171.0</ele><time>2026-04-24T14:24:04Z</time></trkpt><trkpt lat="44.68294521553338" lon="10.288728428618766"><ele>171.0</ele><time>2026-04-24T14:24:05Z</time></trkpt><trkpt lat="44.682805575235236" lon="10.28864603656985"><ele>171.0</ele><time>2026-04-24T14:24:06Z</time></trkpt><trkpt lat="44.68266163526318" lon="10.288564130176642"><ele>171.33333333333334</ele><time>2026-04-24T14:24:07Z</time></trkpt><trkpt lat="44.682514445824935" lon="10.2884826123782"><ele>171.66666666666669</ele><time>2026-04-24T14:24:08Z</time></trkpt><trkpt lat="44.68236870957209" lon="10.288394612480426"><ele>172.0</ele><time>2026-04-24T14:24:09Z</time></trkpt><trkpt lat="44.682231505682104" lon="10.288313404313076"><ele>172.0</ele><time>2026-04-24T14:24:10Z</time></trkpt><trkpt lat="44.682098660450336" lon="10.288231410572406"><ele>172.0</ele><time>2026-04-24T14:24:11Z</time></trkpt><trkpt lat="44.681963738973806" lon="10.28815328625682"><ele>172.0</ele><time>2026-04-24T14:24:12Z</time></trkpt><trkpt lat="44.68182748992884" lon="10.288082643481495"><ele>172.0</ele><time>2026-04-24T14:24:13Z</time></trkpt><trkpt lat="44.68170146230115" lon="10.287990146725221"><ele>173.0</ele><time>2026-04-24T14:24:14Z</time></trkpt><trkpt lat="44.68156960396809" lon="10.2879170106635"><ele>174.0</ele><time>2026-04-24T14:24:15Z</time></trkpt><trkpt lat="44.68143595837169" lon="10.287863357798328"><ele>175.0</ele><time>2026-04-24T14:24:16Z</time></trkpt><trkpt lat="44.681308898738344" lon="10.287784858238634"><ele>176.0</ele><time>2026-04-24T14:24:17Z</time></trkpt><trkpt lat="44.681183821321696" lon="10.28770626571947"><ele>176.0</ele><time>2026-04-24T14:24:18Z</time></trkpt><trkpt lat="44.68106594598533" lon="10.287620388338262"><ele>176.0</ele><time>2026-04-24T14:24:19Z</time></trkpt><trkpt lat="44.680982839208404" lon="10.28749315081314"><ele>176.0</ele><time>2026-04-24T14:24:20Z</time></trkpt><trkpt lat="44.6808841655974" lon="10.287417521541686"><ele>176.0</ele><time>2026-04-24T14:24:21Z</time></trkpt><trkpt lat="44.680790904268136" lon="10.287353680532334"><ele>176.0</ele><time>2026-04-24T14:24:22Z</time></trkpt><trkpt lat="44.68071434045403" lon="10.287318464395861"><ele>176.0</ele><time>2026-04-24T14:24:23Z</time></trkpt><trkpt lat="44.68064385078458" lon="10.287269464735033"><ele>176.0</ele><time>2026-04-24T14:24:26Z</time></trkpt><trkpt lat="44.68055982148817" lon="10.287229153731364"><ele>176.0</ele><time>2026-04-24T14:24:28Z</time></trkpt><trkpt lat="44.68045745964547" lon="10.287143914533171"><ele>176.0</ele><time>2026-04-24T14:24:30Z</time></trkpt><trkpt lat="44.680393338029695" lon="10.287069455835315"><ele>176.0</ele><time>2026-04-24T14:24:32Z</time></trkpt><trkpt lat="44.68030355085749" lon="10.287025204703168"><ele>176.0</ele><time>2026-04-24T14:24:35Z</time></trkpt><trkpt lat="44.68026337124732" lon="10.287108361846832"><ele>176.0</ele><time>2026-04-24T14:24:36Z</time></trkpt><trkpt lat="44.68033156135457" lon="10.28724134912542"><ele>176.0</ele><time>2026-04-24T14:24:38Z</time></trkpt><trkpt lat="44.68040619119786" lon="10.287366371895484"><ele>176.0</ele><time>2026-04-24T14:24:40Z</time></trkpt><trkpt lat="44.68047684270014" lon="10.287453352455683"><ele>176.0</ele><time>2026-04-24T14:24:42Z</time></trkpt><trkpt lat="44.680434812666746" lon="10.287583892296254"><ele>176.0</ele><time>2026-04-24T14:24:43Z</time></trkpt><trkpt lat="44.68045006149313" lon="10.287724392436491"><ele>176.0</ele><time>2026-04-24T14:24:45Z</time></trkpt><trkpt lat="44.68047435766783" lon="10.287905929620557"><ele>176.0</ele><time>2026-04-24T14:24:47Z</time></trkpt><trkpt lat="44.68048839650434" lon="10.288014411608069"><ele>176.0</ele><time>2026-04-24T14:24:48Z</time></trkpt><trkpt lat="44.680498792211495" lon="10.288126973356002"><ele>176.0</ele><time>2026-04-24T14:24:49Z</time></trkpt><trkpt lat="44.68050890167675" lon="10.288250957433473"><ele>176.0</ele><time>2026-04-24T14:24:50Z</time></trkpt><trkpt lat="44.68051800876883" lon="10.288383346462235"><ele>176.0</ele><time>2026-04-24T14:24:51Z</time></trkpt><trkpt lat="44.680526404469724" lon="10.288520364607182"><ele>176.0</ele><time>2026-04-24T14:24:52Z</time></trkpt><trkpt lat="44.68053507528305" lon="10.288649551451048"><ele>176.0</ele><time>2026-04-24T14:24:52.999Z</time></trkpt><trkpt lat="44.68054534048068" lon="10.288771798003228"><ele>176.0</ele><time>2026-04-24T14:24:53.999Z</time></trkpt><trkpt lat="44.68055442287439" lon="10.28889395634771"><ele>176.0</ele><time>2026-04-24T14:24:54.999Z</time></trkpt><trkpt lat="44.68056313651263" lon="10.289067264387018"><ele>176.0</ele><time>2026-04-24T14:24:55.999Z</time></trkpt><trkpt lat="44.68057685214838" lon="10.289219883074974"><ele>176.0</ele><time>2026-04-24T14:24:56.999Z</time></trkpt><trkpt lat="44.68059230277628" lon="10.289380278894027"><ele>176.0</ele><time>2026-04-24T14:24:57.999Z</time></trkpt><trkpt lat="44.68060505830268" lon="10.289538076314193"><ele>176.0</ele><time>2026-04-24T14:24:58.999Z</time></trkpt><trkpt lat="44.680614164605" lon="10.289671117711812"><ele>176.0</ele><time>2026-04-24T14:24:59.999Z</time></trkpt><trkpt lat="44.68061862025688" lon="10.28977213149113"><ele>176.0</ele><time>2026-04-24T14:25:00.999Z</time></trkpt><trkpt lat="44.68062418232187" lon="10.289893130796884"><ele>176.0</ele><time>2026-04-24T14:25:03.999Z</time></trkpt><trkpt lat="44.68063445384757" lon="10.290016540866123"><ele>176.0</ele><time>2026-04-24T14:25:05.999Z</time></trkpt><trkpt lat="44.680637040873975" lon="10.29011370471933"><ele>176.0</ele><time>2026-04-24T14:25:06.999Z</time></trkpt><trkpt lat="44.680639658496965" lon="10.290230420404205"><ele>175.60000000000002</ele><time>2026-04-24T14:25:07.999Z</time></trkpt><trkpt lat="44.680640372702044" lon="10.290356004895237"><ele>175.2</ele><time>2026-04-24T14:25:08.999Z</time></trkpt><trkpt lat="44.6806438373045" lon="10.290501588467183"><ele>174.8</ele><time>2026-04-24T14:25:09.999Z</time></trkpt><trkpt lat="44.68064944049765" lon="10.290657203362027"><ele>174.39999999999998</ele><time>2026-04-24T14:25:10.999Z</time></trkpt><trkpt lat="44.68065472088518" lon="10.290809774371471"><ele>174.0</ele><time>2026-04-24T14:25:11.999Z</time></trkpt><trkpt lat="44.68065945639549" lon="10.290965984105334"><ele>174.0</ele><time>2026-04-24T14:25:12.999Z</time></trkpt><trkpt lat="44.68066381169126" lon="10.291120510450424"><ele>174.0</ele><time>2026-04-24T14:25:13.999Z</time></trkpt><trkpt lat="44.68067203017956" lon="10.291265406633977"><ele>174.0</ele><time>2026-04-24T14:25:14.999Z</time></trkpt><trkpt lat="44.68067338954013" lon="10.291382575959066"><ele>174.0</ele><time>2026-04-24T14:25:15.999Z</time></trkpt><trkpt lat="44.6806757099824" lon="10.291481255355592"><ele>174.0</ele><time>2026-04-24T14:25:16.999Z</time></trkpt><trkpt lat="44.68067757691386" lon="10.291572309071832"><ele>174.0</ele><time>2026-04-24T14:25:17.999Z</time></trkpt><trkpt lat="44.68068106241859" lon="10.29170324939244"><ele>174.0</ele><time>2026-04-24T14:25:19.999Z</time></trkpt><trkpt lat="44.68068169554779" lon="10.291802548325588"><ele>174.0</ele><time>2026-04-24T14:25:21.999Z</time></trkpt><trkpt lat="44.68068389115287" lon="10.29197122551354"><ele>174.0</ele><time>2026-04-24T14:25:23.999Z</time></trkpt><trkpt lat="44.68068275844406" lon="10.292089893582968"><ele>174.0</ele><time>2026-04-24T14:25:24.999Z</time></trkpt><trkpt lat="44.68068470596003" lon="10.292219288087523"><ele>174.0</ele><time>2026-04-24T14:25:25.999Z</time></trkpt><trkpt lat="44.68068648575035" lon="10.29236247041055"><ele>174.0</ele><time>2026-04-24T14:25:26.999Z</time></trkpt><trkpt lat="44.680687052043886" lon="10.292519442272908"><ele>174.0</ele><time>2026-04-24T14:25:27.999Z</time></trkpt><trkpt lat="44.68068453351631" lon="10.292679499096476"><ele>174.0</ele><time>2026-04-24T14:25:28.999Z</time></trkpt><trkpt lat="44.680680449599464" lon="10.292847073554519"><ele>174.0</ele><time>2026-04-24T14:25:29.999Z</time></trkpt><trkpt lat="44.68067539546205" lon="10.293003450287822"><ele>174.2</ele><time>2026-04-24T14:25:30.999Z</time></trkpt><trkpt lat="44.680664361333314" lon="10.293149721735663"><ele>174.39999999999998</ele><time>2026-04-24T14:25:31.999Z</time></trkpt><trkpt lat="44.680650981027334" lon="10.293292002765455"><ele>174.6</ele><time>2026-04-24T14:25:32.999Z</time></trkpt><trkpt lat="44.68063308258305" lon="10.29342753737678"><ele>174.8</ele><time>2026-04-24T14:25:33.999Z</time></trkpt><trkpt lat="44.68061362202052" lon="10.29355013318052"><ele>175.0</ele><time>2026-04-24T14:25:34.999Z</time></trkpt><trkpt lat="44.68058734405941" lon="10.293658697313736"><ele>175.0</ele><time>2026-04-24T14:25:35.999Z</time></trkpt><trkpt lat="44.6805461445931" lon="10.293757985439171"><ele>175.0</ele><time>2026-04-24T14:25:36.999Z</time></trkpt><trkpt lat="44.68049696544702" lon="10.293830857458557"><ele>175.0</ele><time>2026-04-24T14:25:37.999Z</time></trkpt><trkpt lat="44.68044709235732" lon="10.293902162954153"><ele>175.0</ele><time>2026-04-24T14:25:38.999Z</time></trkpt><trkpt lat="44.68040509069429" lon="10.29398593493174"><ele>175.0</ele><time>2026-04-24T14:25:39.999Z</time></trkpt><trkpt lat="44.68037146528785" lon="10.294093996013487"><ele>175.0</ele><time>2026-04-24T14:25:40.999Z</time></trkpt><trkpt lat="44.68035994652899" lon="10.294205598815875"><ele>174.6</ele><time>2026-04-24T14:25:41.999Z</time></trkpt><trkpt lat="44.680402615379236" lon="10.294331208541623"><ele>174.2</ele><time>2026-04-24T14:25:42.999Z</time></trkpt><trkpt lat="44.68042274523021" lon="10.294454237296547"><ele>173.8</ele><time>2026-04-24T14:25:43.998Z</time></trkpt><trkpt lat="44.68042020425785" lon="10.294584432935965"><ele>173.4</ele><time>2026-04-24T14:25:44.998Z</time></trkpt><trkpt lat="44.68039992691875" lon="10.294716323703906"><ele>173.0</ele><time>2026-04-24T14:25:45.998Z</time></trkpt><trkpt lat="44.68037324655727" lon="10.294856457389196"><ele>173.0</ele><time>2026-04-24T14:25:46.998Z</time></trkpt><trkpt lat="44.680347115782794" lon="10.295002866315256"><ele>173.0</ele><time>2026-04-24T14:25:47.998Z</time></trkpt><trkpt lat="44.6803180417226" lon="10.29515789412327"><ele>173.0</ele><time>2026-04-24T14:25:48.998Z</time></trkpt><trkpt lat="44.6802891579609" lon="10.295323907920826"><ele>173.0</ele><time>2026-04-24T14:25:49.998Z</time></trkpt><trkpt lat="44.680255479497454" lon="10.295490635515668"><ele>172.75</ele><time>2026-04-24T14:25:50.998Z</time></trkpt><trkpt lat="44.680219011479025" lon="10.295664033628174"><ele>172.5</ele><time>2026-04-24T14:25:51.998Z</time></trkpt><trkpt lat="44.680183879918616" lon="10.295839705164616"><ele>172.25</ele><time>2026-04-24T14:25:52.998Z</time></trkpt><trkpt lat="44.680149606739306" lon="10.296020082974382"><ele>172.0</ele><time>2026-04-24T14:25:53.998Z</time></trkpt><trkpt lat="44.68011616527076" lon="10.296206543017236"><ele>172.0</ele><time>2026-04-24T14:25:54.998Z</time></trkpt><trkpt lat="44.680078608020295" lon="10.296395647488609"><ele>172.0</ele><time>2026-04-24T14:25:55.998Z</time></trkpt><trkpt lat="44.68004106750266" lon="10.29659255689673"><ele>172.0</ele><time>2026-04-24T14:25:56.998Z</time></trkpt><trkpt lat="44.67999737117054" lon="10.296802732276458"><ele>172.0</ele><time>2026-04-24T14:25:57.998Z</time></trkpt><trkpt lat="44.67995846484331" lon="10.29701877698293"><ele>172.0</ele><time>2026-04-24T14:25:58.998Z</time></trkpt><trkpt lat="44.679913268921105" lon="10.29723810826928"><ele>172.0</ele><time>2026-04-24T14:25:59.998Z</time></trkpt><trkpt lat="44.67987123751717" lon="10.29744208867305"><ele>172.0</ele><time>2026-04-24T14:26:00.998Z</time></trkpt><trkpt lat="44.679830855243175" lon="10.297649414656675"><ele>172.0</ele><time>2026-04-24T14:26:01.998Z</time></trkpt><trkpt lat="44.67978983270624" lon="10.297859348561653"><ele>172.0</ele><time>2026-04-24T14:26:02.998Z</time></trkpt><trkpt lat="44.67974762238254" lon="10.29807564127802"><ele>172.0</ele><time>2026-04-24T14:26:03.998Z</time></trkpt><trkpt lat="44.67970622467537" lon="10.29828625034321"><ele>172.0</ele><time>2026-04-24T14:26:05Z</time></trkpt><trkpt lat="44.679665403367885" lon="10.298503674556072"><ele>172.0</ele><time>2026-04-24T14:26:06Z</time></trkpt><trkpt lat="44.67962333775193" lon="10.298721919386665"><ele>172.0</ele><time>2026-04-24T14:26:07Z</time></trkpt><trkpt lat="44.679579700864075" lon="10.29893892481944"><ele>172.33333333333334</ele><time>2026-04-24T14:26:08Z</time></trkpt><trkpt lat="44.67953453943447" lon="10.299158671647273"><ele>172.66666666666666</ele><time>2026-04-24T14:26:09Z</time></trkpt><trkpt lat="44.679487761619306" lon="10.299380451003444"><ele>173.0</ele><time>2026-04-24T14:26:10Z</time></trkpt><trkpt lat="44.67944198273889" lon="10.29960703033095"><ele>173.33333333333331</ele><time>2026-04-24T14:26:11Z</time></trkpt><trkpt lat="44.67939851419853" lon="10.299836509455172"><ele>173.66666666666666</ele><time>2026-04-24T14:26:12Z</time></trkpt><trkpt lat="44.67935306723734" lon="10.300068214198017"><ele>174.0</ele><time>2026-04-24T14:26:13Z</time></trkpt><trkpt lat="44.67930752886363" lon="10.300296060477235"><ele>174.0</ele><time>2026-04-24T14:26:14Z</time></trkpt><trkpt lat="44.679261500214395" lon="10.300523656160058"><ele>174.0</ele><time>2026-04-24T14:26:15Z</time></trkpt><trkpt lat="44.679217384273244" lon="10.30075116230676"><ele>174.0</ele><time>2026-04-24T14:26:16Z</time></trkpt><trkpt lat="44.67917265389286" lon="10.300982249724512"><ele>173.66666666666666</ele><time>2026-04-24T14:26:17Z</time></trkpt><trkpt lat="44.67912937663636" lon="10.301211366655812"><ele>173.33333333333331</ele><time>2026-04-24T14:26:18Z</time></trkpt><trkpt lat="44.67908668508194" lon="10.30143291294002"><ele>173.0</ele><time>2026-04-24T14:26:19Z</time></trkpt><trkpt lat="44.67904611510039" lon="10.301650901064331"><ele>173.0</ele><time>2026-04-24T14:26:20Z</time></trkpt><trkpt lat="44.679005075424705" lon="10.301870245456422"><ele>173.0</ele><time>2026-04-24T14:26:21Z</time></trkpt><trkpt lat="44.678961234645826" lon="10.302101897209255"><ele>173.0</ele><time>2026-04-24T14:26:22Z</time></trkpt><trkpt lat="44.67892064641704" lon="10.302323733486764"><ele>172.33333333333331</ele><time>2026-04-24T14:26:23Z</time></trkpt><trkpt lat="44.67887845944083" lon="10.302547396272766"><ele>171.66666666666666</ele><time>2026-04-24T14:26:24Z</time></trkpt><trkpt lat="44.67883524523198" lon="10.302773163362037"><ele>171.0</ele><time>2026-04-24T14:26:25Z</time></trkpt><trkpt lat="44.678793322595915" lon="10.303001103707187"><ele>171.33333333333334</ele><time>2026-04-24T14:26:26Z</time></trkpt><trkpt lat="44.678751550552526" lon="10.303227308732243"><ele>171.66666666666669</ele><time>2026-04-24T14:26:27Z</time></trkpt><trkpt lat="44.67870944732049" lon="10.303458870059908"><ele>172.0</ele><time>2026-04-24T14:26:28Z</time></trkpt><trkpt lat="44.67866738647279" lon="10.303690531527831"><ele>171.66666666666669</ele><time>2026-04-24T14:26:29Z</time></trkpt><trkpt lat="44.678623253371086" lon="10.303929728215177"><ele>171.33333333333334</ele><time>2026-04-24T14:26:30Z</time></trkpt><trkpt lat="44.67857854726053" lon="10.304165381960027"><ele>171.0</ele><time>2026-04-24T14:26:31Z</time></trkpt><trkpt lat="44.678534944293695" lon="10.304405527434646"><ele>170.33333333333334</ele><time>2026-04-24T14:26:32Z</time></trkpt><trkpt lat="44.67849182535088" lon="10.304641227278422"><ele>169.66666666666669</ele><time>2026-04-24T14:26:33Z</time></trkpt><trkpt lat="44.67845159093433" lon="10.304874774410761"><ele>169.0</ele><time>2026-04-24T14:26:34Z</time></trkpt><trkpt lat="44.67840742922248" lon="10.30510328087508"><ele>169.0</ele><time>2026-04-24T14:26:35Z</time></trkpt><trkpt lat="44.678366811056996" lon="10.305318481589401"><ele>169.0</ele><time>2026-04-24T14:26:36Z</time></trkpt><trkpt lat="44.67832516720444" lon="10.305532354780505"><ele>169.0</ele><time>2026-04-24T14:26:37Z</time></trkpt><trkpt lat="44.67828468731798" lon="10.305749409724847"><ele>169.0</ele><time>2026-04-24T14:26:38Z</time></trkpt><trkpt lat="44.67824366362598" lon="10.305971514772466"><ele>169.0</ele><time>2026-04-24T14:26:39Z</time></trkpt><trkpt lat="44.67820291207925" lon="10.306195870664437"><ele>169.0</ele><time>2026-04-24T14:26:40Z</time></trkpt><trkpt lat="44.67816531374127" lon="10.30641275699327"><ele>169.25</ele><time>2026-04-24T14:26:41Z</time></trkpt><trkpt lat="44.678130593535975" lon="10.3066069409075"><ele>169.5</ele><time>2026-04-24T14:26:42Z</time></trkpt><trkpt lat="44.678094459179576" lon="10.30680392239339"><ele>169.75</ele><time>2026-04-24T14:26:43Z</time></trkpt><trkpt lat="44.67806001206643" lon="10.30699250590987"><ele>170.0</ele><time>2026-04-24T14:26:44Z</time></trkpt><trkpt lat="44.67802721286139" lon="10.307169478976956"><ele>170.0</ele><time>2026-04-24T14:26:45Z</time></trkpt><trkpt lat="44.67799540575635" lon="10.307343395654364"><ele>170.0</ele><time>2026-04-24T14:26:46Z</time></trkpt><trkpt lat="44.677966672558895" lon="10.307498066706053"><ele>170.0</ele><time>2026-04-24T14:26:47Z</time></trkpt><trkpt lat="44.67794072889191" lon="10.307633667931736"><ele>170.0</ele><time>2026-04-24T14:26:48Z</time></trkpt><trkpt lat="44.67790936299411" lon="10.307750531885647"><ele>170.0</ele><time>2026-04-24T14:26:49Z</time></trkpt><trkpt lat="44.67790228249963" lon="10.307860087517192"><ele>170.0</ele><time>2026-04-24T14:26:50Z</time></trkpt><trkpt lat="44.67788623695263" lon="10.307953222741157"><ele>170.0</ele><time>2026-04-24T14:26:51Z</time></trkpt><trkpt lat="44.67787204753723" lon="10.308041790733874"><ele>170.0</ele><time>2026-04-24T14:26:52Z</time></trkpt><trkpt lat="44.67784245078467" lon="10.308201236421702"><ele>170.0</ele><time>2026-04-24T14:26:53.999Z</time></trkpt><trkpt lat="44.677821417977874" lon="10.308336530488322"><ele>170.0</ele><time>2026-04-24T14:26:55.999Z</time></trkpt><trkpt lat="44.677798970293345" lon="10.308481287631675"><ele>170.33333333333331</ele><time>2026-04-24T14:26:57.999Z</time></trkpt><trkpt lat="44.67775095847946" lon="10.30860426295472"><ele>170.66666666666666</ele><time>2026-04-24T14:26:59.999Z</time></trkpt><trkpt lat="44.67773195185755" lon="10.308704954295385"><ele>171.0</ele><time>2026-04-24T14:27:02.999Z</time></trkpt><trkpt lat="44.67772208456626" lon="10.308810739553639"><ele>171.33333333333334</ele><time>2026-04-24T14:27:35.999Z</time></trkpt><trkpt lat="44.677702745555926" lon="10.308903178173608"><ele>171.66666666666669</ele><time>2026-04-24T14:27:36.999Z</time></trkpt><trkpt lat="44.677680560576704" lon="10.309018011216013"><ele>172.0</ele><time>2026-04-24T14:27:37.999Z</time></trkpt><trkpt lat="44.677654975203104" lon="10.309160105142311"><ele>172.0</ele><time>2026-04-24T14:27:38.999Z</time></trkpt><trkpt lat="44.67762808845649" lon="10.309314621617313"><ele>172.0</ele><time>2026-04-24T14:27:39.999Z</time></trkpt><trkpt lat="44.67760488952806" lon="10.30941246230979"><ele>172.0</ele><time>2026-04-24T14:27:40.999Z</time></trkpt><trkpt lat="44.67757357378663" lon="10.30957925467403"><ele>172.0</ele><time>2026-04-24T14:27:41.999Z</time></trkpt><trkpt lat="44.677536154034044" lon="10.309762121670671"><ele>172.0</ele><time>2026-04-24T14:27:42.999Z</time></trkpt><trkpt lat="44.67749965177398" lon="10.309948129772595"><ele>171.33333333333334</ele><time>2026-04-24T14:27:43.999Z</time></trkpt><trkpt lat="44.67746516197875" lon="10.31014819410406"><ele>170.66666666666666</ele><time>2026-04-24T14:27:44.998Z</time></trkpt><trkpt lat="44.677428611901995" lon="10.310357609637695"><ele>170.0</ele><time>2026-04-24T14:27:45.998Z</time></trkpt><trkpt lat="44.677388006875944" lon="10.310572079576914"><ele>169.66666666666666</ele><time>2026-04-24T14:27:46.998Z</time></trkpt><trkpt lat="44.677347569124514" lon="10.310797295125843"><ele>169.33333333333334</ele><time>2026-04-24T14:27:47.998Z</time></trkpt><trkpt lat="44.67730828863675" lon="10.311028581072696"><ele>169.0</ele><time>2026-04-24T14:27:48.998Z</time></trkpt><trkpt lat="44.677268597644186" lon="10.311261716850657"><ele>168.66666666666669</ele><time>2026-04-24T14:27:49.998Z</time></trkpt><trkpt lat="44.67722305055354" lon="10.311503634544797"><ele>168.33333333333334</ele><time>2026-04-24T14:27:50.998Z</time></trkpt><trkpt lat="44.67717806555407" lon="10.311751622850785"><ele>168.0</ele><time>2026-04-24T14:27:51.998Z</time></trkpt><trkpt lat="44.67713316507723" lon="10.31201004268278"><ele>167.33333333333334</ele><time>2026-04-24T14:27:52.998Z</time></trkpt><trkpt lat="44.67708700026031" lon="10.3122741981691"><ele>166.66666666666669</ele><time>2026-04-24T14:27:53.998Z</time></trkpt><trkpt lat="44.677044777483836" lon="10.312541597946709"><ele>166.0</ele><time>2026-04-24T14:27:54.998Z</time></trkpt><trkpt lat="44.676996822021195" lon="10.312811088871591"><ele>166.0</ele><time>2026-04-24T14:27:55.998Z</time></trkpt><trkpt lat="44.6769489791065" lon="10.313077816516719"><ele>166.0</ele><time>2026-04-24T14:27:56.998Z</time></trkpt><trkpt lat="44.67689958768995" lon="10.313352048760285"><ele>166.0</ele><time>2026-04-24T14:27:57.998Z</time></trkpt><trkpt lat="44.67685051305242" lon="10.313625561387235"><ele>166.0</ele><time>2026-04-24T14:27:58.998Z</time></trkpt><trkpt lat="44.67679955106812" lon="10.313901968069116"><ele>166.0</ele><time>2026-04-24T14:27:59.998Z</time></trkpt><trkpt lat="44.676746592612865" lon="10.314184042104499"><ele>166.0</ele><time>2026-04-24T14:28:00.998Z</time></trkpt><trkpt lat="44.676697194568376" lon="10.31446546216844"><ele>165.66666666666669</ele><time>2026-04-24T14:28:01.998Z</time></trkpt><trkpt lat="44.676647803073514" lon="10.314751311498448"><ele>165.33333333333334</ele><time>2026-04-24T14:28:02.998Z</time></trkpt><trkpt lat="44.67659643793861" lon="10.31503622429088"><ele>165.0</ele><time>2026-04-24T14:28:03.998Z</time></trkpt><trkpt lat="44.67654381305078" lon="10.315322004379007"><ele>165.33333333333334</ele><time>2026-04-24T14:28:04.998Z</time></trkpt><trkpt lat="44.67649106850602" lon="10.315609208371745"><ele>165.66666666666669</ele><time>2026-04-24T14:28:05.998Z</time></trkpt><trkpt lat="44.676438414693756" lon="10.315896283949035"><ele>166.0</ele><time>2026-04-24T14:28:06.998Z</time></trkpt><trkpt lat="44.676385751406244" lon="10.316182573035384"><ele>165.66666666666669</ele><time>2026-04-24T14:28:07.998Z</time></trkpt><trkpt lat="44.67633661454257" lon="10.316463868638076"><ele>165.33333333333334</ele><time>2026-04-24T14:28:08.998Z</time></trkpt><trkpt lat="44.6762864192615" lon="10.316738412548291"><ele>165.0</ele><time>2026-04-24T14:28:09.998Z</time></trkpt><trkpt lat="44.676236247712296" lon="10.317014450011936"><ele>164.66666666666666</ele><time>2026-04-24T14:28:11Z</time></trkpt><trkpt lat="44.676185961449214" lon="10.317287933282252"><ele>164.33333333333331</ele><time>2026-04-24T14:28:12Z</time></trkpt><trkpt lat="44.67613639001149" lon="10.317561165844424"><ele>164.0</ele><time>2026-04-24T14:28:13Z</time></trkpt><trkpt lat="44.67608793830765" lon="10.317835640576213"><ele>164.66666666666666</ele><time>2026-04-24T14:28:14Z</time></trkpt><trkpt lat="44.67603756557771" lon="10.318109784491986"><ele>165.33333333333334</ele><time>2026-04-24T14:28:15Z</time></trkpt><trkpt lat="44.675987194123245" lon="10.31838328959895"><ele>166.0</ele><time>2026-04-24T14:28:16Z</time></trkpt><trkpt lat="44.67593842546907" lon="10.318656747945365"><ele>165.66666666666669</ele><time>2026-04-24T14:28:17Z</time></trkpt><trkpt lat="44.67588950289282" lon="10.31893124624127"><ele>165.33333333333334</ele><time>2026-04-24T14:28:18Z</time></trkpt><trkpt lat="44.67583881638262" lon="10.319199656250122"><ele>165.0</ele><time>2026-04-24T14:28:19Z</time></trkpt><trkpt lat="44.67577828866885" lon="10.319467027981432"><ele>165.0</ele><time>2026-04-24T14:28:20Z</time></trkpt><trkpt lat="44.67570587049812" lon="10.319728667816698"><ele>165.0</ele><time>2026-04-24T14:28:21Z</time></trkpt><trkpt lat="44.675623974679" lon="10.319987982168563"><ele>165.0</ele><time>2026-04-24T14:28:22Z</time></trkpt><trkpt lat="44.67553256714583" lon="10.320244840985938"><ele>165.0</ele><time>2026-04-24T14:28:23Z</time></trkpt><trkpt lat="44.675435045106525" lon="10.320501418119314"><ele>165.0</ele><time>2026-04-24T14:28:24Z</time></trkpt><trkpt lat="44.6753335831459" lon="10.320751716954232"><ele>165.0</ele><time>2026-04-24T14:28:25Z</time></trkpt><trkpt lat="44.6752283571994" lon="10.321009814831246"><ele>164.66666666666666</ele><time>2026-04-24T14:28:26Z</time></trkpt><trkpt lat="44.675123402800374" lon="10.321265879128712"><ele>164.33333333333331</ele><time>2026-04-24T14:28:27Z</time></trkpt><trkpt lat="44.67501846571674" lon="10.321523172909158"><ele>164.0</ele><time>2026-04-24T14:28:28Z</time></trkpt><trkpt lat="44.67491223639443" lon="10.321778197605061"><ele>163.66666666666666</ele><time>2026-04-24T14:28:29Z</time></trkpt><trkpt lat="44.67480713901342" lon="10.322036333065057"><ele>163.33333333333334</ele><time>2026-04-24T14:28:30Z</time></trkpt><trkpt lat="44.67470067505733" lon="10.322294301839666"><ele>163.0</ele><time>2026-04-24T14:28:31Z</time></trkpt><trkpt lat="44.674595090000736" lon="10.3225534397566"><ele>163.0</ele><time>2026-04-24T14:28:32Z</time></trkpt><trkpt lat="44.674488573955855" lon="10.322810312313056"><ele>163.0</ele><time>2026-04-24T14:28:33Z</time></trkpt><trkpt lat="44.67438208516003" lon="10.323065845744761"><ele>163.0</ele><time>2026-04-24T14:28:34Z</time></trkpt><trkpt lat="44.67427642316299" lon="10.323321801252268"><ele>162.33333333333334</ele><time>2026-04-24T14:28:35Z</time></trkpt><trkpt lat="44.674173505334814" lon="10.323576304797962"><ele>161.66666666666666</ele><time>2026-04-24T14:28:36Z</time></trkpt><trkpt lat="44.67407166163986" lon="10.323818137089177"><ele>161.0</ele><time>2026-04-24T14:28:37Z</time></trkpt><trkpt lat="44.67397934207545" lon="10.324045760016684"><ele>161.0</ele><time>2026-04-24T14:28:38Z</time></trkpt><trkpt lat="44.673888948088944" lon="10.32426104925885"><ele>161.0</ele><time>2026-04-24T14:28:39Z</time></trkpt><trkpt lat="44.67380840306285" lon="10.324460544967407"><ele>161.0</ele><time>2026-04-24T14:28:40Z</time></trkpt><trkpt lat="44.67373211698869" lon="10.324650295674411"><ele>161.0</ele><time>2026-04-24T14:28:41Z</time></trkpt><trkpt lat="44.67365926534287" lon="10.32482839126946"><ele>161.0</ele><time>2026-04-24T14:28:42Z</time></trkpt><trkpt lat="44.67358784112421" lon="10.325000953522453"><ele>161.0</ele><time>2026-04-24T14:28:43Z</time></trkpt><trkpt lat="44.67352188059319" lon="10.325161800243148"><ele>161.0</ele><time>2026-04-24T14:28:44Z</time></trkpt><trkpt lat="44.673456961463124" lon="10.325318738161785"><ele>161.25</ele><time>2026-04-24T14:28:45Z</time></trkpt><trkpt lat="44.67339117764072" lon="10.325469349205438"><ele>161.5</ele><time>2026-04-24T14:28:46Z</time></trkpt><trkpt lat="44.67332387093812" lon="10.325624937007051"><ele>161.75</ele><time>2026-04-24T14:28:47Z</time></trkpt><trkpt lat="44.67326118644452" lon="10.32578538581002"><ele>162.0</ele><time>2026-04-24T14:28:48Z</time></trkpt><trkpt lat="44.67319521678921" lon="10.325952522766153"><ele>162.0</ele><time>2026-04-24T14:28:49Z</time></trkpt><trkpt lat="44.67312541931031" lon="10.326119602691332"><ele>162.0</ele><time>2026-04-24T14:28:50Z</time></trkpt><trkpt lat="44.673055026039634" lon="10.326293676111135"><ele>162.0</ele><time>2026-04-24T14:28:51Z</time></trkpt><trkpt lat="44.67298045856543" lon="10.326470759586925"><ele>162.0</ele><time>2026-04-24T14:28:52Z</time></trkpt><trkpt lat="44.67290465770792" lon="10.326651746989247"><ele>162.25</ele><time>2026-04-24T14:28:53Z</time></trkpt><trkpt lat="44.67282599947432" lon="10.326839177485638"><ele>162.5</ele><time>2026-04-24T14:28:54Z</time></trkpt><trkpt lat="44.672752648408" lon="10.327015729370368"><ele>162.75</ele><time>2026-04-24T14:28:55Z</time></trkpt><trkpt lat="44.67268061566858" lon="10.327188563117323"><ele>163.0</ele><time>2026-04-24T14:28:56Z</time></trkpt><trkpt lat="44.67261279911143" lon="10.327363027301264"><ele>163.5</ele><time>2026-04-24T14:28:57Z</time></trkpt><trkpt lat="44.67254280673544" lon="10.327538730603363"><ele>164.0</ele><time>2026-04-24T14:28:57.999Z</time></trkpt><trkpt lat="44.67247160649403" lon="10.32770901016672"><ele>164.5</ele><time>2026-04-24T14:28:58.999Z</time></trkpt><trkpt lat="44.672400583725974" lon="10.327879291551243"><ele>165.0</ele><time>2026-04-24T14:28:59.999Z</time></trkpt><trkpt lat="44.67232805111922" lon="10.328048243729842"><ele>164.75</ele><time>2026-04-24T14:29:00.999Z</time></trkpt><trkpt lat="44.67225274454971" lon="10.328211976527315"><ele>164.5</ele><time>2026-04-24T14:29:01.999Z</time></trkpt><trkpt lat="44.67218188281238" lon="10.328360529310434"><ele>164.25</ele><time>2026-04-24T14:29:02.999Z</time></trkpt><trkpt lat="44.672111714739366" lon="10.328509043740812"><ele>164.0</ele><time>2026-04-24T14:29:03.999Z</time></trkpt><trkpt lat="44.6720445816029" lon="10.328661930410382"><ele>164.0</ele><time>2026-04-24T14:29:04.999Z</time></trkpt><trkpt lat="44.671979065671266" lon="10.328819551096917"><ele>164.0</ele><time>2026-04-24T14:29:05.999Z</time></trkpt><trkpt lat="44.67191394193538" lon="10.328976724101098"><ele>164.0</ele><time>2026-04-24T14:29:06.999Z</time></trkpt><trkpt lat="44.671848741371676" lon="10.329137051003976"><ele>164.0</ele><time>2026-04-24T14:29:07.999Z</time></trkpt><trkpt lat="44.67178273339148" lon="10.329301281542186"><ele>164.0</ele><time>2026-04-24T14:29:08.999Z</time></trkpt><trkpt lat="44.671715092599946" lon="10.32947185770106"><ele>164.0</ele><time>2026-04-24T14:29:09.999Z</time></trkpt><trkpt lat="44.6716484311601" lon="10.329641945465035"><ele>164.0</ele><time>2026-04-24T14:29:10.999Z</time></trkpt><trkpt lat="44.67157991619136" lon="10.329819272371287"><ele>164.0</ele><time>2026-04-24T14:29:11.999Z</time></trkpt><trkpt lat="44.67151254508454" lon="10.330000176393275"><ele>164.66666666666666</ele><time>2026-04-24T14:29:12.999Z</time></trkpt><trkpt lat="44.67144460950671" lon="10.330184094195285"><ele>165.33333333333334</ele><time>2026-04-24T14:29:13.999Z</time></trkpt><trkpt lat="44.671380951585704" lon="10.330378452056971"><ele>166.0</ele><time>2026-04-24T14:29:14.999Z</time></trkpt><trkpt lat="44.67132582218516" lon="10.330583167990982"><ele>166.0</ele><time>2026-04-24T14:29:15.999Z</time></trkpt><trkpt lat="44.67127652502384" lon="10.33079502608262"><ele>166.0</ele><time>2026-04-24T14:29:16.999Z</time></trkpt><trkpt lat="44.67122852089327" lon="10.331015592859087"><ele>166.0</ele><time>2026-04-24T14:29:17.999Z</time></trkpt><trkpt lat="44.67118413451188" lon="10.331231040035135"><ele>166.0</ele><time>2026-04-24T14:29:18.999Z</time></trkpt><trkpt lat="44.671139494665745" lon="10.331427681434532"><ele>166.0</ele><time>2026-04-24T14:29:19.999Z</time></trkpt><trkpt lat="44.67109561068294" lon="10.331609029472489"><ele>166.0</ele><time>2026-04-24T14:29:20.999Z</time></trkpt><trkpt lat="44.671052145553695" lon="10.331791866174308"><ele>166.0</ele><time>2026-04-24T14:29:21.999Z</time></trkpt><trkpt lat="44.671012596021" lon="10.331969698961073"><ele>166.0</ele><time>2026-04-24T14:29:22.999Z</time></trkpt><trkpt lat="44.67097487621679" lon="10.332144749494882"><ele>166.0</ele><time>2026-04-24T14:29:23.999Z</time></trkpt><trkpt lat="44.67093641714402" lon="10.33231900819281"><ele>166.0</ele><time>2026-04-24T14:29:24.999Z</time></trkpt><trkpt lat="44.67089830417654" lon="10.332486752327444"><ele>166.0</ele><time>2026-04-24T14:29:25.999Z</time></trkpt><trkpt lat="44.670860788221816" lon="10.332658621110252"><ele>165.75</ele><time>2026-04-24T14:29:26.999Z</time></trkpt><trkpt lat="44.67082155047177" lon="10.332830197697346"><ele>165.5</ele><time>2026-04-24T14:29:27.999Z</time></trkpt><trkpt lat="44.67078033023281" lon="10.333001488198267"><ele>165.25</ele><time>2026-04-24T14:29:28.999Z</time></trkpt><trkpt lat="44.67073076276237" lon="10.333170772374563"><ele>165.0</ele><time>2026-04-24T14:29:29.999Z</time></trkpt><trkpt lat="44.670670452005936" lon="10.333331506102697"><ele>165.0</ele><time>2026-04-24T14:29:30.999Z</time></trkpt><trkpt lat="44.670606012520416" lon="10.333468009722791"><ele>165.0</ele><time>2026-04-24T14:29:31.999Z</time></trkpt><trkpt lat="44.6705436251373" lon="10.333585680254256"><ele>165.0</ele><time>2026-04-24T14:29:32.999Z</time></trkpt><trkpt lat="44.670487371106" lon="10.333697565146657"><ele>165.0</ele><time>2026-04-24T14:29:33.999Z</time></trkpt><trkpt lat="44.67043564341087" lon="10.333794976685905"><ele>165.0</ele><time>2026-04-24T14:29:34.999Z</time></trkpt><trkpt lat="44.67038064739036" lon="10.333859818806191"><ele>165.0</ele><time>2026-04-24T14:29:35.999Z</time></trkpt><trkpt lat="44.67031241553155" lon="10.333881710413138"><ele>165.0</ele><time>2026-04-24T14:29:36.999Z</time></trkpt><trkpt lat="44.67024274071735" lon="10.333868541111052"><ele>165.0</ele><time>2026-04-24T14:29:37.999Z</time></trkpt><trkpt lat="44.67016813831572" lon="10.333814671238825"><ele>165.0</ele><time>2026-04-24T14:29:38.999Z</time></trkpt><trkpt lat="44.670102868784575" lon="10.333732248288856"><ele>165.0</ele><time>2026-04-24T14:29:39.999Z</time></trkpt><trkpt lat="44.67004480345776" lon="10.333631478140857"><ele>165.0</ele><time>2026-04-24T14:29:40.999Z</time></trkpt><trkpt lat="44.66998422151616" lon="10.333519074908999"><ele>165.5</ele><time>2026-04-24T14:29:41.999Z</time></trkpt><trkpt lat="44.669920293304614" lon="10.333410460095864"><ele>166.0</ele><time>2026-04-24T14:29:42.999Z</time></trkpt><trkpt lat="44.66985102205853" lon="10.333296130004483"><ele>166.5</ele><time>2026-04-24T14:29:43.999Z</time></trkpt><trkpt lat="44.669777246894654" lon="10.33316817948697"><ele>167.0</ele><time>2026-04-24T14:29:44.999Z</time></trkpt><trkpt lat="44.66969938148321" lon="10.333024750288882"><ele>167.25</ele><time>2026-04-24T14:29:45.999Z</time></trkpt><trkpt lat="44.669612994264384" lon="10.332867378651494"><ele>167.5</ele><time>2026-04-24T14:29:46.999Z</time></trkpt><trkpt lat="44.66951898539364" lon="10.33270488335773"><ele>167.75</ele><time>2026-04-24T14:29:47.999Z</time></trkpt><trkpt lat="44.66942774594127" lon="10.33254347541335"><ele>168.0</ele><time>2026-04-24T14:29:48.999Z</time></trkpt><trkpt lat="44.669340588582784" lon="10.33236793729297"><ele>168.33333333333334</ele><time>2026-04-24T14:29:49.999Z</time></trkpt><trkpt lat="44.66926767906984" lon="10.332182368689498"><ele>168.66666666666669</ele><time>2026-04-24T14:29:50.999Z</time></trkpt><trkpt lat="44.66921253795457" lon="10.331972497879745"><ele>169.0</ele><time>2026-04-24T14:29:51.999Z</time></trkpt><trkpt lat="44.66916593038949" lon="10.331766596319913"><ele>169.0</ele><time>2026-04-24T14:29:52.998Z</time></trkpt><trkpt lat="44.66912513706184" lon="10.331558117461393"><ele>169.0</ele><time>2026-04-24T14:29:53.998Z</time></trkpt><trkpt lat="44.669080058558826" lon="10.331353531718815"><ele>169.0</ele><time>2026-04-24T14:29:54.998Z</time></trkpt><trkpt lat="44.66903051742836" lon="10.331145963182978"><ele>168.66666666666669</ele><time>2026-04-24T14:29:55.998Z</time></trkpt><trkpt lat="44.66898251636767" lon="10.330940305329456"><ele>168.33333333333334</ele><time>2026-04-24T14:29:56.998Z</time></trkpt><trkpt lat="44.6689336262506" lon="10.330729421318999"><ele>168.0</ele><time>2026-04-24T14:29:57.998Z</time></trkpt><trkpt lat="44.66887875144033" lon="10.33052262213813"><ele>168.0</ele><time>2026-04-24T14:29:58.998Z</time></trkpt><trkpt lat="44.66880486888233" lon="10.330327933100211"><ele>168.0</ele><time>2026-04-24T14:29:59.998Z</time></trkpt><trkpt lat="44.66870245104669" lon="10.330147159053668"><ele>168.0</ele><time>2026-04-24T14:30:00.998Z</time></trkpt><trkpt lat="44.66858114103742" lon="10.329995994698919"><ele>169.0</ele><time>2026-04-24T14:30:01.998Z</time></trkpt><trkpt lat="44.66844656131232" lon="10.329862235619741"><ele>170.0</ele><time>2026-04-24T14:30:02.998Z</time></trkpt><trkpt lat="44.668317546853345" lon="10.329718876569544"><ele>171.0</ele><time>2026-04-24T14:30:03.998Z</time></trkpt><trkpt lat="44.66819044791748" lon="10.32957567680375"><ele>171.66666666666666</ele><time>2026-04-24T14:30:04.998Z</time></trkpt><trkpt lat="44.66806025932554" lon="10.329427533010202"><ele>172.33333333333331</ele><time>2026-04-24T14:30:05.998Z</time></trkpt><trkpt lat="44.66793683709013" lon="10.3292666610308"><ele>173.0</ele><time>2026-04-24T14:30:06.998Z</time></trkpt><trkpt lat="44.667819630666536" lon="10.329086303942534"><ele>173.33333333333331</ele><time>2026-04-24T14:30:07.998Z</time></trkpt><trkpt lat="44.66770036235626" lon="10.328887059745124"><ele>173.66666666666666</ele><time>2026-04-24T14:30:08.998Z</time></trkpt><trkpt lat="44.66758283771345" lon="10.328690019510507"><ele>174.0</ele><time>2026-04-24T14:30:09.998Z</time></trkpt><trkpt lat="44.66746786724924" lon="10.328499749470918"><ele>174.0</ele><time>2026-04-24T14:30:10.998Z</time></trkpt><trkpt lat="44.66735460889922" lon="10.328312889661209"><ele>174.0</ele><time>2026-04-24T14:30:11.998Z</time></trkpt><trkpt lat="44.66723785300298" lon="10.32812319237386"><ele>174.0</ele><time>2026-04-24T14:30:12.998Z</time></trkpt><trkpt lat="44.667115246051566" lon="10.327927948711409"><ele>174.0</ele><time>2026-04-24T14:30:13.998Z</time></trkpt><trkpt lat="44.66698975684474" lon="10.327729238620874"><ele>174.0</ele><time>2026-04-24T14:30:14.998Z</time></trkpt><trkpt lat="44.66686342403684" lon="10.327494436506672"><ele>174.0</ele><time>2026-04-24T14:30:15.998Z</time></trkpt><trkpt lat="44.666715815849706" lon="10.327253375909278"><ele>174.66666666666666</ele><time>2026-04-24T14:30:17Z</time></trkpt><trkpt lat="44.66657229028854" lon="10.327018677225368"><ele>175.33333333333331</ele><time>2026-04-24T14:30:18Z</time></trkpt><trkpt lat="44.666433224856306" lon="10.326790960616457"><ele>176.0</ele><time>2026-04-24T14:30:19Z</time></trkpt><trkpt lat="44.66628232822565" lon="10.326577103119405"><ele>176.33333333333331</ele><time>2026-04-24T14:30:20Z</time></trkpt><trkpt lat="44.666146822697165" lon="10.32634892503576"><ele>176.66666666666666</ele><time>2026-04-24T14:30:21Z</time></trkpt><trkpt lat="44.666015782363786" lon="10.326129810895845"><ele>177.0</ele><time>2026-04-24T14:30:22Z</time></trkpt><trkpt lat="44.66588724739308" lon="10.32591583539477"><ele>177.66666666666666</ele><time>2026-04-24T14:30:23Z</time></trkpt><trkpt lat="44.665759572408376" lon="10.325708169274211"><ele>178.33333333333331</ele><time>2026-04-24T14:30:24Z</time></trkpt><trkpt lat="44.66563423444388" lon="10.32550320766142"><ele>179.0</ele><time>2026-04-24T14:30:25Z</time></trkpt><trkpt lat="44.66551878910842" lon="10.325312560066983"><ele>179.33333333333331</ele><time>2026-04-24T14:30:26Z</time></trkpt><trkpt lat="44.6654108818567" lon="10.32513540233669"><ele>179.66666666666666</ele><time>2026-04-24T14:30:27Z</time></trkpt><trkpt lat="44.66530179067748" lon="10.32495399848496"><ele>180.0</ele><time>2026-04-24T14:30:28Z</time></trkpt><trkpt lat="44.66519647709382" lon="10.324770109795773"><ele>180.66666666666666</ele><time>2026-04-24T14:30:29Z</time></trkpt><trkpt lat="44.665101763616114" lon="10.324570724923227"><ele>181.33333333333331</ele><time>2026-04-24T14:30:30Z</time></trkpt><trkpt lat="44.66501340210267" lon="10.32436569196271"><ele>182.0</ele><time>2026-04-24T14:30:31Z</time></trkpt><trkpt lat="44.66492336646673" lon="10.324159894461607"><ele>182.0</ele><time>2026-04-24T14:30:32Z</time></trkpt><trkpt lat="44.66483374368636" lon="10.323956159229175"><ele>182.0</ele><time>2026-04-24T14:30:33Z</time></trkpt><trkpt lat="44.66473962935377" lon="10.323751427182513"><ele>182.0</ele><time>2026-04-24T14:30:34Z</time></trkpt><trkpt lat="44.66464539326343" lon="10.323544284275041"><ele>182.0</ele><time>2026-04-24T14:30:35Z</time></trkpt><trkpt lat="44.66454543590588" lon="10.323346234480317"><ele>182.0</ele><time>2026-04-24T14:30:36Z</time></trkpt><trkpt lat="44.66444000702479" lon="10.323151256321575"><ele>182.0</ele><time>2026-04-24T14:30:37Z</time></trkpt><trkpt lat="44.66432834591126" lon="10.322932911977736"><ele>182.33333333333331</ele><time>2026-04-24T14:30:38Z</time></trkpt><trkpt lat="44.6641917750611" lon="10.322716488589531"><ele>182.66666666666666</ele><time>2026-04-24T14:30:39Z</time></trkpt><trkpt lat="44.66404057636569" lon="10.322482706168648"><ele>183.0</ele><time>2026-04-24T14:30:40Z</time></trkpt><trkpt lat="44.66387733561383" lon="10.32223030439708"><ele>183.0</ele><time>2026-04-24T14:30:41Z</time></trkpt><trkpt lat="44.66371128773" lon="10.321973562253755"><ele>183.0</ele><time>2026-04-24T14:30:42Z</time></trkpt><trkpt lat="44.66355069467505" lon="10.321726548591995"><ele>184.5</ele><time>2026-04-24T14:30:43Z</time></trkpt><trkpt lat="44.66338036926955" lon="10.321492571566463"><ele>186.0</ele><time>2026-04-24T14:30:44Z</time></trkpt><trkpt lat="44.66321587234405" lon="10.321247587950266"><ele>186.0</ele><time>2026-04-24T14:30:45Z</time></trkpt><trkpt lat="44.66304112518738" lon="10.321018896391765"><ele>186.0</ele><time>2026-04-24T14:30:46Z</time></trkpt><trkpt lat="44.66285983787083" lon="10.320806500999911"><ele>187.0</ele><time>2026-04-24T14:30:47Z</time></trkpt><trkpt lat="44.6626724443468" lon="10.320602650116717"><ele>188.0</ele><time>2026-04-24T14:30:48Z</time></trkpt><trkpt lat="44.66248357187047" lon="10.32040090308448"><ele>188.0</ele><time>2026-04-24T14:30:49Z</time></trkpt><trkpt lat="44.662295908197194" lon="10.320200289891034"><ele>188.0</ele><time>2026-04-24T14:30:50Z</time></trkpt><trkpt lat="44.662120431029756" lon="10.31998013857746"><ele>188.5</ele><time>2026-04-24T14:30:51Z</time></trkpt><trkpt lat="44.66192524353772" lon="10.319803828435367"><ele>189.0</ele><time>2026-04-24T14:30:52Z</time></trkpt><trkpt lat="44.66174643955394" lon="10.319611933918665"><ele>189.0</ele><time>2026-04-24T14:30:53Z</time></trkpt><trkpt lat="44.661569409229806" lon="10.319427846775616"><ele>189.0</ele><time>2026-04-24T14:30:54Z</time></trkpt><trkpt lat="44.6613944480047" lon="10.319247760882288"><ele>189.0</ele><time>2026-04-24T14:30:55Z</time></trkpt><trkpt lat="44.66121895683096" lon="10.319068536090088"><ele>189.66666666666666</ele><time>2026-04-24T14:30:56Z</time></trkpt><trkpt lat="44.66104657173744" lon="10.318893500595715"><ele>190.33333333333331</ele><time>2026-04-24T14:30:57Z</time></trkpt><trkpt lat="44.66087642231756" lon="10.31872287581774"><ele>191.0</ele><time>2026-04-24T14:30:58Z</time></trkpt><trkpt lat="44.660707950640756" lon="10.31855228090495"><ele>191.0</ele><time>2026-04-24T14:30:59Z</time></trkpt><trkpt lat="44.66054241149341" lon="10.318380309864999"><ele>191.0</ele><time>2026-04-24T14:31:00Z</time></trkpt><trkpt lat="44.66037423771938" lon="10.31820627271742"><ele>191.0</ele><time>2026-04-24T14:31:01Z</time></trkpt><trkpt lat="44.6601994817258" lon="10.318045617499509"><ele>191.66666666666666</ele><time>2026-04-24T14:31:02Z</time></trkpt><trkpt lat="44.660014262289266" lon="10.317899590375113"><ele>192.33333333333331</ele><time>2026-04-24T14:31:03Z</time></trkpt><trkpt lat="44.65981862475928" lon="10.317754509634954"><ele>193.0</ele><time>2026-04-24T14:31:04Z</time></trkpt><trkpt lat="44.6596192505262" lon="10.31759520616008"><ele>193.0</ele><time>2026-04-24T14:31:05Z</time></trkpt><trkpt lat="44.659421388148544" lon="10.317423520815382"><ele>193.0</ele><time>2026-04-24T14:31:06Z</time></trkpt><trkpt lat="44.65922603888402" lon="10.317239556849332"><ele>194.5</ele><time>2026-04-24T14:31:06.999Z</time></trkpt><trkpt lat="44.65903309120451" lon="10.317048050479864"><ele>196.0</ele><time>2026-04-24T14:31:07.999Z</time></trkpt><trkpt lat="44.65884040886053" lon="10.316854592817958"><ele>196.0</ele><time>2026-04-24T14:31:08.999Z</time></trkpt><trkpt lat="44.65864698933435" lon="10.316663998545131"><ele>196.0</ele><time>2026-04-24T14:31:09.999Z</time></trkpt><trkpt lat="44.658458278543534" lon="10.316479530905776"><ele>197.0</ele><time>2026-04-24T14:31:10.999Z</time></trkpt><trkpt lat="44.658272661678076" lon="10.316301914613856"><ele>198.0</ele><time>2026-04-24T14:31:11.999Z</time></trkpt><trkpt lat="44.658098068458486" lon="10.316134530402062"><ele>199.0</ele><time>2026-04-24T14:31:12.999Z</time></trkpt><trkpt lat="44.65792650872225" lon="10.315972278883748"><ele>199.0</ele><time>2026-04-24T14:31:13.999Z</time></trkpt><trkpt lat="44.65776247551345" lon="10.31582891651769"><ele>199.0</ele><time>2026-04-24T14:31:14.999Z</time></trkpt><trkpt lat="44.65759589583475" lon="10.315697523937809"><ele>199.0</ele><time>2026-04-24T14:31:15.999Z</time></trkpt><trkpt lat="44.6574309366803" lon="10.315584806038986"><ele>199.33333333333331</ele><time>2026-04-24T14:31:16.999Z</time></trkpt><trkpt lat="44.657276744530435" lon="10.315483269973548"><ele>199.66666666666669</ele><time>2026-04-24T14:31:17.999Z</time></trkpt><trkpt lat="44.65713616280609" lon="10.315386590864703"><ele>200.0</ele><time>2026-04-24T14:31:18.999Z</time></trkpt><trkpt lat="44.657004360956286" lon="10.315291583829314"><ele>200.5</ele><time>2026-04-24T14:31:19.999Z</time></trkpt><trkpt lat="44.65688637789836" lon="10.315209271454048"><ele>201.0</ele><time>2026-04-24T14:31:20.999Z</time></trkpt><trkpt lat="44.65677388479017" lon="10.315127350814834"><ele>201.5</ele><time>2026-04-24T14:31:21.999Z</time></trkpt><trkpt lat="44.65667176948435" lon="10.315054916522527"><ele>202.0</ele><time>2026-04-24T14:31:22.999Z</time></trkpt><trkpt lat="44.65657395468851" lon="10.314989776369721"><ele>202.0</ele><time>2026-04-24T14:31:23.999Z</time></trkpt><trkpt lat="44.65648506671794" lon="10.314928291584808"><ele>202.0</ele><time>2026-04-24T14:31:24.999Z</time></trkpt><trkpt lat="44.65639560627882" lon="10.314866687747662"><ele>202.0</ele><time>2026-04-24T14:31:25.999Z</time></trkpt><trkpt lat="44.656312836554214" lon="10.314806204193792"><ele>202.0</ele><time>2026-04-24T14:31:26.999Z</time></trkpt><trkpt lat="44.65621917837788" lon="10.314740787066588"><ele>202.0</ele><time>2026-04-24T14:31:27.999Z</time></trkpt><trkpt lat="44.65611824022429" lon="10.314663750514342"><ele>202.5</ele><time>2026-04-24T14:31:28.999Z</time></trkpt><trkpt lat="44.65601530369823" lon="10.314593131574071"><ele>203.0</ele><time>2026-04-24T14:31:29.999Z</time></trkpt><trkpt lat="44.65591116697646" lon="10.31452121291606"><ele>203.5</ele><time>2026-04-24T14:31:30.998Z</time></trkpt><trkpt lat="44.655805049947666" lon="10.314448921902173"><ele>204.0</ele><time>2026-04-24T14:31:31.998Z</time></trkpt><trkpt lat="44.65569785852752" lon="10.314374008975976"><ele>204.0</ele><time>2026-04-24T14:31:32.998Z</time></trkpt><trkpt lat="44.65559173496073" lon="10.314297506836269"><ele>204.0</ele><time>2026-04-24T14:31:33.998Z</time></trkpt><trkpt lat="44.65548684443478" lon="10.314216866185653"><ele>204.0</ele><time>2026-04-24T14:31:34.998Z</time></trkpt><trkpt lat="44.655387740630246" lon="10.314147715706323"><ele>204.0</ele><time>2026-04-24T14:31:35.998Z</time></trkpt><trkpt lat="44.65529714146416" lon="10.314087693696994"><ele>204.39999999999998</ele><time>2026-04-24T14:31:36.998Z</time></trkpt><trkpt lat="44.65519786845932" lon="10.314015857723577"><ele>204.8</ele><time>2026-04-24T14:31:37.998Z</time></trkpt><trkpt lat="44.65508573876966" lon="10.313934323552177"><ele>205.2</ele><time>2026-04-24T14:31:38.998Z</time></trkpt><trkpt lat="44.65500968388158" lon="10.31389450755429"><ele>205.60000000000002</ele><time>2026-04-24T14:31:39.998Z</time></trkpt><trkpt lat="44.65491400874342" lon="10.313838089033377"><ele>206.0</ele><time>2026-04-24T14:31:40.998Z</time></trkpt><trkpt lat="44.65483444929782" lon="10.313749041761"><ele>206.0</ele><time>2026-04-24T14:31:41.998Z</time></trkpt><trkpt lat="44.6547399234686" lon="10.313680956674231"><ele>206.0</ele><time>2026-04-24T14:31:42.998Z</time></trkpt><trkpt lat="44.65464547865138" lon="10.31361327140441"><ele>206.0</ele><time>2026-04-24T14:31:43.998Z</time></trkpt><trkpt lat="44.654550940663455" lon="10.31354733945582"><ele>206.0</ele><time>2026-04-24T14:31:44.998Z</time></trkpt><trkpt lat="44.65446016140811" lon="10.313484028899127"><ele>206.0</ele><time>2026-04-24T14:31:45.998Z</time></trkpt><trkpt lat="44.65436895150809" lon="10.313420418009404"><ele>206.60000000000002</ele><time>2026-04-24T14:31:46.998Z</time></trkpt><trkpt lat="44.65427841338243" lon="10.313357275609876"><ele>207.2</ele><time>2026-04-24T14:31:47.998Z</time></trkpt><trkpt lat="44.65418838932175" lon="10.313292364435348"><ele>207.8</ele><time>2026-04-24T14:31:48.998Z</time></trkpt><trkpt lat="44.654093337941276" lon="10.313223407876107"><ele>208.39999999999998</ele><time>2026-04-24T14:31:49.998Z</time></trkpt><trkpt lat="44.6539975486991" lon="10.313154111674406"><ele>209.0</ele><time>2026-04-24T14:31:50.998Z</time></trkpt><trkpt lat="44.65388878047948" lon="10.313099496198864"><ele>208.75</ele><time>2026-04-24T14:31:51.998Z</time></trkpt><trkpt lat="44.65378720734896" lon="10.313011804112348"><ele>208.5</ele><time>2026-04-24T14:31:52.998Z</time></trkpt><trkpt lat="44.65367846717733" lon="10.31293885341626"><ele>208.25</ele><time>2026-04-24T14:31:53.998Z</time></trkpt><trkpt lat="44.65356560448259" lon="10.312859899037209"><ele>208.0</ele><time>2026-04-24T14:31:54.998Z</time></trkpt><trkpt lat="44.653452240777675" lon="10.312773827700003"><ele>208.75</ele><time>2026-04-24T14:31:55.998Z</time></trkpt><trkpt lat="44.65333322080421" lon="10.312685751861544"><ele>209.5</ele><time>2026-04-24T14:31:56.998Z</time></trkpt><trkpt lat="44.65321355067595" lon="10.31259032541194"><ele>210.25</ele><time>2026-04-24T14:31:57.998Z</time></trkpt><trkpt lat="44.653100369704994" lon="10.312468310558504"><ele>211.0</ele><time>2026-04-24T14:31:58.998Z</time></trkpt><trkpt lat="44.65298210618587" lon="10.312347882995114"><ele>211.0</ele><time>2026-04-24T14:31:59.998Z</time></trkpt><trkpt lat="44.65285573956672" lon="10.312235108263927"><ele>211.0</ele><time>2026-04-24T14:32:00.998Z</time></trkpt><trkpt lat="44.65273789211796" lon="10.312080567149243"><ele>211.0</ele><time>2026-04-24T14:32:01.998Z</time></trkpt><trkpt lat="44.65262845366735" lon="10.31196488944242"><ele>211.0</ele><time>2026-04-24T14:32:02.998Z</time></trkpt><trkpt lat="44.65253288898999" lon="10.31186026164229"><ele>211.0</ele><time>2026-04-24T14:32:03.998Z</time></trkpt><trkpt lat="44.65244691406115" lon="10.31176172891053"><ele>211.0</ele><time>2026-04-24T14:32:04.997Z</time></trkpt><trkpt lat="44.65236376346278" lon="10.311658908528386"><ele>211.0</ele><time>2026-04-24T14:32:05.997Z</time></trkpt><trkpt lat="44.65227561492717" lon="10.31155590074838"><ele>211.0</ele><time>2026-04-24T14:32:06.997Z</time></trkpt><trkpt lat="44.65218239177151" lon="10.311452594643452"><ele>211.33333333333331</ele><time>2026-04-24T14:32:07.997Z</time></trkpt><trkpt lat="44.65209855225373" lon="10.31135541169243"><ele>211.66666666666666</ele><time>2026-04-24T14:32:08.997Z</time></trkpt><trkpt lat="44.652020613632686" lon="10.311262360821628"><ele>212.0</ele><time>2026-04-24T14:32:09.997Z</time></trkpt><trkpt lat="44.651956468743734" lon="10.311183496710276"><ele>212.33333333333331</ele><time>2026-04-24T14:32:10.997Z</time></trkpt><trkpt lat="44.651896443681196" lon="10.311112373990868"><ele>212.66666666666666</ele><time>2026-04-24T14:32:11.997Z</time></trkpt><trkpt lat="44.65184798398732" lon="10.311037527899952"><ele>213.0</ele><time>2026-04-24T14:32:12.997Z</time></trkpt><trkpt lat="44.65180593401102" lon="10.310946739654039"><ele>213.0</ele><time>2026-04-24T14:32:13.997Z</time></trkpt><trkpt lat="44.65178026509093" lon="10.31084430920401"><ele>213.0</ele><time>2026-04-24T14:32:14.997Z</time></trkpt><trkpt lat="44.65177045115772" lon="10.310742452343831"><ele>213.0</ele><time>2026-04-24T14:32:15.997Z</time></trkpt><trkpt lat="44.651763557951405" lon="10.310642407909077"><ele>213.0</ele><time>2026-04-24T14:32:16.997Z</time></trkpt><trkpt lat="44.651739255163506" lon="10.310541505634642"><ele>213.0</ele><time>2026-04-24T14:32:17.997Z</time></trkpt><trkpt lat="44.65171029769046" lon="10.31043215802789"><ele>213.0</ele><time>2026-04-24T14:32:18.997Z</time></trkpt><trkpt lat="44.65158596585459" lon="10.310456213676789"><ele>213.0</ele><time>2026-04-24T14:32:19.997Z</time></trkpt><trkpt lat="44.65147366091336" lon="10.31047563393016"><ele>213.0</ele><time>2026-04-24T14:32:20.997Z</time></trkpt><trkpt lat="44.65135885359022" lon="10.310445182346504"><ele>213.0</ele><time>2026-04-24T14:32:21.997Z</time></trkpt><trkpt lat="44.65124895185609" lon="10.310352174264588"><ele>213.0</ele><time>2026-04-24T14:32:22.999Z</time></trkpt><trkpt lat="44.65114142120993" lon="10.310230562724165"><ele>213.75</ele><time>2026-04-24T14:32:23.999Z</time></trkpt><trkpt lat="44.651035481613285" lon="10.310106386571793"><ele>214.5</ele><time>2026-04-24T14:32:24.999Z</time></trkpt><trkpt lat="44.650929278046995" lon="10.309983640804484"><ele>215.25</ele><time>2026-04-24T14:32:25.999Z</time></trkpt><trkpt lat="44.65083010870014" lon="10.309849430630912"><ele>216.0</ele><time>2026-04-24T14:32:26.999Z</time></trkpt><trkpt lat="44.65073024099242" lon="10.309704632643763"><ele>216.5</ele><time>2026-04-24T14:32:27.999Z</time></trkpt><trkpt lat="44.65063713045542" lon="10.309554105091378"><ele>217.0</ele><time>2026-04-24T14:32:28.999Z</time></trkpt><trkpt lat="44.6505467504569" lon="10.309394504577533"><ele>217.5</ele><time>2026-04-24T14:32:29.999Z</time></trkpt><trkpt lat="44.650456500376436" lon="10.309228079410332"><ele>218.0</ele><time>2026-04-24T14:32:30.999Z</time></trkpt><trkpt lat="44.65036282193313" lon="10.309051306524099"><ele>219.0</ele><time>2026-04-24T14:32:31.999Z</time></trkpt><trkpt lat="44.65026649012561" lon="10.308872847311095"><ele>220.0</ele><time>2026-04-24T14:32:32.999Z</time></trkpt><trkpt lat="44.65016987442244" lon="10.308688403840877"><ele>221.0</ele><time>2026-04-24T14:32:33.999Z</time></trkpt><trkpt lat="44.65007070262622" lon="10.308499637184056"><ele>221.0</ele><time>2026-04-24T14:32:34.999Z</time></trkpt><trkpt lat="44.64997219943771" lon="10.308312017714163"><ele>221.0</ele><time>2026-04-24T14:32:35.999Z</time></trkpt><trkpt lat="44.64987289140013" lon="10.30812559987061"><ele>221.0</ele><time>2026-04-24T14:32:36.999Z</time></trkpt><trkpt lat="44.64977556350031" lon="10.307940350971865"><ele>221.0</ele><time>2026-04-24T14:32:37.999Z</time></trkpt><trkpt lat="44.649674408164366" lon="10.3077532258195"><ele>221.0</ele><time>2026-04-24T14:32:38.999Z</time></trkpt><trkpt lat="44.64957563547453" lon="10.307567234604793"><ele>221.0</ele><time>2026-04-24T14:32:39.999Z</time></trkpt><trkpt lat="44.649476664331395" lon="10.307381673006693"><ele>222.33333333333334</ele><time>2026-04-24T14:32:40.999Z</time></trkpt><trkpt lat="44.64937866347409" lon="10.307196642488112"><ele>223.66666666666669</ele><time>2026-04-24T14:32:41.999Z</time></trkpt><trkpt lat="44.64928293169063" lon="10.30701144702648"><ele>225.0</ele><time>2026-04-24T14:32:42.999Z</time></trkpt><trkpt lat="44.6491801532874" lon="10.306821743598922"><ele>225.0</ele><time>2026-04-24T14:32:43.999Z</time></trkpt><trkpt lat="44.649074105592874" lon="10.306621463610558"><ele>225.0</ele><time>2026-04-24T14:32:44.999Z</time></trkpt><trkpt lat="44.648965274920954" lon="10.306421250326427"><ele>225.0</ele><time>2026-04-24T14:32:45.999Z</time></trkpt><trkpt lat="44.64885500842081" lon="10.306229245087717"><ele>225.0</ele><time>2026-04-24T14:32:46.999Z</time></trkpt><trkpt lat="44.648745390523025" lon="10.306037768464442"><ele>225.0</ele><time>2026-04-24T14:32:47.999Z</time></trkpt><trkpt lat="44.64863061563857" lon="10.3058483300406"><ele>225.0</ele><time>2026-04-24T14:32:48.999Z</time></trkpt><trkpt lat="44.64851177401255" lon="10.305660851070362"><ele>226.33333333333331</ele><time>2026-04-24T14:32:49.999Z</time></trkpt><trkpt lat="44.64839277769681" lon="10.305474203876766"><ele>227.66666666666666</ele><time>2026-04-24T14:32:50.999Z</time></trkpt><trkpt lat="44.6482802390575" lon="10.30529863069171"><ele>229.0</ele><time>2026-04-24T14:32:51.999Z</time></trkpt><trkpt lat="44.64817187080695" lon="10.305131794968117"><ele>229.0</ele><time>2026-04-24T14:32:52.999Z</time></trkpt><trkpt lat="44.64806753614332" lon="10.304968522902676"><ele>229.0</ele><time>2026-04-24T14:32:53.999Z</time></trkpt><trkpt lat="44.64796789341002" lon="10.304809850032022"><ele>229.0</ele><time>2026-04-24T14:32:54.999Z</time></trkpt><trkpt lat="44.647870069094935" lon="10.304649484675016"><ele>230.25</ele><time>2026-04-24T14:32:55.999Z</time></trkpt><trkpt lat="44.64777406766728" lon="10.3044914946223"><ele>231.5</ele><time>2026-04-24T14:32:56.999Z</time></trkpt><trkpt lat="44.64767851886447" lon="10.304335446689407"><ele>232.75</ele><time>2026-04-24T14:32:57.999Z</time></trkpt><trkpt lat="44.647580519737495" lon="10.304178258750131"><ele>234.0</ele><time>2026-04-24T14:32:58.999Z</time></trkpt><trkpt lat="44.647487719894805" lon="10.304039328742402"><ele>234.0</ele><time>2026-04-24T14:32:59.999Z</time></trkpt><trkpt lat="44.64740797142337" lon="10.303917336668954"><ele>233.99999999999997</ele><time>2026-04-24T14:33:00.999Z</time></trkpt><trkpt lat="44.64733466857394" lon="10.303806652284138"><ele>233.99999999999997</ele><time>2026-04-24T14:33:01.999Z</time></trkpt><trkpt lat="44.64727243974634" lon="10.303699659325964"><ele>234.0</ele><time>2026-04-24T14:33:02.999Z</time></trkpt><trkpt lat="44.64723306324335" lon="10.303584307256308"><ele>234.0</ele><time>2026-04-24T14:33:03.999Z</time></trkpt><trkpt lat="44.64722269917409" lon="10.303467112011846"><ele>234.0</ele><time>2026-04-24T14:33:04.999Z</time></trkpt><trkpt lat="44.64722424328986" lon="10.303347993046415"><ele>234.0</ele><time>2026-04-24T14:33:05.999Z</time></trkpt><trkpt lat="44.64722552644317" lon="10.303225461764118"><ele>234.0</ele><time>2026-04-24T14:33:06.999Z</time></trkpt><trkpt lat="44.64720936945007" lon="10.303105945737808"><ele>234.0</ele><time>2026-04-24T14:33:07.999Z</time></trkpt><trkpt lat="44.647150011578454" lon="10.303012228359062"><ele>234.0</ele><time>2026-04-24T14:33:08.999Z</time></trkpt><trkpt lat="44.647061047578305" lon="10.302990488249682"><ele>234.0</ele><time>2026-04-24T14:33:09.999Z</time></trkpt><trkpt lat="44.64696441445715" lon="10.303014393138511"><ele>235.2</ele><time>2026-04-24T14:33:10.999Z</time></trkpt><trkpt lat="44.64686800144413" lon="10.303014926885162"><ele>236.39999999999998</ele><time>2026-04-24T14:33:11.999Z</time></trkpt><trkpt lat="44.64678009789333" lon="10.302951875284208"><ele>237.6</ele><time>2026-04-24T14:33:12.999Z</time></trkpt><trkpt lat="44.6467030491531" lon="10.302833944626277"><ele>238.8</ele><time>2026-04-24T14:33:13.999Z</time></trkpt><trkpt lat="44.64663206861726" lon="10.302699915161627"><ele>240.0</ele><time>2026-04-24T14:33:14.999Z</time></trkpt><trkpt lat="44.64655604237532" lon="10.30256346690543"><ele>240.0</ele><time>2026-04-24T14:33:15.999Z</time></trkpt><trkpt lat="44.64646946696823" lon="10.302443751895847"><ele>240.0</ele><time>2026-04-24T14:33:16.999Z</time></trkpt><trkpt lat="44.646386175913555" lon="10.302301463975631"><ele>240.0</ele><time>2026-04-24T14:33:17.999Z</time></trkpt><trkpt lat="44.64629712556396" lon="10.302163264752288"><ele>240.0</ele><time>2026-04-24T14:33:18.999Z</time></trkpt><trkpt lat="44.64620245634972" lon="10.302015048608423"><ele>242.0</ele><time>2026-04-24T14:33:19.999Z</time></trkpt><trkpt lat="44.646107051015164" lon="10.30186678053246"><ele>244.0</ele><time>2026-04-24T14:33:20.999Z</time></trkpt><trkpt lat="44.646013307762516" lon="10.30171643281936"><ele>246.0</ele><time>2026-04-24T14:33:21.999Z</time></trkpt><trkpt lat="44.64591973619192" lon="10.30156188980313"><ele>248.0</ele><time>2026-04-24T14:33:22.999Z</time></trkpt><trkpt lat="44.645824378108706" lon="10.301415421639737"><ele>248.0</ele><time>2026-04-24T14:33:23.999Z</time></trkpt><trkpt lat="44.64573571874526" lon="10.301282528173736"><ele>248.0</ele><time>2026-04-24T14:33:24.999Z</time></trkpt><trkpt lat="44.645651821553855" lon="10.301162109540005"><ele>248.0</ele><time>2026-04-24T14:33:25.999Z</time></trkpt><trkpt lat="44.645550441134525" lon="10.301066639725061"><ele>248.0</ele><time>2026-04-24T14:33:26.999Z</time></trkpt><trkpt lat="44.645447404625905" lon="10.300992145765445"><ele>248.0</ele><time>2026-04-24T14:33:27.998Z</time></trkpt><trkpt lat="44.6453430688589" lon="10.300923680139116"><ele>248.0</ele><time>2026-04-24T14:33:28.998Z</time></trkpt><trkpt lat="44.64523698933705" lon="10.300876941106251"><ele>248.0</ele><time>2026-04-24T14:33:29.998Z</time></trkpt><trkpt lat="44.64514706058482" lon="10.300776596341302"><ele>248.0</ele><time>2026-04-24T14:33:30.998Z</time></trkpt><trkpt lat="44.64507682565351" lon="10.30067931118336"><ele>248.0</ele><time>2026-04-24T14:33:31.998Z</time></trkpt><trkpt lat="44.64501812048282" lon="10.30058019844449"><ele>248.66666666666669</ele><time>2026-04-24T14:33:32.998Z</time></trkpt><trkpt lat="44.64495293606788" lon="10.300511699498744"><ele>249.33333333333334</ele><time>2026-04-24T14:33:33.998Z</time></trkpt><trkpt lat="44.6448852413848" lon="10.30044986268709"><ele>250.0</ele><time>2026-04-24T14:33:34.998Z</time></trkpt><trkpt lat="44.64481738288259" lon="10.300394303740779"><ele>250.66666666666669</ele><time>2026-04-24T14:33:35.998Z</time></trkpt><trkpt lat="44.644726933775395" lon="10.300326387361181"><ele>251.33333333333334</ele><time>2026-04-24T14:33:36.998Z</time></trkpt><trkpt lat="44.644644898148805" lon="10.300272331424274"><ele>252.0</ele><time>2026-04-24T14:33:37.998Z</time></trkpt><trkpt lat="44.64456848744736" lon="10.300222649380286"><ele>252.0</ele><time>2026-04-24T14:33:38.998Z</time></trkpt><trkpt lat="44.64450729192016" lon="10.300182557458651"><ele>252.0</ele><time>2026-04-24T14:33:39.998Z</time></trkpt><trkpt lat="44.644397289150696" lon="10.30030146322307"><ele>252.0</ele><time>2026-04-24T14:33:41.998Z</time></trkpt><trkpt lat="44.64436886905839" lon="10.300415364257379"><ele>252.0</ele><time>2026-04-24T14:33:42.998Z</time></trkpt><trkpt lat="44.64433020430513" lon="10.300549316557126"><ele>252.0</ele><time>2026-04-24T14:33:43.998Z</time></trkpt><trkpt lat="44.64428763963808" lon="10.300667747987386"><ele>252.5</ele><time>2026-04-24T14:33:44.998Z</time></trkpt><trkpt lat="44.64424716507579" lon="10.300759651619057"><ele>253.0</ele><time>2026-04-24T14:33:45.998Z</time></trkpt><trkpt lat="44.64421688215578" lon="10.300848334833466"><ele>253.5</ele><time>2026-04-24T14:33:46.998Z</time></trkpt><trkpt lat="44.644186108218896" lon="10.300936461907408"><ele>254.0</ele><time>2026-04-24T14:33:47.998Z</time></trkpt><trkpt lat="44.644125328888556" lon="10.301047294720048"><ele>254.5</ele><time>2026-04-24T14:33:49.998Z</time></trkpt><trkpt lat="44.64404345627806" lon="10.300972797881794"><ele>255.0</ele><time>2026-04-24T14:33:51.998Z</time></trkpt><trkpt lat="44.6439853144249" lon="10.300908708979339"><ele>255.0</ele><time>2026-04-24T14:33:53.998Z</time></trkpt><trkpt lat="44.643881566254876" lon="10.301149244760472"><ele>255.0</ele><time>2026-04-24T14:33:55.998Z</time></trkpt><trkpt lat="44.6438456566054" lon="10.301264503474512"><ele>255.0</ele><time>2026-04-24T14:33:57.998Z</time></trkpt><trkpt lat="44.64381671768773" lon="10.301385020143373"><ele>255.0</ele><time>2026-04-24T14:33:59.998Z</time></trkpt><trkpt lat="44.643772422436534" lon="10.301454348163785"><ele>255.0</ele><time>2026-04-24T14:34:02.998Z</time></trkpt><trkpt lat="44.64386026575737" lon="10.301489898001806"><ele>255.33333333333334</ele><time>2026-04-24T14:38:12.998Z</time></trkpt><trkpt lat="44.64379307456262" lon="10.301470683322894"><ele>255.66666666666669</ele><time>2026-04-24T14:38:20.998Z</time></trkpt><trkpt lat="44.64371747687847" lon="10.30148285422069"><ele>256.0</ele><time>2026-04-24T14:38:23.998Z</time></trkpt><trkpt lat="44.64371809839922" lon="10.301579296595742"><ele>256.33333333333337</ele><time>2026-04-24T14:38:33.998Z</time></trkpt><trkpt lat="44.6436889404322" lon="10.301723097178435"><ele>256.6666666666667</ele><time>2026-04-24T14:38:35.998Z</time></trkpt><trkpt lat="44.64375305236483" lon="10.30170025459487"><ele>257.0</ele><time>2026-04-24T14:38:43Z</time></trkpt><trkpt lat="44.643828433136754" lon="10.301625691383807"><ele>257.0</ele><time>2026-04-24T14:38:45Z</time></trkpt><trkpt lat="44.643872415165475" lon="10.30153500769543"><ele>257.0</ele><time>2026-04-24T14:38:48Z</time></trkpt><trkpt lat="44.64385218122239" lon="10.301423993013053"><ele>257.0</ele><time>2026-04-24T14:39:37.999Z</time></trkpt><trkpt lat="44.64390463712584" lon="10.30128578455082"><ele>257.0</ele><time>2026-04-24T14:39:39.999Z</time></trkpt><trkpt lat="44.64393470062974" lon="10.301199403501416"><ele>257.0</ele><time>2026-04-24T14:39:40.999Z</time></trkpt><trkpt lat="44.64394679963546" lon="10.30104894681722"><ele>257.0</ele><time>2026-04-24T14:39:42.999Z</time></trkpt><trkpt lat="44.643973784906386" lon="10.30095549075588"><ele>256.6</ele><time>2026-04-24T14:39:44.999Z</time></trkpt><trkpt lat="44.644116835332206" lon="10.301068684413819"><ele>256.2</ele><time>2026-04-24T14:39:46.999Z</time></trkpt><trkpt lat="44.64420390493963" lon="10.301006543092052"><ele>255.8</ele><time>2026-04-24T14:39:48.999Z</time></trkpt><trkpt lat="44.64423544964791" lon="10.300898675265778"><ele>255.4</ele><time>2026-04-24T14:39:49.999Z</time></trkpt><trkpt lat="44.64427291100182" lon="10.300789004715048"><ele>255.0</ele><time>2026-04-24T14:39:50.999Z</time></trkpt><trkpt lat="44.644314382004545" lon="10.300669269377964"><ele>255.0</ele><time>2026-04-24T14:39:51.999Z</time></trkpt><trkpt lat="44.64435583572432" lon="10.300546696924485"><ele>255.0</ele><time>2026-04-24T14:39:52.999Z</time></trkpt><trkpt lat="44.6443934253183" lon="10.300452328577311"><ele>255.0</ele><time>2026-04-24T14:39:53.999Z</time></trkpt><trkpt lat="44.64442248813998" lon="10.300370428516944"><ele>255.0</ele><time>2026-04-24T14:39:54.999Z</time></trkpt><trkpt lat="44.64447091927743" lon="10.300284595145198"><ele>255.0</ele><time>2026-04-24T14:39:56.999Z</time></trkpt><trkpt lat="44.644603181036345" lon="10.300287777324096"><ele>255.0</ele><time>2026-04-24T14:40:00.999Z</time></trkpt><trkpt lat="44.644685048095425" lon="10.300327324383282"><ele>254.8</ele><time>2026-04-24T14:40:01.999Z</time></trkpt><trkpt lat="44.64475891588646" lon="10.300401505569189"><ele>254.6</ele><time>2026-04-24T14:40:02.999Z</time></trkpt><trkpt lat="44.64485108537215" lon="10.300476345326976"><ele>254.39999999999998</ele><time>2026-04-24T14:40:03.999Z</time></trkpt><trkpt lat="44.64495186666373" lon="10.300566401714928"><ele>254.2</ele><time>2026-04-24T14:40:04.999Z</time></trkpt><trkpt lat="44.64502288738696" lon="10.300647010062358"><ele>254.0</ele><time>2026-04-24T14:40:05.999Z</time></trkpt><trkpt lat="44.64510906041358" lon="10.300745041400342"><ele>254.0</ele><time>2026-04-24T14:40:06.999Z</time></trkpt><trkpt lat="44.64519387721571" lon="10.300851721553714"><ele>254.0</ele><time>2026-04-24T14:40:07.999Z</time></trkpt><trkpt lat="44.64529156362691" lon="10.300949654574245"><ele>254.0</ele><time>2026-04-24T14:40:08.999Z</time></trkpt><trkpt lat="44.645396844062894" lon="10.301029242775215"><ele>254.0</ele><time>2026-04-24T14:40:09.999Z</time></trkpt><trkpt lat="44.64551397073284" lon="10.301105049171229"><ele>252.5</ele><time>2026-04-24T14:40:10.999Z</time></trkpt><trkpt lat="44.64562995699224" lon="10.301191891707706"><ele>251.0</ele><time>2026-04-24T14:40:11.998Z</time></trkpt><trkpt lat="44.645741913587315" lon="10.301307227194695"><ele>249.5</ele><time>2026-04-24T14:40:12.998Z</time></trkpt><trkpt lat="44.64583822708616" lon="10.301451001546939"><ele>248.0</ele><time>2026-04-24T14:40:13.998Z</time></trkpt><trkpt lat="44.64592840609475" lon="10.30161872733362"><ele>248.0</ele><time>2026-04-24T14:40:14.998Z</time></trkpt><trkpt lat="44.64602566731568" lon="10.301787058109182"><ele>248.0</ele><time>2026-04-24T14:40:15.998Z</time></trkpt><trkpt lat="44.646132881168235" lon="10.301957860490326"><ele>248.0</ele><time>2026-04-24T14:40:16.998Z</time></trkpt><trkpt lat="44.64624122757496" lon="10.302135707492003"><ele>245.33333333333334</ele><time>2026-04-24T14:40:17.998Z</time></trkpt><trkpt lat="44.64635157304165" lon="10.302317535350175"><ele>242.66666666666669</ele><time>2026-04-24T14:40:18.998Z</time></trkpt><trkpt lat="44.6464609672808" lon="10.302496710604931"><ele>240.0</ele><time>2026-04-24T14:40:19.998Z</time></trkpt><trkpt lat="44.646571154969735" lon="10.302668802086455"><ele>240.0</ele><time>2026-04-24T14:40:20.998Z</time></trkpt><trkpt lat="44.64667291066254" lon="10.302817634017929"><ele>240.0</ele><time>2026-04-24T14:40:21.998Z</time></trkpt><trkpt lat="44.646759100855164" lon="10.302956414271003"><ele>240.0</ele><time>2026-04-24T14:40:22.998Z</time></trkpt><trkpt lat="44.64684797097297" lon="10.303076742779863"><ele>240.0</ele><time>2026-04-24T14:40:23.998Z</time></trkpt><trkpt lat="44.64694254264159" lon="10.303171827616474"><ele>238.5</ele><time>2026-04-24T14:40:24.998Z</time></trkpt><trkpt lat="44.64704045907827" lon="10.303283646809287"><ele>237.0</ele><time>2026-04-24T14:40:25.998Z</time></trkpt><trkpt lat="44.64713074506874" lon="10.303437976359717"><ele>235.5</ele><time>2026-04-24T14:40:26.998Z</time></trkpt><trkpt lat="44.64720832209024" lon="10.303633734998563"><ele>234.0</ele><time>2026-04-24T14:40:27.998Z</time></trkpt><trkpt lat="44.64731458067755" lon="10.303807720400075"><ele>234.0</ele><time>2026-04-24T14:40:28.998Z</time></trkpt><trkpt lat="44.64741842178811" lon="10.304011528409315"><ele>234.0</ele><time>2026-04-24T14:40:29.998Z</time></trkpt><trkpt lat="44.647547064500586" lon="10.30420151777122"><ele>234.0</ele><time>2026-04-24T14:40:30.998Z</time></trkpt><trkpt lat="44.64767396516586" lon="10.304401359073875"><ele>232.33333333333331</ele><time>2026-04-24T14:40:31.998Z</time></trkpt><trkpt lat="44.64780693312364" lon="10.304612045950075"><ele>230.66666666666666</ele><time>2026-04-24T14:40:32.998Z</time></trkpt><trkpt lat="44.647944596239576" lon="10.304825007699018"><ele>229.0</ele><time>2026-04-24T14:40:33.998Z</time></trkpt><trkpt lat="44.64808275121211" lon="10.305041293092756"><ele>229.0</ele><time>2026-04-24T14:40:34.998Z</time></trkpt><trkpt lat="44.648215234535584" lon="10.305255189090197"><ele>229.0</ele><time>2026-04-24T14:40:35.998Z</time></trkpt><trkpt lat="44.648353121044565" lon="10.305468870611032"><ele>229.0</ele><time>2026-04-24T14:40:36.998Z</time></trkpt><trkpt lat="44.64848977199583" lon="10.305686895721873"><ele>229.33333333333331</ele><time>2026-04-24T14:40:37.998Z</time></trkpt><trkpt lat="44.64862462836097" lon="10.30590410698705"><ele>229.66666666666669</ele><time>2026-04-24T14:40:38.998Z</time></trkpt><trkpt lat="44.648756705565724" lon="10.30612601183813"><ele>230.0</ele><time>2026-04-24T14:40:39.998Z</time></trkpt><trkpt lat="44.64888403958128" lon="10.306354088940996"><ele>228.33333333333334</ele><time>2026-04-24T14:40:40.998Z</time></trkpt><trkpt lat="44.64901077416432" lon="10.30658561261064"><ele>226.66666666666669</ele><time>2026-04-24T14:40:41.998Z</time></trkpt><trkpt lat="44.64913642824585" lon="10.306818173685265"><ele>225.0</ele><time>2026-04-24T14:40:42.998Z</time></trkpt><trkpt lat="44.64926044002504" lon="10.307051553400164"><ele>225.0</ele><time>2026-04-24T14:40:43.998Z</time></trkpt><trkpt lat="44.6493850431158" lon="10.307287384262379"><ele>225.0</ele><time>2026-04-24T14:40:44.998Z</time></trkpt><trkpt lat="44.64951056235324" lon="10.307520991204166"><ele>225.0</ele><time>2026-04-24T14:40:45.998Z</time></trkpt><trkpt lat="44.64963660903828" lon="10.307752409029213"><ele>223.66666666666669</ele><time>2026-04-24T14:40:47Z</time></trkpt><trkpt lat="44.64976213198148" lon="10.307981759257336"><ele>222.33333333333334</ele><time>2026-04-24T14:40:48Z</time></trkpt><trkpt lat="44.64988853060066" lon="10.308213869912436"><ele>221.0</ele><time>2026-04-24T14:40:49Z</time></trkpt><trkpt lat="44.65001267130369" lon="10.308454103336466"><ele>221.0</ele><time>2026-04-24T14:40:50Z</time></trkpt><trkpt lat="44.650131516461684" lon="10.30868817032169"><ele>221.0</ele><time>2026-04-24T14:40:51Z</time></trkpt><trkpt lat="44.65024923631447" lon="10.308914662838117"><ele>221.0</ele><time>2026-04-24T14:40:52Z</time></trkpt><trkpt lat="44.65036772587198" lon="10.30913605527295"><ele>220.0</ele><time>2026-04-24T14:40:53Z</time></trkpt><trkpt lat="44.65048322375592" lon="10.309353783257954"><ele>219.0</ele><time>2026-04-24T14:40:54Z</time></trkpt><trkpt lat="44.650597969459916" lon="10.309562524784576"><ele>218.0</ele><time>2026-04-24T14:40:55Z</time></trkpt><trkpt lat="44.650719078438605" lon="10.3097609185409"><ele>217.33333333333334</ele><time>2026-04-24T14:40:56Z</time></trkpt><trkpt lat="44.65084694090197" lon="10.309943498629414"><ele>216.66666666666669</ele><time>2026-04-24T14:40:57Z</time></trkpt><trkpt lat="44.650974059552865" lon="10.310102208927686"><ele>216.0</ele><time>2026-04-24T14:40:58Z</time></trkpt><trkpt lat="44.65109795226511" lon="10.310235678817623"><ele>215.5</ele><time>2026-04-24T14:40:59Z</time></trkpt><trkpt lat="44.65121878010541" lon="10.310358498065192"><ele>215.0</ele><time>2026-04-24T14:41:00Z</time></trkpt><trkpt lat="44.65133177012626" lon="10.310464407041032"><ele>214.5</ele><time>2026-04-24T14:41:01Z</time></trkpt><trkpt lat="44.651426980756476" lon="10.31054516635376"><ele>214.0</ele><time>2026-04-24T14:41:02Z</time></trkpt><trkpt lat="44.65151348254567" lon="10.310620324888252"><ele>214.0</ele><time>2026-04-24T14:41:03Z</time></trkpt><trkpt lat="44.65158905060822" lon="10.310723986896459"><ele>213.99999999999997</ele><time>2026-04-24T14:41:04Z</time></trkpt><trkpt lat="44.65170026207281" lon="10.310754738688328"><ele>213.99999999999997</ele><time>2026-04-24T14:41:05Z</time></trkpt><trkpt lat="44.65173576681391" lon="10.310832484631524"><ele>214.0</ele><time>2026-04-24T14:41:06Z</time></trkpt><trkpt lat="44.651772348300376" lon="10.31092132746035"><ele>214.0</ele><time>2026-04-24T14:41:08Z</time></trkpt><trkpt lat="44.65158856297582" lon="10.311099845418457"><ele>213.99999999999997</ele><time>2026-04-24T14:41:09Z</time></trkpt><trkpt lat="44.651543274433855" lon="10.311169298263225"><ele>214.0</ele><time>2026-04-24T14:41:10Z</time></trkpt><trkpt lat="44.65149405496007" lon="10.311246792428662"><ele>214.0</ele><time>2026-04-24T14:41:11Z</time></trkpt><trkpt lat="44.65145110530558" lon="10.311328783669163"><ele>214.0</ele><time>2026-04-24T14:41:12Z</time></trkpt><trkpt lat="44.65140765860232" lon="10.311414659715535"><ele>213.99999999999997</ele><time>2026-04-24T14:41:13Z</time></trkpt><trkpt lat="44.65136935425395" lon="10.311496548305609"><ele>214.0</ele><time>2026-04-24T14:41:14Z</time></trkpt><trkpt lat="44.65129799611911" lon="10.311592843348956"><ele>213.0</ele><time>2026-04-24T14:41:16Z</time></trkpt><trkpt lat="44.65141888257674" lon="10.311724402326622"><ele>213.0</ele><time>2026-04-24T14:41:18Z</time></trkpt><trkpt lat="44.65147425458509" lon="10.31179293358791"><ele>213.0</ele><time>2026-04-24T14:41:20Z</time></trkpt></trkseg></trk></gpx>